<?xml version="1.0" encoding="UTF-8" standalone="no" ?>
<gpx xmlns="http://www.topografix.com/GPX/1/1" xmlns:xsi="http://www.w3.org/2001/XMLSchema-instance" xsi:schemaLocation="http://www.topografix.com/GPX/1/1 http://www.topografix.com/GPX/1/1/gpx.xsd" version="1.1" creator="VisuGPX - https://www.visugpx.com">
  <metadata>
    <name>N-E-Nantes Chapelle Erdre Sucé Erdre St Mars du Désert Le Cellier Nantes</name>
    <desc><![CDATA[N-E-Nantes Chapelle Erdre Sucé Erdre St Mars du Désert Le Cellier Nantes]]></desc>
  </metadata>
  <trk>
    <name><![CDATA[2021-03-20 12:19 +01:00]]></name>
    <trkseg>
      <trkpt lat="47.1678" lon="-1.62649">
        <ele>67</ele>
        <time>2021-03-20T11:19:07.000Z</time>
      </trkpt>
      <trkpt lat="47.16787" lon="-1.62659">
        <ele>68</ele>
        <time>2021-03-20T11:24:26.000Z</time>
      </trkpt>
      <trkpt lat="47.16783" lon="-1.62674">
        <ele>68</ele>
        <time>2021-03-20T11:24:29.000Z</time>
      </trkpt>
      <trkpt lat="47.16772" lon="-1.6268">
        <ele>68</ele>
        <time>2021-03-20T11:24:31.000Z</time>
      </trkpt>
      <trkpt lat="47.1676" lon="-1.62674">
        <ele>69</ele>
        <time>2021-03-20T11:24:33.000Z</time>
      </trkpt>
      <trkpt lat="47.16748" lon="-1.62675">
        <ele>69</ele>
        <time>2021-03-20T11:24:35.000Z</time>
      </trkpt>
      <trkpt lat="47.16737" lon="-1.62682">
        <ele>69</ele>
        <time>2021-03-20T11:24:37.000Z</time>
      </trkpt>
      <trkpt lat="47.16727" lon="-1.6269">
        <ele>68</ele>
        <time>2021-03-20T11:24:39.000Z</time>
      </trkpt>
      <trkpt lat="47.16717" lon="-1.62694">
        <ele>69</ele>
        <time>2021-03-20T11:24:41.000Z</time>
      </trkpt>
      <trkpt lat="47.16707" lon="-1.62683">
        <ele>70</ele>
        <time>2021-03-20T11:24:43.000Z</time>
      </trkpt>
      <trkpt lat="47.16702" lon="-1.62665">
        <ele>70</ele>
        <time>2021-03-20T11:24:45.000Z</time>
      </trkpt>
      <trkpt lat="47.167" lon="-1.62646">
        <ele>69</ele>
        <time>2021-03-20T11:24:47.000Z</time>
      </trkpt>
      <trkpt lat="47.16698" lon="-1.62628">
        <ele>69</ele>
        <time>2021-03-20T11:24:49.000Z</time>
      </trkpt>
      <trkpt lat="47.16698" lon="-1.62609">
        <ele>69</ele>
        <time>2021-03-20T11:24:51.000Z</time>
      </trkpt>
      <trkpt lat="47.16699" lon="-1.6259">
        <ele>69</ele>
        <time>2021-03-20T11:24:53.000Z</time>
      </trkpt>
      <trkpt lat="47.16701" lon="-1.62572">
        <ele>69</ele>
        <time>2021-03-20T11:24:55.000Z</time>
      </trkpt>
      <trkpt lat="47.16702" lon="-1.62553">
        <ele>68</ele>
        <time>2021-03-20T11:24:57.000Z</time>
      </trkpt>
      <trkpt lat="47.16705" lon="-1.62535">
        <ele>68</ele>
        <time>2021-03-20T11:24:59.000Z</time>
      </trkpt>
      <trkpt lat="47.16707" lon="-1.62517">
        <ele>68</ele>
        <time>2021-03-20T11:25:01.000Z</time>
      </trkpt>
      <trkpt lat="47.1671" lon="-1.62498">
        <ele>67</ele>
        <time>2021-03-20T11:25:03.000Z</time>
      </trkpt>
      <trkpt lat="47.16713" lon="-1.62479">
        <ele>68</ele>
        <time>2021-03-20T11:25:05.000Z</time>
      </trkpt>
      <trkpt lat="47.16716" lon="-1.62461">
        <ele>67</ele>
        <time>2021-03-20T11:25:07.000Z</time>
      </trkpt>
      <trkpt lat="47.16718" lon="-1.62444">
        <ele>67</ele>
        <time>2021-03-20T11:25:09.000Z</time>
      </trkpt>
      <trkpt lat="47.1672" lon="-1.62426">
        <ele>67</ele>
        <time>2021-03-20T11:25:11.000Z</time>
      </trkpt>
      <trkpt lat="47.16726" lon="-1.62409">
        <ele>66</ele>
        <time>2021-03-20T11:25:13.000Z</time>
      </trkpt>
      <trkpt lat="47.16731" lon="-1.62391">
        <ele>66</ele>
        <time>2021-03-20T11:25:15.000Z</time>
      </trkpt>
      <trkpt lat="47.16737" lon="-1.62374">
        <ele>66</ele>
        <time>2021-03-20T11:25:17.000Z</time>
      </trkpt>
      <trkpt lat="47.16746" lon="-1.6236">
        <ele>66</ele>
        <time>2021-03-20T11:25:19.000Z</time>
      </trkpt>
      <trkpt lat="47.16756" lon="-1.62349">
        <ele>66</ele>
        <time>2021-03-20T11:25:21.000Z</time>
      </trkpt>
      <trkpt lat="47.16768" lon="-1.62341">
        <ele>67</ele>
        <time>2021-03-20T11:25:23.000Z</time>
      </trkpt>
      <trkpt lat="47.1678" lon="-1.62334">
        <ele>67</ele>
        <time>2021-03-20T11:25:25.000Z</time>
      </trkpt>
      <trkpt lat="47.16792" lon="-1.62327">
        <ele>68</ele>
        <time>2021-03-20T11:25:27.000Z</time>
      </trkpt>
      <trkpt lat="47.16804" lon="-1.62321">
        <ele>68</ele>
        <time>2021-03-20T11:25:29.000Z</time>
      </trkpt>
      <trkpt lat="47.16815" lon="-1.62313">
        <ele>69</ele>
        <time>2021-03-20T11:25:31.000Z</time>
      </trkpt>
      <trkpt lat="47.16826" lon="-1.62304">
        <ele>69</ele>
        <time>2021-03-20T11:25:33.000Z</time>
      </trkpt>
      <trkpt lat="47.16837" lon="-1.62294">
        <ele>69</ele>
        <time>2021-03-20T11:25:35.000Z</time>
      </trkpt>
      <trkpt lat="47.16847" lon="-1.62282">
        <ele>69</ele>
        <time>2021-03-20T11:25:37.000Z</time>
      </trkpt>
      <trkpt lat="47.16857" lon="-1.62269">
        <ele>70</ele>
        <time>2021-03-20T11:25:39.000Z</time>
      </trkpt>
      <trkpt lat="47.16867" lon="-1.62257">
        <ele>69</ele>
        <time>2021-03-20T11:25:41.000Z</time>
      </trkpt>
      <trkpt lat="47.16878" lon="-1.62244">
        <ele>69</ele>
        <time>2021-03-20T11:25:43.000Z</time>
      </trkpt>
      <trkpt lat="47.16888" lon="-1.62232">
        <ele>69</ele>
        <time>2021-03-20T11:25:45.000Z</time>
      </trkpt>
      <trkpt lat="47.16897" lon="-1.62218">
        <ele>69</ele>
        <time>2021-03-20T11:25:47.000Z</time>
      </trkpt>
      <trkpt lat="47.16907" lon="-1.62204">
        <ele>69</ele>
        <time>2021-03-20T11:25:49.000Z</time>
      </trkpt>
      <trkpt lat="47.16917" lon="-1.6219">
        <ele>69</ele>
        <time>2021-03-20T11:25:51.000Z</time>
      </trkpt>
      <trkpt lat="47.16925" lon="-1.62174">
        <ele>69</ele>
        <time>2021-03-20T11:25:53.000Z</time>
      </trkpt>
      <trkpt lat="47.16933" lon="-1.62158">
        <ele>69</ele>
        <time>2021-03-20T11:25:55.000Z</time>
      </trkpt>
      <trkpt lat="47.16941" lon="-1.62143">
        <ele>69</ele>
        <time>2021-03-20T11:25:57.000Z</time>
      </trkpt>
      <trkpt lat="47.1695" lon="-1.62127">
        <ele>69</ele>
        <time>2021-03-20T11:25:59.000Z</time>
      </trkpt>
      <trkpt lat="47.16958" lon="-1.62112">
        <ele>69</ele>
        <time>2021-03-20T11:26:01.000Z</time>
      </trkpt>
      <trkpt lat="47.16965" lon="-1.62096">
        <ele>69</ele>
        <time>2021-03-20T11:26:03.000Z</time>
      </trkpt>
      <trkpt lat="47.16973" lon="-1.62081">
        <ele>69</ele>
        <time>2021-03-20T11:26:05.000Z</time>
      </trkpt>
      <trkpt lat="47.16981" lon="-1.62066">
        <ele>68</ele>
        <time>2021-03-20T11:26:07.000Z</time>
      </trkpt>
      <trkpt lat="47.1699" lon="-1.62051">
        <ele>68</ele>
        <time>2021-03-20T11:26:09.000Z</time>
      </trkpt>
      <trkpt lat="47.16998" lon="-1.62036">
        <ele>68</ele>
        <time>2021-03-20T11:26:11.000Z</time>
      </trkpt>
      <trkpt lat="47.17007" lon="-1.62022">
        <ele>69</ele>
        <time>2021-03-20T11:26:13.000Z</time>
      </trkpt>
      <trkpt lat="47.17016" lon="-1.62008">
        <ele>69</ele>
        <time>2021-03-20T11:26:15.000Z</time>
      </trkpt>
      <trkpt lat="47.17025" lon="-1.61996">
        <ele>69</ele>
        <time>2021-03-20T11:26:17.000Z</time>
      </trkpt>
      <trkpt lat="47.17033" lon="-1.61983">
        <ele>69</ele>
        <time>2021-03-20T11:26:19.000Z</time>
      </trkpt>
      <trkpt lat="47.17042" lon="-1.6197">
        <ele>69</ele>
        <time>2021-03-20T11:26:21.000Z</time>
      </trkpt>
      <trkpt lat="47.17052" lon="-1.61957">
        <ele>69</ele>
        <time>2021-03-20T11:26:23.000Z</time>
      </trkpt>
      <trkpt lat="47.17062" lon="-1.61944">
        <ele>69</ele>
        <time>2021-03-20T11:26:25.000Z</time>
      </trkpt>
      <trkpt lat="47.17071" lon="-1.61932">
        <ele>69</ele>
        <time>2021-03-20T11:26:27.000Z</time>
      </trkpt>
      <trkpt lat="47.17081" lon="-1.61921">
        <ele>69</ele>
        <time>2021-03-20T11:26:29.000Z</time>
      </trkpt>
      <trkpt lat="47.17091" lon="-1.61911">
        <ele>69</ele>
        <time>2021-03-20T11:26:31.000Z</time>
      </trkpt>
      <trkpt lat="47.17102" lon="-1.61901">
        <ele>69</ele>
        <time>2021-03-20T11:26:33.000Z</time>
      </trkpt>
      <trkpt lat="47.17112" lon="-1.61891">
        <ele>69</ele>
        <time>2021-03-20T11:26:35.000Z</time>
      </trkpt>
      <trkpt lat="47.17122" lon="-1.61881">
        <ele>69</ele>
        <time>2021-03-20T11:26:37.000Z</time>
      </trkpt>
      <trkpt lat="47.17133" lon="-1.61871">
        <ele>69</ele>
        <time>2021-03-20T11:26:39.000Z</time>
      </trkpt>
      <trkpt lat="47.17143" lon="-1.61861">
        <ele>69</ele>
        <time>2021-03-20T11:26:41.000Z</time>
      </trkpt>
      <trkpt lat="47.17153" lon="-1.61851">
        <ele>69</ele>
        <time>2021-03-20T11:26:43.000Z</time>
      </trkpt>
      <trkpt lat="47.17164" lon="-1.61841">
        <ele>69</ele>
        <time>2021-03-20T11:26:45.000Z</time>
      </trkpt>
      <trkpt lat="47.17174" lon="-1.61831">
        <ele>69</ele>
        <time>2021-03-20T11:26:47.000Z</time>
      </trkpt>
      <trkpt lat="47.17184" lon="-1.61821">
        <ele>69</ele>
        <time>2021-03-20T11:26:49.000Z</time>
      </trkpt>
      <trkpt lat="47.17194" lon="-1.61811">
        <ele>69</ele>
        <time>2021-03-20T11:26:51.000Z</time>
      </trkpt>
      <trkpt lat="47.17204" lon="-1.618">
        <ele>69</ele>
        <time>2021-03-20T11:26:53.000Z</time>
      </trkpt>
      <trkpt lat="47.17214" lon="-1.6179">
        <ele>69</ele>
        <time>2021-03-20T11:26:55.000Z</time>
      </trkpt>
      <trkpt lat="47.17223" lon="-1.61776">
        <ele>68</ele>
        <time>2021-03-20T11:26:57.000Z</time>
      </trkpt>
      <trkpt lat="47.17229" lon="-1.6176">
        <ele>68</ele>
        <time>2021-03-20T11:26:59.000Z</time>
      </trkpt>
      <trkpt lat="47.17237" lon="-1.61746">
        <ele>67</ele>
        <time>2021-03-20T11:27:01.000Z</time>
      </trkpt>
      <trkpt lat="47.17246" lon="-1.61733">
        <ele>67</ele>
        <time>2021-03-20T11:27:03.000Z</time>
      </trkpt>
      <trkpt lat="47.17254" lon="-1.61719">
        <ele>68</ele>
        <time>2021-03-20T11:27:05.000Z</time>
      </trkpt>
      <trkpt lat="47.17261" lon="-1.61704">
        <ele>68</ele>
        <time>2021-03-20T11:27:07.000Z</time>
      </trkpt>
      <trkpt lat="47.17268" lon="-1.61689">
        <ele>68</ele>
        <time>2021-03-20T11:27:09.000Z</time>
      </trkpt>
      <trkpt lat="47.17274" lon="-1.61674">
        <ele>68</ele>
        <time>2021-03-20T11:27:11.000Z</time>
      </trkpt>
      <trkpt lat="47.17282" lon="-1.61658">
        <ele>68</ele>
        <time>2021-03-20T11:27:13.000Z</time>
      </trkpt>
      <trkpt lat="47.1729" lon="-1.61644">
        <ele>68</ele>
        <time>2021-03-20T11:27:15.000Z</time>
      </trkpt>
      <trkpt lat="47.17299" lon="-1.6163">
        <ele>68</ele>
        <time>2021-03-20T11:27:17.000Z</time>
      </trkpt>
      <trkpt lat="47.17307" lon="-1.61617">
        <ele>69</ele>
        <time>2021-03-20T11:27:19.000Z</time>
      </trkpt>
      <trkpt lat="47.17316" lon="-1.61603">
        <ele>69</ele>
        <time>2021-03-20T11:27:21.000Z</time>
      </trkpt>
      <trkpt lat="47.17324" lon="-1.6159">
        <ele>69</ele>
        <time>2021-03-20T11:27:23.000Z</time>
      </trkpt>
      <trkpt lat="47.17333" lon="-1.61578">
        <ele>69</ele>
        <time>2021-03-20T11:27:25.000Z</time>
      </trkpt>
      <trkpt lat="47.17342" lon="-1.61566">
        <ele>69</ele>
        <time>2021-03-20T11:27:27.000Z</time>
      </trkpt>
      <trkpt lat="47.17351" lon="-1.61555">
        <ele>69</ele>
        <time>2021-03-20T11:27:29.000Z</time>
      </trkpt>
      <trkpt lat="47.17362" lon="-1.61545">
        <ele>68</ele>
        <time>2021-03-20T11:27:31.000Z</time>
      </trkpt>
      <trkpt lat="47.17372" lon="-1.61535">
        <ele>68</ele>
        <time>2021-03-20T11:27:33.000Z</time>
      </trkpt>
      <trkpt lat="47.17383" lon="-1.61524">
        <ele>69</ele>
        <time>2021-03-20T11:27:35.000Z</time>
      </trkpt>
      <trkpt lat="47.17394" lon="-1.61514">
        <ele>68</ele>
        <time>2021-03-20T11:27:37.000Z</time>
      </trkpt>
      <trkpt lat="47.17405" lon="-1.61506">
        <ele>68</ele>
        <time>2021-03-20T11:27:39.000Z</time>
      </trkpt>
      <trkpt lat="47.17418" lon="-1.61497">
        <ele>68</ele>
        <time>2021-03-20T11:27:41.000Z</time>
      </trkpt>
      <trkpt lat="47.1743" lon="-1.61489">
        <ele>68</ele>
        <time>2021-03-20T11:27:43.000Z</time>
      </trkpt>
      <trkpt lat="47.17443" lon="-1.61481">
        <ele>67</ele>
        <time>2021-03-20T11:27:45.000Z</time>
      </trkpt>
      <trkpt lat="47.17455" lon="-1.61474">
        <ele>66</ele>
        <time>2021-03-20T11:27:47.000Z</time>
      </trkpt>
      <trkpt lat="47.17467" lon="-1.61468">
        <ele>65</ele>
        <time>2021-03-20T11:27:49.000Z</time>
      </trkpt>
      <trkpt lat="47.17478" lon="-1.61464">
        <ele>66</ele>
        <time>2021-03-20T11:27:51.000Z</time>
      </trkpt>
      <trkpt lat="47.1749" lon="-1.61459">
        <ele>65</ele>
        <time>2021-03-20T11:27:53.000Z</time>
      </trkpt>
      <trkpt lat="47.175" lon="-1.61454">
        <ele>65</ele>
        <time>2021-03-20T11:27:55.000Z</time>
      </trkpt>
      <trkpt lat="47.1751" lon="-1.61449">
        <ele>64</ele>
        <time>2021-03-20T11:27:57.000Z</time>
      </trkpt>
      <trkpt lat="47.17515" lon="-1.61436">
        <ele>64</ele>
        <time>2021-03-20T11:27:59.000Z</time>
      </trkpt>
      <trkpt lat="47.17519" lon="-1.61416">
        <ele>64</ele>
        <time>2021-03-20T11:28:01.000Z</time>
      </trkpt>
      <trkpt lat="47.17524" lon="-1.61395">
        <ele>62</ele>
        <time>2021-03-20T11:28:03.000Z</time>
      </trkpt>
      <trkpt lat="47.17529" lon="-1.61375">
        <ele>61</ele>
        <time>2021-03-20T11:28:05.000Z</time>
      </trkpt>
      <trkpt lat="47.17533" lon="-1.61355">
        <ele>61</ele>
        <time>2021-03-20T11:28:07.000Z</time>
      </trkpt>
      <trkpt lat="47.17529" lon="-1.61336">
        <ele>61</ele>
        <time>2021-03-20T11:28:09.000Z</time>
      </trkpt>
      <trkpt lat="47.17526" lon="-1.61318">
        <ele>61</ele>
        <time>2021-03-20T11:28:11.000Z</time>
      </trkpt>
      <trkpt lat="47.17524" lon="-1.61299">
        <ele>61</ele>
        <time>2021-03-20T11:28:13.000Z</time>
      </trkpt>
      <trkpt lat="47.17518" lon="-1.61281">
        <ele>60</ele>
        <time>2021-03-20T11:28:15.000Z</time>
      </trkpt>
      <trkpt lat="47.1751" lon="-1.61266">
        <ele>60</ele>
        <time>2021-03-20T11:28:17.000Z</time>
      </trkpt>
      <trkpt lat="47.17501" lon="-1.6125">
        <ele>61</ele>
        <time>2021-03-20T11:28:19.000Z</time>
      </trkpt>
      <trkpt lat="47.17494" lon="-1.61233">
        <ele>61</ele>
        <time>2021-03-20T11:28:21.000Z</time>
      </trkpt>
      <trkpt lat="47.17487" lon="-1.61217">
        <ele>60</ele>
        <time>2021-03-20T11:28:23.000Z</time>
      </trkpt>
      <trkpt lat="47.1748" lon="-1.612">
        <ele>60</ele>
        <time>2021-03-20T11:28:25.000Z</time>
      </trkpt>
      <trkpt lat="47.17473" lon="-1.61183">
        <ele>60</ele>
        <time>2021-03-20T11:28:27.000Z</time>
      </trkpt>
      <trkpt lat="47.17467" lon="-1.61167">
        <ele>60</ele>
        <time>2021-03-20T11:28:29.000Z</time>
      </trkpt>
      <trkpt lat="47.1746" lon="-1.61151">
        <ele>59</ele>
        <time>2021-03-20T11:28:31.000Z</time>
      </trkpt>
      <trkpt lat="47.17453" lon="-1.61134">
        <ele>59</ele>
        <time>2021-03-20T11:28:33.000Z</time>
      </trkpt>
      <trkpt lat="47.17447" lon="-1.61116">
        <ele>59</ele>
        <time>2021-03-20T11:28:35.000Z</time>
      </trkpt>
      <trkpt lat="47.17442" lon="-1.61097">
        <ele>58</ele>
        <time>2021-03-20T11:28:37.000Z</time>
      </trkpt>
      <trkpt lat="47.17435" lon="-1.61078">
        <ele>59</ele>
        <time>2021-03-20T11:28:39.000Z</time>
      </trkpt>
      <trkpt lat="47.17428" lon="-1.61059">
        <ele>59</ele>
        <time>2021-03-20T11:28:41.000Z</time>
      </trkpt>
      <trkpt lat="47.17422" lon="-1.61039">
        <ele>59</ele>
        <time>2021-03-20T11:28:43.000Z</time>
      </trkpt>
      <trkpt lat="47.17422" lon="-1.61022">
        <ele>58</ele>
        <time>2021-03-20T11:28:45.000Z</time>
      </trkpt>
      <trkpt lat="47.17432" lon="-1.61019">
        <ele>57</ele>
        <time>2021-03-20T11:28:47.000Z</time>
      </trkpt>
      <trkpt lat="47.17438" lon="-1.61032">
        <ele>57</ele>
        <time>2021-03-20T11:28:49.000Z</time>
      </trkpt>
      <trkpt lat="47.17442" lon="-1.61048">
        <ele>57</ele>
        <time>2021-03-20T11:28:51.000Z</time>
      </trkpt>
      <trkpt lat="47.17449" lon="-1.61063">
        <ele>56</ele>
        <time>2021-03-20T11:28:53.000Z</time>
      </trkpt>
      <trkpt lat="47.17458" lon="-1.61079">
        <ele>56</ele>
        <time>2021-03-20T11:28:55.000Z</time>
      </trkpt>
      <trkpt lat="47.17468" lon="-1.61091">
        <ele>56</ele>
        <time>2021-03-20T11:28:57.000Z</time>
      </trkpt>
      <trkpt lat="47.1748" lon="-1.611">
        <ele>55</ele>
        <time>2021-03-20T11:28:59.000Z</time>
      </trkpt>
      <trkpt lat="47.17493" lon="-1.61103">
        <ele>55</ele>
        <time>2021-03-20T11:29:01.000Z</time>
      </trkpt>
      <trkpt lat="47.17505" lon="-1.61102">
        <ele>54</ele>
        <time>2021-03-20T11:29:03.000Z</time>
      </trkpt>
      <trkpt lat="47.17517" lon="-1.61095">
        <ele>53</ele>
        <time>2021-03-20T11:29:05.000Z</time>
      </trkpt>
      <trkpt lat="47.1753" lon="-1.61085">
        <ele>53</ele>
        <time>2021-03-20T11:29:07.000Z</time>
      </trkpt>
      <trkpt lat="47.17541" lon="-1.61075">
        <ele>53</ele>
        <time>2021-03-20T11:29:09.000Z</time>
      </trkpt>
      <trkpt lat="47.17552" lon="-1.61066">
        <ele>53</ele>
        <time>2021-03-20T11:29:11.000Z</time>
      </trkpt>
      <trkpt lat="47.17563" lon="-1.61055">
        <ele>53</ele>
        <time>2021-03-20T11:29:13.000Z</time>
      </trkpt>
      <trkpt lat="47.17574" lon="-1.61046">
        <ele>53</ele>
        <time>2021-03-20T11:29:15.000Z</time>
      </trkpt>
      <trkpt lat="47.17586" lon="-1.61036">
        <ele>53</ele>
        <time>2021-03-20T11:29:17.000Z</time>
      </trkpt>
      <trkpt lat="47.17598" lon="-1.61027">
        <ele>52</ele>
        <time>2021-03-20T11:29:19.000Z</time>
      </trkpt>
      <trkpt lat="47.17609" lon="-1.61016">
        <ele>51</ele>
        <time>2021-03-20T11:29:21.000Z</time>
      </trkpt>
      <trkpt lat="47.17621" lon="-1.61005">
        <ele>51</ele>
        <time>2021-03-20T11:29:23.000Z</time>
      </trkpt>
      <trkpt lat="47.17632" lon="-1.60995">
        <ele>52</ele>
        <time>2021-03-20T11:29:25.000Z</time>
      </trkpt>
      <trkpt lat="47.17644" lon="-1.60985">
        <ele>51</ele>
        <time>2021-03-20T11:29:27.000Z</time>
      </trkpt>
      <trkpt lat="47.17655" lon="-1.60975">
        <ele>52</ele>
        <time>2021-03-20T11:29:29.000Z</time>
      </trkpt>
      <trkpt lat="47.17667" lon="-1.60969">
        <ele>52</ele>
        <time>2021-03-20T11:29:31.000Z</time>
      </trkpt>
      <trkpt lat="47.1768" lon="-1.60967">
        <ele>52</ele>
        <time>2021-03-20T11:29:33.000Z</time>
      </trkpt>
      <trkpt lat="47.17691" lon="-1.60969">
        <ele>53</ele>
        <time>2021-03-20T11:29:35.000Z</time>
      </trkpt>
      <trkpt lat="47.17702" lon="-1.60968">
        <ele>53</ele>
        <time>2021-03-20T11:29:37.000Z</time>
      </trkpt>
      <trkpt lat="47.17713" lon="-1.60962">
        <ele>53</ele>
        <time>2021-03-20T11:29:39.000Z</time>
      </trkpt>
      <trkpt lat="47.17724" lon="-1.60954">
        <ele>53</ele>
        <time>2021-03-20T11:29:41.000Z</time>
      </trkpt>
      <trkpt lat="47.17735" lon="-1.60946">
        <ele>54</ele>
        <time>2021-03-20T11:29:43.000Z</time>
      </trkpt>
      <trkpt lat="47.17745" lon="-1.60938">
        <ele>55</ele>
        <time>2021-03-20T11:29:45.000Z</time>
      </trkpt>
      <trkpt lat="47.17755" lon="-1.60929">
        <ele>55</ele>
        <time>2021-03-20T11:29:47.000Z</time>
      </trkpt>
      <trkpt lat="47.17766" lon="-1.60922">
        <ele>55</ele>
        <time>2021-03-20T11:29:49.000Z</time>
      </trkpt>
      <trkpt lat="47.17777" lon="-1.60914">
        <ele>55</ele>
        <time>2021-03-20T11:29:51.000Z</time>
      </trkpt>
      <trkpt lat="47.17787" lon="-1.60906">
        <ele>55</ele>
        <time>2021-03-20T11:29:53.000Z</time>
      </trkpt>
      <trkpt lat="47.17797" lon="-1.60898">
        <ele>55</ele>
        <time>2021-03-20T11:29:55.000Z</time>
      </trkpt>
      <trkpt lat="47.17807" lon="-1.60889">
        <ele>54</ele>
        <time>2021-03-20T11:29:57.000Z</time>
      </trkpt>
      <trkpt lat="47.17817" lon="-1.6088">
        <ele>54</ele>
        <time>2021-03-20T11:29:59.000Z</time>
      </trkpt>
      <trkpt lat="47.17825" lon="-1.60868">
        <ele>53</ele>
        <time>2021-03-20T11:30:01.000Z</time>
      </trkpt>
      <trkpt lat="47.17833" lon="-1.60855">
        <ele>53</ele>
        <time>2021-03-20T11:30:03.000Z</time>
      </trkpt>
      <trkpt lat="47.17841" lon="-1.6084">
        <ele>53</ele>
        <time>2021-03-20T11:30:05.000Z</time>
      </trkpt>
      <trkpt lat="47.17847" lon="-1.60822">
        <ele>52</ele>
        <time>2021-03-20T11:30:07.000Z</time>
      </trkpt>
      <trkpt lat="47.17851" lon="-1.60805">
        <ele>52</ele>
        <time>2021-03-20T11:30:09.000Z</time>
      </trkpt>
      <trkpt lat="47.17855" lon="-1.60786">
        <ele>51</ele>
        <time>2021-03-20T11:30:11.000Z</time>
      </trkpt>
      <trkpt lat="47.1786" lon="-1.60768">
        <ele>51</ele>
        <time>2021-03-20T11:30:13.000Z</time>
      </trkpt>
      <trkpt lat="47.17863" lon="-1.60749">
        <ele>51</ele>
        <time>2021-03-20T11:30:15.000Z</time>
      </trkpt>
      <trkpt lat="47.17868" lon="-1.60731">
        <ele>51</ele>
        <time>2021-03-20T11:30:17.000Z</time>
      </trkpt>
      <trkpt lat="47.17873" lon="-1.60713">
        <ele>50</ele>
        <time>2021-03-20T11:30:19.000Z</time>
      </trkpt>
      <trkpt lat="47.17877" lon="-1.60696">
        <ele>51</ele>
        <time>2021-03-20T11:30:21.000Z</time>
      </trkpt>
      <trkpt lat="47.17882" lon="-1.60679">
        <ele>50</ele>
        <time>2021-03-20T11:30:23.000Z</time>
      </trkpt>
      <trkpt lat="47.17887" lon="-1.60662">
        <ele>50</ele>
        <time>2021-03-20T11:30:25.000Z</time>
      </trkpt>
      <trkpt lat="47.17893" lon="-1.60647">
        <ele>50</ele>
        <time>2021-03-20T11:30:27.000Z</time>
      </trkpt>
      <trkpt lat="47.17898" lon="-1.60632">
        <ele>50</ele>
        <time>2021-03-20T11:30:29.000Z</time>
      </trkpt>
      <trkpt lat="47.17902" lon="-1.60618">
        <ele>51</ele>
        <time>2021-03-20T11:30:31.000Z</time>
      </trkpt>
      <trkpt lat="47.17905" lon="-1.60605">
        <ele>51</ele>
        <time>2021-03-20T11:30:33.000Z</time>
      </trkpt>
      <trkpt lat="47.17908" lon="-1.60591">
        <ele>52</ele>
        <time>2021-03-20T11:30:36.000Z</time>
      </trkpt>
      <trkpt lat="47.17915" lon="-1.60581">
        <ele>52</ele>
        <time>2021-03-20T11:30:41.000Z</time>
      </trkpt>
      <trkpt lat="47.17925" lon="-1.60582">
        <ele>52</ele>
        <time>2021-03-20T11:30:44.000Z</time>
      </trkpt>
      <trkpt lat="47.17936" lon="-1.60581">
        <ele>53</ele>
        <time>2021-03-20T11:30:46.000Z</time>
      </trkpt>
      <trkpt lat="47.17948" lon="-1.60577">
        <ele>54</ele>
        <time>2021-03-20T11:30:48.000Z</time>
      </trkpt>
      <trkpt lat="47.1796" lon="-1.60571">
        <ele>54</ele>
        <time>2021-03-20T11:30:50.000Z</time>
      </trkpt>
      <trkpt lat="47.17971" lon="-1.60566">
        <ele>54</ele>
        <time>2021-03-20T11:30:52.000Z</time>
      </trkpt>
      <trkpt lat="47.17981" lon="-1.60558">
        <ele>54</ele>
        <time>2021-03-20T11:30:54.000Z</time>
      </trkpt>
      <trkpt lat="47.17994" lon="-1.60555">
        <ele>54</ele>
        <time>2021-03-20T11:30:56.000Z</time>
      </trkpt>
      <trkpt lat="47.18007" lon="-1.60554">
        <ele>54</ele>
        <time>2021-03-20T11:30:58.000Z</time>
      </trkpt>
      <trkpt lat="47.18021" lon="-1.60551">
        <ele>54</ele>
        <time>2021-03-20T11:31:00.000Z</time>
      </trkpt>
      <trkpt lat="47.18035" lon="-1.60553">
        <ele>54</ele>
        <time>2021-03-20T11:31:02.000Z</time>
      </trkpt>
      <trkpt lat="47.18048" lon="-1.60558">
        <ele>54</ele>
        <time>2021-03-20T11:31:04.000Z</time>
      </trkpt>
      <trkpt lat="47.1806" lon="-1.60565">
        <ele>54</ele>
        <time>2021-03-20T11:31:06.000Z</time>
      </trkpt>
      <trkpt lat="47.18072" lon="-1.60571">
        <ele>54</ele>
        <time>2021-03-20T11:31:08.000Z</time>
      </trkpt>
      <trkpt lat="47.18085" lon="-1.60578">
        <ele>54</ele>
        <time>2021-03-20T11:31:10.000Z</time>
      </trkpt>
      <trkpt lat="47.18097" lon="-1.60584">
        <ele>54</ele>
        <time>2021-03-20T11:31:12.000Z</time>
      </trkpt>
      <trkpt lat="47.18109" lon="-1.6059">
        <ele>54</ele>
        <time>2021-03-20T11:31:14.000Z</time>
      </trkpt>
      <trkpt lat="47.1812" lon="-1.60594">
        <ele>54</ele>
        <time>2021-03-20T11:31:16.000Z</time>
      </trkpt>
      <trkpt lat="47.18131" lon="-1.60596">
        <ele>54</ele>
        <time>2021-03-20T11:31:18.000Z</time>
      </trkpt>
      <trkpt lat="47.18142" lon="-1.60599">
        <ele>55</ele>
        <time>2021-03-20T11:31:20.000Z</time>
      </trkpt>
      <trkpt lat="47.18153" lon="-1.60599">
        <ele>54</ele>
        <time>2021-03-20T11:31:22.000Z</time>
      </trkpt>
      <trkpt lat="47.18165" lon="-1.60599">
        <ele>54</ele>
        <time>2021-03-20T11:31:24.000Z</time>
      </trkpt>
      <trkpt lat="47.18176" lon="-1.60598">
        <ele>55</ele>
        <time>2021-03-20T11:31:26.000Z</time>
      </trkpt>
      <trkpt lat="47.18187" lon="-1.60596">
        <ele>55</ele>
        <time>2021-03-20T11:31:28.000Z</time>
      </trkpt>
      <trkpt lat="47.18194" lon="-1.60585">
        <ele>55</ele>
        <time>2021-03-20T11:31:30.000Z</time>
      </trkpt>
      <trkpt lat="47.18197" lon="-1.60572">
        <ele>54</ele>
        <time>2021-03-20T11:31:32.000Z</time>
      </trkpt>
      <trkpt lat="47.1821" lon="-1.60567">
        <ele>53</ele>
        <time>2021-03-20T11:31:34.000Z</time>
      </trkpt>
      <trkpt lat="47.18221" lon="-1.60562">
        <ele>53</ele>
        <time>2021-03-20T11:31:36.000Z</time>
      </trkpt>
      <trkpt lat="47.18232" lon="-1.60556">
        <ele>53</ele>
        <time>2021-03-20T11:31:38.000Z</time>
      </trkpt>
      <trkpt lat="47.18243" lon="-1.60549">
        <ele>52</ele>
        <time>2021-03-20T11:31:40.000Z</time>
      </trkpt>
      <trkpt lat="47.18253" lon="-1.60541">
        <ele>53</ele>
        <time>2021-03-20T11:31:42.000Z</time>
      </trkpt>
      <trkpt lat="47.18263" lon="-1.60533">
        <ele>54</ele>
        <time>2021-03-20T11:31:44.000Z</time>
      </trkpt>
      <trkpt lat="47.18273" lon="-1.60523">
        <ele>53</ele>
        <time>2021-03-20T11:31:46.000Z</time>
      </trkpt>
      <trkpt lat="47.18283" lon="-1.60513">
        <ele>53</ele>
        <time>2021-03-20T11:31:48.000Z</time>
      </trkpt>
      <trkpt lat="47.18293" lon="-1.60503">
        <ele>53</ele>
        <time>2021-03-20T11:31:50.000Z</time>
      </trkpt>
      <trkpt lat="47.18303" lon="-1.60492">
        <ele>53</ele>
        <time>2021-03-20T11:31:52.000Z</time>
      </trkpt>
      <trkpt lat="47.18313" lon="-1.6048">
        <ele>53</ele>
        <time>2021-03-20T11:31:54.000Z</time>
      </trkpt>
      <trkpt lat="47.18322" lon="-1.6047">
        <ele>53</ele>
        <time>2021-03-20T11:31:56.000Z</time>
      </trkpt>
      <trkpt lat="47.18332" lon="-1.6046">
        <ele>53</ele>
        <time>2021-03-20T11:31:58.000Z</time>
      </trkpt>
      <trkpt lat="47.18341" lon="-1.60449">
        <ele>53</ele>
        <time>2021-03-20T11:32:00.000Z</time>
      </trkpt>
      <trkpt lat="47.1835" lon="-1.60438">
        <ele>52</ele>
        <time>2021-03-20T11:32:02.000Z</time>
      </trkpt>
      <trkpt lat="47.18359" lon="-1.60426">
        <ele>52</ele>
        <time>2021-03-20T11:32:04.000Z</time>
      </trkpt>
      <trkpt lat="47.18369" lon="-1.60414">
        <ele>52</ele>
        <time>2021-03-20T11:32:06.000Z</time>
      </trkpt>
      <trkpt lat="47.18378" lon="-1.60402">
        <ele>52</ele>
        <time>2021-03-20T11:32:08.000Z</time>
      </trkpt>
      <trkpt lat="47.18387" lon="-1.60391">
        <ele>52</ele>
        <time>2021-03-20T11:32:10.000Z</time>
      </trkpt>
      <trkpt lat="47.18396" lon="-1.60379">
        <ele>52</ele>
        <time>2021-03-20T11:32:12.000Z</time>
      </trkpt>
      <trkpt lat="47.18405" lon="-1.60368">
        <ele>52</ele>
        <time>2021-03-20T11:32:14.000Z</time>
      </trkpt>
      <trkpt lat="47.18413" lon="-1.60356">
        <ele>52</ele>
        <time>2021-03-20T11:32:16.000Z</time>
      </trkpt>
      <trkpt lat="47.18422" lon="-1.60344">
        <ele>53</ele>
        <time>2021-03-20T11:32:18.000Z</time>
      </trkpt>
      <trkpt lat="47.1843" lon="-1.60332">
        <ele>53</ele>
        <time>2021-03-20T11:32:20.000Z</time>
      </trkpt>
      <trkpt lat="47.18439" lon="-1.60318">
        <ele>53</ele>
        <time>2021-03-20T11:32:22.000Z</time>
      </trkpt>
      <trkpt lat="47.18447" lon="-1.60305">
        <ele>53</ele>
        <time>2021-03-20T11:32:24.000Z</time>
      </trkpt>
      <trkpt lat="47.18455" lon="-1.60291">
        <ele>53</ele>
        <time>2021-03-20T11:32:26.000Z</time>
      </trkpt>
      <trkpt lat="47.18463" lon="-1.60277">
        <ele>53</ele>
        <time>2021-03-20T11:32:28.000Z</time>
      </trkpt>
      <trkpt lat="47.18471" lon="-1.60264">
        <ele>52</ele>
        <time>2021-03-20T11:32:30.000Z</time>
      </trkpt>
      <trkpt lat="47.18479" lon="-1.6025">
        <ele>53</ele>
        <time>2021-03-20T11:32:32.000Z</time>
      </trkpt>
      <trkpt lat="47.18486" lon="-1.60236">
        <ele>53</ele>
        <time>2021-03-20T11:32:34.000Z</time>
      </trkpt>
      <trkpt lat="47.18494" lon="-1.60222">
        <ele>52</ele>
        <time>2021-03-20T11:32:36.000Z</time>
      </trkpt>
      <trkpt lat="47.18501" lon="-1.60208">
        <ele>52</ele>
        <time>2021-03-20T11:32:38.000Z</time>
      </trkpt>
      <trkpt lat="47.18509" lon="-1.60194">
        <ele>52</ele>
        <time>2021-03-20T11:32:40.000Z</time>
      </trkpt>
      <trkpt lat="47.18515" lon="-1.6018">
        <ele>53</ele>
        <time>2021-03-20T11:32:42.000Z</time>
      </trkpt>
      <trkpt lat="47.18522" lon="-1.60165">
        <ele>53</ele>
        <time>2021-03-20T11:32:44.000Z</time>
      </trkpt>
      <trkpt lat="47.18529" lon="-1.6015">
        <ele>53</ele>
        <time>2021-03-20T11:32:46.000Z</time>
      </trkpt>
      <trkpt lat="47.18536" lon="-1.60136">
        <ele>52</ele>
        <time>2021-03-20T11:32:48.000Z</time>
      </trkpt>
      <trkpt lat="47.18542" lon="-1.60121">
        <ele>52</ele>
        <time>2021-03-20T11:32:50.000Z</time>
      </trkpt>
      <trkpt lat="47.18549" lon="-1.60104">
        <ele>52</ele>
        <time>2021-03-20T11:32:52.000Z</time>
      </trkpt>
      <trkpt lat="47.18555" lon="-1.60089">
        <ele>53</ele>
        <time>2021-03-20T11:32:54.000Z</time>
      </trkpt>
      <trkpt lat="47.18562" lon="-1.60074">
        <ele>52</ele>
        <time>2021-03-20T11:32:56.000Z</time>
      </trkpt>
      <trkpt lat="47.18568" lon="-1.60058">
        <ele>52</ele>
        <time>2021-03-20T11:32:58.000Z</time>
      </trkpt>
      <trkpt lat="47.18573" lon="-1.60042">
        <ele>52</ele>
        <time>2021-03-20T11:33:00.000Z</time>
      </trkpt>
      <trkpt lat="47.18579" lon="-1.60026">
        <ele>51</ele>
        <time>2021-03-20T11:33:02.000Z</time>
      </trkpt>
      <trkpt lat="47.18584" lon="-1.6001">
        <ele>52</ele>
        <time>2021-03-20T11:33:04.000Z</time>
      </trkpt>
      <trkpt lat="47.1859" lon="-1.59995">
        <ele>51</ele>
        <time>2021-03-20T11:33:06.000Z</time>
      </trkpt>
      <trkpt lat="47.18595" lon="-1.5998">
        <ele>52</ele>
        <time>2021-03-20T11:33:08.000Z</time>
      </trkpt>
      <trkpt lat="47.186" lon="-1.59964">
        <ele>52</ele>
        <time>2021-03-20T11:33:10.000Z</time>
      </trkpt>
      <trkpt lat="47.18604" lon="-1.59948">
        <ele>52</ele>
        <time>2021-03-20T11:33:12.000Z</time>
      </trkpt>
      <trkpt lat="47.1861" lon="-1.59932">
        <ele>52</ele>
        <time>2021-03-20T11:33:14.000Z</time>
      </trkpt>
      <trkpt lat="47.18614" lon="-1.59916">
        <ele>52</ele>
        <time>2021-03-20T11:33:16.000Z</time>
      </trkpt>
      <trkpt lat="47.18619" lon="-1.59901">
        <ele>51</ele>
        <time>2021-03-20T11:33:18.000Z</time>
      </trkpt>
      <trkpt lat="47.18623" lon="-1.59885">
        <ele>51</ele>
        <time>2021-03-20T11:33:20.000Z</time>
      </trkpt>
      <trkpt lat="47.18626" lon="-1.59869">
        <ele>51</ele>
        <time>2021-03-20T11:33:22.000Z</time>
      </trkpt>
      <trkpt lat="47.18625" lon="-1.59854">
        <ele>51</ele>
        <time>2021-03-20T11:33:24.000Z</time>
      </trkpt>
      <trkpt lat="47.1862" lon="-1.59841">
        <ele>51</ele>
        <time>2021-03-20T11:33:26.000Z</time>
      </trkpt>
      <trkpt lat="47.18622" lon="-1.59823">
        <ele>51</ele>
        <time>2021-03-20T11:33:29.000Z</time>
      </trkpt>
      <trkpt lat="47.18628" lon="-1.59812">
        <ele>52</ele>
        <time>2021-03-20T11:33:32.000Z</time>
      </trkpt>
      <trkpt lat="47.18632" lon="-1.59796">
        <ele>52</ele>
        <time>2021-03-20T11:33:35.000Z</time>
      </trkpt>
      <trkpt lat="47.18636" lon="-1.59779">
        <ele>52</ele>
        <time>2021-03-20T11:33:37.000Z</time>
      </trkpt>
      <trkpt lat="47.18644" lon="-1.59765">
        <ele>52</ele>
        <time>2021-03-20T11:33:39.000Z</time>
      </trkpt>
      <trkpt lat="47.18653" lon="-1.59753">
        <ele>52</ele>
        <time>2021-03-20T11:33:41.000Z</time>
      </trkpt>
      <trkpt lat="47.18657" lon="-1.59737">
        <ele>52</ele>
        <time>2021-03-20T11:33:43.000Z</time>
      </trkpt>
      <trkpt lat="47.1866" lon="-1.59721">
        <ele>52</ele>
        <time>2021-03-20T11:33:45.000Z</time>
      </trkpt>
      <trkpt lat="47.18663" lon="-1.59705">
        <ele>52</ele>
        <time>2021-03-20T11:33:47.000Z</time>
      </trkpt>
      <trkpt lat="47.18666" lon="-1.59688">
        <ele>52</ele>
        <time>2021-03-20T11:33:49.000Z</time>
      </trkpt>
      <trkpt lat="47.1867" lon="-1.59671">
        <ele>52</ele>
        <time>2021-03-20T11:33:51.000Z</time>
      </trkpt>
      <trkpt lat="47.18675" lon="-1.59655">
        <ele>52</ele>
        <time>2021-03-20T11:33:53.000Z</time>
      </trkpt>
      <trkpt lat="47.18679" lon="-1.59639">
        <ele>52</ele>
        <time>2021-03-20T11:33:55.000Z</time>
      </trkpt>
      <trkpt lat="47.18681" lon="-1.59622">
        <ele>52</ele>
        <time>2021-03-20T11:33:57.000Z</time>
      </trkpt>
      <trkpt lat="47.18684" lon="-1.59604">
        <ele>52</ele>
        <time>2021-03-20T11:33:59.000Z</time>
      </trkpt>
      <trkpt lat="47.18686" lon="-1.59588">
        <ele>52</ele>
        <time>2021-03-20T11:34:01.000Z</time>
      </trkpt>
      <trkpt lat="47.18688" lon="-1.59571">
        <ele>52</ele>
        <time>2021-03-20T11:34:03.000Z</time>
      </trkpt>
      <trkpt lat="47.1869" lon="-1.59554">
        <ele>51</ele>
        <time>2021-03-20T11:34:05.000Z</time>
      </trkpt>
      <trkpt lat="47.18691" lon="-1.59538">
        <ele>51</ele>
        <time>2021-03-20T11:34:07.000Z</time>
      </trkpt>
      <trkpt lat="47.18693" lon="-1.59521">
        <ele>51</ele>
        <time>2021-03-20T11:34:09.000Z</time>
      </trkpt>
      <trkpt lat="47.18695" lon="-1.59503">
        <ele>51</ele>
        <time>2021-03-20T11:34:11.000Z</time>
      </trkpt>
      <trkpt lat="47.18697" lon="-1.59485">
        <ele>51</ele>
        <time>2021-03-20T11:34:13.000Z</time>
      </trkpt>
      <trkpt lat="47.18699" lon="-1.59467">
        <ele>51</ele>
        <time>2021-03-20T11:34:15.000Z</time>
      </trkpt>
      <trkpt lat="47.187" lon="-1.59449">
        <ele>51</ele>
        <time>2021-03-20T11:34:17.000Z</time>
      </trkpt>
      <trkpt lat="47.18703" lon="-1.59431">
        <ele>52</ele>
        <time>2021-03-20T11:34:19.000Z</time>
      </trkpt>
      <trkpt lat="47.18705" lon="-1.59413">
        <ele>51</ele>
        <time>2021-03-20T11:34:21.000Z</time>
      </trkpt>
      <trkpt lat="47.18707" lon="-1.59396">
        <ele>51</ele>
        <time>2021-03-20T11:34:23.000Z</time>
      </trkpt>
      <trkpt lat="47.18709" lon="-1.59378">
        <ele>51</ele>
        <time>2021-03-20T11:34:25.000Z</time>
      </trkpt>
      <trkpt lat="47.18711" lon="-1.5936">
        <ele>51</ele>
        <time>2021-03-20T11:34:27.000Z</time>
      </trkpt>
      <trkpt lat="47.18713" lon="-1.59342">
        <ele>51</ele>
        <time>2021-03-20T11:34:29.000Z</time>
      </trkpt>
      <trkpt lat="47.18714" lon="-1.59325">
        <ele>51</ele>
        <time>2021-03-20T11:34:31.000Z</time>
      </trkpt>
      <trkpt lat="47.18716" lon="-1.59308">
        <ele>51</ele>
        <time>2021-03-20T11:34:33.000Z</time>
      </trkpt>
      <trkpt lat="47.18718" lon="-1.59289">
        <ele>51</ele>
        <time>2021-03-20T11:34:35.000Z</time>
      </trkpt>
      <trkpt lat="47.1872" lon="-1.59271">
        <ele>51</ele>
        <time>2021-03-20T11:34:37.000Z</time>
      </trkpt>
      <trkpt lat="47.18722" lon="-1.59252">
        <ele>51</ele>
        <time>2021-03-20T11:34:39.000Z</time>
      </trkpt>
      <trkpt lat="47.18724" lon="-1.59234">
        <ele>52</ele>
        <time>2021-03-20T11:34:41.000Z</time>
      </trkpt>
      <trkpt lat="47.18726" lon="-1.59215">
        <ele>51</ele>
        <time>2021-03-20T11:34:43.000Z</time>
      </trkpt>
      <trkpt lat="47.18728" lon="-1.59196">
        <ele>51</ele>
        <time>2021-03-20T11:34:45.000Z</time>
      </trkpt>
      <trkpt lat="47.1873" lon="-1.59178">
        <ele>52</ele>
        <time>2021-03-20T11:34:47.000Z</time>
      </trkpt>
      <trkpt lat="47.18732" lon="-1.5916">
        <ele>51</ele>
        <time>2021-03-20T11:34:49.000Z</time>
      </trkpt>
      <trkpt lat="47.18734" lon="-1.59141">
        <ele>51</ele>
        <time>2021-03-20T11:34:51.000Z</time>
      </trkpt>
      <trkpt lat="47.18736" lon="-1.59123">
        <ele>52</ele>
        <time>2021-03-20T11:34:53.000Z</time>
      </trkpt>
      <trkpt lat="47.18738" lon="-1.59104">
        <ele>52</ele>
        <time>2021-03-20T11:34:55.000Z</time>
      </trkpt>
      <trkpt lat="47.1874" lon="-1.59085">
        <ele>52</ele>
        <time>2021-03-20T11:34:57.000Z</time>
      </trkpt>
      <trkpt lat="47.18742" lon="-1.59067">
        <ele>52</ele>
        <time>2021-03-20T11:34:59.000Z</time>
      </trkpt>
      <trkpt lat="47.18744" lon="-1.59049">
        <ele>52</ele>
        <time>2021-03-20T11:35:01.000Z</time>
      </trkpt>
      <trkpt lat="47.18746" lon="-1.59031">
        <ele>52</ele>
        <time>2021-03-20T11:35:03.000Z</time>
      </trkpt>
      <trkpt lat="47.18748" lon="-1.59013">
        <ele>52</ele>
        <time>2021-03-20T11:35:05.000Z</time>
      </trkpt>
      <trkpt lat="47.1875" lon="-1.58996">
        <ele>52</ele>
        <time>2021-03-20T11:35:07.000Z</time>
      </trkpt>
      <trkpt lat="47.18751" lon="-1.58979">
        <ele>52</ele>
        <time>2021-03-20T11:35:09.000Z</time>
      </trkpt>
      <trkpt lat="47.18753" lon="-1.58962">
        <ele>52</ele>
        <time>2021-03-20T11:35:11.000Z</time>
      </trkpt>
      <trkpt lat="47.18754" lon="-1.58944">
        <ele>52</ele>
        <time>2021-03-20T11:35:13.000Z</time>
      </trkpt>
      <trkpt lat="47.18756" lon="-1.58926">
        <ele>52</ele>
        <time>2021-03-20T11:35:15.000Z</time>
      </trkpt>
      <trkpt lat="47.18758" lon="-1.58909">
        <ele>52</ele>
        <time>2021-03-20T11:35:17.000Z</time>
      </trkpt>
      <trkpt lat="47.1876" lon="-1.58891">
        <ele>53</ele>
        <time>2021-03-20T11:35:19.000Z</time>
      </trkpt>
      <trkpt lat="47.18762" lon="-1.58874">
        <ele>53</ele>
        <time>2021-03-20T11:35:21.000Z</time>
      </trkpt>
      <trkpt lat="47.18765" lon="-1.58856">
        <ele>53</ele>
        <time>2021-03-20T11:35:23.000Z</time>
      </trkpt>
      <trkpt lat="47.18767" lon="-1.58838">
        <ele>53</ele>
        <time>2021-03-20T11:35:25.000Z</time>
      </trkpt>
      <trkpt lat="47.18769" lon="-1.58821">
        <ele>53</ele>
        <time>2021-03-20T11:35:27.000Z</time>
      </trkpt>
      <trkpt lat="47.18769" lon="-1.58804">
        <ele>53</ele>
        <time>2021-03-20T11:35:29.000Z</time>
      </trkpt>
      <trkpt lat="47.18768" lon="-1.58786">
        <ele>53</ele>
        <time>2021-03-20T11:35:31.000Z</time>
      </trkpt>
      <trkpt lat="47.18764" lon="-1.5877">
        <ele>52</ele>
        <time>2021-03-20T11:35:33.000Z</time>
      </trkpt>
      <trkpt lat="47.1876" lon="-1.58753">
        <ele>53</ele>
        <time>2021-03-20T11:35:35.000Z</time>
      </trkpt>
      <trkpt lat="47.18762" lon="-1.58734">
        <ele>53</ele>
        <time>2021-03-20T11:35:37.000Z</time>
      </trkpt>
      <trkpt lat="47.1877" lon="-1.58717">
        <ele>54</ele>
        <time>2021-03-20T11:35:39.000Z</time>
      </trkpt>
      <trkpt lat="47.18779" lon="-1.58703">
        <ele>54</ele>
        <time>2021-03-20T11:35:41.000Z</time>
      </trkpt>
      <trkpt lat="47.18787" lon="-1.5869">
        <ele>53</ele>
        <time>2021-03-20T11:35:43.000Z</time>
      </trkpt>
      <trkpt lat="47.18792" lon="-1.58672">
        <ele>54</ele>
        <time>2021-03-20T11:35:45.000Z</time>
      </trkpt>
      <trkpt lat="47.18796" lon="-1.58654">
        <ele>54</ele>
        <time>2021-03-20T11:35:47.000Z</time>
      </trkpt>
      <trkpt lat="47.188" lon="-1.58636">
        <ele>53</ele>
        <time>2021-03-20T11:35:49.000Z</time>
      </trkpt>
      <trkpt lat="47.18805" lon="-1.58619">
        <ele>54</ele>
        <time>2021-03-20T11:35:51.000Z</time>
      </trkpt>
      <trkpt lat="47.18809" lon="-1.58602">
        <ele>54</ele>
        <time>2021-03-20T11:35:53.000Z</time>
      </trkpt>
      <trkpt lat="47.18814" lon="-1.58585">
        <ele>53</ele>
        <time>2021-03-20T11:35:55.000Z</time>
      </trkpt>
      <trkpt lat="47.18818" lon="-1.58568">
        <ele>53</ele>
        <time>2021-03-20T11:35:57.000Z</time>
      </trkpt>
      <trkpt lat="47.18823" lon="-1.58551">
        <ele>53</ele>
        <time>2021-03-20T11:35:59.000Z</time>
      </trkpt>
      <trkpt lat="47.18827" lon="-1.58534">
        <ele>53</ele>
        <time>2021-03-20T11:36:01.000Z</time>
      </trkpt>
      <trkpt lat="47.18832" lon="-1.58518">
        <ele>52</ele>
        <time>2021-03-20T11:36:03.000Z</time>
      </trkpt>
      <trkpt lat="47.18837" lon="-1.58502">
        <ele>52</ele>
        <time>2021-03-20T11:36:05.000Z</time>
      </trkpt>
      <trkpt lat="47.18842" lon="-1.58485">
        <ele>52</ele>
        <time>2021-03-20T11:36:07.000Z</time>
      </trkpt>
      <trkpt lat="47.18847" lon="-1.58468">
        <ele>52</ele>
        <time>2021-03-20T11:36:09.000Z</time>
      </trkpt>
      <trkpt lat="47.18852" lon="-1.58452">
        <ele>52</ele>
        <time>2021-03-20T11:36:11.000Z</time>
      </trkpt>
      <trkpt lat="47.18858" lon="-1.58435">
        <ele>52</ele>
        <time>2021-03-20T11:36:13.000Z</time>
      </trkpt>
      <trkpt lat="47.18863" lon="-1.58419">
        <ele>52</ele>
        <time>2021-03-20T11:36:15.000Z</time>
      </trkpt>
      <trkpt lat="47.18868" lon="-1.58401">
        <ele>51</ele>
        <time>2021-03-20T11:36:17.000Z</time>
      </trkpt>
      <trkpt lat="47.18873" lon="-1.58385">
        <ele>51</ele>
        <time>2021-03-20T11:36:19.000Z</time>
      </trkpt>
      <trkpt lat="47.18879" lon="-1.58369">
        <ele>51</ele>
        <time>2021-03-20T11:36:21.000Z</time>
      </trkpt>
      <trkpt lat="47.18884" lon="-1.58353">
        <ele>51</ele>
        <time>2021-03-20T11:36:23.000Z</time>
      </trkpt>
      <trkpt lat="47.1889" lon="-1.58337">
        <ele>52</ele>
        <time>2021-03-20T11:36:25.000Z</time>
      </trkpt>
      <trkpt lat="47.18895" lon="-1.58321">
        <ele>51</ele>
        <time>2021-03-20T11:36:27.000Z</time>
      </trkpt>
      <trkpt lat="47.18901" lon="-1.58304">
        <ele>52</ele>
        <time>2021-03-20T11:36:29.000Z</time>
      </trkpt>
      <trkpt lat="47.18906" lon="-1.58287">
        <ele>52</ele>
        <time>2021-03-20T11:36:31.000Z</time>
      </trkpt>
      <trkpt lat="47.18912" lon="-1.58271">
        <ele>52</ele>
        <time>2021-03-20T11:36:33.000Z</time>
      </trkpt>
      <trkpt lat="47.18918" lon="-1.58254">
        <ele>51</ele>
        <time>2021-03-20T11:36:35.000Z</time>
      </trkpt>
      <trkpt lat="47.18924" lon="-1.58237">
        <ele>52</ele>
        <time>2021-03-20T11:36:37.000Z</time>
      </trkpt>
      <trkpt lat="47.18929" lon="-1.5822">
        <ele>51</ele>
        <time>2021-03-20T11:36:39.000Z</time>
      </trkpt>
      <trkpt lat="47.18936" lon="-1.58203">
        <ele>51</ele>
        <time>2021-03-20T11:36:41.000Z</time>
      </trkpt>
      <trkpt lat="47.18941" lon="-1.58186">
        <ele>51</ele>
        <time>2021-03-20T11:36:43.000Z</time>
      </trkpt>
      <trkpt lat="47.18948" lon="-1.5817">
        <ele>51</ele>
        <time>2021-03-20T11:36:45.000Z</time>
      </trkpt>
      <trkpt lat="47.18954" lon="-1.58154">
        <ele>51</ele>
        <time>2021-03-20T11:36:47.000Z</time>
      </trkpt>
      <trkpt lat="47.18961" lon="-1.58138">
        <ele>51</ele>
        <time>2021-03-20T11:36:49.000Z</time>
      </trkpt>
      <trkpt lat="47.18966" lon="-1.58121">
        <ele>51</ele>
        <time>2021-03-20T11:36:51.000Z</time>
      </trkpt>
      <trkpt lat="47.18972" lon="-1.58105">
        <ele>50</ele>
        <time>2021-03-20T11:36:53.000Z</time>
      </trkpt>
      <trkpt lat="47.18978" lon="-1.58088">
        <ele>50</ele>
        <time>2021-03-20T11:36:55.000Z</time>
      </trkpt>
      <trkpt lat="47.18984" lon="-1.58071">
        <ele>50</ele>
        <time>2021-03-20T11:36:57.000Z</time>
      </trkpt>
      <trkpt lat="47.18989" lon="-1.58054">
        <ele>50</ele>
        <time>2021-03-20T11:36:59.000Z</time>
      </trkpt>
      <trkpt lat="47.18995" lon="-1.58038">
        <ele>50</ele>
        <time>2021-03-20T11:37:01.000Z</time>
      </trkpt>
      <trkpt lat="47.19002" lon="-1.58022">
        <ele>50</ele>
        <time>2021-03-20T11:37:03.000Z</time>
      </trkpt>
      <trkpt lat="47.19007" lon="-1.58005">
        <ele>50</ele>
        <time>2021-03-20T11:37:05.000Z</time>
      </trkpt>
      <trkpt lat="47.19013" lon="-1.57988">
        <ele>50</ele>
        <time>2021-03-20T11:37:07.000Z</time>
      </trkpt>
      <trkpt lat="47.19019" lon="-1.57971">
        <ele>50</ele>
        <time>2021-03-20T11:37:09.000Z</time>
      </trkpt>
      <trkpt lat="47.19025" lon="-1.57955">
        <ele>50</ele>
        <time>2021-03-20T11:37:11.000Z</time>
      </trkpt>
      <trkpt lat="47.19031" lon="-1.57939">
        <ele>50</ele>
        <time>2021-03-20T11:37:13.000Z</time>
      </trkpt>
      <trkpt lat="47.19036" lon="-1.57923">
        <ele>51</ele>
        <time>2021-03-20T11:37:15.000Z</time>
      </trkpt>
      <trkpt lat="47.19042" lon="-1.57907">
        <ele>51</ele>
        <time>2021-03-20T11:37:17.000Z</time>
      </trkpt>
      <trkpt lat="47.19047" lon="-1.57892">
        <ele>51</ele>
        <time>2021-03-20T11:37:19.000Z</time>
      </trkpt>
      <trkpt lat="47.19052" lon="-1.57877">
        <ele>51</ele>
        <time>2021-03-20T11:37:21.000Z</time>
      </trkpt>
      <trkpt lat="47.19058" lon="-1.57861">
        <ele>51</ele>
        <time>2021-03-20T11:37:23.000Z</time>
      </trkpt>
      <trkpt lat="47.19063" lon="-1.57844">
        <ele>51</ele>
        <time>2021-03-20T11:37:25.000Z</time>
      </trkpt>
      <trkpt lat="47.19069" lon="-1.57828">
        <ele>51</ele>
        <time>2021-03-20T11:37:27.000Z</time>
      </trkpt>
      <trkpt lat="47.19075" lon="-1.57812">
        <ele>51</ele>
        <time>2021-03-20T11:37:29.000Z</time>
      </trkpt>
      <trkpt lat="47.19081" lon="-1.57795">
        <ele>51</ele>
        <time>2021-03-20T11:37:31.000Z</time>
      </trkpt>
      <trkpt lat="47.19086" lon="-1.57778">
        <ele>51</ele>
        <time>2021-03-20T11:37:33.000Z</time>
      </trkpt>
      <trkpt lat="47.19093" lon="-1.57761">
        <ele>51</ele>
        <time>2021-03-20T11:37:35.000Z</time>
      </trkpt>
      <trkpt lat="47.19098" lon="-1.57745">
        <ele>52</ele>
        <time>2021-03-20T11:37:37.000Z</time>
      </trkpt>
      <trkpt lat="47.19104" lon="-1.57728">
        <ele>52</ele>
        <time>2021-03-20T11:37:39.000Z</time>
      </trkpt>
      <trkpt lat="47.1911" lon="-1.57712">
        <ele>52</ele>
        <time>2021-03-20T11:37:41.000Z</time>
      </trkpt>
      <trkpt lat="47.19116" lon="-1.57696">
        <ele>52</ele>
        <time>2021-03-20T11:37:43.000Z</time>
      </trkpt>
      <trkpt lat="47.19121" lon="-1.5768">
        <ele>52</ele>
        <time>2021-03-20T11:37:45.000Z</time>
      </trkpt>
      <trkpt lat="47.19127" lon="-1.57663">
        <ele>52</ele>
        <time>2021-03-20T11:37:47.000Z</time>
      </trkpt>
      <trkpt lat="47.19134" lon="-1.57646">
        <ele>52</ele>
        <time>2021-03-20T11:37:49.000Z</time>
      </trkpt>
      <trkpt lat="47.1914" lon="-1.57628">
        <ele>52</ele>
        <time>2021-03-20T11:37:51.000Z</time>
      </trkpt>
      <trkpt lat="47.19146" lon="-1.57611">
        <ele>52</ele>
        <time>2021-03-20T11:37:53.000Z</time>
      </trkpt>
      <trkpt lat="47.19152" lon="-1.57595">
        <ele>52</ele>
        <time>2021-03-20T11:37:55.000Z</time>
      </trkpt>
      <trkpt lat="47.19158" lon="-1.57578">
        <ele>51</ele>
        <time>2021-03-20T11:37:57.000Z</time>
      </trkpt>
      <trkpt lat="47.19165" lon="-1.57561">
        <ele>51</ele>
        <time>2021-03-20T11:37:59.000Z</time>
      </trkpt>
      <trkpt lat="47.19171" lon="-1.57543">
        <ele>52</ele>
        <time>2021-03-20T11:38:01.000Z</time>
      </trkpt>
      <trkpt lat="47.19177" lon="-1.57524">
        <ele>52</ele>
        <time>2021-03-20T11:38:03.000Z</time>
      </trkpt>
      <trkpt lat="47.19183" lon="-1.57506">
        <ele>52</ele>
        <time>2021-03-20T11:38:05.000Z</time>
      </trkpt>
      <trkpt lat="47.19188" lon="-1.57488">
        <ele>51</ele>
        <time>2021-03-20T11:38:07.000Z</time>
      </trkpt>
      <trkpt lat="47.19193" lon="-1.57471">
        <ele>51</ele>
        <time>2021-03-20T11:38:09.000Z</time>
      </trkpt>
      <trkpt lat="47.19198" lon="-1.57453">
        <ele>51</ele>
        <time>2021-03-20T11:38:11.000Z</time>
      </trkpt>
      <trkpt lat="47.19204" lon="-1.57436">
        <ele>51</ele>
        <time>2021-03-20T11:38:13.000Z</time>
      </trkpt>
      <trkpt lat="47.19209" lon="-1.57418">
        <ele>51</ele>
        <time>2021-03-20T11:38:15.000Z</time>
      </trkpt>
      <trkpt lat="47.19214" lon="-1.57401">
        <ele>51</ele>
        <time>2021-03-20T11:38:17.000Z</time>
      </trkpt>
      <trkpt lat="47.19219" lon="-1.57384">
        <ele>51</ele>
        <time>2021-03-20T11:38:19.000Z</time>
      </trkpt>
      <trkpt lat="47.19224" lon="-1.57366">
        <ele>51</ele>
        <time>2021-03-20T11:38:21.000Z</time>
      </trkpt>
      <trkpt lat="47.19228" lon="-1.57348">
        <ele>51</ele>
        <time>2021-03-20T11:38:23.000Z</time>
      </trkpt>
      <trkpt lat="47.19231" lon="-1.5733">
        <ele>51</ele>
        <time>2021-03-20T11:38:25.000Z</time>
      </trkpt>
      <trkpt lat="47.19234" lon="-1.57313">
        <ele>51</ele>
        <time>2021-03-20T11:38:27.000Z</time>
      </trkpt>
      <trkpt lat="47.19237" lon="-1.57294">
        <ele>51</ele>
        <time>2021-03-20T11:38:29.000Z</time>
      </trkpt>
      <trkpt lat="47.19239" lon="-1.57276">
        <ele>51</ele>
        <time>2021-03-20T11:38:31.000Z</time>
      </trkpt>
      <trkpt lat="47.19242" lon="-1.57257">
        <ele>51</ele>
        <time>2021-03-20T11:38:33.000Z</time>
      </trkpt>
      <trkpt lat="47.19244" lon="-1.57238">
        <ele>50</ele>
        <time>2021-03-20T11:38:35.000Z</time>
      </trkpt>
      <trkpt lat="47.19248" lon="-1.57219">
        <ele>50</ele>
        <time>2021-03-20T11:38:37.000Z</time>
      </trkpt>
      <trkpt lat="47.19251" lon="-1.57202">
        <ele>50</ele>
        <time>2021-03-20T11:38:39.000Z</time>
      </trkpt>
      <trkpt lat="47.19254" lon="-1.57184">
        <ele>50</ele>
        <time>2021-03-20T11:38:41.000Z</time>
      </trkpt>
      <trkpt lat="47.19255" lon="-1.57165">
        <ele>51</ele>
        <time>2021-03-20T11:38:43.000Z</time>
      </trkpt>
      <trkpt lat="47.19259" lon="-1.57146">
        <ele>50</ele>
        <time>2021-03-20T11:38:45.000Z</time>
      </trkpt>
      <trkpt lat="47.19262" lon="-1.57129">
        <ele>50</ele>
        <time>2021-03-20T11:38:47.000Z</time>
      </trkpt>
      <trkpt lat="47.19264" lon="-1.57112">
        <ele>51</ele>
        <time>2021-03-20T11:38:49.000Z</time>
      </trkpt>
      <trkpt lat="47.19265" lon="-1.57096">
        <ele>50</ele>
        <time>2021-03-20T11:38:51.000Z</time>
      </trkpt>
      <trkpt lat="47.19267" lon="-1.57081">
        <ele>50</ele>
        <time>2021-03-20T11:38:53.000Z</time>
      </trkpt>
      <trkpt lat="47.19261" lon="-1.57065">
        <ele>50</ele>
        <time>2021-03-20T11:38:57.000Z</time>
      </trkpt>
      <trkpt lat="47.19256" lon="-1.57054">
        <ele>50</ele>
        <time>2021-03-20T11:38:59.000Z</time>
      </trkpt>
      <trkpt lat="47.19257" lon="-1.57037">
        <ele>50</ele>
        <time>2021-03-20T11:39:01.000Z</time>
      </trkpt>
      <trkpt lat="47.19268" lon="-1.57023">
        <ele>50</ele>
        <time>2021-03-20T11:39:03.000Z</time>
      </trkpt>
      <trkpt lat="47.19275" lon="-1.57007">
        <ele>50</ele>
        <time>2021-03-20T11:39:05.000Z</time>
      </trkpt>
      <trkpt lat="47.19277" lon="-1.56986">
        <ele>50</ele>
        <time>2021-03-20T11:39:07.000Z</time>
      </trkpt>
      <trkpt lat="47.1928" lon="-1.56967">
        <ele>50</ele>
        <time>2021-03-20T11:39:09.000Z</time>
      </trkpt>
      <trkpt lat="47.19282" lon="-1.56948">
        <ele>49</ele>
        <time>2021-03-20T11:39:11.000Z</time>
      </trkpt>
      <trkpt lat="47.19283" lon="-1.56929">
        <ele>49</ele>
        <time>2021-03-20T11:39:13.000Z</time>
      </trkpt>
      <trkpt lat="47.19284" lon="-1.56911">
        <ele>49</ele>
        <time>2021-03-20T11:39:15.000Z</time>
      </trkpt>
      <trkpt lat="47.19286" lon="-1.56894">
        <ele>49</ele>
        <time>2021-03-20T11:39:17.000Z</time>
      </trkpt>
      <trkpt lat="47.19288" lon="-1.56867">
        <ele>49</ele>
        <time>2021-03-20T11:39:20.000Z</time>
      </trkpt>
      <trkpt lat="47.19289" lon="-1.56842">
        <ele>49</ele>
        <time>2021-03-20T11:39:23.000Z</time>
      </trkpt>
      <trkpt lat="47.19291" lon="-1.56815">
        <ele>50</ele>
        <time>2021-03-20T11:39:26.000Z</time>
      </trkpt>
      <trkpt lat="47.19292" lon="-1.56796">
        <ele>50</ele>
        <time>2021-03-20T11:39:28.000Z</time>
      </trkpt>
      <trkpt lat="47.19293" lon="-1.56778">
        <ele>50</ele>
        <time>2021-03-20T11:39:30.000Z</time>
      </trkpt>
      <trkpt lat="47.19293" lon="-1.56754">
        <ele>52</ele>
        <time>2021-03-20T11:39:33.000Z</time>
      </trkpt>
      <trkpt lat="47.19292" lon="-1.56737">
        <ele>52</ele>
        <time>2021-03-20T11:39:35.000Z</time>
      </trkpt>
      <trkpt lat="47.19292" lon="-1.5672">
        <ele>52</ele>
        <time>2021-03-20T11:39:37.000Z</time>
      </trkpt>
      <trkpt lat="47.19291" lon="-1.56703">
        <ele>53</ele>
        <time>2021-03-20T11:39:39.000Z</time>
      </trkpt>
      <trkpt lat="47.19291" lon="-1.56686">
        <ele>53</ele>
        <time>2021-03-20T11:39:41.000Z</time>
      </trkpt>
      <trkpt lat="47.1929" lon="-1.56669">
        <ele>53</ele>
        <time>2021-03-20T11:39:43.000Z</time>
      </trkpt>
      <trkpt lat="47.19289" lon="-1.56651">
        <ele>54</ele>
        <time>2021-03-20T11:39:45.000Z</time>
      </trkpt>
      <trkpt lat="47.19287" lon="-1.56633">
        <ele>54</ele>
        <time>2021-03-20T11:39:47.000Z</time>
      </trkpt>
      <trkpt lat="47.19286" lon="-1.56616">
        <ele>53</ele>
        <time>2021-03-20T11:39:49.000Z</time>
      </trkpt>
      <trkpt lat="47.19284" lon="-1.56599">
        <ele>53</ele>
        <time>2021-03-20T11:39:51.000Z</time>
      </trkpt>
      <trkpt lat="47.19283" lon="-1.56582">
        <ele>53</ele>
        <time>2021-03-20T11:39:53.000Z</time>
      </trkpt>
      <trkpt lat="47.19281" lon="-1.56564">
        <ele>53</ele>
        <time>2021-03-20T11:39:55.000Z</time>
      </trkpt>
      <trkpt lat="47.19279" lon="-1.56547">
        <ele>53</ele>
        <time>2021-03-20T11:39:57.000Z</time>
      </trkpt>
      <trkpt lat="47.19278" lon="-1.5653">
        <ele>53</ele>
        <time>2021-03-20T11:39:59.000Z</time>
      </trkpt>
      <trkpt lat="47.19276" lon="-1.56513">
        <ele>52</ele>
        <time>2021-03-20T11:40:01.000Z</time>
      </trkpt>
      <trkpt lat="47.19274" lon="-1.56495">
        <ele>52</ele>
        <time>2021-03-20T11:40:03.000Z</time>
      </trkpt>
      <trkpt lat="47.19273" lon="-1.56478">
        <ele>53</ele>
        <time>2021-03-20T11:40:05.000Z</time>
      </trkpt>
      <trkpt lat="47.1927" lon="-1.56459">
        <ele>53</ele>
        <time>2021-03-20T11:40:07.000Z</time>
      </trkpt>
      <trkpt lat="47.19269" lon="-1.56441">
        <ele>53</ele>
        <time>2021-03-20T11:40:09.000Z</time>
      </trkpt>
      <trkpt lat="47.19268" lon="-1.56415">
        <ele>53</ele>
        <time>2021-03-20T11:40:12.000Z</time>
      </trkpt>
      <trkpt lat="47.19266" lon="-1.56396">
        <ele>53</ele>
        <time>2021-03-20T11:40:14.000Z</time>
      </trkpt>
      <trkpt lat="47.19264" lon="-1.56378">
        <ele>54</ele>
        <time>2021-03-20T11:40:16.000Z</time>
      </trkpt>
      <trkpt lat="47.19259" lon="-1.56353">
        <ele>53</ele>
        <time>2021-03-20T11:40:19.000Z</time>
      </trkpt>
      <trkpt lat="47.19255" lon="-1.56337">
        <ele>54</ele>
        <time>2021-03-20T11:40:21.000Z</time>
      </trkpt>
      <trkpt lat="47.19248" lon="-1.56324">
        <ele>54</ele>
        <time>2021-03-20T11:40:23.000Z</time>
      </trkpt>
      <trkpt lat="47.19236" lon="-1.56301">
        <ele>54</ele>
        <time>2021-03-20T11:40:26.000Z</time>
      </trkpt>
      <trkpt lat="47.19236" lon="-1.56283">
        <ele>54</ele>
        <time>2021-03-20T11:40:28.000Z</time>
      </trkpt>
      <trkpt lat="47.1924" lon="-1.56265">
        <ele>54</ele>
        <time>2021-03-20T11:40:30.000Z</time>
      </trkpt>
      <trkpt lat="47.19248" lon="-1.5625">
        <ele>54</ele>
        <time>2021-03-20T11:40:32.000Z</time>
      </trkpt>
      <trkpt lat="47.19249" lon="-1.56232">
        <ele>54</ele>
        <time>2021-03-20T11:40:34.000Z</time>
      </trkpt>
      <trkpt lat="47.19247" lon="-1.56214">
        <ele>54</ele>
        <time>2021-03-20T11:40:36.000Z</time>
      </trkpt>
      <trkpt lat="47.19247" lon="-1.56196">
        <ele>54</ele>
        <time>2021-03-20T11:40:38.000Z</time>
      </trkpt>
      <trkpt lat="47.19247" lon="-1.56177">
        <ele>54</ele>
        <time>2021-03-20T11:40:40.000Z</time>
      </trkpt>
      <trkpt lat="47.19247" lon="-1.56158">
        <ele>53</ele>
        <time>2021-03-20T11:40:42.000Z</time>
      </trkpt>
      <trkpt lat="47.19247" lon="-1.5614">
        <ele>53</ele>
        <time>2021-03-20T11:40:44.000Z</time>
      </trkpt>
      <trkpt lat="47.19247" lon="-1.56121">
        <ele>53</ele>
        <time>2021-03-20T11:40:46.000Z</time>
      </trkpt>
      <trkpt lat="47.19246" lon="-1.56104">
        <ele>53</ele>
        <time>2021-03-20T11:40:48.000Z</time>
      </trkpt>
      <trkpt lat="47.19245" lon="-1.56086">
        <ele>53</ele>
        <time>2021-03-20T11:40:50.000Z</time>
      </trkpt>
      <trkpt lat="47.19243" lon="-1.5606">
        <ele>54</ele>
        <time>2021-03-20T11:40:53.000Z</time>
      </trkpt>
      <trkpt lat="47.19242" lon="-1.56042">
        <ele>54</ele>
        <time>2021-03-20T11:40:55.000Z</time>
      </trkpt>
      <trkpt lat="47.1924" lon="-1.56024">
        <ele>54</ele>
        <time>2021-03-20T11:40:57.000Z</time>
      </trkpt>
      <trkpt lat="47.19238" lon="-1.56006">
        <ele>54</ele>
        <time>2021-03-20T11:40:59.000Z</time>
      </trkpt>
      <trkpt lat="47.19236" lon="-1.55988">
        <ele>54</ele>
        <time>2021-03-20T11:41:01.000Z</time>
      </trkpt>
      <trkpt lat="47.19234" lon="-1.55971">
        <ele>55</ele>
        <time>2021-03-20T11:41:03.000Z</time>
      </trkpt>
      <trkpt lat="47.19232" lon="-1.55953">
        <ele>55</ele>
        <time>2021-03-20T11:41:05.000Z</time>
      </trkpt>
      <trkpt lat="47.1923" lon="-1.55936">
        <ele>55</ele>
        <time>2021-03-20T11:41:07.000Z</time>
      </trkpt>
      <trkpt lat="47.19228" lon="-1.55919">
        <ele>55</ele>
        <time>2021-03-20T11:41:09.000Z</time>
      </trkpt>
      <trkpt lat="47.19227" lon="-1.55902">
        <ele>56</ele>
        <time>2021-03-20T11:41:11.000Z</time>
      </trkpt>
      <trkpt lat="47.19226" lon="-1.55884">
        <ele>55</ele>
        <time>2021-03-20T11:41:13.000Z</time>
      </trkpt>
      <trkpt lat="47.19225" lon="-1.55866">
        <ele>55</ele>
        <time>2021-03-20T11:41:15.000Z</time>
      </trkpt>
      <trkpt lat="47.19224" lon="-1.55849">
        <ele>55</ele>
        <time>2021-03-20T11:41:17.000Z</time>
      </trkpt>
      <trkpt lat="47.19223" lon="-1.55831">
        <ele>54</ele>
        <time>2021-03-20T11:41:19.000Z</time>
      </trkpt>
      <trkpt lat="47.19223" lon="-1.55804">
        <ele>54</ele>
        <time>2021-03-20T11:41:22.000Z</time>
      </trkpt>
      <trkpt lat="47.19221" lon="-1.55786">
        <ele>54</ele>
        <time>2021-03-20T11:41:24.000Z</time>
      </trkpt>
      <trkpt lat="47.19221" lon="-1.55769">
        <ele>55</ele>
        <time>2021-03-20T11:41:26.000Z</time>
      </trkpt>
      <trkpt lat="47.19221" lon="-1.55751">
        <ele>55</ele>
        <time>2021-03-20T11:41:28.000Z</time>
      </trkpt>
      <trkpt lat="47.19221" lon="-1.55733">
        <ele>55</ele>
        <time>2021-03-20T11:41:30.000Z</time>
      </trkpt>
      <trkpt lat="47.19221" lon="-1.55715">
        <ele>54</ele>
        <time>2021-03-20T11:41:32.000Z</time>
      </trkpt>
      <trkpt lat="47.19222" lon="-1.55698">
        <ele>54</ele>
        <time>2021-03-20T11:41:34.000Z</time>
      </trkpt>
      <trkpt lat="47.19222" lon="-1.55679">
        <ele>55</ele>
        <time>2021-03-20T11:41:36.000Z</time>
      </trkpt>
      <trkpt lat="47.19223" lon="-1.55661">
        <ele>55</ele>
        <time>2021-03-20T11:41:38.000Z</time>
      </trkpt>
      <trkpt lat="47.19224" lon="-1.55643">
        <ele>54</ele>
        <time>2021-03-20T11:41:40.000Z</time>
      </trkpt>
      <trkpt lat="47.19225" lon="-1.55625">
        <ele>54</ele>
        <time>2021-03-20T11:41:42.000Z</time>
      </trkpt>
      <trkpt lat="47.19226" lon="-1.55606">
        <ele>54</ele>
        <time>2021-03-20T11:41:44.000Z</time>
      </trkpt>
      <trkpt lat="47.19228" lon="-1.55588">
        <ele>54</ele>
        <time>2021-03-20T11:41:46.000Z</time>
      </trkpt>
      <trkpt lat="47.19229" lon="-1.5557">
        <ele>54</ele>
        <time>2021-03-20T11:41:48.000Z</time>
      </trkpt>
      <trkpt lat="47.19231" lon="-1.55552">
        <ele>54</ele>
        <time>2021-03-20T11:41:50.000Z</time>
      </trkpt>
      <trkpt lat="47.19233" lon="-1.55536">
        <ele>53</ele>
        <time>2021-03-20T11:41:52.000Z</time>
      </trkpt>
      <trkpt lat="47.19234" lon="-1.55519">
        <ele>53</ele>
        <time>2021-03-20T11:41:54.000Z</time>
      </trkpt>
      <trkpt lat="47.19234" lon="-1.55503">
        <ele>53</ele>
        <time>2021-03-20T11:41:56.000Z</time>
      </trkpt>
      <trkpt lat="47.19234" lon="-1.55486">
        <ele>53</ele>
        <time>2021-03-20T11:41:58.000Z</time>
      </trkpt>
      <trkpt lat="47.19232" lon="-1.5547">
        <ele>52</ele>
        <time>2021-03-20T11:42:00.000Z</time>
      </trkpt>
      <trkpt lat="47.19224" lon="-1.55457">
        <ele>52</ele>
        <time>2021-03-20T11:42:02.000Z</time>
      </trkpt>
      <trkpt lat="47.19218" lon="-1.55442">
        <ele>51</ele>
        <time>2021-03-20T11:42:04.000Z</time>
      </trkpt>
      <trkpt lat="47.19219" lon="-1.55422">
        <ele>52</ele>
        <time>2021-03-20T11:42:06.000Z</time>
      </trkpt>
      <trkpt lat="47.19232" lon="-1.55401">
        <ele>52</ele>
        <time>2021-03-20T11:42:09.000Z</time>
      </trkpt>
      <trkpt lat="47.19242" lon="-1.55391">
        <ele>52</ele>
        <time>2021-03-20T11:42:11.000Z</time>
      </trkpt>
      <trkpt lat="47.19247" lon="-1.55375">
        <ele>53</ele>
        <time>2021-03-20T11:42:13.000Z</time>
      </trkpt>
      <trkpt lat="47.19253" lon="-1.55359">
        <ele>53</ele>
        <time>2021-03-20T11:42:15.000Z</time>
      </trkpt>
      <trkpt lat="47.19259" lon="-1.55342">
        <ele>52</ele>
        <time>2021-03-20T11:42:17.000Z</time>
      </trkpt>
      <trkpt lat="47.19263" lon="-1.55323">
        <ele>53</ele>
        <time>2021-03-20T11:42:19.000Z</time>
      </trkpt>
      <trkpt lat="47.19266" lon="-1.55303">
        <ele>53</ele>
        <time>2021-03-20T11:42:21.000Z</time>
      </trkpt>
      <trkpt lat="47.1927" lon="-1.55285">
        <ele>53</ele>
        <time>2021-03-20T11:42:23.000Z</time>
      </trkpt>
      <trkpt lat="47.19274" lon="-1.55266">
        <ele>53</ele>
        <time>2021-03-20T11:42:25.000Z</time>
      </trkpt>
      <trkpt lat="47.19277" lon="-1.55248">
        <ele>54</ele>
        <time>2021-03-20T11:42:27.000Z</time>
      </trkpt>
      <trkpt lat="47.19281" lon="-1.5523">
        <ele>54</ele>
        <time>2021-03-20T11:42:29.000Z</time>
      </trkpt>
      <trkpt lat="47.19286" lon="-1.55212">
        <ele>54</ele>
        <time>2021-03-20T11:42:31.000Z</time>
      </trkpt>
      <trkpt lat="47.19291" lon="-1.55195">
        <ele>54</ele>
        <time>2021-03-20T11:42:33.000Z</time>
      </trkpt>
      <trkpt lat="47.19294" lon="-1.55178">
        <ele>55</ele>
        <time>2021-03-20T11:42:35.000Z</time>
      </trkpt>
      <trkpt lat="47.19299" lon="-1.55161">
        <ele>56</ele>
        <time>2021-03-20T11:42:37.000Z</time>
      </trkpt>
      <trkpt lat="47.19304" lon="-1.55144">
        <ele>56</ele>
        <time>2021-03-20T11:42:39.000Z</time>
      </trkpt>
      <trkpt lat="47.19308" lon="-1.55127">
        <ele>56</ele>
        <time>2021-03-20T11:42:41.000Z</time>
      </trkpt>
      <trkpt lat="47.19312" lon="-1.5511">
        <ele>56</ele>
        <time>2021-03-20T11:42:43.000Z</time>
      </trkpt>
      <trkpt lat="47.19316" lon="-1.55093">
        <ele>56</ele>
        <time>2021-03-20T11:42:45.000Z</time>
      </trkpt>
      <trkpt lat="47.19321" lon="-1.55076">
        <ele>57</ele>
        <time>2021-03-20T11:42:47.000Z</time>
      </trkpt>
      <trkpt lat="47.19326" lon="-1.55059">
        <ele>57</ele>
        <time>2021-03-20T11:42:49.000Z</time>
      </trkpt>
      <trkpt lat="47.1933" lon="-1.55042">
        <ele>57</ele>
        <time>2021-03-20T11:42:51.000Z</time>
      </trkpt>
      <trkpt lat="47.19335" lon="-1.55025">
        <ele>58</ele>
        <time>2021-03-20T11:42:53.000Z</time>
      </trkpt>
      <trkpt lat="47.19339" lon="-1.55008">
        <ele>58</ele>
        <time>2021-03-20T11:42:55.000Z</time>
      </trkpt>
      <trkpt lat="47.19344" lon="-1.54991">
        <ele>59</ele>
        <time>2021-03-20T11:42:57.000Z</time>
      </trkpt>
      <trkpt lat="47.19348" lon="-1.54974">
        <ele>59</ele>
        <time>2021-03-20T11:42:59.000Z</time>
      </trkpt>
      <trkpt lat="47.19353" lon="-1.54957">
        <ele>59</ele>
        <time>2021-03-20T11:43:01.000Z</time>
      </trkpt>
      <trkpt lat="47.19357" lon="-1.5494">
        <ele>59</ele>
        <time>2021-03-20T11:43:03.000Z</time>
      </trkpt>
      <trkpt lat="47.19361" lon="-1.54924">
        <ele>59</ele>
        <time>2021-03-20T11:43:05.000Z</time>
      </trkpt>
      <trkpt lat="47.19364" lon="-1.54908">
        <ele>59</ele>
        <time>2021-03-20T11:43:07.000Z</time>
      </trkpt>
      <trkpt lat="47.19368" lon="-1.54891">
        <ele>59</ele>
        <time>2021-03-20T11:43:09.000Z</time>
      </trkpt>
      <trkpt lat="47.19371" lon="-1.54874">
        <ele>59</ele>
        <time>2021-03-20T11:43:11.000Z</time>
      </trkpt>
      <trkpt lat="47.19376" lon="-1.54856">
        <ele>58</ele>
        <time>2021-03-20T11:43:13.000Z</time>
      </trkpt>
      <trkpt lat="47.19379" lon="-1.54838">
        <ele>58</ele>
        <time>2021-03-20T11:43:15.000Z</time>
      </trkpt>
      <trkpt lat="47.19383" lon="-1.54818">
        <ele>58</ele>
        <time>2021-03-20T11:43:17.000Z</time>
      </trkpt>
      <trkpt lat="47.19389" lon="-1.54799">
        <ele>57</ele>
        <time>2021-03-20T11:43:19.000Z</time>
      </trkpt>
      <trkpt lat="47.19394" lon="-1.54777">
        <ele>55</ele>
        <time>2021-03-20T11:43:21.000Z</time>
      </trkpt>
      <trkpt lat="47.19399" lon="-1.54756">
        <ele>54</ele>
        <time>2021-03-20T11:43:23.000Z</time>
      </trkpt>
      <trkpt lat="47.19405" lon="-1.54735">
        <ele>53</ele>
        <time>2021-03-20T11:43:25.000Z</time>
      </trkpt>
      <trkpt lat="47.1941" lon="-1.54712">
        <ele>52</ele>
        <time>2021-03-20T11:43:27.000Z</time>
      </trkpt>
      <trkpt lat="47.19414" lon="-1.54691">
        <ele>51</ele>
        <time>2021-03-20T11:43:29.000Z</time>
      </trkpt>
      <trkpt lat="47.19422" lon="-1.54672">
        <ele>51</ele>
        <time>2021-03-20T11:43:31.000Z</time>
      </trkpt>
      <trkpt lat="47.19428" lon="-1.54653">
        <ele>51</ele>
        <time>2021-03-20T11:43:33.000Z</time>
      </trkpt>
      <trkpt lat="47.19433" lon="-1.54638">
        <ele>51</ele>
        <time>2021-03-20T11:43:35.000Z</time>
      </trkpt>
      <trkpt lat="47.19435" lon="-1.54624">
        <ele>52</ele>
        <time>2021-03-20T11:43:38.000Z</time>
      </trkpt>
      <trkpt lat="47.19431" lon="-1.54612">
        <ele>51</ele>
        <time>2021-03-20T11:43:46.000Z</time>
      </trkpt>
      <trkpt lat="47.19424" lon="-1.54595">
        <ele>51</ele>
        <time>2021-03-20T11:43:49.000Z</time>
      </trkpt>
      <trkpt lat="47.19428" lon="-1.54577">
        <ele>51</ele>
        <time>2021-03-20T11:43:51.000Z</time>
      </trkpt>
      <trkpt lat="47.19437" lon="-1.54561">
        <ele>51</ele>
        <time>2021-03-20T11:43:53.000Z</time>
      </trkpt>
      <trkpt lat="47.19448" lon="-1.54552">
        <ele>51</ele>
        <time>2021-03-20T11:43:55.000Z</time>
      </trkpt>
      <trkpt lat="47.19456" lon="-1.54538">
        <ele>52</ele>
        <time>2021-03-20T11:43:57.000Z</time>
      </trkpt>
      <trkpt lat="47.19462" lon="-1.5452">
        <ele>53</ele>
        <time>2021-03-20T11:43:59.000Z</time>
      </trkpt>
      <trkpt lat="47.19467" lon="-1.54504">
        <ele>53</ele>
        <time>2021-03-20T11:44:01.000Z</time>
      </trkpt>
      <trkpt lat="47.19472" lon="-1.54487">
        <ele>54</ele>
        <time>2021-03-20T11:44:03.000Z</time>
      </trkpt>
      <trkpt lat="47.19477" lon="-1.54472">
        <ele>53</ele>
        <time>2021-03-20T11:44:05.000Z</time>
      </trkpt>
      <trkpt lat="47.19487" lon="-1.54459">
        <ele>54</ele>
        <time>2021-03-20T11:44:07.000Z</time>
      </trkpt>
      <trkpt lat="47.19498" lon="-1.54449">
        <ele>54</ele>
        <time>2021-03-20T11:44:09.000Z</time>
      </trkpt>
      <trkpt lat="47.1951" lon="-1.5444">
        <ele>55</ele>
        <time>2021-03-20T11:44:11.000Z</time>
      </trkpt>
      <trkpt lat="47.19521" lon="-1.54431">
        <ele>55</ele>
        <time>2021-03-20T11:44:13.000Z</time>
      </trkpt>
      <trkpt lat="47.19531" lon="-1.54423">
        <ele>55</ele>
        <time>2021-03-20T11:44:15.000Z</time>
      </trkpt>
      <trkpt lat="47.19542" lon="-1.54415">
        <ele>55</ele>
        <time>2021-03-20T11:44:17.000Z</time>
      </trkpt>
      <trkpt lat="47.19553" lon="-1.54407">
        <ele>55</ele>
        <time>2021-03-20T11:44:19.000Z</time>
      </trkpt>
      <trkpt lat="47.19563" lon="-1.54399">
        <ele>55</ele>
        <time>2021-03-20T11:44:21.000Z</time>
      </trkpt>
      <trkpt lat="47.19574" lon="-1.5439">
        <ele>55</ele>
        <time>2021-03-20T11:44:23.000Z</time>
      </trkpt>
      <trkpt lat="47.19584" lon="-1.54381">
        <ele>55</ele>
        <time>2021-03-20T11:44:25.000Z</time>
      </trkpt>
      <trkpt lat="47.19596" lon="-1.54372">
        <ele>55</ele>
        <time>2021-03-20T11:44:27.000Z</time>
      </trkpt>
      <trkpt lat="47.19606" lon="-1.54363">
        <ele>55</ele>
        <time>2021-03-20T11:44:29.000Z</time>
      </trkpt>
      <trkpt lat="47.19615" lon="-1.54352">
        <ele>55</ele>
        <time>2021-03-20T11:44:31.000Z</time>
      </trkpt>
      <trkpt lat="47.19624" lon="-1.5434">
        <ele>54</ele>
        <time>2021-03-20T11:44:33.000Z</time>
      </trkpt>
      <trkpt lat="47.19633" lon="-1.54327">
        <ele>54</ele>
        <time>2021-03-20T11:44:35.000Z</time>
      </trkpt>
      <trkpt lat="47.19643" lon="-1.54315">
        <ele>54</ele>
        <time>2021-03-20T11:44:37.000Z</time>
      </trkpt>
      <trkpt lat="47.19653" lon="-1.54305">
        <ele>54</ele>
        <time>2021-03-20T11:44:39.000Z</time>
      </trkpt>
      <trkpt lat="47.19664" lon="-1.54296">
        <ele>53</ele>
        <time>2021-03-20T11:44:41.000Z</time>
      </trkpt>
      <trkpt lat="47.19675" lon="-1.54287">
        <ele>53</ele>
        <time>2021-03-20T11:44:43.000Z</time>
      </trkpt>
      <trkpt lat="47.19686" lon="-1.54278">
        <ele>53</ele>
        <time>2021-03-20T11:44:45.000Z</time>
      </trkpt>
      <trkpt lat="47.19697" lon="-1.54269">
        <ele>53</ele>
        <time>2021-03-20T11:44:47.000Z</time>
      </trkpt>
      <trkpt lat="47.19708" lon="-1.54263">
        <ele>53</ele>
        <time>2021-03-20T11:44:49.000Z</time>
      </trkpt>
      <trkpt lat="47.19719" lon="-1.54255">
        <ele>53</ele>
        <time>2021-03-20T11:44:51.000Z</time>
      </trkpt>
      <trkpt lat="47.1973" lon="-1.54248">
        <ele>53</ele>
        <time>2021-03-20T11:44:53.000Z</time>
      </trkpt>
      <trkpt lat="47.19739" lon="-1.54241">
        <ele>53</ele>
        <time>2021-03-20T11:44:55.000Z</time>
      </trkpt>
      <trkpt lat="47.19748" lon="-1.54232">
        <ele>53</ele>
        <time>2021-03-20T11:44:57.000Z</time>
      </trkpt>
      <trkpt lat="47.19755" lon="-1.54224">
        <ele>53</ele>
        <time>2021-03-20T11:44:59.000Z</time>
      </trkpt>
      <trkpt lat="47.19765" lon="-1.54212">
        <ele>53</ele>
        <time>2021-03-20T11:45:02.000Z</time>
      </trkpt>
      <trkpt lat="47.19773" lon="-1.54202">
        <ele>53</ele>
        <time>2021-03-20T11:45:05.000Z</time>
      </trkpt>
      <trkpt lat="47.19784" lon="-1.54202">
        <ele>53</ele>
        <time>2021-03-20T11:45:11.000Z</time>
      </trkpt>
      <trkpt lat="47.19796" lon="-1.54209">
        <ele>55</ele>
        <time>2021-03-20T11:45:14.000Z</time>
      </trkpt>
      <trkpt lat="47.19806" lon="-1.54217">
        <ele>55</ele>
        <time>2021-03-20T11:45:16.000Z</time>
      </trkpt>
      <trkpt lat="47.19817" lon="-1.54226">
        <ele>55</ele>
        <time>2021-03-20T11:45:18.000Z</time>
      </trkpt>
      <trkpt lat="47.1983" lon="-1.54236">
        <ele>57</ele>
        <time>2021-03-20T11:45:20.000Z</time>
      </trkpt>
      <trkpt lat="47.19843" lon="-1.54245">
        <ele>58</ele>
        <time>2021-03-20T11:45:22.000Z</time>
      </trkpt>
      <trkpt lat="47.19855" lon="-1.54253">
        <ele>59</ele>
        <time>2021-03-20T11:45:24.000Z</time>
      </trkpt>
      <trkpt lat="47.19867" lon="-1.54262">
        <ele>59</ele>
        <time>2021-03-20T11:45:26.000Z</time>
      </trkpt>
      <trkpt lat="47.19879" lon="-1.54269">
        <ele>60</ele>
        <time>2021-03-20T11:45:28.000Z</time>
      </trkpt>
      <trkpt lat="47.1989" lon="-1.54278">
        <ele>61</ele>
        <time>2021-03-20T11:45:30.000Z</time>
      </trkpt>
      <trkpt lat="47.19901" lon="-1.54286">
        <ele>61</ele>
        <time>2021-03-20T11:45:32.000Z</time>
      </trkpt>
      <trkpt lat="47.19912" lon="-1.54294">
        <ele>61</ele>
        <time>2021-03-20T11:45:34.000Z</time>
      </trkpt>
      <trkpt lat="47.19923" lon="-1.54301">
        <ele>61</ele>
        <time>2021-03-20T11:45:36.000Z</time>
      </trkpt>
      <trkpt lat="47.19933" lon="-1.54309">
        <ele>61</ele>
        <time>2021-03-20T11:45:38.000Z</time>
      </trkpt>
      <trkpt lat="47.19944" lon="-1.54316">
        <ele>61</ele>
        <time>2021-03-20T11:45:40.000Z</time>
      </trkpt>
      <trkpt lat="47.19956" lon="-1.54324">
        <ele>61</ele>
        <time>2021-03-20T11:45:42.000Z</time>
      </trkpt>
      <trkpt lat="47.19966" lon="-1.54332">
        <ele>60</ele>
        <time>2021-03-20T11:45:44.000Z</time>
      </trkpt>
      <trkpt lat="47.19977" lon="-1.54339">
        <ele>60</ele>
        <time>2021-03-20T11:45:46.000Z</time>
      </trkpt>
      <trkpt lat="47.19989" lon="-1.54347">
        <ele>60</ele>
        <time>2021-03-20T11:45:48.000Z</time>
      </trkpt>
      <trkpt lat="47.2" lon="-1.54354">
        <ele>59</ele>
        <time>2021-03-20T11:45:50.000Z</time>
      </trkpt>
      <trkpt lat="47.20012" lon="-1.54362">
        <ele>58</ele>
        <time>2021-03-20T11:45:52.000Z</time>
      </trkpt>
      <trkpt lat="47.20025" lon="-1.5437">
        <ele>57</ele>
        <time>2021-03-20T11:45:54.000Z</time>
      </trkpt>
      <trkpt lat="47.20036" lon="-1.54377">
        <ele>57</ele>
        <time>2021-03-20T11:45:56.000Z</time>
      </trkpt>
      <trkpt lat="47.20049" lon="-1.54384">
        <ele>57</ele>
        <time>2021-03-20T11:45:58.000Z</time>
      </trkpt>
      <trkpt lat="47.20061" lon="-1.54393">
        <ele>56</ele>
        <time>2021-03-20T11:46:00.000Z</time>
      </trkpt>
      <trkpt lat="47.20073" lon="-1.54401">
        <ele>56</ele>
        <time>2021-03-20T11:46:02.000Z</time>
      </trkpt>
      <trkpt lat="47.20085" lon="-1.54409">
        <ele>56</ele>
        <time>2021-03-20T11:46:04.000Z</time>
      </trkpt>
      <trkpt lat="47.20097" lon="-1.54413">
        <ele>55</ele>
        <time>2021-03-20T11:46:06.000Z</time>
      </trkpt>
      <trkpt lat="47.20109" lon="-1.54417">
        <ele>55</ele>
        <time>2021-03-20T11:46:08.000Z</time>
      </trkpt>
      <trkpt lat="47.20116" lon="-1.54436">
        <ele>55</ele>
        <time>2021-03-20T11:46:10.000Z</time>
      </trkpt>
      <trkpt lat="47.20124" lon="-1.54449">
        <ele>55</ele>
        <time>2021-03-20T11:46:12.000Z</time>
      </trkpt>
      <trkpt lat="47.20135" lon="-1.54457">
        <ele>55</ele>
        <time>2021-03-20T11:46:14.000Z</time>
      </trkpt>
      <trkpt lat="47.20145" lon="-1.54463">
        <ele>56</ele>
        <time>2021-03-20T11:46:16.000Z</time>
      </trkpt>
      <trkpt lat="47.20154" lon="-1.54469">
        <ele>55</ele>
        <time>2021-03-20T11:46:18.000Z</time>
      </trkpt>
      <trkpt lat="47.2016" lon="-1.54479">
        <ele>55</ele>
        <time>2021-03-20T11:46:21.000Z</time>
      </trkpt>
      <trkpt lat="47.20168" lon="-1.54486">
        <ele>55</ele>
        <time>2021-03-20T11:46:23.000Z</time>
      </trkpt>
      <trkpt lat="47.20179" lon="-1.54491">
        <ele>55</ele>
        <time>2021-03-20T11:46:25.000Z</time>
      </trkpt>
      <trkpt lat="47.2019" lon="-1.54498">
        <ele>56</ele>
        <time>2021-03-20T11:46:27.000Z</time>
      </trkpt>
      <trkpt lat="47.20203" lon="-1.54506">
        <ele>58</ele>
        <time>2021-03-20T11:46:29.000Z</time>
      </trkpt>
      <trkpt lat="47.20219" lon="-1.54513">
        <ele>60</ele>
        <time>2021-03-20T11:46:31.000Z</time>
      </trkpt>
      <trkpt lat="47.20229" lon="-1.54513">
        <ele>62</ele>
        <time>2021-03-20T11:46:32.000Z</time>
      </trkpt>
      <trkpt lat="47.20243" lon="-1.54522">
        <ele>63</ele>
        <time>2021-03-20T11:46:34.000Z</time>
      </trkpt>
      <trkpt lat="47.20255" lon="-1.54534">
        <ele>63</ele>
        <time>2021-03-20T11:46:36.000Z</time>
      </trkpt>
      <trkpt lat="47.20268" lon="-1.54546">
        <ele>62</ele>
        <time>2021-03-20T11:46:38.000Z</time>
      </trkpt>
      <trkpt lat="47.20282" lon="-1.54556">
        <ele>62</ele>
        <time>2021-03-20T11:46:40.000Z</time>
      </trkpt>
      <trkpt lat="47.20296" lon="-1.54565">
        <ele>62</ele>
        <time>2021-03-20T11:46:42.000Z</time>
      </trkpt>
      <trkpt lat="47.20309" lon="-1.54574">
        <ele>61</ele>
        <time>2021-03-20T11:46:44.000Z</time>
      </trkpt>
      <trkpt lat="47.20324" lon="-1.54583">
        <ele>59</ele>
        <time>2021-03-20T11:46:46.000Z</time>
      </trkpt>
      <trkpt lat="47.20338" lon="-1.54593">
        <ele>59</ele>
        <time>2021-03-20T11:46:48.000Z</time>
      </trkpt>
      <trkpt lat="47.20352" lon="-1.54601">
        <ele>58</ele>
        <time>2021-03-20T11:46:50.000Z</time>
      </trkpt>
      <trkpt lat="47.20364" lon="-1.5461">
        <ele>58</ele>
        <time>2021-03-20T11:46:52.000Z</time>
      </trkpt>
      <trkpt lat="47.20377" lon="-1.54618">
        <ele>57</ele>
        <time>2021-03-20T11:46:54.000Z</time>
      </trkpt>
      <trkpt lat="47.2039" lon="-1.54627">
        <ele>57</ele>
        <time>2021-03-20T11:46:56.000Z</time>
      </trkpt>
      <trkpt lat="47.20403" lon="-1.54636">
        <ele>57</ele>
        <time>2021-03-20T11:46:58.000Z</time>
      </trkpt>
      <trkpt lat="47.20417" lon="-1.54645">
        <ele>57</ele>
        <time>2021-03-20T11:47:00.000Z</time>
      </trkpt>
      <trkpt lat="47.20432" lon="-1.54655">
        <ele>57</ele>
        <time>2021-03-20T11:47:02.000Z</time>
      </trkpt>
      <trkpt lat="47.20445" lon="-1.54664">
        <ele>57</ele>
        <time>2021-03-20T11:47:04.000Z</time>
      </trkpt>
      <trkpt lat="47.2046" lon="-1.5467">
        <ele>58</ele>
        <time>2021-03-20T11:47:06.000Z</time>
      </trkpt>
      <trkpt lat="47.20473" lon="-1.54678">
        <ele>58</ele>
        <time>2021-03-20T11:47:08.000Z</time>
      </trkpt>
      <trkpt lat="47.20485" lon="-1.54688">
        <ele>59</ele>
        <time>2021-03-20T11:47:10.000Z</time>
      </trkpt>
      <trkpt lat="47.20497" lon="-1.54696">
        <ele>59</ele>
        <time>2021-03-20T11:47:12.000Z</time>
      </trkpt>
      <trkpt lat="47.20509" lon="-1.54704">
        <ele>58</ele>
        <time>2021-03-20T11:47:14.000Z</time>
      </trkpt>
      <trkpt lat="47.20522" lon="-1.54714">
        <ele>58</ele>
        <time>2021-03-20T11:47:16.000Z</time>
      </trkpt>
      <trkpt lat="47.20535" lon="-1.54725">
        <ele>58</ele>
        <time>2021-03-20T11:47:18.000Z</time>
      </trkpt>
      <trkpt lat="47.20549" lon="-1.54734">
        <ele>59</ele>
        <time>2021-03-20T11:47:20.000Z</time>
      </trkpt>
      <trkpt lat="47.20557" lon="-1.5474">
        <ele>59</ele>
        <time>2021-03-20T11:47:21.000Z</time>
      </trkpt>
      <trkpt lat="47.20572" lon="-1.54748">
        <ele>60</ele>
        <time>2021-03-20T11:47:23.000Z</time>
      </trkpt>
      <trkpt lat="47.20584" lon="-1.54754">
        <ele>61</ele>
        <time>2021-03-20T11:47:25.000Z</time>
      </trkpt>
      <trkpt lat="47.20599" lon="-1.5476">
        <ele>66</ele>
        <time>2021-03-20T11:47:50.000Z</time>
      </trkpt>
      <trkpt lat="47.20613" lon="-1.54773">
        <ele>66</ele>
        <time>2021-03-20T11:47:52.000Z</time>
      </trkpt>
      <trkpt lat="47.20626" lon="-1.54785">
        <ele>67</ele>
        <time>2021-03-20T11:47:54.000Z</time>
      </trkpt>
      <trkpt lat="47.20639" lon="-1.54798">
        <ele>67</ele>
        <time>2021-03-20T11:47:56.000Z</time>
      </trkpt>
      <trkpt lat="47.20652" lon="-1.54809">
        <ele>65</ele>
        <time>2021-03-20T11:47:58.000Z</time>
      </trkpt>
      <trkpt lat="47.20666" lon="-1.54819">
        <ele>64</ele>
        <time>2021-03-20T11:48:00.000Z</time>
      </trkpt>
      <trkpt lat="47.20679" lon="-1.54828">
        <ele>62</ele>
        <time>2021-03-20T11:48:02.000Z</time>
      </trkpt>
      <trkpt lat="47.20692" lon="-1.54837">
        <ele>60</ele>
        <time>2021-03-20T11:48:04.000Z</time>
      </trkpt>
      <trkpt lat="47.20706" lon="-1.54847">
        <ele>59</ele>
        <time>2021-03-20T11:48:06.000Z</time>
      </trkpt>
      <trkpt lat="47.2072" lon="-1.54857">
        <ele>59</ele>
        <time>2021-03-20T11:48:08.000Z</time>
      </trkpt>
      <trkpt lat="47.20735" lon="-1.54867">
        <ele>58</ele>
        <time>2021-03-20T11:48:10.000Z</time>
      </trkpt>
      <trkpt lat="47.20749" lon="-1.54876">
        <ele>58</ele>
        <time>2021-03-20T11:48:12.000Z</time>
      </trkpt>
      <trkpt lat="47.20762" lon="-1.54884">
        <ele>58</ele>
        <time>2021-03-20T11:48:14.000Z</time>
      </trkpt>
      <trkpt lat="47.20773" lon="-1.54892">
        <ele>58</ele>
        <time>2021-03-20T11:48:16.000Z</time>
      </trkpt>
      <trkpt lat="47.20785" lon="-1.549">
        <ele>58</ele>
        <time>2021-03-20T11:48:18.000Z</time>
      </trkpt>
      <trkpt lat="47.20797" lon="-1.54907">
        <ele>58</ele>
        <time>2021-03-20T11:48:20.000Z</time>
      </trkpt>
      <trkpt lat="47.20809" lon="-1.54916">
        <ele>58</ele>
        <time>2021-03-20T11:48:22.000Z</time>
      </trkpt>
      <trkpt lat="47.20821" lon="-1.54924">
        <ele>57</ele>
        <time>2021-03-20T11:48:24.000Z</time>
      </trkpt>
      <trkpt lat="47.20833" lon="-1.54932">
        <ele>57</ele>
        <time>2021-03-20T11:48:26.000Z</time>
      </trkpt>
      <trkpt lat="47.20844" lon="-1.54939">
        <ele>56</ele>
        <time>2021-03-20T11:48:28.000Z</time>
      </trkpt>
      <trkpt lat="47.20855" lon="-1.54947">
        <ele>56</ele>
        <time>2021-03-20T11:48:30.000Z</time>
      </trkpt>
      <trkpt lat="47.20865" lon="-1.54955">
        <ele>55</ele>
        <time>2021-03-20T11:48:32.000Z</time>
      </trkpt>
      <trkpt lat="47.20877" lon="-1.5495">
        <ele>54</ele>
        <time>2021-03-20T11:48:35.000Z</time>
      </trkpt>
      <trkpt lat="47.20883" lon="-1.54934">
        <ele>54</ele>
        <time>2021-03-20T11:48:37.000Z</time>
      </trkpt>
      <trkpt lat="47.20887" lon="-1.54916">
        <ele>54</ele>
        <time>2021-03-20T11:48:39.000Z</time>
      </trkpt>
      <trkpt lat="47.20891" lon="-1.54896">
        <ele>53</ele>
        <time>2021-03-20T11:48:41.000Z</time>
      </trkpt>
      <trkpt lat="47.20895" lon="-1.54877">
        <ele>53</ele>
        <time>2021-03-20T11:48:43.000Z</time>
      </trkpt>
      <trkpt lat="47.20899" lon="-1.54859">
        <ele>52</ele>
        <time>2021-03-20T11:48:45.000Z</time>
      </trkpt>
      <trkpt lat="47.20904" lon="-1.54843">
        <ele>52</ele>
        <time>2021-03-20T11:48:47.000Z</time>
      </trkpt>
      <trkpt lat="47.20911" lon="-1.54827">
        <ele>52</ele>
        <time>2021-03-20T11:48:49.000Z</time>
      </trkpt>
      <trkpt lat="47.20919" lon="-1.5481">
        <ele>52</ele>
        <time>2021-03-20T11:48:51.000Z</time>
      </trkpt>
      <trkpt lat="47.20925" lon="-1.54793">
        <ele>52</ele>
        <time>2021-03-20T11:48:53.000Z</time>
      </trkpt>
      <trkpt lat="47.20931" lon="-1.54777">
        <ele>52</ele>
        <time>2021-03-20T11:48:55.000Z</time>
      </trkpt>
      <trkpt lat="47.20936" lon="-1.5476">
        <ele>53</ele>
        <time>2021-03-20T11:48:57.000Z</time>
      </trkpt>
      <trkpt lat="47.20942" lon="-1.54744">
        <ele>52</ele>
        <time>2021-03-20T11:48:59.000Z</time>
      </trkpt>
      <trkpt lat="47.20947" lon="-1.54727">
        <ele>53</ele>
        <time>2021-03-20T11:49:01.000Z</time>
      </trkpt>
      <trkpt lat="47.20953" lon="-1.5471">
        <ele>53</ele>
        <time>2021-03-20T11:49:03.000Z</time>
      </trkpt>
      <trkpt lat="47.20958" lon="-1.54691">
        <ele>53</ele>
        <time>2021-03-20T11:49:05.000Z</time>
      </trkpt>
      <trkpt lat="47.20965" lon="-1.5467">
        <ele>52</ele>
        <time>2021-03-20T11:49:07.000Z</time>
      </trkpt>
      <trkpt lat="47.20971" lon="-1.5465">
        <ele>53</ele>
        <time>2021-03-20T11:49:09.000Z</time>
      </trkpt>
      <trkpt lat="47.20977" lon="-1.54629">
        <ele>53</ele>
        <time>2021-03-20T11:49:11.000Z</time>
      </trkpt>
      <trkpt lat="47.20983" lon="-1.54607">
        <ele>53</ele>
        <time>2021-03-20T11:49:13.000Z</time>
      </trkpt>
      <trkpt lat="47.2099" lon="-1.54587">
        <ele>53</ele>
        <time>2021-03-20T11:49:15.000Z</time>
      </trkpt>
      <trkpt lat="47.20996" lon="-1.54568">
        <ele>53</ele>
        <time>2021-03-20T11:49:17.000Z</time>
      </trkpt>
      <trkpt lat="47.21002" lon="-1.54549">
        <ele>53</ele>
        <time>2021-03-20T11:49:19.000Z</time>
      </trkpt>
      <trkpt lat="47.21009" lon="-1.54531">
        <ele>52</ele>
        <time>2021-03-20T11:49:21.000Z</time>
      </trkpt>
      <trkpt lat="47.21015" lon="-1.54511">
        <ele>52</ele>
        <time>2021-03-20T11:49:23.000Z</time>
      </trkpt>
      <trkpt lat="47.21021" lon="-1.54493">
        <ele>52</ele>
        <time>2021-03-20T11:49:25.000Z</time>
      </trkpt>
      <trkpt lat="47.21027" lon="-1.54476">
        <ele>51</ele>
        <time>2021-03-20T11:49:27.000Z</time>
      </trkpt>
      <trkpt lat="47.21032" lon="-1.5446">
        <ele>52</ele>
        <time>2021-03-20T11:49:29.000Z</time>
      </trkpt>
      <trkpt lat="47.21038" lon="-1.54445">
        <ele>52</ele>
        <time>2021-03-20T11:49:31.000Z</time>
      </trkpt>
      <trkpt lat="47.21044" lon="-1.54433">
        <ele>52</ele>
        <time>2021-03-20T11:49:34.000Z</time>
      </trkpt>
      <trkpt lat="47.21042" lon="-1.54418">
        <ele>52</ele>
        <time>2021-03-20T11:49:40.000Z</time>
      </trkpt>
      <trkpt lat="47.21049" lon="-1.54406">
        <ele>52</ele>
        <time>2021-03-20T11:49:42.000Z</time>
      </trkpt>
      <trkpt lat="47.21059" lon="-1.54416">
        <ele>52</ele>
        <time>2021-03-20T11:49:44.000Z</time>
      </trkpt>
      <trkpt lat="47.21069" lon="-1.54426">
        <ele>52</ele>
        <time>2021-03-20T11:49:46.000Z</time>
      </trkpt>
      <trkpt lat="47.2108" lon="-1.54433">
        <ele>53</ele>
        <time>2021-03-20T11:49:48.000Z</time>
      </trkpt>
      <trkpt lat="47.21092" lon="-1.54439">
        <ele>54</ele>
        <time>2021-03-20T11:49:50.000Z</time>
      </trkpt>
      <trkpt lat="47.21104" lon="-1.54447">
        <ele>54</ele>
        <time>2021-03-20T11:49:52.000Z</time>
      </trkpt>
      <trkpt lat="47.21116" lon="-1.54454">
        <ele>54</ele>
        <time>2021-03-20T11:49:54.000Z</time>
      </trkpt>
      <trkpt lat="47.21128" lon="-1.54458">
        <ele>54</ele>
        <time>2021-03-20T11:49:56.000Z</time>
      </trkpt>
      <trkpt lat="47.21138" lon="-1.54447">
        <ele>53</ele>
        <time>2021-03-20T11:49:58.000Z</time>
      </trkpt>
      <trkpt lat="47.21149" lon="-1.54431">
        <ele>54</ele>
        <time>2021-03-20T11:50:00.000Z</time>
      </trkpt>
      <trkpt lat="47.21157" lon="-1.54415">
        <ele>54</ele>
        <time>2021-03-20T11:50:02.000Z</time>
      </trkpt>
      <trkpt lat="47.21162" lon="-1.54397">
        <ele>54</ele>
        <time>2021-03-20T11:50:04.000Z</time>
      </trkpt>
      <trkpt lat="47.21169" lon="-1.54381">
        <ele>55</ele>
        <time>2021-03-20T11:50:06.000Z</time>
      </trkpt>
      <trkpt lat="47.21173" lon="-1.54366">
        <ele>54</ele>
        <time>2021-03-20T11:50:09.000Z</time>
      </trkpt>
      <trkpt lat="47.21177" lon="-1.54349">
        <ele>55</ele>
        <time>2021-03-20T11:50:13.000Z</time>
      </trkpt>
      <trkpt lat="47.21182" lon="-1.54338">
        <ele>54</ele>
        <time>2021-03-20T11:50:15.000Z</time>
      </trkpt>
      <trkpt lat="47.21195" lon="-1.54335">
        <ele>53</ele>
        <time>2021-03-20T11:50:17.000Z</time>
      </trkpt>
      <trkpt lat="47.21206" lon="-1.54343">
        <ele>54</ele>
        <time>2021-03-20T11:50:19.000Z</time>
      </trkpt>
      <trkpt lat="47.21214" lon="-1.54357">
        <ele>55</ele>
        <time>2021-03-20T11:50:21.000Z</time>
      </trkpt>
      <trkpt lat="47.21222" lon="-1.54367">
        <ele>56</ele>
        <time>2021-03-20T11:50:23.000Z</time>
      </trkpt>
      <trkpt lat="47.21233" lon="-1.54377">
        <ele>56</ele>
        <time>2021-03-20T11:50:25.000Z</time>
      </trkpt>
      <trkpt lat="47.21244" lon="-1.54384">
        <ele>57</ele>
        <time>2021-03-20T11:50:27.000Z</time>
      </trkpt>
      <trkpt lat="47.21254" lon="-1.54393">
        <ele>56</ele>
        <time>2021-03-20T11:50:29.000Z</time>
      </trkpt>
      <trkpt lat="47.21263" lon="-1.54401">
        <ele>56</ele>
        <time>2021-03-20T11:50:31.000Z</time>
      </trkpt>
      <trkpt lat="47.21275" lon="-1.54411">
        <ele>56</ele>
        <time>2021-03-20T11:50:33.000Z</time>
      </trkpt>
      <trkpt lat="47.21287" lon="-1.54422">
        <ele>56</ele>
        <time>2021-03-20T11:50:35.000Z</time>
      </trkpt>
      <trkpt lat="47.213" lon="-1.54432">
        <ele>57</ele>
        <time>2021-03-20T11:50:37.000Z</time>
      </trkpt>
      <trkpt lat="47.21311" lon="-1.54441">
        <ele>57</ele>
        <time>2021-03-20T11:50:39.000Z</time>
      </trkpt>
      <trkpt lat="47.21323" lon="-1.54451">
        <ele>56</ele>
        <time>2021-03-20T11:50:41.000Z</time>
      </trkpt>
      <trkpt lat="47.21333" lon="-1.54459">
        <ele>54</ele>
        <time>2021-03-20T11:50:43.000Z</time>
      </trkpt>
      <trkpt lat="47.21347" lon="-1.54467">
        <ele>54</ele>
        <time>2021-03-20T11:50:45.000Z</time>
      </trkpt>
      <trkpt lat="47.21359" lon="-1.54476">
        <ele>54</ele>
        <time>2021-03-20T11:50:47.000Z</time>
      </trkpt>
      <trkpt lat="47.21372" lon="-1.54486">
        <ele>55</ele>
        <time>2021-03-20T11:50:49.000Z</time>
      </trkpt>
      <trkpt lat="47.21384" lon="-1.54497">
        <ele>55</ele>
        <time>2021-03-20T11:50:51.000Z</time>
      </trkpt>
      <trkpt lat="47.21396" lon="-1.54506">
        <ele>54</ele>
        <time>2021-03-20T11:50:53.000Z</time>
      </trkpt>
      <trkpt lat="47.21408" lon="-1.54516">
        <ele>53</ele>
        <time>2021-03-20T11:50:55.000Z</time>
      </trkpt>
      <trkpt lat="47.21419" lon="-1.54526">
        <ele>53</ele>
        <time>2021-03-20T11:50:57.000Z</time>
      </trkpt>
      <trkpt lat="47.21431" lon="-1.54537">
        <ele>53</ele>
        <time>2021-03-20T11:50:59.000Z</time>
      </trkpt>
      <trkpt lat="47.21443" lon="-1.54546">
        <ele>53</ele>
        <time>2021-03-20T11:51:01.000Z</time>
      </trkpt>
      <trkpt lat="47.21455" lon="-1.54554">
        <ele>53</ele>
        <time>2021-03-20T11:51:03.000Z</time>
      </trkpt>
      <trkpt lat="47.21464" lon="-1.54562">
        <ele>54</ele>
        <time>2021-03-20T11:51:05.000Z</time>
      </trkpt>
      <trkpt lat="47.21473" lon="-1.5457">
        <ele>54</ele>
        <time>2021-03-20T11:51:07.000Z</time>
      </trkpt>
      <trkpt lat="47.21483" lon="-1.54579">
        <ele>54</ele>
        <time>2021-03-20T11:51:09.000Z</time>
      </trkpt>
      <trkpt lat="47.21495" lon="-1.54591">
        <ele>54</ele>
        <time>2021-03-20T11:51:11.000Z</time>
      </trkpt>
      <trkpt lat="47.21507" lon="-1.54605">
        <ele>55</ele>
        <time>2021-03-20T11:51:13.000Z</time>
      </trkpt>
      <trkpt lat="47.2152" lon="-1.54615">
        <ele>56</ele>
        <time>2021-03-20T11:51:15.000Z</time>
      </trkpt>
      <trkpt lat="47.2153" lon="-1.54626">
        <ele>57</ele>
        <time>2021-03-20T11:51:17.000Z</time>
      </trkpt>
      <trkpt lat="47.21541" lon="-1.54635">
        <ele>59</ele>
        <time>2021-03-20T11:51:19.000Z</time>
      </trkpt>
      <trkpt lat="47.21551" lon="-1.54644">
        <ele>60</ele>
        <time>2021-03-20T11:51:21.000Z</time>
      </trkpt>
      <trkpt lat="47.21561" lon="-1.54652">
        <ele>61</ele>
        <time>2021-03-20T11:51:23.000Z</time>
      </trkpt>
      <trkpt lat="47.21571" lon="-1.54661">
        <ele>61</ele>
        <time>2021-03-20T11:51:25.000Z</time>
      </trkpt>
      <trkpt lat="47.21583" lon="-1.54669">
        <ele>60</ele>
        <time>2021-03-20T11:51:27.000Z</time>
      </trkpt>
      <trkpt lat="47.21593" lon="-1.54673">
        <ele>60</ele>
        <time>2021-03-20T11:51:29.000Z</time>
      </trkpt>
      <trkpt lat="47.21602" lon="-1.54674">
        <ele>59</ele>
        <time>2021-03-20T11:51:31.000Z</time>
      </trkpt>
      <trkpt lat="47.21615" lon="-1.54676">
        <ele>59</ele>
        <time>2021-03-20T11:51:34.000Z</time>
      </trkpt>
      <trkpt lat="47.21628" lon="-1.54671">
        <ele>58</ele>
        <time>2021-03-20T11:51:37.000Z</time>
      </trkpt>
      <trkpt lat="47.2164" lon="-1.54671">
        <ele>57</ele>
        <time>2021-03-20T11:51:40.000Z</time>
      </trkpt>
      <trkpt lat="47.21647" lon="-1.54679">
        <ele>56</ele>
        <time>2021-03-20T11:51:42.000Z</time>
      </trkpt>
      <trkpt lat="47.21659" lon="-1.54689">
        <ele>56</ele>
        <time>2021-03-20T11:51:44.000Z</time>
      </trkpt>
      <trkpt lat="47.21669" lon="-1.54702">
        <ele>55</ele>
        <time>2021-03-20T11:51:46.000Z</time>
      </trkpt>
      <trkpt lat="47.21681" lon="-1.54713">
        <ele>56</ele>
        <time>2021-03-20T11:51:48.000Z</time>
      </trkpt>
      <trkpt lat="47.21694" lon="-1.54722">
        <ele>56</ele>
        <time>2021-03-20T11:51:50.000Z</time>
      </trkpt>
      <trkpt lat="47.21705" lon="-1.54732">
        <ele>56</ele>
        <time>2021-03-20T11:51:52.000Z</time>
      </trkpt>
      <trkpt lat="47.21716" lon="-1.5474">
        <ele>57</ele>
        <time>2021-03-20T11:51:54.000Z</time>
      </trkpt>
      <trkpt lat="47.21728" lon="-1.54749">
        <ele>57</ele>
        <time>2021-03-20T11:51:56.000Z</time>
      </trkpt>
      <trkpt lat="47.21738" lon="-1.54756">
        <ele>58</ele>
        <time>2021-03-20T11:51:58.000Z</time>
      </trkpt>
      <trkpt lat="47.21749" lon="-1.54764">
        <ele>59</ele>
        <time>2021-03-20T11:52:00.000Z</time>
      </trkpt>
      <trkpt lat="47.21761" lon="-1.54772">
        <ele>60</ele>
        <time>2021-03-20T11:52:02.000Z</time>
      </trkpt>
      <trkpt lat="47.21772" lon="-1.54779">
        <ele>60</ele>
        <time>2021-03-20T11:52:04.000Z</time>
      </trkpt>
      <trkpt lat="47.21782" lon="-1.54786">
        <ele>61</ele>
        <time>2021-03-20T11:52:06.000Z</time>
      </trkpt>
      <trkpt lat="47.21791" lon="-1.54794">
        <ele>61</ele>
        <time>2021-03-20T11:52:08.000Z</time>
      </trkpt>
      <trkpt lat="47.21801" lon="-1.548">
        <ele>61</ele>
        <time>2021-03-20T11:52:10.000Z</time>
      </trkpt>
      <trkpt lat="47.21812" lon="-1.54808">
        <ele>61</ele>
        <time>2021-03-20T11:52:12.000Z</time>
      </trkpt>
      <trkpt lat="47.21822" lon="-1.54817">
        <ele>61</ele>
        <time>2021-03-20T11:52:14.000Z</time>
      </trkpt>
      <trkpt lat="47.21834" lon="-1.54825">
        <ele>61</ele>
        <time>2021-03-20T11:52:16.000Z</time>
      </trkpt>
      <trkpt lat="47.21843" lon="-1.54834">
        <ele>62</ele>
        <time>2021-03-20T11:52:18.000Z</time>
      </trkpt>
      <trkpt lat="47.21853" lon="-1.54842">
        <ele>62</ele>
        <time>2021-03-20T11:52:20.000Z</time>
      </trkpt>
      <trkpt lat="47.21863" lon="-1.54849">
        <ele>62</ele>
        <time>2021-03-20T11:52:22.000Z</time>
      </trkpt>
      <trkpt lat="47.21871" lon="-1.54855">
        <ele>63</ele>
        <time>2021-03-20T11:52:24.000Z</time>
      </trkpt>
      <trkpt lat="47.21883" lon="-1.54866">
        <ele>65</ele>
        <time>2021-03-20T11:52:27.000Z</time>
      </trkpt>
      <trkpt lat="47.21893" lon="-1.54874">
        <ele>66</ele>
        <time>2021-03-20T11:52:29.000Z</time>
      </trkpt>
      <trkpt lat="47.21903" lon="-1.54883">
        <ele>67</ele>
        <time>2021-03-20T11:52:31.000Z</time>
      </trkpt>
      <trkpt lat="47.21912" lon="-1.54891">
        <ele>67</ele>
        <time>2021-03-20T11:52:33.000Z</time>
      </trkpt>
      <trkpt lat="47.21921" lon="-1.54899">
        <ele>67</ele>
        <time>2021-03-20T11:52:35.000Z</time>
      </trkpt>
      <trkpt lat="47.21932" lon="-1.54908">
        <ele>67</ele>
        <time>2021-03-20T11:52:37.000Z</time>
      </trkpt>
      <trkpt lat="47.21943" lon="-1.54916">
        <ele>66</ele>
        <time>2021-03-20T11:52:39.000Z</time>
      </trkpt>
      <trkpt lat="47.21953" lon="-1.54925">
        <ele>66</ele>
        <time>2021-03-20T11:52:41.000Z</time>
      </trkpt>
      <trkpt lat="47.21963" lon="-1.54935">
        <ele>66</ele>
        <time>2021-03-20T11:52:43.000Z</time>
      </trkpt>
      <trkpt lat="47.21973" lon="-1.54944">
        <ele>66</ele>
        <time>2021-03-20T11:52:45.000Z</time>
      </trkpt>
      <trkpt lat="47.21984" lon="-1.54953">
        <ele>66</ele>
        <time>2021-03-20T11:52:47.000Z</time>
      </trkpt>
      <trkpt lat="47.21994" lon="-1.54961">
        <ele>67</ele>
        <time>2021-03-20T11:52:49.000Z</time>
      </trkpt>
      <trkpt lat="47.22004" lon="-1.5497">
        <ele>66</ele>
        <time>2021-03-20T11:52:51.000Z</time>
      </trkpt>
      <trkpt lat="47.22016" lon="-1.54979">
        <ele>66</ele>
        <time>2021-03-20T11:52:53.000Z</time>
      </trkpt>
      <trkpt lat="47.22027" lon="-1.54989">
        <ele>65</ele>
        <time>2021-03-20T11:52:55.000Z</time>
      </trkpt>
      <trkpt lat="47.22039" lon="-1.54999">
        <ele>64</ele>
        <time>2021-03-20T11:52:57.000Z</time>
      </trkpt>
      <trkpt lat="47.22051" lon="-1.55008">
        <ele>64</ele>
        <time>2021-03-20T11:52:59.000Z</time>
      </trkpt>
      <trkpt lat="47.22062" lon="-1.55017">
        <ele>63</ele>
        <time>2021-03-20T11:53:01.000Z</time>
      </trkpt>
      <trkpt lat="47.22073" lon="-1.55026">
        <ele>64</ele>
        <time>2021-03-20T11:53:03.000Z</time>
      </trkpt>
      <trkpt lat="47.22084" lon="-1.55035">
        <ele>63</ele>
        <time>2021-03-20T11:53:05.000Z</time>
      </trkpt>
      <trkpt lat="47.22096" lon="-1.55045">
        <ele>62</ele>
        <time>2021-03-20T11:53:07.000Z</time>
      </trkpt>
      <trkpt lat="47.22107" lon="-1.55055">
        <ele>62</ele>
        <time>2021-03-20T11:53:09.000Z</time>
      </trkpt>
      <trkpt lat="47.22118" lon="-1.55065">
        <ele>62</ele>
        <time>2021-03-20T11:53:11.000Z</time>
      </trkpt>
      <trkpt lat="47.22129" lon="-1.55074">
        <ele>62</ele>
        <time>2021-03-20T11:53:13.000Z</time>
      </trkpt>
      <trkpt lat="47.22141" lon="-1.55082">
        <ele>61</ele>
        <time>2021-03-20T11:53:15.000Z</time>
      </trkpt>
      <trkpt lat="47.22152" lon="-1.55092">
        <ele>61</ele>
        <time>2021-03-20T11:53:17.000Z</time>
      </trkpt>
      <trkpt lat="47.22163" lon="-1.55102">
        <ele>61</ele>
        <time>2021-03-20T11:53:19.000Z</time>
      </trkpt>
      <trkpt lat="47.22175" lon="-1.55109">
        <ele>61</ele>
        <time>2021-03-20T11:53:21.000Z</time>
      </trkpt>
      <trkpt lat="47.22188" lon="-1.55116">
        <ele>60</ele>
        <time>2021-03-20T11:53:23.000Z</time>
      </trkpt>
      <trkpt lat="47.22201" lon="-1.55129">
        <ele>60</ele>
        <time>2021-03-20T11:53:25.000Z</time>
      </trkpt>
      <trkpt lat="47.22215" lon="-1.55142">
        <ele>59</ele>
        <time>2021-03-20T11:53:27.000Z</time>
      </trkpt>
      <trkpt lat="47.2223" lon="-1.55154">
        <ele>60</ele>
        <time>2021-03-20T11:53:29.000Z</time>
      </trkpt>
      <trkpt lat="47.22246" lon="-1.55167">
        <ele>58</ele>
        <time>2021-03-20T11:53:31.000Z</time>
      </trkpt>
      <trkpt lat="47.2226" lon="-1.55178">
        <ele>58</ele>
        <time>2021-03-20T11:53:33.000Z</time>
      </trkpt>
      <trkpt lat="47.22272" lon="-1.55191">
        <ele>57</ele>
        <time>2021-03-20T11:53:35.000Z</time>
      </trkpt>
      <trkpt lat="47.22282" lon="-1.55202">
        <ele>55</ele>
        <time>2021-03-20T11:53:37.000Z</time>
      </trkpt>
      <trkpt lat="47.22293" lon="-1.5521">
        <ele>54</ele>
        <time>2021-03-20T11:53:40.000Z</time>
      </trkpt>
      <trkpt lat="47.22301" lon="-1.55216">
        <ele>56</ele>
        <time>2021-03-20T11:53:42.000Z</time>
      </trkpt>
      <trkpt lat="47.22311" lon="-1.5523">
        <ele>55</ele>
        <time>2021-03-20T11:53:44.000Z</time>
      </trkpt>
      <trkpt lat="47.22315" lon="-1.55242">
        <ele>55</ele>
        <time>2021-03-20T11:53:46.000Z</time>
      </trkpt>
      <trkpt lat="47.22327" lon="-1.55249">
        <ele>55</ele>
        <time>2021-03-20T11:53:50.000Z</time>
      </trkpt>
      <trkpt lat="47.22339" lon="-1.55255">
        <ele>56</ele>
        <time>2021-03-20T11:53:52.000Z</time>
      </trkpt>
      <trkpt lat="47.22351" lon="-1.55258">
        <ele>57</ele>
        <time>2021-03-20T11:53:54.000Z</time>
      </trkpt>
      <trkpt lat="47.22365" lon="-1.5526">
        <ele>56</ele>
        <time>2021-03-20T11:53:56.000Z</time>
      </trkpt>
      <trkpt lat="47.22378" lon="-1.55262">
        <ele>57</ele>
        <time>2021-03-20T11:53:58.000Z</time>
      </trkpt>
      <trkpt lat="47.22391" lon="-1.55265">
        <ele>56</ele>
        <time>2021-03-20T11:54:00.000Z</time>
      </trkpt>
      <trkpt lat="47.22404" lon="-1.55267">
        <ele>55</ele>
        <time>2021-03-20T11:54:02.000Z</time>
      </trkpt>
      <trkpt lat="47.22416" lon="-1.55269">
        <ele>56</ele>
        <time>2021-03-20T11:54:04.000Z</time>
      </trkpt>
      <trkpt lat="47.22428" lon="-1.55271">
        <ele>56</ele>
        <time>2021-03-20T11:54:06.000Z</time>
      </trkpt>
      <trkpt lat="47.22441" lon="-1.55273">
        <ele>55</ele>
        <time>2021-03-20T11:54:08.000Z</time>
      </trkpt>
      <trkpt lat="47.22453" lon="-1.55277">
        <ele>55</ele>
        <time>2021-03-20T11:54:10.000Z</time>
      </trkpt>
      <trkpt lat="47.22466" lon="-1.55279">
        <ele>55</ele>
        <time>2021-03-20T11:54:12.000Z</time>
      </trkpt>
      <trkpt lat="47.22477" lon="-1.55282">
        <ele>56</ele>
        <time>2021-03-20T11:54:14.000Z</time>
      </trkpt>
      <trkpt lat="47.22489" lon="-1.55284">
        <ele>56</ele>
        <time>2021-03-20T11:54:16.000Z</time>
      </trkpt>
      <trkpt lat="47.225" lon="-1.55286">
        <ele>56</ele>
        <time>2021-03-20T11:54:18.000Z</time>
      </trkpt>
      <trkpt lat="47.22512" lon="-1.55289">
        <ele>57</ele>
        <time>2021-03-20T11:54:20.000Z</time>
      </trkpt>
      <trkpt lat="47.22525" lon="-1.55292">
        <ele>56</ele>
        <time>2021-03-20T11:54:22.000Z</time>
      </trkpt>
      <trkpt lat="47.22537" lon="-1.55296">
        <ele>56</ele>
        <time>2021-03-20T11:54:24.000Z</time>
      </trkpt>
      <trkpt lat="47.2255" lon="-1.55299">
        <ele>57</ele>
        <time>2021-03-20T11:54:26.000Z</time>
      </trkpt>
      <trkpt lat="47.22562" lon="-1.55301">
        <ele>58</ele>
        <time>2021-03-20T11:54:28.000Z</time>
      </trkpt>
      <trkpt lat="47.22574" lon="-1.55303">
        <ele>58</ele>
        <time>2021-03-20T11:54:30.000Z</time>
      </trkpt>
      <trkpt lat="47.22587" lon="-1.55306">
        <ele>57</ele>
        <time>2021-03-20T11:54:32.000Z</time>
      </trkpt>
      <trkpt lat="47.22598" lon="-1.55307">
        <ele>58</ele>
        <time>2021-03-20T11:54:34.000Z</time>
      </trkpt>
      <trkpt lat="47.2261" lon="-1.5531">
        <ele>58</ele>
        <time>2021-03-20T11:54:36.000Z</time>
      </trkpt>
      <trkpt lat="47.22623" lon="-1.55312">
        <ele>57</ele>
        <time>2021-03-20T11:54:38.000Z</time>
      </trkpt>
      <trkpt lat="47.22636" lon="-1.55313">
        <ele>57</ele>
        <time>2021-03-20T11:54:40.000Z</time>
      </trkpt>
      <trkpt lat="47.22648" lon="-1.55315">
        <ele>58</ele>
        <time>2021-03-20T11:54:42.000Z</time>
      </trkpt>
      <trkpt lat="47.2266" lon="-1.55317">
        <ele>58</ele>
        <time>2021-03-20T11:54:44.000Z</time>
      </trkpt>
      <trkpt lat="47.22672" lon="-1.5532">
        <ele>58</ele>
        <time>2021-03-20T11:54:46.000Z</time>
      </trkpt>
      <trkpt lat="47.22684" lon="-1.55319">
        <ele>58</ele>
        <time>2021-03-20T11:54:48.000Z</time>
      </trkpt>
      <trkpt lat="47.22696" lon="-1.55317">
        <ele>58</ele>
        <time>2021-03-20T11:54:50.000Z</time>
      </trkpt>
      <trkpt lat="47.22707" lon="-1.55311">
        <ele>59</ele>
        <time>2021-03-20T11:54:52.000Z</time>
      </trkpt>
      <trkpt lat="47.22716" lon="-1.55303">
        <ele>58</ele>
        <time>2021-03-20T11:54:54.000Z</time>
      </trkpt>
      <trkpt lat="47.22724" lon="-1.55295">
        <ele>58</ele>
        <time>2021-03-20T11:54:56.000Z</time>
      </trkpt>
      <trkpt lat="47.2273" lon="-1.55285">
        <ele>58</ele>
        <time>2021-03-20T11:54:58.000Z</time>
      </trkpt>
      <trkpt lat="47.22739" lon="-1.55276">
        <ele>58</ele>
        <time>2021-03-20T11:55:00.000Z</time>
      </trkpt>
      <trkpt lat="47.22748" lon="-1.55267">
        <ele>58</ele>
        <time>2021-03-20T11:55:02.000Z</time>
      </trkpt>
      <trkpt lat="47.22756" lon="-1.55256">
        <ele>58</ele>
        <time>2021-03-20T11:55:04.000Z</time>
      </trkpt>
      <trkpt lat="47.22764" lon="-1.55245">
        <ele>58</ele>
        <time>2021-03-20T11:55:06.000Z</time>
      </trkpt>
      <trkpt lat="47.22773" lon="-1.55233">
        <ele>58</ele>
        <time>2021-03-20T11:55:09.000Z</time>
      </trkpt>
      <trkpt lat="47.2278" lon="-1.55225">
        <ele>58</ele>
        <time>2021-03-20T11:55:12.000Z</time>
      </trkpt>
      <trkpt lat="47.22787" lon="-1.55215">
        <ele>59</ele>
        <time>2021-03-20T11:55:15.000Z</time>
      </trkpt>
      <trkpt lat="47.22799" lon="-1.55217">
        <ele>59</ele>
        <time>2021-03-20T11:55:18.000Z</time>
      </trkpt>
      <trkpt lat="47.22806" lon="-1.5523">
        <ele>60</ele>
        <time>2021-03-20T11:55:20.000Z</time>
      </trkpt>
      <trkpt lat="47.22814" lon="-1.55242">
        <ele>61</ele>
        <time>2021-03-20T11:55:22.000Z</time>
      </trkpt>
      <trkpt lat="47.22822" lon="-1.55254">
        <ele>61</ele>
        <time>2021-03-20T11:55:24.000Z</time>
      </trkpt>
      <trkpt lat="47.2283" lon="-1.55266">
        <ele>62</ele>
        <time>2021-03-20T11:55:26.000Z</time>
      </trkpt>
      <trkpt lat="47.22838" lon="-1.55279">
        <ele>61</ele>
        <time>2021-03-20T11:55:28.000Z</time>
      </trkpt>
      <trkpt lat="47.22846" lon="-1.55292">
        <ele>61</ele>
        <time>2021-03-20T11:55:30.000Z</time>
      </trkpt>
      <trkpt lat="47.22853" lon="-1.55304">
        <ele>60</ele>
        <time>2021-03-20T11:55:32.000Z</time>
      </trkpt>
      <trkpt lat="47.22862" lon="-1.55307">
        <ele>59</ele>
        <time>2021-03-20T11:55:36.000Z</time>
      </trkpt>
      <trkpt lat="47.22871" lon="-1.55296">
        <ele>59</ele>
        <time>2021-03-20T11:55:38.000Z</time>
      </trkpt>
      <trkpt lat="47.22882" lon="-1.55283">
        <ele>59</ele>
        <time>2021-03-20T11:55:40.000Z</time>
      </trkpt>
      <trkpt lat="47.22893" lon="-1.55269">
        <ele>58</ele>
        <time>2021-03-20T11:55:42.000Z</time>
      </trkpt>
      <trkpt lat="47.22903" lon="-1.55257">
        <ele>57</ele>
        <time>2021-03-20T11:55:44.000Z</time>
      </trkpt>
      <trkpt lat="47.22914" lon="-1.55244">
        <ele>57</ele>
        <time>2021-03-20T11:55:46.000Z</time>
      </trkpt>
      <trkpt lat="47.22925" lon="-1.55231">
        <ele>56</ele>
        <time>2021-03-20T11:55:48.000Z</time>
      </trkpt>
      <trkpt lat="47.22935" lon="-1.55217">
        <ele>55</ele>
        <time>2021-03-20T11:55:50.000Z</time>
      </trkpt>
      <trkpt lat="47.22946" lon="-1.55205">
        <ele>55</ele>
        <time>2021-03-20T11:55:52.000Z</time>
      </trkpt>
      <trkpt lat="47.22956" lon="-1.55192">
        <ele>54</ele>
        <time>2021-03-20T11:55:54.000Z</time>
      </trkpt>
      <trkpt lat="47.22967" lon="-1.55179">
        <ele>53</ele>
        <time>2021-03-20T11:55:56.000Z</time>
      </trkpt>
      <trkpt lat="47.22977" lon="-1.55165">
        <ele>53</ele>
        <time>2021-03-20T11:55:58.000Z</time>
      </trkpt>
      <trkpt lat="47.22988" lon="-1.55152">
        <ele>53</ele>
        <time>2021-03-20T11:56:00.000Z</time>
      </trkpt>
      <trkpt lat="47.22998" lon="-1.55139">
        <ele>53</ele>
        <time>2021-03-20T11:56:02.000Z</time>
      </trkpt>
      <trkpt lat="47.23008" lon="-1.55127">
        <ele>53</ele>
        <time>2021-03-20T11:56:04.000Z</time>
      </trkpt>
      <trkpt lat="47.23018" lon="-1.55113">
        <ele>53</ele>
        <time>2021-03-20T11:56:06.000Z</time>
      </trkpt>
      <trkpt lat="47.23028" lon="-1.551">
        <ele>53</ele>
        <time>2021-03-20T11:56:08.000Z</time>
      </trkpt>
      <trkpt lat="47.23038" lon="-1.55087">
        <ele>53</ele>
        <time>2021-03-20T11:56:10.000Z</time>
      </trkpt>
      <trkpt lat="47.23048" lon="-1.55074">
        <ele>52</ele>
        <time>2021-03-20T11:56:12.000Z</time>
      </trkpt>
      <trkpt lat="47.23058" lon="-1.55062">
        <ele>52</ele>
        <time>2021-03-20T11:56:14.000Z</time>
      </trkpt>
      <trkpt lat="47.23069" lon="-1.55049">
        <ele>53</ele>
        <time>2021-03-20T11:56:16.000Z</time>
      </trkpt>
      <trkpt lat="47.2308" lon="-1.55039">
        <ele>52</ele>
        <time>2021-03-20T11:56:18.000Z</time>
      </trkpt>
      <trkpt lat="47.2309" lon="-1.55027">
        <ele>52</ele>
        <time>2021-03-20T11:56:20.000Z</time>
      </trkpt>
      <trkpt lat="47.23101" lon="-1.55015">
        <ele>52</ele>
        <time>2021-03-20T11:56:22.000Z</time>
      </trkpt>
      <trkpt lat="47.23113" lon="-1.55002">
        <ele>52</ele>
        <time>2021-03-20T11:56:24.000Z</time>
      </trkpt>
      <trkpt lat="47.23124" lon="-1.5499">
        <ele>52</ele>
        <time>2021-03-20T11:56:26.000Z</time>
      </trkpt>
      <trkpt lat="47.23134" lon="-1.54979">
        <ele>52</ele>
        <time>2021-03-20T11:56:28.000Z</time>
      </trkpt>
      <trkpt lat="47.23145" lon="-1.54968">
        <ele>52</ele>
        <time>2021-03-20T11:56:30.000Z</time>
      </trkpt>
      <trkpt lat="47.23156" lon="-1.54957">
        <ele>53</ele>
        <time>2021-03-20T11:56:32.000Z</time>
      </trkpt>
      <trkpt lat="47.23167" lon="-1.54946">
        <ele>52</ele>
        <time>2021-03-20T11:56:34.000Z</time>
      </trkpt>
      <trkpt lat="47.23178" lon="-1.54935">
        <ele>52</ele>
        <time>2021-03-20T11:56:36.000Z</time>
      </trkpt>
      <trkpt lat="47.23189" lon="-1.54925">
        <ele>51</ele>
        <time>2021-03-20T11:56:38.000Z</time>
      </trkpt>
      <trkpt lat="47.23201" lon="-1.54916">
        <ele>51</ele>
        <time>2021-03-20T11:56:40.000Z</time>
      </trkpt>
      <trkpt lat="47.23213" lon="-1.54909">
        <ele>51</ele>
        <time>2021-03-20T11:56:42.000Z</time>
      </trkpt>
      <trkpt lat="47.23225" lon="-1.54901">
        <ele>51</ele>
        <time>2021-03-20T11:56:44.000Z</time>
      </trkpt>
      <trkpt lat="47.23236" lon="-1.54894">
        <ele>51</ele>
        <time>2021-03-20T11:56:46.000Z</time>
      </trkpt>
      <trkpt lat="47.23246" lon="-1.54887">
        <ele>51</ele>
        <time>2021-03-20T11:56:48.000Z</time>
      </trkpt>
      <trkpt lat="47.23258" lon="-1.54882">
        <ele>51</ele>
        <time>2021-03-20T11:56:50.000Z</time>
      </trkpt>
      <trkpt lat="47.23271" lon="-1.54879">
        <ele>51</ele>
        <time>2021-03-20T11:56:52.000Z</time>
      </trkpt>
      <trkpt lat="47.23284" lon="-1.54877">
        <ele>52</ele>
        <time>2021-03-20T11:56:54.000Z</time>
      </trkpt>
      <trkpt lat="47.23298" lon="-1.54876">
        <ele>52</ele>
        <time>2021-03-20T11:56:56.000Z</time>
      </trkpt>
      <trkpt lat="47.23311" lon="-1.54878">
        <ele>52</ele>
        <time>2021-03-20T11:56:58.000Z</time>
      </trkpt>
      <trkpt lat="47.23323" lon="-1.54879">
        <ele>52</ele>
        <time>2021-03-20T11:57:00.000Z</time>
      </trkpt>
      <trkpt lat="47.23336" lon="-1.54881">
        <ele>52</ele>
        <time>2021-03-20T11:57:02.000Z</time>
      </trkpt>
      <trkpt lat="47.23348" lon="-1.54882">
        <ele>51</ele>
        <time>2021-03-20T11:57:04.000Z</time>
      </trkpt>
      <trkpt lat="47.23359" lon="-1.54882">
        <ele>51</ele>
        <time>2021-03-20T11:57:06.000Z</time>
      </trkpt>
      <trkpt lat="47.23372" lon="-1.54881">
        <ele>52</ele>
        <time>2021-03-20T11:57:08.000Z</time>
      </trkpt>
      <trkpt lat="47.23386" lon="-1.54882">
        <ele>52</ele>
        <time>2021-03-20T11:57:10.000Z</time>
      </trkpt>
      <trkpt lat="47.23399" lon="-1.54884">
        <ele>51</ele>
        <time>2021-03-20T11:57:12.000Z</time>
      </trkpt>
      <trkpt lat="47.23412" lon="-1.54885">
        <ele>52</ele>
        <time>2021-03-20T11:57:14.000Z</time>
      </trkpt>
      <trkpt lat="47.23424" lon="-1.54886">
        <ele>52</ele>
        <time>2021-03-20T11:57:16.000Z</time>
      </trkpt>
      <trkpt lat="47.23436" lon="-1.54887">
        <ele>51</ele>
        <time>2021-03-20T11:57:18.000Z</time>
      </trkpt>
      <trkpt lat="47.23448" lon="-1.54889">
        <ele>51</ele>
        <time>2021-03-20T11:57:20.000Z</time>
      </trkpt>
      <trkpt lat="47.23461" lon="-1.54891">
        <ele>52</ele>
        <time>2021-03-20T11:57:22.000Z</time>
      </trkpt>
      <trkpt lat="47.23473" lon="-1.54893">
        <ele>52</ele>
        <time>2021-03-20T11:57:24.000Z</time>
      </trkpt>
      <trkpt lat="47.23486" lon="-1.54896">
        <ele>52</ele>
        <time>2021-03-20T11:57:26.000Z</time>
      </trkpt>
      <trkpt lat="47.23498" lon="-1.54901">
        <ele>52</ele>
        <time>2021-03-20T11:57:28.000Z</time>
      </trkpt>
      <trkpt lat="47.2351" lon="-1.54904">
        <ele>52</ele>
        <time>2021-03-20T11:57:30.000Z</time>
      </trkpt>
      <trkpt lat="47.23522" lon="-1.54907">
        <ele>52</ele>
        <time>2021-03-20T11:57:32.000Z</time>
      </trkpt>
      <trkpt lat="47.23532" lon="-1.54909">
        <ele>51</ele>
        <time>2021-03-20T11:57:34.000Z</time>
      </trkpt>
      <trkpt lat="47.23542" lon="-1.54911">
        <ele>52</ele>
        <time>2021-03-20T11:57:36.000Z</time>
      </trkpt>
      <trkpt lat="47.23549" lon="-1.54923">
        <ele>52</ele>
        <time>2021-03-20T11:57:38.000Z</time>
      </trkpt>
      <trkpt lat="47.23558" lon="-1.54935">
        <ele>52</ele>
        <time>2021-03-20T11:57:40.000Z</time>
      </trkpt>
      <trkpt lat="47.23567" lon="-1.54947">
        <ele>52</ele>
        <time>2021-03-20T11:57:42.000Z</time>
      </trkpt>
      <trkpt lat="47.23574" lon="-1.54961">
        <ele>52</ele>
        <time>2021-03-20T11:57:44.000Z</time>
      </trkpt>
      <trkpt lat="47.23581" lon="-1.54978">
        <ele>52</ele>
        <time>2021-03-20T11:57:46.000Z</time>
      </trkpt>
      <trkpt lat="47.23588" lon="-1.54993">
        <ele>51</ele>
        <time>2021-03-20T11:57:48.000Z</time>
      </trkpt>
      <trkpt lat="47.23597" lon="-1.55008">
        <ele>51</ele>
        <time>2021-03-20T11:57:50.000Z</time>
      </trkpt>
      <trkpt lat="47.23605" lon="-1.55021">
        <ele>51</ele>
        <time>2021-03-20T11:57:52.000Z</time>
      </trkpt>
      <trkpt lat="47.23617" lon="-1.55034">
        <ele>52</ele>
        <time>2021-03-20T11:57:54.000Z</time>
      </trkpt>
      <trkpt lat="47.23628" lon="-1.5504">
        <ele>52</ele>
        <time>2021-03-20T11:57:56.000Z</time>
      </trkpt>
      <trkpt lat="47.2364" lon="-1.55042">
        <ele>52</ele>
        <time>2021-03-20T11:57:58.000Z</time>
      </trkpt>
      <trkpt lat="47.23652" lon="-1.55045">
        <ele>52</ele>
        <time>2021-03-20T11:58:00.000Z</time>
      </trkpt>
      <trkpt lat="47.23663" lon="-1.55052">
        <ele>52</ele>
        <time>2021-03-20T11:58:02.000Z</time>
      </trkpt>
      <trkpt lat="47.23674" lon="-1.55061">
        <ele>52</ele>
        <time>2021-03-20T11:58:04.000Z</time>
      </trkpt>
      <trkpt lat="47.23687" lon="-1.55068">
        <ele>52</ele>
        <time>2021-03-20T11:58:06.000Z</time>
      </trkpt>
      <trkpt lat="47.23699" lon="-1.55073">
        <ele>53</ele>
        <time>2021-03-20T11:58:08.000Z</time>
      </trkpt>
      <trkpt lat="47.23709" lon="-1.5508">
        <ele>54</ele>
        <time>2021-03-20T11:58:10.000Z</time>
      </trkpt>
      <trkpt lat="47.23716" lon="-1.55097">
        <ele>54</ele>
        <time>2021-03-20T11:58:12.000Z</time>
      </trkpt>
      <trkpt lat="47.23721" lon="-1.55118">
        <ele>53</ele>
        <time>2021-03-20T11:58:14.000Z</time>
      </trkpt>
      <trkpt lat="47.23725" lon="-1.55136">
        <ele>53</ele>
        <time>2021-03-20T11:58:16.000Z</time>
      </trkpt>
      <trkpt lat="47.23728" lon="-1.55152">
        <ele>54</ele>
        <time>2021-03-20T11:58:18.000Z</time>
      </trkpt>
      <trkpt lat="47.23737" lon="-1.55157">
        <ele>55</ele>
        <time>2021-03-20T11:58:20.000Z</time>
      </trkpt>
      <trkpt lat="47.23749" lon="-1.55158">
        <ele>55</ele>
        <time>2021-03-20T11:58:22.000Z</time>
      </trkpt>
      <trkpt lat="47.2376" lon="-1.5516">
        <ele>55</ele>
        <time>2021-03-20T11:58:24.000Z</time>
      </trkpt>
      <trkpt lat="47.23771" lon="-1.55163">
        <ele>55</ele>
        <time>2021-03-20T11:58:26.000Z</time>
      </trkpt>
      <trkpt lat="47.23782" lon="-1.55167">
        <ele>55</ele>
        <time>2021-03-20T11:58:28.000Z</time>
      </trkpt>
      <trkpt lat="47.23793" lon="-1.55172">
        <ele>56</ele>
        <time>2021-03-20T11:58:30.000Z</time>
      </trkpt>
      <trkpt lat="47.23804" lon="-1.55179">
        <ele>55</ele>
        <time>2021-03-20T11:58:32.000Z</time>
      </trkpt>
      <trkpt lat="47.23814" lon="-1.55192">
        <ele>54</ele>
        <time>2021-03-20T11:58:34.000Z</time>
      </trkpt>
      <trkpt lat="47.23824" lon="-1.55204">
        <ele>55</ele>
        <time>2021-03-20T11:58:36.000Z</time>
      </trkpt>
      <trkpt lat="47.23832" lon="-1.55218">
        <ele>55</ele>
        <time>2021-03-20T11:58:38.000Z</time>
      </trkpt>
      <trkpt lat="47.23839" lon="-1.55234">
        <ele>54</ele>
        <time>2021-03-20T11:58:40.000Z</time>
      </trkpt>
      <trkpt lat="47.23846" lon="-1.55249">
        <ele>54</ele>
        <time>2021-03-20T11:58:42.000Z</time>
      </trkpt>
      <trkpt lat="47.23853" lon="-1.55264">
        <ele>54</ele>
        <time>2021-03-20T11:58:44.000Z</time>
      </trkpt>
      <trkpt lat="47.23859" lon="-1.55279">
        <ele>54</ele>
        <time>2021-03-20T11:58:46.000Z</time>
      </trkpt>
      <trkpt lat="47.23867" lon="-1.55294">
        <ele>54</ele>
        <time>2021-03-20T11:58:48.000Z</time>
      </trkpt>
      <trkpt lat="47.23874" lon="-1.55308">
        <ele>54</ele>
        <time>2021-03-20T11:58:50.000Z</time>
      </trkpt>
      <trkpt lat="47.23883" lon="-1.55319">
        <ele>54</ele>
        <time>2021-03-20T11:58:52.000Z</time>
      </trkpt>
      <trkpt lat="47.23891" lon="-1.5533">
        <ele>54</ele>
        <time>2021-03-20T11:58:54.000Z</time>
      </trkpt>
      <trkpt lat="47.23899" lon="-1.55341">
        <ele>55</ele>
        <time>2021-03-20T11:58:56.000Z</time>
      </trkpt>
      <trkpt lat="47.23908" lon="-1.55351">
        <ele>55</ele>
        <time>2021-03-20T11:58:58.000Z</time>
      </trkpt>
      <trkpt lat="47.23915" lon="-1.55361">
        <ele>56</ele>
        <time>2021-03-20T11:59:00.000Z</time>
      </trkpt>
      <trkpt lat="47.23923" lon="-1.55372">
        <ele>56</ele>
        <time>2021-03-20T11:59:02.000Z</time>
      </trkpt>
      <trkpt lat="47.23931" lon="-1.55382">
        <ele>56</ele>
        <time>2021-03-20T11:59:04.000Z</time>
      </trkpt>
      <trkpt lat="47.23937" lon="-1.55393">
        <ele>57</ele>
        <time>2021-03-20T11:59:06.000Z</time>
      </trkpt>
      <trkpt lat="47.23942" lon="-1.55406">
        <ele>57</ele>
        <time>2021-03-20T11:59:08.000Z</time>
      </trkpt>
      <trkpt lat="47.23948" lon="-1.5542">
        <ele>58</ele>
        <time>2021-03-20T11:59:10.000Z</time>
      </trkpt>
      <trkpt lat="47.23953" lon="-1.55433">
        <ele>59</ele>
        <time>2021-03-20T11:59:12.000Z</time>
      </trkpt>
      <trkpt lat="47.23953" lon="-1.55447">
        <ele>60</ele>
        <time>2021-03-20T11:59:14.000Z</time>
      </trkpt>
      <trkpt lat="47.23951" lon="-1.55462">
        <ele>61</ele>
        <time>2021-03-20T11:59:16.000Z</time>
      </trkpt>
      <trkpt lat="47.2395" lon="-1.55477">
        <ele>61</ele>
        <time>2021-03-20T11:59:18.000Z</time>
      </trkpt>
      <trkpt lat="47.23954" lon="-1.55489">
        <ele>62</ele>
        <time>2021-03-20T11:59:20.000Z</time>
      </trkpt>
      <trkpt lat="47.23959" lon="-1.55501">
        <ele>62</ele>
        <time>2021-03-20T11:59:22.000Z</time>
      </trkpt>
      <trkpt lat="47.23966" lon="-1.55514">
        <ele>63</ele>
        <time>2021-03-20T11:59:24.000Z</time>
      </trkpt>
      <trkpt lat="47.23975" lon="-1.55524">
        <ele>62</ele>
        <time>2021-03-20T11:59:26.000Z</time>
      </trkpt>
      <trkpt lat="47.23984" lon="-1.55533">
        <ele>63</ele>
        <time>2021-03-20T11:59:28.000Z</time>
      </trkpt>
      <trkpt lat="47.23995" lon="-1.55543">
        <ele>64</ele>
        <time>2021-03-20T11:59:30.000Z</time>
      </trkpt>
      <trkpt lat="47.24005" lon="-1.55552">
        <ele>65</ele>
        <time>2021-03-20T11:59:32.000Z</time>
      </trkpt>
      <trkpt lat="47.24015" lon="-1.55562">
        <ele>65</ele>
        <time>2021-03-20T11:59:34.000Z</time>
      </trkpt>
      <trkpt lat="47.24024" lon="-1.55573">
        <ele>64</ele>
        <time>2021-03-20T11:59:36.000Z</time>
      </trkpt>
      <trkpt lat="47.24034" lon="-1.55584">
        <ele>64</ele>
        <time>2021-03-20T11:59:38.000Z</time>
      </trkpt>
      <trkpt lat="47.24043" lon="-1.55595">
        <ele>65</ele>
        <time>2021-03-20T11:59:40.000Z</time>
      </trkpt>
      <trkpt lat="47.24052" lon="-1.55604">
        <ele>65</ele>
        <time>2021-03-20T11:59:42.000Z</time>
      </trkpt>
      <trkpt lat="47.24062" lon="-1.55615">
        <ele>65</ele>
        <time>2021-03-20T11:59:44.000Z</time>
      </trkpt>
      <trkpt lat="47.24071" lon="-1.55625">
        <ele>65</ele>
        <time>2021-03-20T11:59:46.000Z</time>
      </trkpt>
      <trkpt lat="47.24079" lon="-1.55635">
        <ele>65</ele>
        <time>2021-03-20T11:59:48.000Z</time>
      </trkpt>
      <trkpt lat="47.2409" lon="-1.55642">
        <ele>64</ele>
        <time>2021-03-20T11:59:50.000Z</time>
      </trkpt>
      <trkpt lat="47.241" lon="-1.55639">
        <ele>63</ele>
        <time>2021-03-20T11:59:52.000Z</time>
      </trkpt>
      <trkpt lat="47.24111" lon="-1.55635">
        <ele>62</ele>
        <time>2021-03-20T11:59:55.000Z</time>
      </trkpt>
      <trkpt lat="47.24121" lon="-1.55641">
        <ele>62</ele>
        <time>2021-03-20T12:00:00.000Z</time>
      </trkpt>
      <trkpt lat="47.24126" lon="-1.55652">
        <ele>63</ele>
        <time>2021-03-20T12:00:04.000Z</time>
      </trkpt>
      <trkpt lat="47.2414" lon="-1.55653">
        <ele>61</ele>
        <time>2021-03-20T12:00:11.000Z</time>
      </trkpt>
      <trkpt lat="47.24151" lon="-1.55651">
        <ele>61</ele>
        <time>2021-03-20T12:00:13.000Z</time>
      </trkpt>
      <trkpt lat="47.24163" lon="-1.55648">
        <ele>61</ele>
        <time>2021-03-20T12:00:15.000Z</time>
      </trkpt>
      <trkpt lat="47.24174" lon="-1.55647">
        <ele>61</ele>
        <time>2021-03-20T12:00:17.000Z</time>
      </trkpt>
      <trkpt lat="47.24187" lon="-1.55646">
        <ele>60</ele>
        <time>2021-03-20T12:00:19.000Z</time>
      </trkpt>
      <trkpt lat="47.24202" lon="-1.55646">
        <ele>59</ele>
        <time>2021-03-20T12:00:21.000Z</time>
      </trkpt>
      <trkpt lat="47.24217" lon="-1.55645">
        <ele>58</ele>
        <time>2021-03-20T12:00:23.000Z</time>
      </trkpt>
      <trkpt lat="47.24232" lon="-1.55645">
        <ele>58</ele>
        <time>2021-03-20T12:00:25.000Z</time>
      </trkpt>
      <trkpt lat="47.2425" lon="-1.55643">
        <ele>57</ele>
        <time>2021-03-20T12:00:27.000Z</time>
      </trkpt>
      <trkpt lat="47.24268" lon="-1.55641">
        <ele>56</ele>
        <time>2021-03-20T12:00:29.000Z</time>
      </trkpt>
      <trkpt lat="47.24285" lon="-1.55639">
        <ele>56</ele>
        <time>2021-03-20T12:00:31.000Z</time>
      </trkpt>
      <trkpt lat="47.24302" lon="-1.55637">
        <ele>56</ele>
        <time>2021-03-20T12:00:33.000Z</time>
      </trkpt>
      <trkpt lat="47.24317" lon="-1.55635">
        <ele>57</ele>
        <time>2021-03-20T12:00:35.000Z</time>
      </trkpt>
      <trkpt lat="47.24331" lon="-1.55634">
        <ele>58</ele>
        <time>2021-03-20T12:00:37.000Z</time>
      </trkpt>
      <trkpt lat="47.24345" lon="-1.55632">
        <ele>58</ele>
        <time>2021-03-20T12:00:39.000Z</time>
      </trkpt>
      <trkpt lat="47.24359" lon="-1.55632">
        <ele>58</ele>
        <time>2021-03-20T12:00:41.000Z</time>
      </trkpt>
      <trkpt lat="47.24372" lon="-1.55626">
        <ele>58</ele>
        <time>2021-03-20T12:00:43.000Z</time>
      </trkpt>
      <trkpt lat="47.24387" lon="-1.55621">
        <ele>59</ele>
        <time>2021-03-20T12:00:45.000Z</time>
      </trkpt>
      <trkpt lat="47.24401" lon="-1.55619">
        <ele>59</ele>
        <time>2021-03-20T12:00:47.000Z</time>
      </trkpt>
      <trkpt lat="47.24415" lon="-1.55619">
        <ele>60</ele>
        <time>2021-03-20T12:00:49.000Z</time>
      </trkpt>
      <trkpt lat="47.24428" lon="-1.55617">
        <ele>60</ele>
        <time>2021-03-20T12:00:51.000Z</time>
      </trkpt>
      <trkpt lat="47.24441" lon="-1.55616">
        <ele>60</ele>
        <time>2021-03-20T12:00:53.000Z</time>
      </trkpt>
      <trkpt lat="47.24455" lon="-1.55614">
        <ele>60</ele>
        <time>2021-03-20T12:00:55.000Z</time>
      </trkpt>
      <trkpt lat="47.24468" lon="-1.55611">
        <ele>61</ele>
        <time>2021-03-20T12:00:57.000Z</time>
      </trkpt>
      <trkpt lat="47.2448" lon="-1.55607">
        <ele>62</ele>
        <time>2021-03-20T12:00:59.000Z</time>
      </trkpt>
      <trkpt lat="47.24493" lon="-1.55603">
        <ele>62</ele>
        <time>2021-03-20T12:01:01.000Z</time>
      </trkpt>
      <trkpt lat="47.24506" lon="-1.55598">
        <ele>62</ele>
        <time>2021-03-20T12:01:03.000Z</time>
      </trkpt>
      <trkpt lat="47.24518" lon="-1.55593">
        <ele>63</ele>
        <time>2021-03-20T12:01:05.000Z</time>
      </trkpt>
      <trkpt lat="47.24529" lon="-1.55589">
        <ele>63</ele>
        <time>2021-03-20T12:01:07.000Z</time>
      </trkpt>
      <trkpt lat="47.24541" lon="-1.55581">
        <ele>63</ele>
        <time>2021-03-20T12:01:09.000Z</time>
      </trkpt>
      <trkpt lat="47.24551" lon="-1.55572">
        <ele>63</ele>
        <time>2021-03-20T12:01:11.000Z</time>
      </trkpt>
      <trkpt lat="47.24562" lon="-1.55563">
        <ele>63</ele>
        <time>2021-03-20T12:01:13.000Z</time>
      </trkpt>
      <trkpt lat="47.24574" lon="-1.55556">
        <ele>63</ele>
        <time>2021-03-20T12:01:15.000Z</time>
      </trkpt>
      <trkpt lat="47.24586" lon="-1.55551">
        <ele>62</ele>
        <time>2021-03-20T12:01:17.000Z</time>
      </trkpt>
      <trkpt lat="47.24597" lon="-1.55546">
        <ele>61</ele>
        <time>2021-03-20T12:01:19.000Z</time>
      </trkpt>
      <trkpt lat="47.24609" lon="-1.55541">
        <ele>61</ele>
        <time>2021-03-20T12:01:21.000Z</time>
      </trkpt>
      <trkpt lat="47.2462" lon="-1.55538">
        <ele>61</ele>
        <time>2021-03-20T12:01:23.000Z</time>
      </trkpt>
      <trkpt lat="47.24633" lon="-1.55537">
        <ele>60</ele>
        <time>2021-03-20T12:01:25.000Z</time>
      </trkpt>
      <trkpt lat="47.24645" lon="-1.55532">
        <ele>60</ele>
        <time>2021-03-20T12:01:27.000Z</time>
      </trkpt>
      <trkpt lat="47.24657" lon="-1.55528">
        <ele>60</ele>
        <time>2021-03-20T12:01:29.000Z</time>
      </trkpt>
      <trkpt lat="47.2467" lon="-1.55529">
        <ele>60</ele>
        <time>2021-03-20T12:01:31.000Z</time>
      </trkpt>
      <trkpt lat="47.24682" lon="-1.55528">
        <ele>60</ele>
        <time>2021-03-20T12:01:33.000Z</time>
      </trkpt>
      <trkpt lat="47.24694" lon="-1.55527">
        <ele>60</ele>
        <time>2021-03-20T12:01:35.000Z</time>
      </trkpt>
      <trkpt lat="47.24704" lon="-1.55524">
        <ele>60</ele>
        <time>2021-03-20T12:01:37.000Z</time>
      </trkpt>
      <trkpt lat="47.24714" lon="-1.55521">
        <ele>61</ele>
        <time>2021-03-20T12:01:39.000Z</time>
      </trkpt>
      <trkpt lat="47.24724" lon="-1.55518">
        <ele>62</ele>
        <time>2021-03-20T12:01:41.000Z</time>
      </trkpt>
      <trkpt lat="47.24735" lon="-1.55514">
        <ele>62</ele>
        <time>2021-03-20T12:01:43.000Z</time>
      </trkpt>
      <trkpt lat="47.24745" lon="-1.5551">
        <ele>63</ele>
        <time>2021-03-20T12:01:45.000Z</time>
      </trkpt>
      <trkpt lat="47.24754" lon="-1.55507">
        <ele>64</ele>
        <time>2021-03-20T12:01:47.000Z</time>
      </trkpt>
      <trkpt lat="47.24763" lon="-1.55503">
        <ele>64</ele>
        <time>2021-03-20T12:01:49.000Z</time>
      </trkpt>
      <trkpt lat="47.24773" lon="-1.555">
        <ele>65</ele>
        <time>2021-03-20T12:01:51.000Z</time>
      </trkpt>
      <trkpt lat="47.24782" lon="-1.55496">
        <ele>65</ele>
        <time>2021-03-20T12:01:53.000Z</time>
      </trkpt>
      <trkpt lat="47.2479" lon="-1.55492">
        <ele>66</ele>
        <time>2021-03-20T12:01:55.000Z</time>
      </trkpt>
      <trkpt lat="47.24799" lon="-1.55488">
        <ele>67</ele>
        <time>2021-03-20T12:01:57.000Z</time>
      </trkpt>
      <trkpt lat="47.24808" lon="-1.55485">
        <ele>68</ele>
        <time>2021-03-20T12:01:59.000Z</time>
      </trkpt>
      <trkpt lat="47.24818" lon="-1.55481">
        <ele>68</ele>
        <time>2021-03-20T12:02:01.000Z</time>
      </trkpt>
      <trkpt lat="47.24827" lon="-1.55477">
        <ele>69</ele>
        <time>2021-03-20T12:02:03.000Z</time>
      </trkpt>
      <trkpt lat="47.24836" lon="-1.55473">
        <ele>69</ele>
        <time>2021-03-20T12:02:05.000Z</time>
      </trkpt>
      <trkpt lat="47.24845" lon="-1.55469">
        <ele>70</ele>
        <time>2021-03-20T12:02:07.000Z</time>
      </trkpt>
      <trkpt lat="47.24854" lon="-1.55465">
        <ele>71</ele>
        <time>2021-03-20T12:02:09.000Z</time>
      </trkpt>
      <trkpt lat="47.24863" lon="-1.55462">
        <ele>71</ele>
        <time>2021-03-20T12:02:11.000Z</time>
      </trkpt>
      <trkpt lat="47.24872" lon="-1.55458">
        <ele>72</ele>
        <time>2021-03-20T12:02:13.000Z</time>
      </trkpt>
      <trkpt lat="47.24881" lon="-1.55455">
        <ele>72</ele>
        <time>2021-03-20T12:02:15.000Z</time>
      </trkpt>
      <trkpt lat="47.24892" lon="-1.5545">
        <ele>74</ele>
        <time>2021-03-20T12:02:18.000Z</time>
      </trkpt>
      <trkpt lat="47.24905" lon="-1.55444">
        <ele>75</ele>
        <time>2021-03-20T12:02:21.000Z</time>
      </trkpt>
      <trkpt lat="47.24918" lon="-1.55437">
        <ele>77</ele>
        <time>2021-03-20T12:02:24.000Z</time>
      </trkpt>
      <trkpt lat="47.24926" lon="-1.55431">
        <ele>77</ele>
        <time>2021-03-20T12:02:26.000Z</time>
      </trkpt>
      <trkpt lat="47.24938" lon="-1.55429">
        <ele>78</ele>
        <time>2021-03-20T12:02:29.000Z</time>
      </trkpt>
      <trkpt lat="47.24952" lon="-1.55427">
        <ele>79</ele>
        <time>2021-03-20T12:02:32.000Z</time>
      </trkpt>
      <trkpt lat="47.24961" lon="-1.55424">
        <ele>79</ele>
        <time>2021-03-20T12:02:34.000Z</time>
      </trkpt>
      <trkpt lat="47.24971" lon="-1.55421">
        <ele>78</ele>
        <time>2021-03-20T12:02:36.000Z</time>
      </trkpt>
      <trkpt lat="47.24983" lon="-1.55415">
        <ele>79</ele>
        <time>2021-03-20T12:02:39.000Z</time>
      </trkpt>
      <trkpt lat="47.24992" lon="-1.55411">
        <ele>79</ele>
        <time>2021-03-20T12:02:41.000Z</time>
      </trkpt>
      <trkpt lat="47.25002" lon="-1.55407">
        <ele>79</ele>
        <time>2021-03-20T12:02:43.000Z</time>
      </trkpt>
      <trkpt lat="47.25013" lon="-1.55403">
        <ele>79</ele>
        <time>2021-03-20T12:02:45.000Z</time>
      </trkpt>
      <trkpt lat="47.25025" lon="-1.55398">
        <ele>78</ele>
        <time>2021-03-20T12:02:47.000Z</time>
      </trkpt>
      <trkpt lat="47.25037" lon="-1.55393">
        <ele>77</ele>
        <time>2021-03-20T12:02:49.000Z</time>
      </trkpt>
      <trkpt lat="47.25051" lon="-1.55388">
        <ele>77</ele>
        <time>2021-03-20T12:02:51.000Z</time>
      </trkpt>
      <trkpt lat="47.25066" lon="-1.55383">
        <ele>76</ele>
        <time>2021-03-20T12:02:53.000Z</time>
      </trkpt>
      <trkpt lat="47.25081" lon="-1.55377">
        <ele>74</ele>
        <time>2021-03-20T12:02:55.000Z</time>
      </trkpt>
      <trkpt lat="47.25096" lon="-1.55371">
        <ele>73</ele>
        <time>2021-03-20T12:02:57.000Z</time>
      </trkpt>
      <trkpt lat="47.25112" lon="-1.55366">
        <ele>72</ele>
        <time>2021-03-20T12:02:59.000Z</time>
      </trkpt>
      <trkpt lat="47.25128" lon="-1.5536">
        <ele>71</ele>
        <time>2021-03-20T12:03:01.000Z</time>
      </trkpt>
      <trkpt lat="47.25144" lon="-1.55353">
        <ele>70</ele>
        <time>2021-03-20T12:03:03.000Z</time>
      </trkpt>
      <trkpt lat="47.25161" lon="-1.55347">
        <ele>69</ele>
        <time>2021-03-20T12:03:05.000Z</time>
      </trkpt>
      <trkpt lat="47.25177" lon="-1.55341">
        <ele>68</ele>
        <time>2021-03-20T12:03:07.000Z</time>
      </trkpt>
      <trkpt lat="47.25192" lon="-1.55335">
        <ele>67</ele>
        <time>2021-03-20T12:03:09.000Z</time>
      </trkpt>
      <trkpt lat="47.25206" lon="-1.5533">
        <ele>67</ele>
        <time>2021-03-20T12:03:11.000Z</time>
      </trkpt>
      <trkpt lat="47.25219" lon="-1.55326">
        <ele>66</ele>
        <time>2021-03-20T12:03:13.000Z</time>
      </trkpt>
      <trkpt lat="47.25226" lon="-1.5532">
        <ele>66</ele>
        <time>2021-03-20T12:03:18.000Z</time>
      </trkpt>
      <trkpt lat="47.25237" lon="-1.55312">
        <ele>66</ele>
        <time>2021-03-20T12:03:21.000Z</time>
      </trkpt>
      <trkpt lat="47.25248" lon="-1.55311">
        <ele>66</ele>
        <time>2021-03-20T12:03:23.000Z</time>
      </trkpt>
      <trkpt lat="47.2526" lon="-1.55309">
        <ele>67</ele>
        <time>2021-03-20T12:03:25.000Z</time>
      </trkpt>
      <trkpt lat="47.25271" lon="-1.55303">
        <ele>68</ele>
        <time>2021-03-20T12:03:27.000Z</time>
      </trkpt>
      <trkpt lat="47.25284" lon="-1.55298">
        <ele>69</ele>
        <time>2021-03-20T12:03:29.000Z</time>
      </trkpt>
      <trkpt lat="47.25296" lon="-1.55292">
        <ele>70</ele>
        <time>2021-03-20T12:03:31.000Z</time>
      </trkpt>
      <trkpt lat="47.25309" lon="-1.55287">
        <ele>71</ele>
        <time>2021-03-20T12:03:33.000Z</time>
      </trkpt>
      <trkpt lat="47.25321" lon="-1.55283">
        <ele>71</ele>
        <time>2021-03-20T12:03:35.000Z</time>
      </trkpt>
      <trkpt lat="47.25334" lon="-1.55278">
        <ele>70</ele>
        <time>2021-03-20T12:03:37.000Z</time>
      </trkpt>
      <trkpt lat="47.25346" lon="-1.55275">
        <ele>70</ele>
        <time>2021-03-20T12:03:39.000Z</time>
      </trkpt>
      <trkpt lat="47.25359" lon="-1.5527">
        <ele>70</ele>
        <time>2021-03-20T12:03:41.000Z</time>
      </trkpt>
      <trkpt lat="47.25371" lon="-1.55267">
        <ele>70</ele>
        <time>2021-03-20T12:03:43.000Z</time>
      </trkpt>
      <trkpt lat="47.25382" lon="-1.55262">
        <ele>69</ele>
        <time>2021-03-20T12:03:45.000Z</time>
      </trkpt>
      <trkpt lat="47.25393" lon="-1.55258">
        <ele>69</ele>
        <time>2021-03-20T12:03:47.000Z</time>
      </trkpt>
      <trkpt lat="47.25405" lon="-1.55254">
        <ele>69</ele>
        <time>2021-03-20T12:03:49.000Z</time>
      </trkpt>
      <trkpt lat="47.25417" lon="-1.5525">
        <ele>69</ele>
        <time>2021-03-20T12:03:51.000Z</time>
      </trkpt>
      <trkpt lat="47.25429" lon="-1.55249">
        <ele>69</ele>
        <time>2021-03-20T12:03:53.000Z</time>
      </trkpt>
      <trkpt lat="47.25441" lon="-1.55248">
        <ele>69</ele>
        <time>2021-03-20T12:03:55.000Z</time>
      </trkpt>
      <trkpt lat="47.25453" lon="-1.55247">
        <ele>70</ele>
        <time>2021-03-20T12:03:57.000Z</time>
      </trkpt>
      <trkpt lat="47.25465" lon="-1.55248">
        <ele>70</ele>
        <time>2021-03-20T12:03:59.000Z</time>
      </trkpt>
      <trkpt lat="47.25477" lon="-1.55251">
        <ele>69</ele>
        <time>2021-03-20T12:04:01.000Z</time>
      </trkpt>
      <trkpt lat="47.2549" lon="-1.55254">
        <ele>69</ele>
        <time>2021-03-20T12:04:03.000Z</time>
      </trkpt>
      <trkpt lat="47.25502" lon="-1.55258">
        <ele>69</ele>
        <time>2021-03-20T12:04:05.000Z</time>
      </trkpt>
      <trkpt lat="47.25516" lon="-1.55265">
        <ele>69</ele>
        <time>2021-03-20T12:04:07.000Z</time>
      </trkpt>
      <trkpt lat="47.25529" lon="-1.55273">
        <ele>67</ele>
        <time>2021-03-20T12:04:09.000Z</time>
      </trkpt>
      <trkpt lat="47.25542" lon="-1.55281">
        <ele>67</ele>
        <time>2021-03-20T12:04:11.000Z</time>
      </trkpt>
      <trkpt lat="47.25554" lon="-1.55291">
        <ele>66</ele>
        <time>2021-03-20T12:04:13.000Z</time>
      </trkpt>
      <trkpt lat="47.25567" lon="-1.55301">
        <ele>65</ele>
        <time>2021-03-20T12:04:15.000Z</time>
      </trkpt>
      <trkpt lat="47.25579" lon="-1.55314">
        <ele>64</ele>
        <time>2021-03-20T12:04:17.000Z</time>
      </trkpt>
      <trkpt lat="47.25591" lon="-1.55328">
        <ele>63</ele>
        <time>2021-03-20T12:04:19.000Z</time>
      </trkpt>
      <trkpt lat="47.256" lon="-1.55342">
        <ele>63</ele>
        <time>2021-03-20T12:04:21.000Z</time>
      </trkpt>
      <trkpt lat="47.25611" lon="-1.55359">
        <ele>62</ele>
        <time>2021-03-20T12:04:23.000Z</time>
      </trkpt>
      <trkpt lat="47.25621" lon="-1.55379">
        <ele>61</ele>
        <time>2021-03-20T12:04:25.000Z</time>
      </trkpt>
      <trkpt lat="47.25631" lon="-1.55401">
        <ele>61</ele>
        <time>2021-03-20T12:04:27.000Z</time>
      </trkpt>
      <trkpt lat="47.25639" lon="-1.55422">
        <ele>62</ele>
        <time>2021-03-20T12:04:29.000Z</time>
      </trkpt>
      <trkpt lat="47.25647" lon="-1.55443">
        <ele>61</ele>
        <time>2021-03-20T12:04:31.000Z</time>
      </trkpt>
      <trkpt lat="47.25655" lon="-1.55463">
        <ele>61</ele>
        <time>2021-03-20T12:04:33.000Z</time>
      </trkpt>
      <trkpt lat="47.25662" lon="-1.55482">
        <ele>61</ele>
        <time>2021-03-20T12:04:35.000Z</time>
      </trkpt>
      <trkpt lat="47.25668" lon="-1.555">
        <ele>62</ele>
        <time>2021-03-20T12:04:37.000Z</time>
      </trkpt>
      <trkpt lat="47.25675" lon="-1.55519">
        <ele>62</ele>
        <time>2021-03-20T12:04:39.000Z</time>
      </trkpt>
      <trkpt lat="47.25682" lon="-1.55538">
        <ele>61</ele>
        <time>2021-03-20T12:04:41.000Z</time>
      </trkpt>
      <trkpt lat="47.25689" lon="-1.55557">
        <ele>61</ele>
        <time>2021-03-20T12:04:43.000Z</time>
      </trkpt>
      <trkpt lat="47.25697" lon="-1.55575">
        <ele>60</ele>
        <time>2021-03-20T12:04:45.000Z</time>
      </trkpt>
      <trkpt lat="47.25705" lon="-1.55591">
        <ele>60</ele>
        <time>2021-03-20T12:04:47.000Z</time>
      </trkpt>
      <trkpt lat="47.25714" lon="-1.55607">
        <ele>60</ele>
        <time>2021-03-20T12:04:49.000Z</time>
      </trkpt>
      <trkpt lat="47.25723" lon="-1.55621">
        <ele>60</ele>
        <time>2021-03-20T12:04:51.000Z</time>
      </trkpt>
      <trkpt lat="47.25733" lon="-1.55634">
        <ele>60</ele>
        <time>2021-03-20T12:04:53.000Z</time>
      </trkpt>
      <trkpt lat="47.25744" lon="-1.55647">
        <ele>59</ele>
        <time>2021-03-20T12:04:55.000Z</time>
      </trkpt>
      <trkpt lat="47.25756" lon="-1.55659">
        <ele>59</ele>
        <time>2021-03-20T12:04:57.000Z</time>
      </trkpt>
      <trkpt lat="47.25768" lon="-1.55669">
        <ele>59</ele>
        <time>2021-03-20T12:04:59.000Z</time>
      </trkpt>
      <trkpt lat="47.2578" lon="-1.55679">
        <ele>59</ele>
        <time>2021-03-20T12:05:01.000Z</time>
      </trkpt>
      <trkpt lat="47.25793" lon="-1.55687">
        <ele>59</ele>
        <time>2021-03-20T12:05:03.000Z</time>
      </trkpt>
      <trkpt lat="47.25805" lon="-1.55693">
        <ele>59</ele>
        <time>2021-03-20T12:05:05.000Z</time>
      </trkpt>
      <trkpt lat="47.25818" lon="-1.55699">
        <ele>59</ele>
        <time>2021-03-20T12:05:07.000Z</time>
      </trkpt>
      <trkpt lat="47.25832" lon="-1.55704">
        <ele>60</ele>
        <time>2021-03-20T12:05:09.000Z</time>
      </trkpt>
      <trkpt lat="47.25846" lon="-1.55707">
        <ele>59</ele>
        <time>2021-03-20T12:05:11.000Z</time>
      </trkpt>
      <trkpt lat="47.25859" lon="-1.55709">
        <ele>58</ele>
        <time>2021-03-20T12:05:13.000Z</time>
      </trkpt>
      <trkpt lat="47.25874" lon="-1.55712">
        <ele>57</ele>
        <time>2021-03-20T12:05:15.000Z</time>
      </trkpt>
      <trkpt lat="47.25889" lon="-1.55713">
        <ele>56</ele>
        <time>2021-03-20T12:05:17.000Z</time>
      </trkpt>
      <trkpt lat="47.25905" lon="-1.55716">
        <ele>57</ele>
        <time>2021-03-20T12:05:19.000Z</time>
      </trkpt>
      <trkpt lat="47.25918" lon="-1.55718">
        <ele>57</ele>
        <time>2021-03-20T12:05:21.000Z</time>
      </trkpt>
      <trkpt lat="47.2593" lon="-1.55719">
        <ele>58</ele>
        <time>2021-03-20T12:05:23.000Z</time>
      </trkpt>
      <trkpt lat="47.2594" lon="-1.5572">
        <ele>58</ele>
        <time>2021-03-20T12:05:25.000Z</time>
      </trkpt>
      <trkpt lat="47.25946" lon="-1.55709">
        <ele>59</ele>
        <time>2021-03-20T12:05:28.000Z</time>
      </trkpt>
      <trkpt lat="47.25945" lon="-1.55692">
        <ele>60</ele>
        <time>2021-03-20T12:05:31.000Z</time>
      </trkpt>
      <trkpt lat="47.25949" lon="-1.55677">
        <ele>60</ele>
        <time>2021-03-20T12:05:33.000Z</time>
      </trkpt>
      <trkpt lat="47.25953" lon="-1.55661">
        <ele>59</ele>
        <time>2021-03-20T12:05:35.000Z</time>
      </trkpt>
      <trkpt lat="47.2596" lon="-1.55645">
        <ele>59</ele>
        <time>2021-03-20T12:05:37.000Z</time>
      </trkpt>
      <trkpt lat="47.25968" lon="-1.55632">
        <ele>58</ele>
        <time>2021-03-20T12:05:39.000Z</time>
      </trkpt>
      <trkpt lat="47.25978" lon="-1.55622">
        <ele>58</ele>
        <time>2021-03-20T12:05:41.000Z</time>
      </trkpt>
      <trkpt lat="47.25989" lon="-1.55611">
        <ele>58</ele>
        <time>2021-03-20T12:05:44.000Z</time>
      </trkpt>
      <trkpt lat="47.26" lon="-1.55606">
        <ele>57</ele>
        <time>2021-03-20T12:05:47.000Z</time>
      </trkpt>
      <trkpt lat="47.26005" lon="-1.55594">
        <ele>56</ele>
        <time>2021-03-20T12:05:49.000Z</time>
      </trkpt>
      <trkpt lat="47.26006" lon="-1.55575">
        <ele>55</ele>
        <time>2021-03-20T12:05:51.000Z</time>
      </trkpt>
      <trkpt lat="47.26012" lon="-1.55555">
        <ele>54</ele>
        <time>2021-03-20T12:05:53.000Z</time>
      </trkpt>
      <trkpt lat="47.26019" lon="-1.55536">
        <ele>54</ele>
        <time>2021-03-20T12:05:55.000Z</time>
      </trkpt>
      <trkpt lat="47.26025" lon="-1.55517">
        <ele>54</ele>
        <time>2021-03-20T12:05:57.000Z</time>
      </trkpt>
      <trkpt lat="47.26032" lon="-1.55498">
        <ele>53</ele>
        <time>2021-03-20T12:05:59.000Z</time>
      </trkpt>
      <trkpt lat="47.26037" lon="-1.5548">
        <ele>52</ele>
        <time>2021-03-20T12:06:01.000Z</time>
      </trkpt>
      <trkpt lat="47.26043" lon="-1.55463">
        <ele>52</ele>
        <time>2021-03-20T12:06:03.000Z</time>
      </trkpt>
      <trkpt lat="47.26048" lon="-1.55446">
        <ele>51</ele>
        <time>2021-03-20T12:06:05.000Z</time>
      </trkpt>
      <trkpt lat="47.26052" lon="-1.55429">
        <ele>51</ele>
        <time>2021-03-20T12:06:07.000Z</time>
      </trkpt>
      <trkpt lat="47.26058" lon="-1.55413">
        <ele>51</ele>
        <time>2021-03-20T12:06:09.000Z</time>
      </trkpt>
      <trkpt lat="47.26064" lon="-1.55398">
        <ele>51</ele>
        <time>2021-03-20T12:06:11.000Z</time>
      </trkpt>
      <trkpt lat="47.2607" lon="-1.55383">
        <ele>51</ele>
        <time>2021-03-20T12:06:13.000Z</time>
      </trkpt>
      <trkpt lat="47.26077" lon="-1.55368">
        <ele>51</ele>
        <time>2021-03-20T12:06:15.000Z</time>
      </trkpt>
      <trkpt lat="47.26084" lon="-1.55353">
        <ele>51</ele>
        <time>2021-03-20T12:06:17.000Z</time>
      </trkpt>
      <trkpt lat="47.2609" lon="-1.55339">
        <ele>51</ele>
        <time>2021-03-20T12:06:19.000Z</time>
      </trkpt>
      <trkpt lat="47.26096" lon="-1.55324">
        <ele>51</ele>
        <time>2021-03-20T12:06:21.000Z</time>
      </trkpt>
      <trkpt lat="47.26103" lon="-1.55311">
        <ele>51</ele>
        <time>2021-03-20T12:06:23.000Z</time>
      </trkpt>
      <trkpt lat="47.2611" lon="-1.55298">
        <ele>51</ele>
        <time>2021-03-20T12:06:25.000Z</time>
      </trkpt>
      <trkpt lat="47.26115" lon="-1.55284">
        <ele>51</ele>
        <time>2021-03-20T12:06:27.000Z</time>
      </trkpt>
      <trkpt lat="47.26119" lon="-1.55268">
        <ele>51</ele>
        <time>2021-03-20T12:06:29.000Z</time>
      </trkpt>
      <trkpt lat="47.26124" lon="-1.55251">
        <ele>51</ele>
        <time>2021-03-20T12:06:31.000Z</time>
      </trkpt>
      <trkpt lat="47.26128" lon="-1.55233">
        <ele>51</ele>
        <time>2021-03-20T12:06:33.000Z</time>
      </trkpt>
      <trkpt lat="47.26133" lon="-1.55216">
        <ele>50</ele>
        <time>2021-03-20T12:06:35.000Z</time>
      </trkpt>
      <trkpt lat="47.26139" lon="-1.55199">
        <ele>50</ele>
        <time>2021-03-20T12:06:37.000Z</time>
      </trkpt>
      <trkpt lat="47.26144" lon="-1.55182">
        <ele>50</ele>
        <time>2021-03-20T12:06:39.000Z</time>
      </trkpt>
      <trkpt lat="47.2615" lon="-1.55165">
        <ele>50</ele>
        <time>2021-03-20T12:06:41.000Z</time>
      </trkpt>
      <trkpt lat="47.26156" lon="-1.55148">
        <ele>50</ele>
        <time>2021-03-20T12:06:43.000Z</time>
      </trkpt>
      <trkpt lat="47.26163" lon="-1.55132">
        <ele>50</ele>
        <time>2021-03-20T12:06:45.000Z</time>
      </trkpt>
      <trkpt lat="47.26169" lon="-1.55115">
        <ele>51</ele>
        <time>2021-03-20T12:06:47.000Z</time>
      </trkpt>
      <trkpt lat="47.26176" lon="-1.55099">
        <ele>51</ele>
        <time>2021-03-20T12:06:49.000Z</time>
      </trkpt>
      <trkpt lat="47.26182" lon="-1.55084">
        <ele>51</ele>
        <time>2021-03-20T12:06:51.000Z</time>
      </trkpt>
      <trkpt lat="47.2619" lon="-1.55069">
        <ele>51</ele>
        <time>2021-03-20T12:06:53.000Z</time>
      </trkpt>
      <trkpt lat="47.26197" lon="-1.55054">
        <ele>52</ele>
        <time>2021-03-20T12:06:55.000Z</time>
      </trkpt>
      <trkpt lat="47.26204" lon="-1.5504">
        <ele>52</ele>
        <time>2021-03-20T12:06:57.000Z</time>
      </trkpt>
      <trkpt lat="47.26211" lon="-1.55025">
        <ele>53</ele>
        <time>2021-03-20T12:06:59.000Z</time>
      </trkpt>
      <trkpt lat="47.26219" lon="-1.55011">
        <ele>53</ele>
        <time>2021-03-20T12:07:01.000Z</time>
      </trkpt>
      <trkpt lat="47.26226" lon="-1.54997">
        <ele>53</ele>
        <time>2021-03-20T12:07:03.000Z</time>
      </trkpt>
      <trkpt lat="47.26234" lon="-1.54983">
        <ele>53</ele>
        <time>2021-03-20T12:07:05.000Z</time>
      </trkpt>
      <trkpt lat="47.26242" lon="-1.54969">
        <ele>53</ele>
        <time>2021-03-20T12:07:07.000Z</time>
      </trkpt>
      <trkpt lat="47.2625" lon="-1.54956">
        <ele>54</ele>
        <time>2021-03-20T12:07:09.000Z</time>
      </trkpt>
      <trkpt lat="47.26258" lon="-1.54943">
        <ele>54</ele>
        <time>2021-03-20T12:07:11.000Z</time>
      </trkpt>
      <trkpt lat="47.26266" lon="-1.5493">
        <ele>54</ele>
        <time>2021-03-20T12:07:13.000Z</time>
      </trkpt>
      <trkpt lat="47.26274" lon="-1.54919">
        <ele>54</ele>
        <time>2021-03-20T12:07:15.000Z</time>
      </trkpt>
      <trkpt lat="47.26283" lon="-1.54908">
        <ele>54</ele>
        <time>2021-03-20T12:07:17.000Z</time>
      </trkpt>
      <trkpt lat="47.26291" lon="-1.54898">
        <ele>55</ele>
        <time>2021-03-20T12:07:19.000Z</time>
      </trkpt>
      <trkpt lat="47.263" lon="-1.54888">
        <ele>55</ele>
        <time>2021-03-20T12:07:21.000Z</time>
      </trkpt>
      <trkpt lat="47.26308" lon="-1.54878">
        <ele>55</ele>
        <time>2021-03-20T12:07:23.000Z</time>
      </trkpt>
      <trkpt lat="47.26318" lon="-1.5487">
        <ele>55</ele>
        <time>2021-03-20T12:07:25.000Z</time>
      </trkpt>
      <trkpt lat="47.26328" lon="-1.54865">
        <ele>55</ele>
        <time>2021-03-20T12:07:27.000Z</time>
      </trkpt>
      <trkpt lat="47.26337" lon="-1.54864">
        <ele>56</ele>
        <time>2021-03-20T12:07:29.000Z</time>
      </trkpt>
      <trkpt lat="47.26349" lon="-1.54862">
        <ele>56</ele>
        <time>2021-03-20T12:07:32.000Z</time>
      </trkpt>
      <trkpt lat="47.26353" lon="-1.54849">
        <ele>56</ele>
        <time>2021-03-20T12:07:34.000Z</time>
      </trkpt>
      <trkpt lat="47.26356" lon="-1.54835">
        <ele>56</ele>
        <time>2021-03-20T12:07:36.000Z</time>
      </trkpt>
      <trkpt lat="47.2636" lon="-1.54822">
        <ele>56</ele>
        <time>2021-03-20T12:07:38.000Z</time>
      </trkpt>
      <trkpt lat="47.26366" lon="-1.5481">
        <ele>56</ele>
        <time>2021-03-20T12:07:40.000Z</time>
      </trkpt>
      <trkpt lat="47.26375" lon="-1.548">
        <ele>56</ele>
        <time>2021-03-20T12:07:42.000Z</time>
      </trkpt>
      <trkpt lat="47.26383" lon="-1.5479">
        <ele>57</ele>
        <time>2021-03-20T12:07:44.000Z</time>
      </trkpt>
      <trkpt lat="47.26391" lon="-1.5478">
        <ele>57</ele>
        <time>2021-03-20T12:07:46.000Z</time>
      </trkpt>
      <trkpt lat="47.26399" lon="-1.5477">
        <ele>57</ele>
        <time>2021-03-20T12:07:48.000Z</time>
      </trkpt>
      <trkpt lat="47.26407" lon="-1.54761">
        <ele>58</ele>
        <time>2021-03-20T12:07:50.000Z</time>
      </trkpt>
      <trkpt lat="47.26414" lon="-1.54752">
        <ele>58</ele>
        <time>2021-03-20T12:07:52.000Z</time>
      </trkpt>
      <trkpt lat="47.26423" lon="-1.54742">
        <ele>58</ele>
        <time>2021-03-20T12:07:54.000Z</time>
      </trkpt>
      <trkpt lat="47.26431" lon="-1.54733">
        <ele>59</ele>
        <time>2021-03-20T12:07:56.000Z</time>
      </trkpt>
      <trkpt lat="47.26439" lon="-1.54725">
        <ele>59</ele>
        <time>2021-03-20T12:07:58.000Z</time>
      </trkpt>
      <trkpt lat="47.26446" lon="-1.54717">
        <ele>59</ele>
        <time>2021-03-20T12:08:00.000Z</time>
      </trkpt>
      <trkpt lat="47.26454" lon="-1.54709">
        <ele>60</ele>
        <time>2021-03-20T12:08:02.000Z</time>
      </trkpt>
      <trkpt lat="47.26463" lon="-1.54701">
        <ele>61</ele>
        <time>2021-03-20T12:08:04.000Z</time>
      </trkpt>
      <trkpt lat="47.26471" lon="-1.54694">
        <ele>63</ele>
        <time>2021-03-20T12:08:06.000Z</time>
      </trkpt>
      <trkpt lat="47.26479" lon="-1.54688">
        <ele>63</ele>
        <time>2021-03-20T12:08:08.000Z</time>
      </trkpt>
      <trkpt lat="47.26488" lon="-1.54684">
        <ele>64</ele>
        <time>2021-03-20T12:08:10.000Z</time>
      </trkpt>
      <trkpt lat="47.26497" lon="-1.54679">
        <ele>64</ele>
        <time>2021-03-20T12:08:12.000Z</time>
      </trkpt>
      <trkpt lat="47.26505" lon="-1.54673">
        <ele>65</ele>
        <time>2021-03-20T12:08:14.000Z</time>
      </trkpt>
      <trkpt lat="47.26514" lon="-1.54668">
        <ele>65</ele>
        <time>2021-03-20T12:08:16.000Z</time>
      </trkpt>
      <trkpt lat="47.26523" lon="-1.54664">
        <ele>65</ele>
        <time>2021-03-20T12:08:18.000Z</time>
      </trkpt>
      <trkpt lat="47.26532" lon="-1.54659">
        <ele>66</ele>
        <time>2021-03-20T12:08:20.000Z</time>
      </trkpt>
      <trkpt lat="47.26541" lon="-1.54655">
        <ele>66</ele>
        <time>2021-03-20T12:08:22.000Z</time>
      </trkpt>
      <trkpt lat="47.26551" lon="-1.5465">
        <ele>67</ele>
        <time>2021-03-20T12:08:24.000Z</time>
      </trkpt>
      <trkpt lat="47.2656" lon="-1.54646">
        <ele>67</ele>
        <time>2021-03-20T12:08:26.000Z</time>
      </trkpt>
      <trkpt lat="47.26569" lon="-1.54641">
        <ele>67</ele>
        <time>2021-03-20T12:08:28.000Z</time>
      </trkpt>
      <trkpt lat="47.26578" lon="-1.54638">
        <ele>68</ele>
        <time>2021-03-20T12:08:30.000Z</time>
      </trkpt>
      <trkpt lat="47.26587" lon="-1.54634">
        <ele>68</ele>
        <time>2021-03-20T12:08:32.000Z</time>
      </trkpt>
      <trkpt lat="47.26597" lon="-1.54629">
        <ele>68</ele>
        <time>2021-03-20T12:08:34.000Z</time>
      </trkpt>
      <trkpt lat="47.26606" lon="-1.54626">
        <ele>69</ele>
        <time>2021-03-20T12:08:36.000Z</time>
      </trkpt>
      <trkpt lat="47.26615" lon="-1.54623">
        <ele>69</ele>
        <time>2021-03-20T12:08:38.000Z</time>
      </trkpt>
      <trkpt lat="47.26624" lon="-1.5462">
        <ele>70</ele>
        <time>2021-03-20T12:08:40.000Z</time>
      </trkpt>
      <trkpt lat="47.26633" lon="-1.54617">
        <ele>70</ele>
        <time>2021-03-20T12:08:42.000Z</time>
      </trkpt>
      <trkpt lat="47.26642" lon="-1.54615">
        <ele>71</ele>
        <time>2021-03-20T12:08:44.000Z</time>
      </trkpt>
      <trkpt lat="47.26651" lon="-1.54613">
        <ele>71</ele>
        <time>2021-03-20T12:08:46.000Z</time>
      </trkpt>
      <trkpt lat="47.2666" lon="-1.5461">
        <ele>72</ele>
        <time>2021-03-20T12:08:48.000Z</time>
      </trkpt>
      <trkpt lat="47.2667" lon="-1.54608">
        <ele>72</ele>
        <time>2021-03-20T12:08:50.000Z</time>
      </trkpt>
      <trkpt lat="47.26683" lon="-1.54606">
        <ele>73</ele>
        <time>2021-03-20T12:08:53.000Z</time>
      </trkpt>
      <trkpt lat="47.26696" lon="-1.54603">
        <ele>73</ele>
        <time>2021-03-20T12:08:56.000Z</time>
      </trkpt>
      <trkpt lat="47.26705" lon="-1.54602">
        <ele>73</ele>
        <time>2021-03-20T12:08:58.000Z</time>
      </trkpt>
      <trkpt lat="47.26715" lon="-1.546">
        <ele>74</ele>
        <time>2021-03-20T12:09:00.000Z</time>
      </trkpt>
      <trkpt lat="47.26724" lon="-1.546">
        <ele>74</ele>
        <time>2021-03-20T12:09:02.000Z</time>
      </trkpt>
      <trkpt lat="47.26734" lon="-1.54599">
        <ele>75</ele>
        <time>2021-03-20T12:09:04.000Z</time>
      </trkpt>
      <trkpt lat="47.26743" lon="-1.54598">
        <ele>75</ele>
        <time>2021-03-20T12:09:06.000Z</time>
      </trkpt>
      <trkpt lat="47.26754" lon="-1.54598">
        <ele>75</ele>
        <time>2021-03-20T12:09:08.000Z</time>
      </trkpt>
      <trkpt lat="47.26763" lon="-1.54596">
        <ele>76</ele>
        <time>2021-03-20T12:09:10.000Z</time>
      </trkpt>
      <trkpt lat="47.26773" lon="-1.54596">
        <ele>76</ele>
        <time>2021-03-20T12:09:12.000Z</time>
      </trkpt>
      <trkpt lat="47.26782" lon="-1.54595">
        <ele>76</ele>
        <time>2021-03-20T12:09:14.000Z</time>
      </trkpt>
      <trkpt lat="47.26792" lon="-1.54596">
        <ele>76</ele>
        <time>2021-03-20T12:09:16.000Z</time>
      </trkpt>
      <trkpt lat="47.26802" lon="-1.54597">
        <ele>76</ele>
        <time>2021-03-20T12:09:18.000Z</time>
      </trkpt>
      <trkpt lat="47.26812" lon="-1.54598">
        <ele>77</ele>
        <time>2021-03-20T12:09:20.000Z</time>
      </trkpt>
      <trkpt lat="47.26821" lon="-1.54598">
        <ele>77</ele>
        <time>2021-03-20T12:09:22.000Z</time>
      </trkpt>
      <trkpt lat="47.2683" lon="-1.54597">
        <ele>77</ele>
        <time>2021-03-20T12:09:24.000Z</time>
      </trkpt>
      <trkpt lat="47.26841" lon="-1.54599">
        <ele>76</ele>
        <time>2021-03-20T12:09:26.000Z</time>
      </trkpt>
      <trkpt lat="47.26851" lon="-1.54601">
        <ele>76</ele>
        <time>2021-03-20T12:09:28.000Z</time>
      </trkpt>
      <trkpt lat="47.26861" lon="-1.54605">
        <ele>77</ele>
        <time>2021-03-20T12:09:30.000Z</time>
      </trkpt>
      <trkpt lat="47.2687" lon="-1.5461">
        <ele>77</ele>
        <time>2021-03-20T12:09:32.000Z</time>
      </trkpt>
      <trkpt lat="47.2688" lon="-1.54616">
        <ele>77</ele>
        <time>2021-03-20T12:09:34.000Z</time>
      </trkpt>
      <trkpt lat="47.2689" lon="-1.54619">
        <ele>78</ele>
        <time>2021-03-20T12:09:36.000Z</time>
      </trkpt>
      <trkpt lat="47.26899" lon="-1.5462">
        <ele>79</ele>
        <time>2021-03-20T12:09:38.000Z</time>
      </trkpt>
      <trkpt lat="47.2691" lon="-1.54621">
        <ele>80</ele>
        <time>2021-03-20T12:09:40.000Z</time>
      </trkpt>
      <trkpt lat="47.2692" lon="-1.54621">
        <ele>80</ele>
        <time>2021-03-20T12:09:42.000Z</time>
      </trkpt>
      <trkpt lat="47.26931" lon="-1.5462">
        <ele>80</ele>
        <time>2021-03-20T12:09:44.000Z</time>
      </trkpt>
      <trkpt lat="47.26942" lon="-1.54618">
        <ele>80</ele>
        <time>2021-03-20T12:09:46.000Z</time>
      </trkpt>
      <trkpt lat="47.26953" lon="-1.54617">
        <ele>80</ele>
        <time>2021-03-20T12:09:48.000Z</time>
      </trkpt>
      <trkpt lat="47.26964" lon="-1.54615">
        <ele>80</ele>
        <time>2021-03-20T12:09:50.000Z</time>
      </trkpt>
      <trkpt lat="47.26974" lon="-1.54615">
        <ele>80</ele>
        <time>2021-03-20T12:09:52.000Z</time>
      </trkpt>
      <trkpt lat="47.26984" lon="-1.54614">
        <ele>79</ele>
        <time>2021-03-20T12:09:54.000Z</time>
      </trkpt>
      <trkpt lat="47.26996" lon="-1.54613">
        <ele>79</ele>
        <time>2021-03-20T12:09:56.000Z</time>
      </trkpt>
      <trkpt lat="47.27006" lon="-1.54612">
        <ele>79</ele>
        <time>2021-03-20T12:09:58.000Z</time>
      </trkpt>
      <trkpt lat="47.27018" lon="-1.54612">
        <ele>78</ele>
        <time>2021-03-20T12:10:00.000Z</time>
      </trkpt>
      <trkpt lat="47.27029" lon="-1.54615">
        <ele>78</ele>
        <time>2021-03-20T12:10:02.000Z</time>
      </trkpt>
      <trkpt lat="47.27041" lon="-1.54616">
        <ele>78</ele>
        <time>2021-03-20T12:10:04.000Z</time>
      </trkpt>
      <trkpt lat="47.27052" lon="-1.54619">
        <ele>77</ele>
        <time>2021-03-20T12:10:06.000Z</time>
      </trkpt>
      <trkpt lat="47.27064" lon="-1.54621">
        <ele>77</ele>
        <time>2021-03-20T12:10:08.000Z</time>
      </trkpt>
      <trkpt lat="47.27074" lon="-1.54623">
        <ele>77</ele>
        <time>2021-03-20T12:10:10.000Z</time>
      </trkpt>
      <trkpt lat="47.27085" lon="-1.54626">
        <ele>77</ele>
        <time>2021-03-20T12:10:12.000Z</time>
      </trkpt>
      <trkpt lat="47.27096" lon="-1.54629">
        <ele>78</ele>
        <time>2021-03-20T12:10:14.000Z</time>
      </trkpt>
      <trkpt lat="47.27107" lon="-1.54632">
        <ele>78</ele>
        <time>2021-03-20T12:10:16.000Z</time>
      </trkpt>
      <trkpt lat="47.27118" lon="-1.54635">
        <ele>78</ele>
        <time>2021-03-20T12:10:18.000Z</time>
      </trkpt>
      <trkpt lat="47.27128" lon="-1.54638">
        <ele>78</ele>
        <time>2021-03-20T12:10:20.000Z</time>
      </trkpt>
      <trkpt lat="47.27139" lon="-1.54642">
        <ele>78</ele>
        <time>2021-03-20T12:10:22.000Z</time>
      </trkpt>
      <trkpt lat="47.27151" lon="-1.54646">
        <ele>78</ele>
        <time>2021-03-20T12:10:24.000Z</time>
      </trkpt>
      <trkpt lat="47.27162" lon="-1.54649">
        <ele>78</ele>
        <time>2021-03-20T12:10:26.000Z</time>
      </trkpt>
      <trkpt lat="47.27173" lon="-1.54653">
        <ele>77</ele>
        <time>2021-03-20T12:10:28.000Z</time>
      </trkpt>
      <trkpt lat="47.27185" lon="-1.54656">
        <ele>77</ele>
        <time>2021-03-20T12:10:30.000Z</time>
      </trkpt>
      <trkpt lat="47.27196" lon="-1.54659">
        <ele>77</ele>
        <time>2021-03-20T12:10:32.000Z</time>
      </trkpt>
      <trkpt lat="47.27207" lon="-1.54662">
        <ele>77</ele>
        <time>2021-03-20T12:10:34.000Z</time>
      </trkpt>
      <trkpt lat="47.27218" lon="-1.54665">
        <ele>77</ele>
        <time>2021-03-20T12:10:36.000Z</time>
      </trkpt>
      <trkpt lat="47.27229" lon="-1.5467">
        <ele>77</ele>
        <time>2021-03-20T12:10:38.000Z</time>
      </trkpt>
      <trkpt lat="47.27239" lon="-1.54676">
        <ele>77</ele>
        <time>2021-03-20T12:10:40.000Z</time>
      </trkpt>
      <trkpt lat="47.27251" lon="-1.54679">
        <ele>77</ele>
        <time>2021-03-20T12:10:42.000Z</time>
      </trkpt>
      <trkpt lat="47.27262" lon="-1.54679">
        <ele>77</ele>
        <time>2021-03-20T12:10:44.000Z</time>
      </trkpt>
      <trkpt lat="47.27273" lon="-1.54682">
        <ele>77</ele>
        <time>2021-03-20T12:10:46.000Z</time>
      </trkpt>
      <trkpt lat="47.27284" lon="-1.54686">
        <ele>76</ele>
        <time>2021-03-20T12:10:48.000Z</time>
      </trkpt>
      <trkpt lat="47.27294" lon="-1.54689">
        <ele>76</ele>
        <time>2021-03-20T12:10:50.000Z</time>
      </trkpt>
      <trkpt lat="47.27305" lon="-1.54693">
        <ele>76</ele>
        <time>2021-03-20T12:10:52.000Z</time>
      </trkpt>
      <trkpt lat="47.27316" lon="-1.54697">
        <ele>76</ele>
        <time>2021-03-20T12:10:54.000Z</time>
      </trkpt>
      <trkpt lat="47.27327" lon="-1.54701">
        <ele>76</ele>
        <time>2021-03-20T12:10:56.000Z</time>
      </trkpt>
      <trkpt lat="47.27338" lon="-1.54705">
        <ele>77</ele>
        <time>2021-03-20T12:10:58.000Z</time>
      </trkpt>
      <trkpt lat="47.27348" lon="-1.54709">
        <ele>77</ele>
        <time>2021-03-20T12:11:00.000Z</time>
      </trkpt>
      <trkpt lat="47.27358" lon="-1.54713">
        <ele>77</ele>
        <time>2021-03-20T12:11:02.000Z</time>
      </trkpt>
      <trkpt lat="47.27367" lon="-1.5472">
        <ele>78</ele>
        <time>2021-03-20T12:11:04.000Z</time>
      </trkpt>
      <trkpt lat="47.27375" lon="-1.54729">
        <ele>78</ele>
        <time>2021-03-20T12:11:06.000Z</time>
      </trkpt>
      <trkpt lat="47.27384" lon="-1.54739">
        <ele>78</ele>
        <time>2021-03-20T12:11:08.000Z</time>
      </trkpt>
      <trkpt lat="47.27392" lon="-1.5475">
        <ele>79</ele>
        <time>2021-03-20T12:11:10.000Z</time>
      </trkpt>
      <trkpt lat="47.27399" lon="-1.5476">
        <ele>79</ele>
        <time>2021-03-20T12:11:12.000Z</time>
      </trkpt>
      <trkpt lat="47.27408" lon="-1.54771">
        <ele>79</ele>
        <time>2021-03-20T12:11:15.000Z</time>
      </trkpt>
      <trkpt lat="47.2742" lon="-1.54777">
        <ele>80</ele>
        <time>2021-03-20T12:11:18.000Z</time>
      </trkpt>
      <trkpt lat="47.2743" lon="-1.54773">
        <ele>81</ele>
        <time>2021-03-20T12:11:20.000Z</time>
      </trkpt>
      <trkpt lat="47.27442" lon="-1.54766">
        <ele>81</ele>
        <time>2021-03-20T12:11:23.000Z</time>
      </trkpt>
      <trkpt lat="47.27454" lon="-1.54753">
        <ele>81</ele>
        <time>2021-03-20T12:11:26.000Z</time>
      </trkpt>
      <trkpt lat="47.27463" lon="-1.54748">
        <ele>82</ele>
        <time>2021-03-20T12:11:28.000Z</time>
      </trkpt>
      <trkpt lat="47.27472" lon="-1.54745">
        <ele>82</ele>
        <time>2021-03-20T12:11:30.000Z</time>
      </trkpt>
      <trkpt lat="47.27482" lon="-1.54745">
        <ele>83</ele>
        <time>2021-03-20T12:11:32.000Z</time>
      </trkpt>
      <trkpt lat="47.27492" lon="-1.54747">
        <ele>83</ele>
        <time>2021-03-20T12:11:34.000Z</time>
      </trkpt>
      <trkpt lat="47.27502" lon="-1.54749">
        <ele>84</ele>
        <time>2021-03-20T12:11:36.000Z</time>
      </trkpt>
      <trkpt lat="47.27512" lon="-1.54751">
        <ele>84</ele>
        <time>2021-03-20T12:11:38.000Z</time>
      </trkpt>
      <trkpt lat="47.27521" lon="-1.54754">
        <ele>85</ele>
        <time>2021-03-20T12:11:40.000Z</time>
      </trkpt>
      <trkpt lat="47.27531" lon="-1.54756">
        <ele>85</ele>
        <time>2021-03-20T12:11:42.000Z</time>
      </trkpt>
      <trkpt lat="47.2754" lon="-1.54758">
        <ele>86</ele>
        <time>2021-03-20T12:11:44.000Z</time>
      </trkpt>
      <trkpt lat="47.27549" lon="-1.54761">
        <ele>86</ele>
        <time>2021-03-20T12:11:46.000Z</time>
      </trkpt>
      <trkpt lat="47.27559" lon="-1.54764">
        <ele>87</ele>
        <time>2021-03-20T12:11:48.000Z</time>
      </trkpt>
      <trkpt lat="47.27568" lon="-1.54767">
        <ele>87</ele>
        <time>2021-03-20T12:11:50.000Z</time>
      </trkpt>
      <trkpt lat="47.27577" lon="-1.5477">
        <ele>87</ele>
        <time>2021-03-20T12:11:52.000Z</time>
      </trkpt>
      <trkpt lat="47.27585" lon="-1.54778">
        <ele>88</ele>
        <time>2021-03-20T12:11:54.000Z</time>
      </trkpt>
      <trkpt lat="47.27591" lon="-1.54788">
        <ele>87</ele>
        <time>2021-03-20T12:11:56.000Z</time>
      </trkpt>
      <trkpt lat="47.27597" lon="-1.54804">
        <ele>87</ele>
        <time>2021-03-20T12:11:59.000Z</time>
      </trkpt>
      <trkpt lat="47.27605" lon="-1.54819">
        <ele>87</ele>
        <time>2021-03-20T12:12:02.000Z</time>
      </trkpt>
      <trkpt lat="47.27614" lon="-1.54823">
        <ele>87</ele>
        <time>2021-03-20T12:12:04.000Z</time>
      </trkpt>
      <trkpt lat="47.27624" lon="-1.54825">
        <ele>87</ele>
        <time>2021-03-20T12:12:06.000Z</time>
      </trkpt>
      <trkpt lat="47.27634" lon="-1.54823">
        <ele>87</ele>
        <time>2021-03-20T12:12:08.000Z</time>
      </trkpt>
      <trkpt lat="47.27643" lon="-1.54819">
        <ele>87</ele>
        <time>2021-03-20T12:12:10.000Z</time>
      </trkpt>
      <trkpt lat="47.27653" lon="-1.54813">
        <ele>86</ele>
        <time>2021-03-20T12:12:12.000Z</time>
      </trkpt>
      <trkpt lat="47.27663" lon="-1.54811">
        <ele>86</ele>
        <time>2021-03-20T12:12:14.000Z</time>
      </trkpt>
      <trkpt lat="47.27673" lon="-1.54811">
        <ele>86</ele>
        <time>2021-03-20T12:12:16.000Z</time>
      </trkpt>
      <trkpt lat="47.27683" lon="-1.54812">
        <ele>86</ele>
        <time>2021-03-20T12:12:18.000Z</time>
      </trkpt>
      <trkpt lat="47.27693" lon="-1.54814">
        <ele>86</ele>
        <time>2021-03-20T12:12:20.000Z</time>
      </trkpt>
      <trkpt lat="47.27704" lon="-1.54816">
        <ele>86</ele>
        <time>2021-03-20T12:12:22.000Z</time>
      </trkpt>
      <trkpt lat="47.27714" lon="-1.54818">
        <ele>85</ele>
        <time>2021-03-20T12:12:24.000Z</time>
      </trkpt>
      <trkpt lat="47.27725" lon="-1.5482">
        <ele>85</ele>
        <time>2021-03-20T12:12:26.000Z</time>
      </trkpt>
      <trkpt lat="47.27735" lon="-1.54823">
        <ele>85</ele>
        <time>2021-03-20T12:12:28.000Z</time>
      </trkpt>
      <trkpt lat="47.27746" lon="-1.54826">
        <ele>84</ele>
        <time>2021-03-20T12:12:30.000Z</time>
      </trkpt>
      <trkpt lat="47.27757" lon="-1.54829">
        <ele>84</ele>
        <time>2021-03-20T12:12:32.000Z</time>
      </trkpt>
      <trkpt lat="47.27768" lon="-1.54833">
        <ele>83</ele>
        <time>2021-03-20T12:12:34.000Z</time>
      </trkpt>
      <trkpt lat="47.27779" lon="-1.54836">
        <ele>82</ele>
        <time>2021-03-20T12:12:36.000Z</time>
      </trkpt>
      <trkpt lat="47.2779" lon="-1.54839">
        <ele>82</ele>
        <time>2021-03-20T12:12:38.000Z</time>
      </trkpt>
      <trkpt lat="47.27801" lon="-1.54842">
        <ele>81</ele>
        <time>2021-03-20T12:12:40.000Z</time>
      </trkpt>
      <trkpt lat="47.27813" lon="-1.54845">
        <ele>81</ele>
        <time>2021-03-20T12:12:42.000Z</time>
      </trkpt>
      <trkpt lat="47.27825" lon="-1.54849">
        <ele>81</ele>
        <time>2021-03-20T12:12:44.000Z</time>
      </trkpt>
      <trkpt lat="47.27838" lon="-1.54853">
        <ele>80</ele>
        <time>2021-03-20T12:12:46.000Z</time>
      </trkpt>
      <trkpt lat="47.27851" lon="-1.54857">
        <ele>80</ele>
        <time>2021-03-20T12:12:48.000Z</time>
      </trkpt>
      <trkpt lat="47.27864" lon="-1.54861">
        <ele>79</ele>
        <time>2021-03-20T12:12:50.000Z</time>
      </trkpt>
      <trkpt lat="47.27878" lon="-1.54864">
        <ele>79</ele>
        <time>2021-03-20T12:12:52.000Z</time>
      </trkpt>
      <trkpt lat="47.27892" lon="-1.54869">
        <ele>78</ele>
        <time>2021-03-20T12:12:54.000Z</time>
      </trkpt>
      <trkpt lat="47.27906" lon="-1.54873">
        <ele>78</ele>
        <time>2021-03-20T12:12:56.000Z</time>
      </trkpt>
      <trkpt lat="47.2792" lon="-1.54878">
        <ele>77</ele>
        <time>2021-03-20T12:12:58.000Z</time>
      </trkpt>
      <trkpt lat="47.27934" lon="-1.54881">
        <ele>77</ele>
        <time>2021-03-20T12:13:00.000Z</time>
      </trkpt>
      <trkpt lat="47.27948" lon="-1.54886">
        <ele>76</ele>
        <time>2021-03-20T12:13:02.000Z</time>
      </trkpt>
      <trkpt lat="47.27962" lon="-1.5489">
        <ele>76</ele>
        <time>2021-03-20T12:13:04.000Z</time>
      </trkpt>
      <trkpt lat="47.27977" lon="-1.54894">
        <ele>75</ele>
        <time>2021-03-20T12:13:06.000Z</time>
      </trkpt>
      <trkpt lat="47.2799" lon="-1.54898">
        <ele>75</ele>
        <time>2021-03-20T12:13:08.000Z</time>
      </trkpt>
      <trkpt lat="47.28005" lon="-1.54903">
        <ele>74</ele>
        <time>2021-03-20T12:13:10.000Z</time>
      </trkpt>
      <trkpt lat="47.28019" lon="-1.54907">
        <ele>74</ele>
        <time>2021-03-20T12:13:12.000Z</time>
      </trkpt>
      <trkpt lat="47.28033" lon="-1.54912">
        <ele>74</ele>
        <time>2021-03-20T12:13:14.000Z</time>
      </trkpt>
      <trkpt lat="47.28047" lon="-1.54916">
        <ele>74</ele>
        <time>2021-03-20T12:13:16.000Z</time>
      </trkpt>
      <trkpt lat="47.2806" lon="-1.5492">
        <ele>73</ele>
        <time>2021-03-20T12:13:18.000Z</time>
      </trkpt>
      <trkpt lat="47.28074" lon="-1.54924">
        <ele>73</ele>
        <time>2021-03-20T12:13:20.000Z</time>
      </trkpt>
      <trkpt lat="47.28087" lon="-1.54928">
        <ele>73</ele>
        <time>2021-03-20T12:13:22.000Z</time>
      </trkpt>
      <trkpt lat="47.281" lon="-1.54932">
        <ele>73</ele>
        <time>2021-03-20T12:13:24.000Z</time>
      </trkpt>
      <trkpt lat="47.28113" lon="-1.54936">
        <ele>73</ele>
        <time>2021-03-20T12:13:26.000Z</time>
      </trkpt>
      <trkpt lat="47.28125" lon="-1.5494">
        <ele>73</ele>
        <time>2021-03-20T12:13:28.000Z</time>
      </trkpt>
      <trkpt lat="47.28138" lon="-1.54944">
        <ele>73</ele>
        <time>2021-03-20T12:13:30.000Z</time>
      </trkpt>
      <trkpt lat="47.2815" lon="-1.54948">
        <ele>73</ele>
        <time>2021-03-20T12:13:32.000Z</time>
      </trkpt>
      <trkpt lat="47.28162" lon="-1.5495">
        <ele>73</ele>
        <time>2021-03-20T12:13:34.000Z</time>
      </trkpt>
      <trkpt lat="47.28174" lon="-1.54953">
        <ele>73</ele>
        <time>2021-03-20T12:13:36.000Z</time>
      </trkpt>
      <trkpt lat="47.28186" lon="-1.54956">
        <ele>73</ele>
        <time>2021-03-20T12:13:38.000Z</time>
      </trkpt>
      <trkpt lat="47.28198" lon="-1.54959">
        <ele>73</ele>
        <time>2021-03-20T12:13:40.000Z</time>
      </trkpt>
      <trkpt lat="47.28211" lon="-1.54961">
        <ele>73</ele>
        <time>2021-03-20T12:13:42.000Z</time>
      </trkpt>
      <trkpt lat="47.28223" lon="-1.54963">
        <ele>73</ele>
        <time>2021-03-20T12:13:44.000Z</time>
      </trkpt>
      <trkpt lat="47.28235" lon="-1.54964">
        <ele>73</ele>
        <time>2021-03-20T12:13:46.000Z</time>
      </trkpt>
      <trkpt lat="47.28247" lon="-1.54966">
        <ele>73</ele>
        <time>2021-03-20T12:13:48.000Z</time>
      </trkpt>
      <trkpt lat="47.28258" lon="-1.54968">
        <ele>73</ele>
        <time>2021-03-20T12:13:50.000Z</time>
      </trkpt>
      <trkpt lat="47.2827" lon="-1.5497">
        <ele>73</ele>
        <time>2021-03-20T12:13:52.000Z</time>
      </trkpt>
      <trkpt lat="47.28281" lon="-1.54975">
        <ele>73</ele>
        <time>2021-03-20T12:13:54.000Z</time>
      </trkpt>
      <trkpt lat="47.28289" lon="-1.54982">
        <ele>74</ele>
        <time>2021-03-20T12:13:56.000Z</time>
      </trkpt>
      <trkpt lat="47.28299" lon="-1.54986">
        <ele>74</ele>
        <time>2021-03-20T12:13:58.000Z</time>
      </trkpt>
      <trkpt lat="47.28308" lon="-1.54982">
        <ele>73</ele>
        <time>2021-03-20T12:14:00.000Z</time>
      </trkpt>
      <trkpt lat="47.28318" lon="-1.54973">
        <ele>73</ele>
        <time>2021-03-20T12:14:02.000Z</time>
      </trkpt>
      <trkpt lat="47.28329" lon="-1.54972">
        <ele>73</ele>
        <time>2021-03-20T12:14:04.000Z</time>
      </trkpt>
      <trkpt lat="47.28341" lon="-1.54973">
        <ele>73</ele>
        <time>2021-03-20T12:14:06.000Z</time>
      </trkpt>
      <trkpt lat="47.28353" lon="-1.54973">
        <ele>73</ele>
        <time>2021-03-20T12:14:08.000Z</time>
      </trkpt>
      <trkpt lat="47.28365" lon="-1.54974">
        <ele>73</ele>
        <time>2021-03-20T12:14:10.000Z</time>
      </trkpt>
      <trkpt lat="47.28377" lon="-1.54975">
        <ele>73</ele>
        <time>2021-03-20T12:14:12.000Z</time>
      </trkpt>
      <trkpt lat="47.28389" lon="-1.54976">
        <ele>73</ele>
        <time>2021-03-20T12:14:14.000Z</time>
      </trkpt>
      <trkpt lat="47.28402" lon="-1.54977">
        <ele>72</ele>
        <time>2021-03-20T12:14:16.000Z</time>
      </trkpt>
      <trkpt lat="47.28414" lon="-1.54978">
        <ele>72</ele>
        <time>2021-03-20T12:14:18.000Z</time>
      </trkpt>
      <trkpt lat="47.28426" lon="-1.54979">
        <ele>72</ele>
        <time>2021-03-20T12:14:20.000Z</time>
      </trkpt>
      <trkpt lat="47.28439" lon="-1.5498">
        <ele>72</ele>
        <time>2021-03-20T12:14:22.000Z</time>
      </trkpt>
      <trkpt lat="47.28451" lon="-1.54981">
        <ele>72</ele>
        <time>2021-03-20T12:14:24.000Z</time>
      </trkpt>
      <trkpt lat="47.28463" lon="-1.54981">
        <ele>72</ele>
        <time>2021-03-20T12:14:26.000Z</time>
      </trkpt>
      <trkpt lat="47.28476" lon="-1.54981">
        <ele>72</ele>
        <time>2021-03-20T12:14:28.000Z</time>
      </trkpt>
      <trkpt lat="47.28494" lon="-1.54981">
        <ele>72</ele>
        <time>2021-03-20T12:14:31.000Z</time>
      </trkpt>
      <trkpt lat="47.28505" lon="-1.5498">
        <ele>72</ele>
        <time>2021-03-20T12:14:33.000Z</time>
      </trkpt>
      <trkpt lat="47.2852" lon="-1.54989">
        <ele>72</ele>
        <time>2021-03-20T12:14:36.000Z</time>
      </trkpt>
      <trkpt lat="47.28523" lon="-1.55002">
        <ele>72</ele>
        <time>2021-03-20T12:14:38.000Z</time>
      </trkpt>
      <trkpt lat="47.2853" lon="-1.55016">
        <ele>72</ele>
        <time>2021-03-20T12:14:42.000Z</time>
      </trkpt>
      <trkpt lat="47.28537" lon="-1.55025">
        <ele>72</ele>
        <time>2021-03-20T12:14:44.000Z</time>
      </trkpt>
      <trkpt lat="47.28545" lon="-1.55033">
        <ele>72</ele>
        <time>2021-03-20T12:14:46.000Z</time>
      </trkpt>
      <trkpt lat="47.28553" lon="-1.55046">
        <ele>72</ele>
        <time>2021-03-20T12:14:49.000Z</time>
      </trkpt>
      <trkpt lat="47.28571" lon="-1.5504">
        <ele>71</ele>
        <time>2021-03-20T12:14:53.000Z</time>
      </trkpt>
      <trkpt lat="47.28578" lon="-1.55025">
        <ele>70</ele>
        <time>2021-03-20T12:14:55.000Z</time>
      </trkpt>
      <trkpt lat="47.28585" lon="-1.5501">
        <ele>70</ele>
        <time>2021-03-20T12:14:57.000Z</time>
      </trkpt>
      <trkpt lat="47.28592" lon="-1.54995">
        <ele>70</ele>
        <time>2021-03-20T12:14:59.000Z</time>
      </trkpt>
      <trkpt lat="47.28601" lon="-1.54981">
        <ele>70</ele>
        <time>2021-03-20T12:15:01.000Z</time>
      </trkpt>
      <trkpt lat="47.28613" lon="-1.54973">
        <ele>70</ele>
        <time>2021-03-20T12:15:03.000Z</time>
      </trkpt>
      <trkpt lat="47.28626" lon="-1.54971">
        <ele>69</ele>
        <time>2021-03-20T12:15:05.000Z</time>
      </trkpt>
      <trkpt lat="47.2864" lon="-1.54969">
        <ele>69</ele>
        <time>2021-03-20T12:15:07.000Z</time>
      </trkpt>
      <trkpt lat="47.28661" lon="-1.54966">
        <ele>69</ele>
        <time>2021-03-20T12:15:10.000Z</time>
      </trkpt>
      <trkpt lat="47.28675" lon="-1.54963">
        <ele>69</ele>
        <time>2021-03-20T12:15:12.000Z</time>
      </trkpt>
      <trkpt lat="47.28687" lon="-1.54961">
        <ele>70</ele>
        <time>2021-03-20T12:15:14.000Z</time>
      </trkpt>
      <trkpt lat="47.28699" lon="-1.54959">
        <ele>70</ele>
        <time>2021-03-20T12:15:16.000Z</time>
      </trkpt>
      <trkpt lat="47.28711" lon="-1.54957">
        <ele>70</ele>
        <time>2021-03-20T12:15:18.000Z</time>
      </trkpt>
      <trkpt lat="47.28723" lon="-1.54956">
        <ele>70</ele>
        <time>2021-03-20T12:15:20.000Z</time>
      </trkpt>
      <trkpt lat="47.28735" lon="-1.54954">
        <ele>70</ele>
        <time>2021-03-20T12:15:22.000Z</time>
      </trkpt>
      <trkpt lat="47.28747" lon="-1.54953">
        <ele>70</ele>
        <time>2021-03-20T12:15:24.000Z</time>
      </trkpt>
      <trkpt lat="47.28759" lon="-1.54951">
        <ele>71</ele>
        <time>2021-03-20T12:15:26.000Z</time>
      </trkpt>
      <trkpt lat="47.28771" lon="-1.5495">
        <ele>71</ele>
        <time>2021-03-20T12:15:28.000Z</time>
      </trkpt>
      <trkpt lat="47.28783" lon="-1.54948">
        <ele>71</ele>
        <time>2021-03-20T12:15:30.000Z</time>
      </trkpt>
      <trkpt lat="47.28794" lon="-1.54946">
        <ele>71</ele>
        <time>2021-03-20T12:15:32.000Z</time>
      </trkpt>
      <trkpt lat="47.28806" lon="-1.54944">
        <ele>70</ele>
        <time>2021-03-20T12:15:34.000Z</time>
      </trkpt>
      <trkpt lat="47.28817" lon="-1.54942">
        <ele>70</ele>
        <time>2021-03-20T12:15:36.000Z</time>
      </trkpt>
      <trkpt lat="47.28829" lon="-1.5494">
        <ele>71</ele>
        <time>2021-03-20T12:15:38.000Z</time>
      </trkpt>
      <trkpt lat="47.28846" lon="-1.54937">
        <ele>71</ele>
        <time>2021-03-20T12:15:41.000Z</time>
      </trkpt>
      <trkpt lat="47.28858" lon="-1.54934">
        <ele>71</ele>
        <time>2021-03-20T12:15:43.000Z</time>
      </trkpt>
      <trkpt lat="47.2887" lon="-1.54932">
        <ele>71</ele>
        <time>2021-03-20T12:15:45.000Z</time>
      </trkpt>
      <trkpt lat="47.28882" lon="-1.5493">
        <ele>71</ele>
        <time>2021-03-20T12:15:47.000Z</time>
      </trkpt>
      <trkpt lat="47.28893" lon="-1.54928">
        <ele>71</ele>
        <time>2021-03-20T12:15:49.000Z</time>
      </trkpt>
      <trkpt lat="47.28905" lon="-1.54926">
        <ele>71</ele>
        <time>2021-03-20T12:15:51.000Z</time>
      </trkpt>
      <trkpt lat="47.28916" lon="-1.54924">
        <ele>71</ele>
        <time>2021-03-20T12:15:53.000Z</time>
      </trkpt>
      <trkpt lat="47.28927" lon="-1.54921">
        <ele>71</ele>
        <time>2021-03-20T12:15:55.000Z</time>
      </trkpt>
      <trkpt lat="47.28939" lon="-1.5492">
        <ele>71</ele>
        <time>2021-03-20T12:15:57.000Z</time>
      </trkpt>
      <trkpt lat="47.2895" lon="-1.5492">
        <ele>70</ele>
        <time>2021-03-20T12:15:59.000Z</time>
      </trkpt>
      <trkpt lat="47.28961" lon="-1.54921">
        <ele>70</ele>
        <time>2021-03-20T12:16:01.000Z</time>
      </trkpt>
      <trkpt lat="47.28972" lon="-1.54922">
        <ele>70</ele>
        <time>2021-03-20T12:16:03.000Z</time>
      </trkpt>
      <trkpt lat="47.28985" lon="-1.54925">
        <ele>70</ele>
        <time>2021-03-20T12:16:05.000Z</time>
      </trkpt>
      <trkpt lat="47.28997" lon="-1.54923">
        <ele>69</ele>
        <time>2021-03-20T12:16:07.000Z</time>
      </trkpt>
      <trkpt lat="47.2901" lon="-1.54922">
        <ele>69</ele>
        <time>2021-03-20T12:16:09.000Z</time>
      </trkpt>
      <trkpt lat="47.29022" lon="-1.54924">
        <ele>70</ele>
        <time>2021-03-20T12:16:11.000Z</time>
      </trkpt>
      <trkpt lat="47.29031" lon="-1.54926">
        <ele>70</ele>
        <time>2021-03-20T12:16:13.000Z</time>
      </trkpt>
      <trkpt lat="47.29041" lon="-1.54917">
        <ele>71</ele>
        <time>2021-03-20T12:16:16.000Z</time>
      </trkpt>
      <trkpt lat="47.29055" lon="-1.54914">
        <ele>70</ele>
        <time>2021-03-20T12:16:19.000Z</time>
      </trkpt>
      <trkpt lat="47.29069" lon="-1.54911">
        <ele>70</ele>
        <time>2021-03-20T12:16:22.000Z</time>
      </trkpt>
      <trkpt lat="47.29079" lon="-1.54911">
        <ele>69</ele>
        <time>2021-03-20T12:16:24.000Z</time>
      </trkpt>
      <trkpt lat="47.29091" lon="-1.54911">
        <ele>69</ele>
        <time>2021-03-20T12:16:26.000Z</time>
      </trkpt>
      <trkpt lat="47.29102" lon="-1.54911">
        <ele>69</ele>
        <time>2021-03-20T12:16:28.000Z</time>
      </trkpt>
      <trkpt lat="47.29112" lon="-1.5491">
        <ele>69</ele>
        <time>2021-03-20T12:16:30.000Z</time>
      </trkpt>
      <trkpt lat="47.29123" lon="-1.54909">
        <ele>70</ele>
        <time>2021-03-20T12:16:32.000Z</time>
      </trkpt>
      <trkpt lat="47.29134" lon="-1.54909">
        <ele>70</ele>
        <time>2021-03-20T12:16:34.000Z</time>
      </trkpt>
      <trkpt lat="47.29146" lon="-1.54909">
        <ele>69</ele>
        <time>2021-03-20T12:16:36.000Z</time>
      </trkpt>
      <trkpt lat="47.29163" lon="-1.54907">
        <ele>69</ele>
        <time>2021-03-20T12:16:39.000Z</time>
      </trkpt>
      <trkpt lat="47.2918" lon="-1.54905">
        <ele>69</ele>
        <time>2021-03-20T12:16:42.000Z</time>
      </trkpt>
      <trkpt lat="47.29191" lon="-1.54903">
        <ele>69</ele>
        <time>2021-03-20T12:16:44.000Z</time>
      </trkpt>
      <trkpt lat="47.29202" lon="-1.54903">
        <ele>70</ele>
        <time>2021-03-20T12:16:46.000Z</time>
      </trkpt>
      <trkpt lat="47.29212" lon="-1.54903">
        <ele>70</ele>
        <time>2021-03-20T12:16:48.000Z</time>
      </trkpt>
      <trkpt lat="47.29223" lon="-1.54902">
        <ele>70</ele>
        <time>2021-03-20T12:16:50.000Z</time>
      </trkpt>
      <trkpt lat="47.29233" lon="-1.54904">
        <ele>71</ele>
        <time>2021-03-20T12:16:52.000Z</time>
      </trkpt>
      <trkpt lat="47.29245" lon="-1.54911">
        <ele>70</ele>
        <time>2021-03-20T12:16:55.000Z</time>
      </trkpt>
      <trkpt lat="47.29256" lon="-1.54913">
        <ele>71</ele>
        <time>2021-03-20T12:16:57.000Z</time>
      </trkpt>
      <trkpt lat="47.29272" lon="-1.54912">
        <ele>71</ele>
        <time>2021-03-20T12:17:00.000Z</time>
      </trkpt>
      <trkpt lat="47.29283" lon="-1.54911">
        <ele>72</ele>
        <time>2021-03-20T12:17:02.000Z</time>
      </trkpt>
      <trkpt lat="47.29294" lon="-1.54911">
        <ele>73</ele>
        <time>2021-03-20T12:17:04.000Z</time>
      </trkpt>
      <trkpt lat="47.29305" lon="-1.54912">
        <ele>74</ele>
        <time>2021-03-20T12:17:06.000Z</time>
      </trkpt>
      <trkpt lat="47.29315" lon="-1.54912">
        <ele>74</ele>
        <time>2021-03-20T12:17:08.000Z</time>
      </trkpt>
      <trkpt lat="47.29326" lon="-1.54912">
        <ele>75</ele>
        <time>2021-03-20T12:17:10.000Z</time>
      </trkpt>
      <trkpt lat="47.29336" lon="-1.5491">
        <ele>75</ele>
        <time>2021-03-20T12:17:12.000Z</time>
      </trkpt>
      <trkpt lat="47.29345" lon="-1.54905">
        <ele>75</ele>
        <time>2021-03-20T12:17:14.000Z</time>
      </trkpt>
      <trkpt lat="47.29353" lon="-1.54896">
        <ele>76</ele>
        <time>2021-03-20T12:17:16.000Z</time>
      </trkpt>
      <trkpt lat="47.29364" lon="-1.54891">
        <ele>76</ele>
        <time>2021-03-20T12:17:18.000Z</time>
      </trkpt>
      <trkpt lat="47.29374" lon="-1.5489">
        <ele>77</ele>
        <time>2021-03-20T12:17:20.000Z</time>
      </trkpt>
      <trkpt lat="47.29384" lon="-1.5489">
        <ele>77</ele>
        <time>2021-03-20T12:17:22.000Z</time>
      </trkpt>
      <trkpt lat="47.29395" lon="-1.54888">
        <ele>77</ele>
        <time>2021-03-20T12:17:24.000Z</time>
      </trkpt>
      <trkpt lat="47.29406" lon="-1.54888">
        <ele>77</ele>
        <time>2021-03-20T12:17:26.000Z</time>
      </trkpt>
      <trkpt lat="47.29417" lon="-1.54888">
        <ele>77</ele>
        <time>2021-03-20T12:17:28.000Z</time>
      </trkpt>
      <trkpt lat="47.29428" lon="-1.54887">
        <ele>77</ele>
        <time>2021-03-20T12:17:30.000Z</time>
      </trkpt>
      <trkpt lat="47.2944" lon="-1.54886">
        <ele>77</ele>
        <time>2021-03-20T12:17:32.000Z</time>
      </trkpt>
      <trkpt lat="47.29452" lon="-1.54886">
        <ele>76</ele>
        <time>2021-03-20T12:17:34.000Z</time>
      </trkpt>
      <trkpt lat="47.29464" lon="-1.54886">
        <ele>76</ele>
        <time>2021-03-20T12:17:36.000Z</time>
      </trkpt>
      <trkpt lat="47.29477" lon="-1.54888">
        <ele>75</ele>
        <time>2021-03-20T12:17:38.000Z</time>
      </trkpt>
      <trkpt lat="47.2949" lon="-1.5489">
        <ele>75</ele>
        <time>2021-03-20T12:17:40.000Z</time>
      </trkpt>
      <trkpt lat="47.29504" lon="-1.54889">
        <ele>75</ele>
        <time>2021-03-20T12:17:42.000Z</time>
      </trkpt>
      <trkpt lat="47.29518" lon="-1.54888">
        <ele>74</ele>
        <time>2021-03-20T12:17:44.000Z</time>
      </trkpt>
      <trkpt lat="47.29532" lon="-1.54887">
        <ele>74</ele>
        <time>2021-03-20T12:17:46.000Z</time>
      </trkpt>
      <trkpt lat="47.29545" lon="-1.54886">
        <ele>74</ele>
        <time>2021-03-20T12:17:48.000Z</time>
      </trkpt>
      <trkpt lat="47.29559" lon="-1.54886">
        <ele>74</ele>
        <time>2021-03-20T12:17:50.000Z</time>
      </trkpt>
      <trkpt lat="47.29572" lon="-1.54885">
        <ele>73</ele>
        <time>2021-03-20T12:17:52.000Z</time>
      </trkpt>
      <trkpt lat="47.29586" lon="-1.54884">
        <ele>73</ele>
        <time>2021-03-20T12:17:54.000Z</time>
      </trkpt>
      <trkpt lat="47.29599" lon="-1.54882">
        <ele>73</ele>
        <time>2021-03-20T12:17:56.000Z</time>
      </trkpt>
      <trkpt lat="47.2961" lon="-1.54876">
        <ele>73</ele>
        <time>2021-03-20T12:17:58.000Z</time>
      </trkpt>
      <trkpt lat="47.29622" lon="-1.54871">
        <ele>73</ele>
        <time>2021-03-20T12:18:00.000Z</time>
      </trkpt>
      <trkpt lat="47.29634" lon="-1.54868">
        <ele>73</ele>
        <time>2021-03-20T12:18:02.000Z</time>
      </trkpt>
      <trkpt lat="47.29652" lon="-1.54864">
        <ele>73</ele>
        <time>2021-03-20T12:18:05.000Z</time>
      </trkpt>
      <trkpt lat="47.29664" lon="-1.54862">
        <ele>72</ele>
        <time>2021-03-20T12:18:07.000Z</time>
      </trkpt>
      <trkpt lat="47.29676" lon="-1.54859">
        <ele>72</ele>
        <time>2021-03-20T12:18:09.000Z</time>
      </trkpt>
      <trkpt lat="47.29689" lon="-1.54857">
        <ele>72</ele>
        <time>2021-03-20T12:18:11.000Z</time>
      </trkpt>
      <trkpt lat="47.297" lon="-1.54854">
        <ele>72</ele>
        <time>2021-03-20T12:18:13.000Z</time>
      </trkpt>
      <trkpt lat="47.29711" lon="-1.54853">
        <ele>73</ele>
        <time>2021-03-20T12:18:15.000Z</time>
      </trkpt>
      <trkpt lat="47.2972" lon="-1.54854">
        <ele>73</ele>
        <time>2021-03-20T12:18:17.000Z</time>
      </trkpt>
      <trkpt lat="47.2973" lon="-1.54851">
        <ele>73</ele>
        <time>2021-03-20T12:18:19.000Z</time>
      </trkpt>
      <trkpt lat="47.2974" lon="-1.54847">
        <ele>72</ele>
        <time>2021-03-20T12:18:21.000Z</time>
      </trkpt>
      <trkpt lat="47.29753" lon="-1.54843">
        <ele>71</ele>
        <time>2021-03-20T12:18:23.000Z</time>
      </trkpt>
      <trkpt lat="47.29766" lon="-1.54839">
        <ele>71</ele>
        <time>2021-03-20T12:18:25.000Z</time>
      </trkpt>
      <trkpt lat="47.29787" lon="-1.54836">
        <ele>70</ele>
        <time>2021-03-20T12:18:28.000Z</time>
      </trkpt>
      <trkpt lat="47.29801" lon="-1.54839">
        <ele>70</ele>
        <time>2021-03-20T12:18:30.000Z</time>
      </trkpt>
      <trkpt lat="47.29816" lon="-1.54838">
        <ele>70</ele>
        <time>2021-03-20T12:18:32.000Z</time>
      </trkpt>
      <trkpt lat="47.2983" lon="-1.54834">
        <ele>70</ele>
        <time>2021-03-20T12:18:34.000Z</time>
      </trkpt>
      <trkpt lat="47.29844" lon="-1.54832">
        <ele>71</ele>
        <time>2021-03-20T12:18:36.000Z</time>
      </trkpt>
      <trkpt lat="47.29858" lon="-1.54828">
        <ele>70</ele>
        <time>2021-03-20T12:18:38.000Z</time>
      </trkpt>
      <trkpt lat="47.29873" lon="-1.54823">
        <ele>70</ele>
        <time>2021-03-20T12:18:40.000Z</time>
      </trkpt>
      <trkpt lat="47.29887" lon="-1.54819">
        <ele>69</ele>
        <time>2021-03-20T12:18:42.000Z</time>
      </trkpt>
      <trkpt lat="47.29901" lon="-1.54814">
        <ele>70</ele>
        <time>2021-03-20T12:18:44.000Z</time>
      </trkpt>
      <trkpt lat="47.29914" lon="-1.5481">
        <ele>71</ele>
        <time>2021-03-20T12:18:46.000Z</time>
      </trkpt>
      <trkpt lat="47.29926" lon="-1.54807">
        <ele>71</ele>
        <time>2021-03-20T12:18:48.000Z</time>
      </trkpt>
      <trkpt lat="47.29939" lon="-1.54802">
        <ele>72</ele>
        <time>2021-03-20T12:18:50.000Z</time>
      </trkpt>
      <trkpt lat="47.29953" lon="-1.54798">
        <ele>72</ele>
        <time>2021-03-20T12:18:52.000Z</time>
      </trkpt>
      <trkpt lat="47.29965" lon="-1.54794">
        <ele>72</ele>
        <time>2021-03-20T12:18:54.000Z</time>
      </trkpt>
      <trkpt lat="47.29979" lon="-1.54789">
        <ele>72</ele>
        <time>2021-03-20T12:18:56.000Z</time>
      </trkpt>
      <trkpt lat="47.29991" lon="-1.54785">
        <ele>72</ele>
        <time>2021-03-20T12:18:58.000Z</time>
      </trkpt>
      <trkpt lat="47.30005" lon="-1.5478">
        <ele>72</ele>
        <time>2021-03-20T12:19:00.000Z</time>
      </trkpt>
      <trkpt lat="47.30018" lon="-1.54776">
        <ele>72</ele>
        <time>2021-03-20T12:19:02.000Z</time>
      </trkpt>
      <trkpt lat="47.30031" lon="-1.54771">
        <ele>72</ele>
        <time>2021-03-20T12:19:04.000Z</time>
      </trkpt>
      <trkpt lat="47.30044" lon="-1.54766">
        <ele>72</ele>
        <time>2021-03-20T12:19:06.000Z</time>
      </trkpt>
      <trkpt lat="47.30056" lon="-1.54761">
        <ele>72</ele>
        <time>2021-03-20T12:19:08.000Z</time>
      </trkpt>
      <trkpt lat="47.30069" lon="-1.54756">
        <ele>71</ele>
        <time>2021-03-20T12:19:10.000Z</time>
      </trkpt>
      <trkpt lat="47.30081" lon="-1.54751">
        <ele>70</ele>
        <time>2021-03-20T12:19:12.000Z</time>
      </trkpt>
      <trkpt lat="47.30094" lon="-1.54745">
        <ele>70</ele>
        <time>2021-03-20T12:19:14.000Z</time>
      </trkpt>
      <trkpt lat="47.30107" lon="-1.54738">
        <ele>70</ele>
        <time>2021-03-20T12:19:16.000Z</time>
      </trkpt>
      <trkpt lat="47.3012" lon="-1.54732">
        <ele>70</ele>
        <time>2021-03-20T12:19:18.000Z</time>
      </trkpt>
      <trkpt lat="47.30133" lon="-1.54725">
        <ele>70</ele>
        <time>2021-03-20T12:19:20.000Z</time>
      </trkpt>
      <trkpt lat="47.30145" lon="-1.54718">
        <ele>69</ele>
        <time>2021-03-20T12:19:22.000Z</time>
      </trkpt>
      <trkpt lat="47.30158" lon="-1.54711">
        <ele>69</ele>
        <time>2021-03-20T12:19:24.000Z</time>
      </trkpt>
      <trkpt lat="47.30171" lon="-1.54705">
        <ele>69</ele>
        <time>2021-03-20T12:19:26.000Z</time>
      </trkpt>
      <trkpt lat="47.30183" lon="-1.54697">
        <ele>68</ele>
        <time>2021-03-20T12:19:28.000Z</time>
      </trkpt>
      <trkpt lat="47.30196" lon="-1.5469">
        <ele>68</ele>
        <time>2021-03-20T12:19:30.000Z</time>
      </trkpt>
      <trkpt lat="47.30209" lon="-1.54683">
        <ele>67</ele>
        <time>2021-03-20T12:19:32.000Z</time>
      </trkpt>
      <trkpt lat="47.30222" lon="-1.54676">
        <ele>66</ele>
        <time>2021-03-20T12:19:34.000Z</time>
      </trkpt>
      <trkpt lat="47.30235" lon="-1.54669">
        <ele>66</ele>
        <time>2021-03-20T12:19:36.000Z</time>
      </trkpt>
      <trkpt lat="47.30248" lon="-1.54663">
        <ele>65</ele>
        <time>2021-03-20T12:19:38.000Z</time>
      </trkpt>
      <trkpt lat="47.30262" lon="-1.54655">
        <ele>65</ele>
        <time>2021-03-20T12:19:40.000Z</time>
      </trkpt>
      <trkpt lat="47.30274" lon="-1.54648">
        <ele>65</ele>
        <time>2021-03-20T12:19:42.000Z</time>
      </trkpt>
      <trkpt lat="47.30288" lon="-1.54649">
        <ele>65</ele>
        <time>2021-03-20T12:19:44.000Z</time>
      </trkpt>
      <trkpt lat="47.30302" lon="-1.54657">
        <ele>66</ele>
        <time>2021-03-20T12:19:46.000Z</time>
      </trkpt>
      <trkpt lat="47.30314" lon="-1.54663">
        <ele>66</ele>
        <time>2021-03-20T12:19:48.000Z</time>
      </trkpt>
      <trkpt lat="47.30327" lon="-1.54665">
        <ele>66</ele>
        <time>2021-03-20T12:19:50.000Z</time>
      </trkpt>
      <trkpt lat="47.30339" lon="-1.54661">
        <ele>66</ele>
        <time>2021-03-20T12:19:52.000Z</time>
      </trkpt>
      <trkpt lat="47.30352" lon="-1.54656">
        <ele>66</ele>
        <time>2021-03-20T12:19:54.000Z</time>
      </trkpt>
      <trkpt lat="47.30365" lon="-1.54649">
        <ele>65</ele>
        <time>2021-03-20T12:19:56.000Z</time>
      </trkpt>
      <trkpt lat="47.30374" lon="-1.54636">
        <ele>65</ele>
        <time>2021-03-20T12:19:58.000Z</time>
      </trkpt>
      <trkpt lat="47.30382" lon="-1.54621">
        <ele>64</ele>
        <time>2021-03-20T12:20:00.000Z</time>
      </trkpt>
      <trkpt lat="47.30392" lon="-1.54607">
        <ele>64</ele>
        <time>2021-03-20T12:20:02.000Z</time>
      </trkpt>
      <trkpt lat="47.30403" lon="-1.54594">
        <ele>65</ele>
        <time>2021-03-20T12:20:04.000Z</time>
      </trkpt>
      <trkpt lat="47.30412" lon="-1.54582">
        <ele>66</ele>
        <time>2021-03-20T12:20:06.000Z</time>
      </trkpt>
      <trkpt lat="47.30422" lon="-1.54573">
        <ele>67</ele>
        <time>2021-03-20T12:20:08.000Z</time>
      </trkpt>
      <trkpt lat="47.30433" lon="-1.54566">
        <ele>67</ele>
        <time>2021-03-20T12:20:10.000Z</time>
      </trkpt>
      <trkpt lat="47.30442" lon="-1.54558">
        <ele>67</ele>
        <time>2021-03-20T12:20:12.000Z</time>
      </trkpt>
      <trkpt lat="47.30452" lon="-1.54551">
        <ele>67</ele>
        <time>2021-03-20T12:20:14.000Z</time>
      </trkpt>
      <trkpt lat="47.30462" lon="-1.54543">
        <ele>68</ele>
        <time>2021-03-20T12:20:16.000Z</time>
      </trkpt>
      <trkpt lat="47.30472" lon="-1.54535">
        <ele>68</ele>
        <time>2021-03-20T12:20:18.000Z</time>
      </trkpt>
      <trkpt lat="47.30481" lon="-1.54529">
        <ele>68</ele>
        <time>2021-03-20T12:20:20.000Z</time>
      </trkpt>
      <trkpt lat="47.30491" lon="-1.54522">
        <ele>69</ele>
        <time>2021-03-20T12:20:22.000Z</time>
      </trkpt>
      <trkpt lat="47.305" lon="-1.54514">
        <ele>69</ele>
        <time>2021-03-20T12:20:24.000Z</time>
      </trkpt>
      <trkpt lat="47.3051" lon="-1.54507">
        <ele>69</ele>
        <time>2021-03-20T12:20:26.000Z</time>
      </trkpt>
      <trkpt lat="47.3052" lon="-1.545">
        <ele>69</ele>
        <time>2021-03-20T12:20:28.000Z</time>
      </trkpt>
      <trkpt lat="47.30529" lon="-1.54493">
        <ele>70</ele>
        <time>2021-03-20T12:20:30.000Z</time>
      </trkpt>
      <trkpt lat="47.30539" lon="-1.54485">
        <ele>70</ele>
        <time>2021-03-20T12:20:32.000Z</time>
      </trkpt>
      <trkpt lat="47.30548" lon="-1.54477">
        <ele>70</ele>
        <time>2021-03-20T12:20:34.000Z</time>
      </trkpt>
      <trkpt lat="47.30557" lon="-1.54469">
        <ele>70</ele>
        <time>2021-03-20T12:20:36.000Z</time>
      </trkpt>
      <trkpt lat="47.30566" lon="-1.54461">
        <ele>70</ele>
        <time>2021-03-20T12:20:38.000Z</time>
      </trkpt>
      <trkpt lat="47.30574" lon="-1.54453">
        <ele>71</ele>
        <time>2021-03-20T12:20:40.000Z</time>
      </trkpt>
      <trkpt lat="47.30583" lon="-1.54445">
        <ele>71</ele>
        <time>2021-03-20T12:20:42.000Z</time>
      </trkpt>
      <trkpt lat="47.30593" lon="-1.54436">
        <ele>70</ele>
        <time>2021-03-20T12:20:44.000Z</time>
      </trkpt>
      <trkpt lat="47.30603" lon="-1.54428">
        <ele>70</ele>
        <time>2021-03-20T12:20:46.000Z</time>
      </trkpt>
      <trkpt lat="47.30612" lon="-1.54418">
        <ele>70</ele>
        <time>2021-03-20T12:20:48.000Z</time>
      </trkpt>
      <trkpt lat="47.30621" lon="-1.5441">
        <ele>70</ele>
        <time>2021-03-20T12:20:50.000Z</time>
      </trkpt>
      <trkpt lat="47.30632" lon="-1.54401">
        <ele>70</ele>
        <time>2021-03-20T12:20:52.000Z</time>
      </trkpt>
      <trkpt lat="47.30642" lon="-1.54392">
        <ele>70</ele>
        <time>2021-03-20T12:20:54.000Z</time>
      </trkpt>
      <trkpt lat="47.30651" lon="-1.54383">
        <ele>70</ele>
        <time>2021-03-20T12:20:56.000Z</time>
      </trkpt>
      <trkpt lat="47.30661" lon="-1.54374">
        <ele>70</ele>
        <time>2021-03-20T12:20:58.000Z</time>
      </trkpt>
      <trkpt lat="47.30671" lon="-1.54366">
        <ele>69</ele>
        <time>2021-03-20T12:21:00.000Z</time>
      </trkpt>
      <trkpt lat="47.30681" lon="-1.54358">
        <ele>69</ele>
        <time>2021-03-20T12:21:02.000Z</time>
      </trkpt>
      <trkpt lat="47.3069" lon="-1.5435">
        <ele>69</ele>
        <time>2021-03-20T12:21:04.000Z</time>
      </trkpt>
      <trkpt lat="47.307" lon="-1.54341">
        <ele>69</ele>
        <time>2021-03-20T12:21:06.000Z</time>
      </trkpt>
      <trkpt lat="47.3071" lon="-1.54332">
        <ele>69</ele>
        <time>2021-03-20T12:21:08.000Z</time>
      </trkpt>
      <trkpt lat="47.30721" lon="-1.54323">
        <ele>68</ele>
        <time>2021-03-20T12:21:10.000Z</time>
      </trkpt>
      <trkpt lat="47.30732" lon="-1.54314">
        <ele>68</ele>
        <time>2021-03-20T12:21:12.000Z</time>
      </trkpt>
      <trkpt lat="47.30744" lon="-1.54306">
        <ele>67</ele>
        <time>2021-03-20T12:21:14.000Z</time>
      </trkpt>
      <trkpt lat="47.30755" lon="-1.54298">
        <ele>67</ele>
        <time>2021-03-20T12:21:16.000Z</time>
      </trkpt>
      <trkpt lat="47.30768" lon="-1.54296">
        <ele>67</ele>
        <time>2021-03-20T12:21:18.000Z</time>
      </trkpt>
      <trkpt lat="47.3078" lon="-1.54299">
        <ele>66</ele>
        <time>2021-03-20T12:21:20.000Z</time>
      </trkpt>
      <trkpt lat="47.30791" lon="-1.54301">
        <ele>66</ele>
        <time>2021-03-20T12:21:22.000Z</time>
      </trkpt>
      <trkpt lat="47.30801" lon="-1.54302">
        <ele>65</ele>
        <time>2021-03-20T12:21:24.000Z</time>
      </trkpt>
      <trkpt lat="47.30812" lon="-1.54297">
        <ele>64</ele>
        <time>2021-03-20T12:21:26.000Z</time>
      </trkpt>
      <trkpt lat="47.30823" lon="-1.54292">
        <ele>64</ele>
        <time>2021-03-20T12:21:28.000Z</time>
      </trkpt>
      <trkpt lat="47.30836" lon="-1.54287">
        <ele>64</ele>
        <time>2021-03-20T12:21:30.000Z</time>
      </trkpt>
      <trkpt lat="47.30847" lon="-1.54279">
        <ele>63</ele>
        <time>2021-03-20T12:21:32.000Z</time>
      </trkpt>
      <trkpt lat="47.30859" lon="-1.54271">
        <ele>63</ele>
        <time>2021-03-20T12:21:34.000Z</time>
      </trkpt>
      <trkpt lat="47.30873" lon="-1.54266">
        <ele>63</ele>
        <time>2021-03-20T12:21:36.000Z</time>
      </trkpt>
      <trkpt lat="47.30887" lon="-1.54266">
        <ele>62</ele>
        <time>2021-03-20T12:21:38.000Z</time>
      </trkpt>
      <trkpt lat="47.30901" lon="-1.54267">
        <ele>62</ele>
        <time>2021-03-20T12:21:40.000Z</time>
      </trkpt>
      <trkpt lat="47.30915" lon="-1.54268">
        <ele>61</ele>
        <time>2021-03-20T12:21:42.000Z</time>
      </trkpt>
      <trkpt lat="47.3093" lon="-1.54268">
        <ele>61</ele>
        <time>2021-03-20T12:21:44.000Z</time>
      </trkpt>
      <trkpt lat="47.30945" lon="-1.54273">
        <ele>61</ele>
        <time>2021-03-20T12:21:46.000Z</time>
      </trkpt>
      <trkpt lat="47.30958" lon="-1.54283">
        <ele>60</ele>
        <time>2021-03-20T12:21:48.000Z</time>
      </trkpt>
      <trkpt lat="47.30972" lon="-1.54288">
        <ele>60</ele>
        <time>2021-03-20T12:21:50.000Z</time>
      </trkpt>
      <trkpt lat="47.30987" lon="-1.54282">
        <ele>59</ele>
        <time>2021-03-20T12:21:52.000Z</time>
      </trkpt>
      <trkpt lat="47.31003" lon="-1.54278">
        <ele>59</ele>
        <time>2021-03-20T12:21:54.000Z</time>
      </trkpt>
      <trkpt lat="47.31019" lon="-1.54279">
        <ele>58</ele>
        <time>2021-03-20T12:21:56.000Z</time>
      </trkpt>
      <trkpt lat="47.31034" lon="-1.54282">
        <ele>57</ele>
        <time>2021-03-20T12:21:58.000Z</time>
      </trkpt>
      <trkpt lat="47.3105" lon="-1.54283">
        <ele>57</ele>
        <time>2021-03-20T12:22:00.000Z</time>
      </trkpt>
      <trkpt lat="47.31064" lon="-1.54285">
        <ele>57</ele>
        <time>2021-03-20T12:22:02.000Z</time>
      </trkpt>
      <trkpt lat="47.31079" lon="-1.54287">
        <ele>57</ele>
        <time>2021-03-20T12:22:04.000Z</time>
      </trkpt>
      <trkpt lat="47.31093" lon="-1.54288">
        <ele>56</ele>
        <time>2021-03-20T12:22:06.000Z</time>
      </trkpt>
      <trkpt lat="47.31107" lon="-1.54289">
        <ele>56</ele>
        <time>2021-03-20T12:22:08.000Z</time>
      </trkpt>
      <trkpt lat="47.31121" lon="-1.54289">
        <ele>55</ele>
        <time>2021-03-20T12:22:10.000Z</time>
      </trkpt>
      <trkpt lat="47.31136" lon="-1.54288">
        <ele>55</ele>
        <time>2021-03-20T12:22:12.000Z</time>
      </trkpt>
      <trkpt lat="47.3115" lon="-1.54288">
        <ele>55</ele>
        <time>2021-03-20T12:22:14.000Z</time>
      </trkpt>
      <trkpt lat="47.31164" lon="-1.54289">
        <ele>55</ele>
        <time>2021-03-20T12:22:16.000Z</time>
      </trkpt>
      <trkpt lat="47.31176" lon="-1.54291">
        <ele>55</ele>
        <time>2021-03-20T12:22:18.000Z</time>
      </trkpt>
      <trkpt lat="47.31189" lon="-1.54294">
        <ele>55</ele>
        <time>2021-03-20T12:22:20.000Z</time>
      </trkpt>
      <trkpt lat="47.31201" lon="-1.54301">
        <ele>55</ele>
        <time>2021-03-20T12:22:22.000Z</time>
      </trkpt>
      <trkpt lat="47.3121" lon="-1.54314">
        <ele>55</ele>
        <time>2021-03-20T12:22:24.000Z</time>
      </trkpt>
      <trkpt lat="47.3122" lon="-1.54324">
        <ele>54</ele>
        <time>2021-03-20T12:22:26.000Z</time>
      </trkpt>
      <trkpt lat="47.31232" lon="-1.54326">
        <ele>54</ele>
        <time>2021-03-20T12:22:28.000Z</time>
      </trkpt>
      <trkpt lat="47.31243" lon="-1.54318">
        <ele>54</ele>
        <time>2021-03-20T12:22:30.000Z</time>
      </trkpt>
      <trkpt lat="47.31252" lon="-1.54308">
        <ele>53</ele>
        <time>2021-03-20T12:22:32.000Z</time>
      </trkpt>
      <trkpt lat="47.31264" lon="-1.54303">
        <ele>53</ele>
        <time>2021-03-20T12:22:34.000Z</time>
      </trkpt>
      <trkpt lat="47.31276" lon="-1.54301">
        <ele>54</ele>
        <time>2021-03-20T12:22:36.000Z</time>
      </trkpt>
      <trkpt lat="47.31288" lon="-1.54301">
        <ele>53</ele>
        <time>2021-03-20T12:22:38.000Z</time>
      </trkpt>
      <trkpt lat="47.313" lon="-1.54301">
        <ele>53</ele>
        <time>2021-03-20T12:22:40.000Z</time>
      </trkpt>
      <trkpt lat="47.31313" lon="-1.54302">
        <ele>53</ele>
        <time>2021-03-20T12:22:42.000Z</time>
      </trkpt>
      <trkpt lat="47.31325" lon="-1.54303">
        <ele>53</ele>
        <time>2021-03-20T12:22:44.000Z</time>
      </trkpt>
      <trkpt lat="47.31337" lon="-1.54305">
        <ele>53</ele>
        <time>2021-03-20T12:22:46.000Z</time>
      </trkpt>
      <trkpt lat="47.31348" lon="-1.5431">
        <ele>53</ele>
        <time>2021-03-20T12:22:48.000Z</time>
      </trkpt>
      <trkpt lat="47.3136" lon="-1.54314">
        <ele>52</ele>
        <time>2021-03-20T12:22:50.000Z</time>
      </trkpt>
      <trkpt lat="47.31372" lon="-1.54314">
        <ele>52</ele>
        <time>2021-03-20T12:22:52.000Z</time>
      </trkpt>
      <trkpt lat="47.31384" lon="-1.54314">
        <ele>53</ele>
        <time>2021-03-20T12:22:54.000Z</time>
      </trkpt>
      <trkpt lat="47.31396" lon="-1.54315">
        <ele>52</ele>
        <time>2021-03-20T12:22:56.000Z</time>
      </trkpt>
      <trkpt lat="47.31408" lon="-1.54316">
        <ele>53</ele>
        <time>2021-03-20T12:22:58.000Z</time>
      </trkpt>
      <trkpt lat="47.3142" lon="-1.54317">
        <ele>53</ele>
        <time>2021-03-20T12:23:00.000Z</time>
      </trkpt>
      <trkpt lat="47.31432" lon="-1.54319">
        <ele>53</ele>
        <time>2021-03-20T12:23:02.000Z</time>
      </trkpt>
      <trkpt lat="47.31444" lon="-1.54323">
        <ele>53</ele>
        <time>2021-03-20T12:23:04.000Z</time>
      </trkpt>
      <trkpt lat="47.31455" lon="-1.54325">
        <ele>53</ele>
        <time>2021-03-20T12:23:06.000Z</time>
      </trkpt>
      <trkpt lat="47.31467" lon="-1.54326">
        <ele>53</ele>
        <time>2021-03-20T12:23:08.000Z</time>
      </trkpt>
      <trkpt lat="47.3148" lon="-1.54327">
        <ele>54</ele>
        <time>2021-03-20T12:23:10.000Z</time>
      </trkpt>
      <trkpt lat="47.31492" lon="-1.54329">
        <ele>53</ele>
        <time>2021-03-20T12:23:12.000Z</time>
      </trkpt>
      <trkpt lat="47.31504" lon="-1.54329">
        <ele>54</ele>
        <time>2021-03-20T12:23:14.000Z</time>
      </trkpt>
      <trkpt lat="47.31515" lon="-1.54322">
        <ele>53</ele>
        <time>2021-03-20T12:23:16.000Z</time>
      </trkpt>
      <trkpt lat="47.31527" lon="-1.54321">
        <ele>54</ele>
        <time>2021-03-20T12:23:18.000Z</time>
      </trkpt>
      <trkpt lat="47.3154" lon="-1.54322">
        <ele>53</ele>
        <time>2021-03-20T12:23:20.000Z</time>
      </trkpt>
      <trkpt lat="47.31552" lon="-1.54322">
        <ele>53</ele>
        <time>2021-03-20T12:23:22.000Z</time>
      </trkpt>
      <trkpt lat="47.31564" lon="-1.54322">
        <ele>54</ele>
        <time>2021-03-20T12:23:24.000Z</time>
      </trkpt>
      <trkpt lat="47.31576" lon="-1.54322">
        <ele>54</ele>
        <time>2021-03-20T12:23:26.000Z</time>
      </trkpt>
      <trkpt lat="47.31587" lon="-1.54322">
        <ele>54</ele>
        <time>2021-03-20T12:23:28.000Z</time>
      </trkpt>
      <trkpt lat="47.31598" lon="-1.54323">
        <ele>54</ele>
        <time>2021-03-20T12:23:30.000Z</time>
      </trkpt>
      <trkpt lat="47.31609" lon="-1.54323">
        <ele>54</ele>
        <time>2021-03-20T12:23:32.000Z</time>
      </trkpt>
      <trkpt lat="47.31619" lon="-1.54318">
        <ele>54</ele>
        <time>2021-03-20T12:23:34.000Z</time>
      </trkpt>
      <trkpt lat="47.3163" lon="-1.54314">
        <ele>53</ele>
        <time>2021-03-20T12:23:36.000Z</time>
      </trkpt>
      <trkpt lat="47.31639" lon="-1.54303">
        <ele>52</ele>
        <time>2021-03-20T12:23:38.000Z</time>
      </trkpt>
      <trkpt lat="47.31648" lon="-1.54292">
        <ele>52</ele>
        <time>2021-03-20T12:23:40.000Z</time>
      </trkpt>
      <trkpt lat="47.31658" lon="-1.54284">
        <ele>52</ele>
        <time>2021-03-20T12:23:42.000Z</time>
      </trkpt>
      <trkpt lat="47.31669" lon="-1.54277">
        <ele>52</ele>
        <time>2021-03-20T12:23:44.000Z</time>
      </trkpt>
      <trkpt lat="47.31679" lon="-1.54271">
        <ele>52</ele>
        <time>2021-03-20T12:23:46.000Z</time>
      </trkpt>
      <trkpt lat="47.31689" lon="-1.54263">
        <ele>53</ele>
        <time>2021-03-20T12:23:48.000Z</time>
      </trkpt>
      <trkpt lat="47.31699" lon="-1.54255">
        <ele>53</ele>
        <time>2021-03-20T12:23:50.000Z</time>
      </trkpt>
      <trkpt lat="47.31709" lon="-1.54246">
        <ele>53</ele>
        <time>2021-03-20T12:23:52.000Z</time>
      </trkpt>
      <trkpt lat="47.31718" lon="-1.54237">
        <ele>53</ele>
        <time>2021-03-20T12:23:54.000Z</time>
      </trkpt>
      <trkpt lat="47.31728" lon="-1.54227">
        <ele>53</ele>
        <time>2021-03-20T12:23:56.000Z</time>
      </trkpt>
      <trkpt lat="47.31737" lon="-1.54217">
        <ele>53</ele>
        <time>2021-03-20T12:23:58.000Z</time>
      </trkpt>
      <trkpt lat="47.31746" lon="-1.54206">
        <ele>53</ele>
        <time>2021-03-20T12:24:00.000Z</time>
      </trkpt>
      <trkpt lat="47.31755" lon="-1.54198">
        <ele>53</ele>
        <time>2021-03-20T12:24:02.000Z</time>
      </trkpt>
      <trkpt lat="47.31764" lon="-1.54187">
        <ele>53</ele>
        <time>2021-03-20T12:24:04.000Z</time>
      </trkpt>
      <trkpt lat="47.31771" lon="-1.54174">
        <ele>53</ele>
        <time>2021-03-20T12:24:06.000Z</time>
      </trkpt>
      <trkpt lat="47.31779" lon="-1.54162">
        <ele>53</ele>
        <time>2021-03-20T12:24:08.000Z</time>
      </trkpt>
      <trkpt lat="47.31787" lon="-1.54147">
        <ele>53</ele>
        <time>2021-03-20T12:24:10.000Z</time>
      </trkpt>
      <trkpt lat="47.31793" lon="-1.54134">
        <ele>53</ele>
        <time>2021-03-20T12:24:12.000Z</time>
      </trkpt>
      <trkpt lat="47.318" lon="-1.54121">
        <ele>52</ele>
        <time>2021-03-20T12:24:14.000Z</time>
      </trkpt>
      <trkpt lat="47.31807" lon="-1.54108">
        <ele>53</ele>
        <time>2021-03-20T12:24:16.000Z</time>
      </trkpt>
      <trkpt lat="47.31815" lon="-1.54095">
        <ele>53</ele>
        <time>2021-03-20T12:24:18.000Z</time>
      </trkpt>
      <trkpt lat="47.31822" lon="-1.54082">
        <ele>53</ele>
        <time>2021-03-20T12:24:20.000Z</time>
      </trkpt>
      <trkpt lat="47.31828" lon="-1.54069">
        <ele>53</ele>
        <time>2021-03-20T12:24:22.000Z</time>
      </trkpt>
      <trkpt lat="47.31834" lon="-1.54056">
        <ele>52</ele>
        <time>2021-03-20T12:24:24.000Z</time>
      </trkpt>
      <trkpt lat="47.3184" lon="-1.54043">
        <ele>52</ele>
        <time>2021-03-20T12:24:26.000Z</time>
      </trkpt>
      <trkpt lat="47.31846" lon="-1.54031">
        <ele>52</ele>
        <time>2021-03-20T12:24:28.000Z</time>
      </trkpt>
      <trkpt lat="47.31852" lon="-1.54019">
        <ele>52</ele>
        <time>2021-03-20T12:24:30.000Z</time>
      </trkpt>
      <trkpt lat="47.31858" lon="-1.54007">
        <ele>52</ele>
        <time>2021-03-20T12:24:32.000Z</time>
      </trkpt>
      <trkpt lat="47.31864" lon="-1.53995">
        <ele>52</ele>
        <time>2021-03-20T12:24:34.000Z</time>
      </trkpt>
      <trkpt lat="47.3187" lon="-1.53982">
        <ele>52</ele>
        <time>2021-03-20T12:24:36.000Z</time>
      </trkpt>
      <trkpt lat="47.31876" lon="-1.5397">
        <ele>52</ele>
        <time>2021-03-20T12:24:38.000Z</time>
      </trkpt>
      <trkpt lat="47.31883" lon="-1.53957">
        <ele>52</ele>
        <time>2021-03-20T12:24:40.000Z</time>
      </trkpt>
      <trkpt lat="47.31889" lon="-1.53944">
        <ele>52</ele>
        <time>2021-03-20T12:24:42.000Z</time>
      </trkpt>
      <trkpt lat="47.31895" lon="-1.53932">
        <ele>52</ele>
        <time>2021-03-20T12:24:44.000Z</time>
      </trkpt>
      <trkpt lat="47.31901" lon="-1.5392">
        <ele>52</ele>
        <time>2021-03-20T12:24:46.000Z</time>
      </trkpt>
      <trkpt lat="47.31907" lon="-1.53908">
        <ele>52</ele>
        <time>2021-03-20T12:24:48.000Z</time>
      </trkpt>
      <trkpt lat="47.31913" lon="-1.53895">
        <ele>52</ele>
        <time>2021-03-20T12:24:50.000Z</time>
      </trkpt>
      <trkpt lat="47.31919" lon="-1.53883">
        <ele>52</ele>
        <time>2021-03-20T12:24:52.000Z</time>
      </trkpt>
      <trkpt lat="47.31925" lon="-1.53871">
        <ele>53</ele>
        <time>2021-03-20T12:24:54.000Z</time>
      </trkpt>
      <trkpt lat="47.31932" lon="-1.53859">
        <ele>53</ele>
        <time>2021-03-20T12:24:56.000Z</time>
      </trkpt>
      <trkpt lat="47.31939" lon="-1.53847">
        <ele>53</ele>
        <time>2021-03-20T12:24:58.000Z</time>
      </trkpt>
      <trkpt lat="47.31946" lon="-1.53834">
        <ele>54</ele>
        <time>2021-03-20T12:25:00.000Z</time>
      </trkpt>
      <trkpt lat="47.31951" lon="-1.53821">
        <ele>54</ele>
        <time>2021-03-20T12:25:02.000Z</time>
      </trkpt>
      <trkpt lat="47.31957" lon="-1.53808">
        <ele>54</ele>
        <time>2021-03-20T12:25:04.000Z</time>
      </trkpt>
      <trkpt lat="47.31963" lon="-1.53795">
        <ele>54</ele>
        <time>2021-03-20T12:25:06.000Z</time>
      </trkpt>
      <trkpt lat="47.31969" lon="-1.53783">
        <ele>54</ele>
        <time>2021-03-20T12:25:08.000Z</time>
      </trkpt>
      <trkpt lat="47.31977" lon="-1.53772">
        <ele>54</ele>
        <time>2021-03-20T12:25:10.000Z</time>
      </trkpt>
      <trkpt lat="47.31986" lon="-1.53765">
        <ele>54</ele>
        <time>2021-03-20T12:25:12.000Z</time>
      </trkpt>
      <trkpt lat="47.31995" lon="-1.53755">
        <ele>54</ele>
        <time>2021-03-20T12:25:14.000Z</time>
      </trkpt>
      <trkpt lat="47.32001" lon="-1.53742">
        <ele>56</ele>
        <time>2021-03-20T12:25:16.000Z</time>
      </trkpt>
      <trkpt lat="47.3201" lon="-1.53734">
        <ele>56</ele>
        <time>2021-03-20T12:25:18.000Z</time>
      </trkpt>
      <trkpt lat="47.32019" lon="-1.53727">
        <ele>56</ele>
        <time>2021-03-20T12:25:20.000Z</time>
      </trkpt>
      <trkpt lat="47.32028" lon="-1.5372">
        <ele>56</ele>
        <time>2021-03-20T12:25:22.000Z</time>
      </trkpt>
      <trkpt lat="47.32038" lon="-1.53713">
        <ele>56</ele>
        <time>2021-03-20T12:25:24.000Z</time>
      </trkpt>
      <trkpt lat="47.32047" lon="-1.53703">
        <ele>56</ele>
        <time>2021-03-20T12:25:26.000Z</time>
      </trkpt>
      <trkpt lat="47.32055" lon="-1.53692">
        <ele>56</ele>
        <time>2021-03-20T12:25:28.000Z</time>
      </trkpt>
      <trkpt lat="47.32061" lon="-1.53679">
        <ele>56</ele>
        <time>2021-03-20T12:25:30.000Z</time>
      </trkpt>
      <trkpt lat="47.32065" lon="-1.53665">
        <ele>57</ele>
        <time>2021-03-20T12:25:32.000Z</time>
      </trkpt>
      <trkpt lat="47.32067" lon="-1.5365">
        <ele>57</ele>
        <time>2021-03-20T12:25:34.000Z</time>
      </trkpt>
      <trkpt lat="47.32069" lon="-1.53635">
        <ele>56</ele>
        <time>2021-03-20T12:25:36.000Z</time>
      </trkpt>
      <trkpt lat="47.32074" lon="-1.53622">
        <ele>56</ele>
        <time>2021-03-20T12:25:38.000Z</time>
      </trkpt>
      <trkpt lat="47.32082" lon="-1.53611">
        <ele>56</ele>
        <time>2021-03-20T12:25:40.000Z</time>
      </trkpt>
      <trkpt lat="47.32091" lon="-1.53604">
        <ele>57</ele>
        <time>2021-03-20T12:25:42.000Z</time>
      </trkpt>
      <trkpt lat="47.321" lon="-1.53596">
        <ele>57</ele>
        <time>2021-03-20T12:25:44.000Z</time>
      </trkpt>
      <trkpt lat="47.32109" lon="-1.5359">
        <ele>57</ele>
        <time>2021-03-20T12:25:46.000Z</time>
      </trkpt>
      <trkpt lat="47.32119" lon="-1.53586">
        <ele>58</ele>
        <time>2021-03-20T12:25:48.000Z</time>
      </trkpt>
      <trkpt lat="47.32128" lon="-1.53584">
        <ele>58</ele>
        <time>2021-03-20T12:25:50.000Z</time>
      </trkpt>
      <trkpt lat="47.32138" lon="-1.53583">
        <ele>58</ele>
        <time>2021-03-20T12:25:52.000Z</time>
      </trkpt>
      <trkpt lat="47.32149" lon="-1.53582">
        <ele>58</ele>
        <time>2021-03-20T12:25:54.000Z</time>
      </trkpt>
      <trkpt lat="47.3216" lon="-1.53582">
        <ele>58</ele>
        <time>2021-03-20T12:25:56.000Z</time>
      </trkpt>
      <trkpt lat="47.3217" lon="-1.53582">
        <ele>58</ele>
        <time>2021-03-20T12:25:58.000Z</time>
      </trkpt>
      <trkpt lat="47.32181" lon="-1.53582">
        <ele>58</ele>
        <time>2021-03-20T12:26:00.000Z</time>
      </trkpt>
      <trkpt lat="47.32192" lon="-1.53582">
        <ele>59</ele>
        <time>2021-03-20T12:26:02.000Z</time>
      </trkpt>
      <trkpt lat="47.32202" lon="-1.53581">
        <ele>59</ele>
        <time>2021-03-20T12:26:04.000Z</time>
      </trkpt>
      <trkpt lat="47.32212" lon="-1.53579">
        <ele>59</ele>
        <time>2021-03-20T12:26:06.000Z</time>
      </trkpt>
      <trkpt lat="47.32223" lon="-1.53578">
        <ele>59</ele>
        <time>2021-03-20T12:26:08.000Z</time>
      </trkpt>
      <trkpt lat="47.32233" lon="-1.5358">
        <ele>59</ele>
        <time>2021-03-20T12:26:10.000Z</time>
      </trkpt>
      <trkpt lat="47.32243" lon="-1.53573">
        <ele>59</ele>
        <time>2021-03-20T12:26:12.000Z</time>
      </trkpt>
      <trkpt lat="47.3225" lon="-1.5356">
        <ele>58</ele>
        <time>2021-03-20T12:26:14.000Z</time>
      </trkpt>
      <trkpt lat="47.32251" lon="-1.53543">
        <ele>58</ele>
        <time>2021-03-20T12:26:16.000Z</time>
      </trkpt>
      <trkpt lat="47.32251" lon="-1.53529">
        <ele>57</ele>
        <time>2021-03-20T12:26:18.000Z</time>
      </trkpt>
      <trkpt lat="47.32249" lon="-1.53511">
        <ele>57</ele>
        <time>2021-03-20T12:26:21.000Z</time>
      </trkpt>
      <trkpt lat="47.32262" lon="-1.53511">
        <ele>58</ele>
        <time>2021-03-20T12:26:25.000Z</time>
      </trkpt>
      <trkpt lat="47.32271" lon="-1.53515">
        <ele>59</ele>
        <time>2021-03-20T12:26:27.000Z</time>
      </trkpt>
      <trkpt lat="47.3228" lon="-1.53521">
        <ele>60</ele>
        <time>2021-03-20T12:26:29.000Z</time>
      </trkpt>
      <trkpt lat="47.32289" lon="-1.53526">
        <ele>60</ele>
        <time>2021-03-20T12:26:31.000Z</time>
      </trkpt>
      <trkpt lat="47.32297" lon="-1.53531">
        <ele>60</ele>
        <time>2021-03-20T12:26:33.000Z</time>
      </trkpt>
      <trkpt lat="47.3231" lon="-1.53537">
        <ele>61</ele>
        <time>2021-03-20T12:26:36.000Z</time>
      </trkpt>
      <trkpt lat="47.32318" lon="-1.53542">
        <ele>61</ele>
        <time>2021-03-20T12:26:38.000Z</time>
      </trkpt>
      <trkpt lat="47.32327" lon="-1.53548">
        <ele>62</ele>
        <time>2021-03-20T12:26:40.000Z</time>
      </trkpt>
      <trkpt lat="47.32339" lon="-1.53556">
        <ele>62</ele>
        <time>2021-03-20T12:26:43.000Z</time>
      </trkpt>
      <trkpt lat="47.32348" lon="-1.53559">
        <ele>62</ele>
        <time>2021-03-20T12:26:45.000Z</time>
      </trkpt>
      <trkpt lat="47.32357" lon="-1.53564">
        <ele>63</ele>
        <time>2021-03-20T12:26:47.000Z</time>
      </trkpt>
      <trkpt lat="47.32366" lon="-1.53569">
        <ele>64</ele>
        <time>2021-03-20T12:26:49.000Z</time>
      </trkpt>
      <trkpt lat="47.32375" lon="-1.53573">
        <ele>64</ele>
        <time>2021-03-20T12:26:51.000Z</time>
      </trkpt>
      <trkpt lat="47.32384" lon="-1.53577">
        <ele>65</ele>
        <time>2021-03-20T12:26:53.000Z</time>
      </trkpt>
      <trkpt lat="47.32393" lon="-1.53581">
        <ele>65</ele>
        <time>2021-03-20T12:26:55.000Z</time>
      </trkpt>
      <trkpt lat="47.32402" lon="-1.53585">
        <ele>66</ele>
        <time>2021-03-20T12:26:57.000Z</time>
      </trkpt>
      <trkpt lat="47.32414" lon="-1.53592">
        <ele>66</ele>
        <time>2021-03-20T12:27:00.000Z</time>
      </trkpt>
      <trkpt lat="47.32426" lon="-1.53598">
        <ele>67</ele>
        <time>2021-03-20T12:27:03.000Z</time>
      </trkpt>
      <trkpt lat="47.32435" lon="-1.53602">
        <ele>67</ele>
        <time>2021-03-20T12:27:05.000Z</time>
      </trkpt>
      <trkpt lat="47.32443" lon="-1.53606">
        <ele>68</ele>
        <time>2021-03-20T12:27:07.000Z</time>
      </trkpt>
      <trkpt lat="47.32452" lon="-1.53611">
        <ele>68</ele>
        <time>2021-03-20T12:27:09.000Z</time>
      </trkpt>
      <trkpt lat="47.32464" lon="-1.53617">
        <ele>69</ele>
        <time>2021-03-20T12:27:12.000Z</time>
      </trkpt>
      <trkpt lat="47.32473" lon="-1.53621">
        <ele>69</ele>
        <time>2021-03-20T12:27:14.000Z</time>
      </trkpt>
      <trkpt lat="47.32486" lon="-1.53627">
        <ele>69</ele>
        <time>2021-03-20T12:27:17.000Z</time>
      </trkpt>
      <trkpt lat="47.32498" lon="-1.53633">
        <ele>70</ele>
        <time>2021-03-20T12:27:20.000Z</time>
      </trkpt>
      <trkpt lat="47.32507" lon="-1.53637">
        <ele>69</ele>
        <time>2021-03-20T12:27:22.000Z</time>
      </trkpt>
      <trkpt lat="47.32515" lon="-1.53641">
        <ele>69</ele>
        <time>2021-03-20T12:27:24.000Z</time>
      </trkpt>
      <trkpt lat="47.32525" lon="-1.53645">
        <ele>70</ele>
        <time>2021-03-20T12:27:26.000Z</time>
      </trkpt>
      <trkpt lat="47.32534" lon="-1.53649">
        <ele>70</ele>
        <time>2021-03-20T12:27:28.000Z</time>
      </trkpt>
      <trkpt lat="47.32544" lon="-1.53653">
        <ele>70</ele>
        <time>2021-03-20T12:27:30.000Z</time>
      </trkpt>
      <trkpt lat="47.32553" lon="-1.53658">
        <ele>70</ele>
        <time>2021-03-20T12:27:32.000Z</time>
      </trkpt>
      <trkpt lat="47.32563" lon="-1.53662">
        <ele>69</ele>
        <time>2021-03-20T12:27:34.000Z</time>
      </trkpt>
      <trkpt lat="47.32572" lon="-1.53667">
        <ele>69</ele>
        <time>2021-03-20T12:27:36.000Z</time>
      </trkpt>
      <trkpt lat="47.32583" lon="-1.53671">
        <ele>69</ele>
        <time>2021-03-20T12:27:38.000Z</time>
      </trkpt>
      <trkpt lat="47.32593" lon="-1.53676">
        <ele>68</ele>
        <time>2021-03-20T12:27:40.000Z</time>
      </trkpt>
      <trkpt lat="47.32603" lon="-1.53681">
        <ele>69</ele>
        <time>2021-03-20T12:27:42.000Z</time>
      </trkpt>
      <trkpt lat="47.32614" lon="-1.53685">
        <ele>69</ele>
        <time>2021-03-20T12:27:44.000Z</time>
      </trkpt>
      <trkpt lat="47.32624" lon="-1.53688">
        <ele>69</ele>
        <time>2021-03-20T12:27:46.000Z</time>
      </trkpt>
      <trkpt lat="47.32634" lon="-1.53692">
        <ele>69</ele>
        <time>2021-03-20T12:27:48.000Z</time>
      </trkpt>
      <trkpt lat="47.32644" lon="-1.53695">
        <ele>68</ele>
        <time>2021-03-20T12:27:50.000Z</time>
      </trkpt>
      <trkpt lat="47.32656" lon="-1.53696">
        <ele>68</ele>
        <time>2021-03-20T12:27:52.000Z</time>
      </trkpt>
      <trkpt lat="47.32666" lon="-1.53697">
        <ele>68</ele>
        <time>2021-03-20T12:27:54.000Z</time>
      </trkpt>
      <trkpt lat="47.32677" lon="-1.53696">
        <ele>68</ele>
        <time>2021-03-20T12:27:56.000Z</time>
      </trkpt>
      <trkpt lat="47.32689" lon="-1.53696">
        <ele>69</ele>
        <time>2021-03-20T12:27:58.000Z</time>
      </trkpt>
      <trkpt lat="47.32701" lon="-1.53697">
        <ele>69</ele>
        <time>2021-03-20T12:28:00.000Z</time>
      </trkpt>
      <trkpt lat="47.32715" lon="-1.53699">
        <ele>69</ele>
        <time>2021-03-20T12:28:02.000Z</time>
      </trkpt>
      <trkpt lat="47.32729" lon="-1.53697">
        <ele>68</ele>
        <time>2021-03-20T12:28:04.000Z</time>
      </trkpt>
      <trkpt lat="47.32744" lon="-1.53694">
        <ele>68</ele>
        <time>2021-03-20T12:28:06.000Z</time>
      </trkpt>
      <trkpt lat="47.32758" lon="-1.53689">
        <ele>67</ele>
        <time>2021-03-20T12:28:08.000Z</time>
      </trkpt>
      <trkpt lat="47.32774" lon="-1.53686">
        <ele>66</ele>
        <time>2021-03-20T12:28:10.000Z</time>
      </trkpt>
      <trkpt lat="47.32789" lon="-1.53684">
        <ele>65</ele>
        <time>2021-03-20T12:28:12.000Z</time>
      </trkpt>
      <trkpt lat="47.32803" lon="-1.53682">
        <ele>64</ele>
        <time>2021-03-20T12:28:14.000Z</time>
      </trkpt>
      <trkpt lat="47.32818" lon="-1.53679">
        <ele>63</ele>
        <time>2021-03-20T12:28:16.000Z</time>
      </trkpt>
      <trkpt lat="47.32832" lon="-1.53677">
        <ele>62</ele>
        <time>2021-03-20T12:28:18.000Z</time>
      </trkpt>
      <trkpt lat="47.32846" lon="-1.53675">
        <ele>62</ele>
        <time>2021-03-20T12:28:20.000Z</time>
      </trkpt>
      <trkpt lat="47.32859" lon="-1.53677">
        <ele>62</ele>
        <time>2021-03-20T12:28:22.000Z</time>
      </trkpt>
      <trkpt lat="47.32872" lon="-1.53682">
        <ele>62</ele>
        <time>2021-03-20T12:28:24.000Z</time>
      </trkpt>
      <trkpt lat="47.32885" lon="-1.5368">
        <ele>62</ele>
        <time>2021-03-20T12:28:26.000Z</time>
      </trkpt>
      <trkpt lat="47.329" lon="-1.53676">
        <ele>60</ele>
        <time>2021-03-20T12:28:28.000Z</time>
      </trkpt>
      <trkpt lat="47.32914" lon="-1.53674">
        <ele>60</ele>
        <time>2021-03-20T12:28:30.000Z</time>
      </trkpt>
      <trkpt lat="47.3293" lon="-1.5367">
        <ele>59</ele>
        <time>2021-03-20T12:28:32.000Z</time>
      </trkpt>
      <trkpt lat="47.32944" lon="-1.53666">
        <ele>59</ele>
        <time>2021-03-20T12:28:34.000Z</time>
      </trkpt>
      <trkpt lat="47.32959" lon="-1.53661">
        <ele>59</ele>
        <time>2021-03-20T12:28:36.000Z</time>
      </trkpt>
      <trkpt lat="47.32973" lon="-1.53656">
        <ele>58</ele>
        <time>2021-03-20T12:28:38.000Z</time>
      </trkpt>
      <trkpt lat="47.32988" lon="-1.53651">
        <ele>58</ele>
        <time>2021-03-20T12:28:40.000Z</time>
      </trkpt>
      <trkpt lat="47.33002" lon="-1.53645">
        <ele>58</ele>
        <time>2021-03-20T12:28:42.000Z</time>
      </trkpt>
      <trkpt lat="47.33016" lon="-1.5364">
        <ele>58</ele>
        <time>2021-03-20T12:28:44.000Z</time>
      </trkpt>
      <trkpt lat="47.33029" lon="-1.53636">
        <ele>58</ele>
        <time>2021-03-20T12:28:46.000Z</time>
      </trkpt>
      <trkpt lat="47.33042" lon="-1.53631">
        <ele>58</ele>
        <time>2021-03-20T12:28:48.000Z</time>
      </trkpt>
      <trkpt lat="47.33054" lon="-1.53627">
        <ele>58</ele>
        <time>2021-03-20T12:28:50.000Z</time>
      </trkpt>
      <trkpt lat="47.33065" lon="-1.53623">
        <ele>59</ele>
        <time>2021-03-20T12:28:52.000Z</time>
      </trkpt>
      <trkpt lat="47.33076" lon="-1.53619">
        <ele>59</ele>
        <time>2021-03-20T12:28:54.000Z</time>
      </trkpt>
      <trkpt lat="47.33087" lon="-1.53616">
        <ele>59</ele>
        <time>2021-03-20T12:28:56.000Z</time>
      </trkpt>
      <trkpt lat="47.33098" lon="-1.53612">
        <ele>59</ele>
        <time>2021-03-20T12:28:58.000Z</time>
      </trkpt>
      <trkpt lat="47.33108" lon="-1.53607">
        <ele>60</ele>
        <time>2021-03-20T12:29:00.000Z</time>
      </trkpt>
      <trkpt lat="47.33117" lon="-1.53604">
        <ele>60</ele>
        <time>2021-03-20T12:29:02.000Z</time>
      </trkpt>
      <trkpt lat="47.33127" lon="-1.53601">
        <ele>61</ele>
        <time>2021-03-20T12:29:04.000Z</time>
      </trkpt>
      <trkpt lat="47.33137" lon="-1.53599">
        <ele>61</ele>
        <time>2021-03-20T12:29:06.000Z</time>
      </trkpt>
      <trkpt lat="47.33146" lon="-1.53596">
        <ele>62</ele>
        <time>2021-03-20T12:29:08.000Z</time>
      </trkpt>
      <trkpt lat="47.33157" lon="-1.53592">
        <ele>62</ele>
        <time>2021-03-20T12:29:10.000Z</time>
      </trkpt>
      <trkpt lat="47.33167" lon="-1.53589">
        <ele>63</ele>
        <time>2021-03-20T12:29:12.000Z</time>
      </trkpt>
      <trkpt lat="47.33177" lon="-1.53586">
        <ele>63</ele>
        <time>2021-03-20T12:29:14.000Z</time>
      </trkpt>
      <trkpt lat="47.33188" lon="-1.53582">
        <ele>64</ele>
        <time>2021-03-20T12:29:16.000Z</time>
      </trkpt>
      <trkpt lat="47.33198" lon="-1.53578">
        <ele>64</ele>
        <time>2021-03-20T12:29:18.000Z</time>
      </trkpt>
      <trkpt lat="47.33208" lon="-1.53575">
        <ele>65</ele>
        <time>2021-03-20T12:29:20.000Z</time>
      </trkpt>
      <trkpt lat="47.33218" lon="-1.5357">
        <ele>65</ele>
        <time>2021-03-20T12:29:22.000Z</time>
      </trkpt>
      <trkpt lat="47.33228" lon="-1.53566">
        <ele>65</ele>
        <time>2021-03-20T12:29:24.000Z</time>
      </trkpt>
      <trkpt lat="47.33238" lon="-1.53563">
        <ele>65</ele>
        <time>2021-03-20T12:29:26.000Z</time>
      </trkpt>
      <trkpt lat="47.33248" lon="-1.5356">
        <ele>65</ele>
        <time>2021-03-20T12:29:28.000Z</time>
      </trkpt>
      <trkpt lat="47.33258" lon="-1.53548">
        <ele>66</ele>
        <time>2021-03-20T12:29:31.000Z</time>
      </trkpt>
      <trkpt lat="47.3327" lon="-1.53546">
        <ele>66</ele>
        <time>2021-03-20T12:29:34.000Z</time>
      </trkpt>
      <trkpt lat="47.33278" lon="-1.53541">
        <ele>66</ele>
        <time>2021-03-20T12:29:36.000Z</time>
      </trkpt>
      <trkpt lat="47.33289" lon="-1.53538">
        <ele>67</ele>
        <time>2021-03-20T12:29:38.000Z</time>
      </trkpt>
      <trkpt lat="47.33298" lon="-1.53533">
        <ele>66</ele>
        <time>2021-03-20T12:29:40.000Z</time>
      </trkpt>
      <trkpt lat="47.33308" lon="-1.5353">
        <ele>67</ele>
        <time>2021-03-20T12:29:42.000Z</time>
      </trkpt>
      <trkpt lat="47.33318" lon="-1.53526">
        <ele>66</ele>
        <time>2021-03-20T12:29:44.000Z</time>
      </trkpt>
      <trkpt lat="47.33328" lon="-1.53522">
        <ele>66</ele>
        <time>2021-03-20T12:29:46.000Z</time>
      </trkpt>
      <trkpt lat="47.33338" lon="-1.53517">
        <ele>66</ele>
        <time>2021-03-20T12:29:48.000Z</time>
      </trkpt>
      <trkpt lat="47.33348" lon="-1.53514">
        <ele>66</ele>
        <time>2021-03-20T12:29:50.000Z</time>
      </trkpt>
      <trkpt lat="47.33359" lon="-1.5351">
        <ele>66</ele>
        <time>2021-03-20T12:29:52.000Z</time>
      </trkpt>
      <trkpt lat="47.33369" lon="-1.53506">
        <ele>67</ele>
        <time>2021-03-20T12:29:54.000Z</time>
      </trkpt>
      <trkpt lat="47.33379" lon="-1.53504">
        <ele>66</ele>
        <time>2021-03-20T12:29:56.000Z</time>
      </trkpt>
      <trkpt lat="47.3339" lon="-1.53502">
        <ele>66</ele>
        <time>2021-03-20T12:29:58.000Z</time>
      </trkpt>
      <trkpt lat="47.33401" lon="-1.535">
        <ele>65</ele>
        <time>2021-03-20T12:30:00.000Z</time>
      </trkpt>
      <trkpt lat="47.33413" lon="-1.53497">
        <ele>65</ele>
        <time>2021-03-20T12:30:02.000Z</time>
      </trkpt>
      <trkpt lat="47.33425" lon="-1.53494">
        <ele>65</ele>
        <time>2021-03-20T12:30:04.000Z</time>
      </trkpt>
      <trkpt lat="47.33437" lon="-1.53491">
        <ele>65</ele>
        <time>2021-03-20T12:30:06.000Z</time>
      </trkpt>
      <trkpt lat="47.33451" lon="-1.53488">
        <ele>65</ele>
        <time>2021-03-20T12:30:08.000Z</time>
      </trkpt>
      <trkpt lat="47.33465" lon="-1.53486">
        <ele>65</ele>
        <time>2021-03-20T12:30:10.000Z</time>
      </trkpt>
      <trkpt lat="47.33479" lon="-1.53484">
        <ele>64</ele>
        <time>2021-03-20T12:30:12.000Z</time>
      </trkpt>
      <trkpt lat="47.33491" lon="-1.5348">
        <ele>63</ele>
        <time>2021-03-20T12:30:14.000Z</time>
      </trkpt>
      <trkpt lat="47.33499" lon="-1.53466">
        <ele>62</ele>
        <time>2021-03-20T12:30:16.000Z</time>
      </trkpt>
      <trkpt lat="47.33501" lon="-1.53448">
        <ele>62</ele>
        <time>2021-03-20T12:30:18.000Z</time>
      </trkpt>
      <trkpt lat="47.33502" lon="-1.5343">
        <ele>62</ele>
        <time>2021-03-20T12:30:20.000Z</time>
      </trkpt>
      <trkpt lat="47.33504" lon="-1.53412">
        <ele>62</ele>
        <time>2021-03-20T12:30:22.000Z</time>
      </trkpt>
      <trkpt lat="47.33506" lon="-1.53394">
        <ele>62</ele>
        <time>2021-03-20T12:30:24.000Z</time>
      </trkpt>
      <trkpt lat="47.33508" lon="-1.53377">
        <ele>61</ele>
        <time>2021-03-20T12:30:26.000Z</time>
      </trkpt>
      <trkpt lat="47.3351" lon="-1.53359">
        <ele>61</ele>
        <time>2021-03-20T12:30:28.000Z</time>
      </trkpt>
      <trkpt lat="47.33513" lon="-1.53341">
        <ele>60</ele>
        <time>2021-03-20T12:30:30.000Z</time>
      </trkpt>
      <trkpt lat="47.33515" lon="-1.53324">
        <ele>60</ele>
        <time>2021-03-20T12:30:32.000Z</time>
      </trkpt>
      <trkpt lat="47.33518" lon="-1.53308">
        <ele>60</ele>
        <time>2021-03-20T12:30:34.000Z</time>
      </trkpt>
      <trkpt lat="47.33524" lon="-1.53294">
        <ele>60</ele>
        <time>2021-03-20T12:30:36.000Z</time>
      </trkpt>
      <trkpt lat="47.33534" lon="-1.53284">
        <ele>60</ele>
        <time>2021-03-20T12:30:38.000Z</time>
      </trkpt>
      <trkpt lat="47.33546" lon="-1.53275">
        <ele>59</ele>
        <time>2021-03-20T12:30:40.000Z</time>
      </trkpt>
      <trkpt lat="47.33558" lon="-1.53269">
        <ele>59</ele>
        <time>2021-03-20T12:30:42.000Z</time>
      </trkpt>
      <trkpt lat="47.33571" lon="-1.53261">
        <ele>58</ele>
        <time>2021-03-20T12:30:44.000Z</time>
      </trkpt>
      <trkpt lat="47.33584" lon="-1.53254">
        <ele>57</ele>
        <time>2021-03-20T12:30:46.000Z</time>
      </trkpt>
      <trkpt lat="47.33597" lon="-1.53246">
        <ele>57</ele>
        <time>2021-03-20T12:30:48.000Z</time>
      </trkpt>
      <trkpt lat="47.3361" lon="-1.53238">
        <ele>56</ele>
        <time>2021-03-20T12:30:50.000Z</time>
      </trkpt>
      <trkpt lat="47.33624" lon="-1.53231">
        <ele>55</ele>
        <time>2021-03-20T12:30:52.000Z</time>
      </trkpt>
      <trkpt lat="47.33637" lon="-1.53223">
        <ele>54</ele>
        <time>2021-03-20T12:30:54.000Z</time>
      </trkpt>
      <trkpt lat="47.3365" lon="-1.53215">
        <ele>54</ele>
        <time>2021-03-20T12:30:56.000Z</time>
      </trkpt>
      <trkpt lat="47.33664" lon="-1.53208">
        <ele>53</ele>
        <time>2021-03-20T12:30:58.000Z</time>
      </trkpt>
      <trkpt lat="47.33677" lon="-1.532">
        <ele>53</ele>
        <time>2021-03-20T12:31:00.000Z</time>
      </trkpt>
      <trkpt lat="47.3369" lon="-1.53194">
        <ele>53</ele>
        <time>2021-03-20T12:31:02.000Z</time>
      </trkpt>
      <trkpt lat="47.33703" lon="-1.53188">
        <ele>52</ele>
        <time>2021-03-20T12:31:04.000Z</time>
      </trkpt>
      <trkpt lat="47.33718" lon="-1.53182">
        <ele>52</ele>
        <time>2021-03-20T12:31:06.000Z</time>
      </trkpt>
      <trkpt lat="47.33731" lon="-1.53175">
        <ele>51</ele>
        <time>2021-03-20T12:31:08.000Z</time>
      </trkpt>
      <trkpt lat="47.33745" lon="-1.53168">
        <ele>50</ele>
        <time>2021-03-20T12:31:10.000Z</time>
      </trkpt>
      <trkpt lat="47.33759" lon="-1.5316">
        <ele>50</ele>
        <time>2021-03-20T12:31:12.000Z</time>
      </trkpt>
      <trkpt lat="47.33772" lon="-1.53152">
        <ele>50</ele>
        <time>2021-03-20T12:31:14.000Z</time>
      </trkpt>
      <trkpt lat="47.33781" lon="-1.53143">
        <ele>50</ele>
        <time>2021-03-20T12:31:16.000Z</time>
      </trkpt>
      <trkpt lat="47.33787" lon="-1.53131">
        <ele>50</ele>
        <time>2021-03-20T12:31:18.000Z</time>
      </trkpt>
      <trkpt lat="47.33792" lon="-1.53119">
        <ele>49</ele>
        <time>2021-03-20T12:31:20.000Z</time>
      </trkpt>
      <trkpt lat="47.33798" lon="-1.53108">
        <ele>49</ele>
        <time>2021-03-20T12:31:22.000Z</time>
      </trkpt>
      <trkpt lat="47.33804" lon="-1.53096">
        <ele>49</ele>
        <time>2021-03-20T12:31:24.000Z</time>
      </trkpt>
      <trkpt lat="47.33808" lon="-1.53084">
        <ele>49</ele>
        <time>2021-03-20T12:31:26.000Z</time>
      </trkpt>
      <trkpt lat="47.33815" lon="-1.5307">
        <ele>48</ele>
        <time>2021-03-20T12:31:29.000Z</time>
      </trkpt>
      <trkpt lat="47.33821" lon="-1.53057">
        <ele>48</ele>
        <time>2021-03-20T12:31:32.000Z</time>
      </trkpt>
      <trkpt lat="47.33833" lon="-1.53067">
        <ele>48</ele>
        <time>2021-03-20T12:31:35.000Z</time>
      </trkpt>
      <trkpt lat="47.3384" lon="-1.53078">
        <ele>49</ele>
        <time>2021-03-20T12:31:37.000Z</time>
      </trkpt>
      <trkpt lat="47.33847" lon="-1.53089">
        <ele>49</ele>
        <time>2021-03-20T12:31:39.000Z</time>
      </trkpt>
      <trkpt lat="47.33854" lon="-1.53101">
        <ele>49</ele>
        <time>2021-03-20T12:31:41.000Z</time>
      </trkpt>
      <trkpt lat="47.33861" lon="-1.53112">
        <ele>51</ele>
        <time>2021-03-20T12:31:43.000Z</time>
      </trkpt>
      <trkpt lat="47.33868" lon="-1.53121">
        <ele>51</ele>
        <time>2021-03-20T12:31:45.000Z</time>
      </trkpt>
      <trkpt lat="47.33876" lon="-1.53115">
        <ele>51</ele>
        <time>2021-03-20T12:31:47.000Z</time>
      </trkpt>
      <trkpt lat="47.33882" lon="-1.53102">
        <ele>52</ele>
        <time>2021-03-20T12:31:49.000Z</time>
      </trkpt>
      <trkpt lat="47.33887" lon="-1.53089">
        <ele>52</ele>
        <time>2021-03-20T12:31:51.000Z</time>
      </trkpt>
      <trkpt lat="47.33892" lon="-1.53075">
        <ele>51</ele>
        <time>2021-03-20T12:31:53.000Z</time>
      </trkpt>
      <trkpt lat="47.33897" lon="-1.5306">
        <ele>51</ele>
        <time>2021-03-20T12:31:55.000Z</time>
      </trkpt>
      <trkpt lat="47.33903" lon="-1.53043">
        <ele>50</ele>
        <time>2021-03-20T12:31:57.000Z</time>
      </trkpt>
      <trkpt lat="47.3391" lon="-1.53027">
        <ele>50</ele>
        <time>2021-03-20T12:31:59.000Z</time>
      </trkpt>
      <trkpt lat="47.33916" lon="-1.53011">
        <ele>50</ele>
        <time>2021-03-20T12:32:01.000Z</time>
      </trkpt>
      <trkpt lat="47.33922" lon="-1.52995">
        <ele>50</ele>
        <time>2021-03-20T12:32:03.000Z</time>
      </trkpt>
      <trkpt lat="47.33927" lon="-1.5298">
        <ele>49</ele>
        <time>2021-03-20T12:32:05.000Z</time>
      </trkpt>
      <trkpt lat="47.33934" lon="-1.52964">
        <ele>49</ele>
        <time>2021-03-20T12:32:07.000Z</time>
      </trkpt>
      <trkpt lat="47.33941" lon="-1.52948">
        <ele>50</ele>
        <time>2021-03-20T12:32:09.000Z</time>
      </trkpt>
      <trkpt lat="47.33947" lon="-1.52932">
        <ele>51</ele>
        <time>2021-03-20T12:32:11.000Z</time>
      </trkpt>
      <trkpt lat="47.33952" lon="-1.52917">
        <ele>51</ele>
        <time>2021-03-20T12:32:13.000Z</time>
      </trkpt>
      <trkpt lat="47.33958" lon="-1.52902">
        <ele>51</ele>
        <time>2021-03-20T12:32:15.000Z</time>
      </trkpt>
      <trkpt lat="47.33963" lon="-1.52888">
        <ele>51</ele>
        <time>2021-03-20T12:32:17.000Z</time>
      </trkpt>
      <trkpt lat="47.33968" lon="-1.52875">
        <ele>51</ele>
        <time>2021-03-20T12:32:19.000Z</time>
      </trkpt>
      <trkpt lat="47.33971" lon="-1.52863">
        <ele>51</ele>
        <time>2021-03-20T12:32:22.000Z</time>
      </trkpt>
      <trkpt lat="47.3396" lon="-1.52852">
        <ele>51</ele>
        <time>2021-03-20T12:32:27.000Z</time>
      </trkpt>
      <trkpt lat="47.33948" lon="-1.52843">
        <ele>51</ele>
        <time>2021-03-20T12:32:29.000Z</time>
      </trkpt>
      <trkpt lat="47.33934" lon="-1.52832">
        <ele>50</ele>
        <time>2021-03-20T12:32:31.000Z</time>
      </trkpt>
      <trkpt lat="47.3392" lon="-1.52821">
        <ele>50</ele>
        <time>2021-03-20T12:32:33.000Z</time>
      </trkpt>
      <trkpt lat="47.3391" lon="-1.52804">
        <ele>50</ele>
        <time>2021-03-20T12:32:35.000Z</time>
      </trkpt>
      <trkpt lat="47.33907" lon="-1.52784">
        <ele>50</ele>
        <time>2021-03-20T12:32:37.000Z</time>
      </trkpt>
      <trkpt lat="47.33908" lon="-1.52764">
        <ele>50</ele>
        <time>2021-03-20T12:32:39.000Z</time>
      </trkpt>
      <trkpt lat="47.33913" lon="-1.52745">
        <ele>50</ele>
        <time>2021-03-20T12:32:41.000Z</time>
      </trkpt>
      <trkpt lat="47.33919" lon="-1.52725">
        <ele>50</ele>
        <time>2021-03-20T12:32:43.000Z</time>
      </trkpt>
      <trkpt lat="47.3392" lon="-1.52704">
        <ele>50</ele>
        <time>2021-03-20T12:32:45.000Z</time>
      </trkpt>
      <trkpt lat="47.33924" lon="-1.52684">
        <ele>50</ele>
        <time>2021-03-20T12:32:47.000Z</time>
      </trkpt>
      <trkpt lat="47.33927" lon="-1.52665">
        <ele>50</ele>
        <time>2021-03-20T12:32:49.000Z</time>
      </trkpt>
      <trkpt lat="47.33931" lon="-1.52648">
        <ele>49</ele>
        <time>2021-03-20T12:32:51.000Z</time>
      </trkpt>
      <trkpt lat="47.33934" lon="-1.5263">
        <ele>49</ele>
        <time>2021-03-20T12:32:53.000Z</time>
      </trkpt>
      <trkpt lat="47.33934" lon="-1.52614">
        <ele>50</ele>
        <time>2021-03-20T12:32:55.000Z</time>
      </trkpt>
      <trkpt lat="47.33926" lon="-1.52601">
        <ele>51</ele>
        <time>2021-03-20T12:32:57.000Z</time>
      </trkpt>
      <trkpt lat="47.33915" lon="-1.52596">
        <ele>51</ele>
        <time>2021-03-20T12:32:59.000Z</time>
      </trkpt>
      <trkpt lat="47.33903" lon="-1.52592">
        <ele>52</ele>
        <time>2021-03-20T12:33:01.000Z</time>
      </trkpt>
      <trkpt lat="47.33891" lon="-1.52586">
        <ele>52</ele>
        <time>2021-03-20T12:33:03.000Z</time>
      </trkpt>
      <trkpt lat="47.33878" lon="-1.52582">
        <ele>52</ele>
        <time>2021-03-20T12:33:05.000Z</time>
      </trkpt>
      <trkpt lat="47.33866" lon="-1.52578">
        <ele>52</ele>
        <time>2021-03-20T12:33:07.000Z</time>
      </trkpt>
      <trkpt lat="47.33855" lon="-1.52573">
        <ele>52</ele>
        <time>2021-03-20T12:33:09.000Z</time>
      </trkpt>
      <trkpt lat="47.33844" lon="-1.52569">
        <ele>52</ele>
        <time>2021-03-20T12:33:11.000Z</time>
      </trkpt>
      <trkpt lat="47.33833" lon="-1.52565">
        <ele>53</ele>
        <time>2021-03-20T12:33:13.000Z</time>
      </trkpt>
      <trkpt lat="47.33822" lon="-1.52561">
        <ele>52</ele>
        <time>2021-03-20T12:33:15.000Z</time>
      </trkpt>
      <trkpt lat="47.33811" lon="-1.52556">
        <ele>53</ele>
        <time>2021-03-20T12:33:17.000Z</time>
      </trkpt>
      <trkpt lat="47.33799" lon="-1.52552">
        <ele>54</ele>
        <time>2021-03-20T12:33:19.000Z</time>
      </trkpt>
      <trkpt lat="47.33789" lon="-1.52547">
        <ele>55</ele>
        <time>2021-03-20T12:33:21.000Z</time>
      </trkpt>
      <trkpt lat="47.33778" lon="-1.52543">
        <ele>55</ele>
        <time>2021-03-20T12:33:23.000Z</time>
      </trkpt>
      <trkpt lat="47.33767" lon="-1.52538">
        <ele>55</ele>
        <time>2021-03-20T12:33:25.000Z</time>
      </trkpt>
      <trkpt lat="47.33755" lon="-1.52533">
        <ele>54</ele>
        <time>2021-03-20T12:33:27.000Z</time>
      </trkpt>
      <trkpt lat="47.33742" lon="-1.52528">
        <ele>54</ele>
        <time>2021-03-20T12:33:29.000Z</time>
      </trkpt>
      <trkpt lat="47.3373" lon="-1.52522">
        <ele>53</ele>
        <time>2021-03-20T12:33:31.000Z</time>
      </trkpt>
      <trkpt lat="47.33717" lon="-1.52514">
        <ele>53</ele>
        <time>2021-03-20T12:33:33.000Z</time>
      </trkpt>
      <trkpt lat="47.33707" lon="-1.52502">
        <ele>54</ele>
        <time>2021-03-20T12:33:35.000Z</time>
      </trkpt>
      <trkpt lat="47.33697" lon="-1.5249">
        <ele>54</ele>
        <time>2021-03-20T12:33:37.000Z</time>
      </trkpt>
      <trkpt lat="47.33693" lon="-1.52474">
        <ele>55</ele>
        <time>2021-03-20T12:33:39.000Z</time>
      </trkpt>
      <trkpt lat="47.33699" lon="-1.52458">
        <ele>55</ele>
        <time>2021-03-20T12:33:41.000Z</time>
      </trkpt>
      <trkpt lat="47.33703" lon="-1.52443">
        <ele>56</ele>
        <time>2021-03-20T12:33:43.000Z</time>
      </trkpt>
      <trkpt lat="47.33706" lon="-1.5243">
        <ele>57</ele>
        <time>2021-03-20T12:33:45.000Z</time>
      </trkpt>
      <trkpt lat="47.33709" lon="-1.52417">
        <ele>57</ele>
        <time>2021-03-20T12:33:47.000Z</time>
      </trkpt>
      <trkpt lat="47.3371" lon="-1.52403">
        <ele>57</ele>
        <time>2021-03-20T12:33:49.000Z</time>
      </trkpt>
      <trkpt lat="47.33712" lon="-1.5239">
        <ele>58</ele>
        <time>2021-03-20T12:33:51.000Z</time>
      </trkpt>
      <trkpt lat="47.33715" lon="-1.52377">
        <ele>58</ele>
        <time>2021-03-20T12:33:53.000Z</time>
      </trkpt>
      <trkpt lat="47.33717" lon="-1.52363">
        <ele>59</ele>
        <time>2021-03-20T12:33:55.000Z</time>
      </trkpt>
      <trkpt lat="47.3372" lon="-1.52348">
        <ele>60</ele>
        <time>2021-03-20T12:33:57.000Z</time>
      </trkpt>
      <trkpt lat="47.33723" lon="-1.52334">
        <ele>60</ele>
        <time>2021-03-20T12:33:59.000Z</time>
      </trkpt>
      <trkpt lat="47.33726" lon="-1.52321">
        <ele>60</ele>
        <time>2021-03-20T12:34:01.000Z</time>
      </trkpt>
      <trkpt lat="47.33729" lon="-1.52306">
        <ele>61</ele>
        <time>2021-03-20T12:34:03.000Z</time>
      </trkpt>
      <trkpt lat="47.33732" lon="-1.5229">
        <ele>61</ele>
        <time>2021-03-20T12:34:05.000Z</time>
      </trkpt>
      <trkpt lat="47.33735" lon="-1.52275">
        <ele>62</ele>
        <time>2021-03-20T12:34:07.000Z</time>
      </trkpt>
      <trkpt lat="47.33738" lon="-1.5226">
        <ele>62</ele>
        <time>2021-03-20T12:34:09.000Z</time>
      </trkpt>
      <trkpt lat="47.33742" lon="-1.52245">
        <ele>62</ele>
        <time>2021-03-20T12:34:11.000Z</time>
      </trkpt>
      <trkpt lat="47.33745" lon="-1.5223">
        <ele>61</ele>
        <time>2021-03-20T12:34:13.000Z</time>
      </trkpt>
      <trkpt lat="47.33748" lon="-1.52215">
        <ele>62</ele>
        <time>2021-03-20T12:34:15.000Z</time>
      </trkpt>
      <trkpt lat="47.3375" lon="-1.52199">
        <ele>61</ele>
        <time>2021-03-20T12:34:17.000Z</time>
      </trkpt>
      <trkpt lat="47.33751" lon="-1.52182">
        <ele>61</ele>
        <time>2021-03-20T12:34:19.000Z</time>
      </trkpt>
      <trkpt lat="47.33752" lon="-1.52166">
        <ele>62</ele>
        <time>2021-03-20T12:34:21.000Z</time>
      </trkpt>
      <trkpt lat="47.33753" lon="-1.5215">
        <ele>62</ele>
        <time>2021-03-20T12:34:23.000Z</time>
      </trkpt>
      <trkpt lat="47.33754" lon="-1.52135">
        <ele>62</ele>
        <time>2021-03-20T12:34:25.000Z</time>
      </trkpt>
      <trkpt lat="47.33755" lon="-1.5212">
        <ele>62</ele>
        <time>2021-03-20T12:34:27.000Z</time>
      </trkpt>
      <trkpt lat="47.33757" lon="-1.52106">
        <ele>62</ele>
        <time>2021-03-20T12:34:29.000Z</time>
      </trkpt>
      <trkpt lat="47.33758" lon="-1.52091">
        <ele>63</ele>
        <time>2021-03-20T12:34:31.000Z</time>
      </trkpt>
      <trkpt lat="47.3376" lon="-1.52077">
        <ele>63</ele>
        <time>2021-03-20T12:34:33.000Z</time>
      </trkpt>
      <trkpt lat="47.33761" lon="-1.52063">
        <ele>63</ele>
        <time>2021-03-20T12:34:35.000Z</time>
      </trkpt>
      <trkpt lat="47.33759" lon="-1.52044">
        <ele>64</ele>
        <time>2021-03-20T12:34:38.000Z</time>
      </trkpt>
      <trkpt lat="47.33759" lon="-1.5203">
        <ele>65</ele>
        <time>2021-03-20T12:34:40.000Z</time>
      </trkpt>
      <trkpt lat="47.33759" lon="-1.52016">
        <ele>65</ele>
        <time>2021-03-20T12:34:42.000Z</time>
      </trkpt>
      <trkpt lat="47.33757" lon="-1.52002">
        <ele>66</ele>
        <time>2021-03-20T12:34:44.000Z</time>
      </trkpt>
      <trkpt lat="47.33755" lon="-1.51988">
        <ele>67</ele>
        <time>2021-03-20T12:34:46.000Z</time>
      </trkpt>
      <trkpt lat="47.33752" lon="-1.51974">
        <ele>67</ele>
        <time>2021-03-20T12:34:48.000Z</time>
      </trkpt>
      <trkpt lat="47.3375" lon="-1.51959">
        <ele>68</ele>
        <time>2021-03-20T12:34:50.000Z</time>
      </trkpt>
      <trkpt lat="47.33748" lon="-1.51945">
        <ele>68</ele>
        <time>2021-03-20T12:34:52.000Z</time>
      </trkpt>
      <trkpt lat="47.33747" lon="-1.5193">
        <ele>68</ele>
        <time>2021-03-20T12:34:54.000Z</time>
      </trkpt>
      <trkpt lat="47.33747" lon="-1.51915">
        <ele>68</ele>
        <time>2021-03-20T12:34:56.000Z</time>
      </trkpt>
      <trkpt lat="47.33746" lon="-1.519">
        <ele>69</ele>
        <time>2021-03-20T12:34:58.000Z</time>
      </trkpt>
      <trkpt lat="47.33745" lon="-1.51884">
        <ele>69</ele>
        <time>2021-03-20T12:35:00.000Z</time>
      </trkpt>
      <trkpt lat="47.33745" lon="-1.51869">
        <ele>69</ele>
        <time>2021-03-20T12:35:02.000Z</time>
      </trkpt>
      <trkpt lat="47.33744" lon="-1.51854">
        <ele>70</ele>
        <time>2021-03-20T12:35:04.000Z</time>
      </trkpt>
      <trkpt lat="47.33743" lon="-1.5184">
        <ele>70</ele>
        <time>2021-03-20T12:35:06.000Z</time>
      </trkpt>
      <trkpt lat="47.33742" lon="-1.51826">
        <ele>71</ele>
        <time>2021-03-20T12:35:08.000Z</time>
      </trkpt>
      <trkpt lat="47.33742" lon="-1.51812">
        <ele>71</ele>
        <time>2021-03-20T12:35:10.000Z</time>
      </trkpt>
      <trkpt lat="47.33741" lon="-1.51798">
        <ele>71</ele>
        <time>2021-03-20T12:35:12.000Z</time>
      </trkpt>
      <trkpt lat="47.3374" lon="-1.51783">
        <ele>71</ele>
        <time>2021-03-20T12:35:14.000Z</time>
      </trkpt>
      <trkpt lat="47.33739" lon="-1.51768">
        <ele>72</ele>
        <time>2021-03-20T12:35:16.000Z</time>
      </trkpt>
      <trkpt lat="47.33739" lon="-1.51754">
        <ele>72</ele>
        <time>2021-03-20T12:35:18.000Z</time>
      </trkpt>
      <trkpt lat="47.33738" lon="-1.51739">
        <ele>72</ele>
        <time>2021-03-20T12:35:20.000Z</time>
      </trkpt>
      <trkpt lat="47.33738" lon="-1.51724">
        <ele>72</ele>
        <time>2021-03-20T12:35:22.000Z</time>
      </trkpt>
      <trkpt lat="47.33737" lon="-1.51709">
        <ele>72</ele>
        <time>2021-03-20T12:35:24.000Z</time>
      </trkpt>
      <trkpt lat="47.33735" lon="-1.51694">
        <ele>72</ele>
        <time>2021-03-20T12:35:26.000Z</time>
      </trkpt>
      <trkpt lat="47.33733" lon="-1.51678">
        <ele>72</ele>
        <time>2021-03-20T12:35:28.000Z</time>
      </trkpt>
      <trkpt lat="47.3373" lon="-1.51662">
        <ele>71</ele>
        <time>2021-03-20T12:35:30.000Z</time>
      </trkpt>
      <trkpt lat="47.33727" lon="-1.51647">
        <ele>71</ele>
        <time>2021-03-20T12:35:32.000Z</time>
      </trkpt>
      <trkpt lat="47.33723" lon="-1.5163">
        <ele>70</ele>
        <time>2021-03-20T12:35:34.000Z</time>
      </trkpt>
      <trkpt lat="47.33718" lon="-1.51615">
        <ele>70</ele>
        <time>2021-03-20T12:35:36.000Z</time>
      </trkpt>
      <trkpt lat="47.33713" lon="-1.51598">
        <ele>70</ele>
        <time>2021-03-20T12:35:38.000Z</time>
      </trkpt>
      <trkpt lat="47.33708" lon="-1.5158">
        <ele>71</ele>
        <time>2021-03-20T12:35:40.000Z</time>
      </trkpt>
      <trkpt lat="47.33703" lon="-1.51561">
        <ele>70</ele>
        <time>2021-03-20T12:35:42.000Z</time>
      </trkpt>
      <trkpt lat="47.33698" lon="-1.51542">
        <ele>70</ele>
        <time>2021-03-20T12:35:44.000Z</time>
      </trkpt>
      <trkpt lat="47.33694" lon="-1.51522">
        <ele>70</ele>
        <time>2021-03-20T12:35:46.000Z</time>
      </trkpt>
      <trkpt lat="47.33692" lon="-1.51501">
        <ele>69</ele>
        <time>2021-03-20T12:35:48.000Z</time>
      </trkpt>
      <trkpt lat="47.33691" lon="-1.51478">
        <ele>69</ele>
        <time>2021-03-20T12:35:50.000Z</time>
      </trkpt>
      <trkpt lat="47.3369" lon="-1.51455">
        <ele>68</ele>
        <time>2021-03-20T12:35:52.000Z</time>
      </trkpt>
      <trkpt lat="47.33688" lon="-1.51432">
        <ele>67</ele>
        <time>2021-03-20T12:35:54.000Z</time>
      </trkpt>
      <trkpt lat="47.33684" lon="-1.51411">
        <ele>66</ele>
        <time>2021-03-20T12:35:56.000Z</time>
      </trkpt>
      <trkpt lat="47.33678" lon="-1.51389">
        <ele>66</ele>
        <time>2021-03-20T12:35:58.000Z</time>
      </trkpt>
      <trkpt lat="47.33673" lon="-1.51368">
        <ele>65</ele>
        <time>2021-03-20T12:36:00.000Z</time>
      </trkpt>
      <trkpt lat="47.33669" lon="-1.51346">
        <ele>65</ele>
        <time>2021-03-20T12:36:02.000Z</time>
      </trkpt>
      <trkpt lat="47.33665" lon="-1.51325">
        <ele>65</ele>
        <time>2021-03-20T12:36:04.000Z</time>
      </trkpt>
      <trkpt lat="47.33661" lon="-1.51303">
        <ele>64</ele>
        <time>2021-03-20T12:36:06.000Z</time>
      </trkpt>
      <trkpt lat="47.33658" lon="-1.51282">
        <ele>64</ele>
        <time>2021-03-20T12:36:08.000Z</time>
      </trkpt>
      <trkpt lat="47.33655" lon="-1.51262">
        <ele>64</ele>
        <time>2021-03-20T12:36:10.000Z</time>
      </trkpt>
      <trkpt lat="47.33653" lon="-1.5124">
        <ele>63</ele>
        <time>2021-03-20T12:36:12.000Z</time>
      </trkpt>
      <trkpt lat="47.33653" lon="-1.51218">
        <ele>63</ele>
        <time>2021-03-20T12:36:14.000Z</time>
      </trkpt>
      <trkpt lat="47.33652" lon="-1.51196">
        <ele>63</ele>
        <time>2021-03-20T12:36:16.000Z</time>
      </trkpt>
      <trkpt lat="47.33651" lon="-1.51174">
        <ele>63</ele>
        <time>2021-03-20T12:36:18.000Z</time>
      </trkpt>
      <trkpt lat="47.33651" lon="-1.51153">
        <ele>63</ele>
        <time>2021-03-20T12:36:20.000Z</time>
      </trkpt>
      <trkpt lat="47.3365" lon="-1.51133">
        <ele>63</ele>
        <time>2021-03-20T12:36:22.000Z</time>
      </trkpt>
      <trkpt lat="47.33651" lon="-1.51114">
        <ele>62</ele>
        <time>2021-03-20T12:36:24.000Z</time>
      </trkpt>
      <trkpt lat="47.33649" lon="-1.51095">
        <ele>62</ele>
        <time>2021-03-20T12:36:26.000Z</time>
      </trkpt>
      <trkpt lat="47.33653" lon="-1.51075">
        <ele>62</ele>
        <time>2021-03-20T12:36:28.000Z</time>
      </trkpt>
      <trkpt lat="47.33661" lon="-1.51057">
        <ele>61</ele>
        <time>2021-03-20T12:36:30.000Z</time>
      </trkpt>
      <trkpt lat="47.33666" lon="-1.51038">
        <ele>61</ele>
        <time>2021-03-20T12:36:32.000Z</time>
      </trkpt>
      <trkpt lat="47.3367" lon="-1.51018">
        <ele>62</ele>
        <time>2021-03-20T12:36:34.000Z</time>
      </trkpt>
      <trkpt lat="47.33673" lon="-1.50998">
        <ele>61</ele>
        <time>2021-03-20T12:36:36.000Z</time>
      </trkpt>
      <trkpt lat="47.33678" lon="-1.50979">
        <ele>61</ele>
        <time>2021-03-20T12:36:38.000Z</time>
      </trkpt>
      <trkpt lat="47.33682" lon="-1.50959">
        <ele>61</ele>
        <time>2021-03-20T12:36:40.000Z</time>
      </trkpt>
      <trkpt lat="47.33685" lon="-1.50939">
        <ele>60</ele>
        <time>2021-03-20T12:36:42.000Z</time>
      </trkpt>
      <trkpt lat="47.33689" lon="-1.50918">
        <ele>59</ele>
        <time>2021-03-20T12:36:44.000Z</time>
      </trkpt>
      <trkpt lat="47.33693" lon="-1.50899">
        <ele>59</ele>
        <time>2021-03-20T12:36:46.000Z</time>
      </trkpt>
      <trkpt lat="47.33697" lon="-1.50879">
        <ele>59</ele>
        <time>2021-03-20T12:36:48.000Z</time>
      </trkpt>
      <trkpt lat="47.33701" lon="-1.50859">
        <ele>58</ele>
        <time>2021-03-20T12:36:50.000Z</time>
      </trkpt>
      <trkpt lat="47.33704" lon="-1.50839">
        <ele>58</ele>
        <time>2021-03-20T12:36:52.000Z</time>
      </trkpt>
      <trkpt lat="47.33708" lon="-1.50819">
        <ele>57</ele>
        <time>2021-03-20T12:36:54.000Z</time>
      </trkpt>
      <trkpt lat="47.33711" lon="-1.50799">
        <ele>57</ele>
        <time>2021-03-20T12:36:56.000Z</time>
      </trkpt>
      <trkpt lat="47.33715" lon="-1.50778">
        <ele>57</ele>
        <time>2021-03-20T12:36:58.000Z</time>
      </trkpt>
      <trkpt lat="47.33719" lon="-1.50758">
        <ele>57</ele>
        <time>2021-03-20T12:37:00.000Z</time>
      </trkpt>
      <trkpt lat="47.33723" lon="-1.50738">
        <ele>57</ele>
        <time>2021-03-20T12:37:02.000Z</time>
      </trkpt>
      <trkpt lat="47.33727" lon="-1.50718">
        <ele>56</ele>
        <time>2021-03-20T12:37:04.000Z</time>
      </trkpt>
      <trkpt lat="47.33731" lon="-1.50697">
        <ele>56</ele>
        <time>2021-03-20T12:37:06.000Z</time>
      </trkpt>
      <trkpt lat="47.33735" lon="-1.50677">
        <ele>56</ele>
        <time>2021-03-20T12:37:08.000Z</time>
      </trkpt>
      <trkpt lat="47.33739" lon="-1.50656">
        <ele>56</ele>
        <time>2021-03-20T12:37:10.000Z</time>
      </trkpt>
      <trkpt lat="47.33744" lon="-1.50636">
        <ele>56</ele>
        <time>2021-03-20T12:37:12.000Z</time>
      </trkpt>
      <trkpt lat="47.33748" lon="-1.50615">
        <ele>56</ele>
        <time>2021-03-20T12:37:14.000Z</time>
      </trkpt>
      <trkpt lat="47.33751" lon="-1.50594">
        <ele>55</ele>
        <time>2021-03-20T12:37:16.000Z</time>
      </trkpt>
      <trkpt lat="47.33756" lon="-1.50573">
        <ele>55</ele>
        <time>2021-03-20T12:37:18.000Z</time>
      </trkpt>
      <trkpt lat="47.33759" lon="-1.50552">
        <ele>55</ele>
        <time>2021-03-20T12:37:20.000Z</time>
      </trkpt>
      <trkpt lat="47.33764" lon="-1.50532">
        <ele>54</ele>
        <time>2021-03-20T12:37:22.000Z</time>
      </trkpt>
      <trkpt lat="47.33768" lon="-1.50512">
        <ele>54</ele>
        <time>2021-03-20T12:37:24.000Z</time>
      </trkpt>
      <trkpt lat="47.33772" lon="-1.50492">
        <ele>54</ele>
        <time>2021-03-20T12:37:26.000Z</time>
      </trkpt>
      <trkpt lat="47.33776" lon="-1.50472">
        <ele>54</ele>
        <time>2021-03-20T12:37:28.000Z</time>
      </trkpt>
      <trkpt lat="47.3378" lon="-1.50453">
        <ele>54</ele>
        <time>2021-03-20T12:37:30.000Z</time>
      </trkpt>
      <trkpt lat="47.33783" lon="-1.50434">
        <ele>54</ele>
        <time>2021-03-20T12:37:32.000Z</time>
      </trkpt>
      <trkpt lat="47.33787" lon="-1.50415">
        <ele>54</ele>
        <time>2021-03-20T12:37:34.000Z</time>
      </trkpt>
      <trkpt lat="47.3379" lon="-1.50396">
        <ele>54</ele>
        <time>2021-03-20T12:37:36.000Z</time>
      </trkpt>
      <trkpt lat="47.3379" lon="-1.50375">
        <ele>54</ele>
        <time>2021-03-20T12:37:38.000Z</time>
      </trkpt>
      <trkpt lat="47.33789" lon="-1.50356">
        <ele>54</ele>
        <time>2021-03-20T12:37:40.000Z</time>
      </trkpt>
      <trkpt lat="47.33786" lon="-1.50337">
        <ele>54</ele>
        <time>2021-03-20T12:37:42.000Z</time>
      </trkpt>
      <trkpt lat="47.33783" lon="-1.50318">
        <ele>55</ele>
        <time>2021-03-20T12:37:44.000Z</time>
      </trkpt>
      <trkpt lat="47.33781" lon="-1.50299">
        <ele>55</ele>
        <time>2021-03-20T12:37:46.000Z</time>
      </trkpt>
      <trkpt lat="47.33778" lon="-1.50281">
        <ele>55</ele>
        <time>2021-03-20T12:37:48.000Z</time>
      </trkpt>
      <trkpt lat="47.33776" lon="-1.50263">
        <ele>56</ele>
        <time>2021-03-20T12:37:50.000Z</time>
      </trkpt>
      <trkpt lat="47.33773" lon="-1.50246">
        <ele>56</ele>
        <time>2021-03-20T12:37:52.000Z</time>
      </trkpt>
      <trkpt lat="47.3377" lon="-1.50229">
        <ele>57</ele>
        <time>2021-03-20T12:37:54.000Z</time>
      </trkpt>
      <trkpt lat="47.33767" lon="-1.50212">
        <ele>58</ele>
        <time>2021-03-20T12:37:56.000Z</time>
      </trkpt>
      <trkpt lat="47.33764" lon="-1.50195">
        <ele>58</ele>
        <time>2021-03-20T12:37:58.000Z</time>
      </trkpt>
      <trkpt lat="47.33761" lon="-1.50179">
        <ele>59</ele>
        <time>2021-03-20T12:38:00.000Z</time>
      </trkpt>
      <trkpt lat="47.33758" lon="-1.50162">
        <ele>60</ele>
        <time>2021-03-20T12:38:02.000Z</time>
      </trkpt>
      <trkpt lat="47.33755" lon="-1.50145">
        <ele>61</ele>
        <time>2021-03-20T12:38:04.000Z</time>
      </trkpt>
      <trkpt lat="47.33753" lon="-1.50128">
        <ele>61</ele>
        <time>2021-03-20T12:38:06.000Z</time>
      </trkpt>
      <trkpt lat="47.33752" lon="-1.5011">
        <ele>61</ele>
        <time>2021-03-20T12:38:08.000Z</time>
      </trkpt>
      <trkpt lat="47.33751" lon="-1.50092">
        <ele>61</ele>
        <time>2021-03-20T12:38:10.000Z</time>
      </trkpt>
      <trkpt lat="47.33751" lon="-1.50074">
        <ele>61</ele>
        <time>2021-03-20T12:38:12.000Z</time>
      </trkpt>
      <trkpt lat="47.33749" lon="-1.50057">
        <ele>62</ele>
        <time>2021-03-20T12:38:14.000Z</time>
      </trkpt>
      <trkpt lat="47.33747" lon="-1.5004">
        <ele>62</ele>
        <time>2021-03-20T12:38:16.000Z</time>
      </trkpt>
      <trkpt lat="47.33745" lon="-1.50024">
        <ele>62</ele>
        <time>2021-03-20T12:38:18.000Z</time>
      </trkpt>
      <trkpt lat="47.33741" lon="-1.50007">
        <ele>62</ele>
        <time>2021-03-20T12:38:20.000Z</time>
      </trkpt>
      <trkpt lat="47.33738" lon="-1.49991">
        <ele>61</ele>
        <time>2021-03-20T12:38:22.000Z</time>
      </trkpt>
      <trkpt lat="47.33734" lon="-1.49973">
        <ele>61</ele>
        <time>2021-03-20T12:38:24.000Z</time>
      </trkpt>
      <trkpt lat="47.33729" lon="-1.49956">
        <ele>61</ele>
        <time>2021-03-20T12:38:26.000Z</time>
      </trkpt>
      <trkpt lat="47.33723" lon="-1.4994">
        <ele>60</ele>
        <time>2021-03-20T12:38:28.000Z</time>
      </trkpt>
      <trkpt lat="47.33714" lon="-1.49924">
        <ele>59</ele>
        <time>2021-03-20T12:38:30.000Z</time>
      </trkpt>
      <trkpt lat="47.33702" lon="-1.4991">
        <ele>59</ele>
        <time>2021-03-20T12:38:32.000Z</time>
      </trkpt>
      <trkpt lat="47.33688" lon="-1.49896">
        <ele>58</ele>
        <time>2021-03-20T12:38:34.000Z</time>
      </trkpt>
      <trkpt lat="47.33676" lon="-1.49877">
        <ele>57</ele>
        <time>2021-03-20T12:38:36.000Z</time>
      </trkpt>
      <trkpt lat="47.33665" lon="-1.49857">
        <ele>57</ele>
        <time>2021-03-20T12:38:38.000Z</time>
      </trkpt>
      <trkpt lat="47.33657" lon="-1.49834">
        <ele>57</ele>
        <time>2021-03-20T12:38:40.000Z</time>
      </trkpt>
      <trkpt lat="47.33652" lon="-1.49808">
        <ele>57</ele>
        <time>2021-03-20T12:38:42.000Z</time>
      </trkpt>
      <trkpt lat="47.3365" lon="-1.49784">
        <ele>57</ele>
        <time>2021-03-20T12:38:44.000Z</time>
      </trkpt>
      <trkpt lat="47.33648" lon="-1.4976">
        <ele>56</ele>
        <time>2021-03-20T12:38:46.000Z</time>
      </trkpt>
      <trkpt lat="47.33645" lon="-1.49737">
        <ele>56</ele>
        <time>2021-03-20T12:38:48.000Z</time>
      </trkpt>
      <trkpt lat="47.33642" lon="-1.49714">
        <ele>56</ele>
        <time>2021-03-20T12:38:50.000Z</time>
      </trkpt>
      <trkpt lat="47.3364" lon="-1.49692">
        <ele>56</ele>
        <time>2021-03-20T12:38:52.000Z</time>
      </trkpt>
      <trkpt lat="47.33638" lon="-1.4967">
        <ele>57</ele>
        <time>2021-03-20T12:38:54.000Z</time>
      </trkpt>
      <trkpt lat="47.33636" lon="-1.49649">
        <ele>57</ele>
        <time>2021-03-20T12:38:56.000Z</time>
      </trkpt>
      <trkpt lat="47.33637" lon="-1.49628">
        <ele>57</ele>
        <time>2021-03-20T12:38:58.000Z</time>
      </trkpt>
      <trkpt lat="47.33637" lon="-1.49609">
        <ele>57</ele>
        <time>2021-03-20T12:39:00.000Z</time>
      </trkpt>
      <trkpt lat="47.33638" lon="-1.49588">
        <ele>57</ele>
        <time>2021-03-20T12:39:02.000Z</time>
      </trkpt>
      <trkpt lat="47.33637" lon="-1.49569">
        <ele>57</ele>
        <time>2021-03-20T12:39:04.000Z</time>
      </trkpt>
      <trkpt lat="47.33633" lon="-1.49548">
        <ele>57</ele>
        <time>2021-03-20T12:39:06.000Z</time>
      </trkpt>
      <trkpt lat="47.33629" lon="-1.49528">
        <ele>57</ele>
        <time>2021-03-20T12:39:08.000Z</time>
      </trkpt>
      <trkpt lat="47.33624" lon="-1.49508">
        <ele>57</ele>
        <time>2021-03-20T12:39:10.000Z</time>
      </trkpt>
      <trkpt lat="47.33618" lon="-1.49489">
        <ele>56</ele>
        <time>2021-03-20T12:39:12.000Z</time>
      </trkpt>
      <trkpt lat="47.33611" lon="-1.49471">
        <ele>56</ele>
        <time>2021-03-20T12:39:14.000Z</time>
      </trkpt>
      <trkpt lat="47.33605" lon="-1.49453">
        <ele>57</ele>
        <time>2021-03-20T12:39:16.000Z</time>
      </trkpt>
      <trkpt lat="47.33599" lon="-1.49435">
        <ele>57</ele>
        <time>2021-03-20T12:39:18.000Z</time>
      </trkpt>
      <trkpt lat="47.33591" lon="-1.49418">
        <ele>56</ele>
        <time>2021-03-20T12:39:20.000Z</time>
      </trkpt>
      <trkpt lat="47.33585" lon="-1.494">
        <ele>56</ele>
        <time>2021-03-20T12:39:22.000Z</time>
      </trkpt>
      <trkpt lat="47.33577" lon="-1.49383">
        <ele>55</ele>
        <time>2021-03-20T12:39:24.000Z</time>
      </trkpt>
      <trkpt lat="47.33571" lon="-1.49367">
        <ele>55</ele>
        <time>2021-03-20T12:39:26.000Z</time>
      </trkpt>
      <trkpt lat="47.33564" lon="-1.49351">
        <ele>55</ele>
        <time>2021-03-20T12:39:28.000Z</time>
      </trkpt>
      <trkpt lat="47.33564" lon="-1.49333">
        <ele>55</ele>
        <time>2021-03-20T12:39:30.000Z</time>
      </trkpt>
      <trkpt lat="47.33574" lon="-1.49317">
        <ele>55</ele>
        <time>2021-03-20T12:39:32.000Z</time>
      </trkpt>
      <trkpt lat="47.33584" lon="-1.49303">
        <ele>54</ele>
        <time>2021-03-20T12:39:34.000Z</time>
      </trkpt>
      <trkpt lat="47.33595" lon="-1.49288">
        <ele>54</ele>
        <time>2021-03-20T12:39:36.000Z</time>
      </trkpt>
      <trkpt lat="47.33606" lon="-1.49274">
        <ele>53</ele>
        <time>2021-03-20T12:39:38.000Z</time>
      </trkpt>
      <trkpt lat="47.33617" lon="-1.49261">
        <ele>53</ele>
        <time>2021-03-20T12:39:40.000Z</time>
      </trkpt>
      <trkpt lat="47.33627" lon="-1.49248">
        <ele>53</ele>
        <time>2021-03-20T12:39:42.000Z</time>
      </trkpt>
      <trkpt lat="47.33636" lon="-1.49235">
        <ele>53</ele>
        <time>2021-03-20T12:39:44.000Z</time>
      </trkpt>
      <trkpt lat="47.33647" lon="-1.49224">
        <ele>53</ele>
        <time>2021-03-20T12:39:46.000Z</time>
      </trkpt>
      <trkpt lat="47.33656" lon="-1.49212">
        <ele>53</ele>
        <time>2021-03-20T12:39:48.000Z</time>
      </trkpt>
      <trkpt lat="47.33666" lon="-1.492">
        <ele>53</ele>
        <time>2021-03-20T12:39:50.000Z</time>
      </trkpt>
      <trkpt lat="47.33675" lon="-1.49189">
        <ele>53</ele>
        <time>2021-03-20T12:39:52.000Z</time>
      </trkpt>
      <trkpt lat="47.33684" lon="-1.49176">
        <ele>53</ele>
        <time>2021-03-20T12:39:54.000Z</time>
      </trkpt>
      <trkpt lat="47.33691" lon="-1.49162">
        <ele>54</ele>
        <time>2021-03-20T12:39:56.000Z</time>
      </trkpt>
      <trkpt lat="47.33696" lon="-1.49146">
        <ele>54</ele>
        <time>2021-03-20T12:39:58.000Z</time>
      </trkpt>
      <trkpt lat="47.33698" lon="-1.49129">
        <ele>55</ele>
        <time>2021-03-20T12:40:00.000Z</time>
      </trkpt>
      <trkpt lat="47.337" lon="-1.49111">
        <ele>55</ele>
        <time>2021-03-20T12:40:02.000Z</time>
      </trkpt>
      <trkpt lat="47.33703" lon="-1.49093">
        <ele>56</ele>
        <time>2021-03-20T12:40:04.000Z</time>
      </trkpt>
      <trkpt lat="47.33709" lon="-1.49078">
        <ele>57</ele>
        <time>2021-03-20T12:40:06.000Z</time>
      </trkpt>
      <trkpt lat="47.33716" lon="-1.49066">
        <ele>57</ele>
        <time>2021-03-20T12:40:08.000Z</time>
      </trkpt>
      <trkpt lat="47.33726" lon="-1.49054">
        <ele>58</ele>
        <time>2021-03-20T12:40:10.000Z</time>
      </trkpt>
      <trkpt lat="47.33735" lon="-1.49045">
        <ele>58</ele>
        <time>2021-03-20T12:40:12.000Z</time>
      </trkpt>
      <trkpt lat="47.33745" lon="-1.49034">
        <ele>58</ele>
        <time>2021-03-20T12:40:14.000Z</time>
      </trkpt>
      <trkpt lat="47.33754" lon="-1.49024">
        <ele>59</ele>
        <time>2021-03-20T12:40:16.000Z</time>
      </trkpt>
      <trkpt lat="47.33764" lon="-1.49013">
        <ele>59</ele>
        <time>2021-03-20T12:40:18.000Z</time>
      </trkpt>
      <trkpt lat="47.33773" lon="-1.49003">
        <ele>59</ele>
        <time>2021-03-20T12:40:20.000Z</time>
      </trkpt>
      <trkpt lat="47.33782" lon="-1.48992">
        <ele>59</ele>
        <time>2021-03-20T12:40:22.000Z</time>
      </trkpt>
      <trkpt lat="47.33791" lon="-1.48981">
        <ele>59</ele>
        <time>2021-03-20T12:40:24.000Z</time>
      </trkpt>
      <trkpt lat="47.338" lon="-1.48969">
        <ele>59</ele>
        <time>2021-03-20T12:40:26.000Z</time>
      </trkpt>
      <trkpt lat="47.33809" lon="-1.48957">
        <ele>59</ele>
        <time>2021-03-20T12:40:28.000Z</time>
      </trkpt>
      <trkpt lat="47.33817" lon="-1.48943">
        <ele>58</ele>
        <time>2021-03-20T12:40:30.000Z</time>
      </trkpt>
      <trkpt lat="47.33826" lon="-1.4893">
        <ele>58</ele>
        <time>2021-03-20T12:40:32.000Z</time>
      </trkpt>
      <trkpt lat="47.33834" lon="-1.48916">
        <ele>57</ele>
        <time>2021-03-20T12:40:34.000Z</time>
      </trkpt>
      <trkpt lat="47.33843" lon="-1.48902">
        <ele>57</ele>
        <time>2021-03-20T12:40:36.000Z</time>
      </trkpt>
      <trkpt lat="47.33852" lon="-1.48888">
        <ele>57</ele>
        <time>2021-03-20T12:40:38.000Z</time>
      </trkpt>
      <trkpt lat="47.33862" lon="-1.48873">
        <ele>57</ele>
        <time>2021-03-20T12:40:40.000Z</time>
      </trkpt>
      <trkpt lat="47.33872" lon="-1.48858">
        <ele>56</ele>
        <time>2021-03-20T12:40:42.000Z</time>
      </trkpt>
      <trkpt lat="47.33881" lon="-1.48843">
        <ele>56</ele>
        <time>2021-03-20T12:40:44.000Z</time>
      </trkpt>
      <trkpt lat="47.3389" lon="-1.48828">
        <ele>56</ele>
        <time>2021-03-20T12:40:46.000Z</time>
      </trkpt>
      <trkpt lat="47.339" lon="-1.48813">
        <ele>55</ele>
        <time>2021-03-20T12:40:48.000Z</time>
      </trkpt>
      <trkpt lat="47.3391" lon="-1.48797">
        <ele>55</ele>
        <time>2021-03-20T12:40:50.000Z</time>
      </trkpt>
      <trkpt lat="47.33919" lon="-1.48782">
        <ele>54</ele>
        <time>2021-03-20T12:40:52.000Z</time>
      </trkpt>
      <trkpt lat="47.33929" lon="-1.48766">
        <ele>53</ele>
        <time>2021-03-20T12:40:54.000Z</time>
      </trkpt>
      <trkpt lat="47.33939" lon="-1.4875">
        <ele>53</ele>
        <time>2021-03-20T12:40:56.000Z</time>
      </trkpt>
      <trkpt lat="47.33949" lon="-1.48734">
        <ele>52</ele>
        <time>2021-03-20T12:40:58.000Z</time>
      </trkpt>
      <trkpt lat="47.33959" lon="-1.48719">
        <ele>51</ele>
        <time>2021-03-20T12:41:00.000Z</time>
      </trkpt>
      <trkpt lat="47.33969" lon="-1.48703">
        <ele>51</ele>
        <time>2021-03-20T12:41:02.000Z</time>
      </trkpt>
      <trkpt lat="47.33979" lon="-1.48687">
        <ele>51</ele>
        <time>2021-03-20T12:41:04.000Z</time>
      </trkpt>
      <trkpt lat="47.33989" lon="-1.4867">
        <ele>50</ele>
        <time>2021-03-20T12:41:06.000Z</time>
      </trkpt>
      <trkpt lat="47.33999" lon="-1.48654">
        <ele>50</ele>
        <time>2021-03-20T12:41:08.000Z</time>
      </trkpt>
      <trkpt lat="47.34008" lon="-1.48638">
        <ele>50</ele>
        <time>2021-03-20T12:41:10.000Z</time>
      </trkpt>
      <trkpt lat="47.34018" lon="-1.48622">
        <ele>50</ele>
        <time>2021-03-20T12:41:12.000Z</time>
      </trkpt>
      <trkpt lat="47.34027" lon="-1.48606">
        <ele>50</ele>
        <time>2021-03-20T12:41:14.000Z</time>
      </trkpt>
      <trkpt lat="47.34036" lon="-1.4859">
        <ele>50</ele>
        <time>2021-03-20T12:41:16.000Z</time>
      </trkpt>
      <trkpt lat="47.34045" lon="-1.48573">
        <ele>51</ele>
        <time>2021-03-20T12:41:18.000Z</time>
      </trkpt>
      <trkpt lat="47.34053" lon="-1.48556">
        <ele>51</ele>
        <time>2021-03-20T12:41:20.000Z</time>
      </trkpt>
      <trkpt lat="47.34061" lon="-1.4854">
        <ele>52</ele>
        <time>2021-03-20T12:41:22.000Z</time>
      </trkpt>
      <trkpt lat="47.34068" lon="-1.48522">
        <ele>52</ele>
        <time>2021-03-20T12:41:24.000Z</time>
      </trkpt>
      <trkpt lat="47.34077" lon="-1.48507">
        <ele>51</ele>
        <time>2021-03-20T12:41:26.000Z</time>
      </trkpt>
      <trkpt lat="47.34084" lon="-1.48491">
        <ele>51</ele>
        <time>2021-03-20T12:41:28.000Z</time>
      </trkpt>
      <trkpt lat="47.34092" lon="-1.48475">
        <ele>52</ele>
        <time>2021-03-20T12:41:30.000Z</time>
      </trkpt>
      <trkpt lat="47.341" lon="-1.48458">
        <ele>52</ele>
        <time>2021-03-20T12:41:32.000Z</time>
      </trkpt>
      <trkpt lat="47.34107" lon="-1.48441">
        <ele>52</ele>
        <time>2021-03-20T12:41:34.000Z</time>
      </trkpt>
      <trkpt lat="47.34115" lon="-1.48425">
        <ele>52</ele>
        <time>2021-03-20T12:41:36.000Z</time>
      </trkpt>
      <trkpt lat="47.34122" lon="-1.48408">
        <ele>52</ele>
        <time>2021-03-20T12:41:38.000Z</time>
      </trkpt>
      <trkpt lat="47.3413" lon="-1.48392">
        <ele>52</ele>
        <time>2021-03-20T12:41:40.000Z</time>
      </trkpt>
      <trkpt lat="47.34137" lon="-1.48375">
        <ele>52</ele>
        <time>2021-03-20T12:41:42.000Z</time>
      </trkpt>
      <trkpt lat="47.34145" lon="-1.48359">
        <ele>52</ele>
        <time>2021-03-20T12:41:44.000Z</time>
      </trkpt>
      <trkpt lat="47.34153" lon="-1.48343">
        <ele>51</ele>
        <time>2021-03-20T12:41:46.000Z</time>
      </trkpt>
      <trkpt lat="47.34161" lon="-1.48327">
        <ele>51</ele>
        <time>2021-03-20T12:41:48.000Z</time>
      </trkpt>
      <trkpt lat="47.34169" lon="-1.48311">
        <ele>51</ele>
        <time>2021-03-20T12:41:50.000Z</time>
      </trkpt>
      <trkpt lat="47.34176" lon="-1.48296">
        <ele>51</ele>
        <time>2021-03-20T12:41:52.000Z</time>
      </trkpt>
      <trkpt lat="47.34184" lon="-1.48281">
        <ele>51</ele>
        <time>2021-03-20T12:41:54.000Z</time>
      </trkpt>
      <trkpt lat="47.34193" lon="-1.48265">
        <ele>51</ele>
        <time>2021-03-20T12:41:56.000Z</time>
      </trkpt>
      <trkpt lat="47.34201" lon="-1.4825">
        <ele>50</ele>
        <time>2021-03-20T12:41:58.000Z</time>
      </trkpt>
      <trkpt lat="47.3421" lon="-1.48235">
        <ele>50</ele>
        <time>2021-03-20T12:42:00.000Z</time>
      </trkpt>
      <trkpt lat="47.3422" lon="-1.4822">
        <ele>50</ele>
        <time>2021-03-20T12:42:02.000Z</time>
      </trkpt>
      <trkpt lat="47.34229" lon="-1.48204">
        <ele>51</ele>
        <time>2021-03-20T12:42:04.000Z</time>
      </trkpt>
      <trkpt lat="47.34238" lon="-1.48189">
        <ele>50</ele>
        <time>2021-03-20T12:42:06.000Z</time>
      </trkpt>
      <trkpt lat="47.34247" lon="-1.48175">
        <ele>50</ele>
        <time>2021-03-20T12:42:08.000Z</time>
      </trkpt>
      <trkpt lat="47.34256" lon="-1.4816">
        <ele>50</ele>
        <time>2021-03-20T12:42:10.000Z</time>
      </trkpt>
      <trkpt lat="47.34265" lon="-1.48146">
        <ele>50</ele>
        <time>2021-03-20T12:42:12.000Z</time>
      </trkpt>
      <trkpt lat="47.34274" lon="-1.48131">
        <ele>49</ele>
        <time>2021-03-20T12:42:14.000Z</time>
      </trkpt>
      <trkpt lat="47.34283" lon="-1.48117">
        <ele>49</ele>
        <time>2021-03-20T12:42:16.000Z</time>
      </trkpt>
      <trkpt lat="47.34291" lon="-1.48103">
        <ele>49</ele>
        <time>2021-03-20T12:42:18.000Z</time>
      </trkpt>
      <trkpt lat="47.343" lon="-1.48088">
        <ele>49</ele>
        <time>2021-03-20T12:42:20.000Z</time>
      </trkpt>
      <trkpt lat="47.34309" lon="-1.48074">
        <ele>49</ele>
        <time>2021-03-20T12:42:22.000Z</time>
      </trkpt>
      <trkpt lat="47.34319" lon="-1.48059">
        <ele>49</ele>
        <time>2021-03-20T12:42:24.000Z</time>
      </trkpt>
      <trkpt lat="47.34328" lon="-1.48044">
        <ele>49</ele>
        <time>2021-03-20T12:42:26.000Z</time>
      </trkpt>
      <trkpt lat="47.34337" lon="-1.4803">
        <ele>50</ele>
        <time>2021-03-20T12:42:28.000Z</time>
      </trkpt>
      <trkpt lat="47.34346" lon="-1.48015">
        <ele>50</ele>
        <time>2021-03-20T12:42:30.000Z</time>
      </trkpt>
      <trkpt lat="47.34355" lon="-1.48001">
        <ele>50</ele>
        <time>2021-03-20T12:42:32.000Z</time>
      </trkpt>
      <trkpt lat="47.34364" lon="-1.47985">
        <ele>50</ele>
        <time>2021-03-20T12:42:34.000Z</time>
      </trkpt>
      <trkpt lat="47.34373" lon="-1.47971">
        <ele>50</ele>
        <time>2021-03-20T12:42:36.000Z</time>
      </trkpt>
      <trkpt lat="47.34383" lon="-1.47957">
        <ele>49</ele>
        <time>2021-03-20T12:42:38.000Z</time>
      </trkpt>
      <trkpt lat="47.34392" lon="-1.47944">
        <ele>50</ele>
        <time>2021-03-20T12:42:40.000Z</time>
      </trkpt>
      <trkpt lat="47.344" lon="-1.4793">
        <ele>50</ele>
        <time>2021-03-20T12:42:42.000Z</time>
      </trkpt>
      <trkpt lat="47.34409" lon="-1.47918">
        <ele>50</ele>
        <time>2021-03-20T12:42:44.000Z</time>
      </trkpt>
      <trkpt lat="47.34418" lon="-1.47906">
        <ele>51</ele>
        <time>2021-03-20T12:42:46.000Z</time>
      </trkpt>
      <trkpt lat="47.34427" lon="-1.47894">
        <ele>50</ele>
        <time>2021-03-20T12:42:48.000Z</time>
      </trkpt>
      <trkpt lat="47.34436" lon="-1.47882">
        <ele>50</ele>
        <time>2021-03-20T12:42:50.000Z</time>
      </trkpt>
      <trkpt lat="47.34446" lon="-1.4787">
        <ele>50</ele>
        <time>2021-03-20T12:42:52.000Z</time>
      </trkpt>
      <trkpt lat="47.34455" lon="-1.47859">
        <ele>50</ele>
        <time>2021-03-20T12:42:54.000Z</time>
      </trkpt>
      <trkpt lat="47.34465" lon="-1.47847">
        <ele>50</ele>
        <time>2021-03-20T12:42:56.000Z</time>
      </trkpt>
      <trkpt lat="47.34475" lon="-1.47836">
        <ele>50</ele>
        <time>2021-03-20T12:42:58.000Z</time>
      </trkpt>
      <trkpt lat="47.34485" lon="-1.47826">
        <ele>50</ele>
        <time>2021-03-20T12:43:00.000Z</time>
      </trkpt>
      <trkpt lat="47.34495" lon="-1.47815">
        <ele>50</ele>
        <time>2021-03-20T12:43:02.000Z</time>
      </trkpt>
      <trkpt lat="47.34504" lon="-1.47806">
        <ele>50</ele>
        <time>2021-03-20T12:43:04.000Z</time>
      </trkpt>
      <trkpt lat="47.34514" lon="-1.47796">
        <ele>51</ele>
        <time>2021-03-20T12:43:06.000Z</time>
      </trkpt>
      <trkpt lat="47.34523" lon="-1.47785">
        <ele>51</ele>
        <time>2021-03-20T12:43:08.000Z</time>
      </trkpt>
      <trkpt lat="47.34532" lon="-1.47774">
        <ele>51</ele>
        <time>2021-03-20T12:43:10.000Z</time>
      </trkpt>
      <trkpt lat="47.34541" lon="-1.47762">
        <ele>51</ele>
        <time>2021-03-20T12:43:12.000Z</time>
      </trkpt>
      <trkpt lat="47.3455" lon="-1.47751">
        <ele>51</ele>
        <time>2021-03-20T12:43:14.000Z</time>
      </trkpt>
      <trkpt lat="47.34559" lon="-1.47741">
        <ele>51</ele>
        <time>2021-03-20T12:43:16.000Z</time>
      </trkpt>
      <trkpt lat="47.34568" lon="-1.4773">
        <ele>52</ele>
        <time>2021-03-20T12:43:18.000Z</time>
      </trkpt>
      <trkpt lat="47.34577" lon="-1.4772">
        <ele>51</ele>
        <time>2021-03-20T12:43:20.000Z</time>
      </trkpt>
      <trkpt lat="47.34587" lon="-1.47709">
        <ele>51</ele>
        <time>2021-03-20T12:43:22.000Z</time>
      </trkpt>
      <trkpt lat="47.34597" lon="-1.47698">
        <ele>51</ele>
        <time>2021-03-20T12:43:24.000Z</time>
      </trkpt>
      <trkpt lat="47.34606" lon="-1.47687">
        <ele>52</ele>
        <time>2021-03-20T12:43:26.000Z</time>
      </trkpt>
      <trkpt lat="47.34616" lon="-1.47677">
        <ele>52</ele>
        <time>2021-03-20T12:43:28.000Z</time>
      </trkpt>
      <trkpt lat="47.34625" lon="-1.47667">
        <ele>52</ele>
        <time>2021-03-20T12:43:30.000Z</time>
      </trkpt>
      <trkpt lat="47.34633" lon="-1.47657">
        <ele>52</ele>
        <time>2021-03-20T12:43:32.000Z</time>
      </trkpt>
      <trkpt lat="47.34642" lon="-1.47648">
        <ele>52</ele>
        <time>2021-03-20T12:43:34.000Z</time>
      </trkpt>
      <trkpt lat="47.34651" lon="-1.47639">
        <ele>53</ele>
        <time>2021-03-20T12:43:36.000Z</time>
      </trkpt>
      <trkpt lat="47.3466" lon="-1.47629">
        <ele>53</ele>
        <time>2021-03-20T12:43:38.000Z</time>
      </trkpt>
      <trkpt lat="47.3467" lon="-1.47618">
        <ele>53</ele>
        <time>2021-03-20T12:43:40.000Z</time>
      </trkpt>
      <trkpt lat="47.34678" lon="-1.47608">
        <ele>52</ele>
        <time>2021-03-20T12:43:42.000Z</time>
      </trkpt>
      <trkpt lat="47.34687" lon="-1.47598">
        <ele>53</ele>
        <time>2021-03-20T12:43:44.000Z</time>
      </trkpt>
      <trkpt lat="47.34695" lon="-1.47588">
        <ele>53</ele>
        <time>2021-03-20T12:43:46.000Z</time>
      </trkpt>
      <trkpt lat="47.34704" lon="-1.47578">
        <ele>53</ele>
        <time>2021-03-20T12:43:48.000Z</time>
      </trkpt>
      <trkpt lat="47.34713" lon="-1.47568">
        <ele>53</ele>
        <time>2021-03-20T12:43:50.000Z</time>
      </trkpt>
      <trkpt lat="47.34723" lon="-1.47558">
        <ele>53</ele>
        <time>2021-03-20T12:43:52.000Z</time>
      </trkpt>
      <trkpt lat="47.34732" lon="-1.47547">
        <ele>53</ele>
        <time>2021-03-20T12:43:54.000Z</time>
      </trkpt>
      <trkpt lat="47.34741" lon="-1.47537">
        <ele>53</ele>
        <time>2021-03-20T12:43:56.000Z</time>
      </trkpt>
      <trkpt lat="47.34751" lon="-1.47526">
        <ele>53</ele>
        <time>2021-03-20T12:43:58.000Z</time>
      </trkpt>
      <trkpt lat="47.3476" lon="-1.47514">
        <ele>53</ele>
        <time>2021-03-20T12:44:00.000Z</time>
      </trkpt>
      <trkpt lat="47.34768" lon="-1.47503">
        <ele>53</ele>
        <time>2021-03-20T12:44:02.000Z</time>
      </trkpt>
      <trkpt lat="47.34776" lon="-1.4749">
        <ele>53</ele>
        <time>2021-03-20T12:44:04.000Z</time>
      </trkpt>
      <trkpt lat="47.34783" lon="-1.47476">
        <ele>52</ele>
        <time>2021-03-20T12:44:06.000Z</time>
      </trkpt>
      <trkpt lat="47.34789" lon="-1.47462">
        <ele>52</ele>
        <time>2021-03-20T12:44:08.000Z</time>
      </trkpt>
      <trkpt lat="47.34795" lon="-1.47446">
        <ele>52</ele>
        <time>2021-03-20T12:44:10.000Z</time>
      </trkpt>
      <trkpt lat="47.34801" lon="-1.47431">
        <ele>52</ele>
        <time>2021-03-20T12:44:12.000Z</time>
      </trkpt>
      <trkpt lat="47.34807" lon="-1.47417">
        <ele>52</ele>
        <time>2021-03-20T12:44:14.000Z</time>
      </trkpt>
      <trkpt lat="47.34812" lon="-1.47402">
        <ele>52</ele>
        <time>2021-03-20T12:44:16.000Z</time>
      </trkpt>
      <trkpt lat="47.34819" lon="-1.47387">
        <ele>52</ele>
        <time>2021-03-20T12:44:18.000Z</time>
      </trkpt>
      <trkpt lat="47.34825" lon="-1.47373">
        <ele>52</ele>
        <time>2021-03-20T12:44:20.000Z</time>
      </trkpt>
      <trkpt lat="47.34833" lon="-1.47361">
        <ele>52</ele>
        <time>2021-03-20T12:44:22.000Z</time>
      </trkpt>
      <trkpt lat="47.34841" lon="-1.4735">
        <ele>52</ele>
        <time>2021-03-20T12:44:24.000Z</time>
      </trkpt>
      <trkpt lat="47.34849" lon="-1.47338">
        <ele>52</ele>
        <time>2021-03-20T12:44:26.000Z</time>
      </trkpt>
      <trkpt lat="47.34858" lon="-1.47328">
        <ele>52</ele>
        <time>2021-03-20T12:44:28.000Z</time>
      </trkpt>
      <trkpt lat="47.34867" lon="-1.47319">
        <ele>52</ele>
        <time>2021-03-20T12:44:30.000Z</time>
      </trkpt>
      <trkpt lat="47.34877" lon="-1.47311">
        <ele>52</ele>
        <time>2021-03-20T12:44:32.000Z</time>
      </trkpt>
      <trkpt lat="47.34887" lon="-1.47304">
        <ele>51</ele>
        <time>2021-03-20T12:44:34.000Z</time>
      </trkpt>
      <trkpt lat="47.34896" lon="-1.47297">
        <ele>51</ele>
        <time>2021-03-20T12:44:36.000Z</time>
      </trkpt>
      <trkpt lat="47.34905" lon="-1.4729">
        <ele>51</ele>
        <time>2021-03-20T12:44:38.000Z</time>
      </trkpt>
      <trkpt lat="47.34913" lon="-1.47283">
        <ele>52</ele>
        <time>2021-03-20T12:44:40.000Z</time>
      </trkpt>
      <trkpt lat="47.34922" lon="-1.47277">
        <ele>52</ele>
        <time>2021-03-20T12:44:42.000Z</time>
      </trkpt>
      <trkpt lat="47.34932" lon="-1.47272">
        <ele>52</ele>
        <time>2021-03-20T12:44:44.000Z</time>
      </trkpt>
      <trkpt lat="47.34941" lon="-1.47267">
        <ele>53</ele>
        <time>2021-03-20T12:44:46.000Z</time>
      </trkpt>
      <trkpt lat="47.3495" lon="-1.47262">
        <ele>54</ele>
        <time>2021-03-20T12:44:48.000Z</time>
      </trkpt>
      <trkpt lat="47.3496" lon="-1.47257">
        <ele>54</ele>
        <time>2021-03-20T12:44:50.000Z</time>
      </trkpt>
      <trkpt lat="47.34969" lon="-1.47253">
        <ele>56</ele>
        <time>2021-03-20T12:44:52.000Z</time>
      </trkpt>
      <trkpt lat="47.34978" lon="-1.47249">
        <ele>56</ele>
        <time>2021-03-20T12:44:54.000Z</time>
      </trkpt>
      <trkpt lat="47.34987" lon="-1.47243">
        <ele>56</ele>
        <time>2021-03-20T12:44:56.000Z</time>
      </trkpt>
      <trkpt lat="47.34996" lon="-1.47234">
        <ele>56</ele>
        <time>2021-03-20T12:44:58.000Z</time>
      </trkpt>
      <trkpt lat="47.35005" lon="-1.47224">
        <ele>56</ele>
        <time>2021-03-20T12:45:00.000Z</time>
      </trkpt>
      <trkpt lat="47.35014" lon="-1.47216">
        <ele>56</ele>
        <time>2021-03-20T12:45:02.000Z</time>
      </trkpt>
      <trkpt lat="47.35023" lon="-1.47211">
        <ele>56</ele>
        <time>2021-03-20T12:45:04.000Z</time>
      </trkpt>
      <trkpt lat="47.35034" lon="-1.47211">
        <ele>56</ele>
        <time>2021-03-20T12:45:06.000Z</time>
      </trkpt>
      <trkpt lat="47.35044" lon="-1.47217">
        <ele>57</ele>
        <time>2021-03-20T12:45:08.000Z</time>
      </trkpt>
      <trkpt lat="47.35055" lon="-1.47222">
        <ele>57</ele>
        <time>2021-03-20T12:45:10.000Z</time>
      </trkpt>
      <trkpt lat="47.35066" lon="-1.47226">
        <ele>57</ele>
        <time>2021-03-20T12:45:12.000Z</time>
      </trkpt>
      <trkpt lat="47.35077" lon="-1.47229">
        <ele>57</ele>
        <time>2021-03-20T12:45:14.000Z</time>
      </trkpt>
      <trkpt lat="47.35089" lon="-1.47232">
        <ele>58</ele>
        <time>2021-03-20T12:45:16.000Z</time>
      </trkpt>
      <trkpt lat="47.351" lon="-1.47234">
        <ele>58</ele>
        <time>2021-03-20T12:45:18.000Z</time>
      </trkpt>
      <trkpt lat="47.35112" lon="-1.47236">
        <ele>58</ele>
        <time>2021-03-20T12:45:20.000Z</time>
      </trkpt>
      <trkpt lat="47.35124" lon="-1.47239">
        <ele>58</ele>
        <time>2021-03-20T12:45:22.000Z</time>
      </trkpt>
      <trkpt lat="47.35135" lon="-1.47241">
        <ele>58</ele>
        <time>2021-03-20T12:45:24.000Z</time>
      </trkpt>
      <trkpt lat="47.35147" lon="-1.47242">
        <ele>57</ele>
        <time>2021-03-20T12:45:26.000Z</time>
      </trkpt>
      <trkpt lat="47.35159" lon="-1.47243">
        <ele>57</ele>
        <time>2021-03-20T12:45:28.000Z</time>
      </trkpt>
      <trkpt lat="47.3517" lon="-1.4724">
        <ele>57</ele>
        <time>2021-03-20T12:45:30.000Z</time>
      </trkpt>
      <trkpt lat="47.35181" lon="-1.47237">
        <ele>56</ele>
        <time>2021-03-20T12:45:32.000Z</time>
      </trkpt>
      <trkpt lat="47.35192" lon="-1.47233">
        <ele>56</ele>
        <time>2021-03-20T12:45:34.000Z</time>
      </trkpt>
      <trkpt lat="47.35202" lon="-1.4723">
        <ele>57</ele>
        <time>2021-03-20T12:45:36.000Z</time>
      </trkpt>
      <trkpt lat="47.35213" lon="-1.47235">
        <ele>57</ele>
        <time>2021-03-20T12:45:38.000Z</time>
      </trkpt>
      <trkpt lat="47.35223" lon="-1.47247">
        <ele>57</ele>
        <time>2021-03-20T12:45:40.000Z</time>
      </trkpt>
      <trkpt lat="47.35231" lon="-1.47261">
        <ele>57</ele>
        <time>2021-03-20T12:45:42.000Z</time>
      </trkpt>
      <trkpt lat="47.35238" lon="-1.47275">
        <ele>57</ele>
        <time>2021-03-20T12:45:44.000Z</time>
      </trkpt>
      <trkpt lat="47.35246" lon="-1.4729">
        <ele>57</ele>
        <time>2021-03-20T12:45:46.000Z</time>
      </trkpt>
      <trkpt lat="47.35256" lon="-1.473">
        <ele>58</ele>
        <time>2021-03-20T12:45:48.000Z</time>
      </trkpt>
      <trkpt lat="47.35267" lon="-1.47292">
        <ele>58</ele>
        <time>2021-03-20T12:45:50.000Z</time>
      </trkpt>
      <trkpt lat="47.35277" lon="-1.47286">
        <ele>57</ele>
        <time>2021-03-20T12:45:52.000Z</time>
      </trkpt>
      <trkpt lat="47.35287" lon="-1.47282">
        <ele>57</ele>
        <time>2021-03-20T12:45:54.000Z</time>
      </trkpt>
      <trkpt lat="47.35298" lon="-1.4728">
        <ele>56</ele>
        <time>2021-03-20T12:45:56.000Z</time>
      </trkpt>
      <trkpt lat="47.35308" lon="-1.47278">
        <ele>57</ele>
        <time>2021-03-20T12:45:58.000Z</time>
      </trkpt>
      <trkpt lat="47.35318" lon="-1.47278">
        <ele>56</ele>
        <time>2021-03-20T12:46:00.000Z</time>
      </trkpt>
      <trkpt lat="47.35328" lon="-1.47278">
        <ele>57</ele>
        <time>2021-03-20T12:46:02.000Z</time>
      </trkpt>
      <trkpt lat="47.3534" lon="-1.47277">
        <ele>57</ele>
        <time>2021-03-20T12:46:05.000Z</time>
      </trkpt>
      <trkpt lat="47.35352" lon="-1.47276">
        <ele>57</ele>
        <time>2021-03-20T12:46:08.000Z</time>
      </trkpt>
      <trkpt lat="47.35363" lon="-1.47274">
        <ele>58</ele>
        <time>2021-03-20T12:46:11.000Z</time>
      </trkpt>
      <trkpt lat="47.35375" lon="-1.47268">
        <ele>58</ele>
        <time>2021-03-20T12:46:14.000Z</time>
      </trkpt>
      <trkpt lat="47.35386" lon="-1.47259">
        <ele>59</ele>
        <time>2021-03-20T12:46:17.000Z</time>
      </trkpt>
      <trkpt lat="47.35397" lon="-1.47251">
        <ele>60</ele>
        <time>2021-03-20T12:46:20.000Z</time>
      </trkpt>
      <trkpt lat="47.35407" lon="-1.47241">
        <ele>61</ele>
        <time>2021-03-20T12:46:23.000Z</time>
      </trkpt>
      <trkpt lat="47.35418" lon="-1.47231">
        <ele>61</ele>
        <time>2021-03-20T12:46:26.000Z</time>
      </trkpt>
      <trkpt lat="47.35429" lon="-1.47222">
        <ele>61</ele>
        <time>2021-03-20T12:46:29.000Z</time>
      </trkpt>
      <trkpt lat="47.3544" lon="-1.47213">
        <ele>61</ele>
        <time>2021-03-20T12:46:32.000Z</time>
      </trkpt>
      <trkpt lat="47.3545" lon="-1.47203">
        <ele>62</ele>
        <time>2021-03-20T12:46:35.000Z</time>
      </trkpt>
      <trkpt lat="47.35461" lon="-1.47195">
        <ele>62</ele>
        <time>2021-03-20T12:46:38.000Z</time>
      </trkpt>
      <trkpt lat="47.35472" lon="-1.47185">
        <ele>63</ele>
        <time>2021-03-20T12:46:41.000Z</time>
      </trkpt>
      <trkpt lat="47.35482" lon="-1.47176">
        <ele>64</ele>
        <time>2021-03-20T12:46:44.000Z</time>
      </trkpt>
      <trkpt lat="47.35492" lon="-1.47167">
        <ele>65</ele>
        <time>2021-03-20T12:46:47.000Z</time>
      </trkpt>
      <trkpt lat="47.35502" lon="-1.47158">
        <ele>65</ele>
        <time>2021-03-20T12:46:50.000Z</time>
      </trkpt>
      <trkpt lat="47.35513" lon="-1.47148">
        <ele>65</ele>
        <time>2021-03-20T12:46:53.000Z</time>
      </trkpt>
      <trkpt lat="47.35521" lon="-1.47141">
        <ele>64</ele>
        <time>2021-03-20T12:46:55.000Z</time>
      </trkpt>
      <trkpt lat="47.35529" lon="-1.47134">
        <ele>64</ele>
        <time>2021-03-20T12:46:57.000Z</time>
      </trkpt>
      <trkpt lat="47.35538" lon="-1.47127">
        <ele>64</ele>
        <time>2021-03-20T12:46:59.000Z</time>
      </trkpt>
      <trkpt lat="47.35546" lon="-1.4712">
        <ele>64</ele>
        <time>2021-03-20T12:47:01.000Z</time>
      </trkpt>
      <trkpt lat="47.35555" lon="-1.47113">
        <ele>64</ele>
        <time>2021-03-20T12:47:03.000Z</time>
      </trkpt>
      <trkpt lat="47.35562" lon="-1.47106">
        <ele>64</ele>
        <time>2021-03-20T12:47:05.000Z</time>
      </trkpt>
      <trkpt lat="47.35573" lon="-1.47097">
        <ele>65</ele>
        <time>2021-03-20T12:47:08.000Z</time>
      </trkpt>
      <trkpt lat="47.35585" lon="-1.47088">
        <ele>66</ele>
        <time>2021-03-20T12:47:11.000Z</time>
      </trkpt>
      <trkpt lat="47.35596" lon="-1.47078">
        <ele>66</ele>
        <time>2021-03-20T12:47:14.000Z</time>
      </trkpt>
      <trkpt lat="47.35604" lon="-1.47072">
        <ele>65</ele>
        <time>2021-03-20T12:47:16.000Z</time>
      </trkpt>
      <trkpt lat="47.35614" lon="-1.47063">
        <ele>65</ele>
        <time>2021-03-20T12:47:18.000Z</time>
      </trkpt>
      <trkpt lat="47.35625" lon="-1.47054">
        <ele>63</ele>
        <time>2021-03-20T12:47:20.000Z</time>
      </trkpt>
      <trkpt lat="47.35637" lon="-1.47043">
        <ele>62</ele>
        <time>2021-03-20T12:47:22.000Z</time>
      </trkpt>
      <trkpt lat="47.35651" lon="-1.47031">
        <ele>60</ele>
        <time>2021-03-20T12:47:24.000Z</time>
      </trkpt>
      <trkpt lat="47.35659" lon="-1.47025">
        <ele>59</ele>
        <time>2021-03-20T12:47:25.000Z</time>
      </trkpt>
      <trkpt lat="47.35667" lon="-1.47018">
        <ele>58</ele>
        <time>2021-03-20T12:47:26.000Z</time>
      </trkpt>
      <trkpt lat="47.35675" lon="-1.47011">
        <ele>56</ele>
        <time>2021-03-20T12:47:27.000Z</time>
      </trkpt>
      <trkpt lat="47.35683" lon="-1.47003">
        <ele>55</ele>
        <time>2021-03-20T12:47:28.000Z</time>
      </trkpt>
      <trkpt lat="47.35692" lon="-1.46995">
        <ele>54</ele>
        <time>2021-03-20T12:47:29.000Z</time>
      </trkpt>
      <trkpt lat="47.35701" lon="-1.46987">
        <ele>52</ele>
        <time>2021-03-20T12:47:30.000Z</time>
      </trkpt>
      <trkpt lat="47.3571" lon="-1.46979">
        <ele>51</ele>
        <time>2021-03-20T12:47:31.000Z</time>
      </trkpt>
      <trkpt lat="47.35719" lon="-1.46971">
        <ele>51</ele>
        <time>2021-03-20T12:47:32.000Z</time>
      </trkpt>
      <trkpt lat="47.35733" lon="-1.46958">
        <ele>50</ele>
        <time>2021-03-20T12:47:34.000Z</time>
      </trkpt>
      <trkpt lat="47.35745" lon="-1.46947">
        <ele>49</ele>
        <time>2021-03-20T12:47:36.000Z</time>
      </trkpt>
      <trkpt lat="47.35747" lon="-1.46931">
        <ele>49</ele>
        <time>2021-03-20T12:47:38.000Z</time>
      </trkpt>
      <trkpt lat="47.35745" lon="-1.46913">
        <ele>50</ele>
        <time>2021-03-20T12:47:40.000Z</time>
      </trkpt>
      <trkpt lat="47.35741" lon="-1.46893">
        <ele>50</ele>
        <time>2021-03-20T12:47:42.000Z</time>
      </trkpt>
      <trkpt lat="47.35739" lon="-1.46875">
        <ele>51</ele>
        <time>2021-03-20T12:47:44.000Z</time>
      </trkpt>
      <trkpt lat="47.35737" lon="-1.46857">
        <ele>51</ele>
        <time>2021-03-20T12:47:46.000Z</time>
      </trkpt>
      <trkpt lat="47.35735" lon="-1.46839">
        <ele>51</ele>
        <time>2021-03-20T12:47:48.000Z</time>
      </trkpt>
      <trkpt lat="47.35733" lon="-1.4682">
        <ele>51</ele>
        <time>2021-03-20T12:47:50.000Z</time>
      </trkpt>
      <trkpt lat="47.35733" lon="-1.468">
        <ele>51</ele>
        <time>2021-03-20T12:47:52.000Z</time>
      </trkpt>
      <trkpt lat="47.35735" lon="-1.46782">
        <ele>51</ele>
        <time>2021-03-20T12:47:54.000Z</time>
      </trkpt>
      <trkpt lat="47.35738" lon="-1.46764">
        <ele>51</ele>
        <time>2021-03-20T12:47:56.000Z</time>
      </trkpt>
      <trkpt lat="47.35741" lon="-1.46747">
        <ele>51</ele>
        <time>2021-03-20T12:47:58.000Z</time>
      </trkpt>
      <trkpt lat="47.35744" lon="-1.46728">
        <ele>52</ele>
        <time>2021-03-20T12:48:00.000Z</time>
      </trkpt>
      <trkpt lat="47.35746" lon="-1.4671">
        <ele>52</ele>
        <time>2021-03-20T12:48:02.000Z</time>
      </trkpt>
      <trkpt lat="47.35748" lon="-1.46692">
        <ele>52</ele>
        <time>2021-03-20T12:48:04.000Z</time>
      </trkpt>
      <trkpt lat="47.35752" lon="-1.46673">
        <ele>52</ele>
        <time>2021-03-20T12:48:06.000Z</time>
      </trkpt>
      <trkpt lat="47.35758" lon="-1.46656">
        <ele>52</ele>
        <time>2021-03-20T12:48:08.000Z</time>
      </trkpt>
      <trkpt lat="47.35766" lon="-1.46641">
        <ele>52</ele>
        <time>2021-03-20T12:48:10.000Z</time>
      </trkpt>
      <trkpt lat="47.35776" lon="-1.46631">
        <ele>52</ele>
        <time>2021-03-20T12:48:12.000Z</time>
      </trkpt>
      <trkpt lat="47.35788" lon="-1.46621">
        <ele>51</ele>
        <time>2021-03-20T12:48:14.000Z</time>
      </trkpt>
      <trkpt lat="47.35799" lon="-1.46612">
        <ele>51</ele>
        <time>2021-03-20T12:48:16.000Z</time>
      </trkpt>
      <trkpt lat="47.35809" lon="-1.46603">
        <ele>50</ele>
        <time>2021-03-20T12:48:18.000Z</time>
      </trkpt>
      <trkpt lat="47.3582" lon="-1.46594">
        <ele>50</ele>
        <time>2021-03-20T12:48:20.000Z</time>
      </trkpt>
      <trkpt lat="47.35831" lon="-1.46586">
        <ele>49</ele>
        <time>2021-03-20T12:48:22.000Z</time>
      </trkpt>
      <trkpt lat="47.35842" lon="-1.46577">
        <ele>49</ele>
        <time>2021-03-20T12:48:24.000Z</time>
      </trkpt>
      <trkpt lat="47.35852" lon="-1.46568">
        <ele>49</ele>
        <time>2021-03-20T12:48:26.000Z</time>
      </trkpt>
      <trkpt lat="47.35863" lon="-1.4656">
        <ele>48</ele>
        <time>2021-03-20T12:48:28.000Z</time>
      </trkpt>
      <trkpt lat="47.35873" lon="-1.46552">
        <ele>48</ele>
        <time>2021-03-20T12:48:30.000Z</time>
      </trkpt>
      <trkpt lat="47.35883" lon="-1.46542">
        <ele>49</ele>
        <time>2021-03-20T12:48:32.000Z</time>
      </trkpt>
      <trkpt lat="47.35889" lon="-1.46528">
        <ele>49</ele>
        <time>2021-03-20T12:48:34.000Z</time>
      </trkpt>
      <trkpt lat="47.35891" lon="-1.46511">
        <ele>49</ele>
        <time>2021-03-20T12:48:36.000Z</time>
      </trkpt>
      <trkpt lat="47.35894" lon="-1.46493">
        <ele>50</ele>
        <time>2021-03-20T12:48:38.000Z</time>
      </trkpt>
      <trkpt lat="47.35897" lon="-1.46475">
        <ele>50</ele>
        <time>2021-03-20T12:48:40.000Z</time>
      </trkpt>
      <trkpt lat="47.359" lon="-1.46459">
        <ele>50</ele>
        <time>2021-03-20T12:48:42.000Z</time>
      </trkpt>
      <trkpt lat="47.35904" lon="-1.46441">
        <ele>51</ele>
        <time>2021-03-20T12:48:44.000Z</time>
      </trkpt>
      <trkpt lat="47.35906" lon="-1.46424">
        <ele>51</ele>
        <time>2021-03-20T12:48:46.000Z</time>
      </trkpt>
      <trkpt lat="47.35909" lon="-1.46407">
        <ele>51</ele>
        <time>2021-03-20T12:48:48.000Z</time>
      </trkpt>
      <trkpt lat="47.3591" lon="-1.4639">
        <ele>50</ele>
        <time>2021-03-20T12:48:50.000Z</time>
      </trkpt>
      <trkpt lat="47.35905" lon="-1.46374">
        <ele>50</ele>
        <time>2021-03-20T12:48:52.000Z</time>
      </trkpt>
      <trkpt lat="47.35896" lon="-1.4636">
        <ele>50</ele>
        <time>2021-03-20T12:48:54.000Z</time>
      </trkpt>
      <trkpt lat="47.35882" lon="-1.46339">
        <ele>50</ele>
        <time>2021-03-20T12:48:57.000Z</time>
      </trkpt>
      <trkpt lat="47.35873" lon="-1.46325">
        <ele>50</ele>
        <time>2021-03-20T12:48:59.000Z</time>
      </trkpt>
      <trkpt lat="47.35863" lon="-1.46314">
        <ele>51</ele>
        <time>2021-03-20T12:49:01.000Z</time>
      </trkpt>
      <trkpt lat="47.35853" lon="-1.46302">
        <ele>51</ele>
        <time>2021-03-20T12:49:03.000Z</time>
      </trkpt>
      <trkpt lat="47.35845" lon="-1.46288">
        <ele>52</ele>
        <time>2021-03-20T12:49:05.000Z</time>
      </trkpt>
      <trkpt lat="47.35839" lon="-1.46273">
        <ele>52</ele>
        <time>2021-03-20T12:49:07.000Z</time>
      </trkpt>
      <trkpt lat="47.35834" lon="-1.46257">
        <ele>52</ele>
        <time>2021-03-20T12:49:09.000Z</time>
      </trkpt>
      <trkpt lat="47.35833" lon="-1.4624">
        <ele>52</ele>
        <time>2021-03-20T12:49:11.000Z</time>
      </trkpt>
      <trkpt lat="47.35837" lon="-1.46223">
        <ele>52</ele>
        <time>2021-03-20T12:49:13.000Z</time>
      </trkpt>
      <trkpt lat="47.35843" lon="-1.46206">
        <ele>52</ele>
        <time>2021-03-20T12:49:15.000Z</time>
      </trkpt>
      <trkpt lat="47.35845" lon="-1.46189">
        <ele>52</ele>
        <time>2021-03-20T12:49:17.000Z</time>
      </trkpt>
      <trkpt lat="47.35842" lon="-1.46171">
        <ele>52</ele>
        <time>2021-03-20T12:49:19.000Z</time>
      </trkpt>
      <trkpt lat="47.35839" lon="-1.46153">
        <ele>53</ele>
        <time>2021-03-20T12:49:21.000Z</time>
      </trkpt>
      <trkpt lat="47.35835" lon="-1.46134">
        <ele>54</ele>
        <time>2021-03-20T12:49:23.000Z</time>
      </trkpt>
      <trkpt lat="47.35831" lon="-1.46117">
        <ele>54</ele>
        <time>2021-03-20T12:49:25.000Z</time>
      </trkpt>
      <trkpt lat="47.35827" lon="-1.46101">
        <ele>55</ele>
        <time>2021-03-20T12:49:27.000Z</time>
      </trkpt>
      <trkpt lat="47.35823" lon="-1.46083">
        <ele>55</ele>
        <time>2021-03-20T12:49:29.000Z</time>
      </trkpt>
      <trkpt lat="47.35819" lon="-1.46067">
        <ele>55</ele>
        <time>2021-03-20T12:49:31.000Z</time>
      </trkpt>
      <trkpt lat="47.35814" lon="-1.46051">
        <ele>55</ele>
        <time>2021-03-20T12:49:33.000Z</time>
      </trkpt>
      <trkpt lat="47.35809" lon="-1.46036">
        <ele>56</ele>
        <time>2021-03-20T12:49:35.000Z</time>
      </trkpt>
      <trkpt lat="47.35806" lon="-1.4602">
        <ele>56</ele>
        <time>2021-03-20T12:49:37.000Z</time>
      </trkpt>
      <trkpt lat="47.35803" lon="-1.46004">
        <ele>57</ele>
        <time>2021-03-20T12:49:39.000Z</time>
      </trkpt>
      <trkpt lat="47.35801" lon="-1.45987">
        <ele>57</ele>
        <time>2021-03-20T12:49:41.000Z</time>
      </trkpt>
      <trkpt lat="47.35801" lon="-1.4597">
        <ele>58</ele>
        <time>2021-03-20T12:49:43.000Z</time>
      </trkpt>
      <trkpt lat="47.35801" lon="-1.45944">
        <ele>58</ele>
        <time>2021-03-20T12:49:46.000Z</time>
      </trkpt>
      <trkpt lat="47.35801" lon="-1.45927">
        <ele>58</ele>
        <time>2021-03-20T12:49:48.000Z</time>
      </trkpt>
      <trkpt lat="47.358" lon="-1.45911">
        <ele>59</ele>
        <time>2021-03-20T12:49:50.000Z</time>
      </trkpt>
      <trkpt lat="47.358" lon="-1.45895">
        <ele>59</ele>
        <time>2021-03-20T12:49:52.000Z</time>
      </trkpt>
      <trkpt lat="47.35799" lon="-1.45878">
        <ele>60</ele>
        <time>2021-03-20T12:49:54.000Z</time>
      </trkpt>
      <trkpt lat="47.35798" lon="-1.45855">
        <ele>60</ele>
        <time>2021-03-20T12:49:57.000Z</time>
      </trkpt>
      <trkpt lat="47.35797" lon="-1.45838">
        <ele>60</ele>
        <time>2021-03-20T12:49:59.000Z</time>
      </trkpt>
      <trkpt lat="47.35796" lon="-1.45822">
        <ele>60</ele>
        <time>2021-03-20T12:50:01.000Z</time>
      </trkpt>
      <trkpt lat="47.35796" lon="-1.45805">
        <ele>60</ele>
        <time>2021-03-20T12:50:03.000Z</time>
      </trkpt>
      <trkpt lat="47.35796" lon="-1.4579">
        <ele>60</ele>
        <time>2021-03-20T12:50:05.000Z</time>
      </trkpt>
      <trkpt lat="47.35796" lon="-1.45774">
        <ele>60</ele>
        <time>2021-03-20T12:50:07.000Z</time>
      </trkpt>
      <trkpt lat="47.35796" lon="-1.45759">
        <ele>60</ele>
        <time>2021-03-20T12:50:09.000Z</time>
      </trkpt>
      <trkpt lat="47.35795" lon="-1.45746">
        <ele>60</ele>
        <time>2021-03-20T12:50:11.000Z</time>
      </trkpt>
      <trkpt lat="47.35791" lon="-1.45731">
        <ele>60</ele>
        <time>2021-03-20T12:50:16.000Z</time>
      </trkpt>
      <trkpt lat="47.35784" lon="-1.4572">
        <ele>60</ele>
        <time>2021-03-20T12:50:25.000Z</time>
      </trkpt>
      <trkpt lat="47.35785" lon="-1.45705">
        <ele>60</ele>
        <time>2021-03-20T12:50:27.000Z</time>
      </trkpt>
      <trkpt lat="47.35782" lon="-1.45691">
        <ele>60</ele>
        <time>2021-03-20T12:50:29.000Z</time>
      </trkpt>
      <trkpt lat="47.35778" lon="-1.45676">
        <ele>60</ele>
        <time>2021-03-20T12:50:31.000Z</time>
      </trkpt>
      <trkpt lat="47.35774" lon="-1.4566">
        <ele>60</ele>
        <time>2021-03-20T12:50:33.000Z</time>
      </trkpt>
      <trkpt lat="47.35769" lon="-1.45637">
        <ele>60</ele>
        <time>2021-03-20T12:50:36.000Z</time>
      </trkpt>
      <trkpt lat="47.35766" lon="-1.45621">
        <ele>60</ele>
        <time>2021-03-20T12:50:38.000Z</time>
      </trkpt>
      <trkpt lat="47.35764" lon="-1.45604">
        <ele>60</ele>
        <time>2021-03-20T12:50:40.000Z</time>
      </trkpt>
      <trkpt lat="47.35763" lon="-1.45588">
        <ele>60</ele>
        <time>2021-03-20T12:50:42.000Z</time>
      </trkpt>
      <trkpt lat="47.35764" lon="-1.45566">
        <ele>60</ele>
        <time>2021-03-20T12:50:45.000Z</time>
      </trkpt>
      <trkpt lat="47.35766" lon="-1.4555">
        <ele>60</ele>
        <time>2021-03-20T12:50:47.000Z</time>
      </trkpt>
      <trkpt lat="47.35772" lon="-1.45528">
        <ele>60</ele>
        <time>2021-03-20T12:50:50.000Z</time>
      </trkpt>
      <trkpt lat="47.35777" lon="-1.45514">
        <ele>60</ele>
        <time>2021-03-20T12:50:52.000Z</time>
      </trkpt>
      <trkpt lat="47.35781" lon="-1.45499">
        <ele>60</ele>
        <time>2021-03-20T12:50:54.000Z</time>
      </trkpt>
      <trkpt lat="47.35786" lon="-1.45486">
        <ele>60</ele>
        <time>2021-03-20T12:50:56.000Z</time>
      </trkpt>
      <trkpt lat="47.35793" lon="-1.45465">
        <ele>60</ele>
        <time>2021-03-20T12:50:59.000Z</time>
      </trkpt>
      <trkpt lat="47.35797" lon="-1.45449">
        <ele>60</ele>
        <time>2021-03-20T12:51:01.000Z</time>
      </trkpt>
      <trkpt lat="47.358" lon="-1.45434">
        <ele>60</ele>
        <time>2021-03-20T12:51:03.000Z</time>
      </trkpt>
      <trkpt lat="47.35801" lon="-1.45419">
        <ele>60</ele>
        <time>2021-03-20T12:51:05.000Z</time>
      </trkpt>
      <trkpt lat="47.35801" lon="-1.45404">
        <ele>60</ele>
        <time>2021-03-20T12:51:07.000Z</time>
      </trkpt>
      <trkpt lat="47.358" lon="-1.45388">
        <ele>61</ele>
        <time>2021-03-20T12:51:09.000Z</time>
      </trkpt>
      <trkpt lat="47.35798" lon="-1.45372">
        <ele>62</ele>
        <time>2021-03-20T12:51:11.000Z</time>
      </trkpt>
      <trkpt lat="47.35795" lon="-1.45356">
        <ele>62</ele>
        <time>2021-03-20T12:51:13.000Z</time>
      </trkpt>
      <trkpt lat="47.35792" lon="-1.4534">
        <ele>63</ele>
        <time>2021-03-20T12:51:15.000Z</time>
      </trkpt>
      <trkpt lat="47.3579" lon="-1.45325">
        <ele>63</ele>
        <time>2021-03-20T12:51:17.000Z</time>
      </trkpt>
      <trkpt lat="47.35788" lon="-1.45311">
        <ele>64</ele>
        <time>2021-03-20T12:51:19.000Z</time>
      </trkpt>
      <trkpt lat="47.35785" lon="-1.45295">
        <ele>63</ele>
        <time>2021-03-20T12:51:21.000Z</time>
      </trkpt>
      <trkpt lat="47.35783" lon="-1.45281">
        <ele>64</ele>
        <time>2021-03-20T12:51:23.000Z</time>
      </trkpt>
      <trkpt lat="47.3578" lon="-1.45266">
        <ele>64</ele>
        <time>2021-03-20T12:51:25.000Z</time>
      </trkpt>
      <trkpt lat="47.35778" lon="-1.45251">
        <ele>65</ele>
        <time>2021-03-20T12:51:27.000Z</time>
      </trkpt>
      <trkpt lat="47.35775" lon="-1.45237">
        <ele>65</ele>
        <time>2021-03-20T12:51:29.000Z</time>
      </trkpt>
      <trkpt lat="47.35773" lon="-1.45222">
        <ele>65</ele>
        <time>2021-03-20T12:51:31.000Z</time>
      </trkpt>
      <trkpt lat="47.3577" lon="-1.45207">
        <ele>65</ele>
        <time>2021-03-20T12:51:33.000Z</time>
      </trkpt>
      <trkpt lat="47.35768" lon="-1.45192">
        <ele>66</ele>
        <time>2021-03-20T12:51:35.000Z</time>
      </trkpt>
      <trkpt lat="47.35766" lon="-1.45178">
        <ele>67</ele>
        <time>2021-03-20T12:51:37.000Z</time>
      </trkpt>
      <trkpt lat="47.35765" lon="-1.45163">
        <ele>67</ele>
        <time>2021-03-20T12:51:39.000Z</time>
      </trkpt>
      <trkpt lat="47.35764" lon="-1.4515">
        <ele>67</ele>
        <time>2021-03-20T12:51:41.000Z</time>
      </trkpt>
      <trkpt lat="47.35764" lon="-1.4513">
        <ele>68</ele>
        <time>2021-03-20T12:51:44.000Z</time>
      </trkpt>
      <trkpt lat="47.35765" lon="-1.45115">
        <ele>68</ele>
        <time>2021-03-20T12:51:46.000Z</time>
      </trkpt>
      <trkpt lat="47.35768" lon="-1.45094">
        <ele>68</ele>
        <time>2021-03-20T12:51:49.000Z</time>
      </trkpt>
      <trkpt lat="47.35771" lon="-1.4508">
        <ele>68</ele>
        <time>2021-03-20T12:51:51.000Z</time>
      </trkpt>
      <trkpt lat="47.35772" lon="-1.45066">
        <ele>68</ele>
        <time>2021-03-20T12:51:53.000Z</time>
      </trkpt>
      <trkpt lat="47.35775" lon="-1.45052">
        <ele>68</ele>
        <time>2021-03-20T12:51:55.000Z</time>
      </trkpt>
      <trkpt lat="47.35777" lon="-1.45038">
        <ele>68</ele>
        <time>2021-03-20T12:51:57.000Z</time>
      </trkpt>
      <trkpt lat="47.35777" lon="-1.45024">
        <ele>68</ele>
        <time>2021-03-20T12:51:59.000Z</time>
      </trkpt>
      <trkpt lat="47.35779" lon="-1.4501">
        <ele>68</ele>
        <time>2021-03-20T12:52:01.000Z</time>
      </trkpt>
      <trkpt lat="47.35779" lon="-1.44996">
        <ele>67</ele>
        <time>2021-03-20T12:52:03.000Z</time>
      </trkpt>
      <trkpt lat="47.3578" lon="-1.44982">
        <ele>67</ele>
        <time>2021-03-20T12:52:05.000Z</time>
      </trkpt>
      <trkpt lat="47.35781" lon="-1.44967">
        <ele>67</ele>
        <time>2021-03-20T12:52:07.000Z</time>
      </trkpt>
      <trkpt lat="47.35781" lon="-1.44953">
        <ele>67</ele>
        <time>2021-03-20T12:52:09.000Z</time>
      </trkpt>
      <trkpt lat="47.35781" lon="-1.44939">
        <ele>67</ele>
        <time>2021-03-20T12:52:11.000Z</time>
      </trkpt>
      <trkpt lat="47.35782" lon="-1.44925">
        <ele>68</ele>
        <time>2021-03-20T12:52:13.000Z</time>
      </trkpt>
      <trkpt lat="47.35782" lon="-1.44912">
        <ele>68</ele>
        <time>2021-03-20T12:52:15.000Z</time>
      </trkpt>
      <trkpt lat="47.35783" lon="-1.44897">
        <ele>68</ele>
        <time>2021-03-20T12:52:17.000Z</time>
      </trkpt>
      <trkpt lat="47.35783" lon="-1.44883">
        <ele>68</ele>
        <time>2021-03-20T12:52:19.000Z</time>
      </trkpt>
      <trkpt lat="47.35783" lon="-1.44868">
        <ele>68</ele>
        <time>2021-03-20T12:52:21.000Z</time>
      </trkpt>
      <trkpt lat="47.35784" lon="-1.44854">
        <ele>69</ele>
        <time>2021-03-20T12:52:23.000Z</time>
      </trkpt>
      <trkpt lat="47.35784" lon="-1.4484">
        <ele>69</ele>
        <time>2021-03-20T12:52:25.000Z</time>
      </trkpt>
      <trkpt lat="47.35784" lon="-1.44826">
        <ele>69</ele>
        <time>2021-03-20T12:52:27.000Z</time>
      </trkpt>
      <trkpt lat="47.35785" lon="-1.44805">
        <ele>69</ele>
        <time>2021-03-20T12:52:30.000Z</time>
      </trkpt>
      <trkpt lat="47.35785" lon="-1.44792">
        <ele>70</ele>
        <time>2021-03-20T12:52:32.000Z</time>
      </trkpt>
      <trkpt lat="47.35785" lon="-1.44778">
        <ele>70</ele>
        <time>2021-03-20T12:52:34.000Z</time>
      </trkpt>
      <trkpt lat="47.35785" lon="-1.44761">
        <ele>71</ele>
        <time>2021-03-20T12:52:37.000Z</time>
      </trkpt>
      <trkpt lat="47.35786" lon="-1.44744">
        <ele>72</ele>
        <time>2021-03-20T12:52:40.000Z</time>
      </trkpt>
      <trkpt lat="47.35787" lon="-1.44727">
        <ele>72</ele>
        <time>2021-03-20T12:52:43.000Z</time>
      </trkpt>
      <trkpt lat="47.35787" lon="-1.44708">
        <ele>73</ele>
        <time>2021-03-20T12:52:46.000Z</time>
      </trkpt>
      <trkpt lat="47.35787" lon="-1.44691">
        <ele>73</ele>
        <time>2021-03-20T12:52:49.000Z</time>
      </trkpt>
      <trkpt lat="47.35788" lon="-1.44667">
        <ele>75</ele>
        <time>2021-03-20T12:52:53.000Z</time>
      </trkpt>
      <trkpt lat="47.35787" lon="-1.44653">
        <ele>75</ele>
        <time>2021-03-20T12:52:55.000Z</time>
      </trkpt>
      <trkpt lat="47.35788" lon="-1.44638">
        <ele>76</ele>
        <time>2021-03-20T12:52:57.000Z</time>
      </trkpt>
      <trkpt lat="47.35789" lon="-1.44624">
        <ele>77</ele>
        <time>2021-03-20T12:52:59.000Z</time>
      </trkpt>
      <trkpt lat="47.35789" lon="-1.44604">
        <ele>77</ele>
        <time>2021-03-20T12:53:02.000Z</time>
      </trkpt>
      <trkpt lat="47.35792" lon="-1.44585">
        <ele>79</ele>
        <time>2021-03-20T12:53:05.000Z</time>
      </trkpt>
      <trkpt lat="47.35793" lon="-1.44572">
        <ele>79</ele>
        <time>2021-03-20T12:53:07.000Z</time>
      </trkpt>
      <trkpt lat="47.35795" lon="-1.44553">
        <ele>80</ele>
        <time>2021-03-20T12:53:10.000Z</time>
      </trkpt>
      <trkpt lat="47.35797" lon="-1.44536">
        <ele>80</ele>
        <time>2021-03-20T12:53:13.000Z</time>
      </trkpt>
      <trkpt lat="47.35799" lon="-1.44518">
        <ele>80</ele>
        <time>2021-03-20T12:53:16.000Z</time>
      </trkpt>
      <trkpt lat="47.35801" lon="-1.445">
        <ele>80</ele>
        <time>2021-03-20T12:53:19.000Z</time>
      </trkpt>
      <trkpt lat="47.35803" lon="-1.44481">
        <ele>81</ele>
        <time>2021-03-20T12:53:22.000Z</time>
      </trkpt>
      <trkpt lat="47.35803" lon="-1.44462">
        <ele>81</ele>
        <time>2021-03-20T12:53:25.000Z</time>
      </trkpt>
      <trkpt lat="47.35804" lon="-1.44448">
        <ele>82</ele>
        <time>2021-03-20T12:53:27.000Z</time>
      </trkpt>
      <trkpt lat="47.35805" lon="-1.44434">
        <ele>82</ele>
        <time>2021-03-20T12:53:29.000Z</time>
      </trkpt>
      <trkpt lat="47.35805" lon="-1.4442">
        <ele>82</ele>
        <time>2021-03-20T12:53:31.000Z</time>
      </trkpt>
      <trkpt lat="47.35806" lon="-1.44405">
        <ele>82</ele>
        <time>2021-03-20T12:53:33.000Z</time>
      </trkpt>
      <trkpt lat="47.35806" lon="-1.4439">
        <ele>83</ele>
        <time>2021-03-20T12:53:35.000Z</time>
      </trkpt>
      <trkpt lat="47.35806" lon="-1.44374">
        <ele>82</ele>
        <time>2021-03-20T12:53:37.000Z</time>
      </trkpt>
      <trkpt lat="47.35806" lon="-1.44358">
        <ele>82</ele>
        <time>2021-03-20T12:53:39.000Z</time>
      </trkpt>
      <trkpt lat="47.35807" lon="-1.44342">
        <ele>82</ele>
        <time>2021-03-20T12:53:41.000Z</time>
      </trkpt>
      <trkpt lat="47.35807" lon="-1.44326">
        <ele>82</ele>
        <time>2021-03-20T12:53:43.000Z</time>
      </trkpt>
      <trkpt lat="47.35809" lon="-1.4431">
        <ele>82</ele>
        <time>2021-03-20T12:53:45.000Z</time>
      </trkpt>
      <trkpt lat="47.35811" lon="-1.44294">
        <ele>81</ele>
        <time>2021-03-20T12:53:47.000Z</time>
      </trkpt>
      <trkpt lat="47.35814" lon="-1.44279">
        <ele>81</ele>
        <time>2021-03-20T12:53:49.000Z</time>
      </trkpt>
      <trkpt lat="47.35819" lon="-1.44264">
        <ele>81</ele>
        <time>2021-03-20T12:53:51.000Z</time>
      </trkpt>
      <trkpt lat="47.35825" lon="-1.44251">
        <ele>81</ele>
        <time>2021-03-20T12:53:53.000Z</time>
      </trkpt>
      <trkpt lat="47.35832" lon="-1.4424">
        <ele>81</ele>
        <time>2021-03-20T12:53:55.000Z</time>
      </trkpt>
      <trkpt lat="47.3584" lon="-1.4423">
        <ele>80</ele>
        <time>2021-03-20T12:53:57.000Z</time>
      </trkpt>
      <trkpt lat="47.35848" lon="-1.44219">
        <ele>80</ele>
        <time>2021-03-20T12:53:59.000Z</time>
      </trkpt>
      <trkpt lat="47.35855" lon="-1.44209">
        <ele>80</ele>
        <time>2021-03-20T12:54:01.000Z</time>
      </trkpt>
      <trkpt lat="47.35863" lon="-1.44198">
        <ele>80</ele>
        <time>2021-03-20T12:54:03.000Z</time>
      </trkpt>
      <trkpt lat="47.3587" lon="-1.44188">
        <ele>80</ele>
        <time>2021-03-20T12:54:05.000Z</time>
      </trkpt>
      <trkpt lat="47.35879" lon="-1.44177">
        <ele>79</ele>
        <time>2021-03-20T12:54:07.000Z</time>
      </trkpt>
      <trkpt lat="47.35887" lon="-1.44166">
        <ele>79</ele>
        <time>2021-03-20T12:54:09.000Z</time>
      </trkpt>
      <trkpt lat="47.35895" lon="-1.44155">
        <ele>79</ele>
        <time>2021-03-20T12:54:11.000Z</time>
      </trkpt>
      <trkpt lat="47.35902" lon="-1.44145">
        <ele>79</ele>
        <time>2021-03-20T12:54:13.000Z</time>
      </trkpt>
      <trkpt lat="47.3591" lon="-1.44135">
        <ele>79</ele>
        <time>2021-03-20T12:54:15.000Z</time>
      </trkpt>
      <trkpt lat="47.35918" lon="-1.44123">
        <ele>79</ele>
        <time>2021-03-20T12:54:17.000Z</time>
      </trkpt>
      <trkpt lat="47.35925" lon="-1.44113">
        <ele>79</ele>
        <time>2021-03-20T12:54:19.000Z</time>
      </trkpt>
      <trkpt lat="47.35934" lon="-1.44103">
        <ele>79</ele>
        <time>2021-03-20T12:54:21.000Z</time>
      </trkpt>
      <trkpt lat="47.35941" lon="-1.44092">
        <ele>79</ele>
        <time>2021-03-20T12:54:23.000Z</time>
      </trkpt>
      <trkpt lat="47.35948" lon="-1.44082">
        <ele>79</ele>
        <time>2021-03-20T12:54:25.000Z</time>
      </trkpt>
      <trkpt lat="47.35956" lon="-1.44072">
        <ele>80</ele>
        <time>2021-03-20T12:54:27.000Z</time>
      </trkpt>
      <trkpt lat="47.35964" lon="-1.44061">
        <ele>80</ele>
        <time>2021-03-20T12:54:29.000Z</time>
      </trkpt>
      <trkpt lat="47.35972" lon="-1.44052">
        <ele>80</ele>
        <time>2021-03-20T12:54:31.000Z</time>
      </trkpt>
      <trkpt lat="47.3598" lon="-1.44043">
        <ele>80</ele>
        <time>2021-03-20T12:54:33.000Z</time>
      </trkpt>
      <trkpt lat="47.35989" lon="-1.44033">
        <ele>80</ele>
        <time>2021-03-20T12:54:35.000Z</time>
      </trkpt>
      <trkpt lat="47.35997" lon="-1.44023">
        <ele>80</ele>
        <time>2021-03-20T12:54:37.000Z</time>
      </trkpt>
      <trkpt lat="47.36006" lon="-1.44014">
        <ele>79</ele>
        <time>2021-03-20T12:54:39.000Z</time>
      </trkpt>
      <trkpt lat="47.36014" lon="-1.44003">
        <ele>79</ele>
        <time>2021-03-20T12:54:41.000Z</time>
      </trkpt>
      <trkpt lat="47.36023" lon="-1.43992">
        <ele>79</ele>
        <time>2021-03-20T12:54:43.000Z</time>
      </trkpt>
      <trkpt lat="47.36031" lon="-1.43979">
        <ele>79</ele>
        <time>2021-03-20T12:54:45.000Z</time>
      </trkpt>
      <trkpt lat="47.36038" lon="-1.43966">
        <ele>79</ele>
        <time>2021-03-20T12:54:47.000Z</time>
      </trkpt>
      <trkpt lat="47.36045" lon="-1.43951">
        <ele>79</ele>
        <time>2021-03-20T12:54:49.000Z</time>
      </trkpt>
      <trkpt lat="47.3605" lon="-1.43935">
        <ele>79</ele>
        <time>2021-03-20T12:54:51.000Z</time>
      </trkpt>
      <trkpt lat="47.36056" lon="-1.43918">
        <ele>79</ele>
        <time>2021-03-20T12:54:53.000Z</time>
      </trkpt>
      <trkpt lat="47.36059" lon="-1.43901">
        <ele>78</ele>
        <time>2021-03-20T12:54:55.000Z</time>
      </trkpt>
      <trkpt lat="47.36063" lon="-1.43884">
        <ele>78</ele>
        <time>2021-03-20T12:54:57.000Z</time>
      </trkpt>
      <trkpt lat="47.36066" lon="-1.43867">
        <ele>78</ele>
        <time>2021-03-20T12:54:59.000Z</time>
      </trkpt>
      <trkpt lat="47.36068" lon="-1.43848">
        <ele>77</ele>
        <time>2021-03-20T12:55:01.000Z</time>
      </trkpt>
      <trkpt lat="47.3607" lon="-1.43829">
        <ele>76</ele>
        <time>2021-03-20T12:55:03.000Z</time>
      </trkpt>
      <trkpt lat="47.36072" lon="-1.43809">
        <ele>75</ele>
        <time>2021-03-20T12:55:05.000Z</time>
      </trkpt>
      <trkpt lat="47.36074" lon="-1.43789">
        <ele>74</ele>
        <time>2021-03-20T12:55:07.000Z</time>
      </trkpt>
      <trkpt lat="47.36078" lon="-1.43768">
        <ele>74</ele>
        <time>2021-03-20T12:55:09.000Z</time>
      </trkpt>
      <trkpt lat="47.36084" lon="-1.43747">
        <ele>74</ele>
        <time>2021-03-20T12:55:11.000Z</time>
      </trkpt>
      <trkpt lat="47.36092" lon="-1.43726">
        <ele>73</ele>
        <time>2021-03-20T12:55:13.000Z</time>
      </trkpt>
      <trkpt lat="47.36102" lon="-1.43705">
        <ele>72</ele>
        <time>2021-03-20T12:55:15.000Z</time>
      </trkpt>
      <trkpt lat="47.36113" lon="-1.43685">
        <ele>72</ele>
        <time>2021-03-20T12:55:17.000Z</time>
      </trkpt>
      <trkpt lat="47.36123" lon="-1.43668">
        <ele>72</ele>
        <time>2021-03-20T12:55:19.000Z</time>
      </trkpt>
      <trkpt lat="47.36132" lon="-1.43653">
        <ele>72</ele>
        <time>2021-03-20T12:55:21.000Z</time>
      </trkpt>
      <trkpt lat="47.3614" lon="-1.43638">
        <ele>70</ele>
        <time>2021-03-20T12:55:23.000Z</time>
      </trkpt>
      <trkpt lat="47.36148" lon="-1.43624">
        <ele>70</ele>
        <time>2021-03-20T12:55:25.000Z</time>
      </trkpt>
      <trkpt lat="47.36154" lon="-1.43609">
        <ele>71</ele>
        <time>2021-03-20T12:55:27.000Z</time>
      </trkpt>
      <trkpt lat="47.3616" lon="-1.43594">
        <ele>71</ele>
        <time>2021-03-20T12:55:29.000Z</time>
      </trkpt>
      <trkpt lat="47.36166" lon="-1.43579">
        <ele>71</ele>
        <time>2021-03-20T12:55:31.000Z</time>
      </trkpt>
      <trkpt lat="47.36172" lon="-1.43565">
        <ele>71</ele>
        <time>2021-03-20T12:55:33.000Z</time>
      </trkpt>
      <trkpt lat="47.36179" lon="-1.43551">
        <ele>72</ele>
        <time>2021-03-20T12:55:35.000Z</time>
      </trkpt>
      <trkpt lat="47.36186" lon="-1.43537">
        <ele>72</ele>
        <time>2021-03-20T12:55:37.000Z</time>
      </trkpt>
      <trkpt lat="47.36193" lon="-1.43526">
        <ele>72</ele>
        <time>2021-03-20T12:55:39.000Z</time>
      </trkpt>
      <trkpt lat="47.362" lon="-1.43514">
        <ele>72</ele>
        <time>2021-03-20T12:55:41.000Z</time>
      </trkpt>
      <trkpt lat="47.36208" lon="-1.43504">
        <ele>72</ele>
        <time>2021-03-20T12:55:43.000Z</time>
      </trkpt>
      <trkpt lat="47.36216" lon="-1.43494">
        <ele>72</ele>
        <time>2021-03-20T12:55:45.000Z</time>
      </trkpt>
      <trkpt lat="47.36223" lon="-1.43485">
        <ele>73</ele>
        <time>2021-03-20T12:55:47.000Z</time>
      </trkpt>
      <trkpt lat="47.3623" lon="-1.43476">
        <ele>73</ele>
        <time>2021-03-20T12:55:49.000Z</time>
      </trkpt>
      <trkpt lat="47.36238" lon="-1.43468">
        <ele>73</ele>
        <time>2021-03-20T12:55:51.000Z</time>
      </trkpt>
      <trkpt lat="47.36246" lon="-1.43461">
        <ele>74</ele>
        <time>2021-03-20T12:55:53.000Z</time>
      </trkpt>
      <trkpt lat="47.36254" lon="-1.43453">
        <ele>74</ele>
        <time>2021-03-20T12:55:55.000Z</time>
      </trkpt>
      <trkpt lat="47.36264" lon="-1.43442">
        <ele>75</ele>
        <time>2021-03-20T12:55:58.000Z</time>
      </trkpt>
      <trkpt lat="47.36274" lon="-1.43432">
        <ele>76</ele>
        <time>2021-03-20T12:56:01.000Z</time>
      </trkpt>
      <trkpt lat="47.36284" lon="-1.43423">
        <ele>76</ele>
        <time>2021-03-20T12:56:04.000Z</time>
      </trkpt>
      <trkpt lat="47.36294" lon="-1.43413">
        <ele>77</ele>
        <time>2021-03-20T12:56:07.000Z</time>
      </trkpt>
      <trkpt lat="47.36303" lon="-1.43404">
        <ele>78</ele>
        <time>2021-03-20T12:56:10.000Z</time>
      </trkpt>
      <trkpt lat="47.36312" lon="-1.43394">
        <ele>78</ele>
        <time>2021-03-20T12:56:13.000Z</time>
      </trkpt>
      <trkpt lat="47.36322" lon="-1.43384">
        <ele>79</ele>
        <time>2021-03-20T12:56:16.000Z</time>
      </trkpt>
      <trkpt lat="47.36331" lon="-1.43373">
        <ele>80</ele>
        <time>2021-03-20T12:56:19.000Z</time>
      </trkpt>
      <trkpt lat="47.3634" lon="-1.43365">
        <ele>81</ele>
        <time>2021-03-20T12:56:22.000Z</time>
      </trkpt>
      <trkpt lat="47.3635" lon="-1.43355">
        <ele>81</ele>
        <time>2021-03-20T12:56:25.000Z</time>
      </trkpt>
      <trkpt lat="47.36359" lon="-1.43345">
        <ele>82</ele>
        <time>2021-03-20T12:56:28.000Z</time>
      </trkpt>
      <trkpt lat="47.36368" lon="-1.43336">
        <ele>83</ele>
        <time>2021-03-20T12:56:31.000Z</time>
      </trkpt>
      <trkpt lat="47.36377" lon="-1.43327">
        <ele>83</ele>
        <time>2021-03-20T12:56:34.000Z</time>
      </trkpt>
      <trkpt lat="47.36386" lon="-1.43317">
        <ele>84</ele>
        <time>2021-03-20T12:56:37.000Z</time>
      </trkpt>
      <trkpt lat="47.36395" lon="-1.43307">
        <ele>86</ele>
        <time>2021-03-20T12:56:40.000Z</time>
      </trkpt>
      <trkpt lat="47.36404" lon="-1.43298">
        <ele>86</ele>
        <time>2021-03-20T12:56:43.000Z</time>
      </trkpt>
      <trkpt lat="47.36413" lon="-1.43289">
        <ele>87</ele>
        <time>2021-03-20T12:56:46.000Z</time>
      </trkpt>
      <trkpt lat="47.36422" lon="-1.43279">
        <ele>88</ele>
        <time>2021-03-20T12:56:49.000Z</time>
      </trkpt>
      <trkpt lat="47.3643" lon="-1.43269">
        <ele>89</ele>
        <time>2021-03-20T12:56:52.000Z</time>
      </trkpt>
      <trkpt lat="47.36437" lon="-1.43258">
        <ele>89</ele>
        <time>2021-03-20T12:56:55.000Z</time>
      </trkpt>
      <trkpt lat="47.36444" lon="-1.43247">
        <ele>90</ele>
        <time>2021-03-20T12:56:58.000Z</time>
      </trkpt>
      <trkpt lat="47.36451" lon="-1.43234">
        <ele>91</ele>
        <time>2021-03-20T12:57:01.000Z</time>
      </trkpt>
      <trkpt lat="47.36457" lon="-1.4322">
        <ele>92</ele>
        <time>2021-03-20T12:57:04.000Z</time>
      </trkpt>
      <trkpt lat="47.36463" lon="-1.43206">
        <ele>92</ele>
        <time>2021-03-20T12:57:07.000Z</time>
      </trkpt>
      <trkpt lat="47.3647" lon="-1.43191">
        <ele>93</ele>
        <time>2021-03-20T12:57:10.000Z</time>
      </trkpt>
      <trkpt lat="47.36477" lon="-1.43177">
        <ele>93</ele>
        <time>2021-03-20T12:57:13.000Z</time>
      </trkpt>
      <trkpt lat="47.36483" lon="-1.43161">
        <ele>93</ele>
        <time>2021-03-20T12:57:16.000Z</time>
      </trkpt>
      <trkpt lat="47.3649" lon="-1.43147">
        <ele>94</ele>
        <time>2021-03-20T12:57:19.000Z</time>
      </trkpt>
      <trkpt lat="47.36497" lon="-1.4313">
        <ele>94</ele>
        <time>2021-03-20T12:57:22.000Z</time>
      </trkpt>
      <trkpt lat="47.36504" lon="-1.43114">
        <ele>94</ele>
        <time>2021-03-20T12:57:25.000Z</time>
      </trkpt>
      <trkpt lat="47.36509" lon="-1.43097">
        <ele>94</ele>
        <time>2021-03-20T12:57:28.000Z</time>
      </trkpt>
      <trkpt lat="47.36513" lon="-1.43079">
        <ele>94</ele>
        <time>2021-03-20T12:57:31.000Z</time>
      </trkpt>
      <trkpt lat="47.36516" lon="-1.4306">
        <ele>95</ele>
        <time>2021-03-20T12:57:34.000Z</time>
      </trkpt>
      <trkpt lat="47.36518" lon="-1.4304">
        <ele>95</ele>
        <time>2021-03-20T12:57:37.000Z</time>
      </trkpt>
      <trkpt lat="47.36519" lon="-1.43027">
        <ele>95</ele>
        <time>2021-03-20T12:57:39.000Z</time>
      </trkpt>
      <trkpt lat="47.36521" lon="-1.43014">
        <ele>95</ele>
        <time>2021-03-20T12:57:41.000Z</time>
      </trkpt>
      <trkpt lat="47.36524" lon="-1.43001">
        <ele>95</ele>
        <time>2021-03-20T12:57:43.000Z</time>
      </trkpt>
      <trkpt lat="47.36532" lon="-1.42986">
        <ele>96</ele>
        <time>2021-03-20T12:57:46.000Z</time>
      </trkpt>
      <trkpt lat="47.3654" lon="-1.42982">
        <ele>96</ele>
        <time>2021-03-20T12:57:48.000Z</time>
      </trkpt>
      <trkpt lat="47.3655" lon="-1.42981">
        <ele>95</ele>
        <time>2021-03-20T12:57:50.000Z</time>
      </trkpt>
      <trkpt lat="47.3656" lon="-1.42981">
        <ele>95</ele>
        <time>2021-03-20T12:57:52.000Z</time>
      </trkpt>
      <trkpt lat="47.36571" lon="-1.4298">
        <ele>95</ele>
        <time>2021-03-20T12:57:54.000Z</time>
      </trkpt>
      <trkpt lat="47.36581" lon="-1.4298">
        <ele>94</ele>
        <time>2021-03-20T12:57:56.000Z</time>
      </trkpt>
      <trkpt lat="47.36592" lon="-1.42978">
        <ele>94</ele>
        <time>2021-03-20T12:57:58.000Z</time>
      </trkpt>
      <trkpt lat="47.36602" lon="-1.42977">
        <ele>94</ele>
        <time>2021-03-20T12:58:00.000Z</time>
      </trkpt>
      <trkpt lat="47.36612" lon="-1.42976">
        <ele>93</ele>
        <time>2021-03-20T12:58:02.000Z</time>
      </trkpt>
      <trkpt lat="47.36623" lon="-1.42975">
        <ele>93</ele>
        <time>2021-03-20T12:58:04.000Z</time>
      </trkpt>
      <trkpt lat="47.36633" lon="-1.42975">
        <ele>93</ele>
        <time>2021-03-20T12:58:06.000Z</time>
      </trkpt>
      <trkpt lat="47.36644" lon="-1.42975">
        <ele>92</ele>
        <time>2021-03-20T12:58:08.000Z</time>
      </trkpt>
      <trkpt lat="47.36654" lon="-1.42975">
        <ele>92</ele>
        <time>2021-03-20T12:58:10.000Z</time>
      </trkpt>
      <trkpt lat="47.36663" lon="-1.42974">
        <ele>92</ele>
        <time>2021-03-20T12:58:12.000Z</time>
      </trkpt>
      <trkpt lat="47.36673" lon="-1.42975">
        <ele>92</ele>
        <time>2021-03-20T12:58:14.000Z</time>
      </trkpt>
      <trkpt lat="47.36683" lon="-1.42975">
        <ele>92</ele>
        <time>2021-03-20T12:58:16.000Z</time>
      </trkpt>
      <trkpt lat="47.36694" lon="-1.42966">
        <ele>92</ele>
        <time>2021-03-20T12:58:19.000Z</time>
      </trkpt>
      <trkpt lat="47.36698" lon="-1.42952">
        <ele>92</ele>
        <time>2021-03-20T12:58:21.000Z</time>
      </trkpt>
      <trkpt lat="47.36701" lon="-1.42937">
        <ele>93</ele>
        <time>2021-03-20T12:58:23.000Z</time>
      </trkpt>
      <trkpt lat="47.36704" lon="-1.42921">
        <ele>93</ele>
        <time>2021-03-20T12:58:25.000Z</time>
      </trkpt>
      <trkpt lat="47.36707" lon="-1.42905">
        <ele>94</ele>
        <time>2021-03-20T12:58:27.000Z</time>
      </trkpt>
      <trkpt lat="47.36713" lon="-1.42889">
        <ele>94</ele>
        <time>2021-03-20T12:58:29.000Z</time>
      </trkpt>
      <trkpt lat="47.36717" lon="-1.42874">
        <ele>95</ele>
        <time>2021-03-20T12:58:31.000Z</time>
      </trkpt>
      <trkpt lat="47.36721" lon="-1.42859">
        <ele>95</ele>
        <time>2021-03-20T12:58:33.000Z</time>
      </trkpt>
      <trkpt lat="47.36725" lon="-1.42843">
        <ele>95</ele>
        <time>2021-03-20T12:58:35.000Z</time>
      </trkpt>
      <trkpt lat="47.36729" lon="-1.42826">
        <ele>96</ele>
        <time>2021-03-20T12:58:37.000Z</time>
      </trkpt>
      <trkpt lat="47.36732" lon="-1.42808">
        <ele>96</ele>
        <time>2021-03-20T12:58:39.000Z</time>
      </trkpt>
      <trkpt lat="47.36734" lon="-1.42792">
        <ele>96</ele>
        <time>2021-03-20T12:58:41.000Z</time>
      </trkpt>
      <trkpt lat="47.36736" lon="-1.42774">
        <ele>96</ele>
        <time>2021-03-20T12:58:43.000Z</time>
      </trkpt>
      <trkpt lat="47.36738" lon="-1.42756">
        <ele>96</ele>
        <time>2021-03-20T12:58:45.000Z</time>
      </trkpt>
      <trkpt lat="47.36738" lon="-1.42739">
        <ele>97</ele>
        <time>2021-03-20T12:58:47.000Z</time>
      </trkpt>
      <trkpt lat="47.36739" lon="-1.42722">
        <ele>97</ele>
        <time>2021-03-20T12:58:49.000Z</time>
      </trkpt>
      <trkpt lat="47.36738" lon="-1.42705">
        <ele>97</ele>
        <time>2021-03-20T12:58:51.000Z</time>
      </trkpt>
      <trkpt lat="47.36737" lon="-1.42688">
        <ele>98</ele>
        <time>2021-03-20T12:58:53.000Z</time>
      </trkpt>
      <trkpt lat="47.36735" lon="-1.42672">
        <ele>98</ele>
        <time>2021-03-20T12:58:55.000Z</time>
      </trkpt>
      <trkpt lat="47.36734" lon="-1.42655">
        <ele>98</ele>
        <time>2021-03-20T12:58:57.000Z</time>
      </trkpt>
      <trkpt lat="47.36732" lon="-1.42637">
        <ele>98</ele>
        <time>2021-03-20T12:58:59.000Z</time>
      </trkpt>
      <trkpt lat="47.3673" lon="-1.42619">
        <ele>99</ele>
        <time>2021-03-20T12:59:01.000Z</time>
      </trkpt>
      <trkpt lat="47.36727" lon="-1.42602">
        <ele>98</ele>
        <time>2021-03-20T12:59:03.000Z</time>
      </trkpt>
      <trkpt lat="47.36725" lon="-1.42585">
        <ele>99</ele>
        <time>2021-03-20T12:59:05.000Z</time>
      </trkpt>
      <trkpt lat="47.36722" lon="-1.42568">
        <ele>99</ele>
        <time>2021-03-20T12:59:07.000Z</time>
      </trkpt>
      <trkpt lat="47.3672" lon="-1.42551">
        <ele>100</ele>
        <time>2021-03-20T12:59:09.000Z</time>
      </trkpt>
      <trkpt lat="47.36717" lon="-1.42534">
        <ele>100</ele>
        <time>2021-03-20T12:59:11.000Z</time>
      </trkpt>
      <trkpt lat="47.36714" lon="-1.42517">
        <ele>100</ele>
        <time>2021-03-20T12:59:13.000Z</time>
      </trkpt>
      <trkpt lat="47.36712" lon="-1.425">
        <ele>100</ele>
        <time>2021-03-20T12:59:15.000Z</time>
      </trkpt>
      <trkpt lat="47.36709" lon="-1.42483">
        <ele>100</ele>
        <time>2021-03-20T12:59:17.000Z</time>
      </trkpt>
      <trkpt lat="47.36707" lon="-1.42465">
        <ele>100</ele>
        <time>2021-03-20T12:59:19.000Z</time>
      </trkpt>
      <trkpt lat="47.36703" lon="-1.42447">
        <ele>100</ele>
        <time>2021-03-20T12:59:21.000Z</time>
      </trkpt>
      <trkpt lat="47.367" lon="-1.42429">
        <ele>100</ele>
        <time>2021-03-20T12:59:23.000Z</time>
      </trkpt>
      <trkpt lat="47.36696" lon="-1.42411">
        <ele>101</ele>
        <time>2021-03-20T12:59:25.000Z</time>
      </trkpt>
      <trkpt lat="47.36694" lon="-1.42393">
        <ele>101</ele>
        <time>2021-03-20T12:59:27.000Z</time>
      </trkpt>
      <trkpt lat="47.36691" lon="-1.42375">
        <ele>101</ele>
        <time>2021-03-20T12:59:29.000Z</time>
      </trkpt>
      <trkpt lat="47.36688" lon="-1.42358">
        <ele>101</ele>
        <time>2021-03-20T12:59:31.000Z</time>
      </trkpt>
      <trkpt lat="47.36686" lon="-1.4234">
        <ele>101</ele>
        <time>2021-03-20T12:59:33.000Z</time>
      </trkpt>
      <trkpt lat="47.36683" lon="-1.42323">
        <ele>101</ele>
        <time>2021-03-20T12:59:35.000Z</time>
      </trkpt>
      <trkpt lat="47.36681" lon="-1.42306">
        <ele>101</ele>
        <time>2021-03-20T12:59:37.000Z</time>
      </trkpt>
      <trkpt lat="47.36679" lon="-1.42289">
        <ele>102</ele>
        <time>2021-03-20T12:59:39.000Z</time>
      </trkpt>
      <trkpt lat="47.36678" lon="-1.42272">
        <ele>102</ele>
        <time>2021-03-20T12:59:41.000Z</time>
      </trkpt>
      <trkpt lat="47.36676" lon="-1.42255">
        <ele>102</ele>
        <time>2021-03-20T12:59:43.000Z</time>
      </trkpt>
      <trkpt lat="47.36674" lon="-1.42239">
        <ele>102</ele>
        <time>2021-03-20T12:59:45.000Z</time>
      </trkpt>
      <trkpt lat="47.36673" lon="-1.42222">
        <ele>102</ele>
        <time>2021-03-20T12:59:47.000Z</time>
      </trkpt>
      <trkpt lat="47.36671" lon="-1.42206">
        <ele>102</ele>
        <time>2021-03-20T12:59:49.000Z</time>
      </trkpt>
      <trkpt lat="47.36669" lon="-1.42189">
        <ele>103</ele>
        <time>2021-03-20T12:59:51.000Z</time>
      </trkpt>
      <trkpt lat="47.36668" lon="-1.42173">
        <ele>103</ele>
        <time>2021-03-20T12:59:53.000Z</time>
      </trkpt>
      <trkpt lat="47.36666" lon="-1.42157">
        <ele>103</ele>
        <time>2021-03-20T12:59:55.000Z</time>
      </trkpt>
      <trkpt lat="47.36665" lon="-1.4214">
        <ele>104</ele>
        <time>2021-03-20T12:59:57.000Z</time>
      </trkpt>
      <trkpt lat="47.36663" lon="-1.42123">
        <ele>104</ele>
        <time>2021-03-20T12:59:59.000Z</time>
      </trkpt>
      <trkpt lat="47.36661" lon="-1.42106">
        <ele>104</ele>
        <time>2021-03-20T13:00:01.000Z</time>
      </trkpt>
      <trkpt lat="47.3666" lon="-1.42089">
        <ele>104</ele>
        <time>2021-03-20T13:00:03.000Z</time>
      </trkpt>
      <trkpt lat="47.36658" lon="-1.42072">
        <ele>105</ele>
        <time>2021-03-20T13:00:05.000Z</time>
      </trkpt>
      <trkpt lat="47.36657" lon="-1.42056">
        <ele>105</ele>
        <time>2021-03-20T13:00:07.000Z</time>
      </trkpt>
      <trkpt lat="47.36655" lon="-1.4204">
        <ele>105</ele>
        <time>2021-03-20T13:00:09.000Z</time>
      </trkpt>
      <trkpt lat="47.36654" lon="-1.42024">
        <ele>106</ele>
        <time>2021-03-20T13:00:11.000Z</time>
      </trkpt>
      <trkpt lat="47.36652" lon="-1.42009">
        <ele>106</ele>
        <time>2021-03-20T13:00:13.000Z</time>
      </trkpt>
      <trkpt lat="47.3665" lon="-1.41992">
        <ele>106</ele>
        <time>2021-03-20T13:00:15.000Z</time>
      </trkpt>
      <trkpt lat="47.36649" lon="-1.41976">
        <ele>107</ele>
        <time>2021-03-20T13:00:17.000Z</time>
      </trkpt>
      <trkpt lat="47.36647" lon="-1.4196">
        <ele>107</ele>
        <time>2021-03-20T13:00:19.000Z</time>
      </trkpt>
      <trkpt lat="47.36646" lon="-1.41944">
        <ele>108</ele>
        <time>2021-03-20T13:00:21.000Z</time>
      </trkpt>
      <trkpt lat="47.36645" lon="-1.41928">
        <ele>108</ele>
        <time>2021-03-20T13:00:23.000Z</time>
      </trkpt>
      <trkpt lat="47.36644" lon="-1.41911">
        <ele>108</ele>
        <time>2021-03-20T13:00:25.000Z</time>
      </trkpt>
      <trkpt lat="47.36642" lon="-1.41895">
        <ele>108</ele>
        <time>2021-03-20T13:00:27.000Z</time>
      </trkpt>
      <trkpt lat="47.3664" lon="-1.41878">
        <ele>109</ele>
        <time>2021-03-20T13:00:29.000Z</time>
      </trkpt>
      <trkpt lat="47.36639" lon="-1.41862">
        <ele>109</ele>
        <time>2021-03-20T13:00:31.000Z</time>
      </trkpt>
      <trkpt lat="47.36638" lon="-1.41847">
        <ele>109</ele>
        <time>2021-03-20T13:00:33.000Z</time>
      </trkpt>
      <trkpt lat="47.36637" lon="-1.41831">
        <ele>109</ele>
        <time>2021-03-20T13:00:35.000Z</time>
      </trkpt>
      <trkpt lat="47.36635" lon="-1.41815">
        <ele>109</ele>
        <time>2021-03-20T13:00:37.000Z</time>
      </trkpt>
      <trkpt lat="47.36634" lon="-1.41799">
        <ele>110</ele>
        <time>2021-03-20T13:00:39.000Z</time>
      </trkpt>
      <trkpt lat="47.36632" lon="-1.41783">
        <ele>110</ele>
        <time>2021-03-20T13:00:41.000Z</time>
      </trkpt>
      <trkpt lat="47.36631" lon="-1.41766">
        <ele>110</ele>
        <time>2021-03-20T13:00:43.000Z</time>
      </trkpt>
      <trkpt lat="47.3663" lon="-1.41751">
        <ele>110</ele>
        <time>2021-03-20T13:00:45.000Z</time>
      </trkpt>
      <trkpt lat="47.36628" lon="-1.41735">
        <ele>110</ele>
        <time>2021-03-20T13:00:47.000Z</time>
      </trkpt>
      <trkpt lat="47.36627" lon="-1.41718">
        <ele>110</ele>
        <time>2021-03-20T13:00:49.000Z</time>
      </trkpt>
      <trkpt lat="47.36626" lon="-1.41701">
        <ele>111</ele>
        <time>2021-03-20T13:00:51.000Z</time>
      </trkpt>
      <trkpt lat="47.36626" lon="-1.41685">
        <ele>111</ele>
        <time>2021-03-20T13:00:53.000Z</time>
      </trkpt>
      <trkpt lat="47.36625" lon="-1.41669">
        <ele>110</ele>
        <time>2021-03-20T13:00:55.000Z</time>
      </trkpt>
      <trkpt lat="47.36625" lon="-1.41652">
        <ele>111</ele>
        <time>2021-03-20T13:00:57.000Z</time>
      </trkpt>
      <trkpt lat="47.36624" lon="-1.41636">
        <ele>111</ele>
        <time>2021-03-20T13:00:59.000Z</time>
      </trkpt>
      <trkpt lat="47.36625" lon="-1.41619">
        <ele>111</ele>
        <time>2021-03-20T13:01:01.000Z</time>
      </trkpt>
      <trkpt lat="47.36625" lon="-1.41604">
        <ele>111</ele>
        <time>2021-03-20T13:01:03.000Z</time>
      </trkpt>
      <trkpt lat="47.36627" lon="-1.41588">
        <ele>111</ele>
        <time>2021-03-20T13:01:05.000Z</time>
      </trkpt>
      <trkpt lat="47.36628" lon="-1.41573">
        <ele>111</ele>
        <time>2021-03-20T13:01:07.000Z</time>
      </trkpt>
      <trkpt lat="47.36628" lon="-1.41558">
        <ele>111</ele>
        <time>2021-03-20T13:01:09.000Z</time>
      </trkpt>
      <trkpt lat="47.3663" lon="-1.41542">
        <ele>111</ele>
        <time>2021-03-20T13:01:11.000Z</time>
      </trkpt>
      <trkpt lat="47.36634" lon="-1.41527">
        <ele>112</ele>
        <time>2021-03-20T13:01:13.000Z</time>
      </trkpt>
      <trkpt lat="47.36638" lon="-1.41512">
        <ele>111</ele>
        <time>2021-03-20T13:01:15.000Z</time>
      </trkpt>
      <trkpt lat="47.36642" lon="-1.41497">
        <ele>111</ele>
        <time>2021-03-20T13:01:17.000Z</time>
      </trkpt>
      <trkpt lat="47.36646" lon="-1.41481">
        <ele>111</ele>
        <time>2021-03-20T13:01:19.000Z</time>
      </trkpt>
      <trkpt lat="47.36651" lon="-1.41465">
        <ele>111</ele>
        <time>2021-03-20T13:01:21.000Z</time>
      </trkpt>
      <trkpt lat="47.36655" lon="-1.4145">
        <ele>110</ele>
        <time>2021-03-20T13:01:23.000Z</time>
      </trkpt>
      <trkpt lat="47.3666" lon="-1.41434">
        <ele>110</ele>
        <time>2021-03-20T13:01:25.000Z</time>
      </trkpt>
      <trkpt lat="47.36665" lon="-1.41419">
        <ele>110</ele>
        <time>2021-03-20T13:01:27.000Z</time>
      </trkpt>
      <trkpt lat="47.3667" lon="-1.41404">
        <ele>110</ele>
        <time>2021-03-20T13:01:29.000Z</time>
      </trkpt>
      <trkpt lat="47.36677" lon="-1.41388">
        <ele>110</ele>
        <time>2021-03-20T13:01:31.000Z</time>
      </trkpt>
      <trkpt lat="47.36682" lon="-1.41373">
        <ele>110</ele>
        <time>2021-03-20T13:01:33.000Z</time>
      </trkpt>
      <trkpt lat="47.36688" lon="-1.41357">
        <ele>110</ele>
        <time>2021-03-20T13:01:35.000Z</time>
      </trkpt>
      <trkpt lat="47.36694" lon="-1.41342">
        <ele>109</ele>
        <time>2021-03-20T13:01:37.000Z</time>
      </trkpt>
      <trkpt lat="47.36699" lon="-1.41326">
        <ele>109</ele>
        <time>2021-03-20T13:01:39.000Z</time>
      </trkpt>
      <trkpt lat="47.36705" lon="-1.4131">
        <ele>109</ele>
        <time>2021-03-20T13:01:41.000Z</time>
      </trkpt>
      <trkpt lat="47.36711" lon="-1.41295">
        <ele>109</ele>
        <time>2021-03-20T13:01:43.000Z</time>
      </trkpt>
      <trkpt lat="47.36717" lon="-1.41279">
        <ele>108</ele>
        <time>2021-03-20T13:01:45.000Z</time>
      </trkpt>
      <trkpt lat="47.36722" lon="-1.41263">
        <ele>108</ele>
        <time>2021-03-20T13:01:47.000Z</time>
      </trkpt>
      <trkpt lat="47.36728" lon="-1.41248">
        <ele>108</ele>
        <time>2021-03-20T13:01:49.000Z</time>
      </trkpt>
      <trkpt lat="47.36734" lon="-1.41233">
        <ele>107</ele>
        <time>2021-03-20T13:01:51.000Z</time>
      </trkpt>
      <trkpt lat="47.36738" lon="-1.41218">
        <ele>107</ele>
        <time>2021-03-20T13:01:53.000Z</time>
      </trkpt>
      <trkpt lat="47.36741" lon="-1.41202">
        <ele>107</ele>
        <time>2021-03-20T13:01:55.000Z</time>
      </trkpt>
      <trkpt lat="47.36742" lon="-1.41185">
        <ele>106</ele>
        <time>2021-03-20T13:01:57.000Z</time>
      </trkpt>
      <trkpt lat="47.36741" lon="-1.41167">
        <ele>105</ele>
        <time>2021-03-20T13:01:59.000Z</time>
      </trkpt>
      <trkpt lat="47.36738" lon="-1.41148">
        <ele>105</ele>
        <time>2021-03-20T13:02:01.000Z</time>
      </trkpt>
      <trkpt lat="47.36735" lon="-1.4113">
        <ele>105</ele>
        <time>2021-03-20T13:02:03.000Z</time>
      </trkpt>
      <trkpt lat="47.36731" lon="-1.41112">
        <ele>106</ele>
        <time>2021-03-20T13:02:05.000Z</time>
      </trkpt>
      <trkpt lat="47.36726" lon="-1.41094">
        <ele>105</ele>
        <time>2021-03-20T13:02:07.000Z</time>
      </trkpt>
      <trkpt lat="47.36721" lon="-1.41077">
        <ele>106</ele>
        <time>2021-03-20T13:02:09.000Z</time>
      </trkpt>
      <trkpt lat="47.36717" lon="-1.41059">
        <ele>106</ele>
        <time>2021-03-20T13:02:11.000Z</time>
      </trkpt>
      <trkpt lat="47.36712" lon="-1.41041">
        <ele>106</ele>
        <time>2021-03-20T13:02:13.000Z</time>
      </trkpt>
      <trkpt lat="47.36707" lon="-1.41024">
        <ele>106</ele>
        <time>2021-03-20T13:02:15.000Z</time>
      </trkpt>
      <trkpt lat="47.36702" lon="-1.41007">
        <ele>106</ele>
        <time>2021-03-20T13:02:17.000Z</time>
      </trkpt>
      <trkpt lat="47.36698" lon="-1.4099">
        <ele>106</ele>
        <time>2021-03-20T13:02:19.000Z</time>
      </trkpt>
      <trkpt lat="47.36695" lon="-1.40973">
        <ele>107</ele>
        <time>2021-03-20T13:02:21.000Z</time>
      </trkpt>
      <trkpt lat="47.36692" lon="-1.40957">
        <ele>107</ele>
        <time>2021-03-20T13:02:23.000Z</time>
      </trkpt>
      <trkpt lat="47.3669" lon="-1.4094">
        <ele>108</ele>
        <time>2021-03-20T13:02:25.000Z</time>
      </trkpt>
      <trkpt lat="47.36689" lon="-1.40923">
        <ele>108</ele>
        <time>2021-03-20T13:02:27.000Z</time>
      </trkpt>
      <trkpt lat="47.36689" lon="-1.40905">
        <ele>108</ele>
        <time>2021-03-20T13:02:29.000Z</time>
      </trkpt>
      <trkpt lat="47.3669" lon="-1.40888">
        <ele>108</ele>
        <time>2021-03-20T13:02:31.000Z</time>
      </trkpt>
      <trkpt lat="47.3669" lon="-1.4087">
        <ele>108</ele>
        <time>2021-03-20T13:02:33.000Z</time>
      </trkpt>
      <trkpt lat="47.3669" lon="-1.40854">
        <ele>108</ele>
        <time>2021-03-20T13:02:35.000Z</time>
      </trkpt>
      <trkpt lat="47.3669" lon="-1.40837">
        <ele>109</ele>
        <time>2021-03-20T13:02:37.000Z</time>
      </trkpt>
      <trkpt lat="47.36691" lon="-1.40819">
        <ele>109</ele>
        <time>2021-03-20T13:02:39.000Z</time>
      </trkpt>
      <trkpt lat="47.36691" lon="-1.40803">
        <ele>109</ele>
        <time>2021-03-20T13:02:41.000Z</time>
      </trkpt>
      <trkpt lat="47.36692" lon="-1.40786">
        <ele>109</ele>
        <time>2021-03-20T13:02:43.000Z</time>
      </trkpt>
      <trkpt lat="47.36692" lon="-1.40769">
        <ele>109</ele>
        <time>2021-03-20T13:02:45.000Z</time>
      </trkpt>
      <trkpt lat="47.36693" lon="-1.40752">
        <ele>109</ele>
        <time>2021-03-20T13:02:47.000Z</time>
      </trkpt>
      <trkpt lat="47.36693" lon="-1.40735">
        <ele>108</ele>
        <time>2021-03-20T13:02:49.000Z</time>
      </trkpt>
      <trkpt lat="47.36693" lon="-1.40719">
        <ele>108</ele>
        <time>2021-03-20T13:02:51.000Z</time>
      </trkpt>
      <trkpt lat="47.36693" lon="-1.40703">
        <ele>108</ele>
        <time>2021-03-20T13:02:53.000Z</time>
      </trkpt>
      <trkpt lat="47.36694" lon="-1.40687">
        <ele>107</ele>
        <time>2021-03-20T13:02:55.000Z</time>
      </trkpt>
      <trkpt lat="47.36695" lon="-1.40668">
        <ele>106</ele>
        <time>2021-03-20T13:02:57.000Z</time>
      </trkpt>
      <trkpt lat="47.36696" lon="-1.40651">
        <ele>106</ele>
        <time>2021-03-20T13:02:59.000Z</time>
      </trkpt>
      <trkpt lat="47.36696" lon="-1.40633">
        <ele>106</ele>
        <time>2021-03-20T13:03:01.000Z</time>
      </trkpt>
      <trkpt lat="47.36697" lon="-1.40615">
        <ele>105</ele>
        <time>2021-03-20T13:03:03.000Z</time>
      </trkpt>
      <trkpt lat="47.36697" lon="-1.40596">
        <ele>105</ele>
        <time>2021-03-20T13:03:05.000Z</time>
      </trkpt>
      <trkpt lat="47.36697" lon="-1.40577">
        <ele>105</ele>
        <time>2021-03-20T13:03:07.000Z</time>
      </trkpt>
      <trkpt lat="47.36698" lon="-1.40558">
        <ele>105</ele>
        <time>2021-03-20T13:03:09.000Z</time>
      </trkpt>
      <trkpt lat="47.36696" lon="-1.40542">
        <ele>105</ele>
        <time>2021-03-20T13:03:11.000Z</time>
      </trkpt>
      <trkpt lat="47.36696" lon="-1.40526">
        <ele>105</ele>
        <time>2021-03-20T13:03:14.000Z</time>
      </trkpt>
      <trkpt lat="47.36702" lon="-1.40517">
        <ele>105</ele>
        <time>2021-03-20T13:03:16.000Z</time>
      </trkpt>
      <trkpt lat="47.36716" lon="-1.40514">
        <ele>104</ele>
        <time>2021-03-20T13:03:18.000Z</time>
      </trkpt>
      <trkpt lat="47.36728" lon="-1.40505">
        <ele>104</ele>
        <time>2021-03-20T13:03:20.000Z</time>
      </trkpt>
      <trkpt lat="47.36731" lon="-1.40487">
        <ele>104</ele>
        <time>2021-03-20T13:03:22.000Z</time>
      </trkpt>
      <trkpt lat="47.36731" lon="-1.40468">
        <ele>103</ele>
        <time>2021-03-20T13:03:24.000Z</time>
      </trkpt>
      <trkpt lat="47.36732" lon="-1.40449">
        <ele>103</ele>
        <time>2021-03-20T13:03:26.000Z</time>
      </trkpt>
      <trkpt lat="47.36732" lon="-1.40431">
        <ele>103</ele>
        <time>2021-03-20T13:03:28.000Z</time>
      </trkpt>
      <trkpt lat="47.36734" lon="-1.40413">
        <ele>102</ele>
        <time>2021-03-20T13:03:30.000Z</time>
      </trkpt>
      <trkpt lat="47.36736" lon="-1.40394">
        <ele>101</ele>
        <time>2021-03-20T13:03:32.000Z</time>
      </trkpt>
      <trkpt lat="47.36739" lon="-1.40374">
        <ele>101</ele>
        <time>2021-03-20T13:03:34.000Z</time>
      </trkpt>
      <trkpt lat="47.36743" lon="-1.40355">
        <ele>100</ele>
        <time>2021-03-20T13:03:36.000Z</time>
      </trkpt>
      <trkpt lat="47.36746" lon="-1.40335">
        <ele>100</ele>
        <time>2021-03-20T13:03:38.000Z</time>
      </trkpt>
      <trkpt lat="47.36749" lon="-1.40317">
        <ele>100</ele>
        <time>2021-03-20T13:03:40.000Z</time>
      </trkpt>
      <trkpt lat="47.36751" lon="-1.40299">
        <ele>100</ele>
        <time>2021-03-20T13:03:42.000Z</time>
      </trkpt>
      <trkpt lat="47.36754" lon="-1.4028">
        <ele>100</ele>
        <time>2021-03-20T13:03:44.000Z</time>
      </trkpt>
      <trkpt lat="47.36757" lon="-1.40261">
        <ele>99</ele>
        <time>2021-03-20T13:03:46.000Z</time>
      </trkpt>
      <trkpt lat="47.36759" lon="-1.40241">
        <ele>99</ele>
        <time>2021-03-20T13:03:48.000Z</time>
      </trkpt>
      <trkpt lat="47.3676" lon="-1.40222">
        <ele>98</ele>
        <time>2021-03-20T13:03:50.000Z</time>
      </trkpt>
      <trkpt lat="47.36761" lon="-1.40202">
        <ele>98</ele>
        <time>2021-03-20T13:03:52.000Z</time>
      </trkpt>
      <trkpt lat="47.36762" lon="-1.40182">
        <ele>99</ele>
        <time>2021-03-20T13:03:54.000Z</time>
      </trkpt>
      <trkpt lat="47.36762" lon="-1.40162">
        <ele>99</ele>
        <time>2021-03-20T13:03:56.000Z</time>
      </trkpt>
      <trkpt lat="47.36762" lon="-1.40142">
        <ele>100</ele>
        <time>2021-03-20T13:03:58.000Z</time>
      </trkpt>
      <trkpt lat="47.36762" lon="-1.40122">
        <ele>100</ele>
        <time>2021-03-20T13:04:00.000Z</time>
      </trkpt>
      <trkpt lat="47.36762" lon="-1.40103">
        <ele>100</ele>
        <time>2021-03-20T13:04:02.000Z</time>
      </trkpt>
      <trkpt lat="47.36761" lon="-1.40087">
        <ele>101</ele>
        <time>2021-03-20T13:04:04.000Z</time>
      </trkpt>
      <trkpt lat="47.36761" lon="-1.4007">
        <ele>100</ele>
        <time>2021-03-20T13:04:06.000Z</time>
      </trkpt>
      <trkpt lat="47.36761" lon="-1.40054">
        <ele>100</ele>
        <time>2021-03-20T13:04:08.000Z</time>
      </trkpt>
      <trkpt lat="47.36761" lon="-1.40037">
        <ele>100</ele>
        <time>2021-03-20T13:04:10.000Z</time>
      </trkpt>
      <trkpt lat="47.36762" lon="-1.40021">
        <ele>99</ele>
        <time>2021-03-20T13:04:12.000Z</time>
      </trkpt>
      <trkpt lat="47.36762" lon="-1.40003">
        <ele>100</ele>
        <time>2021-03-20T13:04:14.000Z</time>
      </trkpt>
      <trkpt lat="47.36763" lon="-1.39984">
        <ele>100</ele>
        <time>2021-03-20T13:04:16.000Z</time>
      </trkpt>
      <trkpt lat="47.36762" lon="-1.39967">
        <ele>101</ele>
        <time>2021-03-20T13:04:18.000Z</time>
      </trkpt>
      <trkpt lat="47.36762" lon="-1.39949">
        <ele>103</ele>
        <time>2021-03-20T13:04:20.000Z</time>
      </trkpt>
      <trkpt lat="47.36762" lon="-1.39932">
        <ele>103</ele>
        <time>2021-03-20T13:04:22.000Z</time>
      </trkpt>
      <trkpt lat="47.36762" lon="-1.39915">
        <ele>103</ele>
        <time>2021-03-20T13:04:24.000Z</time>
      </trkpt>
      <trkpt lat="47.36762" lon="-1.39898">
        <ele>103</ele>
        <time>2021-03-20T13:04:26.000Z</time>
      </trkpt>
      <trkpt lat="47.36762" lon="-1.39882">
        <ele>103</ele>
        <time>2021-03-20T13:04:28.000Z</time>
      </trkpt>
      <trkpt lat="47.36763" lon="-1.39866">
        <ele>103</ele>
        <time>2021-03-20T13:04:30.000Z</time>
      </trkpt>
      <trkpt lat="47.36763" lon="-1.3985">
        <ele>104</ele>
        <time>2021-03-20T13:04:32.000Z</time>
      </trkpt>
      <trkpt lat="47.36763" lon="-1.39836">
        <ele>104</ele>
        <time>2021-03-20T13:04:34.000Z</time>
      </trkpt>
      <trkpt lat="47.36763" lon="-1.3982">
        <ele>105</ele>
        <time>2021-03-20T13:04:36.000Z</time>
      </trkpt>
      <trkpt lat="47.36763" lon="-1.39806">
        <ele>106</ele>
        <time>2021-03-20T13:04:38.000Z</time>
      </trkpt>
      <trkpt lat="47.36763" lon="-1.39791">
        <ele>106</ele>
        <time>2021-03-20T13:04:40.000Z</time>
      </trkpt>
      <trkpt lat="47.36763" lon="-1.39776">
        <ele>106</ele>
        <time>2021-03-20T13:04:42.000Z</time>
      </trkpt>
      <trkpt lat="47.36763" lon="-1.39761">
        <ele>106</ele>
        <time>2021-03-20T13:04:44.000Z</time>
      </trkpt>
      <trkpt lat="47.36763" lon="-1.39747">
        <ele>107</ele>
        <time>2021-03-20T13:04:46.000Z</time>
      </trkpt>
      <trkpt lat="47.36764" lon="-1.39732">
        <ele>107</ele>
        <time>2021-03-20T13:04:48.000Z</time>
      </trkpt>
      <trkpt lat="47.36763" lon="-1.39718">
        <ele>107</ele>
        <time>2021-03-20T13:04:50.000Z</time>
      </trkpt>
      <trkpt lat="47.36763" lon="-1.39703">
        <ele>107</ele>
        <time>2021-03-20T13:04:52.000Z</time>
      </trkpt>
      <trkpt lat="47.36763" lon="-1.39688">
        <ele>107</ele>
        <time>2021-03-20T13:04:54.000Z</time>
      </trkpt>
      <trkpt lat="47.36763" lon="-1.39673">
        <ele>107</ele>
        <time>2021-03-20T13:04:56.000Z</time>
      </trkpt>
      <trkpt lat="47.36763" lon="-1.39659">
        <ele>108</ele>
        <time>2021-03-20T13:04:58.000Z</time>
      </trkpt>
      <trkpt lat="47.36763" lon="-1.39644">
        <ele>108</ele>
        <time>2021-03-20T13:05:00.000Z</time>
      </trkpt>
      <trkpt lat="47.36764" lon="-1.39629">
        <ele>109</ele>
        <time>2021-03-20T13:05:02.000Z</time>
      </trkpt>
      <trkpt lat="47.36764" lon="-1.39613">
        <ele>110</ele>
        <time>2021-03-20T13:05:04.000Z</time>
      </trkpt>
      <trkpt lat="47.36764" lon="-1.39598">
        <ele>110</ele>
        <time>2021-03-20T13:05:06.000Z</time>
      </trkpt>
      <trkpt lat="47.36764" lon="-1.39583">
        <ele>110</ele>
        <time>2021-03-20T13:05:08.000Z</time>
      </trkpt>
      <trkpt lat="47.36764" lon="-1.39568">
        <ele>110</ele>
        <time>2021-03-20T13:05:10.000Z</time>
      </trkpt>
      <trkpt lat="47.36765" lon="-1.39553">
        <ele>110</ele>
        <time>2021-03-20T13:05:12.000Z</time>
      </trkpt>
      <trkpt lat="47.36764" lon="-1.39538">
        <ele>111</ele>
        <time>2021-03-20T13:05:14.000Z</time>
      </trkpt>
      <trkpt lat="47.36764" lon="-1.39524">
        <ele>111</ele>
        <time>2021-03-20T13:05:16.000Z</time>
      </trkpt>
      <trkpt lat="47.36764" lon="-1.39509">
        <ele>111</ele>
        <time>2021-03-20T13:05:18.000Z</time>
      </trkpt>
      <trkpt lat="47.36764" lon="-1.39494">
        <ele>112</ele>
        <time>2021-03-20T13:05:20.000Z</time>
      </trkpt>
      <trkpt lat="47.36764" lon="-1.39479">
        <ele>112</ele>
        <time>2021-03-20T13:05:22.000Z</time>
      </trkpt>
      <trkpt lat="47.36764" lon="-1.39464">
        <ele>111</ele>
        <time>2021-03-20T13:05:24.000Z</time>
      </trkpt>
      <trkpt lat="47.36765" lon="-1.39448">
        <ele>111</ele>
        <time>2021-03-20T13:05:26.000Z</time>
      </trkpt>
      <trkpt lat="47.36765" lon="-1.39432">
        <ele>111</ele>
        <time>2021-03-20T13:05:28.000Z</time>
      </trkpt>
      <trkpt lat="47.36765" lon="-1.39418">
        <ele>111</ele>
        <time>2021-03-20T13:05:30.000Z</time>
      </trkpt>
      <trkpt lat="47.36765" lon="-1.39403">
        <ele>111</ele>
        <time>2021-03-20T13:05:32.000Z</time>
      </trkpt>
      <trkpt lat="47.36765" lon="-1.39388">
        <ele>111</ele>
        <time>2021-03-20T13:05:34.000Z</time>
      </trkpt>
      <trkpt lat="47.36765" lon="-1.39373">
        <ele>111</ele>
        <time>2021-03-20T13:05:36.000Z</time>
      </trkpt>
      <trkpt lat="47.36765" lon="-1.39358">
        <ele>111</ele>
        <time>2021-03-20T13:05:38.000Z</time>
      </trkpt>
      <trkpt lat="47.36764" lon="-1.39343">
        <ele>111</ele>
        <time>2021-03-20T13:05:40.000Z</time>
      </trkpt>
      <trkpt lat="47.36762" lon="-1.39328">
        <ele>111</ele>
        <time>2021-03-20T13:05:42.000Z</time>
      </trkpt>
      <trkpt lat="47.3676" lon="-1.39312">
        <ele>111</ele>
        <time>2021-03-20T13:05:44.000Z</time>
      </trkpt>
      <trkpt lat="47.36757" lon="-1.39298">
        <ele>111</ele>
        <time>2021-03-20T13:05:46.000Z</time>
      </trkpt>
      <trkpt lat="47.36753" lon="-1.39284">
        <ele>111</ele>
        <time>2021-03-20T13:05:48.000Z</time>
      </trkpt>
      <trkpt lat="47.36748" lon="-1.39269">
        <ele>111</ele>
        <time>2021-03-20T13:05:50.000Z</time>
      </trkpt>
      <trkpt lat="47.36743" lon="-1.39256">
        <ele>111</ele>
        <time>2021-03-20T13:05:52.000Z</time>
      </trkpt>
      <trkpt lat="47.36738" lon="-1.39243">
        <ele>111</ele>
        <time>2021-03-20T13:05:54.000Z</time>
      </trkpt>
      <trkpt lat="47.36732" lon="-1.3923">
        <ele>112</ele>
        <time>2021-03-20T13:05:56.000Z</time>
      </trkpt>
      <trkpt lat="47.36726" lon="-1.39217">
        <ele>112</ele>
        <time>2021-03-20T13:05:58.000Z</time>
      </trkpt>
      <trkpt lat="47.3672" lon="-1.39204">
        <ele>112</ele>
        <time>2021-03-20T13:06:00.000Z</time>
      </trkpt>
      <trkpt lat="47.36714" lon="-1.39191">
        <ele>112</ele>
        <time>2021-03-20T13:06:02.000Z</time>
      </trkpt>
      <trkpt lat="47.36707" lon="-1.39178">
        <ele>113</ele>
        <time>2021-03-20T13:06:04.000Z</time>
      </trkpt>
      <trkpt lat="47.36701" lon="-1.39164">
        <ele>113</ele>
        <time>2021-03-20T13:06:06.000Z</time>
      </trkpt>
      <trkpt lat="47.36695" lon="-1.39151">
        <ele>113</ele>
        <time>2021-03-20T13:06:08.000Z</time>
      </trkpt>
      <trkpt lat="47.36689" lon="-1.39138">
        <ele>113</ele>
        <time>2021-03-20T13:06:10.000Z</time>
      </trkpt>
      <trkpt lat="47.36682" lon="-1.39125">
        <ele>113</ele>
        <time>2021-03-20T13:06:12.000Z</time>
      </trkpt>
      <trkpt lat="47.36675" lon="-1.39112">
        <ele>113</ele>
        <time>2021-03-20T13:06:14.000Z</time>
      </trkpt>
      <trkpt lat="47.36669" lon="-1.39098">
        <ele>113</ele>
        <time>2021-03-20T13:06:16.000Z</time>
      </trkpt>
      <trkpt lat="47.36663" lon="-1.39085">
        <ele>112</ele>
        <time>2021-03-20T13:06:18.000Z</time>
      </trkpt>
      <trkpt lat="47.36656" lon="-1.39072">
        <ele>112</ele>
        <time>2021-03-20T13:06:20.000Z</time>
      </trkpt>
      <trkpt lat="47.3665" lon="-1.39058">
        <ele>113</ele>
        <time>2021-03-20T13:06:22.000Z</time>
      </trkpt>
      <trkpt lat="47.36644" lon="-1.39045">
        <ele>113</ele>
        <time>2021-03-20T13:06:24.000Z</time>
      </trkpt>
      <trkpt lat="47.36638" lon="-1.39032">
        <ele>113</ele>
        <time>2021-03-20T13:06:26.000Z</time>
      </trkpt>
      <trkpt lat="47.36631" lon="-1.39018">
        <ele>113</ele>
        <time>2021-03-20T13:06:28.000Z</time>
      </trkpt>
      <trkpt lat="47.36624" lon="-1.39004">
        <ele>114</ele>
        <time>2021-03-20T13:06:30.000Z</time>
      </trkpt>
      <trkpt lat="47.36617" lon="-1.38991">
        <ele>114</ele>
        <time>2021-03-20T13:06:32.000Z</time>
      </trkpt>
      <trkpt lat="47.3661" lon="-1.38977">
        <ele>114</ele>
        <time>2021-03-20T13:06:34.000Z</time>
      </trkpt>
      <trkpt lat="47.36604" lon="-1.38964">
        <ele>115</ele>
        <time>2021-03-20T13:06:36.000Z</time>
      </trkpt>
      <trkpt lat="47.36597" lon="-1.3895">
        <ele>115</ele>
        <time>2021-03-20T13:06:38.000Z</time>
      </trkpt>
      <trkpt lat="47.36591" lon="-1.38936">
        <ele>116</ele>
        <time>2021-03-20T13:06:40.000Z</time>
      </trkpt>
      <trkpt lat="47.36584" lon="-1.38922">
        <ele>116</ele>
        <time>2021-03-20T13:06:42.000Z</time>
      </trkpt>
      <trkpt lat="47.36577" lon="-1.38909">
        <ele>116</ele>
        <time>2021-03-20T13:06:44.000Z</time>
      </trkpt>
      <trkpt lat="47.36571" lon="-1.38895">
        <ele>116</ele>
        <time>2021-03-20T13:06:46.000Z</time>
      </trkpt>
      <trkpt lat="47.36565" lon="-1.3888">
        <ele>116</ele>
        <time>2021-03-20T13:06:48.000Z</time>
      </trkpt>
      <trkpt lat="47.36558" lon="-1.38867">
        <ele>116</ele>
        <time>2021-03-20T13:06:50.000Z</time>
      </trkpt>
      <trkpt lat="47.36551" lon="-1.38852">
        <ele>117</ele>
        <time>2021-03-20T13:06:52.000Z</time>
      </trkpt>
      <trkpt lat="47.36545" lon="-1.38838">
        <ele>117</ele>
        <time>2021-03-20T13:06:54.000Z</time>
      </trkpt>
      <trkpt lat="47.36538" lon="-1.38824">
        <ele>117</ele>
        <time>2021-03-20T13:06:56.000Z</time>
      </trkpt>
      <trkpt lat="47.36531" lon="-1.38809">
        <ele>117</ele>
        <time>2021-03-20T13:06:58.000Z</time>
      </trkpt>
      <trkpt lat="47.36525" lon="-1.38795">
        <ele>117</ele>
        <time>2021-03-20T13:07:00.000Z</time>
      </trkpt>
      <trkpt lat="47.36518" lon="-1.38782">
        <ele>117</ele>
        <time>2021-03-20T13:07:02.000Z</time>
      </trkpt>
      <trkpt lat="47.36512" lon="-1.38769">
        <ele>117</ele>
        <time>2021-03-20T13:07:04.000Z</time>
      </trkpt>
      <trkpt lat="47.36505" lon="-1.38755">
        <ele>118</ele>
        <time>2021-03-20T13:07:06.000Z</time>
      </trkpt>
      <trkpt lat="47.36499" lon="-1.38742">
        <ele>118</ele>
        <time>2021-03-20T13:07:08.000Z</time>
      </trkpt>
      <trkpt lat="47.36492" lon="-1.38728">
        <ele>118</ele>
        <time>2021-03-20T13:07:10.000Z</time>
      </trkpt>
      <trkpt lat="47.36486" lon="-1.38714">
        <ele>118</ele>
        <time>2021-03-20T13:07:12.000Z</time>
      </trkpt>
      <trkpt lat="47.36479" lon="-1.387">
        <ele>119</ele>
        <time>2021-03-20T13:07:14.000Z</time>
      </trkpt>
      <trkpt lat="47.36472" lon="-1.38685">
        <ele>119</ele>
        <time>2021-03-20T13:07:16.000Z</time>
      </trkpt>
      <trkpt lat="47.36466" lon="-1.38672">
        <ele>119</ele>
        <time>2021-03-20T13:07:18.000Z</time>
      </trkpt>
      <trkpt lat="47.3646" lon="-1.38657">
        <ele>119</ele>
        <time>2021-03-20T13:07:20.000Z</time>
      </trkpt>
      <trkpt lat="47.36453" lon="-1.38643">
        <ele>119</ele>
        <time>2021-03-20T13:07:22.000Z</time>
      </trkpt>
      <trkpt lat="47.36446" lon="-1.38629">
        <ele>120</ele>
        <time>2021-03-20T13:07:24.000Z</time>
      </trkpt>
      <trkpt lat="47.36439" lon="-1.38614">
        <ele>120</ele>
        <time>2021-03-20T13:07:26.000Z</time>
      </trkpt>
      <trkpt lat="47.36433" lon="-1.386">
        <ele>120</ele>
        <time>2021-03-20T13:07:28.000Z</time>
      </trkpt>
      <trkpt lat="47.36425" lon="-1.38587">
        <ele>120</ele>
        <time>2021-03-20T13:07:30.000Z</time>
      </trkpt>
      <trkpt lat="47.36418" lon="-1.38573">
        <ele>120</ele>
        <time>2021-03-20T13:07:32.000Z</time>
      </trkpt>
      <trkpt lat="47.36411" lon="-1.38559">
        <ele>119</ele>
        <time>2021-03-20T13:07:34.000Z</time>
      </trkpt>
      <trkpt lat="47.36403" lon="-1.38546">
        <ele>119</ele>
        <time>2021-03-20T13:07:36.000Z</time>
      </trkpt>
      <trkpt lat="47.36394" lon="-1.38534">
        <ele>118</ele>
        <time>2021-03-20T13:07:38.000Z</time>
      </trkpt>
      <trkpt lat="47.36386" lon="-1.38521">
        <ele>118</ele>
        <time>2021-03-20T13:07:40.000Z</time>
      </trkpt>
      <trkpt lat="47.36377" lon="-1.38509">
        <ele>118</ele>
        <time>2021-03-20T13:07:42.000Z</time>
      </trkpt>
      <trkpt lat="47.36369" lon="-1.38496">
        <ele>118</ele>
        <time>2021-03-20T13:07:44.000Z</time>
      </trkpt>
      <trkpt lat="47.36361" lon="-1.38484">
        <ele>117</ele>
        <time>2021-03-20T13:07:46.000Z</time>
      </trkpt>
      <trkpt lat="47.36352" lon="-1.3847">
        <ele>117</ele>
        <time>2021-03-20T13:07:48.000Z</time>
      </trkpt>
      <trkpt lat="47.36344" lon="-1.38458">
        <ele>117</ele>
        <time>2021-03-20T13:07:50.000Z</time>
      </trkpt>
      <trkpt lat="47.36335" lon="-1.38445">
        <ele>117</ele>
        <time>2021-03-20T13:07:52.000Z</time>
      </trkpt>
      <trkpt lat="47.36327" lon="-1.38433">
        <ele>117</ele>
        <time>2021-03-20T13:07:54.000Z</time>
      </trkpt>
      <trkpt lat="47.36319" lon="-1.38419">
        <ele>117</ele>
        <time>2021-03-20T13:07:56.000Z</time>
      </trkpt>
      <trkpt lat="47.3631" lon="-1.38406">
        <ele>116</ele>
        <time>2021-03-20T13:07:58.000Z</time>
      </trkpt>
      <trkpt lat="47.36301" lon="-1.38393">
        <ele>117</ele>
        <time>2021-03-20T13:08:00.000Z</time>
      </trkpt>
      <trkpt lat="47.36293" lon="-1.3838">
        <ele>116</ele>
        <time>2021-03-20T13:08:02.000Z</time>
      </trkpt>
      <trkpt lat="47.36284" lon="-1.38367">
        <ele>116</ele>
        <time>2021-03-20T13:08:04.000Z</time>
      </trkpt>
      <trkpt lat="47.36275" lon="-1.38353">
        <ele>116</ele>
        <time>2021-03-20T13:08:06.000Z</time>
      </trkpt>
      <trkpt lat="47.36266" lon="-1.3834">
        <ele>116</ele>
        <time>2021-03-20T13:08:08.000Z</time>
      </trkpt>
      <trkpt lat="47.36257" lon="-1.38326">
        <ele>116</ele>
        <time>2021-03-20T13:08:10.000Z</time>
      </trkpt>
      <trkpt lat="47.36248" lon="-1.38313">
        <ele>116</ele>
        <time>2021-03-20T13:08:12.000Z</time>
      </trkpt>
      <trkpt lat="47.36239" lon="-1.383">
        <ele>117</ele>
        <time>2021-03-20T13:08:14.000Z</time>
      </trkpt>
      <trkpt lat="47.3623" lon="-1.38286">
        <ele>117</ele>
        <time>2021-03-20T13:08:16.000Z</time>
      </trkpt>
      <trkpt lat="47.36221" lon="-1.38272">
        <ele>117</ele>
        <time>2021-03-20T13:08:18.000Z</time>
      </trkpt>
      <trkpt lat="47.36212" lon="-1.38259">
        <ele>117</ele>
        <time>2021-03-20T13:08:20.000Z</time>
      </trkpt>
      <trkpt lat="47.36203" lon="-1.38245">
        <ele>117</ele>
        <time>2021-03-20T13:08:22.000Z</time>
      </trkpt>
      <trkpt lat="47.36193" lon="-1.38231">
        <ele>118</ele>
        <time>2021-03-20T13:08:24.000Z</time>
      </trkpt>
      <trkpt lat="47.36184" lon="-1.38217">
        <ele>118</ele>
        <time>2021-03-20T13:08:26.000Z</time>
      </trkpt>
      <trkpt lat="47.36175" lon="-1.38203">
        <ele>118</ele>
        <time>2021-03-20T13:08:28.000Z</time>
      </trkpt>
      <trkpt lat="47.36166" lon="-1.3819">
        <ele>119</ele>
        <time>2021-03-20T13:08:30.000Z</time>
      </trkpt>
      <trkpt lat="47.36158" lon="-1.38176">
        <ele>119</ele>
        <time>2021-03-20T13:08:32.000Z</time>
      </trkpt>
      <trkpt lat="47.36149" lon="-1.38163">
        <ele>119</ele>
        <time>2021-03-20T13:08:34.000Z</time>
      </trkpt>
      <trkpt lat="47.3614" lon="-1.3815">
        <ele>119</ele>
        <time>2021-03-20T13:08:36.000Z</time>
      </trkpt>
      <trkpt lat="47.36131" lon="-1.38136">
        <ele>119</ele>
        <time>2021-03-20T13:08:38.000Z</time>
      </trkpt>
      <trkpt lat="47.36122" lon="-1.38123">
        <ele>118</ele>
        <time>2021-03-20T13:08:40.000Z</time>
      </trkpt>
      <trkpt lat="47.36113" lon="-1.3811">
        <ele>119</ele>
        <time>2021-03-20T13:08:42.000Z</time>
      </trkpt>
      <trkpt lat="47.36105" lon="-1.38097">
        <ele>119</ele>
        <time>2021-03-20T13:08:44.000Z</time>
      </trkpt>
      <trkpt lat="47.36096" lon="-1.38085">
        <ele>119</ele>
        <time>2021-03-20T13:08:46.000Z</time>
      </trkpt>
      <trkpt lat="47.36087" lon="-1.38072">
        <ele>119</ele>
        <time>2021-03-20T13:08:48.000Z</time>
      </trkpt>
      <trkpt lat="47.36079" lon="-1.3806">
        <ele>120</ele>
        <time>2021-03-20T13:08:50.000Z</time>
      </trkpt>
      <trkpt lat="47.36071" lon="-1.38047">
        <ele>120</ele>
        <time>2021-03-20T13:08:52.000Z</time>
      </trkpt>
      <trkpt lat="47.36062" lon="-1.38034">
        <ele>120</ele>
        <time>2021-03-20T13:08:54.000Z</time>
      </trkpt>
      <trkpt lat="47.36053" lon="-1.38021">
        <ele>120</ele>
        <time>2021-03-20T13:08:56.000Z</time>
      </trkpt>
      <trkpt lat="47.36045" lon="-1.38009">
        <ele>120</ele>
        <time>2021-03-20T13:08:58.000Z</time>
      </trkpt>
      <trkpt lat="47.36037" lon="-1.37997">
        <ele>120</ele>
        <time>2021-03-20T13:09:00.000Z</time>
      </trkpt>
      <trkpt lat="47.36029" lon="-1.37985">
        <ele>120</ele>
        <time>2021-03-20T13:09:02.000Z</time>
      </trkpt>
      <trkpt lat="47.3602" lon="-1.37972">
        <ele>120</ele>
        <time>2021-03-20T13:09:04.000Z</time>
      </trkpt>
      <trkpt lat="47.36012" lon="-1.37959">
        <ele>120</ele>
        <time>2021-03-20T13:09:06.000Z</time>
      </trkpt>
      <trkpt lat="47.36004" lon="-1.37947">
        <ele>120</ele>
        <time>2021-03-20T13:09:08.000Z</time>
      </trkpt>
      <trkpt lat="47.35995" lon="-1.37934">
        <ele>121</ele>
        <time>2021-03-20T13:09:10.000Z</time>
      </trkpt>
      <trkpt lat="47.35987" lon="-1.37922">
        <ele>121</ele>
        <time>2021-03-20T13:09:12.000Z</time>
      </trkpt>
      <trkpt lat="47.35979" lon="-1.3791">
        <ele>122</ele>
        <time>2021-03-20T13:09:14.000Z</time>
      </trkpt>
      <trkpt lat="47.35971" lon="-1.37898">
        <ele>122</ele>
        <time>2021-03-20T13:09:16.000Z</time>
      </trkpt>
      <trkpt lat="47.35963" lon="-1.37886">
        <ele>122</ele>
        <time>2021-03-20T13:09:18.000Z</time>
      </trkpt>
      <trkpt lat="47.35955" lon="-1.37874">
        <ele>122</ele>
        <time>2021-03-20T13:09:20.000Z</time>
      </trkpt>
      <trkpt lat="47.35947" lon="-1.37862">
        <ele>123</ele>
        <time>2021-03-20T13:09:22.000Z</time>
      </trkpt>
      <trkpt lat="47.3594" lon="-1.3785">
        <ele>123</ele>
        <time>2021-03-20T13:09:24.000Z</time>
      </trkpt>
      <trkpt lat="47.35932" lon="-1.37839">
        <ele>123</ele>
        <time>2021-03-20T13:09:26.000Z</time>
      </trkpt>
      <trkpt lat="47.35924" lon="-1.37827">
        <ele>123</ele>
        <time>2021-03-20T13:09:28.000Z</time>
      </trkpt>
      <trkpt lat="47.35916" lon="-1.37814">
        <ele>123</ele>
        <time>2021-03-20T13:09:30.000Z</time>
      </trkpt>
      <trkpt lat="47.35908" lon="-1.37802">
        <ele>124</ele>
        <time>2021-03-20T13:09:32.000Z</time>
      </trkpt>
      <trkpt lat="47.359" lon="-1.37791">
        <ele>125</ele>
        <time>2021-03-20T13:09:34.000Z</time>
      </trkpt>
      <trkpt lat="47.35893" lon="-1.37778">
        <ele>125</ele>
        <time>2021-03-20T13:09:36.000Z</time>
      </trkpt>
      <trkpt lat="47.35885" lon="-1.37767">
        <ele>125</ele>
        <time>2021-03-20T13:09:38.000Z</time>
      </trkpt>
      <trkpt lat="47.35877" lon="-1.37755">
        <ele>125</ele>
        <time>2021-03-20T13:09:40.000Z</time>
      </trkpt>
      <trkpt lat="47.35869" lon="-1.37743">
        <ele>125</ele>
        <time>2021-03-20T13:09:42.000Z</time>
      </trkpt>
      <trkpt lat="47.35861" lon="-1.37731">
        <ele>125</ele>
        <time>2021-03-20T13:09:44.000Z</time>
      </trkpt>
      <trkpt lat="47.35853" lon="-1.3772">
        <ele>125</ele>
        <time>2021-03-20T13:09:46.000Z</time>
      </trkpt>
      <trkpt lat="47.35845" lon="-1.37709">
        <ele>126</ele>
        <time>2021-03-20T13:09:48.000Z</time>
      </trkpt>
      <trkpt lat="47.35837" lon="-1.37697">
        <ele>126</ele>
        <time>2021-03-20T13:09:50.000Z</time>
      </trkpt>
      <trkpt lat="47.35829" lon="-1.37684">
        <ele>126</ele>
        <time>2021-03-20T13:09:52.000Z</time>
      </trkpt>
      <trkpt lat="47.35821" lon="-1.37672">
        <ele>126</ele>
        <time>2021-03-20T13:09:54.000Z</time>
      </trkpt>
      <trkpt lat="47.35813" lon="-1.3766">
        <ele>126</ele>
        <time>2021-03-20T13:09:56.000Z</time>
      </trkpt>
      <trkpt lat="47.35805" lon="-1.37648">
        <ele>126</ele>
        <time>2021-03-20T13:09:58.000Z</time>
      </trkpt>
      <trkpt lat="47.35796" lon="-1.37637">
        <ele>127</ele>
        <time>2021-03-20T13:10:00.000Z</time>
      </trkpt>
      <trkpt lat="47.35787" lon="-1.37625">
        <ele>127</ele>
        <time>2021-03-20T13:10:02.000Z</time>
      </trkpt>
      <trkpt lat="47.35779" lon="-1.37612">
        <ele>127</ele>
        <time>2021-03-20T13:10:04.000Z</time>
      </trkpt>
      <trkpt lat="47.35771" lon="-1.37599">
        <ele>128</ele>
        <time>2021-03-20T13:10:06.000Z</time>
      </trkpt>
      <trkpt lat="47.35763" lon="-1.37588">
        <ele>128</ele>
        <time>2021-03-20T13:10:08.000Z</time>
      </trkpt>
      <trkpt lat="47.35755" lon="-1.37576">
        <ele>127</ele>
        <time>2021-03-20T13:10:10.000Z</time>
      </trkpt>
      <trkpt lat="47.35748" lon="-1.37564">
        <ele>127</ele>
        <time>2021-03-20T13:10:12.000Z</time>
      </trkpt>
      <trkpt lat="47.3574" lon="-1.37552">
        <ele>127</ele>
        <time>2021-03-20T13:10:14.000Z</time>
      </trkpt>
      <trkpt lat="47.35733" lon="-1.3754">
        <ele>128</ele>
        <time>2021-03-20T13:10:16.000Z</time>
      </trkpt>
      <trkpt lat="47.35724" lon="-1.37528">
        <ele>128</ele>
        <time>2021-03-20T13:10:18.000Z</time>
      </trkpt>
      <trkpt lat="47.35717" lon="-1.37516">
        <ele>128</ele>
        <time>2021-03-20T13:10:20.000Z</time>
      </trkpt>
      <trkpt lat="47.35709" lon="-1.37503">
        <ele>128</ele>
        <time>2021-03-20T13:10:22.000Z</time>
      </trkpt>
      <trkpt lat="47.35701" lon="-1.37492">
        <ele>128</ele>
        <time>2021-03-20T13:10:24.000Z</time>
      </trkpt>
      <trkpt lat="47.35692" lon="-1.37479">
        <ele>128</ele>
        <time>2021-03-20T13:10:26.000Z</time>
      </trkpt>
      <trkpt lat="47.35684" lon="-1.37467">
        <ele>128</ele>
        <time>2021-03-20T13:10:28.000Z</time>
      </trkpt>
      <trkpt lat="47.35676" lon="-1.37456">
        <ele>129</ele>
        <time>2021-03-20T13:10:30.000Z</time>
      </trkpt>
      <trkpt lat="47.35669" lon="-1.37444">
        <ele>129</ele>
        <time>2021-03-20T13:10:32.000Z</time>
      </trkpt>
      <trkpt lat="47.35661" lon="-1.37432">
        <ele>129</ele>
        <time>2021-03-20T13:10:34.000Z</time>
      </trkpt>
      <trkpt lat="47.35653" lon="-1.37419">
        <ele>129</ele>
        <time>2021-03-20T13:10:36.000Z</time>
      </trkpt>
      <trkpt lat="47.35645" lon="-1.37407">
        <ele>129</ele>
        <time>2021-03-20T13:10:38.000Z</time>
      </trkpt>
      <trkpt lat="47.35637" lon="-1.37394">
        <ele>129</ele>
        <time>2021-03-20T13:10:40.000Z</time>
      </trkpt>
      <trkpt lat="47.35629" lon="-1.37382">
        <ele>129</ele>
        <time>2021-03-20T13:10:42.000Z</time>
      </trkpt>
      <trkpt lat="47.3562" lon="-1.3737">
        <ele>128</ele>
        <time>2021-03-20T13:10:44.000Z</time>
      </trkpt>
      <trkpt lat="47.35612" lon="-1.37358">
        <ele>128</ele>
        <time>2021-03-20T13:10:46.000Z</time>
      </trkpt>
      <trkpt lat="47.35604" lon="-1.37345">
        <ele>128</ele>
        <time>2021-03-20T13:10:48.000Z</time>
      </trkpt>
      <trkpt lat="47.35596" lon="-1.37333">
        <ele>127</ele>
        <time>2021-03-20T13:10:50.000Z</time>
      </trkpt>
      <trkpt lat="47.35587" lon="-1.3732">
        <ele>126</ele>
        <time>2021-03-20T13:10:52.000Z</time>
      </trkpt>
      <trkpt lat="47.35577" lon="-1.37307">
        <ele>126</ele>
        <time>2021-03-20T13:10:54.000Z</time>
      </trkpt>
      <trkpt lat="47.35568" lon="-1.37295">
        <ele>125</ele>
        <time>2021-03-20T13:10:56.000Z</time>
      </trkpt>
      <trkpt lat="47.35559" lon="-1.37282">
        <ele>125</ele>
        <time>2021-03-20T13:10:58.000Z</time>
      </trkpt>
      <trkpt lat="47.35549" lon="-1.37269">
        <ele>125</ele>
        <time>2021-03-20T13:11:00.000Z</time>
      </trkpt>
      <trkpt lat="47.3554" lon="-1.37256">
        <ele>125</ele>
        <time>2021-03-20T13:11:02.000Z</time>
      </trkpt>
      <trkpt lat="47.35531" lon="-1.37243">
        <ele>125</ele>
        <time>2021-03-20T13:11:04.000Z</time>
      </trkpt>
      <trkpt lat="47.35522" lon="-1.37228">
        <ele>125</ele>
        <time>2021-03-20T13:11:06.000Z</time>
      </trkpt>
      <trkpt lat="47.35512" lon="-1.37215">
        <ele>124</ele>
        <time>2021-03-20T13:11:08.000Z</time>
      </trkpt>
      <trkpt lat="47.35502" lon="-1.37202">
        <ele>125</ele>
        <time>2021-03-20T13:11:10.000Z</time>
      </trkpt>
      <trkpt lat="47.35494" lon="-1.3719">
        <ele>125</ele>
        <time>2021-03-20T13:11:12.000Z</time>
      </trkpt>
      <trkpt lat="47.35486" lon="-1.37177">
        <ele>126</ele>
        <time>2021-03-20T13:11:14.000Z</time>
      </trkpt>
      <trkpt lat="47.35477" lon="-1.37165">
        <ele>126</ele>
        <time>2021-03-20T13:11:16.000Z</time>
      </trkpt>
      <trkpt lat="47.35468" lon="-1.37153">
        <ele>126</ele>
        <time>2021-03-20T13:11:18.000Z</time>
      </trkpt>
      <trkpt lat="47.35459" lon="-1.37139">
        <ele>126</ele>
        <time>2021-03-20T13:11:20.000Z</time>
      </trkpt>
      <trkpt lat="47.35449" lon="-1.37124">
        <ele>127</ele>
        <time>2021-03-20T13:11:22.000Z</time>
      </trkpt>
      <trkpt lat="47.3544" lon="-1.3711">
        <ele>128</ele>
        <time>2021-03-20T13:11:24.000Z</time>
      </trkpt>
      <trkpt lat="47.3543" lon="-1.37096">
        <ele>128</ele>
        <time>2021-03-20T13:11:26.000Z</time>
      </trkpt>
      <trkpt lat="47.35421" lon="-1.37082">
        <ele>128</ele>
        <time>2021-03-20T13:11:28.000Z</time>
      </trkpt>
      <trkpt lat="47.35412" lon="-1.37068">
        <ele>129</ele>
        <time>2021-03-20T13:11:30.000Z</time>
      </trkpt>
      <trkpt lat="47.35404" lon="-1.37055">
        <ele>130</ele>
        <time>2021-03-20T13:11:32.000Z</time>
      </trkpt>
      <trkpt lat="47.35395" lon="-1.37042">
        <ele>130</ele>
        <time>2021-03-20T13:11:34.000Z</time>
      </trkpt>
      <trkpt lat="47.35387" lon="-1.37027">
        <ele>130</ele>
        <time>2021-03-20T13:11:36.000Z</time>
      </trkpt>
      <trkpt lat="47.3538" lon="-1.37013">
        <ele>130</ele>
        <time>2021-03-20T13:11:38.000Z</time>
      </trkpt>
      <trkpt lat="47.35372" lon="-1.37">
        <ele>130</ele>
        <time>2021-03-20T13:11:40.000Z</time>
      </trkpt>
      <trkpt lat="47.35364" lon="-1.36987">
        <ele>130</ele>
        <time>2021-03-20T13:11:42.000Z</time>
      </trkpt>
      <trkpt lat="47.35356" lon="-1.36975">
        <ele>130</ele>
        <time>2021-03-20T13:11:44.000Z</time>
      </trkpt>
      <trkpt lat="47.35349" lon="-1.36962">
        <ele>130</ele>
        <time>2021-03-20T13:11:46.000Z</time>
      </trkpt>
      <trkpt lat="47.35341" lon="-1.36949">
        <ele>130</ele>
        <time>2021-03-20T13:11:48.000Z</time>
      </trkpt>
      <trkpt lat="47.35333" lon="-1.36936">
        <ele>130</ele>
        <time>2021-03-20T13:11:50.000Z</time>
      </trkpt>
      <trkpt lat="47.35324" lon="-1.36923">
        <ele>130</ele>
        <time>2021-03-20T13:11:52.000Z</time>
      </trkpt>
      <trkpt lat="47.35316" lon="-1.3691">
        <ele>130</ele>
        <time>2021-03-20T13:11:54.000Z</time>
      </trkpt>
      <trkpt lat="47.35308" lon="-1.36896">
        <ele>130</ele>
        <time>2021-03-20T13:11:56.000Z</time>
      </trkpt>
      <trkpt lat="47.35299" lon="-1.36884">
        <ele>130</ele>
        <time>2021-03-20T13:11:58.000Z</time>
      </trkpt>
      <trkpt lat="47.3529" lon="-1.36871">
        <ele>130</ele>
        <time>2021-03-20T13:12:00.000Z</time>
      </trkpt>
      <trkpt lat="47.35282" lon="-1.36859">
        <ele>130</ele>
        <time>2021-03-20T13:12:02.000Z</time>
      </trkpt>
      <trkpt lat="47.35274" lon="-1.36846">
        <ele>130</ele>
        <time>2021-03-20T13:12:04.000Z</time>
      </trkpt>
      <trkpt lat="47.35265" lon="-1.36833">
        <ele>130</ele>
        <time>2021-03-20T13:12:06.000Z</time>
      </trkpt>
      <trkpt lat="47.35257" lon="-1.3682">
        <ele>130</ele>
        <time>2021-03-20T13:12:08.000Z</time>
      </trkpt>
      <trkpt lat="47.35249" lon="-1.36808">
        <ele>130</ele>
        <time>2021-03-20T13:12:10.000Z</time>
      </trkpt>
      <trkpt lat="47.3524" lon="-1.36795">
        <ele>130</ele>
        <time>2021-03-20T13:12:12.000Z</time>
      </trkpt>
      <trkpt lat="47.35232" lon="-1.36783">
        <ele>130</ele>
        <time>2021-03-20T13:12:14.000Z</time>
      </trkpt>
      <trkpt lat="47.35223" lon="-1.3677">
        <ele>130</ele>
        <time>2021-03-20T13:12:16.000Z</time>
      </trkpt>
      <trkpt lat="47.35215" lon="-1.36757">
        <ele>131</ele>
        <time>2021-03-20T13:12:18.000Z</time>
      </trkpt>
      <trkpt lat="47.35207" lon="-1.36744">
        <ele>131</ele>
        <time>2021-03-20T13:12:20.000Z</time>
      </trkpt>
      <trkpt lat="47.35198" lon="-1.36731">
        <ele>131</ele>
        <time>2021-03-20T13:12:22.000Z</time>
      </trkpt>
      <trkpt lat="47.3519" lon="-1.36719">
        <ele>131</ele>
        <time>2021-03-20T13:12:24.000Z</time>
      </trkpt>
      <trkpt lat="47.35182" lon="-1.36707">
        <ele>131</ele>
        <time>2021-03-20T13:12:26.000Z</time>
      </trkpt>
      <trkpt lat="47.35173" lon="-1.36695">
        <ele>131</ele>
        <time>2021-03-20T13:12:28.000Z</time>
      </trkpt>
      <trkpt lat="47.35165" lon="-1.36683">
        <ele>131</ele>
        <time>2021-03-20T13:12:30.000Z</time>
      </trkpt>
      <trkpt lat="47.35156" lon="-1.3667">
        <ele>131</ele>
        <time>2021-03-20T13:12:32.000Z</time>
      </trkpt>
      <trkpt lat="47.35147" lon="-1.36657">
        <ele>131</ele>
        <time>2021-03-20T13:12:34.000Z</time>
      </trkpt>
      <trkpt lat="47.35139" lon="-1.36644">
        <ele>131</ele>
        <time>2021-03-20T13:12:36.000Z</time>
      </trkpt>
      <trkpt lat="47.3513" lon="-1.36631">
        <ele>131</ele>
        <time>2021-03-20T13:12:38.000Z</time>
      </trkpt>
      <trkpt lat="47.35122" lon="-1.36619">
        <ele>131</ele>
        <time>2021-03-20T13:12:40.000Z</time>
      </trkpt>
      <trkpt lat="47.35113" lon="-1.36606">
        <ele>132</ele>
        <time>2021-03-20T13:12:42.000Z</time>
      </trkpt>
      <trkpt lat="47.35104" lon="-1.36595">
        <ele>132</ele>
        <time>2021-03-20T13:12:44.000Z</time>
      </trkpt>
      <trkpt lat="47.35095" lon="-1.36583">
        <ele>132</ele>
        <time>2021-03-20T13:12:46.000Z</time>
      </trkpt>
      <trkpt lat="47.35087" lon="-1.3657">
        <ele>132</ele>
        <time>2021-03-20T13:12:48.000Z</time>
      </trkpt>
      <trkpt lat="47.35079" lon="-1.36556">
        <ele>132</ele>
        <time>2021-03-20T13:12:50.000Z</time>
      </trkpt>
      <trkpt lat="47.35069" lon="-1.36542">
        <ele>132</ele>
        <time>2021-03-20T13:12:52.000Z</time>
      </trkpt>
      <trkpt lat="47.35061" lon="-1.36529">
        <ele>132</ele>
        <time>2021-03-20T13:12:54.000Z</time>
      </trkpt>
      <trkpt lat="47.35053" lon="-1.36516">
        <ele>132</ele>
        <time>2021-03-20T13:12:56.000Z</time>
      </trkpt>
      <trkpt lat="47.35044" lon="-1.36502">
        <ele>132</ele>
        <time>2021-03-20T13:12:58.000Z</time>
      </trkpt>
      <trkpt lat="47.35036" lon="-1.36489">
        <ele>132</ele>
        <time>2021-03-20T13:13:00.000Z</time>
      </trkpt>
      <trkpt lat="47.35027" lon="-1.36474">
        <ele>133</ele>
        <time>2021-03-20T13:13:02.000Z</time>
      </trkpt>
      <trkpt lat="47.35018" lon="-1.3646">
        <ele>133</ele>
        <time>2021-03-20T13:13:04.000Z</time>
      </trkpt>
      <trkpt lat="47.35009" lon="-1.36448">
        <ele>133</ele>
        <time>2021-03-20T13:13:06.000Z</time>
      </trkpt>
      <trkpt lat="47.35" lon="-1.36437">
        <ele>132</ele>
        <time>2021-03-20T13:13:08.000Z</time>
      </trkpt>
      <trkpt lat="47.34991" lon="-1.36425">
        <ele>132</ele>
        <time>2021-03-20T13:13:10.000Z</time>
      </trkpt>
      <trkpt lat="47.34982" lon="-1.36413">
        <ele>132</ele>
        <time>2021-03-20T13:13:12.000Z</time>
      </trkpt>
      <trkpt lat="47.34972" lon="-1.36402">
        <ele>132</ele>
        <time>2021-03-20T13:13:14.000Z</time>
      </trkpt>
      <trkpt lat="47.34963" lon="-1.3639">
        <ele>132</ele>
        <time>2021-03-20T13:13:16.000Z</time>
      </trkpt>
      <trkpt lat="47.34953" lon="-1.36378">
        <ele>132</ele>
        <time>2021-03-20T13:13:18.000Z</time>
      </trkpt>
      <trkpt lat="47.34943" lon="-1.36365">
        <ele>132</ele>
        <time>2021-03-20T13:13:20.000Z</time>
      </trkpt>
      <trkpt lat="47.34933" lon="-1.36353">
        <ele>132</ele>
        <time>2021-03-20T13:13:22.000Z</time>
      </trkpt>
      <trkpt lat="47.34923" lon="-1.3634">
        <ele>131</ele>
        <time>2021-03-20T13:13:24.000Z</time>
      </trkpt>
      <trkpt lat="47.34914" lon="-1.36328">
        <ele>131</ele>
        <time>2021-03-20T13:13:26.000Z</time>
      </trkpt>
      <trkpt lat="47.34905" lon="-1.36315">
        <ele>131</ele>
        <time>2021-03-20T13:13:28.000Z</time>
      </trkpt>
      <trkpt lat="47.34896" lon="-1.36301">
        <ele>132</ele>
        <time>2021-03-20T13:13:30.000Z</time>
      </trkpt>
      <trkpt lat="47.34887" lon="-1.36287">
        <ele>132</ele>
        <time>2021-03-20T13:13:32.000Z</time>
      </trkpt>
      <trkpt lat="47.34879" lon="-1.36274">
        <ele>132</ele>
        <time>2021-03-20T13:13:34.000Z</time>
      </trkpt>
      <trkpt lat="47.3487" lon="-1.36261">
        <ele>132</ele>
        <time>2021-03-20T13:13:36.000Z</time>
      </trkpt>
      <trkpt lat="47.34863" lon="-1.36248">
        <ele>132</ele>
        <time>2021-03-20T13:13:38.000Z</time>
      </trkpt>
      <trkpt lat="47.34854" lon="-1.36235">
        <ele>132</ele>
        <time>2021-03-20T13:13:40.000Z</time>
      </trkpt>
      <trkpt lat="47.34846" lon="-1.36222">
        <ele>132</ele>
        <time>2021-03-20T13:13:42.000Z</time>
      </trkpt>
      <trkpt lat="47.34837" lon="-1.36209">
        <ele>133</ele>
        <time>2021-03-20T13:13:44.000Z</time>
      </trkpt>
      <trkpt lat="47.34829" lon="-1.36195">
        <ele>133</ele>
        <time>2021-03-20T13:13:46.000Z</time>
      </trkpt>
      <trkpt lat="47.34821" lon="-1.36182">
        <ele>133</ele>
        <time>2021-03-20T13:13:48.000Z</time>
      </trkpt>
      <trkpt lat="47.34813" lon="-1.36169">
        <ele>134</ele>
        <time>2021-03-20T13:13:50.000Z</time>
      </trkpt>
      <trkpt lat="47.34804" lon="-1.36157">
        <ele>134</ele>
        <time>2021-03-20T13:13:52.000Z</time>
      </trkpt>
      <trkpt lat="47.34796" lon="-1.36145">
        <ele>134</ele>
        <time>2021-03-20T13:13:54.000Z</time>
      </trkpt>
      <trkpt lat="47.34786" lon="-1.36133">
        <ele>134</ele>
        <time>2021-03-20T13:13:56.000Z</time>
      </trkpt>
      <trkpt lat="47.34777" lon="-1.36122">
        <ele>134</ele>
        <time>2021-03-20T13:13:58.000Z</time>
      </trkpt>
      <trkpt lat="47.34768" lon="-1.36111">
        <ele>134</ele>
        <time>2021-03-20T13:14:00.000Z</time>
      </trkpt>
      <trkpt lat="47.34759" lon="-1.36101">
        <ele>134</ele>
        <time>2021-03-20T13:14:02.000Z</time>
      </trkpt>
      <trkpt lat="47.34749" lon="-1.36089">
        <ele>134</ele>
        <time>2021-03-20T13:14:04.000Z</time>
      </trkpt>
      <trkpt lat="47.34739" lon="-1.36077">
        <ele>134</ele>
        <time>2021-03-20T13:14:06.000Z</time>
      </trkpt>
      <trkpt lat="47.3473" lon="-1.36065">
        <ele>133</ele>
        <time>2021-03-20T13:14:08.000Z</time>
      </trkpt>
      <trkpt lat="47.3472" lon="-1.36053">
        <ele>133</ele>
        <time>2021-03-20T13:14:10.000Z</time>
      </trkpt>
      <trkpt lat="47.3471" lon="-1.36042">
        <ele>133</ele>
        <time>2021-03-20T13:14:12.000Z</time>
      </trkpt>
      <trkpt lat="47.34699" lon="-1.36029">
        <ele>132</ele>
        <time>2021-03-20T13:14:14.000Z</time>
      </trkpt>
      <trkpt lat="47.34688" lon="-1.36017">
        <ele>131</ele>
        <time>2021-03-20T13:14:16.000Z</time>
      </trkpt>
      <trkpt lat="47.34677" lon="-1.36005">
        <ele>131</ele>
        <time>2021-03-20T13:14:18.000Z</time>
      </trkpt>
      <trkpt lat="47.34665" lon="-1.35992">
        <ele>130</ele>
        <time>2021-03-20T13:14:20.000Z</time>
      </trkpt>
      <trkpt lat="47.34653" lon="-1.3598">
        <ele>130</ele>
        <time>2021-03-20T13:14:22.000Z</time>
      </trkpt>
      <trkpt lat="47.34641" lon="-1.35966">
        <ele>129</ele>
        <time>2021-03-20T13:14:24.000Z</time>
      </trkpt>
      <trkpt lat="47.34629" lon="-1.35953">
        <ele>128</ele>
        <time>2021-03-20T13:14:26.000Z</time>
      </trkpt>
      <trkpt lat="47.34617" lon="-1.35939">
        <ele>128</ele>
        <time>2021-03-20T13:14:28.000Z</time>
      </trkpt>
      <trkpt lat="47.34605" lon="-1.35927">
        <ele>128</ele>
        <time>2021-03-20T13:14:30.000Z</time>
      </trkpt>
      <trkpt lat="47.34594" lon="-1.35914">
        <ele>128</ele>
        <time>2021-03-20T13:14:32.000Z</time>
      </trkpt>
      <trkpt lat="47.34583" lon="-1.35901">
        <ele>129</ele>
        <time>2021-03-20T13:14:34.000Z</time>
      </trkpt>
      <trkpt lat="47.34572" lon="-1.35887">
        <ele>128</ele>
        <time>2021-03-20T13:14:36.000Z</time>
      </trkpt>
      <trkpt lat="47.34563" lon="-1.35874">
        <ele>128</ele>
        <time>2021-03-20T13:14:38.000Z</time>
      </trkpt>
      <trkpt lat="47.34554" lon="-1.3586">
        <ele>128</ele>
        <time>2021-03-20T13:14:40.000Z</time>
      </trkpt>
      <trkpt lat="47.34545" lon="-1.35845">
        <ele>128</ele>
        <time>2021-03-20T13:14:42.000Z</time>
      </trkpt>
      <trkpt lat="47.34536" lon="-1.3583">
        <ele>128</ele>
        <time>2021-03-20T13:14:44.000Z</time>
      </trkpt>
      <trkpt lat="47.34527" lon="-1.35816">
        <ele>129</ele>
        <time>2021-03-20T13:14:46.000Z</time>
      </trkpt>
      <trkpt lat="47.34518" lon="-1.35801">
        <ele>129</ele>
        <time>2021-03-20T13:14:48.000Z</time>
      </trkpt>
      <trkpt lat="47.34509" lon="-1.35784">
        <ele>130</ele>
        <time>2021-03-20T13:14:50.000Z</time>
      </trkpt>
      <trkpt lat="47.34499" lon="-1.35766">
        <ele>130</ele>
        <time>2021-03-20T13:14:52.000Z</time>
      </trkpt>
      <trkpt lat="47.34491" lon="-1.3575">
        <ele>131</ele>
        <time>2021-03-20T13:14:54.000Z</time>
      </trkpt>
      <trkpt lat="47.34482" lon="-1.35734">
        <ele>131</ele>
        <time>2021-03-20T13:14:56.000Z</time>
      </trkpt>
      <trkpt lat="47.34474" lon="-1.35719">
        <ele>131</ele>
        <time>2021-03-20T13:14:58.000Z</time>
      </trkpt>
      <trkpt lat="47.34465" lon="-1.35704">
        <ele>132</ele>
        <time>2021-03-20T13:15:00.000Z</time>
      </trkpt>
      <trkpt lat="47.34457" lon="-1.3569">
        <ele>132</ele>
        <time>2021-03-20T13:15:02.000Z</time>
      </trkpt>
      <trkpt lat="47.34448" lon="-1.35678">
        <ele>132</ele>
        <time>2021-03-20T13:15:04.000Z</time>
      </trkpt>
      <trkpt lat="47.34439" lon="-1.35669">
        <ele>132</ele>
        <time>2021-03-20T13:15:06.000Z</time>
      </trkpt>
      <trkpt lat="47.3443" lon="-1.35655">
        <ele>132</ele>
        <time>2021-03-20T13:15:08.000Z</time>
      </trkpt>
      <trkpt lat="47.34419" lon="-1.35639">
        <ele>133</ele>
        <time>2021-03-20T13:15:10.000Z</time>
      </trkpt>
      <trkpt lat="47.3441" lon="-1.35619">
        <ele>133</ele>
        <time>2021-03-20T13:15:12.000Z</time>
      </trkpt>
      <trkpt lat="47.344" lon="-1.356">
        <ele>133</ele>
        <time>2021-03-20T13:15:14.000Z</time>
      </trkpt>
      <trkpt lat="47.3439" lon="-1.35583">
        <ele>133</ele>
        <time>2021-03-20T13:15:16.000Z</time>
      </trkpt>
      <trkpt lat="47.3438" lon="-1.35566">
        <ele>133</ele>
        <time>2021-03-20T13:15:18.000Z</time>
      </trkpt>
      <trkpt lat="47.34371" lon="-1.35549">
        <ele>133</ele>
        <time>2021-03-20T13:15:20.000Z</time>
      </trkpt>
      <trkpt lat="47.34361" lon="-1.35533">
        <ele>134</ele>
        <time>2021-03-20T13:15:22.000Z</time>
      </trkpt>
      <trkpt lat="47.34352" lon="-1.35516">
        <ele>135</ele>
        <time>2021-03-20T13:15:24.000Z</time>
      </trkpt>
      <trkpt lat="47.34343" lon="-1.355">
        <ele>136</ele>
        <time>2021-03-20T13:15:26.000Z</time>
      </trkpt>
      <trkpt lat="47.34333" lon="-1.35483">
        <ele>136</ele>
        <time>2021-03-20T13:15:28.000Z</time>
      </trkpt>
      <trkpt lat="47.34324" lon="-1.35466">
        <ele>136</ele>
        <time>2021-03-20T13:15:30.000Z</time>
      </trkpt>
      <trkpt lat="47.34315" lon="-1.35451">
        <ele>136</ele>
        <time>2021-03-20T13:15:32.000Z</time>
      </trkpt>
      <trkpt lat="47.34306" lon="-1.35436">
        <ele>135</ele>
        <time>2021-03-20T13:15:34.000Z</time>
      </trkpt>
      <trkpt lat="47.34297" lon="-1.35421">
        <ele>135</ele>
        <time>2021-03-20T13:15:36.000Z</time>
      </trkpt>
      <trkpt lat="47.34288" lon="-1.35405">
        <ele>135</ele>
        <time>2021-03-20T13:15:38.000Z</time>
      </trkpt>
      <trkpt lat="47.34279" lon="-1.35389">
        <ele>135</ele>
        <time>2021-03-20T13:15:40.000Z</time>
      </trkpt>
      <trkpt lat="47.3427" lon="-1.35373">
        <ele>134</ele>
        <time>2021-03-20T13:15:42.000Z</time>
      </trkpt>
      <trkpt lat="47.3426" lon="-1.35358">
        <ele>134</ele>
        <time>2021-03-20T13:15:44.000Z</time>
      </trkpt>
      <trkpt lat="47.34251" lon="-1.35342">
        <ele>134</ele>
        <time>2021-03-20T13:15:46.000Z</time>
      </trkpt>
      <trkpt lat="47.34242" lon="-1.35327">
        <ele>134</ele>
        <time>2021-03-20T13:15:48.000Z</time>
      </trkpt>
      <trkpt lat="47.34233" lon="-1.35311">
        <ele>134</ele>
        <time>2021-03-20T13:15:50.000Z</time>
      </trkpt>
      <trkpt lat="47.34224" lon="-1.35296">
        <ele>134</ele>
        <time>2021-03-20T13:15:52.000Z</time>
      </trkpt>
      <trkpt lat="47.34215" lon="-1.3528">
        <ele>133</ele>
        <time>2021-03-20T13:15:54.000Z</time>
      </trkpt>
      <trkpt lat="47.34206" lon="-1.35264">
        <ele>133</ele>
        <time>2021-03-20T13:15:56.000Z</time>
      </trkpt>
      <trkpt lat="47.34197" lon="-1.35249">
        <ele>134</ele>
        <time>2021-03-20T13:15:58.000Z</time>
      </trkpt>
      <trkpt lat="47.34187" lon="-1.35233">
        <ele>133</ele>
        <time>2021-03-20T13:16:00.000Z</time>
      </trkpt>
      <trkpt lat="47.34178" lon="-1.35218">
        <ele>133</ele>
        <time>2021-03-20T13:16:02.000Z</time>
      </trkpt>
      <trkpt lat="47.34169" lon="-1.35202">
        <ele>133</ele>
        <time>2021-03-20T13:16:04.000Z</time>
      </trkpt>
      <trkpt lat="47.34159" lon="-1.35186">
        <ele>132</ele>
        <time>2021-03-20T13:16:06.000Z</time>
      </trkpt>
      <trkpt lat="47.3415" lon="-1.35171">
        <ele>132</ele>
        <time>2021-03-20T13:16:08.000Z</time>
      </trkpt>
      <trkpt lat="47.3414" lon="-1.35156">
        <ele>132</ele>
        <time>2021-03-20T13:16:10.000Z</time>
      </trkpt>
      <trkpt lat="47.34131" lon="-1.3514">
        <ele>132</ele>
        <time>2021-03-20T13:16:12.000Z</time>
      </trkpt>
      <trkpt lat="47.34123" lon="-1.35124">
        <ele>132</ele>
        <time>2021-03-20T13:16:14.000Z</time>
      </trkpt>
      <trkpt lat="47.34113" lon="-1.35109">
        <ele>132</ele>
        <time>2021-03-20T13:16:16.000Z</time>
      </trkpt>
      <trkpt lat="47.34105" lon="-1.35093">
        <ele>132</ele>
        <time>2021-03-20T13:16:18.000Z</time>
      </trkpt>
      <trkpt lat="47.34095" lon="-1.35077">
        <ele>132</ele>
        <time>2021-03-20T13:16:20.000Z</time>
      </trkpt>
      <trkpt lat="47.34086" lon="-1.35063">
        <ele>132</ele>
        <time>2021-03-20T13:16:22.000Z</time>
      </trkpt>
      <trkpt lat="47.34077" lon="-1.35048">
        <ele>132</ele>
        <time>2021-03-20T13:16:24.000Z</time>
      </trkpt>
      <trkpt lat="47.34068" lon="-1.35033">
        <ele>131</ele>
        <time>2021-03-20T13:16:26.000Z</time>
      </trkpt>
      <trkpt lat="47.34059" lon="-1.35018">
        <ele>131</ele>
        <time>2021-03-20T13:16:28.000Z</time>
      </trkpt>
      <trkpt lat="47.3405" lon="-1.35004">
        <ele>131</ele>
        <time>2021-03-20T13:16:30.000Z</time>
      </trkpt>
      <trkpt lat="47.34041" lon="-1.3499">
        <ele>131</ele>
        <time>2021-03-20T13:16:32.000Z</time>
      </trkpt>
      <trkpt lat="47.34031" lon="-1.34977">
        <ele>131</ele>
        <time>2021-03-20T13:16:34.000Z</time>
      </trkpt>
      <trkpt lat="47.34022" lon="-1.34968">
        <ele>131</ele>
        <time>2021-03-20T13:16:36.000Z</time>
      </trkpt>
      <trkpt lat="47.34012" lon="-1.34962">
        <ele>131</ele>
        <time>2021-03-20T13:16:38.000Z</time>
      </trkpt>
      <trkpt lat="47.34001" lon="-1.34959">
        <ele>131</ele>
        <time>2021-03-20T13:16:40.000Z</time>
      </trkpt>
      <trkpt lat="47.33992" lon="-1.3495">
        <ele>131</ele>
        <time>2021-03-20T13:16:42.000Z</time>
      </trkpt>
      <trkpt lat="47.33986" lon="-1.34929">
        <ele>131</ele>
        <time>2021-03-20T13:16:44.000Z</time>
      </trkpt>
      <trkpt lat="47.33978" lon="-1.34912">
        <ele>130</ele>
        <time>2021-03-20T13:16:46.000Z</time>
      </trkpt>
      <trkpt lat="47.33967" lon="-1.34901">
        <ele>130</ele>
        <time>2021-03-20T13:16:48.000Z</time>
      </trkpt>
      <trkpt lat="47.33955" lon="-1.34892">
        <ele>130</ele>
        <time>2021-03-20T13:16:50.000Z</time>
      </trkpt>
      <trkpt lat="47.33944" lon="-1.34881">
        <ele>130</ele>
        <time>2021-03-20T13:16:52.000Z</time>
      </trkpt>
      <trkpt lat="47.33932" lon="-1.3487">
        <ele>130</ele>
        <time>2021-03-20T13:16:54.000Z</time>
      </trkpt>
      <trkpt lat="47.33921" lon="-1.34859">
        <ele>130</ele>
        <time>2021-03-20T13:16:56.000Z</time>
      </trkpt>
      <trkpt lat="47.3391" lon="-1.34847">
        <ele>130</ele>
        <time>2021-03-20T13:16:58.000Z</time>
      </trkpt>
      <trkpt lat="47.33898" lon="-1.34835">
        <ele>130</ele>
        <time>2021-03-20T13:17:00.000Z</time>
      </trkpt>
      <trkpt lat="47.33888" lon="-1.34821">
        <ele>129</ele>
        <time>2021-03-20T13:17:02.000Z</time>
      </trkpt>
      <trkpt lat="47.33878" lon="-1.34808">
        <ele>130</ele>
        <time>2021-03-20T13:17:04.000Z</time>
      </trkpt>
      <trkpt lat="47.33867" lon="-1.34794">
        <ele>130</ele>
        <time>2021-03-20T13:17:06.000Z</time>
      </trkpt>
      <trkpt lat="47.33857" lon="-1.3478">
        <ele>130</ele>
        <time>2021-03-20T13:17:08.000Z</time>
      </trkpt>
      <trkpt lat="47.33846" lon="-1.34766">
        <ele>129</ele>
        <time>2021-03-20T13:17:10.000Z</time>
      </trkpt>
      <trkpt lat="47.33836" lon="-1.34751">
        <ele>129</ele>
        <time>2021-03-20T13:17:12.000Z</time>
      </trkpt>
      <trkpt lat="47.33826" lon="-1.34737">
        <ele>129</ele>
        <time>2021-03-20T13:17:14.000Z</time>
      </trkpt>
      <trkpt lat="47.33816" lon="-1.34723">
        <ele>129</ele>
        <time>2021-03-20T13:17:16.000Z</time>
      </trkpt>
      <trkpt lat="47.33806" lon="-1.34709">
        <ele>129</ele>
        <time>2021-03-20T13:17:18.000Z</time>
      </trkpt>
      <trkpt lat="47.33796" lon="-1.34695">
        <ele>129</ele>
        <time>2021-03-20T13:17:20.000Z</time>
      </trkpt>
      <trkpt lat="47.33785" lon="-1.34681">
        <ele>130</ele>
        <time>2021-03-20T13:17:22.000Z</time>
      </trkpt>
      <trkpt lat="47.33775" lon="-1.34667">
        <ele>130</ele>
        <time>2021-03-20T13:17:24.000Z</time>
      </trkpt>
      <trkpt lat="47.33764" lon="-1.34653">
        <ele>129</ele>
        <time>2021-03-20T13:17:26.000Z</time>
      </trkpt>
      <trkpt lat="47.33754" lon="-1.34639">
        <ele>129</ele>
        <time>2021-03-20T13:17:28.000Z</time>
      </trkpt>
      <trkpt lat="47.33745" lon="-1.34625">
        <ele>129</ele>
        <time>2021-03-20T13:17:30.000Z</time>
      </trkpt>
      <trkpt lat="47.33735" lon="-1.34611">
        <ele>129</ele>
        <time>2021-03-20T13:17:32.000Z</time>
      </trkpt>
      <trkpt lat="47.33725" lon="-1.34597">
        <ele>129</ele>
        <time>2021-03-20T13:17:34.000Z</time>
      </trkpt>
      <trkpt lat="47.33715" lon="-1.34583">
        <ele>129</ele>
        <time>2021-03-20T13:17:36.000Z</time>
      </trkpt>
      <trkpt lat="47.33704" lon="-1.34569">
        <ele>129</ele>
        <time>2021-03-20T13:17:38.000Z</time>
      </trkpt>
      <trkpt lat="47.33694" lon="-1.34555">
        <ele>129</ele>
        <time>2021-03-20T13:17:40.000Z</time>
      </trkpt>
      <trkpt lat="47.33683" lon="-1.3454">
        <ele>129</ele>
        <time>2021-03-20T13:17:42.000Z</time>
      </trkpt>
      <trkpt lat="47.33673" lon="-1.34527">
        <ele>129</ele>
        <time>2021-03-20T13:17:44.000Z</time>
      </trkpt>
      <trkpt lat="47.33662" lon="-1.34513">
        <ele>129</ele>
        <time>2021-03-20T13:17:46.000Z</time>
      </trkpt>
      <trkpt lat="47.33653" lon="-1.345">
        <ele>129</ele>
        <time>2021-03-20T13:17:48.000Z</time>
      </trkpt>
      <trkpt lat="47.33642" lon="-1.34486">
        <ele>129</ele>
        <time>2021-03-20T13:17:50.000Z</time>
      </trkpt>
      <trkpt lat="47.3363" lon="-1.34475">
        <ele>129</ele>
        <time>2021-03-20T13:17:52.000Z</time>
      </trkpt>
      <trkpt lat="47.33618" lon="-1.34465">
        <ele>128</ele>
        <time>2021-03-20T13:17:54.000Z</time>
      </trkpt>
      <trkpt lat="47.33604" lon="-1.34457">
        <ele>128</ele>
        <time>2021-03-20T13:17:56.000Z</time>
      </trkpt>
      <trkpt lat="47.33591" lon="-1.34451">
        <ele>128</ele>
        <time>2021-03-20T13:17:58.000Z</time>
      </trkpt>
      <trkpt lat="47.33578" lon="-1.34444">
        <ele>128</ele>
        <time>2021-03-20T13:18:00.000Z</time>
      </trkpt>
      <trkpt lat="47.33564" lon="-1.34438">
        <ele>128</ele>
        <time>2021-03-20T13:18:02.000Z</time>
      </trkpt>
      <trkpt lat="47.3355" lon="-1.34431">
        <ele>128</ele>
        <time>2021-03-20T13:18:04.000Z</time>
      </trkpt>
      <trkpt lat="47.33536" lon="-1.34424">
        <ele>128</ele>
        <time>2021-03-20T13:18:06.000Z</time>
      </trkpt>
      <trkpt lat="47.33522" lon="-1.34418">
        <ele>128</ele>
        <time>2021-03-20T13:18:08.000Z</time>
      </trkpt>
      <trkpt lat="47.33508" lon="-1.34411">
        <ele>128</ele>
        <time>2021-03-20T13:18:10.000Z</time>
      </trkpt>
      <trkpt lat="47.33494" lon="-1.34405">
        <ele>128</ele>
        <time>2021-03-20T13:18:12.000Z</time>
      </trkpt>
      <trkpt lat="47.33479" lon="-1.34398">
        <ele>127</ele>
        <time>2021-03-20T13:18:14.000Z</time>
      </trkpt>
      <trkpt lat="47.33465" lon="-1.34391">
        <ele>127</ele>
        <time>2021-03-20T13:18:16.000Z</time>
      </trkpt>
      <trkpt lat="47.33451" lon="-1.34385">
        <ele>127</ele>
        <time>2021-03-20T13:18:18.000Z</time>
      </trkpt>
      <trkpt lat="47.33436" lon="-1.34378">
        <ele>127</ele>
        <time>2021-03-20T13:18:20.000Z</time>
      </trkpt>
      <trkpt lat="47.33422" lon="-1.3437">
        <ele>128</ele>
        <time>2021-03-20T13:18:22.000Z</time>
      </trkpt>
      <trkpt lat="47.33408" lon="-1.34363">
        <ele>127</ele>
        <time>2021-03-20T13:18:24.000Z</time>
      </trkpt>
      <trkpt lat="47.33394" lon="-1.34356">
        <ele>127</ele>
        <time>2021-03-20T13:18:26.000Z</time>
      </trkpt>
      <trkpt lat="47.33379" lon="-1.34349">
        <ele>126</ele>
        <time>2021-03-20T13:18:28.000Z</time>
      </trkpt>
      <trkpt lat="47.33364" lon="-1.34341">
        <ele>126</ele>
        <time>2021-03-20T13:18:30.000Z</time>
      </trkpt>
      <trkpt lat="47.33349" lon="-1.34333">
        <ele>126</ele>
        <time>2021-03-20T13:18:32.000Z</time>
      </trkpt>
      <trkpt lat="47.33333" lon="-1.34326">
        <ele>125</ele>
        <time>2021-03-20T13:18:34.000Z</time>
      </trkpt>
      <trkpt lat="47.33317" lon="-1.34319">
        <ele>125</ele>
        <time>2021-03-20T13:18:36.000Z</time>
      </trkpt>
      <trkpt lat="47.33302" lon="-1.34314">
        <ele>124</ele>
        <time>2021-03-20T13:18:38.000Z</time>
      </trkpt>
      <trkpt lat="47.33286" lon="-1.3431">
        <ele>124</ele>
        <time>2021-03-20T13:18:40.000Z</time>
      </trkpt>
      <trkpt lat="47.3327" lon="-1.34308">
        <ele>123</ele>
        <time>2021-03-20T13:18:42.000Z</time>
      </trkpt>
      <trkpt lat="47.33254" lon="-1.34306">
        <ele>123</ele>
        <time>2021-03-20T13:18:44.000Z</time>
      </trkpt>
      <trkpt lat="47.33238" lon="-1.34304">
        <ele>123</ele>
        <time>2021-03-20T13:18:46.000Z</time>
      </trkpt>
      <trkpt lat="47.33222" lon="-1.34301">
        <ele>122</ele>
        <time>2021-03-20T13:18:48.000Z</time>
      </trkpt>
      <trkpt lat="47.33206" lon="-1.34299">
        <ele>122</ele>
        <time>2021-03-20T13:18:50.000Z</time>
      </trkpt>
      <trkpt lat="47.3319" lon="-1.34296">
        <ele>121</ele>
        <time>2021-03-20T13:18:52.000Z</time>
      </trkpt>
      <trkpt lat="47.33173" lon="-1.34292">
        <ele>121</ele>
        <time>2021-03-20T13:18:54.000Z</time>
      </trkpt>
      <trkpt lat="47.33158" lon="-1.34287">
        <ele>120</ele>
        <time>2021-03-20T13:18:56.000Z</time>
      </trkpt>
      <trkpt lat="47.33143" lon="-1.34279">
        <ele>120</ele>
        <time>2021-03-20T13:18:58.000Z</time>
      </trkpt>
      <trkpt lat="47.33127" lon="-1.3427">
        <ele>119</ele>
        <time>2021-03-20T13:19:00.000Z</time>
      </trkpt>
      <trkpt lat="47.33113" lon="-1.3426">
        <ele>119</ele>
        <time>2021-03-20T13:19:02.000Z</time>
      </trkpt>
      <trkpt lat="47.33098" lon="-1.3425">
        <ele>119</ele>
        <time>2021-03-20T13:19:04.000Z</time>
      </trkpt>
      <trkpt lat="47.33083" lon="-1.34239">
        <ele>119</ele>
        <time>2021-03-20T13:19:06.000Z</time>
      </trkpt>
      <trkpt lat="47.33067" lon="-1.34228">
        <ele>118</ele>
        <time>2021-03-20T13:19:08.000Z</time>
      </trkpt>
      <trkpt lat="47.33051" lon="-1.34217">
        <ele>117</ele>
        <time>2021-03-20T13:19:10.000Z</time>
      </trkpt>
      <trkpt lat="47.33035" lon="-1.34206">
        <ele>116</ele>
        <time>2021-03-20T13:19:12.000Z</time>
      </trkpt>
      <trkpt lat="47.33019" lon="-1.34196">
        <ele>115</ele>
        <time>2021-03-20T13:19:14.000Z</time>
      </trkpt>
      <trkpt lat="47.33003" lon="-1.34185">
        <ele>114</ele>
        <time>2021-03-20T13:19:16.000Z</time>
      </trkpt>
      <trkpt lat="47.32994" lon="-1.34179">
        <ele>113</ele>
        <time>2021-03-20T13:19:17.000Z</time>
      </trkpt>
      <trkpt lat="47.32985" lon="-1.34174">
        <ele>113</ele>
        <time>2021-03-20T13:19:18.000Z</time>
      </trkpt>
      <trkpt lat="47.32977" lon="-1.34166">
        <ele>112</ele>
        <time>2021-03-20T13:19:19.000Z</time>
      </trkpt>
      <trkpt lat="47.3297" lon="-1.34156">
        <ele>113</ele>
        <time>2021-03-20T13:19:20.000Z</time>
      </trkpt>
      <trkpt lat="47.32962" lon="-1.34146">
        <ele>112</ele>
        <time>2021-03-20T13:19:21.000Z</time>
      </trkpt>
      <trkpt lat="47.32956" lon="-1.34135">
        <ele>112</ele>
        <time>2021-03-20T13:19:22.000Z</time>
      </trkpt>
      <trkpt lat="47.32951" lon="-1.34122">
        <ele>112</ele>
        <time>2021-03-20T13:19:23.000Z</time>
      </trkpt>
      <trkpt lat="47.32946" lon="-1.34108">
        <ele>112</ele>
        <time>2021-03-20T13:19:24.000Z</time>
      </trkpt>
      <trkpt lat="47.32942" lon="-1.34095">
        <ele>111</ele>
        <time>2021-03-20T13:19:25.000Z</time>
      </trkpt>
      <trkpt lat="47.32938" lon="-1.34081">
        <ele>111</ele>
        <time>2021-03-20T13:19:26.000Z</time>
      </trkpt>
      <trkpt lat="47.32936" lon="-1.34068">
        <ele>111</ele>
        <time>2021-03-20T13:19:27.000Z</time>
      </trkpt>
      <trkpt lat="47.32937" lon="-1.34054">
        <ele>110</ele>
        <time>2021-03-20T13:19:28.000Z</time>
      </trkpt>
      <trkpt lat="47.3294" lon="-1.34028">
        <ele>110</ele>
        <time>2021-03-20T13:19:30.000Z</time>
      </trkpt>
      <trkpt lat="47.32946" lon="-1.34004">
        <ele>109</ele>
        <time>2021-03-20T13:19:32.000Z</time>
      </trkpt>
      <trkpt lat="47.32951" lon="-1.33993">
        <ele>108</ele>
        <time>2021-03-20T13:19:33.000Z</time>
      </trkpt>
      <trkpt lat="47.32955" lon="-1.33981">
        <ele>108</ele>
        <time>2021-03-20T13:19:34.000Z</time>
      </trkpt>
      <trkpt lat="47.32963" lon="-1.33957">
        <ele>107</ele>
        <time>2021-03-20T13:19:36.000Z</time>
      </trkpt>
      <trkpt lat="47.32967" lon="-1.33945">
        <ele>106</ele>
        <time>2021-03-20T13:19:37.000Z</time>
      </trkpt>
      <trkpt lat="47.32971" lon="-1.33933">
        <ele>105</ele>
        <time>2021-03-20T13:19:38.000Z</time>
      </trkpt>
      <trkpt lat="47.32976" lon="-1.33921">
        <ele>105</ele>
        <time>2021-03-20T13:19:39.000Z</time>
      </trkpt>
      <trkpt lat="47.32981" lon="-1.33909">
        <ele>104</ele>
        <time>2021-03-20T13:19:40.000Z</time>
      </trkpt>
      <trkpt lat="47.32985" lon="-1.33897">
        <ele>104</ele>
        <time>2021-03-20T13:19:41.000Z</time>
      </trkpt>
      <trkpt lat="47.32989" lon="-1.33885">
        <ele>104</ele>
        <time>2021-03-20T13:19:42.000Z</time>
      </trkpt>
      <trkpt lat="47.32994" lon="-1.33872">
        <ele>103</ele>
        <time>2021-03-20T13:19:43.000Z</time>
      </trkpt>
      <trkpt lat="47.32998" lon="-1.3386">
        <ele>103</ele>
        <time>2021-03-20T13:19:44.000Z</time>
      </trkpt>
      <trkpt lat="47.33002" lon="-1.33847">
        <ele>102</ele>
        <time>2021-03-20T13:19:45.000Z</time>
      </trkpt>
      <trkpt lat="47.33007" lon="-1.33835">
        <ele>102</ele>
        <time>2021-03-20T13:19:46.000Z</time>
      </trkpt>
      <trkpt lat="47.33012" lon="-1.33823">
        <ele>101</ele>
        <time>2021-03-20T13:19:47.000Z</time>
      </trkpt>
      <trkpt lat="47.3302" lon="-1.338">
        <ele>100</ele>
        <time>2021-03-20T13:19:49.000Z</time>
      </trkpt>
      <trkpt lat="47.3303" lon="-1.33779">
        <ele>99</ele>
        <time>2021-03-20T13:19:51.000Z</time>
      </trkpt>
      <trkpt lat="47.3304" lon="-1.33758">
        <ele>98</ele>
        <time>2021-03-20T13:19:53.000Z</time>
      </trkpt>
      <trkpt lat="47.33046" lon="-1.33747">
        <ele>98</ele>
        <time>2021-03-20T13:19:54.000Z</time>
      </trkpt>
      <trkpt lat="47.33052" lon="-1.33736">
        <ele>98</ele>
        <time>2021-03-20T13:19:55.000Z</time>
      </trkpt>
      <trkpt lat="47.33058" lon="-1.33725">
        <ele>97</ele>
        <time>2021-03-20T13:19:56.000Z</time>
      </trkpt>
      <trkpt lat="47.33064" lon="-1.33714">
        <ele>97</ele>
        <time>2021-03-20T13:19:57.000Z</time>
      </trkpt>
      <trkpt lat="47.33069" lon="-1.33703">
        <ele>97</ele>
        <time>2021-03-20T13:19:58.000Z</time>
      </trkpt>
      <trkpt lat="47.33075" lon="-1.3369">
        <ele>96</ele>
        <time>2021-03-20T13:19:59.000Z</time>
      </trkpt>
      <trkpt lat="47.3308" lon="-1.33679">
        <ele>96</ele>
        <time>2021-03-20T13:20:00.000Z</time>
      </trkpt>
      <trkpt lat="47.33085" lon="-1.33666">
        <ele>95</ele>
        <time>2021-03-20T13:20:01.000Z</time>
      </trkpt>
      <trkpt lat="47.33089" lon="-1.33653">
        <ele>95</ele>
        <time>2021-03-20T13:20:02.000Z</time>
      </trkpt>
      <trkpt lat="47.33092" lon="-1.33641">
        <ele>94</ele>
        <time>2021-03-20T13:20:03.000Z</time>
      </trkpt>
      <trkpt lat="47.33096" lon="-1.33628">
        <ele>94</ele>
        <time>2021-03-20T13:20:04.000Z</time>
      </trkpt>
      <trkpt lat="47.33099" lon="-1.33615">
        <ele>93</ele>
        <time>2021-03-20T13:20:05.000Z</time>
      </trkpt>
      <trkpt lat="47.33103" lon="-1.33602">
        <ele>93</ele>
        <time>2021-03-20T13:20:06.000Z</time>
      </trkpt>
      <trkpt lat="47.33106" lon="-1.33589">
        <ele>92</ele>
        <time>2021-03-20T13:20:07.000Z</time>
      </trkpt>
      <trkpt lat="47.3311" lon="-1.33577">
        <ele>92</ele>
        <time>2021-03-20T13:20:08.000Z</time>
      </trkpt>
      <trkpt lat="47.33113" lon="-1.33564">
        <ele>91</ele>
        <time>2021-03-20T13:20:09.000Z</time>
      </trkpt>
      <trkpt lat="47.33116" lon="-1.3355">
        <ele>90</ele>
        <time>2021-03-20T13:20:10.000Z</time>
      </trkpt>
      <trkpt lat="47.33118" lon="-1.33537">
        <ele>90</ele>
        <time>2021-03-20T13:20:11.000Z</time>
      </trkpt>
      <trkpt lat="47.33117" lon="-1.33524">
        <ele>89</ele>
        <time>2021-03-20T13:20:12.000Z</time>
      </trkpt>
      <trkpt lat="47.33115" lon="-1.3351">
        <ele>89</ele>
        <time>2021-03-20T13:20:13.000Z</time>
      </trkpt>
      <trkpt lat="47.33111" lon="-1.33497">
        <ele>89</ele>
        <time>2021-03-20T13:20:14.000Z</time>
      </trkpt>
      <trkpt lat="47.33107" lon="-1.33485">
        <ele>89</ele>
        <time>2021-03-20T13:20:15.000Z</time>
      </trkpt>
      <trkpt lat="47.33103" lon="-1.33472">
        <ele>90</ele>
        <time>2021-03-20T13:20:16.000Z</time>
      </trkpt>
      <trkpt lat="47.33097" lon="-1.33461">
        <ele>89</ele>
        <time>2021-03-20T13:20:17.000Z</time>
      </trkpt>
      <trkpt lat="47.3309" lon="-1.33451">
        <ele>90</ele>
        <time>2021-03-20T13:20:18.000Z</time>
      </trkpt>
      <trkpt lat="47.33083" lon="-1.33443">
        <ele>90</ele>
        <time>2021-03-20T13:20:19.000Z</time>
      </trkpt>
      <trkpt lat="47.33075" lon="-1.33434">
        <ele>90</ele>
        <time>2021-03-20T13:20:20.000Z</time>
      </trkpt>
      <trkpt lat="47.33068" lon="-1.33426">
        <ele>89</ele>
        <time>2021-03-20T13:20:21.000Z</time>
      </trkpt>
      <trkpt lat="47.3306" lon="-1.33418">
        <ele>89</ele>
        <time>2021-03-20T13:20:22.000Z</time>
      </trkpt>
      <trkpt lat="47.33053" lon="-1.33411">
        <ele>89</ele>
        <time>2021-03-20T13:20:23.000Z</time>
      </trkpt>
      <trkpt lat="47.33039" lon="-1.33394">
        <ele>89</ele>
        <time>2021-03-20T13:20:25.000Z</time>
      </trkpt>
      <trkpt lat="47.33031" lon="-1.33386">
        <ele>89</ele>
        <time>2021-03-20T13:20:26.000Z</time>
      </trkpt>
      <trkpt lat="47.33023" lon="-1.33377">
        <ele>89</ele>
        <time>2021-03-20T13:20:27.000Z</time>
      </trkpt>
      <trkpt lat="47.33016" lon="-1.33368">
        <ele>88</ele>
        <time>2021-03-20T13:20:28.000Z</time>
      </trkpt>
      <trkpt lat="47.33009" lon="-1.33361">
        <ele>88</ele>
        <time>2021-03-20T13:20:29.000Z</time>
      </trkpt>
      <trkpt lat="47.33001" lon="-1.33353">
        <ele>88</ele>
        <time>2021-03-20T13:20:30.000Z</time>
      </trkpt>
      <trkpt lat="47.32986" lon="-1.33336">
        <ele>88</ele>
        <time>2021-03-20T13:20:32.000Z</time>
      </trkpt>
      <trkpt lat="47.32979" lon="-1.33329">
        <ele>88</ele>
        <time>2021-03-20T13:20:33.000Z</time>
      </trkpt>
      <trkpt lat="47.32971" lon="-1.33321">
        <ele>87</ele>
        <time>2021-03-20T13:20:34.000Z</time>
      </trkpt>
      <trkpt lat="47.32964" lon="-1.33312">
        <ele>87</ele>
        <time>2021-03-20T13:20:35.000Z</time>
      </trkpt>
      <trkpt lat="47.32957" lon="-1.33303">
        <ele>86</ele>
        <time>2021-03-20T13:20:36.000Z</time>
      </trkpt>
      <trkpt lat="47.32949" lon="-1.33295">
        <ele>86</ele>
        <time>2021-03-20T13:20:37.000Z</time>
      </trkpt>
      <trkpt lat="47.32942" lon="-1.33287">
        <ele>86</ele>
        <time>2021-03-20T13:20:38.000Z</time>
      </trkpt>
      <trkpt lat="47.32934" lon="-1.33278">
        <ele>85</ele>
        <time>2021-03-20T13:20:39.000Z</time>
      </trkpt>
      <trkpt lat="47.32927" lon="-1.3327">
        <ele>84</ele>
        <time>2021-03-20T13:20:40.000Z</time>
      </trkpt>
      <trkpt lat="47.32919" lon="-1.3326">
        <ele>84</ele>
        <time>2021-03-20T13:20:41.000Z</time>
      </trkpt>
      <trkpt lat="47.32911" lon="-1.3325">
        <ele>83</ele>
        <time>2021-03-20T13:20:42.000Z</time>
      </trkpt>
      <trkpt lat="47.32902" lon="-1.33241">
        <ele>82</ele>
        <time>2021-03-20T13:20:43.000Z</time>
      </trkpt>
      <trkpt lat="47.32894" lon="-1.33232">
        <ele>81</ele>
        <time>2021-03-20T13:20:44.000Z</time>
      </trkpt>
      <trkpt lat="47.32886" lon="-1.33225">
        <ele>81</ele>
        <time>2021-03-20T13:20:45.000Z</time>
      </trkpt>
      <trkpt lat="47.32877" lon="-1.33217">
        <ele>81</ele>
        <time>2021-03-20T13:20:46.000Z</time>
      </trkpt>
      <trkpt lat="47.32869" lon="-1.33209">
        <ele>80</ele>
        <time>2021-03-20T13:20:47.000Z</time>
      </trkpt>
      <trkpt lat="47.32859" lon="-1.33202">
        <ele>79</ele>
        <time>2021-03-20T13:20:48.000Z</time>
      </trkpt>
      <trkpt lat="47.32851" lon="-1.33195">
        <ele>78</ele>
        <time>2021-03-20T13:20:49.000Z</time>
      </trkpt>
      <trkpt lat="47.32842" lon="-1.33187">
        <ele>78</ele>
        <time>2021-03-20T13:20:50.000Z</time>
      </trkpt>
      <trkpt lat="47.32833" lon="-1.33179">
        <ele>78</ele>
        <time>2021-03-20T13:20:51.000Z</time>
      </trkpt>
      <trkpt lat="47.32825" lon="-1.33172">
        <ele>77</ele>
        <time>2021-03-20T13:20:52.000Z</time>
      </trkpt>
      <trkpt lat="47.32816" lon="-1.33164">
        <ele>77</ele>
        <time>2021-03-20T13:20:53.000Z</time>
      </trkpt>
      <trkpt lat="47.32807" lon="-1.33157">
        <ele>75</ele>
        <time>2021-03-20T13:20:54.000Z</time>
      </trkpt>
      <trkpt lat="47.32799" lon="-1.33149">
        <ele>75</ele>
        <time>2021-03-20T13:20:55.000Z</time>
      </trkpt>
      <trkpt lat="47.3279" lon="-1.33141">
        <ele>73</ele>
        <time>2021-03-20T13:20:56.000Z</time>
      </trkpt>
      <trkpt lat="47.32782" lon="-1.33132">
        <ele>72</ele>
        <time>2021-03-20T13:20:57.000Z</time>
      </trkpt>
      <trkpt lat="47.32774" lon="-1.33124">
        <ele>72</ele>
        <time>2021-03-20T13:20:58.000Z</time>
      </trkpt>
      <trkpt lat="47.32765" lon="-1.33115">
        <ele>71</ele>
        <time>2021-03-20T13:20:59.000Z</time>
      </trkpt>
      <trkpt lat="47.32757" lon="-1.33107">
        <ele>70</ele>
        <time>2021-03-20T13:21:00.000Z</time>
      </trkpt>
      <trkpt lat="47.32748" lon="-1.33098">
        <ele>69</ele>
        <time>2021-03-20T13:21:01.000Z</time>
      </trkpt>
      <trkpt lat="47.3274" lon="-1.3309">
        <ele>68</ele>
        <time>2021-03-20T13:21:02.000Z</time>
      </trkpt>
      <trkpt lat="47.32732" lon="-1.33082">
        <ele>67</ele>
        <time>2021-03-20T13:21:03.000Z</time>
      </trkpt>
      <trkpt lat="47.32724" lon="-1.33073">
        <ele>67</ele>
        <time>2021-03-20T13:21:04.000Z</time>
      </trkpt>
      <trkpt lat="47.32717" lon="-1.33064">
        <ele>66</ele>
        <time>2021-03-20T13:21:05.000Z</time>
      </trkpt>
      <trkpt lat="47.32709" lon="-1.33057">
        <ele>66</ele>
        <time>2021-03-20T13:21:06.000Z</time>
      </trkpt>
      <trkpt lat="47.32701" lon="-1.3305">
        <ele>65</ele>
        <time>2021-03-20T13:21:07.000Z</time>
      </trkpt>
      <trkpt lat="47.32692" lon="-1.33043">
        <ele>65</ele>
        <time>2021-03-20T13:21:08.000Z</time>
      </trkpt>
      <trkpt lat="47.32683" lon="-1.33035">
        <ele>64</ele>
        <time>2021-03-20T13:21:09.000Z</time>
      </trkpt>
      <trkpt lat="47.32675" lon="-1.33028">
        <ele>63</ele>
        <time>2021-03-20T13:21:10.000Z</time>
      </trkpt>
      <trkpt lat="47.32667" lon="-1.33019">
        <ele>62</ele>
        <time>2021-03-20T13:21:11.000Z</time>
      </trkpt>
      <trkpt lat="47.3266" lon="-1.33009">
        <ele>62</ele>
        <time>2021-03-20T13:21:12.000Z</time>
      </trkpt>
      <trkpt lat="47.32652" lon="-1.33001">
        <ele>62</ele>
        <time>2021-03-20T13:21:13.000Z</time>
      </trkpt>
      <trkpt lat="47.32644" lon="-1.32992">
        <ele>61</ele>
        <time>2021-03-20T13:21:14.000Z</time>
      </trkpt>
      <trkpt lat="47.3263" lon="-1.32976">
        <ele>61</ele>
        <time>2021-03-20T13:21:16.000Z</time>
      </trkpt>
      <trkpt lat="47.32623" lon="-1.32967">
        <ele>62</ele>
        <time>2021-03-20T13:21:17.000Z</time>
      </trkpt>
      <trkpt lat="47.32614" lon="-1.32956">
        <ele>62</ele>
        <time>2021-03-20T13:21:19.000Z</time>
      </trkpt>
      <trkpt lat="47.32605" lon="-1.32963">
        <ele>59</ele>
        <time>2021-03-20T13:21:22.000Z</time>
      </trkpt>
      <trkpt lat="47.32599" lon="-1.32975">
        <ele>58</ele>
        <time>2021-03-20T13:21:24.000Z</time>
      </trkpt>
      <trkpt lat="47.3259" lon="-1.32986">
        <ele>58</ele>
        <time>2021-03-20T13:21:26.000Z</time>
      </trkpt>
      <trkpt lat="47.32582" lon="-1.32996">
        <ele>58</ele>
        <time>2021-03-20T13:21:28.000Z</time>
      </trkpt>
      <trkpt lat="47.32574" lon="-1.33006">
        <ele>59</ele>
        <time>2021-03-20T13:21:30.000Z</time>
      </trkpt>
      <trkpt lat="47.32565" lon="-1.33016">
        <ele>58</ele>
        <time>2021-03-20T13:21:32.000Z</time>
      </trkpt>
      <trkpt lat="47.32555" lon="-1.33027">
        <ele>58</ele>
        <time>2021-03-20T13:21:34.000Z</time>
      </trkpt>
      <trkpt lat="47.32545" lon="-1.33037">
        <ele>57</ele>
        <time>2021-03-20T13:21:36.000Z</time>
      </trkpt>
      <trkpt lat="47.32533" lon="-1.33046">
        <ele>56</ele>
        <time>2021-03-20T13:21:38.000Z</time>
      </trkpt>
      <trkpt lat="47.32522" lon="-1.33058">
        <ele>55</ele>
        <time>2021-03-20T13:21:40.000Z</time>
      </trkpt>
      <trkpt lat="47.3251" lon="-1.3307">
        <ele>55</ele>
        <time>2021-03-20T13:21:42.000Z</time>
      </trkpt>
      <trkpt lat="47.325" lon="-1.33083">
        <ele>55</ele>
        <time>2021-03-20T13:21:44.000Z</time>
      </trkpt>
      <trkpt lat="47.32489" lon="-1.33094">
        <ele>55</ele>
        <time>2021-03-20T13:21:46.000Z</time>
      </trkpt>
      <trkpt lat="47.32479" lon="-1.33106">
        <ele>55</ele>
        <time>2021-03-20T13:21:48.000Z</time>
      </trkpt>
      <trkpt lat="47.32469" lon="-1.33117">
        <ele>55</ele>
        <time>2021-03-20T13:21:50.000Z</time>
      </trkpt>
      <trkpt lat="47.3246" lon="-1.33129">
        <ele>54</ele>
        <time>2021-03-20T13:21:52.000Z</time>
      </trkpt>
      <trkpt lat="47.32451" lon="-1.33141">
        <ele>54</ele>
        <time>2021-03-20T13:21:54.000Z</time>
      </trkpt>
      <trkpt lat="47.3244" lon="-1.33149">
        <ele>54</ele>
        <time>2021-03-20T13:21:57.000Z</time>
      </trkpt>
      <trkpt lat="47.32429" lon="-1.33148">
        <ele>54</ele>
        <time>2021-03-20T13:21:59.000Z</time>
      </trkpt>
      <trkpt lat="47.32419" lon="-1.33156">
        <ele>54</ele>
        <time>2021-03-20T13:22:02.000Z</time>
      </trkpt>
      <trkpt lat="47.3241" lon="-1.3317">
        <ele>53</ele>
        <time>2021-03-20T13:22:04.000Z</time>
      </trkpt>
      <trkpt lat="47.32401" lon="-1.33182">
        <ele>53</ele>
        <time>2021-03-20T13:22:06.000Z</time>
      </trkpt>
      <trkpt lat="47.32391" lon="-1.33196">
        <ele>54</ele>
        <time>2021-03-20T13:22:08.000Z</time>
      </trkpt>
      <trkpt lat="47.32382" lon="-1.33209">
        <ele>53</ele>
        <time>2021-03-20T13:22:10.000Z</time>
      </trkpt>
      <trkpt lat="47.32374" lon="-1.33223">
        <ele>53</ele>
        <time>2021-03-20T13:22:12.000Z</time>
      </trkpt>
      <trkpt lat="47.32367" lon="-1.33237">
        <ele>54</ele>
        <time>2021-03-20T13:22:14.000Z</time>
      </trkpt>
      <trkpt lat="47.3236" lon="-1.33251">
        <ele>54</ele>
        <time>2021-03-20T13:22:16.000Z</time>
      </trkpt>
      <trkpt lat="47.32352" lon="-1.33267">
        <ele>54</ele>
        <time>2021-03-20T13:22:18.000Z</time>
      </trkpt>
      <trkpt lat="47.32345" lon="-1.33282">
        <ele>55</ele>
        <time>2021-03-20T13:22:20.000Z</time>
      </trkpt>
      <trkpt lat="47.32338" lon="-1.33298">
        <ele>55</ele>
        <time>2021-03-20T13:22:22.000Z</time>
      </trkpt>
      <trkpt lat="47.32331" lon="-1.33314">
        <ele>54</ele>
        <time>2021-03-20T13:22:24.000Z</time>
      </trkpt>
      <trkpt lat="47.32324" lon="-1.3333">
        <ele>54</ele>
        <time>2021-03-20T13:22:26.000Z</time>
      </trkpt>
      <trkpt lat="47.32317" lon="-1.33346">
        <ele>54</ele>
        <time>2021-03-20T13:22:28.000Z</time>
      </trkpt>
      <trkpt lat="47.3231" lon="-1.33363">
        <ele>55</ele>
        <time>2021-03-20T13:22:30.000Z</time>
      </trkpt>
      <trkpt lat="47.32302" lon="-1.33379">
        <ele>55</ele>
        <time>2021-03-20T13:22:32.000Z</time>
      </trkpt>
      <trkpt lat="47.32294" lon="-1.33394">
        <ele>55</ele>
        <time>2021-03-20T13:22:34.000Z</time>
      </trkpt>
      <trkpt lat="47.32288" lon="-1.33409">
        <ele>55</ele>
        <time>2021-03-20T13:22:36.000Z</time>
      </trkpt>
      <trkpt lat="47.3228" lon="-1.33425">
        <ele>55</ele>
        <time>2021-03-20T13:22:38.000Z</time>
      </trkpt>
      <trkpt lat="47.32273" lon="-1.33442">
        <ele>55</ele>
        <time>2021-03-20T13:22:40.000Z</time>
      </trkpt>
      <trkpt lat="47.32266" lon="-1.33458">
        <ele>56</ele>
        <time>2021-03-20T13:22:42.000Z</time>
      </trkpt>
      <trkpt lat="47.32259" lon="-1.33474">
        <ele>56</ele>
        <time>2021-03-20T13:22:44.000Z</time>
      </trkpt>
      <trkpt lat="47.32252" lon="-1.33491">
        <ele>55</ele>
        <time>2021-03-20T13:22:46.000Z</time>
      </trkpt>
      <trkpt lat="47.32245" lon="-1.33508">
        <ele>55</ele>
        <time>2021-03-20T13:22:48.000Z</time>
      </trkpt>
      <trkpt lat="47.32238" lon="-1.33524">
        <ele>55</ele>
        <time>2021-03-20T13:22:50.000Z</time>
      </trkpt>
      <trkpt lat="47.32229" lon="-1.33539">
        <ele>55</ele>
        <time>2021-03-20T13:22:52.000Z</time>
      </trkpt>
      <trkpt lat="47.32221" lon="-1.33552">
        <ele>56</ele>
        <time>2021-03-20T13:22:54.000Z</time>
      </trkpt>
      <trkpt lat="47.32215" lon="-1.33566">
        <ele>56</ele>
        <time>2021-03-20T13:22:56.000Z</time>
      </trkpt>
      <trkpt lat="47.32208" lon="-1.3358">
        <ele>56</ele>
        <time>2021-03-20T13:22:58.000Z</time>
      </trkpt>
      <trkpt lat="47.32202" lon="-1.33595">
        <ele>57</ele>
        <time>2021-03-20T13:23:00.000Z</time>
      </trkpt>
      <trkpt lat="47.32196" lon="-1.3361">
        <ele>57</ele>
        <time>2021-03-20T13:23:02.000Z</time>
      </trkpt>
      <trkpt lat="47.3219" lon="-1.33625">
        <ele>57</ele>
        <time>2021-03-20T13:23:04.000Z</time>
      </trkpt>
      <trkpt lat="47.32184" lon="-1.33638">
        <ele>57</ele>
        <time>2021-03-20T13:23:06.000Z</time>
      </trkpt>
      <trkpt lat="47.32179" lon="-1.33654">
        <ele>57</ele>
        <time>2021-03-20T13:23:09.000Z</time>
      </trkpt>
      <trkpt lat="47.32173" lon="-1.33668">
        <ele>57</ele>
        <time>2021-03-20T13:23:11.000Z</time>
      </trkpt>
      <trkpt lat="47.32168" lon="-1.33684">
        <ele>58</ele>
        <time>2021-03-20T13:23:13.000Z</time>
      </trkpt>
      <trkpt lat="47.32162" lon="-1.33701">
        <ele>57</ele>
        <time>2021-03-20T13:23:15.000Z</time>
      </trkpt>
      <trkpt lat="47.32156" lon="-1.33717">
        <ele>57</ele>
        <time>2021-03-20T13:23:17.000Z</time>
      </trkpt>
      <trkpt lat="47.32149" lon="-1.33733">
        <ele>57</ele>
        <time>2021-03-20T13:23:19.000Z</time>
      </trkpt>
      <trkpt lat="47.32142" lon="-1.33749">
        <ele>56</ele>
        <time>2021-03-20T13:23:21.000Z</time>
      </trkpt>
      <trkpt lat="47.32135" lon="-1.33765">
        <ele>56</ele>
        <time>2021-03-20T13:23:23.000Z</time>
      </trkpt>
      <trkpt lat="47.32129" lon="-1.3378">
        <ele>57</ele>
        <time>2021-03-20T13:23:25.000Z</time>
      </trkpt>
      <trkpt lat="47.32123" lon="-1.33796">
        <ele>56</ele>
        <time>2021-03-20T13:23:27.000Z</time>
      </trkpt>
      <trkpt lat="47.32116" lon="-1.33811">
        <ele>57</ele>
        <time>2021-03-20T13:23:29.000Z</time>
      </trkpt>
      <trkpt lat="47.32109" lon="-1.33826">
        <ele>57</ele>
        <time>2021-03-20T13:23:31.000Z</time>
      </trkpt>
      <trkpt lat="47.32101" lon="-1.33841">
        <ele>56</ele>
        <time>2021-03-20T13:23:33.000Z</time>
      </trkpt>
      <trkpt lat="47.32094" lon="-1.33856">
        <ele>57</ele>
        <time>2021-03-20T13:23:35.000Z</time>
      </trkpt>
      <trkpt lat="47.32087" lon="-1.3387">
        <ele>57</ele>
        <time>2021-03-20T13:23:37.000Z</time>
      </trkpt>
      <trkpt lat="47.3208" lon="-1.33884">
        <ele>56</ele>
        <time>2021-03-20T13:23:39.000Z</time>
      </trkpt>
      <trkpt lat="47.32073" lon="-1.33897">
        <ele>56</ele>
        <time>2021-03-20T13:23:41.000Z</time>
      </trkpt>
      <trkpt lat="47.32065" lon="-1.33911">
        <ele>56</ele>
        <time>2021-03-20T13:23:43.000Z</time>
      </trkpt>
      <trkpt lat="47.32055" lon="-1.33927">
        <ele>56</ele>
        <time>2021-03-20T13:23:45.000Z</time>
      </trkpt>
      <trkpt lat="47.32044" lon="-1.33945">
        <ele>56</ele>
        <time>2021-03-20T13:23:47.000Z</time>
      </trkpt>
      <trkpt lat="47.32036" lon="-1.33961">
        <ele>57</ele>
        <time>2021-03-20T13:23:49.000Z</time>
      </trkpt>
      <trkpt lat="47.32028" lon="-1.33976">
        <ele>57</ele>
        <time>2021-03-20T13:23:51.000Z</time>
      </trkpt>
      <trkpt lat="47.32019" lon="-1.33991">
        <ele>57</ele>
        <time>2021-03-20T13:23:53.000Z</time>
      </trkpt>
      <trkpt lat="47.32008" lon="-1.34006">
        <ele>56</ele>
        <time>2021-03-20T13:23:55.000Z</time>
      </trkpt>
      <trkpt lat="47.31999" lon="-1.34022">
        <ele>56</ele>
        <time>2021-03-20T13:23:57.000Z</time>
      </trkpt>
      <trkpt lat="47.31989" lon="-1.34037">
        <ele>57</ele>
        <time>2021-03-20T13:23:59.000Z</time>
      </trkpt>
      <trkpt lat="47.3198" lon="-1.34052">
        <ele>57</ele>
        <time>2021-03-20T13:24:01.000Z</time>
      </trkpt>
      <trkpt lat="47.3197" lon="-1.34066">
        <ele>57</ele>
        <time>2021-03-20T13:24:03.000Z</time>
      </trkpt>
      <trkpt lat="47.31961" lon="-1.34082">
        <ele>57</ele>
        <time>2021-03-20T13:24:05.000Z</time>
      </trkpt>
      <trkpt lat="47.31952" lon="-1.34097">
        <ele>57</ele>
        <time>2021-03-20T13:24:07.000Z</time>
      </trkpt>
      <trkpt lat="47.31942" lon="-1.34112">
        <ele>57</ele>
        <time>2021-03-20T13:24:09.000Z</time>
      </trkpt>
      <trkpt lat="47.31933" lon="-1.34126">
        <ele>57</ele>
        <time>2021-03-20T13:24:11.000Z</time>
      </trkpt>
      <trkpt lat="47.31924" lon="-1.34139">
        <ele>57</ele>
        <time>2021-03-20T13:24:13.000Z</time>
      </trkpt>
      <trkpt lat="47.31914" lon="-1.34152">
        <ele>57</ele>
        <time>2021-03-20T13:24:15.000Z</time>
      </trkpt>
      <trkpt lat="47.31905" lon="-1.34166">
        <ele>57</ele>
        <time>2021-03-20T13:24:17.000Z</time>
      </trkpt>
      <trkpt lat="47.31896" lon="-1.34179">
        <ele>57</ele>
        <time>2021-03-20T13:24:19.000Z</time>
      </trkpt>
      <trkpt lat="47.31886" lon="-1.34193">
        <ele>57</ele>
        <time>2021-03-20T13:24:21.000Z</time>
      </trkpt>
      <trkpt lat="47.31876" lon="-1.34207">
        <ele>56</ele>
        <time>2021-03-20T13:24:23.000Z</time>
      </trkpt>
      <trkpt lat="47.31866" lon="-1.34223">
        <ele>56</ele>
        <time>2021-03-20T13:24:25.000Z</time>
      </trkpt>
      <trkpt lat="47.31856" lon="-1.34239">
        <ele>56</ele>
        <time>2021-03-20T13:24:27.000Z</time>
      </trkpt>
      <trkpt lat="47.31846" lon="-1.34255">
        <ele>56</ele>
        <time>2021-03-20T13:24:29.000Z</time>
      </trkpt>
      <trkpt lat="47.31836" lon="-1.3427">
        <ele>56</ele>
        <time>2021-03-20T13:24:31.000Z</time>
      </trkpt>
      <trkpt lat="47.31826" lon="-1.34286">
        <ele>55</ele>
        <time>2021-03-20T13:24:33.000Z</time>
      </trkpt>
      <trkpt lat="47.31816" lon="-1.34302">
        <ele>55</ele>
        <time>2021-03-20T13:24:35.000Z</time>
      </trkpt>
      <trkpt lat="47.31806" lon="-1.34318">
        <ele>55</ele>
        <time>2021-03-20T13:24:37.000Z</time>
      </trkpt>
      <trkpt lat="47.31796" lon="-1.34333">
        <ele>55</ele>
        <time>2021-03-20T13:24:39.000Z</time>
      </trkpt>
      <trkpt lat="47.31787" lon="-1.34349">
        <ele>55</ele>
        <time>2021-03-20T13:24:41.000Z</time>
      </trkpt>
      <trkpt lat="47.31777" lon="-1.34363">
        <ele>55</ele>
        <time>2021-03-20T13:24:43.000Z</time>
      </trkpt>
      <trkpt lat="47.31768" lon="-1.34379">
        <ele>55</ele>
        <time>2021-03-20T13:24:45.000Z</time>
      </trkpt>
      <trkpt lat="47.31759" lon="-1.34393">
        <ele>55</ele>
        <time>2021-03-20T13:24:47.000Z</time>
      </trkpt>
      <trkpt lat="47.31751" lon="-1.34406">
        <ele>54</ele>
        <time>2021-03-20T13:24:49.000Z</time>
      </trkpt>
      <trkpt lat="47.31742" lon="-1.34422">
        <ele>54</ele>
        <time>2021-03-20T13:24:51.000Z</time>
      </trkpt>
      <trkpt lat="47.31733" lon="-1.34437">
        <ele>53</ele>
        <time>2021-03-20T13:24:53.000Z</time>
      </trkpt>
      <trkpt lat="47.31723" lon="-1.34451">
        <ele>54</ele>
        <time>2021-03-20T13:24:55.000Z</time>
      </trkpt>
      <trkpt lat="47.31714" lon="-1.34466">
        <ele>54</ele>
        <time>2021-03-20T13:24:57.000Z</time>
      </trkpt>
      <trkpt lat="47.31704" lon="-1.34482">
        <ele>54</ele>
        <time>2021-03-20T13:24:59.000Z</time>
      </trkpt>
      <trkpt lat="47.31695" lon="-1.34496">
        <ele>54</ele>
        <time>2021-03-20T13:25:01.000Z</time>
      </trkpt>
      <trkpt lat="47.31685" lon="-1.34512">
        <ele>53</ele>
        <time>2021-03-20T13:25:03.000Z</time>
      </trkpt>
      <trkpt lat="47.31675" lon="-1.34526">
        <ele>53</ele>
        <time>2021-03-20T13:25:05.000Z</time>
      </trkpt>
      <trkpt lat="47.31666" lon="-1.3454">
        <ele>53</ele>
        <time>2021-03-20T13:25:07.000Z</time>
      </trkpt>
      <trkpt lat="47.31657" lon="-1.34554">
        <ele>54</ele>
        <time>2021-03-20T13:25:09.000Z</time>
      </trkpt>
      <trkpt lat="47.31648" lon="-1.34569">
        <ele>53</ele>
        <time>2021-03-20T13:25:11.000Z</time>
      </trkpt>
      <trkpt lat="47.31641" lon="-1.34583">
        <ele>53</ele>
        <time>2021-03-20T13:25:13.000Z</time>
      </trkpt>
      <trkpt lat="47.31632" lon="-1.34596">
        <ele>53</ele>
        <time>2021-03-20T13:25:15.000Z</time>
      </trkpt>
      <trkpt lat="47.31624" lon="-1.3461">
        <ele>53</ele>
        <time>2021-03-20T13:25:17.000Z</time>
      </trkpt>
      <trkpt lat="47.31614" lon="-1.34625">
        <ele>53</ele>
        <time>2021-03-20T13:25:19.000Z</time>
      </trkpt>
      <trkpt lat="47.31605" lon="-1.34639">
        <ele>54</ele>
        <time>2021-03-20T13:25:21.000Z</time>
      </trkpt>
      <trkpt lat="47.31596" lon="-1.34654">
        <ele>54</ele>
        <time>2021-03-20T13:25:23.000Z</time>
      </trkpt>
      <trkpt lat="47.31587" lon="-1.34668">
        <ele>54</ele>
        <time>2021-03-20T13:25:25.000Z</time>
      </trkpt>
      <trkpt lat="47.31578" lon="-1.34683">
        <ele>54</ele>
        <time>2021-03-20T13:25:27.000Z</time>
      </trkpt>
      <trkpt lat="47.31569" lon="-1.34697">
        <ele>54</ele>
        <time>2021-03-20T13:25:29.000Z</time>
      </trkpt>
      <trkpt lat="47.3156" lon="-1.34711">
        <ele>54</ele>
        <time>2021-03-20T13:25:31.000Z</time>
      </trkpt>
      <trkpt lat="47.31551" lon="-1.34726">
        <ele>54</ele>
        <time>2021-03-20T13:25:33.000Z</time>
      </trkpt>
      <trkpt lat="47.31542" lon="-1.3474">
        <ele>54</ele>
        <time>2021-03-20T13:25:35.000Z</time>
      </trkpt>
      <trkpt lat="47.31533" lon="-1.34754">
        <ele>54</ele>
        <time>2021-03-20T13:25:37.000Z</time>
      </trkpt>
      <trkpt lat="47.31524" lon="-1.34768">
        <ele>54</ele>
        <time>2021-03-20T13:25:39.000Z</time>
      </trkpt>
      <trkpt lat="47.31514" lon="-1.34782">
        <ele>54</ele>
        <time>2021-03-20T13:25:41.000Z</time>
      </trkpt>
      <trkpt lat="47.31505" lon="-1.34797">
        <ele>55</ele>
        <time>2021-03-20T13:25:43.000Z</time>
      </trkpt>
      <trkpt lat="47.31496" lon="-1.34811">
        <ele>54</ele>
        <time>2021-03-20T13:25:45.000Z</time>
      </trkpt>
      <trkpt lat="47.31488" lon="-1.34826">
        <ele>55</ele>
        <time>2021-03-20T13:25:47.000Z</time>
      </trkpt>
      <trkpt lat="47.31478" lon="-1.3484">
        <ele>55</ele>
        <time>2021-03-20T13:25:49.000Z</time>
      </trkpt>
      <trkpt lat="47.31469" lon="-1.34855">
        <ele>55</ele>
        <time>2021-03-20T13:25:51.000Z</time>
      </trkpt>
      <trkpt lat="47.31459" lon="-1.34869">
        <ele>55</ele>
        <time>2021-03-20T13:25:53.000Z</time>
      </trkpt>
      <trkpt lat="47.3145" lon="-1.34884">
        <ele>55</ele>
        <time>2021-03-20T13:25:55.000Z</time>
      </trkpt>
      <trkpt lat="47.31441" lon="-1.349">
        <ele>55</ele>
        <time>2021-03-20T13:25:57.000Z</time>
      </trkpt>
      <trkpt lat="47.31432" lon="-1.34915">
        <ele>55</ele>
        <time>2021-03-20T13:25:59.000Z</time>
      </trkpt>
      <trkpt lat="47.31422" lon="-1.3493">
        <ele>55</ele>
        <time>2021-03-20T13:26:01.000Z</time>
      </trkpt>
      <trkpt lat="47.31412" lon="-1.34945">
        <ele>55</ele>
        <time>2021-03-20T13:26:03.000Z</time>
      </trkpt>
      <trkpt lat="47.31404" lon="-1.34959">
        <ele>54</ele>
        <time>2021-03-20T13:26:05.000Z</time>
      </trkpt>
      <trkpt lat="47.31395" lon="-1.34973">
        <ele>54</ele>
        <time>2021-03-20T13:26:07.000Z</time>
      </trkpt>
      <trkpt lat="47.31387" lon="-1.34985">
        <ele>54</ele>
        <time>2021-03-20T13:26:09.000Z</time>
      </trkpt>
      <trkpt lat="47.31381" lon="-1.34998">
        <ele>54</ele>
        <time>2021-03-20T13:26:11.000Z</time>
      </trkpt>
      <trkpt lat="47.31373" lon="-1.35012">
        <ele>54</ele>
        <time>2021-03-20T13:26:13.000Z</time>
      </trkpt>
      <trkpt lat="47.31363" lon="-1.35027">
        <ele>54</ele>
        <time>2021-03-20T13:26:15.000Z</time>
      </trkpt>
      <trkpt lat="47.31353" lon="-1.35041">
        <ele>55</ele>
        <time>2021-03-20T13:26:17.000Z</time>
      </trkpt>
      <trkpt lat="47.31345" lon="-1.35055">
        <ele>55</ele>
        <time>2021-03-20T13:26:19.000Z</time>
      </trkpt>
      <trkpt lat="47.31336" lon="-1.35069">
        <ele>55</ele>
        <time>2021-03-20T13:26:21.000Z</time>
      </trkpt>
      <trkpt lat="47.31328" lon="-1.35082">
        <ele>55</ele>
        <time>2021-03-20T13:26:23.000Z</time>
      </trkpt>
      <trkpt lat="47.31318" lon="-1.35091">
        <ele>55</ele>
        <time>2021-03-20T13:26:25.000Z</time>
      </trkpt>
      <trkpt lat="47.31307" lon="-1.351">
        <ele>55</ele>
        <time>2021-03-20T13:26:27.000Z</time>
      </trkpt>
      <trkpt lat="47.31297" lon="-1.35111">
        <ele>56</ele>
        <time>2021-03-20T13:26:29.000Z</time>
      </trkpt>
      <trkpt lat="47.3129" lon="-1.35123">
        <ele>56</ele>
        <time>2021-03-20T13:26:31.000Z</time>
      </trkpt>
      <trkpt lat="47.31284" lon="-1.35138">
        <ele>57</ele>
        <time>2021-03-20T13:26:33.000Z</time>
      </trkpt>
      <trkpt lat="47.31277" lon="-1.35155">
        <ele>57</ele>
        <time>2021-03-20T13:26:35.000Z</time>
      </trkpt>
      <trkpt lat="47.31268" lon="-1.3517">
        <ele>57</ele>
        <time>2021-03-20T13:26:37.000Z</time>
      </trkpt>
      <trkpt lat="47.31258" lon="-1.35186">
        <ele>57</ele>
        <time>2021-03-20T13:26:39.000Z</time>
      </trkpt>
      <trkpt lat="47.31248" lon="-1.35202">
        <ele>56</ele>
        <time>2021-03-20T13:26:41.000Z</time>
      </trkpt>
      <trkpt lat="47.31238" lon="-1.35217">
        <ele>56</ele>
        <time>2021-03-20T13:26:43.000Z</time>
      </trkpt>
      <trkpt lat="47.31228" lon="-1.35232">
        <ele>55</ele>
        <time>2021-03-20T13:26:45.000Z</time>
      </trkpt>
      <trkpt lat="47.31219" lon="-1.35248">
        <ele>55</ele>
        <time>2021-03-20T13:26:47.000Z</time>
      </trkpt>
      <trkpt lat="47.3121" lon="-1.35263">
        <ele>55</ele>
        <time>2021-03-20T13:26:49.000Z</time>
      </trkpt>
      <trkpt lat="47.312" lon="-1.35278">
        <ele>56</ele>
        <time>2021-03-20T13:26:51.000Z</time>
      </trkpt>
      <trkpt lat="47.31191" lon="-1.35294">
        <ele>55</ele>
        <time>2021-03-20T13:26:53.000Z</time>
      </trkpt>
      <trkpt lat="47.31181" lon="-1.35309">
        <ele>55</ele>
        <time>2021-03-20T13:26:55.000Z</time>
      </trkpt>
      <trkpt lat="47.31172" lon="-1.35324">
        <ele>55</ele>
        <time>2021-03-20T13:26:57.000Z</time>
      </trkpt>
      <trkpt lat="47.31162" lon="-1.35339">
        <ele>54</ele>
        <time>2021-03-20T13:26:59.000Z</time>
      </trkpt>
      <trkpt lat="47.31153" lon="-1.35355">
        <ele>54</ele>
        <time>2021-03-20T13:27:01.000Z</time>
      </trkpt>
      <trkpt lat="47.31144" lon="-1.3537">
        <ele>54</ele>
        <time>2021-03-20T13:27:03.000Z</time>
      </trkpt>
      <trkpt lat="47.31133" lon="-1.35385">
        <ele>54</ele>
        <time>2021-03-20T13:27:05.000Z</time>
      </trkpt>
      <trkpt lat="47.31123" lon="-1.354">
        <ele>54</ele>
        <time>2021-03-20T13:27:07.000Z</time>
      </trkpt>
      <trkpt lat="47.31113" lon="-1.35414">
        <ele>54</ele>
        <time>2021-03-20T13:27:09.000Z</time>
      </trkpt>
      <trkpt lat="47.31103" lon="-1.35429">
        <ele>54</ele>
        <time>2021-03-20T13:27:11.000Z</time>
      </trkpt>
      <trkpt lat="47.31093" lon="-1.35443">
        <ele>54</ele>
        <time>2021-03-20T13:27:13.000Z</time>
      </trkpt>
      <trkpt lat="47.31083" lon="-1.35457">
        <ele>55</ele>
        <time>2021-03-20T13:27:15.000Z</time>
      </trkpt>
      <trkpt lat="47.31072" lon="-1.35471">
        <ele>54</ele>
        <time>2021-03-20T13:27:17.000Z</time>
      </trkpt>
      <trkpt lat="47.31062" lon="-1.35484">
        <ele>54</ele>
        <time>2021-03-20T13:27:19.000Z</time>
      </trkpt>
      <trkpt lat="47.31051" lon="-1.35498">
        <ele>54</ele>
        <time>2021-03-20T13:27:21.000Z</time>
      </trkpt>
      <trkpt lat="47.31039" lon="-1.35511">
        <ele>54</ele>
        <time>2021-03-20T13:27:23.000Z</time>
      </trkpt>
      <trkpt lat="47.31028" lon="-1.35524">
        <ele>54</ele>
        <time>2021-03-20T13:27:25.000Z</time>
      </trkpt>
      <trkpt lat="47.31017" lon="-1.35537">
        <ele>54</ele>
        <time>2021-03-20T13:27:27.000Z</time>
      </trkpt>
      <trkpt lat="47.31006" lon="-1.3555">
        <ele>53</ele>
        <time>2021-03-20T13:27:29.000Z</time>
      </trkpt>
      <trkpt lat="47.30994" lon="-1.35563">
        <ele>53</ele>
        <time>2021-03-20T13:27:31.000Z</time>
      </trkpt>
      <trkpt lat="47.30982" lon="-1.35576">
        <ele>53</ele>
        <time>2021-03-20T13:27:33.000Z</time>
      </trkpt>
      <trkpt lat="47.30971" lon="-1.3559">
        <ele>53</ele>
        <time>2021-03-20T13:27:35.000Z</time>
      </trkpt>
      <trkpt lat="47.30959" lon="-1.35602">
        <ele>53</ele>
        <time>2021-03-20T13:27:37.000Z</time>
      </trkpt>
      <trkpt lat="47.30948" lon="-1.35616">
        <ele>53</ele>
        <time>2021-03-20T13:27:39.000Z</time>
      </trkpt>
      <trkpt lat="47.30937" lon="-1.35629">
        <ele>53</ele>
        <time>2021-03-20T13:27:41.000Z</time>
      </trkpt>
      <trkpt lat="47.30926" lon="-1.35642">
        <ele>53</ele>
        <time>2021-03-20T13:27:43.000Z</time>
      </trkpt>
      <trkpt lat="47.30914" lon="-1.35655">
        <ele>53</ele>
        <time>2021-03-20T13:27:45.000Z</time>
      </trkpt>
      <trkpt lat="47.30904" lon="-1.35669">
        <ele>53</ele>
        <time>2021-03-20T13:27:47.000Z</time>
      </trkpt>
      <trkpt lat="47.30892" lon="-1.35682">
        <ele>53</ele>
        <time>2021-03-20T13:27:49.000Z</time>
      </trkpt>
      <trkpt lat="47.30875" lon="-1.35702">
        <ele>53</ele>
        <time>2021-03-20T13:27:52.000Z</time>
      </trkpt>
      <trkpt lat="47.30863" lon="-1.35715">
        <ele>52</ele>
        <time>2021-03-20T13:27:54.000Z</time>
      </trkpt>
      <trkpt lat="47.30846" lon="-1.35735">
        <ele>52</ele>
        <time>2021-03-20T13:27:57.000Z</time>
      </trkpt>
      <trkpt lat="47.30835" lon="-1.35748">
        <ele>52</ele>
        <time>2021-03-20T13:27:59.000Z</time>
      </trkpt>
      <trkpt lat="47.30818" lon="-1.35768">
        <ele>51</ele>
        <time>2021-03-20T13:28:02.000Z</time>
      </trkpt>
      <trkpt lat="47.30807" lon="-1.35781">
        <ele>50</ele>
        <time>2021-03-20T13:28:04.000Z</time>
      </trkpt>
      <trkpt lat="47.30796" lon="-1.35794">
        <ele>50</ele>
        <time>2021-03-20T13:28:06.000Z</time>
      </trkpt>
      <trkpt lat="47.30785" lon="-1.35808">
        <ele>50</ele>
        <time>2021-03-20T13:28:08.000Z</time>
      </trkpt>
      <trkpt lat="47.30773" lon="-1.35821">
        <ele>51</ele>
        <time>2021-03-20T13:28:10.000Z</time>
      </trkpt>
      <trkpt lat="47.30762" lon="-1.35834">
        <ele>51</ele>
        <time>2021-03-20T13:28:12.000Z</time>
      </trkpt>
      <trkpt lat="47.30751" lon="-1.35847">
        <ele>51</ele>
        <time>2021-03-20T13:28:14.000Z</time>
      </trkpt>
      <trkpt lat="47.3074" lon="-1.3586">
        <ele>52</ele>
        <time>2021-03-20T13:28:16.000Z</time>
      </trkpt>
      <trkpt lat="47.30729" lon="-1.35873">
        <ele>52</ele>
        <time>2021-03-20T13:28:18.000Z</time>
      </trkpt>
      <trkpt lat="47.30718" lon="-1.35886">
        <ele>52</ele>
        <time>2021-03-20T13:28:20.000Z</time>
      </trkpt>
      <trkpt lat="47.30707" lon="-1.35899">
        <ele>51</ele>
        <time>2021-03-20T13:28:22.000Z</time>
      </trkpt>
      <trkpt lat="47.30695" lon="-1.35913">
        <ele>51</ele>
        <time>2021-03-20T13:28:24.000Z</time>
      </trkpt>
      <trkpt lat="47.30683" lon="-1.35926">
        <ele>51</ele>
        <time>2021-03-20T13:28:26.000Z</time>
      </trkpt>
      <trkpt lat="47.30672" lon="-1.3594">
        <ele>51</ele>
        <time>2021-03-20T13:28:28.000Z</time>
      </trkpt>
      <trkpt lat="47.3066" lon="-1.35954">
        <ele>51</ele>
        <time>2021-03-20T13:28:30.000Z</time>
      </trkpt>
      <trkpt lat="47.30649" lon="-1.35967">
        <ele>51</ele>
        <time>2021-03-20T13:28:32.000Z</time>
      </trkpt>
      <trkpt lat="47.30637" lon="-1.3598">
        <ele>51</ele>
        <time>2021-03-20T13:28:34.000Z</time>
      </trkpt>
      <trkpt lat="47.30627" lon="-1.35993">
        <ele>52</ele>
        <time>2021-03-20T13:28:36.000Z</time>
      </trkpt>
      <trkpt lat="47.30616" lon="-1.36005">
        <ele>52</ele>
        <time>2021-03-20T13:28:38.000Z</time>
      </trkpt>
      <trkpt lat="47.30605" lon="-1.36016">
        <ele>52</ele>
        <time>2021-03-20T13:28:40.000Z</time>
      </trkpt>
      <trkpt lat="47.30595" lon="-1.36024">
        <ele>52</ele>
        <time>2021-03-20T13:28:42.000Z</time>
      </trkpt>
      <trkpt lat="47.30587" lon="-1.36034">
        <ele>53</ele>
        <time>2021-03-20T13:28:44.000Z</time>
      </trkpt>
      <trkpt lat="47.30577" lon="-1.36057">
        <ele>54</ele>
        <time>2021-03-20T13:28:48.000Z</time>
      </trkpt>
      <trkpt lat="47.30566" lon="-1.36071">
        <ele>54</ele>
        <time>2021-03-20T13:28:50.000Z</time>
      </trkpt>
      <trkpt lat="47.30556" lon="-1.36085">
        <ele>54</ele>
        <time>2021-03-20T13:28:52.000Z</time>
      </trkpt>
      <trkpt lat="47.30546" lon="-1.36099">
        <ele>54</ele>
        <time>2021-03-20T13:28:54.000Z</time>
      </trkpt>
      <trkpt lat="47.30536" lon="-1.36114">
        <ele>54</ele>
        <time>2021-03-20T13:28:56.000Z</time>
      </trkpt>
      <trkpt lat="47.30528" lon="-1.36129">
        <ele>54</ele>
        <time>2021-03-20T13:28:58.000Z</time>
      </trkpt>
      <trkpt lat="47.30519" lon="-1.36145">
        <ele>54</ele>
        <time>2021-03-20T13:29:00.000Z</time>
      </trkpt>
      <trkpt lat="47.3051" lon="-1.3616">
        <ele>54</ele>
        <time>2021-03-20T13:29:02.000Z</time>
      </trkpt>
      <trkpt lat="47.30498" lon="-1.36182">
        <ele>55</ele>
        <time>2021-03-20T13:29:05.000Z</time>
      </trkpt>
      <trkpt lat="47.30485" lon="-1.36204">
        <ele>55</ele>
        <time>2021-03-20T13:29:08.000Z</time>
      </trkpt>
      <trkpt lat="47.30477" lon="-1.3622">
        <ele>56</ele>
        <time>2021-03-20T13:29:10.000Z</time>
      </trkpt>
      <trkpt lat="47.30469" lon="-1.36236">
        <ele>55</ele>
        <time>2021-03-20T13:29:12.000Z</time>
      </trkpt>
      <trkpt lat="47.3046" lon="-1.36253">
        <ele>55</ele>
        <time>2021-03-20T13:29:14.000Z</time>
      </trkpt>
      <trkpt lat="47.30452" lon="-1.3627">
        <ele>55</ele>
        <time>2021-03-20T13:29:16.000Z</time>
      </trkpt>
      <trkpt lat="47.30444" lon="-1.36286">
        <ele>55</ele>
        <time>2021-03-20T13:29:18.000Z</time>
      </trkpt>
      <trkpt lat="47.30437" lon="-1.36302">
        <ele>56</ele>
        <time>2021-03-20T13:29:20.000Z</time>
      </trkpt>
      <trkpt lat="47.30429" lon="-1.36319">
        <ele>56</ele>
        <time>2021-03-20T13:29:22.000Z</time>
      </trkpt>
      <trkpt lat="47.30421" lon="-1.36335">
        <ele>56</ele>
        <time>2021-03-20T13:29:24.000Z</time>
      </trkpt>
      <trkpt lat="47.30413" lon="-1.3635">
        <ele>56</ele>
        <time>2021-03-20T13:29:26.000Z</time>
      </trkpt>
      <trkpt lat="47.30406" lon="-1.36367">
        <ele>56</ele>
        <time>2021-03-20T13:29:28.000Z</time>
      </trkpt>
      <trkpt lat="47.30395" lon="-1.36391">
        <ele>56</ele>
        <time>2021-03-20T13:29:31.000Z</time>
      </trkpt>
      <trkpt lat="47.30387" lon="-1.36406">
        <ele>56</ele>
        <time>2021-03-20T13:29:33.000Z</time>
      </trkpt>
      <trkpt lat="47.30379" lon="-1.36422">
        <ele>56</ele>
        <time>2021-03-20T13:29:35.000Z</time>
      </trkpt>
      <trkpt lat="47.30372" lon="-1.36438">
        <ele>56</ele>
        <time>2021-03-20T13:29:37.000Z</time>
      </trkpt>
      <trkpt lat="47.30364" lon="-1.36453">
        <ele>55</ele>
        <time>2021-03-20T13:29:39.000Z</time>
      </trkpt>
      <trkpt lat="47.30357" lon="-1.36469">
        <ele>55</ele>
        <time>2021-03-20T13:29:41.000Z</time>
      </trkpt>
      <trkpt lat="47.30349" lon="-1.36485">
        <ele>55</ele>
        <time>2021-03-20T13:29:43.000Z</time>
      </trkpt>
      <trkpt lat="47.30342" lon="-1.36501">
        <ele>55</ele>
        <time>2021-03-20T13:29:45.000Z</time>
      </trkpt>
      <trkpt lat="47.30334" lon="-1.36517">
        <ele>56</ele>
        <time>2021-03-20T13:29:47.000Z</time>
      </trkpt>
      <trkpt lat="47.30326" lon="-1.36534">
        <ele>56</ele>
        <time>2021-03-20T13:29:49.000Z</time>
      </trkpt>
      <trkpt lat="47.3032" lon="-1.3655">
        <ele>56</ele>
        <time>2021-03-20T13:29:51.000Z</time>
      </trkpt>
      <trkpt lat="47.30312" lon="-1.36566">
        <ele>55</ele>
        <time>2021-03-20T13:29:53.000Z</time>
      </trkpt>
      <trkpt lat="47.30305" lon="-1.36582">
        <ele>55</ele>
        <time>2021-03-20T13:29:55.000Z</time>
      </trkpt>
      <trkpt lat="47.30297" lon="-1.36599">
        <ele>56</ele>
        <time>2021-03-20T13:29:57.000Z</time>
      </trkpt>
      <trkpt lat="47.30288" lon="-1.36615">
        <ele>56</ele>
        <time>2021-03-20T13:29:59.000Z</time>
      </trkpt>
      <trkpt lat="47.3028" lon="-1.36631">
        <ele>55</ele>
        <time>2021-03-20T13:30:01.000Z</time>
      </trkpt>
      <trkpt lat="47.30271" lon="-1.36647">
        <ele>56</ele>
        <time>2021-03-20T13:30:03.000Z</time>
      </trkpt>
      <trkpt lat="47.30263" lon="-1.36663">
        <ele>55</ele>
        <time>2021-03-20T13:30:05.000Z</time>
      </trkpt>
      <trkpt lat="47.30256" lon="-1.36679">
        <ele>55</ele>
        <time>2021-03-20T13:30:07.000Z</time>
      </trkpt>
      <trkpt lat="47.30248" lon="-1.36695">
        <ele>55</ele>
        <time>2021-03-20T13:30:09.000Z</time>
      </trkpt>
      <trkpt lat="47.30236" lon="-1.36719">
        <ele>55</ele>
        <time>2021-03-20T13:30:12.000Z</time>
      </trkpt>
      <trkpt lat="47.30228" lon="-1.36735">
        <ele>56</ele>
        <time>2021-03-20T13:30:14.000Z</time>
      </trkpt>
      <trkpt lat="47.30221" lon="-1.3675">
        <ele>55</ele>
        <time>2021-03-20T13:30:16.000Z</time>
      </trkpt>
      <trkpt lat="47.30213" lon="-1.36766">
        <ele>55</ele>
        <time>2021-03-20T13:30:18.000Z</time>
      </trkpt>
      <trkpt lat="47.30206" lon="-1.36783">
        <ele>55</ele>
        <time>2021-03-20T13:30:20.000Z</time>
      </trkpt>
      <trkpt lat="47.30199" lon="-1.36798">
        <ele>55</ele>
        <time>2021-03-20T13:30:22.000Z</time>
      </trkpt>
      <trkpt lat="47.30192" lon="-1.36814">
        <ele>55</ele>
        <time>2021-03-20T13:30:24.000Z</time>
      </trkpt>
      <trkpt lat="47.30185" lon="-1.36829">
        <ele>56</ele>
        <time>2021-03-20T13:30:26.000Z</time>
      </trkpt>
      <trkpt lat="47.30177" lon="-1.36844">
        <ele>56</ele>
        <time>2021-03-20T13:30:28.000Z</time>
      </trkpt>
      <trkpt lat="47.30169" lon="-1.36859">
        <ele>56</ele>
        <time>2021-03-20T13:30:30.000Z</time>
      </trkpt>
      <trkpt lat="47.30161" lon="-1.36874">
        <ele>56</ele>
        <time>2021-03-20T13:30:32.000Z</time>
      </trkpt>
      <trkpt lat="47.30153" lon="-1.3689">
        <ele>56</ele>
        <time>2021-03-20T13:30:34.000Z</time>
      </trkpt>
      <trkpt lat="47.30144" lon="-1.36905">
        <ele>55</ele>
        <time>2021-03-20T13:30:36.000Z</time>
      </trkpt>
      <trkpt lat="47.30137" lon="-1.36921">
        <ele>55</ele>
        <time>2021-03-20T13:30:38.000Z</time>
      </trkpt>
      <trkpt lat="47.30129" lon="-1.36937">
        <ele>55</ele>
        <time>2021-03-20T13:30:40.000Z</time>
      </trkpt>
      <trkpt lat="47.30122" lon="-1.36953">
        <ele>55</ele>
        <time>2021-03-20T13:30:42.000Z</time>
      </trkpt>
      <trkpt lat="47.30117" lon="-1.36971">
        <ele>54</ele>
        <time>2021-03-20T13:30:44.000Z</time>
      </trkpt>
      <trkpt lat="47.3011" lon="-1.36986">
        <ele>54</ele>
        <time>2021-03-20T13:30:46.000Z</time>
      </trkpt>
      <trkpt lat="47.30103" lon="-1.37002">
        <ele>54</ele>
        <time>2021-03-20T13:30:48.000Z</time>
      </trkpt>
      <trkpt lat="47.30095" lon="-1.37016">
        <ele>54</ele>
        <time>2021-03-20T13:30:50.000Z</time>
      </trkpt>
      <trkpt lat="47.30087" lon="-1.37031">
        <ele>54</ele>
        <time>2021-03-20T13:30:52.000Z</time>
      </trkpt>
      <trkpt lat="47.30079" lon="-1.37046">
        <ele>55</ele>
        <time>2021-03-20T13:30:54.000Z</time>
      </trkpt>
      <trkpt lat="47.3007" lon="-1.3706">
        <ele>55</ele>
        <time>2021-03-20T13:30:56.000Z</time>
      </trkpt>
      <trkpt lat="47.30062" lon="-1.37074">
        <ele>55</ele>
        <time>2021-03-20T13:30:58.000Z</time>
      </trkpt>
      <trkpt lat="47.30053" lon="-1.37089">
        <ele>55</ele>
        <time>2021-03-20T13:31:00.000Z</time>
      </trkpt>
      <trkpt lat="47.30044" lon="-1.37104">
        <ele>55</ele>
        <time>2021-03-20T13:31:02.000Z</time>
      </trkpt>
      <trkpt lat="47.30036" lon="-1.37118">
        <ele>55</ele>
        <time>2021-03-20T13:31:04.000Z</time>
      </trkpt>
      <trkpt lat="47.30027" lon="-1.37133">
        <ele>56</ele>
        <time>2021-03-20T13:31:06.000Z</time>
      </trkpt>
      <trkpt lat="47.30018" lon="-1.37147">
        <ele>56</ele>
        <time>2021-03-20T13:31:08.000Z</time>
      </trkpt>
      <trkpt lat="47.30009" lon="-1.37161">
        <ele>56</ele>
        <time>2021-03-20T13:31:10.000Z</time>
      </trkpt>
      <trkpt lat="47.3" lon="-1.37175">
        <ele>55</ele>
        <time>2021-03-20T13:31:12.000Z</time>
      </trkpt>
      <trkpt lat="47.29991" lon="-1.37189">
        <ele>55</ele>
        <time>2021-03-20T13:31:14.000Z</time>
      </trkpt>
      <trkpt lat="47.29982" lon="-1.37203">
        <ele>55</ele>
        <time>2021-03-20T13:31:16.000Z</time>
      </trkpt>
      <trkpt lat="47.29973" lon="-1.37216">
        <ele>55</ele>
        <time>2021-03-20T13:31:18.000Z</time>
      </trkpt>
      <trkpt lat="47.29965" lon="-1.3723">
        <ele>55</ele>
        <time>2021-03-20T13:31:20.000Z</time>
      </trkpt>
      <trkpt lat="47.29955" lon="-1.37244">
        <ele>55</ele>
        <time>2021-03-20T13:31:22.000Z</time>
      </trkpt>
      <trkpt lat="47.29946" lon="-1.37258">
        <ele>55</ele>
        <time>2021-03-20T13:31:24.000Z</time>
      </trkpt>
      <trkpt lat="47.29937" lon="-1.37272">
        <ele>54</ele>
        <time>2021-03-20T13:31:26.000Z</time>
      </trkpt>
      <trkpt lat="47.29927" lon="-1.37286">
        <ele>54</ele>
        <time>2021-03-20T13:31:28.000Z</time>
      </trkpt>
      <trkpt lat="47.29918" lon="-1.373">
        <ele>54</ele>
        <time>2021-03-20T13:31:30.000Z</time>
      </trkpt>
      <trkpt lat="47.29909" lon="-1.37315">
        <ele>54</ele>
        <time>2021-03-20T13:31:32.000Z</time>
      </trkpt>
      <trkpt lat="47.29899" lon="-1.3733">
        <ele>55</ele>
        <time>2021-03-20T13:31:34.000Z</time>
      </trkpt>
      <trkpt lat="47.2989" lon="-1.37344">
        <ele>55</ele>
        <time>2021-03-20T13:31:36.000Z</time>
      </trkpt>
      <trkpt lat="47.29881" lon="-1.37358">
        <ele>55</ele>
        <time>2021-03-20T13:31:38.000Z</time>
      </trkpt>
      <trkpt lat="47.29872" lon="-1.37372">
        <ele>54</ele>
        <time>2021-03-20T13:31:40.000Z</time>
      </trkpt>
      <trkpt lat="47.29863" lon="-1.37386">
        <ele>54</ele>
        <time>2021-03-20T13:31:42.000Z</time>
      </trkpt>
      <trkpt lat="47.29854" lon="-1.374">
        <ele>54</ele>
        <time>2021-03-20T13:31:44.000Z</time>
      </trkpt>
      <trkpt lat="47.29845" lon="-1.37413">
        <ele>54</ele>
        <time>2021-03-20T13:31:46.000Z</time>
      </trkpt>
      <trkpt lat="47.29836" lon="-1.37427">
        <ele>54</ele>
        <time>2021-03-20T13:31:48.000Z</time>
      </trkpt>
      <trkpt lat="47.29827" lon="-1.3744">
        <ele>55</ele>
        <time>2021-03-20T13:31:50.000Z</time>
      </trkpt>
      <trkpt lat="47.29819" lon="-1.37453">
        <ele>55</ele>
        <time>2021-03-20T13:31:52.000Z</time>
      </trkpt>
      <trkpt lat="47.29811" lon="-1.37467">
        <ele>55</ele>
        <time>2021-03-20T13:31:54.000Z</time>
      </trkpt>
      <trkpt lat="47.29802" lon="-1.37481">
        <ele>55</ele>
        <time>2021-03-20T13:31:56.000Z</time>
      </trkpt>
      <trkpt lat="47.29793" lon="-1.37496">
        <ele>55</ele>
        <time>2021-03-20T13:31:58.000Z</time>
      </trkpt>
      <trkpt lat="47.29785" lon="-1.37511">
        <ele>55</ele>
        <time>2021-03-20T13:32:00.000Z</time>
      </trkpt>
      <trkpt lat="47.29777" lon="-1.37525">
        <ele>55</ele>
        <time>2021-03-20T13:32:02.000Z</time>
      </trkpt>
      <trkpt lat="47.29769" lon="-1.3754">
        <ele>55</ele>
        <time>2021-03-20T13:32:04.000Z</time>
      </trkpt>
      <trkpt lat="47.29761" lon="-1.37554">
        <ele>55</ele>
        <time>2021-03-20T13:32:06.000Z</time>
      </trkpt>
      <trkpt lat="47.29754" lon="-1.37569">
        <ele>56</ele>
        <time>2021-03-20T13:32:08.000Z</time>
      </trkpt>
      <trkpt lat="47.29746" lon="-1.37585">
        <ele>56</ele>
        <time>2021-03-20T13:32:10.000Z</time>
      </trkpt>
      <trkpt lat="47.29739" lon="-1.376">
        <ele>56</ele>
        <time>2021-03-20T13:32:12.000Z</time>
      </trkpt>
      <trkpt lat="47.29731" lon="-1.37615">
        <ele>55</ele>
        <time>2021-03-20T13:32:14.000Z</time>
      </trkpt>
      <trkpt lat="47.29723" lon="-1.37631">
        <ele>55</ele>
        <time>2021-03-20T13:32:16.000Z</time>
      </trkpt>
      <trkpt lat="47.29716" lon="-1.37646">
        <ele>56</ele>
        <time>2021-03-20T13:32:18.000Z</time>
      </trkpt>
      <trkpt lat="47.29708" lon="-1.37662">
        <ele>56</ele>
        <time>2021-03-20T13:32:20.000Z</time>
      </trkpt>
      <trkpt lat="47.29701" lon="-1.37677">
        <ele>56</ele>
        <time>2021-03-20T13:32:22.000Z</time>
      </trkpt>
      <trkpt lat="47.29693" lon="-1.37691">
        <ele>56</ele>
        <time>2021-03-20T13:32:24.000Z</time>
      </trkpt>
      <trkpt lat="47.29685" lon="-1.37706">
        <ele>56</ele>
        <time>2021-03-20T13:32:26.000Z</time>
      </trkpt>
      <trkpt lat="47.29677" lon="-1.3772">
        <ele>56</ele>
        <time>2021-03-20T13:32:28.000Z</time>
      </trkpt>
      <trkpt lat="47.2967" lon="-1.37736">
        <ele>56</ele>
        <time>2021-03-20T13:32:30.000Z</time>
      </trkpt>
      <trkpt lat="47.29663" lon="-1.37751">
        <ele>56</ele>
        <time>2021-03-20T13:32:32.000Z</time>
      </trkpt>
      <trkpt lat="47.29655" lon="-1.37765">
        <ele>56</ele>
        <time>2021-03-20T13:32:34.000Z</time>
      </trkpt>
      <trkpt lat="47.29647" lon="-1.3778">
        <ele>56</ele>
        <time>2021-03-20T13:32:36.000Z</time>
      </trkpt>
      <trkpt lat="47.29639" lon="-1.37795">
        <ele>56</ele>
        <time>2021-03-20T13:32:38.000Z</time>
      </trkpt>
      <trkpt lat="47.29631" lon="-1.37808">
        <ele>56</ele>
        <time>2021-03-20T13:32:40.000Z</time>
      </trkpt>
      <trkpt lat="47.29622" lon="-1.37823">
        <ele>56</ele>
        <time>2021-03-20T13:32:42.000Z</time>
      </trkpt>
      <trkpt lat="47.29614" lon="-1.37838">
        <ele>56</ele>
        <time>2021-03-20T13:32:44.000Z</time>
      </trkpt>
      <trkpt lat="47.29607" lon="-1.37854">
        <ele>56</ele>
        <time>2021-03-20T13:32:46.000Z</time>
      </trkpt>
      <trkpt lat="47.296" lon="-1.37871">
        <ele>56</ele>
        <time>2021-03-20T13:32:48.000Z</time>
      </trkpt>
      <trkpt lat="47.29593" lon="-1.37887">
        <ele>56</ele>
        <time>2021-03-20T13:32:50.000Z</time>
      </trkpt>
      <trkpt lat="47.29586" lon="-1.37903">
        <ele>56</ele>
        <time>2021-03-20T13:32:52.000Z</time>
      </trkpt>
      <trkpt lat="47.2958" lon="-1.37918">
        <ele>56</ele>
        <time>2021-03-20T13:32:54.000Z</time>
      </trkpt>
      <trkpt lat="47.29573" lon="-1.37934">
        <ele>57</ele>
        <time>2021-03-20T13:32:56.000Z</time>
      </trkpt>
      <trkpt lat="47.29567" lon="-1.3795">
        <ele>57</ele>
        <time>2021-03-20T13:32:58.000Z</time>
      </trkpt>
      <trkpt lat="47.2956" lon="-1.37966">
        <ele>57</ele>
        <time>2021-03-20T13:33:00.000Z</time>
      </trkpt>
      <trkpt lat="47.29553" lon="-1.37983">
        <ele>57</ele>
        <time>2021-03-20T13:33:02.000Z</time>
      </trkpt>
      <trkpt lat="47.29547" lon="-1.37999">
        <ele>56</ele>
        <time>2021-03-20T13:33:04.000Z</time>
      </trkpt>
      <trkpt lat="47.29541" lon="-1.38016">
        <ele>56</ele>
        <time>2021-03-20T13:33:06.000Z</time>
      </trkpt>
      <trkpt lat="47.29535" lon="-1.38033">
        <ele>56</ele>
        <time>2021-03-20T13:33:08.000Z</time>
      </trkpt>
      <trkpt lat="47.29529" lon="-1.38049">
        <ele>56</ele>
        <time>2021-03-20T13:33:10.000Z</time>
      </trkpt>
      <trkpt lat="47.29523" lon="-1.38066">
        <ele>56</ele>
        <time>2021-03-20T13:33:12.000Z</time>
      </trkpt>
      <trkpt lat="47.29518" lon="-1.38084">
        <ele>56</ele>
        <time>2021-03-20T13:33:14.000Z</time>
      </trkpt>
      <trkpt lat="47.29513" lon="-1.38101">
        <ele>56</ele>
        <time>2021-03-20T13:33:16.000Z</time>
      </trkpt>
      <trkpt lat="47.29508" lon="-1.38119">
        <ele>57</ele>
        <time>2021-03-20T13:33:18.000Z</time>
      </trkpt>
      <trkpt lat="47.29503" lon="-1.38136">
        <ele>57</ele>
        <time>2021-03-20T13:33:20.000Z</time>
      </trkpt>
      <trkpt lat="47.29498" lon="-1.38154">
        <ele>57</ele>
        <time>2021-03-20T13:33:22.000Z</time>
      </trkpt>
      <trkpt lat="47.29494" lon="-1.38171">
        <ele>57</ele>
        <time>2021-03-20T13:33:24.000Z</time>
      </trkpt>
      <trkpt lat="47.29489" lon="-1.38189">
        <ele>57</ele>
        <time>2021-03-20T13:33:26.000Z</time>
      </trkpt>
      <trkpt lat="47.29484" lon="-1.38207">
        <ele>57</ele>
        <time>2021-03-20T13:33:28.000Z</time>
      </trkpt>
      <trkpt lat="47.29479" lon="-1.38224">
        <ele>57</ele>
        <time>2021-03-20T13:33:30.000Z</time>
      </trkpt>
      <trkpt lat="47.29475" lon="-1.38242">
        <ele>58</ele>
        <time>2021-03-20T13:33:32.000Z</time>
      </trkpt>
      <trkpt lat="47.2947" lon="-1.38259">
        <ele>58</ele>
        <time>2021-03-20T13:33:34.000Z</time>
      </trkpt>
      <trkpt lat="47.29466" lon="-1.38276">
        <ele>58</ele>
        <time>2021-03-20T13:33:36.000Z</time>
      </trkpt>
      <trkpt lat="47.29461" lon="-1.38294">
        <ele>58</ele>
        <time>2021-03-20T13:33:38.000Z</time>
      </trkpt>
      <trkpt lat="47.29457" lon="-1.3831">
        <ele>59</ele>
        <time>2021-03-20T13:33:40.000Z</time>
      </trkpt>
      <trkpt lat="47.29451" lon="-1.38323">
        <ele>60</ele>
        <time>2021-03-20T13:33:42.000Z</time>
      </trkpt>
      <trkpt lat="47.29444" lon="-1.38333">
        <ele>60</ele>
        <time>2021-03-20T13:33:44.000Z</time>
      </trkpt>
      <trkpt lat="47.2944" lon="-1.38348">
        <ele>60</ele>
        <time>2021-03-20T13:33:46.000Z</time>
      </trkpt>
      <trkpt lat="47.29437" lon="-1.38367">
        <ele>60</ele>
        <time>2021-03-20T13:33:48.000Z</time>
      </trkpt>
      <trkpt lat="47.29433" lon="-1.38386">
        <ele>59</ele>
        <time>2021-03-20T13:33:50.000Z</time>
      </trkpt>
      <trkpt lat="47.29428" lon="-1.38406">
        <ele>58</ele>
        <time>2021-03-20T13:33:52.000Z</time>
      </trkpt>
      <trkpt lat="47.29423" lon="-1.38426">
        <ele>58</ele>
        <time>2021-03-20T13:33:54.000Z</time>
      </trkpt>
      <trkpt lat="47.29418" lon="-1.38447">
        <ele>58</ele>
        <time>2021-03-20T13:33:56.000Z</time>
      </trkpt>
      <trkpt lat="47.29412" lon="-1.38467">
        <ele>57</ele>
        <time>2021-03-20T13:33:58.000Z</time>
      </trkpt>
      <trkpt lat="47.29408" lon="-1.38487">
        <ele>57</ele>
        <time>2021-03-20T13:34:00.000Z</time>
      </trkpt>
      <trkpt lat="47.29403" lon="-1.38506">
        <ele>57</ele>
        <time>2021-03-20T13:34:02.000Z</time>
      </trkpt>
      <trkpt lat="47.29397" lon="-1.38526">
        <ele>57</ele>
        <time>2021-03-20T13:34:04.000Z</time>
      </trkpt>
      <trkpt lat="47.29392" lon="-1.38546">
        <ele>57</ele>
        <time>2021-03-20T13:34:06.000Z</time>
      </trkpt>
      <trkpt lat="47.29387" lon="-1.38566">
        <ele>57</ele>
        <time>2021-03-20T13:34:08.000Z</time>
      </trkpt>
      <trkpt lat="47.29381" lon="-1.38586">
        <ele>57</ele>
        <time>2021-03-20T13:34:10.000Z</time>
      </trkpt>
      <trkpt lat="47.29376" lon="-1.38606">
        <ele>57</ele>
        <time>2021-03-20T13:34:12.000Z</time>
      </trkpt>
      <trkpt lat="47.2937" lon="-1.38626">
        <ele>58</ele>
        <time>2021-03-20T13:34:14.000Z</time>
      </trkpt>
      <trkpt lat="47.29364" lon="-1.38645">
        <ele>58</ele>
        <time>2021-03-20T13:34:16.000Z</time>
      </trkpt>
      <trkpt lat="47.29358" lon="-1.38665">
        <ele>58</ele>
        <time>2021-03-20T13:34:18.000Z</time>
      </trkpt>
      <trkpt lat="47.29353" lon="-1.38684">
        <ele>58</ele>
        <time>2021-03-20T13:34:20.000Z</time>
      </trkpt>
      <trkpt lat="47.29347" lon="-1.38704">
        <ele>58</ele>
        <time>2021-03-20T13:34:22.000Z</time>
      </trkpt>
      <trkpt lat="47.29341" lon="-1.38723">
        <ele>58</ele>
        <time>2021-03-20T13:34:24.000Z</time>
      </trkpt>
      <trkpt lat="47.29335" lon="-1.38743">
        <ele>59</ele>
        <time>2021-03-20T13:34:26.000Z</time>
      </trkpt>
      <trkpt lat="47.2933" lon="-1.38763">
        <ele>58</ele>
        <time>2021-03-20T13:34:28.000Z</time>
      </trkpt>
      <trkpt lat="47.29324" lon="-1.38783">
        <ele>58</ele>
        <time>2021-03-20T13:34:30.000Z</time>
      </trkpt>
      <trkpt lat="47.29319" lon="-1.38804">
        <ele>59</ele>
        <time>2021-03-20T13:34:32.000Z</time>
      </trkpt>
      <trkpt lat="47.29313" lon="-1.38824">
        <ele>58</ele>
        <time>2021-03-20T13:34:34.000Z</time>
      </trkpt>
      <trkpt lat="47.29308" lon="-1.38844">
        <ele>58</ele>
        <time>2021-03-20T13:34:36.000Z</time>
      </trkpt>
      <trkpt lat="47.29302" lon="-1.38864">
        <ele>58</ele>
        <time>2021-03-20T13:34:38.000Z</time>
      </trkpt>
      <trkpt lat="47.29297" lon="-1.38883">
        <ele>58</ele>
        <time>2021-03-20T13:34:40.000Z</time>
      </trkpt>
      <trkpt lat="47.29292" lon="-1.38902">
        <ele>58</ele>
        <time>2021-03-20T13:34:42.000Z</time>
      </trkpt>
      <trkpt lat="47.29288" lon="-1.38921">
        <ele>58</ele>
        <time>2021-03-20T13:34:44.000Z</time>
      </trkpt>
      <trkpt lat="47.29283" lon="-1.38941">
        <ele>58</ele>
        <time>2021-03-20T13:34:46.000Z</time>
      </trkpt>
      <trkpt lat="47.29278" lon="-1.3896">
        <ele>58</ele>
        <time>2021-03-20T13:34:48.000Z</time>
      </trkpt>
      <trkpt lat="47.29273" lon="-1.38979">
        <ele>58</ele>
        <time>2021-03-20T13:34:50.000Z</time>
      </trkpt>
      <trkpt lat="47.29267" lon="-1.38998">
        <ele>58</ele>
        <time>2021-03-20T13:34:52.000Z</time>
      </trkpt>
      <trkpt lat="47.29262" lon="-1.39017">
        <ele>58</ele>
        <time>2021-03-20T13:34:54.000Z</time>
      </trkpt>
      <trkpt lat="47.29256" lon="-1.39036">
        <ele>58</ele>
        <time>2021-03-20T13:34:56.000Z</time>
      </trkpt>
      <trkpt lat="47.29251" lon="-1.39055">
        <ele>58</ele>
        <time>2021-03-20T13:34:58.000Z</time>
      </trkpt>
      <trkpt lat="47.29246" lon="-1.39073">
        <ele>59</ele>
        <time>2021-03-20T13:35:00.000Z</time>
      </trkpt>
      <trkpt lat="47.29241" lon="-1.3909">
        <ele>59</ele>
        <time>2021-03-20T13:35:02.000Z</time>
      </trkpt>
      <trkpt lat="47.29234" lon="-1.39108">
        <ele>59</ele>
        <time>2021-03-20T13:35:04.000Z</time>
      </trkpt>
      <trkpt lat="47.29225" lon="-1.39124">
        <ele>59</ele>
        <time>2021-03-20T13:35:06.000Z</time>
      </trkpt>
      <trkpt lat="47.29215" lon="-1.39139">
        <ele>58</ele>
        <time>2021-03-20T13:35:08.000Z</time>
      </trkpt>
      <trkpt lat="47.29204" lon="-1.39152">
        <ele>59</ele>
        <time>2021-03-20T13:35:10.000Z</time>
      </trkpt>
      <trkpt lat="47.29192" lon="-1.39166">
        <ele>58</ele>
        <time>2021-03-20T13:35:12.000Z</time>
      </trkpt>
      <trkpt lat="47.29181" lon="-1.39179">
        <ele>59</ele>
        <time>2021-03-20T13:35:14.000Z</time>
      </trkpt>
      <trkpt lat="47.2917" lon="-1.39192">
        <ele>58</ele>
        <time>2021-03-20T13:35:16.000Z</time>
      </trkpt>
      <trkpt lat="47.29159" lon="-1.39206">
        <ele>58</ele>
        <time>2021-03-20T13:35:18.000Z</time>
      </trkpt>
      <trkpt lat="47.29148" lon="-1.39218">
        <ele>58</ele>
        <time>2021-03-20T13:35:20.000Z</time>
      </trkpt>
      <trkpt lat="47.29137" lon="-1.39232">
        <ele>58</ele>
        <time>2021-03-20T13:35:22.000Z</time>
      </trkpt>
      <trkpt lat="47.29125" lon="-1.39246">
        <ele>58</ele>
        <time>2021-03-20T13:35:24.000Z</time>
      </trkpt>
      <trkpt lat="47.29115" lon="-1.39261">
        <ele>58</ele>
        <time>2021-03-20T13:35:26.000Z</time>
      </trkpt>
      <trkpt lat="47.29105" lon="-1.39275">
        <ele>58</ele>
        <time>2021-03-20T13:35:28.000Z</time>
      </trkpt>
      <trkpt lat="47.29097" lon="-1.39292">
        <ele>58</ele>
        <time>2021-03-20T13:35:30.000Z</time>
      </trkpt>
      <trkpt lat="47.2909" lon="-1.39309">
        <ele>59</ele>
        <time>2021-03-20T13:35:32.000Z</time>
      </trkpt>
      <trkpt lat="47.29079" lon="-1.39319">
        <ele>60</ele>
        <time>2021-03-20T13:35:34.000Z</time>
      </trkpt>
      <trkpt lat="47.29064" lon="-1.39323">
        <ele>59</ele>
        <time>2021-03-20T13:35:36.000Z</time>
      </trkpt>
      <trkpt lat="47.29049" lon="-1.39334">
        <ele>58</ele>
        <time>2021-03-20T13:35:38.000Z</time>
      </trkpt>
      <trkpt lat="47.29042" lon="-1.39343">
        <ele>57</ele>
        <time>2021-03-20T13:35:39.000Z</time>
      </trkpt>
      <trkpt lat="47.29028" lon="-1.3936">
        <ele>57</ele>
        <time>2021-03-20T13:35:41.000Z</time>
      </trkpt>
      <trkpt lat="47.29015" lon="-1.39376">
        <ele>58</ele>
        <time>2021-03-20T13:35:43.000Z</time>
      </trkpt>
      <trkpt lat="47.29002" lon="-1.39391">
        <ele>57</ele>
        <time>2021-03-20T13:35:45.000Z</time>
      </trkpt>
      <trkpt lat="47.2899" lon="-1.39406">
        <ele>57</ele>
        <time>2021-03-20T13:35:47.000Z</time>
      </trkpt>
      <trkpt lat="47.28978" lon="-1.39421">
        <ele>57</ele>
        <time>2021-03-20T13:35:49.000Z</time>
      </trkpt>
      <trkpt lat="47.28966" lon="-1.39436">
        <ele>56</ele>
        <time>2021-03-20T13:35:51.000Z</time>
      </trkpt>
      <trkpt lat="47.28955" lon="-1.39451">
        <ele>56</ele>
        <time>2021-03-20T13:35:53.000Z</time>
      </trkpt>
      <trkpt lat="47.28943" lon="-1.39466">
        <ele>56</ele>
        <time>2021-03-20T13:35:55.000Z</time>
      </trkpt>
      <trkpt lat="47.28931" lon="-1.3948">
        <ele>56</ele>
        <time>2021-03-20T13:35:57.000Z</time>
      </trkpt>
      <trkpt lat="47.28918" lon="-1.39494">
        <ele>56</ele>
        <time>2021-03-20T13:35:59.000Z</time>
      </trkpt>
      <trkpt lat="47.28906" lon="-1.39507">
        <ele>56</ele>
        <time>2021-03-20T13:36:01.000Z</time>
      </trkpt>
      <trkpt lat="47.28895" lon="-1.39521">
        <ele>57</ele>
        <time>2021-03-20T13:36:03.000Z</time>
      </trkpt>
      <trkpt lat="47.28883" lon="-1.39535">
        <ele>57</ele>
        <time>2021-03-20T13:36:05.000Z</time>
      </trkpt>
      <trkpt lat="47.28871" lon="-1.39548">
        <ele>57</ele>
        <time>2021-03-20T13:36:07.000Z</time>
      </trkpt>
      <trkpt lat="47.2886" lon="-1.39562">
        <ele>56</ele>
        <time>2021-03-20T13:36:09.000Z</time>
      </trkpt>
      <trkpt lat="47.28849" lon="-1.39576">
        <ele>57</ele>
        <time>2021-03-20T13:36:11.000Z</time>
      </trkpt>
      <trkpt lat="47.28838" lon="-1.3959">
        <ele>56</ele>
        <time>2021-03-20T13:36:13.000Z</time>
      </trkpt>
      <trkpt lat="47.28826" lon="-1.39604">
        <ele>57</ele>
        <time>2021-03-20T13:36:15.000Z</time>
      </trkpt>
      <trkpt lat="47.28815" lon="-1.39617">
        <ele>57</ele>
        <time>2021-03-20T13:36:17.000Z</time>
      </trkpt>
      <trkpt lat="47.28803" lon="-1.3963">
        <ele>57</ele>
        <time>2021-03-20T13:36:19.000Z</time>
      </trkpt>
      <trkpt lat="47.28792" lon="-1.39644">
        <ele>57</ele>
        <time>2021-03-20T13:36:21.000Z</time>
      </trkpt>
      <trkpt lat="47.28781" lon="-1.39658">
        <ele>57</ele>
        <time>2021-03-20T13:36:23.000Z</time>
      </trkpt>
      <trkpt lat="47.28769" lon="-1.39671">
        <ele>57</ele>
        <time>2021-03-20T13:36:25.000Z</time>
      </trkpt>
      <trkpt lat="47.28758" lon="-1.39685">
        <ele>57</ele>
        <time>2021-03-20T13:36:27.000Z</time>
      </trkpt>
      <trkpt lat="47.28747" lon="-1.39699">
        <ele>58</ele>
        <time>2021-03-20T13:36:29.000Z</time>
      </trkpt>
      <trkpt lat="47.28736" lon="-1.39713">
        <ele>58</ele>
        <time>2021-03-20T13:36:31.000Z</time>
      </trkpt>
      <trkpt lat="47.28725" lon="-1.39726">
        <ele>58</ele>
        <time>2021-03-20T13:36:33.000Z</time>
      </trkpt>
      <trkpt lat="47.28713" lon="-1.3974">
        <ele>58</ele>
        <time>2021-03-20T13:36:35.000Z</time>
      </trkpt>
      <trkpt lat="47.28703" lon="-1.39753">
        <ele>57</ele>
        <time>2021-03-20T13:36:37.000Z</time>
      </trkpt>
      <trkpt lat="47.28692" lon="-1.39767">
        <ele>57</ele>
        <time>2021-03-20T13:36:39.000Z</time>
      </trkpt>
      <trkpt lat="47.28681" lon="-1.3978">
        <ele>57</ele>
        <time>2021-03-20T13:36:41.000Z</time>
      </trkpt>
      <trkpt lat="47.2867" lon="-1.39794">
        <ele>57</ele>
        <time>2021-03-20T13:36:43.000Z</time>
      </trkpt>
      <trkpt lat="47.2866" lon="-1.39809">
        <ele>57</ele>
        <time>2021-03-20T13:36:45.000Z</time>
      </trkpt>
      <trkpt lat="47.2865" lon="-1.39825">
        <ele>57</ele>
        <time>2021-03-20T13:36:47.000Z</time>
      </trkpt>
      <trkpt lat="47.28641" lon="-1.3984">
        <ele>56</ele>
        <time>2021-03-20T13:36:49.000Z</time>
      </trkpt>
      <trkpt lat="47.28631" lon="-1.39856">
        <ele>56</ele>
        <time>2021-03-20T13:36:51.000Z</time>
      </trkpt>
      <trkpt lat="47.2862" lon="-1.39871">
        <ele>56</ele>
        <time>2021-03-20T13:36:53.000Z</time>
      </trkpt>
      <trkpt lat="47.2861" lon="-1.39886">
        <ele>56</ele>
        <time>2021-03-20T13:36:55.000Z</time>
      </trkpt>
      <trkpt lat="47.286" lon="-1.39902">
        <ele>57</ele>
        <time>2021-03-20T13:36:57.000Z</time>
      </trkpt>
      <trkpt lat="47.2859" lon="-1.39916">
        <ele>57</ele>
        <time>2021-03-20T13:36:59.000Z</time>
      </trkpt>
      <trkpt lat="47.2858" lon="-1.39931">
        <ele>57</ele>
        <time>2021-03-20T13:37:01.000Z</time>
      </trkpt>
      <trkpt lat="47.2857" lon="-1.39946">
        <ele>57</ele>
        <time>2021-03-20T13:37:03.000Z</time>
      </trkpt>
      <trkpt lat="47.2856" lon="-1.39961">
        <ele>57</ele>
        <time>2021-03-20T13:37:05.000Z</time>
      </trkpt>
      <trkpt lat="47.2855" lon="-1.39976">
        <ele>57</ele>
        <time>2021-03-20T13:37:07.000Z</time>
      </trkpt>
      <trkpt lat="47.28539" lon="-1.39989">
        <ele>57</ele>
        <time>2021-03-20T13:37:09.000Z</time>
      </trkpt>
      <trkpt lat="47.28529" lon="-1.40003">
        <ele>57</ele>
        <time>2021-03-20T13:37:11.000Z</time>
      </trkpt>
      <trkpt lat="47.28519" lon="-1.40018">
        <ele>57</ele>
        <time>2021-03-20T13:37:13.000Z</time>
      </trkpt>
      <trkpt lat="47.28509" lon="-1.40033">
        <ele>57</ele>
        <time>2021-03-20T13:37:15.000Z</time>
      </trkpt>
      <trkpt lat="47.28499" lon="-1.40049">
        <ele>57</ele>
        <time>2021-03-20T13:37:17.000Z</time>
      </trkpt>
      <trkpt lat="47.28492" lon="-1.40067">
        <ele>56</ele>
        <time>2021-03-20T13:37:19.000Z</time>
      </trkpt>
      <trkpt lat="47.28484" lon="-1.40085">
        <ele>56</ele>
        <time>2021-03-20T13:37:21.000Z</time>
      </trkpt>
      <trkpt lat="47.28476" lon="-1.40102">
        <ele>56</ele>
        <time>2021-03-20T13:37:23.000Z</time>
      </trkpt>
      <trkpt lat="47.28469" lon="-1.4012">
        <ele>55</ele>
        <time>2021-03-20T13:37:25.000Z</time>
      </trkpt>
      <trkpt lat="47.28461" lon="-1.40138">
        <ele>55</ele>
        <time>2021-03-20T13:37:27.000Z</time>
      </trkpt>
      <trkpt lat="47.28454" lon="-1.40156">
        <ele>55</ele>
        <time>2021-03-20T13:37:29.000Z</time>
      </trkpt>
      <trkpt lat="47.28447" lon="-1.40175">
        <ele>55</ele>
        <time>2021-03-20T13:37:31.000Z</time>
      </trkpt>
      <trkpt lat="47.2844" lon="-1.40193">
        <ele>55</ele>
        <time>2021-03-20T13:37:33.000Z</time>
      </trkpt>
      <trkpt lat="47.28433" lon="-1.40211">
        <ele>55</ele>
        <time>2021-03-20T13:37:35.000Z</time>
      </trkpt>
      <trkpt lat="47.28425" lon="-1.40229">
        <ele>56</ele>
        <time>2021-03-20T13:37:37.000Z</time>
      </trkpt>
      <trkpt lat="47.28419" lon="-1.40247">
        <ele>56</ele>
        <time>2021-03-20T13:37:39.000Z</time>
      </trkpt>
      <trkpt lat="47.28411" lon="-1.40264">
        <ele>57</ele>
        <time>2021-03-20T13:37:41.000Z</time>
      </trkpt>
      <trkpt lat="47.28404" lon="-1.40281">
        <ele>56</ele>
        <time>2021-03-20T13:37:43.000Z</time>
      </trkpt>
      <trkpt lat="47.28396" lon="-1.40299">
        <ele>57</ele>
        <time>2021-03-20T13:37:45.000Z</time>
      </trkpt>
      <trkpt lat="47.28386" lon="-1.40316">
        <ele>57</ele>
        <time>2021-03-20T13:37:47.000Z</time>
      </trkpt>
      <trkpt lat="47.28377" lon="-1.40332">
        <ele>56</ele>
        <time>2021-03-20T13:37:49.000Z</time>
      </trkpt>
      <trkpt lat="47.28367" lon="-1.40347">
        <ele>57</ele>
        <time>2021-03-20T13:37:51.000Z</time>
      </trkpt>
      <trkpt lat="47.28356" lon="-1.40362">
        <ele>57</ele>
        <time>2021-03-20T13:37:53.000Z</time>
      </trkpt>
      <trkpt lat="47.28345" lon="-1.40376">
        <ele>57</ele>
        <time>2021-03-20T13:37:55.000Z</time>
      </trkpt>
      <trkpt lat="47.28334" lon="-1.40391">
        <ele>57</ele>
        <time>2021-03-20T13:37:57.000Z</time>
      </trkpt>
      <trkpt lat="47.28323" lon="-1.40405">
        <ele>57</ele>
        <time>2021-03-20T13:37:59.000Z</time>
      </trkpt>
      <trkpt lat="47.28312" lon="-1.40418">
        <ele>56</ele>
        <time>2021-03-20T13:38:01.000Z</time>
      </trkpt>
      <trkpt lat="47.283" lon="-1.4043">
        <ele>56</ele>
        <time>2021-03-20T13:38:03.000Z</time>
      </trkpt>
      <trkpt lat="47.28288" lon="-1.40443">
        <ele>56</ele>
        <time>2021-03-20T13:38:05.000Z</time>
      </trkpt>
      <trkpt lat="47.28276" lon="-1.40454">
        <ele>57</ele>
        <time>2021-03-20T13:38:07.000Z</time>
      </trkpt>
      <trkpt lat="47.28263" lon="-1.40465">
        <ele>57</ele>
        <time>2021-03-20T13:38:09.000Z</time>
      </trkpt>
      <trkpt lat="47.28252" lon="-1.40477">
        <ele>57</ele>
        <time>2021-03-20T13:38:11.000Z</time>
      </trkpt>
      <trkpt lat="47.2824" lon="-1.40489">
        <ele>57</ele>
        <time>2021-03-20T13:38:13.000Z</time>
      </trkpt>
      <trkpt lat="47.28228" lon="-1.405">
        <ele>57</ele>
        <time>2021-03-20T13:38:15.000Z</time>
      </trkpt>
      <trkpt lat="47.28216" lon="-1.40511">
        <ele>57</ele>
        <time>2021-03-20T13:38:17.000Z</time>
      </trkpt>
      <trkpt lat="47.28204" lon="-1.40524">
        <ele>57</ele>
        <time>2021-03-20T13:38:19.000Z</time>
      </trkpt>
      <trkpt lat="47.28191" lon="-1.40536">
        <ele>57</ele>
        <time>2021-03-20T13:38:21.000Z</time>
      </trkpt>
      <trkpt lat="47.28179" lon="-1.40548">
        <ele>56</ele>
        <time>2021-03-20T13:38:23.000Z</time>
      </trkpt>
      <trkpt lat="47.28167" lon="-1.4056">
        <ele>56</ele>
        <time>2021-03-20T13:38:25.000Z</time>
      </trkpt>
      <trkpt lat="47.28154" lon="-1.40572">
        <ele>57</ele>
        <time>2021-03-20T13:38:27.000Z</time>
      </trkpt>
      <trkpt lat="47.28141" lon="-1.40584">
        <ele>57</ele>
        <time>2021-03-20T13:38:29.000Z</time>
      </trkpt>
      <trkpt lat="47.28129" lon="-1.40596">
        <ele>57</ele>
        <time>2021-03-20T13:38:31.000Z</time>
      </trkpt>
      <trkpt lat="47.28116" lon="-1.40609">
        <ele>57</ele>
        <time>2021-03-20T13:38:33.000Z</time>
      </trkpt>
      <trkpt lat="47.28103" lon="-1.40621">
        <ele>56</ele>
        <time>2021-03-20T13:38:35.000Z</time>
      </trkpt>
      <trkpt lat="47.28091" lon="-1.40634">
        <ele>57</ele>
        <time>2021-03-20T13:38:37.000Z</time>
      </trkpt>
      <trkpt lat="47.28078" lon="-1.40646">
        <ele>57</ele>
        <time>2021-03-20T13:38:39.000Z</time>
      </trkpt>
      <trkpt lat="47.28065" lon="-1.40658">
        <ele>57</ele>
        <time>2021-03-20T13:38:41.000Z</time>
      </trkpt>
      <trkpt lat="47.28052" lon="-1.4067">
        <ele>57</ele>
        <time>2021-03-20T13:38:43.000Z</time>
      </trkpt>
      <trkpt lat="47.28038" lon="-1.40683">
        <ele>57</ele>
        <time>2021-03-20T13:38:45.000Z</time>
      </trkpt>
      <trkpt lat="47.28026" lon="-1.40697">
        <ele>57</ele>
        <time>2021-03-20T13:38:47.000Z</time>
      </trkpt>
      <trkpt lat="47.28015" lon="-1.40709">
        <ele>57</ele>
        <time>2021-03-20T13:38:49.000Z</time>
      </trkpt>
      <trkpt lat="47.28002" lon="-1.4072">
        <ele>56</ele>
        <time>2021-03-20T13:38:51.000Z</time>
      </trkpt>
      <trkpt lat="47.2799" lon="-1.40732">
        <ele>56</ele>
        <time>2021-03-20T13:38:53.000Z</time>
      </trkpt>
      <trkpt lat="47.27978" lon="-1.40744">
        <ele>56</ele>
        <time>2021-03-20T13:38:55.000Z</time>
      </trkpt>
      <trkpt lat="47.27965" lon="-1.40756">
        <ele>56</ele>
        <time>2021-03-20T13:38:57.000Z</time>
      </trkpt>
      <trkpt lat="47.27953" lon="-1.40767">
        <ele>56</ele>
        <time>2021-03-20T13:38:59.000Z</time>
      </trkpt>
      <trkpt lat="47.2794" lon="-1.40779">
        <ele>56</ele>
        <time>2021-03-20T13:39:01.000Z</time>
      </trkpt>
      <trkpt lat="47.27927" lon="-1.4079">
        <ele>57</ele>
        <time>2021-03-20T13:39:03.000Z</time>
      </trkpt>
      <trkpt lat="47.27914" lon="-1.40802">
        <ele>56</ele>
        <time>2021-03-20T13:39:05.000Z</time>
      </trkpt>
      <trkpt lat="47.27902" lon="-1.40814">
        <ele>57</ele>
        <time>2021-03-20T13:39:07.000Z</time>
      </trkpt>
      <trkpt lat="47.2789" lon="-1.40826">
        <ele>56</ele>
        <time>2021-03-20T13:39:09.000Z</time>
      </trkpt>
      <trkpt lat="47.27881" lon="-1.40841">
        <ele>57</ele>
        <time>2021-03-20T13:39:11.000Z</time>
      </trkpt>
      <trkpt lat="47.27872" lon="-1.40859">
        <ele>57</ele>
        <time>2021-03-20T13:39:13.000Z</time>
      </trkpt>
      <trkpt lat="47.27864" lon="-1.40876">
        <ele>57</ele>
        <time>2021-03-20T13:39:15.000Z</time>
      </trkpt>
      <trkpt lat="47.27857" lon="-1.40894">
        <ele>57</ele>
        <time>2021-03-20T13:39:17.000Z</time>
      </trkpt>
      <trkpt lat="47.27849" lon="-1.4091">
        <ele>57</ele>
        <time>2021-03-20T13:39:19.000Z</time>
      </trkpt>
      <trkpt lat="47.27841" lon="-1.40928">
        <ele>57</ele>
        <time>2021-03-20T13:39:21.000Z</time>
      </trkpt>
      <trkpt lat="47.27833" lon="-1.40946">
        <ele>58</ele>
        <time>2021-03-20T13:39:23.000Z</time>
      </trkpt>
      <trkpt lat="47.27824" lon="-1.40962">
        <ele>58</ele>
        <time>2021-03-20T13:39:25.000Z</time>
      </trkpt>
      <trkpt lat="47.27815" lon="-1.40979">
        <ele>58</ele>
        <time>2021-03-20T13:39:27.000Z</time>
      </trkpt>
      <trkpt lat="47.27805" lon="-1.40995">
        <ele>58</ele>
        <time>2021-03-20T13:39:29.000Z</time>
      </trkpt>
      <trkpt lat="47.27795" lon="-1.41009">
        <ele>58</ele>
        <time>2021-03-20T13:39:31.000Z</time>
      </trkpt>
      <trkpt lat="47.27785" lon="-1.41022">
        <ele>58</ele>
        <time>2021-03-20T13:39:33.000Z</time>
      </trkpt>
      <trkpt lat="47.27777" lon="-1.41039">
        <ele>57</ele>
        <time>2021-03-20T13:39:35.000Z</time>
      </trkpt>
      <trkpt lat="47.27772" lon="-1.41058">
        <ele>58</ele>
        <time>2021-03-20T13:39:37.000Z</time>
      </trkpt>
      <trkpt lat="47.27762" lon="-1.41073">
        <ele>58</ele>
        <time>2021-03-20T13:39:39.000Z</time>
      </trkpt>
      <trkpt lat="47.27751" lon="-1.41086">
        <ele>58</ele>
        <time>2021-03-20T13:39:41.000Z</time>
      </trkpt>
      <trkpt lat="47.27739" lon="-1.41098">
        <ele>57</ele>
        <time>2021-03-20T13:39:43.000Z</time>
      </trkpt>
      <trkpt lat="47.27726" lon="-1.4111">
        <ele>57</ele>
        <time>2021-03-20T13:39:45.000Z</time>
      </trkpt>
      <trkpt lat="47.27714" lon="-1.41122">
        <ele>57</ele>
        <time>2021-03-20T13:39:47.000Z</time>
      </trkpt>
      <trkpt lat="47.27703" lon="-1.41134">
        <ele>57</ele>
        <time>2021-03-20T13:39:49.000Z</time>
      </trkpt>
      <trkpt lat="47.27691" lon="-1.41146">
        <ele>57</ele>
        <time>2021-03-20T13:39:51.000Z</time>
      </trkpt>
      <trkpt lat="47.2768" lon="-1.4116">
        <ele>57</ele>
        <time>2021-03-20T13:39:53.000Z</time>
      </trkpt>
      <trkpt lat="47.27668" lon="-1.41173">
        <ele>57</ele>
        <time>2021-03-20T13:39:55.000Z</time>
      </trkpt>
      <trkpt lat="47.27657" lon="-1.41186">
        <ele>57</ele>
        <time>2021-03-20T13:39:57.000Z</time>
      </trkpt>
      <trkpt lat="47.27645" lon="-1.41198">
        <ele>57</ele>
        <time>2021-03-20T13:39:59.000Z</time>
      </trkpt>
      <trkpt lat="47.27632" lon="-1.4121">
        <ele>57</ele>
        <time>2021-03-20T13:40:01.000Z</time>
      </trkpt>
      <trkpt lat="47.2762" lon="-1.41222">
        <ele>57</ele>
        <time>2021-03-20T13:40:03.000Z</time>
      </trkpt>
      <trkpt lat="47.27608" lon="-1.41235">
        <ele>57</ele>
        <time>2021-03-20T13:40:05.000Z</time>
      </trkpt>
      <trkpt lat="47.27596" lon="-1.41248">
        <ele>57</ele>
        <time>2021-03-20T13:40:07.000Z</time>
      </trkpt>
      <trkpt lat="47.27584" lon="-1.41261">
        <ele>56</ele>
        <time>2021-03-20T13:40:09.000Z</time>
      </trkpt>
      <trkpt lat="47.27573" lon="-1.41274">
        <ele>56</ele>
        <time>2021-03-20T13:40:11.000Z</time>
      </trkpt>
      <trkpt lat="47.27561" lon="-1.41288">
        <ele>56</ele>
        <time>2021-03-20T13:40:13.000Z</time>
      </trkpt>
      <trkpt lat="47.2755" lon="-1.41302">
        <ele>56</ele>
        <time>2021-03-20T13:40:15.000Z</time>
      </trkpt>
      <trkpt lat="47.27539" lon="-1.41317">
        <ele>56</ele>
        <time>2021-03-20T13:40:17.000Z</time>
      </trkpt>
      <trkpt lat="47.27528" lon="-1.41332">
        <ele>56</ele>
        <time>2021-03-20T13:40:19.000Z</time>
      </trkpt>
      <trkpt lat="47.27516" lon="-1.41347">
        <ele>56</ele>
        <time>2021-03-20T13:40:21.000Z</time>
      </trkpt>
      <trkpt lat="47.27506" lon="-1.41363">
        <ele>56</ele>
        <time>2021-03-20T13:40:23.000Z</time>
      </trkpt>
      <trkpt lat="47.27495" lon="-1.41379">
        <ele>56</ele>
        <time>2021-03-20T13:40:25.000Z</time>
      </trkpt>
      <trkpt lat="47.27485" lon="-1.41395">
        <ele>56</ele>
        <time>2021-03-20T13:40:27.000Z</time>
      </trkpt>
      <trkpt lat="47.27476" lon="-1.41413">
        <ele>57</ele>
        <time>2021-03-20T13:40:29.000Z</time>
      </trkpt>
      <trkpt lat="47.27466" lon="-1.4143">
        <ele>57</ele>
        <time>2021-03-20T13:40:31.000Z</time>
      </trkpt>
      <trkpt lat="47.27456" lon="-1.41447">
        <ele>57</ele>
        <time>2021-03-20T13:40:33.000Z</time>
      </trkpt>
      <trkpt lat="47.27447" lon="-1.41464">
        <ele>57</ele>
        <time>2021-03-20T13:40:35.000Z</time>
      </trkpt>
      <trkpt lat="47.27437" lon="-1.41481">
        <ele>57</ele>
        <time>2021-03-20T13:40:37.000Z</time>
      </trkpt>
      <trkpt lat="47.27428" lon="-1.41499">
        <ele>57</ele>
        <time>2021-03-20T13:40:39.000Z</time>
      </trkpt>
      <trkpt lat="47.27418" lon="-1.41516">
        <ele>57</ele>
        <time>2021-03-20T13:40:41.000Z</time>
      </trkpt>
      <trkpt lat="47.27408" lon="-1.41532">
        <ele>58</ele>
        <time>2021-03-20T13:40:43.000Z</time>
      </trkpt>
      <trkpt lat="47.27397" lon="-1.41548">
        <ele>58</ele>
        <time>2021-03-20T13:40:45.000Z</time>
      </trkpt>
      <trkpt lat="47.27387" lon="-1.41564">
        <ele>58</ele>
        <time>2021-03-20T13:40:47.000Z</time>
      </trkpt>
      <trkpt lat="47.27378" lon="-1.41579">
        <ele>58</ele>
        <time>2021-03-20T13:40:49.000Z</time>
      </trkpt>
      <trkpt lat="47.27367" lon="-1.41595">
        <ele>58</ele>
        <time>2021-03-20T13:40:51.000Z</time>
      </trkpt>
      <trkpt lat="47.27357" lon="-1.4161">
        <ele>58</ele>
        <time>2021-03-20T13:40:53.000Z</time>
      </trkpt>
      <trkpt lat="47.27347" lon="-1.41626">
        <ele>58</ele>
        <time>2021-03-20T13:40:55.000Z</time>
      </trkpt>
      <trkpt lat="47.27337" lon="-1.41642">
        <ele>58</ele>
        <time>2021-03-20T13:40:57.000Z</time>
      </trkpt>
      <trkpt lat="47.27327" lon="-1.41658">
        <ele>58</ele>
        <time>2021-03-20T13:40:59.000Z</time>
      </trkpt>
      <trkpt lat="47.27317" lon="-1.41674">
        <ele>57</ele>
        <time>2021-03-20T13:41:01.000Z</time>
      </trkpt>
      <trkpt lat="47.27308" lon="-1.41691">
        <ele>58</ele>
        <time>2021-03-20T13:41:03.000Z</time>
      </trkpt>
      <trkpt lat="47.27299" lon="-1.41708">
        <ele>58</ele>
        <time>2021-03-20T13:41:05.000Z</time>
      </trkpt>
      <trkpt lat="47.27291" lon="-1.41725">
        <ele>58</ele>
        <time>2021-03-20T13:41:07.000Z</time>
      </trkpt>
      <trkpt lat="47.27282" lon="-1.41742">
        <ele>58</ele>
        <time>2021-03-20T13:41:09.000Z</time>
      </trkpt>
      <trkpt lat="47.27274" lon="-1.41759">
        <ele>58</ele>
        <time>2021-03-20T13:41:11.000Z</time>
      </trkpt>
      <trkpt lat="47.27264" lon="-1.41776">
        <ele>58</ele>
        <time>2021-03-20T13:41:13.000Z</time>
      </trkpt>
      <trkpt lat="47.27255" lon="-1.41792">
        <ele>58</ele>
        <time>2021-03-20T13:41:15.000Z</time>
      </trkpt>
      <trkpt lat="47.27246" lon="-1.4181">
        <ele>58</ele>
        <time>2021-03-20T13:41:17.000Z</time>
      </trkpt>
      <trkpt lat="47.27237" lon="-1.41827">
        <ele>58</ele>
        <time>2021-03-20T13:41:19.000Z</time>
      </trkpt>
      <trkpt lat="47.27228" lon="-1.41844">
        <ele>58</ele>
        <time>2021-03-20T13:41:21.000Z</time>
      </trkpt>
      <trkpt lat="47.27219" lon="-1.41861">
        <ele>58</ele>
        <time>2021-03-20T13:41:23.000Z</time>
      </trkpt>
      <trkpt lat="47.27209" lon="-1.41877">
        <ele>58</ele>
        <time>2021-03-20T13:41:25.000Z</time>
      </trkpt>
      <trkpt lat="47.272" lon="-1.41893">
        <ele>58</ele>
        <time>2021-03-20T13:41:27.000Z</time>
      </trkpt>
      <trkpt lat="47.27191" lon="-1.41909">
        <ele>58</ele>
        <time>2021-03-20T13:41:29.000Z</time>
      </trkpt>
      <trkpt lat="47.2718" lon="-1.41924">
        <ele>58</ele>
        <time>2021-03-20T13:41:31.000Z</time>
      </trkpt>
      <trkpt lat="47.27171" lon="-1.41941">
        <ele>57</ele>
        <time>2021-03-20T13:41:33.000Z</time>
      </trkpt>
      <trkpt lat="47.27161" lon="-1.41958">
        <ele>57</ele>
        <time>2021-03-20T13:41:35.000Z</time>
      </trkpt>
      <trkpt lat="47.27151" lon="-1.41976">
        <ele>57</ele>
        <time>2021-03-20T13:41:37.000Z</time>
      </trkpt>
      <trkpt lat="47.27143" lon="-1.41993">
        <ele>57</ele>
        <time>2021-03-20T13:41:39.000Z</time>
      </trkpt>
      <trkpt lat="47.27134" lon="-1.4201">
        <ele>56</ele>
        <time>2021-03-20T13:41:41.000Z</time>
      </trkpt>
      <trkpt lat="47.27123" lon="-1.42026">
        <ele>56</ele>
        <time>2021-03-20T13:41:43.000Z</time>
      </trkpt>
      <trkpt lat="47.27113" lon="-1.42041">
        <ele>56</ele>
        <time>2021-03-20T13:41:45.000Z</time>
      </trkpt>
      <trkpt lat="47.27103" lon="-1.42056">
        <ele>57</ele>
        <time>2021-03-20T13:41:47.000Z</time>
      </trkpt>
      <trkpt lat="47.27093" lon="-1.42071">
        <ele>56</ele>
        <time>2021-03-20T13:41:49.000Z</time>
      </trkpt>
      <trkpt lat="47.27083" lon="-1.42088">
        <ele>56</ele>
        <time>2021-03-20T13:41:51.000Z</time>
      </trkpt>
      <trkpt lat="47.27074" lon="-1.42105">
        <ele>56</ele>
        <time>2021-03-20T13:41:53.000Z</time>
      </trkpt>
      <trkpt lat="47.27065" lon="-1.42121">
        <ele>56</ele>
        <time>2021-03-20T13:41:55.000Z</time>
      </trkpt>
      <trkpt lat="47.27056" lon="-1.42137">
        <ele>56</ele>
        <time>2021-03-20T13:41:57.000Z</time>
      </trkpt>
      <trkpt lat="47.27047" lon="-1.42153">
        <ele>56</ele>
        <time>2021-03-20T13:41:59.000Z</time>
      </trkpt>
      <trkpt lat="47.27038" lon="-1.4217">
        <ele>56</ele>
        <time>2021-03-20T13:42:01.000Z</time>
      </trkpt>
      <trkpt lat="47.27029" lon="-1.42185">
        <ele>56</ele>
        <time>2021-03-20T13:42:03.000Z</time>
      </trkpt>
      <trkpt lat="47.2702" lon="-1.422">
        <ele>56</ele>
        <time>2021-03-20T13:42:05.000Z</time>
      </trkpt>
      <trkpt lat="47.27011" lon="-1.42216">
        <ele>56</ele>
        <time>2021-03-20T13:42:07.000Z</time>
      </trkpt>
      <trkpt lat="47.27002" lon="-1.42232">
        <ele>56</ele>
        <time>2021-03-20T13:42:09.000Z</time>
      </trkpt>
      <trkpt lat="47.26993" lon="-1.42248">
        <ele>56</ele>
        <time>2021-03-20T13:42:11.000Z</time>
      </trkpt>
      <trkpt lat="47.26984" lon="-1.42264">
        <ele>56</ele>
        <time>2021-03-20T13:42:13.000Z</time>
      </trkpt>
      <trkpt lat="47.26975" lon="-1.4228">
        <ele>56</ele>
        <time>2021-03-20T13:42:15.000Z</time>
      </trkpt>
      <trkpt lat="47.26966" lon="-1.42296">
        <ele>56</ele>
        <time>2021-03-20T13:42:17.000Z</time>
      </trkpt>
      <trkpt lat="47.26957" lon="-1.42313">
        <ele>55</ele>
        <time>2021-03-20T13:42:19.000Z</time>
      </trkpt>
      <trkpt lat="47.26949" lon="-1.42329">
        <ele>55</ele>
        <time>2021-03-20T13:42:21.000Z</time>
      </trkpt>
      <trkpt lat="47.26941" lon="-1.42346">
        <ele>55</ele>
        <time>2021-03-20T13:42:23.000Z</time>
      </trkpt>
      <trkpt lat="47.26934" lon="-1.42362">
        <ele>56</ele>
        <time>2021-03-20T13:42:25.000Z</time>
      </trkpt>
      <trkpt lat="47.26926" lon="-1.4238">
        <ele>55</ele>
        <time>2021-03-20T13:42:27.000Z</time>
      </trkpt>
      <trkpt lat="47.26918" lon="-1.42396">
        <ele>55</ele>
        <time>2021-03-20T13:42:29.000Z</time>
      </trkpt>
      <trkpt lat="47.26909" lon="-1.42412">
        <ele>55</ele>
        <time>2021-03-20T13:42:31.000Z</time>
      </trkpt>
      <trkpt lat="47.26901" lon="-1.42428">
        <ele>55</ele>
        <time>2021-03-20T13:42:33.000Z</time>
      </trkpt>
      <trkpt lat="47.26892" lon="-1.42445">
        <ele>56</ele>
        <time>2021-03-20T13:42:35.000Z</time>
      </trkpt>
      <trkpt lat="47.26883" lon="-1.42462">
        <ele>56</ele>
        <time>2021-03-20T13:42:37.000Z</time>
      </trkpt>
      <trkpt lat="47.26873" lon="-1.42479">
        <ele>56</ele>
        <time>2021-03-20T13:42:39.000Z</time>
      </trkpt>
      <trkpt lat="47.26863" lon="-1.42497">
        <ele>56</ele>
        <time>2021-03-20T13:42:41.000Z</time>
      </trkpt>
      <trkpt lat="47.26853" lon="-1.42515">
        <ele>56</ele>
        <time>2021-03-20T13:42:43.000Z</time>
      </trkpt>
      <trkpt lat="47.26844" lon="-1.42533">
        <ele>55</ele>
        <time>2021-03-20T13:42:45.000Z</time>
      </trkpt>
      <trkpt lat="47.26834" lon="-1.42552">
        <ele>55</ele>
        <time>2021-03-20T13:42:47.000Z</time>
      </trkpt>
      <trkpt lat="47.26824" lon="-1.42572">
        <ele>55</ele>
        <time>2021-03-20T13:42:49.000Z</time>
      </trkpt>
      <trkpt lat="47.26815" lon="-1.42591">
        <ele>55</ele>
        <time>2021-03-20T13:42:51.000Z</time>
      </trkpt>
      <trkpt lat="47.26807" lon="-1.4261">
        <ele>55</ele>
        <time>2021-03-20T13:42:53.000Z</time>
      </trkpt>
      <trkpt lat="47.26799" lon="-1.4263">
        <ele>55</ele>
        <time>2021-03-20T13:42:55.000Z</time>
      </trkpt>
      <trkpt lat="47.26791" lon="-1.42649">
        <ele>55</ele>
        <time>2021-03-20T13:42:57.000Z</time>
      </trkpt>
      <trkpt lat="47.26784" lon="-1.42669">
        <ele>55</ele>
        <time>2021-03-20T13:42:59.000Z</time>
      </trkpt>
      <trkpt lat="47.26777" lon="-1.42688">
        <ele>55</ele>
        <time>2021-03-20T13:43:01.000Z</time>
      </trkpt>
      <trkpt lat="47.26771" lon="-1.42708">
        <ele>56</ele>
        <time>2021-03-20T13:43:03.000Z</time>
      </trkpt>
      <trkpt lat="47.26763" lon="-1.42727">
        <ele>56</ele>
        <time>2021-03-20T13:43:05.000Z</time>
      </trkpt>
      <trkpt lat="47.26753" lon="-1.42745">
        <ele>57</ele>
        <time>2021-03-20T13:43:07.000Z</time>
      </trkpt>
      <trkpt lat="47.26744" lon="-1.42762">
        <ele>57</ele>
        <time>2021-03-20T13:43:09.000Z</time>
      </trkpt>
      <trkpt lat="47.26737" lon="-1.42779">
        <ele>57</ele>
        <time>2021-03-20T13:43:11.000Z</time>
      </trkpt>
      <trkpt lat="47.26731" lon="-1.42799">
        <ele>58</ele>
        <time>2021-03-20T13:43:13.000Z</time>
      </trkpt>
      <trkpt lat="47.26727" lon="-1.42817">
        <ele>58</ele>
        <time>2021-03-20T13:43:15.000Z</time>
      </trkpt>
      <trkpt lat="47.26722" lon="-1.42835">
        <ele>58</ele>
        <time>2021-03-20T13:43:17.000Z</time>
      </trkpt>
      <trkpt lat="47.26716" lon="-1.42855">
        <ele>58</ele>
        <time>2021-03-20T13:43:19.000Z</time>
      </trkpt>
      <trkpt lat="47.26709" lon="-1.42873">
        <ele>58</ele>
        <time>2021-03-20T13:43:21.000Z</time>
      </trkpt>
      <trkpt lat="47.267" lon="-1.4289">
        <ele>58</ele>
        <time>2021-03-20T13:43:23.000Z</time>
      </trkpt>
      <trkpt lat="47.26691" lon="-1.42908">
        <ele>57</ele>
        <time>2021-03-20T13:43:25.000Z</time>
      </trkpt>
      <trkpt lat="47.26681" lon="-1.42925">
        <ele>57</ele>
        <time>2021-03-20T13:43:27.000Z</time>
      </trkpt>
      <trkpt lat="47.26672" lon="-1.42943">
        <ele>56</ele>
        <time>2021-03-20T13:43:29.000Z</time>
      </trkpt>
      <trkpt lat="47.26663" lon="-1.4296">
        <ele>56</ele>
        <time>2021-03-20T13:43:31.000Z</time>
      </trkpt>
      <trkpt lat="47.26655" lon="-1.42977">
        <ele>56</ele>
        <time>2021-03-20T13:43:33.000Z</time>
      </trkpt>
      <trkpt lat="47.26646" lon="-1.42994">
        <ele>56</ele>
        <time>2021-03-20T13:43:35.000Z</time>
      </trkpt>
      <trkpt lat="47.26638" lon="-1.43011">
        <ele>55</ele>
        <time>2021-03-20T13:43:37.000Z</time>
      </trkpt>
      <trkpt lat="47.26629" lon="-1.43028">
        <ele>55</ele>
        <time>2021-03-20T13:43:39.000Z</time>
      </trkpt>
      <trkpt lat="47.2662" lon="-1.43044">
        <ele>55</ele>
        <time>2021-03-20T13:43:41.000Z</time>
      </trkpt>
      <trkpt lat="47.26612" lon="-1.43061">
        <ele>55</ele>
        <time>2021-03-20T13:43:43.000Z</time>
      </trkpt>
      <trkpt lat="47.26603" lon="-1.43077">
        <ele>55</ele>
        <time>2021-03-20T13:43:45.000Z</time>
      </trkpt>
      <trkpt lat="47.26595" lon="-1.43093">
        <ele>55</ele>
        <time>2021-03-20T13:43:47.000Z</time>
      </trkpt>
      <trkpt lat="47.26585" lon="-1.43108">
        <ele>55</ele>
        <time>2021-03-20T13:43:49.000Z</time>
      </trkpt>
      <trkpt lat="47.26576" lon="-1.43122">
        <ele>55</ele>
        <time>2021-03-20T13:43:51.000Z</time>
      </trkpt>
      <trkpt lat="47.26566" lon="-1.43137">
        <ele>55</ele>
        <time>2021-03-20T13:43:53.000Z</time>
      </trkpt>
      <trkpt lat="47.26557" lon="-1.43153">
        <ele>55</ele>
        <time>2021-03-20T13:43:55.000Z</time>
      </trkpt>
      <trkpt lat="47.26548" lon="-1.43168">
        <ele>54</ele>
        <time>2021-03-20T13:43:57.000Z</time>
      </trkpt>
      <trkpt lat="47.26538" lon="-1.43183">
        <ele>54</ele>
        <time>2021-03-20T13:43:59.000Z</time>
      </trkpt>
      <trkpt lat="47.26528" lon="-1.43198">
        <ele>54</ele>
        <time>2021-03-20T13:44:01.000Z</time>
      </trkpt>
      <trkpt lat="47.26519" lon="-1.43212">
        <ele>54</ele>
        <time>2021-03-20T13:44:03.000Z</time>
      </trkpt>
      <trkpt lat="47.26509" lon="-1.43225">
        <ele>53</ele>
        <time>2021-03-20T13:44:05.000Z</time>
      </trkpt>
      <trkpt lat="47.26499" lon="-1.43239">
        <ele>54</ele>
        <time>2021-03-20T13:44:07.000Z</time>
      </trkpt>
      <trkpt lat="47.26488" lon="-1.43252">
        <ele>54</ele>
        <time>2021-03-20T13:44:09.000Z</time>
      </trkpt>
      <trkpt lat="47.26479" lon="-1.43265">
        <ele>53</ele>
        <time>2021-03-20T13:44:11.000Z</time>
      </trkpt>
      <trkpt lat="47.26471" lon="-1.43277">
        <ele>54</ele>
        <time>2021-03-20T13:44:13.000Z</time>
      </trkpt>
      <trkpt lat="47.26461" lon="-1.43291">
        <ele>54</ele>
        <time>2021-03-20T13:44:15.000Z</time>
      </trkpt>
      <trkpt lat="47.26454" lon="-1.43306">
        <ele>54</ele>
        <time>2021-03-20T13:44:17.000Z</time>
      </trkpt>
      <trkpt lat="47.26444" lon="-1.43322">
        <ele>54</ele>
        <time>2021-03-20T13:44:19.000Z</time>
      </trkpt>
      <trkpt lat="47.26433" lon="-1.43337">
        <ele>54</ele>
        <time>2021-03-20T13:44:21.000Z</time>
      </trkpt>
      <trkpt lat="47.26422" lon="-1.43351">
        <ele>54</ele>
        <time>2021-03-20T13:44:23.000Z</time>
      </trkpt>
      <trkpt lat="47.2641" lon="-1.43364">
        <ele>55</ele>
        <time>2021-03-20T13:44:25.000Z</time>
      </trkpt>
      <trkpt lat="47.26399" lon="-1.43376">
        <ele>55</ele>
        <time>2021-03-20T13:44:27.000Z</time>
      </trkpt>
      <trkpt lat="47.26388" lon="-1.43388">
        <ele>55</ele>
        <time>2021-03-20T13:44:29.000Z</time>
      </trkpt>
      <trkpt lat="47.26377" lon="-1.434">
        <ele>54</ele>
        <time>2021-03-20T13:44:31.000Z</time>
      </trkpt>
      <trkpt lat="47.26366" lon="-1.43413">
        <ele>54</ele>
        <time>2021-03-20T13:44:33.000Z</time>
      </trkpt>
      <trkpt lat="47.26356" lon="-1.43425">
        <ele>54</ele>
        <time>2021-03-20T13:44:35.000Z</time>
      </trkpt>
      <trkpt lat="47.26345" lon="-1.43436">
        <ele>54</ele>
        <time>2021-03-20T13:44:37.000Z</time>
      </trkpt>
      <trkpt lat="47.26334" lon="-1.43448">
        <ele>54</ele>
        <time>2021-03-20T13:44:39.000Z</time>
      </trkpt>
      <trkpt lat="47.26324" lon="-1.43459">
        <ele>54</ele>
        <time>2021-03-20T13:44:41.000Z</time>
      </trkpt>
      <trkpt lat="47.26313" lon="-1.4347">
        <ele>55</ele>
        <time>2021-03-20T13:44:43.000Z</time>
      </trkpt>
      <trkpt lat="47.26303" lon="-1.43482">
        <ele>55</ele>
        <time>2021-03-20T13:44:45.000Z</time>
      </trkpt>
      <trkpt lat="47.26292" lon="-1.43492">
        <ele>55</ele>
        <time>2021-03-20T13:44:47.000Z</time>
      </trkpt>
      <trkpt lat="47.26282" lon="-1.43503">
        <ele>55</ele>
        <time>2021-03-20T13:44:49.000Z</time>
      </trkpt>
      <trkpt lat="47.26272" lon="-1.43514">
        <ele>55</ele>
        <time>2021-03-20T13:44:51.000Z</time>
      </trkpt>
      <trkpt lat="47.26263" lon="-1.43525">
        <ele>56</ele>
        <time>2021-03-20T13:44:53.000Z</time>
      </trkpt>
      <trkpt lat="47.26255" lon="-1.43535">
        <ele>57</ele>
        <time>2021-03-20T13:44:55.000Z</time>
      </trkpt>
      <trkpt lat="47.26247" lon="-1.43546">
        <ele>57</ele>
        <time>2021-03-20T13:44:58.000Z</time>
      </trkpt>
      <trkpt lat="47.26238" lon="-1.43558">
        <ele>58</ele>
        <time>2021-03-20T13:45:02.000Z</time>
      </trkpt>
      <trkpt lat="47.26231" lon="-1.43568">
        <ele>58</ele>
        <time>2021-03-20T13:45:04.000Z</time>
      </trkpt>
      <trkpt lat="47.26222" lon="-1.43581">
        <ele>57</ele>
        <time>2021-03-20T13:45:06.000Z</time>
      </trkpt>
      <trkpt lat="47.26212" lon="-1.43594">
        <ele>56</ele>
        <time>2021-03-20T13:45:08.000Z</time>
      </trkpt>
      <trkpt lat="47.26202" lon="-1.43609">
        <ele>56</ele>
        <time>2021-03-20T13:45:10.000Z</time>
      </trkpt>
      <trkpt lat="47.26191" lon="-1.43624">
        <ele>56</ele>
        <time>2021-03-20T13:45:12.000Z</time>
      </trkpt>
      <trkpt lat="47.2618" lon="-1.43638">
        <ele>55</ele>
        <time>2021-03-20T13:45:14.000Z</time>
      </trkpt>
      <trkpt lat="47.2617" lon="-1.43654">
        <ele>55</ele>
        <time>2021-03-20T13:45:16.000Z</time>
      </trkpt>
      <trkpt lat="47.2616" lon="-1.4367">
        <ele>55</ele>
        <time>2021-03-20T13:45:18.000Z</time>
      </trkpt>
      <trkpt lat="47.26149" lon="-1.43686">
        <ele>55</ele>
        <time>2021-03-20T13:45:20.000Z</time>
      </trkpt>
      <trkpt lat="47.26139" lon="-1.43702">
        <ele>55</ele>
        <time>2021-03-20T13:45:22.000Z</time>
      </trkpt>
      <trkpt lat="47.26129" lon="-1.43716">
        <ele>55</ele>
        <time>2021-03-20T13:45:24.000Z</time>
      </trkpt>
      <trkpt lat="47.2612" lon="-1.43732">
        <ele>55</ele>
        <time>2021-03-20T13:45:26.000Z</time>
      </trkpt>
      <trkpt lat="47.26109" lon="-1.43746">
        <ele>55</ele>
        <time>2021-03-20T13:45:28.000Z</time>
      </trkpt>
      <trkpt lat="47.26099" lon="-1.4376">
        <ele>55</ele>
        <time>2021-03-20T13:45:30.000Z</time>
      </trkpt>
      <trkpt lat="47.26089" lon="-1.43773">
        <ele>55</ele>
        <time>2021-03-20T13:45:32.000Z</time>
      </trkpt>
      <trkpt lat="47.26078" lon="-1.43786">
        <ele>55</ele>
        <time>2021-03-20T13:45:34.000Z</time>
      </trkpt>
      <trkpt lat="47.26067" lon="-1.43801">
        <ele>55</ele>
        <time>2021-03-20T13:45:36.000Z</time>
      </trkpt>
      <trkpt lat="47.26057" lon="-1.43816">
        <ele>54</ele>
        <time>2021-03-20T13:45:38.000Z</time>
      </trkpt>
      <trkpt lat="47.26049" lon="-1.43832">
        <ele>54</ele>
        <time>2021-03-20T13:45:40.000Z</time>
      </trkpt>
      <trkpt lat="47.26044" lon="-1.43848">
        <ele>55</ele>
        <time>2021-03-20T13:45:42.000Z</time>
      </trkpt>
      <trkpt lat="47.26035" lon="-1.43863">
        <ele>55</ele>
        <time>2021-03-20T13:45:44.000Z</time>
      </trkpt>
      <trkpt lat="47.26022" lon="-1.43874">
        <ele>55</ele>
        <time>2021-03-20T13:45:46.000Z</time>
      </trkpt>
      <trkpt lat="47.2601" lon="-1.43887">
        <ele>55</ele>
        <time>2021-03-20T13:45:48.000Z</time>
      </trkpt>
      <trkpt lat="47.25998" lon="-1.43898">
        <ele>55</ele>
        <time>2021-03-20T13:45:50.000Z</time>
      </trkpt>
      <trkpt lat="47.25987" lon="-1.43911">
        <ele>55</ele>
        <time>2021-03-20T13:45:52.000Z</time>
      </trkpt>
      <trkpt lat="47.25975" lon="-1.43925">
        <ele>55</ele>
        <time>2021-03-20T13:45:54.000Z</time>
      </trkpt>
      <trkpt lat="47.25965" lon="-1.43939">
        <ele>55</ele>
        <time>2021-03-20T13:45:56.000Z</time>
      </trkpt>
      <trkpt lat="47.25953" lon="-1.43953">
        <ele>55</ele>
        <time>2021-03-20T13:45:58.000Z</time>
      </trkpt>
      <trkpt lat="47.25942" lon="-1.43966">
        <ele>55</ele>
        <time>2021-03-20T13:46:00.000Z</time>
      </trkpt>
      <trkpt lat="47.2593" lon="-1.43979">
        <ele>55</ele>
        <time>2021-03-20T13:46:02.000Z</time>
      </trkpt>
      <trkpt lat="47.2592" lon="-1.43991">
        <ele>55</ele>
        <time>2021-03-20T13:46:04.000Z</time>
      </trkpt>
      <trkpt lat="47.25908" lon="-1.44005">
        <ele>55</ele>
        <time>2021-03-20T13:46:06.000Z</time>
      </trkpt>
      <trkpt lat="47.25896" lon="-1.44019">
        <ele>55</ele>
        <time>2021-03-20T13:46:08.000Z</time>
      </trkpt>
      <trkpt lat="47.25884" lon="-1.44033">
        <ele>54</ele>
        <time>2021-03-20T13:46:10.000Z</time>
      </trkpt>
      <trkpt lat="47.25875" lon="-1.44049">
        <ele>55</ele>
        <time>2021-03-20T13:46:12.000Z</time>
      </trkpt>
      <trkpt lat="47.2587" lon="-1.44067">
        <ele>54</ele>
        <time>2021-03-20T13:46:14.000Z</time>
      </trkpt>
      <trkpt lat="47.25863" lon="-1.44084">
        <ele>55</ele>
        <time>2021-03-20T13:46:16.000Z</time>
      </trkpt>
      <trkpt lat="47.25852" lon="-1.44098">
        <ele>55</ele>
        <time>2021-03-20T13:46:18.000Z</time>
      </trkpt>
      <trkpt lat="47.25841" lon="-1.44112">
        <ele>55</ele>
        <time>2021-03-20T13:46:20.000Z</time>
      </trkpt>
      <trkpt lat="47.2583" lon="-1.44126">
        <ele>55</ele>
        <time>2021-03-20T13:46:22.000Z</time>
      </trkpt>
      <trkpt lat="47.25818" lon="-1.44139">
        <ele>54</ele>
        <time>2021-03-20T13:46:24.000Z</time>
      </trkpt>
      <trkpt lat="47.25807" lon="-1.44152">
        <ele>54</ele>
        <time>2021-03-20T13:46:26.000Z</time>
      </trkpt>
      <trkpt lat="47.25794" lon="-1.44165">
        <ele>55</ele>
        <time>2021-03-20T13:46:28.000Z</time>
      </trkpt>
      <trkpt lat="47.25783" lon="-1.44178">
        <ele>54</ele>
        <time>2021-03-20T13:46:30.000Z</time>
      </trkpt>
      <trkpt lat="47.25771" lon="-1.44191">
        <ele>54</ele>
        <time>2021-03-20T13:46:32.000Z</time>
      </trkpt>
      <trkpt lat="47.2576" lon="-1.44205">
        <ele>54</ele>
        <time>2021-03-20T13:46:34.000Z</time>
      </trkpt>
      <trkpt lat="47.25749" lon="-1.44219">
        <ele>54</ele>
        <time>2021-03-20T13:46:36.000Z</time>
      </trkpt>
      <trkpt lat="47.25738" lon="-1.44233">
        <ele>54</ele>
        <time>2021-03-20T13:46:38.000Z</time>
      </trkpt>
      <trkpt lat="47.25727" lon="-1.44247">
        <ele>54</ele>
        <time>2021-03-20T13:46:40.000Z</time>
      </trkpt>
      <trkpt lat="47.25717" lon="-1.44261">
        <ele>54</ele>
        <time>2021-03-20T13:46:42.000Z</time>
      </trkpt>
      <trkpt lat="47.25706" lon="-1.44273">
        <ele>54</ele>
        <time>2021-03-20T13:46:44.000Z</time>
      </trkpt>
      <trkpt lat="47.25694" lon="-1.44286">
        <ele>54</ele>
        <time>2021-03-20T13:46:46.000Z</time>
      </trkpt>
      <trkpt lat="47.25683" lon="-1.44299">
        <ele>54</ele>
        <time>2021-03-20T13:46:48.000Z</time>
      </trkpt>
      <trkpt lat="47.25673" lon="-1.44313">
        <ele>54</ele>
        <time>2021-03-20T13:46:50.000Z</time>
      </trkpt>
      <trkpt lat="47.25663" lon="-1.44327">
        <ele>54</ele>
        <time>2021-03-20T13:46:52.000Z</time>
      </trkpt>
      <trkpt lat="47.25652" lon="-1.4434">
        <ele>54</ele>
        <time>2021-03-20T13:46:54.000Z</time>
      </trkpt>
      <trkpt lat="47.25641" lon="-1.44351">
        <ele>54</ele>
        <time>2021-03-20T13:46:56.000Z</time>
      </trkpt>
      <trkpt lat="47.25629" lon="-1.44363">
        <ele>54</ele>
        <time>2021-03-20T13:46:58.000Z</time>
      </trkpt>
      <trkpt lat="47.25618" lon="-1.44375">
        <ele>54</ele>
        <time>2021-03-20T13:47:00.000Z</time>
      </trkpt>
      <trkpt lat="47.25607" lon="-1.4439">
        <ele>53</ele>
        <time>2021-03-20T13:47:02.000Z</time>
      </trkpt>
      <trkpt lat="47.25596" lon="-1.44403">
        <ele>53</ele>
        <time>2021-03-20T13:47:04.000Z</time>
      </trkpt>
      <trkpt lat="47.25585" lon="-1.44416">
        <ele>53</ele>
        <time>2021-03-20T13:47:06.000Z</time>
      </trkpt>
      <trkpt lat="47.25575" lon="-1.44428">
        <ele>53</ele>
        <time>2021-03-20T13:47:08.000Z</time>
      </trkpt>
      <trkpt lat="47.25564" lon="-1.44441">
        <ele>53</ele>
        <time>2021-03-20T13:47:10.000Z</time>
      </trkpt>
      <trkpt lat="47.25552" lon="-1.44457">
        <ele>52</ele>
        <time>2021-03-20T13:47:12.000Z</time>
      </trkpt>
      <trkpt lat="47.25542" lon="-1.44473">
        <ele>52</ele>
        <time>2021-03-20T13:47:14.000Z</time>
      </trkpt>
      <trkpt lat="47.25532" lon="-1.44489">
        <ele>52</ele>
        <time>2021-03-20T13:47:16.000Z</time>
      </trkpt>
      <trkpt lat="47.25522" lon="-1.44504">
        <ele>53</ele>
        <time>2021-03-20T13:47:18.000Z</time>
      </trkpt>
      <trkpt lat="47.25512" lon="-1.4452">
        <ele>53</ele>
        <time>2021-03-20T13:47:20.000Z</time>
      </trkpt>
      <trkpt lat="47.25501" lon="-1.44534">
        <ele>53</ele>
        <time>2021-03-20T13:47:22.000Z</time>
      </trkpt>
      <trkpt lat="47.25491" lon="-1.44548">
        <ele>53</ele>
        <time>2021-03-20T13:47:24.000Z</time>
      </trkpt>
      <trkpt lat="47.2548" lon="-1.44564">
        <ele>54</ele>
        <time>2021-03-20T13:47:26.000Z</time>
      </trkpt>
      <trkpt lat="47.2547" lon="-1.44579">
        <ele>53</ele>
        <time>2021-03-20T13:47:28.000Z</time>
      </trkpt>
      <trkpt lat="47.2546" lon="-1.44594">
        <ele>53</ele>
        <time>2021-03-20T13:47:30.000Z</time>
      </trkpt>
      <trkpt lat="47.2545" lon="-1.44609">
        <ele>53</ele>
        <time>2021-03-20T13:47:32.000Z</time>
      </trkpt>
      <trkpt lat="47.2544" lon="-1.44623">
        <ele>53</ele>
        <time>2021-03-20T13:47:34.000Z</time>
      </trkpt>
      <trkpt lat="47.2543" lon="-1.44638">
        <ele>52</ele>
        <time>2021-03-20T13:47:36.000Z</time>
      </trkpt>
      <trkpt lat="47.2542" lon="-1.44652">
        <ele>52</ele>
        <time>2021-03-20T13:47:38.000Z</time>
      </trkpt>
      <trkpt lat="47.2541" lon="-1.44666">
        <ele>52</ele>
        <time>2021-03-20T13:47:40.000Z</time>
      </trkpt>
      <trkpt lat="47.25399" lon="-1.4468">
        <ele>53</ele>
        <time>2021-03-20T13:47:42.000Z</time>
      </trkpt>
      <trkpt lat="47.25388" lon="-1.44694">
        <ele>52</ele>
        <time>2021-03-20T13:47:44.000Z</time>
      </trkpt>
      <trkpt lat="47.25376" lon="-1.44707">
        <ele>52</ele>
        <time>2021-03-20T13:47:46.000Z</time>
      </trkpt>
      <trkpt lat="47.25366" lon="-1.4472">
        <ele>53</ele>
        <time>2021-03-20T13:47:48.000Z</time>
      </trkpt>
      <trkpt lat="47.25355" lon="-1.44732">
        <ele>53</ele>
        <time>2021-03-20T13:47:50.000Z</time>
      </trkpt>
      <trkpt lat="47.25343" lon="-1.44743">
        <ele>53</ele>
        <time>2021-03-20T13:47:52.000Z</time>
      </trkpt>
      <trkpt lat="47.25331" lon="-1.44753">
        <ele>54</ele>
        <time>2021-03-20T13:47:54.000Z</time>
      </trkpt>
      <trkpt lat="47.25319" lon="-1.44765">
        <ele>54</ele>
        <time>2021-03-20T13:47:56.000Z</time>
      </trkpt>
      <trkpt lat="47.25309" lon="-1.44778">
        <ele>54</ele>
        <time>2021-03-20T13:47:58.000Z</time>
      </trkpt>
      <trkpt lat="47.25298" lon="-1.44789">
        <ele>54</ele>
        <time>2021-03-20T13:48:00.000Z</time>
      </trkpt>
      <trkpt lat="47.25288" lon="-1.44801">
        <ele>54</ele>
        <time>2021-03-20T13:48:02.000Z</time>
      </trkpt>
      <trkpt lat="47.25278" lon="-1.44813">
        <ele>54</ele>
        <time>2021-03-20T13:48:04.000Z</time>
      </trkpt>
      <trkpt lat="47.25269" lon="-1.44825">
        <ele>55</ele>
        <time>2021-03-20T13:48:06.000Z</time>
      </trkpt>
      <trkpt lat="47.25259" lon="-1.44838">
        <ele>55</ele>
        <time>2021-03-20T13:48:08.000Z</time>
      </trkpt>
      <trkpt lat="47.25248" lon="-1.4485">
        <ele>55</ele>
        <time>2021-03-20T13:48:10.000Z</time>
      </trkpt>
      <trkpt lat="47.25238" lon="-1.44862">
        <ele>55</ele>
        <time>2021-03-20T13:48:12.000Z</time>
      </trkpt>
      <trkpt lat="47.25226" lon="-1.44872">
        <ele>54</ele>
        <time>2021-03-20T13:48:14.000Z</time>
      </trkpt>
      <trkpt lat="47.25212" lon="-1.44884">
        <ele>54</ele>
        <time>2021-03-20T13:48:16.000Z</time>
      </trkpt>
      <trkpt lat="47.25196" lon="-1.44897">
        <ele>53</ele>
        <time>2021-03-20T13:48:18.000Z</time>
      </trkpt>
      <trkpt lat="47.25188" lon="-1.44904">
        <ele>53</ele>
        <time>2021-03-20T13:48:19.000Z</time>
      </trkpt>
      <trkpt lat="47.25179" lon="-1.44911">
        <ele>53</ele>
        <time>2021-03-20T13:48:20.000Z</time>
      </trkpt>
      <trkpt lat="47.25164" lon="-1.44923">
        <ele>53</ele>
        <time>2021-03-20T13:48:22.000Z</time>
      </trkpt>
      <trkpt lat="47.25149" lon="-1.44936">
        <ele>53</ele>
        <time>2021-03-20T13:48:24.000Z</time>
      </trkpt>
      <trkpt lat="47.25141" lon="-1.44942">
        <ele>53</ele>
        <time>2021-03-20T13:48:25.000Z</time>
      </trkpt>
      <trkpt lat="47.25126" lon="-1.44956">
        <ele>53</ele>
        <time>2021-03-20T13:48:27.000Z</time>
      </trkpt>
      <trkpt lat="47.25112" lon="-1.4497">
        <ele>52</ele>
        <time>2021-03-20T13:48:29.000Z</time>
      </trkpt>
      <trkpt lat="47.25098" lon="-1.44983">
        <ele>52</ele>
        <time>2021-03-20T13:48:31.000Z</time>
      </trkpt>
      <trkpt lat="47.25083" lon="-1.44996">
        <ele>53</ele>
        <time>2021-03-20T13:48:33.000Z</time>
      </trkpt>
      <trkpt lat="47.25067" lon="-1.45008">
        <ele>53</ele>
        <time>2021-03-20T13:48:35.000Z</time>
      </trkpt>
      <trkpt lat="47.25053" lon="-1.4502">
        <ele>53</ele>
        <time>2021-03-20T13:48:37.000Z</time>
      </trkpt>
      <trkpt lat="47.25038" lon="-1.45032">
        <ele>53</ele>
        <time>2021-03-20T13:48:39.000Z</time>
      </trkpt>
      <trkpt lat="47.25023" lon="-1.45044">
        <ele>53</ele>
        <time>2021-03-20T13:48:41.000Z</time>
      </trkpt>
      <trkpt lat="47.25008" lon="-1.45055">
        <ele>53</ele>
        <time>2021-03-20T13:48:43.000Z</time>
      </trkpt>
      <trkpt lat="47.24995" lon="-1.45069">
        <ele>53</ele>
        <time>2021-03-20T13:48:45.000Z</time>
      </trkpt>
      <trkpt lat="47.24983" lon="-1.45087">
        <ele>53</ele>
        <time>2021-03-20T13:48:47.000Z</time>
      </trkpt>
      <trkpt lat="47.24971" lon="-1.45101">
        <ele>53</ele>
        <time>2021-03-20T13:48:49.000Z</time>
      </trkpt>
      <trkpt lat="47.24958" lon="-1.45116">
        <ele>53</ele>
        <time>2021-03-20T13:48:51.000Z</time>
      </trkpt>
      <trkpt lat="47.24944" lon="-1.45129">
        <ele>53</ele>
        <time>2021-03-20T13:48:53.000Z</time>
      </trkpt>
      <trkpt lat="47.24931" lon="-1.45144">
        <ele>53</ele>
        <time>2021-03-20T13:48:55.000Z</time>
      </trkpt>
      <trkpt lat="47.24918" lon="-1.45157">
        <ele>53</ele>
        <time>2021-03-20T13:48:57.000Z</time>
      </trkpt>
      <trkpt lat="47.24906" lon="-1.4517">
        <ele>54</ele>
        <time>2021-03-20T13:48:59.000Z</time>
      </trkpt>
      <trkpt lat="47.24896" lon="-1.45185">
        <ele>54</ele>
        <time>2021-03-20T13:49:01.000Z</time>
      </trkpt>
      <trkpt lat="47.24886" lon="-1.452">
        <ele>54</ele>
        <time>2021-03-20T13:49:03.000Z</time>
      </trkpt>
      <trkpt lat="47.24876" lon="-1.45213">
        <ele>54</ele>
        <time>2021-03-20T13:49:05.000Z</time>
      </trkpt>
      <trkpt lat="47.24867" lon="-1.45226">
        <ele>53</ele>
        <time>2021-03-20T13:49:07.000Z</time>
      </trkpt>
      <trkpt lat="47.24858" lon="-1.45239">
        <ele>53</ele>
        <time>2021-03-20T13:49:09.000Z</time>
      </trkpt>
      <trkpt lat="47.2485" lon="-1.45253">
        <ele>53</ele>
        <time>2021-03-20T13:49:11.000Z</time>
      </trkpt>
      <trkpt lat="47.24843" lon="-1.45267">
        <ele>52</ele>
        <time>2021-03-20T13:49:13.000Z</time>
      </trkpt>
      <trkpt lat="47.24835" lon="-1.45281">
        <ele>52</ele>
        <time>2021-03-20T13:49:15.000Z</time>
      </trkpt>
      <trkpt lat="47.24827" lon="-1.45296">
        <ele>52</ele>
        <time>2021-03-20T13:49:17.000Z</time>
      </trkpt>
      <trkpt lat="47.24819" lon="-1.45312">
        <ele>51</ele>
        <time>2021-03-20T13:49:19.000Z</time>
      </trkpt>
      <trkpt lat="47.24811" lon="-1.45329">
        <ele>51</ele>
        <time>2021-03-20T13:49:21.000Z</time>
      </trkpt>
      <trkpt lat="47.24803" lon="-1.45346">
        <ele>51</ele>
        <time>2021-03-20T13:49:23.000Z</time>
      </trkpt>
      <trkpt lat="47.24796" lon="-1.45364">
        <ele>51</ele>
        <time>2021-03-20T13:49:25.000Z</time>
      </trkpt>
      <trkpt lat="47.24789" lon="-1.45381">
        <ele>52</ele>
        <time>2021-03-20T13:49:27.000Z</time>
      </trkpt>
      <trkpt lat="47.24782" lon="-1.45399">
        <ele>53</ele>
        <time>2021-03-20T13:49:29.000Z</time>
      </trkpt>
      <trkpt lat="47.24773" lon="-1.45418">
        <ele>53</ele>
        <time>2021-03-20T13:49:31.000Z</time>
      </trkpt>
      <trkpt lat="47.24765" lon="-1.45436">
        <ele>53</ele>
        <time>2021-03-20T13:49:33.000Z</time>
      </trkpt>
      <trkpt lat="47.24757" lon="-1.45454">
        <ele>54</ele>
        <time>2021-03-20T13:49:35.000Z</time>
      </trkpt>
      <trkpt lat="47.2475" lon="-1.45473">
        <ele>54</ele>
        <time>2021-03-20T13:49:37.000Z</time>
      </trkpt>
      <trkpt lat="47.24743" lon="-1.45489">
        <ele>54</ele>
        <time>2021-03-20T13:49:39.000Z</time>
      </trkpt>
      <trkpt lat="47.24735" lon="-1.45507">
        <ele>54</ele>
        <time>2021-03-20T13:49:41.000Z</time>
      </trkpt>
      <trkpt lat="47.24728" lon="-1.45524">
        <ele>54</ele>
        <time>2021-03-20T13:49:43.000Z</time>
      </trkpt>
      <trkpt lat="47.2472" lon="-1.45543">
        <ele>55</ele>
        <time>2021-03-20T13:49:45.000Z</time>
      </trkpt>
      <trkpt lat="47.24714" lon="-1.45561">
        <ele>54</ele>
        <time>2021-03-20T13:49:47.000Z</time>
      </trkpt>
      <trkpt lat="47.24708" lon="-1.4558">
        <ele>55</ele>
        <time>2021-03-20T13:49:49.000Z</time>
      </trkpt>
      <trkpt lat="47.24702" lon="-1.45598">
        <ele>55</ele>
        <time>2021-03-20T13:49:51.000Z</time>
      </trkpt>
      <trkpt lat="47.24696" lon="-1.45615">
        <ele>55</ele>
        <time>2021-03-20T13:49:53.000Z</time>
      </trkpt>
      <trkpt lat="47.2469" lon="-1.45633">
        <ele>55</ele>
        <time>2021-03-20T13:49:55.000Z</time>
      </trkpt>
      <trkpt lat="47.24685" lon="-1.4565">
        <ele>55</ele>
        <time>2021-03-20T13:49:57.000Z</time>
      </trkpt>
      <trkpt lat="47.24679" lon="-1.45667">
        <ele>55</ele>
        <time>2021-03-20T13:49:59.000Z</time>
      </trkpt>
      <trkpt lat="47.24675" lon="-1.45685">
        <ele>56</ele>
        <time>2021-03-20T13:50:01.000Z</time>
      </trkpt>
      <trkpt lat="47.24671" lon="-1.45704">
        <ele>55</ele>
        <time>2021-03-20T13:50:03.000Z</time>
      </trkpt>
      <trkpt lat="47.24667" lon="-1.45723">
        <ele>56</ele>
        <time>2021-03-20T13:50:05.000Z</time>
      </trkpt>
      <trkpt lat="47.24662" lon="-1.45752">
        <ele>56</ele>
        <time>2021-03-20T13:50:08.000Z</time>
      </trkpt>
      <trkpt lat="47.24655" lon="-1.45777">
        <ele>57</ele>
        <time>2021-03-20T13:50:11.000Z</time>
      </trkpt>
      <trkpt lat="47.24652" lon="-1.45793">
        <ele>54</ele>
        <time>2021-03-20T13:50:13.000Z</time>
      </trkpt>
      <trkpt lat="47.24648" lon="-1.4581">
        <ele>55</ele>
        <time>2021-03-20T13:50:15.000Z</time>
      </trkpt>
      <trkpt lat="47.24643" lon="-1.45827">
        <ele>55</ele>
        <time>2021-03-20T13:50:17.000Z</time>
      </trkpt>
      <trkpt lat="47.24638" lon="-1.45845">
        <ele>54</ele>
        <time>2021-03-20T13:50:19.000Z</time>
      </trkpt>
      <trkpt lat="47.24631" lon="-1.45872">
        <ele>54</ele>
        <time>2021-03-20T13:50:22.000Z</time>
      </trkpt>
      <trkpt lat="47.24626" lon="-1.45897">
        <ele>55</ele>
        <time>2021-03-20T13:50:25.000Z</time>
      </trkpt>
      <trkpt lat="47.24622" lon="-1.45918">
        <ele>54</ele>
        <time>2021-03-20T13:50:27.000Z</time>
      </trkpt>
      <trkpt lat="47.24614" lon="-1.45933">
        <ele>54</ele>
        <time>2021-03-20T13:50:29.000Z</time>
      </trkpt>
      <trkpt lat="47.24605" lon="-1.45949">
        <ele>54</ele>
        <time>2021-03-20T13:50:31.000Z</time>
      </trkpt>
      <trkpt lat="47.24602" lon="-1.45969">
        <ele>51</ele>
        <time>2021-03-20T13:50:33.000Z</time>
      </trkpt>
      <trkpt lat="47.24593" lon="-1.45986">
        <ele>52</ele>
        <time>2021-03-20T13:50:35.000Z</time>
      </trkpt>
      <trkpt lat="47.24584" lon="-1.46004">
        <ele>53</ele>
        <time>2021-03-20T13:50:37.000Z</time>
      </trkpt>
      <trkpt lat="47.24573" lon="-1.46022">
        <ele>54</ele>
        <time>2021-03-20T13:50:39.000Z</time>
      </trkpt>
      <trkpt lat="47.24562" lon="-1.46038">
        <ele>55</ele>
        <time>2021-03-20T13:50:41.000Z</time>
      </trkpt>
      <trkpt lat="47.24552" lon="-1.46057">
        <ele>53</ele>
        <time>2021-03-20T13:50:43.000Z</time>
      </trkpt>
      <trkpt lat="47.24542" lon="-1.46073">
        <ele>54</ele>
        <time>2021-03-20T13:50:45.000Z</time>
      </trkpt>
      <trkpt lat="47.24533" lon="-1.46088">
        <ele>55</ele>
        <time>2021-03-20T13:50:47.000Z</time>
      </trkpt>
      <trkpt lat="47.24524" lon="-1.46105">
        <ele>55</ele>
        <time>2021-03-20T13:50:49.000Z</time>
      </trkpt>
      <trkpt lat="47.24513" lon="-1.46116">
        <ele>54</ele>
        <time>2021-03-20T13:50:51.000Z</time>
      </trkpt>
      <trkpt lat="47.24501" lon="-1.46129">
        <ele>54</ele>
        <time>2021-03-20T13:50:53.000Z</time>
      </trkpt>
      <trkpt lat="47.2449" lon="-1.46145">
        <ele>56</ele>
        <time>2021-03-20T13:50:55.000Z</time>
      </trkpt>
      <trkpt lat="47.24472" lon="-1.46169">
        <ele>56</ele>
        <time>2021-03-20T13:50:58.000Z</time>
      </trkpt>
      <trkpt lat="47.24459" lon="-1.46184">
        <ele>56</ele>
        <time>2021-03-20T13:51:00.000Z</time>
      </trkpt>
      <trkpt lat="47.24446" lon="-1.46199">
        <ele>56</ele>
        <time>2021-03-20T13:51:02.000Z</time>
      </trkpt>
      <trkpt lat="47.24434" lon="-1.46214">
        <ele>56</ele>
        <time>2021-03-20T13:51:04.000Z</time>
      </trkpt>
      <trkpt lat="47.24422" lon="-1.4623">
        <ele>56</ele>
        <time>2021-03-20T13:51:06.000Z</time>
      </trkpt>
      <trkpt lat="47.2441" lon="-1.46245">
        <ele>56</ele>
        <time>2021-03-20T13:51:08.000Z</time>
      </trkpt>
      <trkpt lat="47.24393" lon="-1.46268">
        <ele>56</ele>
        <time>2021-03-20T13:51:11.000Z</time>
      </trkpt>
      <trkpt lat="47.24383" lon="-1.46282">
        <ele>56</ele>
        <time>2021-03-20T13:51:13.000Z</time>
      </trkpt>
      <trkpt lat="47.24373" lon="-1.46298">
        <ele>56</ele>
        <time>2021-03-20T13:51:15.000Z</time>
      </trkpt>
      <trkpt lat="47.24363" lon="-1.46315">
        <ele>56</ele>
        <time>2021-03-20T13:51:17.000Z</time>
      </trkpt>
      <trkpt lat="47.24355" lon="-1.46331">
        <ele>53</ele>
        <time>2021-03-20T13:51:19.000Z</time>
      </trkpt>
      <trkpt lat="47.24341" lon="-1.46355">
        <ele>54</ele>
        <time>2021-03-20T13:51:22.000Z</time>
      </trkpt>
      <trkpt lat="47.24331" lon="-1.46371">
        <ele>55</ele>
        <time>2021-03-20T13:51:24.000Z</time>
      </trkpt>
      <trkpt lat="47.24322" lon="-1.46388">
        <ele>56</ele>
        <time>2021-03-20T13:51:26.000Z</time>
      </trkpt>
      <trkpt lat="47.24313" lon="-1.46405">
        <ele>56</ele>
        <time>2021-03-20T13:51:28.000Z</time>
      </trkpt>
      <trkpt lat="47.24302" lon="-1.4642">
        <ele>54</ele>
        <time>2021-03-20T13:51:30.000Z</time>
      </trkpt>
      <trkpt lat="47.24292" lon="-1.46435">
        <ele>54</ele>
        <time>2021-03-20T13:51:32.000Z</time>
      </trkpt>
      <trkpt lat="47.24282" lon="-1.4645">
        <ele>53</ele>
        <time>2021-03-20T13:51:34.000Z</time>
      </trkpt>
      <trkpt lat="47.24272" lon="-1.46465">
        <ele>53</ele>
        <time>2021-03-20T13:51:36.000Z</time>
      </trkpt>
      <trkpt lat="47.2426" lon="-1.46477">
        <ele>54</ele>
        <time>2021-03-20T13:51:38.000Z</time>
      </trkpt>
      <trkpt lat="47.24251" lon="-1.4649">
        <ele>51</ele>
        <time>2021-03-20T13:51:40.000Z</time>
      </trkpt>
      <trkpt lat="47.24239" lon="-1.46504">
        <ele>52</ele>
        <time>2021-03-20T13:51:42.000Z</time>
      </trkpt>
      <trkpt lat="47.24228" lon="-1.46517">
        <ele>53</ele>
        <time>2021-03-20T13:51:44.000Z</time>
      </trkpt>
      <trkpt lat="47.24219" lon="-1.46531">
        <ele>53</ele>
        <time>2021-03-20T13:51:46.000Z</time>
      </trkpt>
      <trkpt lat="47.24204" lon="-1.4655">
        <ele>50</ele>
        <time>2021-03-20T13:51:49.000Z</time>
      </trkpt>
      <trkpt lat="47.24194" lon="-1.46564">
        <ele>52</ele>
        <time>2021-03-20T13:51:51.000Z</time>
      </trkpt>
      <trkpt lat="47.24182" lon="-1.46577">
        <ele>53</ele>
        <time>2021-03-20T13:51:53.000Z</time>
      </trkpt>
      <trkpt lat="47.24172" lon="-1.4659">
        <ele>54</ele>
        <time>2021-03-20T13:51:55.000Z</time>
      </trkpt>
      <trkpt lat="47.24161" lon="-1.46603">
        <ele>54</ele>
        <time>2021-03-20T13:51:57.000Z</time>
      </trkpt>
      <trkpt lat="47.24151" lon="-1.46616">
        <ele>54</ele>
        <time>2021-03-20T13:51:59.000Z</time>
      </trkpt>
      <trkpt lat="47.24142" lon="-1.46629">
        <ele>55</ele>
        <time>2021-03-20T13:52:01.000Z</time>
      </trkpt>
      <trkpt lat="47.24132" lon="-1.46642">
        <ele>55</ele>
        <time>2021-03-20T13:52:03.000Z</time>
      </trkpt>
      <trkpt lat="47.24123" lon="-1.46656">
        <ele>55</ele>
        <time>2021-03-20T13:52:05.000Z</time>
      </trkpt>
      <trkpt lat="47.24113" lon="-1.46669">
        <ele>56</ele>
        <time>2021-03-20T13:52:07.000Z</time>
      </trkpt>
      <trkpt lat="47.24104" lon="-1.46683">
        <ele>56</ele>
        <time>2021-03-20T13:52:09.000Z</time>
      </trkpt>
      <trkpt lat="47.24094" lon="-1.46696">
        <ele>56</ele>
        <time>2021-03-20T13:52:11.000Z</time>
      </trkpt>
      <trkpt lat="47.24086" lon="-1.46711">
        <ele>57</ele>
        <time>2021-03-20T13:52:13.000Z</time>
      </trkpt>
      <trkpt lat="47.2408" lon="-1.46728">
        <ele>57</ele>
        <time>2021-03-20T13:52:15.000Z</time>
      </trkpt>
      <trkpt lat="47.24071" lon="-1.46741">
        <ele>57</ele>
        <time>2021-03-20T13:52:17.000Z</time>
      </trkpt>
      <trkpt lat="47.24057" lon="-1.4675">
        <ele>54</ele>
        <time>2021-03-20T13:52:19.000Z</time>
      </trkpt>
      <trkpt lat="47.24045" lon="-1.46759">
        <ele>55</ele>
        <time>2021-03-20T13:52:21.000Z</time>
      </trkpt>
      <trkpt lat="47.24035" lon="-1.46771">
        <ele>54</ele>
        <time>2021-03-20T13:52:23.000Z</time>
      </trkpt>
      <trkpt lat="47.24024" lon="-1.46783">
        <ele>54</ele>
        <time>2021-03-20T13:52:25.000Z</time>
      </trkpt>
      <trkpt lat="47.24014" lon="-1.46795">
        <ele>55</ele>
        <time>2021-03-20T13:52:27.000Z</time>
      </trkpt>
      <trkpt lat="47.24003" lon="-1.46808">
        <ele>54</ele>
        <time>2021-03-20T13:52:29.000Z</time>
      </trkpt>
      <trkpt lat="47.23992" lon="-1.46819">
        <ele>55</ele>
        <time>2021-03-20T13:52:31.000Z</time>
      </trkpt>
      <trkpt lat="47.23982" lon="-1.46831">
        <ele>55</ele>
        <time>2021-03-20T13:52:33.000Z</time>
      </trkpt>
      <trkpt lat="47.23971" lon="-1.46843">
        <ele>52</ele>
        <time>2021-03-20T13:52:35.000Z</time>
      </trkpt>
      <trkpt lat="47.2396" lon="-1.46854">
        <ele>53</ele>
        <time>2021-03-20T13:52:37.000Z</time>
      </trkpt>
      <trkpt lat="47.23948" lon="-1.46865">
        <ele>53</ele>
        <time>2021-03-20T13:52:39.000Z</time>
      </trkpt>
      <trkpt lat="47.23935" lon="-1.46874">
        <ele>53</ele>
        <time>2021-03-20T13:52:41.000Z</time>
      </trkpt>
      <trkpt lat="47.23923" lon="-1.46885">
        <ele>53</ele>
        <time>2021-03-20T13:52:43.000Z</time>
      </trkpt>
      <trkpt lat="47.23907" lon="-1.46905">
        <ele>53</ele>
        <time>2021-03-20T13:52:46.000Z</time>
      </trkpt>
      <trkpt lat="47.23898" lon="-1.4692">
        <ele>50</ele>
        <time>2021-03-20T13:52:48.000Z</time>
      </trkpt>
      <trkpt lat="47.23886" lon="-1.46933">
        <ele>51</ele>
        <time>2021-03-20T13:52:50.000Z</time>
      </trkpt>
      <trkpt lat="47.23873" lon="-1.46948">
        <ele>52</ele>
        <time>2021-03-20T13:52:52.000Z</time>
      </trkpt>
      <trkpt lat="47.23862" lon="-1.46964">
        <ele>51</ele>
        <time>2021-03-20T13:52:54.000Z</time>
      </trkpt>
      <trkpt lat="47.23851" lon="-1.46978">
        <ele>49</ele>
        <time>2021-03-20T13:52:56.000Z</time>
      </trkpt>
      <trkpt lat="47.2384" lon="-1.46993">
        <ele>50</ele>
        <time>2021-03-20T13:52:58.000Z</time>
      </trkpt>
      <trkpt lat="47.23825" lon="-1.47016">
        <ele>49</ele>
        <time>2021-03-20T13:53:01.000Z</time>
      </trkpt>
      <trkpt lat="47.2381" lon="-1.47039">
        <ele>52</ele>
        <time>2021-03-20T13:53:04.000Z</time>
      </trkpt>
      <trkpt lat="47.238" lon="-1.47054">
        <ele>53</ele>
        <time>2021-03-20T13:53:06.000Z</time>
      </trkpt>
      <trkpt lat="47.2379" lon="-1.47068">
        <ele>53</ele>
        <time>2021-03-20T13:53:08.000Z</time>
      </trkpt>
      <trkpt lat="47.2378" lon="-1.47083">
        <ele>53</ele>
        <time>2021-03-20T13:53:10.000Z</time>
      </trkpt>
      <trkpt lat="47.23769" lon="-1.47099">
        <ele>52</ele>
        <time>2021-03-20T13:53:12.000Z</time>
      </trkpt>
      <trkpt lat="47.23757" lon="-1.47114">
        <ele>51</ele>
        <time>2021-03-20T13:53:14.000Z</time>
      </trkpt>
      <trkpt lat="47.23747" lon="-1.47127">
        <ele>51</ele>
        <time>2021-03-20T13:53:16.000Z</time>
      </trkpt>
      <trkpt lat="47.2373" lon="-1.47145">
        <ele>52</ele>
        <time>2021-03-20T13:53:19.000Z</time>
      </trkpt>
      <trkpt lat="47.23712" lon="-1.47166">
        <ele>52</ele>
        <time>2021-03-20T13:53:22.000Z</time>
      </trkpt>
      <trkpt lat="47.23696" lon="-1.47188">
        <ele>53</ele>
        <time>2021-03-20T13:53:25.000Z</time>
      </trkpt>
      <trkpt lat="47.23682" lon="-1.47214">
        <ele>54</ele>
        <time>2021-03-20T13:53:28.000Z</time>
      </trkpt>
      <trkpt lat="47.23669" lon="-1.4723">
        <ele>54</ele>
        <time>2021-03-20T13:53:30.000Z</time>
      </trkpt>
      <trkpt lat="47.23656" lon="-1.47244">
        <ele>54</ele>
        <time>2021-03-20T13:53:32.000Z</time>
      </trkpt>
      <trkpt lat="47.23644" lon="-1.47259">
        <ele>54</ele>
        <time>2021-03-20T13:53:34.000Z</time>
      </trkpt>
      <trkpt lat="47.23624" lon="-1.47276">
        <ele>55</ele>
        <time>2021-03-20T13:53:37.000Z</time>
      </trkpt>
      <trkpt lat="47.23607" lon="-1.47297">
        <ele>54</ele>
        <time>2021-03-20T13:53:40.000Z</time>
      </trkpt>
      <trkpt lat="47.23596" lon="-1.4731">
        <ele>54</ele>
        <time>2021-03-20T13:53:42.000Z</time>
      </trkpt>
      <trkpt lat="47.23585" lon="-1.47323">
        <ele>53</ele>
        <time>2021-03-20T13:53:44.000Z</time>
      </trkpt>
      <trkpt lat="47.23573" lon="-1.47334">
        <ele>54</ele>
        <time>2021-03-20T13:53:46.000Z</time>
      </trkpt>
      <trkpt lat="47.23561" lon="-1.47343">
        <ele>54</ele>
        <time>2021-03-20T13:53:48.000Z</time>
      </trkpt>
      <trkpt lat="47.23548" lon="-1.47352">
        <ele>54</ele>
        <time>2021-03-20T13:53:50.000Z</time>
      </trkpt>
      <trkpt lat="47.23534" lon="-1.47362">
        <ele>54</ele>
        <time>2021-03-20T13:53:52.000Z</time>
      </trkpt>
      <trkpt lat="47.2352" lon="-1.47374">
        <ele>54</ele>
        <time>2021-03-20T13:53:54.000Z</time>
      </trkpt>
      <trkpt lat="47.23506" lon="-1.47386">
        <ele>53</ele>
        <time>2021-03-20T13:53:56.000Z</time>
      </trkpt>
      <trkpt lat="47.23493" lon="-1.47397">
        <ele>52</ele>
        <time>2021-03-20T13:53:58.000Z</time>
      </trkpt>
      <trkpt lat="47.23479" lon="-1.47404">
        <ele>51</ele>
        <time>2021-03-20T13:54:00.000Z</time>
      </trkpt>
      <trkpt lat="47.23465" lon="-1.47411">
        <ele>51</ele>
        <time>2021-03-20T13:54:02.000Z</time>
      </trkpt>
      <trkpt lat="47.23452" lon="-1.47417">
        <ele>51</ele>
        <time>2021-03-20T13:54:04.000Z</time>
      </trkpt>
      <trkpt lat="47.23439" lon="-1.47424">
        <ele>51</ele>
        <time>2021-03-20T13:54:06.000Z</time>
      </trkpt>
      <trkpt lat="47.23426" lon="-1.47432">
        <ele>48</ele>
        <time>2021-03-20T13:54:08.000Z</time>
      </trkpt>
      <trkpt lat="47.23411" lon="-1.47442">
        <ele>48</ele>
        <time>2021-03-20T13:54:10.000Z</time>
      </trkpt>
      <trkpt lat="47.23403" lon="-1.47449">
        <ele>48</ele>
        <time>2021-03-20T13:54:11.000Z</time>
      </trkpt>
      <trkpt lat="47.23394" lon="-1.47455">
        <ele>49</ele>
        <time>2021-03-20T13:54:12.000Z</time>
      </trkpt>
      <trkpt lat="47.23385" lon="-1.4746">
        <ele>49</ele>
        <time>2021-03-20T13:54:13.000Z</time>
      </trkpt>
      <trkpt lat="47.23368" lon="-1.47469">
        <ele>50</ele>
        <time>2021-03-20T13:54:15.000Z</time>
      </trkpt>
      <trkpt lat="47.23359" lon="-1.47473">
        <ele>50</ele>
        <time>2021-03-20T13:54:16.000Z</time>
      </trkpt>
      <trkpt lat="47.2335" lon="-1.47477">
        <ele>50</ele>
        <time>2021-03-20T13:54:17.000Z</time>
      </trkpt>
      <trkpt lat="47.23335" lon="-1.47486">
        <ele>51</ele>
        <time>2021-03-20T13:54:19.000Z</time>
      </trkpt>
      <trkpt lat="47.2332" lon="-1.47495">
        <ele>52</ele>
        <time>2021-03-20T13:54:21.000Z</time>
      </trkpt>
      <trkpt lat="47.23305" lon="-1.47504">
        <ele>52</ele>
        <time>2021-03-20T13:54:23.000Z</time>
      </trkpt>
      <trkpt lat="47.2329" lon="-1.47511">
        <ele>52</ele>
        <time>2021-03-20T13:54:25.000Z</time>
      </trkpt>
      <trkpt lat="47.23275" lon="-1.4752">
        <ele>52</ele>
        <time>2021-03-20T13:54:27.000Z</time>
      </trkpt>
      <trkpt lat="47.23264" lon="-1.47533">
        <ele>53</ele>
        <time>2021-03-20T13:54:29.000Z</time>
      </trkpt>
      <trkpt lat="47.23253" lon="-1.4755">
        <ele>53</ele>
        <time>2021-03-20T13:54:31.000Z</time>
      </trkpt>
      <trkpt lat="47.23244" lon="-1.47568">
        <ele>53</ele>
        <time>2021-03-20T13:54:33.000Z</time>
      </trkpt>
      <trkpt lat="47.23234" lon="-1.47584">
        <ele>53</ele>
        <time>2021-03-20T13:54:35.000Z</time>
      </trkpt>
      <trkpt lat="47.23225" lon="-1.47601">
        <ele>53</ele>
        <time>2021-03-20T13:54:37.000Z</time>
      </trkpt>
      <trkpt lat="47.23217" lon="-1.47619">
        <ele>53</ele>
        <time>2021-03-20T13:54:39.000Z</time>
      </trkpt>
      <trkpt lat="47.2321" lon="-1.47636">
        <ele>54</ele>
        <time>2021-03-20T13:54:41.000Z</time>
      </trkpt>
      <trkpt lat="47.23204" lon="-1.47654">
        <ele>54</ele>
        <time>2021-03-20T13:54:43.000Z</time>
      </trkpt>
      <trkpt lat="47.23195" lon="-1.47672">
        <ele>54</ele>
        <time>2021-03-20T13:54:45.000Z</time>
      </trkpt>
      <trkpt lat="47.23186" lon="-1.47689">
        <ele>54</ele>
        <time>2021-03-20T13:54:47.000Z</time>
      </trkpt>
      <trkpt lat="47.23178" lon="-1.47707">
        <ele>54</ele>
        <time>2021-03-20T13:54:49.000Z</time>
      </trkpt>
      <trkpt lat="47.2317" lon="-1.47726">
        <ele>55</ele>
        <time>2021-03-20T13:54:51.000Z</time>
      </trkpt>
      <trkpt lat="47.23163" lon="-1.47745">
        <ele>55</ele>
        <time>2021-03-20T13:54:53.000Z</time>
      </trkpt>
      <trkpt lat="47.23155" lon="-1.47763">
        <ele>55</ele>
        <time>2021-03-20T13:54:55.000Z</time>
      </trkpt>
      <trkpt lat="47.23149" lon="-1.47781">
        <ele>55</ele>
        <time>2021-03-20T13:54:57.000Z</time>
      </trkpt>
      <trkpt lat="47.23144" lon="-1.47798">
        <ele>55</ele>
        <time>2021-03-20T13:54:59.000Z</time>
      </trkpt>
      <trkpt lat="47.23139" lon="-1.47815">
        <ele>55</ele>
        <time>2021-03-20T13:55:01.000Z</time>
      </trkpt>
      <trkpt lat="47.23134" lon="-1.47832">
        <ele>55</ele>
        <time>2021-03-20T13:55:03.000Z</time>
      </trkpt>
      <trkpt lat="47.23128" lon="-1.47849">
        <ele>52</ele>
        <time>2021-03-20T13:55:05.000Z</time>
      </trkpt>
      <trkpt lat="47.23116" lon="-1.47867">
        <ele>53</ele>
        <time>2021-03-20T13:55:07.000Z</time>
      </trkpt>
      <trkpt lat="47.23104" lon="-1.47883">
        <ele>53</ele>
        <time>2021-03-20T13:55:09.000Z</time>
      </trkpt>
      <trkpt lat="47.23091" lon="-1.47897">
        <ele>52</ele>
        <time>2021-03-20T13:55:11.000Z</time>
      </trkpt>
      <trkpt lat="47.23081" lon="-1.4791">
        <ele>52</ele>
        <time>2021-03-20T13:55:13.000Z</time>
      </trkpt>
      <trkpt lat="47.23069" lon="-1.47925">
        <ele>53</ele>
        <time>2021-03-20T13:55:15.000Z</time>
      </trkpt>
      <trkpt lat="47.23058" lon="-1.4794">
        <ele>54</ele>
        <time>2021-03-20T13:55:17.000Z</time>
      </trkpt>
      <trkpt lat="47.23048" lon="-1.47953">
        <ele>54</ele>
        <time>2021-03-20T13:55:19.000Z</time>
      </trkpt>
      <trkpt lat="47.23036" lon="-1.47968">
        <ele>53</ele>
        <time>2021-03-20T13:55:21.000Z</time>
      </trkpt>
      <trkpt lat="47.23025" lon="-1.47982">
        <ele>55</ele>
        <time>2021-03-20T13:55:23.000Z</time>
      </trkpt>
      <trkpt lat="47.23014" lon="-1.47996">
        <ele>55</ele>
        <time>2021-03-20T13:55:25.000Z</time>
      </trkpt>
      <trkpt lat="47.23005" lon="-1.48011">
        <ele>55</ele>
        <time>2021-03-20T13:55:27.000Z</time>
      </trkpt>
      <trkpt lat="47.22997" lon="-1.48027">
        <ele>55</ele>
        <time>2021-03-20T13:55:29.000Z</time>
      </trkpt>
      <trkpt lat="47.2299" lon="-1.48042">
        <ele>55</ele>
        <time>2021-03-20T13:55:31.000Z</time>
      </trkpt>
      <trkpt lat="47.22982" lon="-1.48056">
        <ele>55</ele>
        <time>2021-03-20T13:55:33.000Z</time>
      </trkpt>
      <trkpt lat="47.22975" lon="-1.48069">
        <ele>55</ele>
        <time>2021-03-20T13:55:35.000Z</time>
      </trkpt>
      <trkpt lat="47.22969" lon="-1.4808">
        <ele>55</ele>
        <time>2021-03-20T13:55:38.000Z</time>
      </trkpt>
      <trkpt lat="47.22961" lon="-1.48089">
        <ele>54</ele>
        <time>2021-03-20T13:55:42.000Z</time>
      </trkpt>
      <trkpt lat="47.22956" lon="-1.481">
        <ele>55</ele>
        <time>2021-03-20T13:55:45.000Z</time>
      </trkpt>
      <trkpt lat="47.22942" lon="-1.48109">
        <ele>56</ele>
        <time>2021-03-20T13:55:50.000Z</time>
      </trkpt>
      <trkpt lat="47.22929" lon="-1.48111">
        <ele>55</ele>
        <time>2021-03-20T13:55:52.000Z</time>
      </trkpt>
      <trkpt lat="47.22915" lon="-1.48115">
        <ele>55</ele>
        <time>2021-03-20T13:55:54.000Z</time>
      </trkpt>
      <trkpt lat="47.22903" lon="-1.48126">
        <ele>55</ele>
        <time>2021-03-20T13:55:56.000Z</time>
      </trkpt>
      <trkpt lat="47.22893" lon="-1.4814">
        <ele>54</ele>
        <time>2021-03-20T13:55:58.000Z</time>
      </trkpt>
      <trkpt lat="47.22885" lon="-1.48157">
        <ele>54</ele>
        <time>2021-03-20T13:56:00.000Z</time>
      </trkpt>
      <trkpt lat="47.22875" lon="-1.48172">
        <ele>54</ele>
        <time>2021-03-20T13:56:02.000Z</time>
      </trkpt>
      <trkpt lat="47.22866" lon="-1.48188">
        <ele>54</ele>
        <time>2021-03-20T13:56:04.000Z</time>
      </trkpt>
      <trkpt lat="47.22856" lon="-1.48202">
        <ele>55</ele>
        <time>2021-03-20T13:56:06.000Z</time>
      </trkpt>
      <trkpt lat="47.22846" lon="-1.48219">
        <ele>53</ele>
        <time>2021-03-20T13:56:08.000Z</time>
      </trkpt>
      <trkpt lat="47.22834" lon="-1.48235">
        <ele>52</ele>
        <time>2021-03-20T13:56:10.000Z</time>
      </trkpt>
      <trkpt lat="47.22823" lon="-1.48248">
        <ele>53</ele>
        <time>2021-03-20T13:56:12.000Z</time>
      </trkpt>
      <trkpt lat="47.22813" lon="-1.48262">
        <ele>53</ele>
        <time>2021-03-20T13:56:14.000Z</time>
      </trkpt>
      <trkpt lat="47.22803" lon="-1.48278">
        <ele>53</ele>
        <time>2021-03-20T13:56:16.000Z</time>
      </trkpt>
      <trkpt lat="47.22794" lon="-1.48293">
        <ele>53</ele>
        <time>2021-03-20T13:56:18.000Z</time>
      </trkpt>
      <trkpt lat="47.22784" lon="-1.48309">
        <ele>54</ele>
        <time>2021-03-20T13:56:20.000Z</time>
      </trkpt>
      <trkpt lat="47.22774" lon="-1.48325">
        <ele>54</ele>
        <time>2021-03-20T13:56:22.000Z</time>
      </trkpt>
      <trkpt lat="47.22764" lon="-1.4834">
        <ele>55</ele>
        <time>2021-03-20T13:56:24.000Z</time>
      </trkpt>
      <trkpt lat="47.22748" lon="-1.48362">
        <ele>55</ele>
        <time>2021-03-20T13:56:27.000Z</time>
      </trkpt>
      <trkpt lat="47.22737" lon="-1.48378">
        <ele>56</ele>
        <time>2021-03-20T13:56:29.000Z</time>
      </trkpt>
      <trkpt lat="47.22725" lon="-1.48393">
        <ele>57</ele>
        <time>2021-03-20T13:56:31.000Z</time>
      </trkpt>
      <trkpt lat="47.22714" lon="-1.48407">
        <ele>56</ele>
        <time>2021-03-20T13:56:33.000Z</time>
      </trkpt>
      <trkpt lat="47.22705" lon="-1.48423">
        <ele>56</ele>
        <time>2021-03-20T13:56:35.000Z</time>
      </trkpt>
      <trkpt lat="47.22698" lon="-1.48443">
        <ele>56</ele>
        <time>2021-03-20T13:56:37.000Z</time>
      </trkpt>
      <trkpt lat="47.22692" lon="-1.48464">
        <ele>56</ele>
        <time>2021-03-20T13:56:39.000Z</time>
      </trkpt>
      <trkpt lat="47.22683" lon="-1.48482">
        <ele>56</ele>
        <time>2021-03-20T13:56:41.000Z</time>
      </trkpt>
      <trkpt lat="47.22674" lon="-1.48501">
        <ele>56</ele>
        <time>2021-03-20T13:56:43.000Z</time>
      </trkpt>
      <trkpt lat="47.22668" lon="-1.4852">
        <ele>56</ele>
        <time>2021-03-20T13:56:45.000Z</time>
      </trkpt>
      <trkpt lat="47.22662" lon="-1.48541">
        <ele>55</ele>
        <time>2021-03-20T13:56:47.000Z</time>
      </trkpt>
      <trkpt lat="47.22655" lon="-1.48562">
        <ele>55</ele>
        <time>2021-03-20T13:56:49.000Z</time>
      </trkpt>
      <trkpt lat="47.22648" lon="-1.48582">
        <ele>56</ele>
        <time>2021-03-20T13:56:51.000Z</time>
      </trkpt>
      <trkpt lat="47.22641" lon="-1.48601">
        <ele>56</ele>
        <time>2021-03-20T13:56:53.000Z</time>
      </trkpt>
      <trkpt lat="47.22634" lon="-1.48619">
        <ele>56</ele>
        <time>2021-03-20T13:56:55.000Z</time>
      </trkpt>
      <trkpt lat="47.2263" lon="-1.48636">
        <ele>53</ele>
        <time>2021-03-20T13:56:57.000Z</time>
      </trkpt>
      <trkpt lat="47.22622" lon="-1.48655">
        <ele>53</ele>
        <time>2021-03-20T13:56:59.000Z</time>
      </trkpt>
      <trkpt lat="47.22615" lon="-1.48677">
        <ele>54</ele>
        <time>2021-03-20T13:57:01.000Z</time>
      </trkpt>
      <trkpt lat="47.22608" lon="-1.48698">
        <ele>54</ele>
        <time>2021-03-20T13:57:03.000Z</time>
      </trkpt>
      <trkpt lat="47.22601" lon="-1.48719">
        <ele>55</ele>
        <time>2021-03-20T13:57:05.000Z</time>
      </trkpt>
      <trkpt lat="47.22597" lon="-1.48742">
        <ele>56</ele>
        <time>2021-03-20T13:57:07.000Z</time>
      </trkpt>
      <trkpt lat="47.22591" lon="-1.48763">
        <ele>56</ele>
        <time>2021-03-20T13:57:09.000Z</time>
      </trkpt>
      <trkpt lat="47.22584" lon="-1.48784">
        <ele>56</ele>
        <time>2021-03-20T13:57:11.000Z</time>
      </trkpt>
      <trkpt lat="47.2258" lon="-1.48803">
        <ele>56</ele>
        <time>2021-03-20T13:57:13.000Z</time>
      </trkpt>
      <trkpt lat="47.22573" lon="-1.48824">
        <ele>57</ele>
        <time>2021-03-20T13:57:15.000Z</time>
      </trkpt>
      <trkpt lat="47.22567" lon="-1.48845">
        <ele>57</ele>
        <time>2021-03-20T13:57:17.000Z</time>
      </trkpt>
      <trkpt lat="47.22557" lon="-1.48876">
        <ele>57</ele>
        <time>2021-03-20T13:57:20.000Z</time>
      </trkpt>
      <trkpt lat="47.22551" lon="-1.48896">
        <ele>57</ele>
        <time>2021-03-20T13:57:22.000Z</time>
      </trkpt>
      <trkpt lat="47.22544" lon="-1.48917">
        <ele>57</ele>
        <time>2021-03-20T13:57:24.000Z</time>
      </trkpt>
      <trkpt lat="47.22538" lon="-1.48938">
        <ele>57</ele>
        <time>2021-03-20T13:57:26.000Z</time>
      </trkpt>
      <trkpt lat="47.22532" lon="-1.48957">
        <ele>58</ele>
        <time>2021-03-20T13:57:28.000Z</time>
      </trkpt>
      <trkpt lat="47.22526" lon="-1.48978">
        <ele>57</ele>
        <time>2021-03-20T13:57:30.000Z</time>
      </trkpt>
      <trkpt lat="47.2252" lon="-1.48999">
        <ele>57</ele>
        <time>2021-03-20T13:57:32.000Z</time>
      </trkpt>
      <trkpt lat="47.22515" lon="-1.49018">
        <ele>57</ele>
        <time>2021-03-20T13:57:34.000Z</time>
      </trkpt>
      <trkpt lat="47.22509" lon="-1.49038">
        <ele>57</ele>
        <time>2021-03-20T13:57:36.000Z</time>
      </trkpt>
      <trkpt lat="47.22505" lon="-1.49057">
        <ele>57</ele>
        <time>2021-03-20T13:57:38.000Z</time>
      </trkpt>
      <trkpt lat="47.22501" lon="-1.49077">
        <ele>56</ele>
        <time>2021-03-20T13:57:40.000Z</time>
      </trkpt>
      <trkpt lat="47.22495" lon="-1.49099">
        <ele>56</ele>
        <time>2021-03-20T13:57:42.000Z</time>
      </trkpt>
      <trkpt lat="47.22489" lon="-1.4912">
        <ele>56</ele>
        <time>2021-03-20T13:57:44.000Z</time>
      </trkpt>
      <trkpt lat="47.22483" lon="-1.4914">
        <ele>56</ele>
        <time>2021-03-20T13:57:46.000Z</time>
      </trkpt>
      <trkpt lat="47.22474" lon="-1.49162">
        <ele>55</ele>
        <time>2021-03-20T13:57:48.000Z</time>
      </trkpt>
      <trkpt lat="47.22466" lon="-1.49182">
        <ele>54</ele>
        <time>2021-03-20T13:57:50.000Z</time>
      </trkpt>
      <trkpt lat="47.22461" lon="-1.49194">
        <ele>54</ele>
        <time>2021-03-20T13:57:51.000Z</time>
      </trkpt>
      <trkpt lat="47.22454" lon="-1.49206">
        <ele>53</ele>
        <time>2021-03-20T13:57:52.000Z</time>
      </trkpt>
      <trkpt lat="47.22446" lon="-1.49227">
        <ele>53</ele>
        <time>2021-03-20T13:57:54.000Z</time>
      </trkpt>
      <trkpt lat="47.22439" lon="-1.49246">
        <ele>53</ele>
        <time>2021-03-20T13:57:56.000Z</time>
      </trkpt>
      <trkpt lat="47.2243" lon="-1.49267">
        <ele>54</ele>
        <time>2021-03-20T13:57:58.000Z</time>
      </trkpt>
      <trkpt lat="47.22425" lon="-1.49278">
        <ele>54</ele>
        <time>2021-03-20T13:57:59.000Z</time>
      </trkpt>
      <trkpt lat="47.22411" lon="-1.49312">
        <ele>54</ele>
        <time>2021-03-20T13:58:02.000Z</time>
      </trkpt>
      <trkpt lat="47.22404" lon="-1.49332">
        <ele>55</ele>
        <time>2021-03-20T13:58:04.000Z</time>
      </trkpt>
      <trkpt lat="47.22396" lon="-1.49352">
        <ele>55</ele>
        <time>2021-03-20T13:58:06.000Z</time>
      </trkpt>
      <trkpt lat="47.22388" lon="-1.4937">
        <ele>55</ele>
        <time>2021-03-20T13:58:08.000Z</time>
      </trkpt>
      <trkpt lat="47.22379" lon="-1.4939">
        <ele>52</ele>
        <time>2021-03-20T13:58:10.000Z</time>
      </trkpt>
      <trkpt lat="47.22368" lon="-1.49408">
        <ele>52</ele>
        <time>2021-03-20T13:58:12.000Z</time>
      </trkpt>
      <trkpt lat="47.22359" lon="-1.49426">
        <ele>52</ele>
        <time>2021-03-20T13:58:14.000Z</time>
      </trkpt>
      <trkpt lat="47.22351" lon="-1.49444">
        <ele>53</ele>
        <time>2021-03-20T13:58:16.000Z</time>
      </trkpt>
      <trkpt lat="47.22342" lon="-1.49463">
        <ele>52</ele>
        <time>2021-03-20T13:58:18.000Z</time>
      </trkpt>
      <trkpt lat="47.22334" lon="-1.49492">
        <ele>52</ele>
        <time>2021-03-20T13:58:21.000Z</time>
      </trkpt>
      <trkpt lat="47.22325" lon="-1.49523">
        <ele>52</ele>
        <time>2021-03-20T13:58:24.000Z</time>
      </trkpt>
      <trkpt lat="47.22321" lon="-1.49542">
        <ele>51</ele>
        <time>2021-03-20T13:58:26.000Z</time>
      </trkpt>
      <trkpt lat="47.22315" lon="-1.49561">
        <ele>51</ele>
        <time>2021-03-20T13:58:28.000Z</time>
      </trkpt>
      <trkpt lat="47.22308" lon="-1.4958">
        <ele>52</ele>
        <time>2021-03-20T13:58:30.000Z</time>
      </trkpt>
      <trkpt lat="47.22301" lon="-1.49599">
        <ele>53</ele>
        <time>2021-03-20T13:58:32.000Z</time>
      </trkpt>
      <trkpt lat="47.22294" lon="-1.49618">
        <ele>53</ele>
        <time>2021-03-20T13:58:34.000Z</time>
      </trkpt>
      <trkpt lat="47.22289" lon="-1.49637">
        <ele>53</ele>
        <time>2021-03-20T13:58:36.000Z</time>
      </trkpt>
      <trkpt lat="47.22283" lon="-1.49657">
        <ele>52</ele>
        <time>2021-03-20T13:58:38.000Z</time>
      </trkpt>
      <trkpt lat="47.22279" lon="-1.49677">
        <ele>51</ele>
        <time>2021-03-20T13:58:40.000Z</time>
      </trkpt>
      <trkpt lat="47.22274" lon="-1.49696">
        <ele>52</ele>
        <time>2021-03-20T13:58:42.000Z</time>
      </trkpt>
      <trkpt lat="47.22267" lon="-1.49714">
        <ele>53</ele>
        <time>2021-03-20T13:58:44.000Z</time>
      </trkpt>
      <trkpt lat="47.22262" lon="-1.49732">
        <ele>53</ele>
        <time>2021-03-20T13:58:46.000Z</time>
      </trkpt>
      <trkpt lat="47.22258" lon="-1.49749">
        <ele>54</ele>
        <time>2021-03-20T13:58:48.000Z</time>
      </trkpt>
      <trkpt lat="47.22256" lon="-1.49769">
        <ele>55</ele>
        <time>2021-03-20T13:58:50.000Z</time>
      </trkpt>
      <trkpt lat="47.22254" lon="-1.49788">
        <ele>55</ele>
        <time>2021-03-20T13:58:52.000Z</time>
      </trkpt>
      <trkpt lat="47.22252" lon="-1.49808">
        <ele>55</ele>
        <time>2021-03-20T13:58:54.000Z</time>
      </trkpt>
      <trkpt lat="47.2225" lon="-1.49827">
        <ele>56</ele>
        <time>2021-03-20T13:58:56.000Z</time>
      </trkpt>
      <trkpt lat="47.22248" lon="-1.49845">
        <ele>54</ele>
        <time>2021-03-20T13:58:58.000Z</time>
      </trkpt>
      <trkpt lat="47.22245" lon="-1.49864">
        <ele>53</ele>
        <time>2021-03-20T13:59:00.000Z</time>
      </trkpt>
      <trkpt lat="47.2224" lon="-1.49885">
        <ele>52</ele>
        <time>2021-03-20T13:59:02.000Z</time>
      </trkpt>
      <trkpt lat="47.22236" lon="-1.49904">
        <ele>51</ele>
        <time>2021-03-20T13:59:04.000Z</time>
      </trkpt>
      <trkpt lat="47.22232" lon="-1.4992">
        <ele>51</ele>
        <time>2021-03-20T13:59:06.000Z</time>
      </trkpt>
      <trkpt lat="47.22228" lon="-1.49941">
        <ele>53</ele>
        <time>2021-03-20T13:59:08.000Z</time>
      </trkpt>
      <trkpt lat="47.22228" lon="-1.49959">
        <ele>51</ele>
        <time>2021-03-20T13:59:10.000Z</time>
      </trkpt>
      <trkpt lat="47.22229" lon="-1.49976">
        <ele>52</ele>
        <time>2021-03-20T13:59:12.000Z</time>
      </trkpt>
      <trkpt lat="47.22226" lon="-1.4999">
        <ele>53</ele>
        <time>2021-03-20T13:59:14.000Z</time>
      </trkpt>
      <trkpt lat="47.22222" lon="-1.50009">
        <ele>52</ele>
        <time>2021-03-20T13:59:16.000Z</time>
      </trkpt>
      <trkpt lat="47.22218" lon="-1.50028">
        <ele>51</ele>
        <time>2021-03-20T13:59:18.000Z</time>
      </trkpt>
      <trkpt lat="47.22214" lon="-1.50048">
        <ele>50</ele>
        <time>2021-03-20T13:59:20.000Z</time>
      </trkpt>
      <trkpt lat="47.22208" lon="-1.50067">
        <ele>49</ele>
        <time>2021-03-20T13:59:22.000Z</time>
      </trkpt>
      <trkpt lat="47.22202" lon="-1.50084">
        <ele>48</ele>
        <time>2021-03-20T13:59:24.000Z</time>
      </trkpt>
      <trkpt lat="47.22195" lon="-1.50104">
        <ele>48</ele>
        <time>2021-03-20T13:59:26.000Z</time>
      </trkpt>
      <trkpt lat="47.22187" lon="-1.50124">
        <ele>47</ele>
        <time>2021-03-20T13:59:28.000Z</time>
      </trkpt>
      <trkpt lat="47.22177" lon="-1.50147">
        <ele>48</ele>
        <time>2021-03-20T13:59:30.000Z</time>
      </trkpt>
      <trkpt lat="47.22171" lon="-1.50159">
        <ele>49</ele>
        <time>2021-03-20T13:59:31.000Z</time>
      </trkpt>
      <trkpt lat="47.22164" lon="-1.50181">
        <ele>50</ele>
        <time>2021-03-20T13:59:33.000Z</time>
      </trkpt>
      <trkpt lat="47.22159" lon="-1.50202">
        <ele>51</ele>
        <time>2021-03-20T13:59:35.000Z</time>
      </trkpt>
      <trkpt lat="47.22155" lon="-1.50221">
        <ele>51</ele>
        <time>2021-03-20T13:59:37.000Z</time>
      </trkpt>
      <trkpt lat="47.22149" lon="-1.50239">
        <ele>51</ele>
        <time>2021-03-20T13:59:39.000Z</time>
      </trkpt>
      <trkpt lat="47.22145" lon="-1.50258">
        <ele>52</ele>
        <time>2021-03-20T13:59:41.000Z</time>
      </trkpt>
      <trkpt lat="47.22136" lon="-1.50278">
        <ele>53</ele>
        <time>2021-03-20T13:59:43.000Z</time>
      </trkpt>
      <trkpt lat="47.2213" lon="-1.50288">
        <ele>54</ele>
        <time>2021-03-20T13:59:44.000Z</time>
      </trkpt>
      <trkpt lat="47.22123" lon="-1.50298">
        <ele>54</ele>
        <time>2021-03-20T13:59:45.000Z</time>
      </trkpt>
      <trkpt lat="47.22111" lon="-1.50317">
        <ele>55</ele>
        <time>2021-03-20T13:59:47.000Z</time>
      </trkpt>
      <trkpt lat="47.22101" lon="-1.50329">
        <ele>51</ele>
        <time>2021-03-20T13:59:49.000Z</time>
      </trkpt>
      <trkpt lat="47.22094" lon="-1.50344">
        <ele>51</ele>
        <time>2021-03-20T13:59:51.000Z</time>
      </trkpt>
      <trkpt lat="47.22089" lon="-1.50365">
        <ele>52</ele>
        <time>2021-03-20T13:59:53.000Z</time>
      </trkpt>
      <trkpt lat="47.22086" lon="-1.50385">
        <ele>52</ele>
        <time>2021-03-20T13:59:55.000Z</time>
      </trkpt>
      <trkpt lat="47.22082" lon="-1.50404">
        <ele>52</ele>
        <time>2021-03-20T13:59:57.000Z</time>
      </trkpt>
      <trkpt lat="47.22078" lon="-1.50421">
        <ele>52</ele>
        <time>2021-03-20T13:59:59.000Z</time>
      </trkpt>
      <trkpt lat="47.22074" lon="-1.5044">
        <ele>51</ele>
        <time>2021-03-20T14:00:01.000Z</time>
      </trkpt>
      <trkpt lat="47.22069" lon="-1.50458">
        <ele>51</ele>
        <time>2021-03-20T14:00:03.000Z</time>
      </trkpt>
      <trkpt lat="47.22065" lon="-1.5048">
        <ele>51</ele>
        <time>2021-03-20T14:00:05.000Z</time>
      </trkpt>
      <trkpt lat="47.22066" lon="-1.505">
        <ele>51</ele>
        <time>2021-03-20T14:00:07.000Z</time>
      </trkpt>
      <trkpt lat="47.22066" lon="-1.50532">
        <ele>51</ele>
        <time>2021-03-20T14:00:10.000Z</time>
      </trkpt>
      <trkpt lat="47.22064" lon="-1.50552">
        <ele>52</ele>
        <time>2021-03-20T14:00:12.000Z</time>
      </trkpt>
      <trkpt lat="47.22064" lon="-1.50571">
        <ele>52</ele>
        <time>2021-03-20T14:00:14.000Z</time>
      </trkpt>
      <trkpt lat="47.22065" lon="-1.50586">
        <ele>54</ele>
        <time>2021-03-20T14:00:16.000Z</time>
      </trkpt>
      <trkpt lat="47.22065" lon="-1.50604">
        <ele>55</ele>
        <time>2021-03-20T14:00:18.000Z</time>
      </trkpt>
      <trkpt lat="47.22065" lon="-1.50633">
        <ele>54</ele>
        <time>2021-03-20T14:00:21.000Z</time>
      </trkpt>
      <trkpt lat="47.22059" lon="-1.50652">
        <ele>53</ele>
        <time>2021-03-20T14:00:23.000Z</time>
      </trkpt>
      <trkpt lat="47.22057" lon="-1.50671">
        <ele>53</ele>
        <time>2021-03-20T14:00:25.000Z</time>
      </trkpt>
      <trkpt lat="47.22057" lon="-1.50688">
        <ele>54</ele>
        <time>2021-03-20T14:00:27.000Z</time>
      </trkpt>
      <trkpt lat="47.22059" lon="-1.50704">
        <ele>52</ele>
        <time>2021-03-20T14:00:29.000Z</time>
      </trkpt>
      <trkpt lat="47.22058" lon="-1.50721">
        <ele>53</ele>
        <time>2021-03-20T14:00:31.000Z</time>
      </trkpt>
      <trkpt lat="47.22057" lon="-1.50743">
        <ele>54</ele>
        <time>2021-03-20T14:00:33.000Z</time>
      </trkpt>
      <trkpt lat="47.22055" lon="-1.50762">
        <ele>53</ele>
        <time>2021-03-20T14:00:35.000Z</time>
      </trkpt>
      <trkpt lat="47.22052" lon="-1.5078">
        <ele>53</ele>
        <time>2021-03-20T14:00:37.000Z</time>
      </trkpt>
      <trkpt lat="47.22047" lon="-1.50796">
        <ele>53</ele>
        <time>2021-03-20T14:00:39.000Z</time>
      </trkpt>
      <trkpt lat="47.22044" lon="-1.50811">
        <ele>52</ele>
        <time>2021-03-20T14:00:41.000Z</time>
      </trkpt>
      <trkpt lat="47.2204" lon="-1.50827">
        <ele>51</ele>
        <time>2021-03-20T14:00:43.000Z</time>
      </trkpt>
      <trkpt lat="47.22033" lon="-1.50844">
        <ele>51</ele>
        <time>2021-03-20T14:00:45.000Z</time>
      </trkpt>
      <trkpt lat="47.22024" lon="-1.50862">
        <ele>50</ele>
        <time>2021-03-20T14:00:47.000Z</time>
      </trkpt>
      <trkpt lat="47.22015" lon="-1.50884">
        <ele>50</ele>
        <time>2021-03-20T14:00:49.000Z</time>
      </trkpt>
      <trkpt lat="47.22009" lon="-1.50897">
        <ele>50</ele>
        <time>2021-03-20T14:00:50.000Z</time>
      </trkpt>
      <trkpt lat="47.22002" lon="-1.50917">
        <ele>48</ele>
        <time>2021-03-20T14:00:52.000Z</time>
      </trkpt>
      <trkpt lat="47.21998" lon="-1.50932">
        <ele>47</ele>
        <time>2021-03-20T14:00:54.000Z</time>
      </trkpt>
      <trkpt lat="47.21993" lon="-1.50949">
        <ele>46</ele>
        <time>2021-03-20T14:00:56.000Z</time>
      </trkpt>
      <trkpt lat="47.21986" lon="-1.5097">
        <ele>46</ele>
        <time>2021-03-20T14:00:58.000Z</time>
      </trkpt>
      <trkpt lat="47.21978" lon="-1.50992">
        <ele>46</ele>
        <time>2021-03-20T14:01:00.000Z</time>
      </trkpt>
      <trkpt lat="47.2197" lon="-1.51012">
        <ele>46</ele>
        <time>2021-03-20T14:01:02.000Z</time>
      </trkpt>
      <trkpt lat="47.21966" lon="-1.51028">
        <ele>46</ele>
        <time>2021-03-20T14:01:04.000Z</time>
      </trkpt>
      <trkpt lat="47.21957" lon="-1.51053">
        <ele>48</ele>
        <time>2021-03-20T14:01:07.000Z</time>
      </trkpt>
      <trkpt lat="47.21946" lon="-1.51066">
        <ele>51</ele>
        <time>2021-03-20T14:01:09.000Z</time>
      </trkpt>
      <trkpt lat="47.21937" lon="-1.51081">
        <ele>51</ele>
        <time>2021-03-20T14:01:11.000Z</time>
      </trkpt>
      <trkpt lat="47.21931" lon="-1.51101">
        <ele>53</ele>
        <time>2021-03-20T14:01:13.000Z</time>
      </trkpt>
      <trkpt lat="47.21921" lon="-1.5113">
        <ele>53</ele>
        <time>2021-03-20T14:01:16.000Z</time>
      </trkpt>
      <trkpt lat="47.21914" lon="-1.51152">
        <ele>50</ele>
        <time>2021-03-20T14:01:18.000Z</time>
      </trkpt>
      <trkpt lat="47.21908" lon="-1.51169">
        <ele>51</ele>
        <time>2021-03-20T14:01:20.000Z</time>
      </trkpt>
      <trkpt lat="47.21901" lon="-1.51187">
        <ele>52</ele>
        <time>2021-03-20T14:01:22.000Z</time>
      </trkpt>
      <trkpt lat="47.21895" lon="-1.51204">
        <ele>52</ele>
        <time>2021-03-20T14:01:24.000Z</time>
      </trkpt>
      <trkpt lat="47.2189" lon="-1.51225">
        <ele>51</ele>
        <time>2021-03-20T14:01:26.000Z</time>
      </trkpt>
      <trkpt lat="47.21881" lon="-1.51255">
        <ele>50</ele>
        <time>2021-03-20T14:01:29.000Z</time>
      </trkpt>
      <trkpt lat="47.21874" lon="-1.51273">
        <ele>52</ele>
        <time>2021-03-20T14:01:31.000Z</time>
      </trkpt>
      <trkpt lat="47.21869" lon="-1.51299">
        <ele>53</ele>
        <time>2021-03-20T14:01:34.000Z</time>
      </trkpt>
      <trkpt lat="47.21861" lon="-1.51321">
        <ele>54</ele>
        <time>2021-03-20T14:01:37.000Z</time>
      </trkpt>
      <trkpt lat="47.21856" lon="-1.5134">
        <ele>55</ele>
        <time>2021-03-20T14:01:39.000Z</time>
      </trkpt>
      <trkpt lat="47.21852" lon="-1.51359">
        <ele>57</ele>
        <time>2021-03-20T14:01:41.000Z</time>
      </trkpt>
      <trkpt lat="47.21847" lon="-1.51378">
        <ele>55</ele>
        <time>2021-03-20T14:01:43.000Z</time>
      </trkpt>
      <trkpt lat="47.2184" lon="-1.51399">
        <ele>56</ele>
        <time>2021-03-20T14:01:45.000Z</time>
      </trkpt>
      <trkpt lat="47.21834" lon="-1.51418">
        <ele>56</ele>
        <time>2021-03-20T14:01:47.000Z</time>
      </trkpt>
      <trkpt lat="47.21828" lon="-1.51438">
        <ele>56</ele>
        <time>2021-03-20T14:01:49.000Z</time>
      </trkpt>
      <trkpt lat="47.21823" lon="-1.51457">
        <ele>55</ele>
        <time>2021-03-20T14:01:51.000Z</time>
      </trkpt>
      <trkpt lat="47.21819" lon="-1.51476">
        <ele>54</ele>
        <time>2021-03-20T14:01:53.000Z</time>
      </trkpt>
      <trkpt lat="47.2181" lon="-1.51503">
        <ele>54</ele>
        <time>2021-03-20T14:01:56.000Z</time>
      </trkpt>
      <trkpt lat="47.21803" lon="-1.51521">
        <ele>55</ele>
        <time>2021-03-20T14:01:58.000Z</time>
      </trkpt>
      <trkpt lat="47.21796" lon="-1.5154">
        <ele>55</ele>
        <time>2021-03-20T14:02:00.000Z</time>
      </trkpt>
      <trkpt lat="47.2179" lon="-1.51559">
        <ele>54</ele>
        <time>2021-03-20T14:02:02.000Z</time>
      </trkpt>
      <trkpt lat="47.21782" lon="-1.51577">
        <ele>54</ele>
        <time>2021-03-20T14:02:04.000Z</time>
      </trkpt>
      <trkpt lat="47.21767" lon="-1.51598">
        <ele>56</ele>
        <time>2021-03-20T14:02:07.000Z</time>
      </trkpt>
      <trkpt lat="47.21756" lon="-1.5161">
        <ele>58</ele>
        <time>2021-03-20T14:02:09.000Z</time>
      </trkpt>
      <trkpt lat="47.21748" lon="-1.51625">
        <ele>57</ele>
        <time>2021-03-20T14:02:11.000Z</time>
      </trkpt>
      <trkpt lat="47.2174" lon="-1.51643">
        <ele>57</ele>
        <time>2021-03-20T14:02:13.000Z</time>
      </trkpt>
      <trkpt lat="47.21734" lon="-1.51661">
        <ele>56</ele>
        <time>2021-03-20T14:02:15.000Z</time>
      </trkpt>
      <trkpt lat="47.21727" lon="-1.51682">
        <ele>54</ele>
        <time>2021-03-20T14:02:17.000Z</time>
      </trkpt>
      <trkpt lat="47.2172" lon="-1.51696">
        <ele>53</ele>
        <time>2021-03-20T14:02:19.000Z</time>
      </trkpt>
      <trkpt lat="47.21705" lon="-1.51728">
        <ele>52</ele>
        <time>2021-03-20T14:02:23.000Z</time>
      </trkpt>
      <trkpt lat="47.21698" lon="-1.51745">
        <ele>52</ele>
        <time>2021-03-20T14:02:25.000Z</time>
      </trkpt>
      <trkpt lat="47.2169" lon="-1.51762">
        <ele>52</ele>
        <time>2021-03-20T14:02:27.000Z</time>
      </trkpt>
      <trkpt lat="47.2168" lon="-1.5178">
        <ele>53</ele>
        <time>2021-03-20T14:02:29.000Z</time>
      </trkpt>
      <trkpt lat="47.21673" lon="-1.51797">
        <ele>53</ele>
        <time>2021-03-20T14:02:31.000Z</time>
      </trkpt>
      <trkpt lat="47.21662" lon="-1.51821">
        <ele>54</ele>
        <time>2021-03-20T14:02:34.000Z</time>
      </trkpt>
      <trkpt lat="47.21655" lon="-1.51839">
        <ele>54</ele>
        <time>2021-03-20T14:02:36.000Z</time>
      </trkpt>
      <trkpt lat="47.2165" lon="-1.51856">
        <ele>55</ele>
        <time>2021-03-20T14:02:38.000Z</time>
      </trkpt>
      <trkpt lat="47.21648" lon="-1.51873">
        <ele>55</ele>
        <time>2021-03-20T14:02:40.000Z</time>
      </trkpt>
      <trkpt lat="47.21639" lon="-1.519">
        <ele>55</ele>
        <time>2021-03-20T14:02:43.000Z</time>
      </trkpt>
      <trkpt lat="47.21632" lon="-1.51919">
        <ele>55</ele>
        <time>2021-03-20T14:02:45.000Z</time>
      </trkpt>
      <trkpt lat="47.21625" lon="-1.51939">
        <ele>52</ele>
        <time>2021-03-20T14:02:47.000Z</time>
      </trkpt>
      <trkpt lat="47.21619" lon="-1.51958">
        <ele>53</ele>
        <time>2021-03-20T14:02:49.000Z</time>
      </trkpt>
      <trkpt lat="47.21614" lon="-1.51976">
        <ele>53</ele>
        <time>2021-03-20T14:02:51.000Z</time>
      </trkpt>
      <trkpt lat="47.21608" lon="-1.51991">
        <ele>53</ele>
        <time>2021-03-20T14:02:53.000Z</time>
      </trkpt>
      <trkpt lat="47.21603" lon="-1.52007">
        <ele>53</ele>
        <time>2021-03-20T14:02:55.000Z</time>
      </trkpt>
      <trkpt lat="47.21596" lon="-1.52026">
        <ele>53</ele>
        <time>2021-03-20T14:02:57.000Z</time>
      </trkpt>
      <trkpt lat="47.21589" lon="-1.52046">
        <ele>54</ele>
        <time>2021-03-20T14:02:59.000Z</time>
      </trkpt>
      <trkpt lat="47.21584" lon="-1.52063">
        <ele>53</ele>
        <time>2021-03-20T14:03:01.000Z</time>
      </trkpt>
      <trkpt lat="47.21578" lon="-1.52083">
        <ele>51</ele>
        <time>2021-03-20T14:03:03.000Z</time>
      </trkpt>
      <trkpt lat="47.2157" lon="-1.52101">
        <ele>52</ele>
        <time>2021-03-20T14:03:05.000Z</time>
      </trkpt>
      <trkpt lat="47.21564" lon="-1.52119">
        <ele>53</ele>
        <time>2021-03-20T14:03:07.000Z</time>
      </trkpt>
      <trkpt lat="47.21559" lon="-1.52137">
        <ele>52</ele>
        <time>2021-03-20T14:03:09.000Z</time>
      </trkpt>
      <trkpt lat="47.21553" lon="-1.52157">
        <ele>51</ele>
        <time>2021-03-20T14:03:11.000Z</time>
      </trkpt>
      <trkpt lat="47.21547" lon="-1.52176">
        <ele>52</ele>
        <time>2021-03-20T14:03:13.000Z</time>
      </trkpt>
      <trkpt lat="47.21541" lon="-1.52193">
        <ele>53</ele>
        <time>2021-03-20T14:03:15.000Z</time>
      </trkpt>
      <trkpt lat="47.21535" lon="-1.52212">
        <ele>54</ele>
        <time>2021-03-20T14:03:17.000Z</time>
      </trkpt>
      <trkpt lat="47.21531" lon="-1.52231">
        <ele>51</ele>
        <time>2021-03-20T14:03:19.000Z</time>
      </trkpt>
      <trkpt lat="47.21525" lon="-1.52248">
        <ele>51</ele>
        <time>2021-03-20T14:03:21.000Z</time>
      </trkpt>
      <trkpt lat="47.2152" lon="-1.52264">
        <ele>52</ele>
        <time>2021-03-20T14:03:23.000Z</time>
      </trkpt>
      <trkpt lat="47.21514" lon="-1.52281">
        <ele>53</ele>
        <time>2021-03-20T14:03:25.000Z</time>
      </trkpt>
      <trkpt lat="47.21504" lon="-1.52313">
        <ele>53</ele>
        <time>2021-03-20T14:03:28.000Z</time>
      </trkpt>
      <trkpt lat="47.21496" lon="-1.5234">
        <ele>50</ele>
        <time>2021-03-20T14:03:31.000Z</time>
      </trkpt>
      <trkpt lat="47.21488" lon="-1.52364">
        <ele>52</ele>
        <time>2021-03-20T14:03:34.000Z</time>
      </trkpt>
      <trkpt lat="47.21484" lon="-1.52382">
        <ele>53</ele>
        <time>2021-03-20T14:03:36.000Z</time>
      </trkpt>
      <trkpt lat="47.2148" lon="-1.52399">
        <ele>54</ele>
        <time>2021-03-20T14:03:38.000Z</time>
      </trkpt>
      <trkpt lat="47.21474" lon="-1.52418">
        <ele>54</ele>
        <time>2021-03-20T14:03:40.000Z</time>
      </trkpt>
      <trkpt lat="47.21466" lon="-1.52436">
        <ele>55</ele>
        <time>2021-03-20T14:03:42.000Z</time>
      </trkpt>
      <trkpt lat="47.21459" lon="-1.52454">
        <ele>55</ele>
        <time>2021-03-20T14:03:44.000Z</time>
      </trkpt>
      <trkpt lat="47.21454" lon="-1.52472">
        <ele>55</ele>
        <time>2021-03-20T14:03:46.000Z</time>
      </trkpt>
      <trkpt lat="47.21446" lon="-1.525">
        <ele>54</ele>
        <time>2021-03-20T14:03:49.000Z</time>
      </trkpt>
      <trkpt lat="47.21439" lon="-1.52518">
        <ele>55</ele>
        <time>2021-03-20T14:03:51.000Z</time>
      </trkpt>
      <trkpt lat="47.21433" lon="-1.52537">
        <ele>55</ele>
        <time>2021-03-20T14:03:53.000Z</time>
      </trkpt>
      <trkpt lat="47.21427" lon="-1.52556">
        <ele>55</ele>
        <time>2021-03-20T14:03:55.000Z</time>
      </trkpt>
      <trkpt lat="47.21422" lon="-1.52573">
        <ele>55</ele>
        <time>2021-03-20T14:03:57.000Z</time>
      </trkpt>
      <trkpt lat="47.21416" lon="-1.52591">
        <ele>55</ele>
        <time>2021-03-20T14:03:59.000Z</time>
      </trkpt>
      <trkpt lat="47.21409" lon="-1.52609">
        <ele>55</ele>
        <time>2021-03-20T14:04:01.000Z</time>
      </trkpt>
      <trkpt lat="47.21401" lon="-1.52634">
        <ele>55</ele>
        <time>2021-03-20T14:04:04.000Z</time>
      </trkpt>
      <trkpt lat="47.21397" lon="-1.52659">
        <ele>55</ele>
        <time>2021-03-20T14:04:07.000Z</time>
      </trkpt>
      <trkpt lat="47.21389" lon="-1.52688">
        <ele>54</ele>
        <time>2021-03-20T14:04:10.000Z</time>
      </trkpt>
      <trkpt lat="47.2138" lon="-1.5272">
        <ele>54</ele>
        <time>2021-03-20T14:04:13.000Z</time>
      </trkpt>
      <trkpt lat="47.21373" lon="-1.52751">
        <ele>55</ele>
        <time>2021-03-20T14:04:16.000Z</time>
      </trkpt>
      <trkpt lat="47.21369" lon="-1.52772">
        <ele>55</ele>
        <time>2021-03-20T14:04:18.000Z</time>
      </trkpt>
      <trkpt lat="47.21368" lon="-1.52791">
        <ele>57</ele>
        <time>2021-03-20T14:04:20.000Z</time>
      </trkpt>
      <trkpt lat="47.21366" lon="-1.5281">
        <ele>57</ele>
        <time>2021-03-20T14:04:22.000Z</time>
      </trkpt>
      <trkpt lat="47.21359" lon="-1.52836">
        <ele>56</ele>
        <time>2021-03-20T14:04:25.000Z</time>
      </trkpt>
      <trkpt lat="47.21354" lon="-1.52856">
        <ele>55</ele>
        <time>2021-03-20T14:04:27.000Z</time>
      </trkpt>
      <trkpt lat="47.2135" lon="-1.52876">
        <ele>56</ele>
        <time>2021-03-20T14:04:29.000Z</time>
      </trkpt>
      <trkpt lat="47.21347" lon="-1.52895">
        <ele>55</ele>
        <time>2021-03-20T14:04:31.000Z</time>
      </trkpt>
      <trkpt lat="47.21345" lon="-1.52917">
        <ele>54</ele>
        <time>2021-03-20T14:04:33.000Z</time>
      </trkpt>
      <trkpt lat="47.21343" lon="-1.52936">
        <ele>54</ele>
        <time>2021-03-20T14:04:35.000Z</time>
      </trkpt>
      <trkpt lat="47.21341" lon="-1.52956">
        <ele>54</ele>
        <time>2021-03-20T14:04:37.000Z</time>
      </trkpt>
      <trkpt lat="47.21339" lon="-1.52977">
        <ele>53</ele>
        <time>2021-03-20T14:04:39.000Z</time>
      </trkpt>
      <trkpt lat="47.21337" lon="-1.52995">
        <ele>53</ele>
        <time>2021-03-20T14:04:41.000Z</time>
      </trkpt>
      <trkpt lat="47.21336" lon="-1.53014">
        <ele>54</ele>
        <time>2021-03-20T14:04:43.000Z</time>
      </trkpt>
      <trkpt lat="47.21333" lon="-1.53033">
        <ele>54</ele>
        <time>2021-03-20T14:04:45.000Z</time>
      </trkpt>
      <trkpt lat="47.21329" lon="-1.53063">
        <ele>51</ele>
        <time>2021-03-20T14:04:48.000Z</time>
      </trkpt>
      <trkpt lat="47.21328" lon="-1.5308">
        <ele>53</ele>
        <time>2021-03-20T14:04:50.000Z</time>
      </trkpt>
      <trkpt lat="47.21327" lon="-1.53097">
        <ele>54</ele>
        <time>2021-03-20T14:04:52.000Z</time>
      </trkpt>
      <trkpt lat="47.21325" lon="-1.53112">
        <ele>51</ele>
        <time>2021-03-20T14:04:54.000Z</time>
      </trkpt>
      <trkpt lat="47.21322" lon="-1.5313">
        <ele>52</ele>
        <time>2021-03-20T14:04:56.000Z</time>
      </trkpt>
      <trkpt lat="47.21317" lon="-1.53149">
        <ele>54</ele>
        <time>2021-03-20T14:04:58.000Z</time>
      </trkpt>
      <trkpt lat="47.21314" lon="-1.53167">
        <ele>55</ele>
        <time>2021-03-20T14:05:00.000Z</time>
      </trkpt>
      <trkpt lat="47.21315" lon="-1.53187">
        <ele>53</ele>
        <time>2021-03-20T14:05:02.000Z</time>
      </trkpt>
      <trkpt lat="47.21313" lon="-1.53209">
        <ele>54</ele>
        <time>2021-03-20T14:05:04.000Z</time>
      </trkpt>
      <trkpt lat="47.21313" lon="-1.53229">
        <ele>54</ele>
        <time>2021-03-20T14:05:06.000Z</time>
      </trkpt>
      <trkpt lat="47.21311" lon="-1.53249">
        <ele>53</ele>
        <time>2021-03-20T14:05:08.000Z</time>
      </trkpt>
      <trkpt lat="47.2131" lon="-1.53267">
        <ele>54</ele>
        <time>2021-03-20T14:05:10.000Z</time>
      </trkpt>
      <trkpt lat="47.2131" lon="-1.53287">
        <ele>54</ele>
        <time>2021-03-20T14:05:12.000Z</time>
      </trkpt>
      <trkpt lat="47.21308" lon="-1.53307">
        <ele>54</ele>
        <time>2021-03-20T14:05:14.000Z</time>
      </trkpt>
      <trkpt lat="47.21306" lon="-1.53325">
        <ele>54</ele>
        <time>2021-03-20T14:05:16.000Z</time>
      </trkpt>
      <trkpt lat="47.21302" lon="-1.53343">
        <ele>54</ele>
        <time>2021-03-20T14:05:18.000Z</time>
      </trkpt>
      <trkpt lat="47.21299" lon="-1.53362">
        <ele>54</ele>
        <time>2021-03-20T14:05:20.000Z</time>
      </trkpt>
      <trkpt lat="47.21296" lon="-1.5338">
        <ele>55</ele>
        <time>2021-03-20T14:05:22.000Z</time>
      </trkpt>
      <trkpt lat="47.21293" lon="-1.53407">
        <ele>55</ele>
        <time>2021-03-20T14:05:25.000Z</time>
      </trkpt>
      <trkpt lat="47.21293" lon="-1.53435">
        <ele>54</ele>
        <time>2021-03-20T14:05:28.000Z</time>
      </trkpt>
      <trkpt lat="47.21294" lon="-1.53454">
        <ele>53</ele>
        <time>2021-03-20T14:05:30.000Z</time>
      </trkpt>
      <trkpt lat="47.21298" lon="-1.53472">
        <ele>54</ele>
        <time>2021-03-20T14:05:32.000Z</time>
      </trkpt>
      <trkpt lat="47.21302" lon="-1.53491">
        <ele>55</ele>
        <time>2021-03-20T14:05:34.000Z</time>
      </trkpt>
      <trkpt lat="47.21303" lon="-1.53512">
        <ele>55</ele>
        <time>2021-03-20T14:05:36.000Z</time>
      </trkpt>
      <trkpt lat="47.21305" lon="-1.53541">
        <ele>55</ele>
        <time>2021-03-20T14:05:39.000Z</time>
      </trkpt>
      <trkpt lat="47.21305" lon="-1.53559">
        <ele>56</ele>
        <time>2021-03-20T14:05:41.000Z</time>
      </trkpt>
      <trkpt lat="47.21306" lon="-1.53577">
        <ele>56</ele>
        <time>2021-03-20T14:05:43.000Z</time>
      </trkpt>
      <trkpt lat="47.21306" lon="-1.53596">
        <ele>57</ele>
        <time>2021-03-20T14:05:45.000Z</time>
      </trkpt>
      <trkpt lat="47.21306" lon="-1.53613">
        <ele>57</ele>
        <time>2021-03-20T14:05:47.000Z</time>
      </trkpt>
      <trkpt lat="47.21303" lon="-1.53626">
        <ele>57</ele>
        <time>2021-03-20T14:05:49.000Z</time>
      </trkpt>
      <trkpt lat="47.21297" lon="-1.53643">
        <ele>58</ele>
        <time>2021-03-20T14:05:52.000Z</time>
      </trkpt>
      <trkpt lat="47.21294" lon="-1.53663">
        <ele>58</ele>
        <time>2021-03-20T14:05:55.000Z</time>
      </trkpt>
      <trkpt lat="47.21296" lon="-1.53676">
        <ele>56</ele>
        <time>2021-03-20T14:05:57.000Z</time>
      </trkpt>
      <trkpt lat="47.213" lon="-1.53689">
        <ele>54</ele>
        <time>2021-03-20T14:05:59.000Z</time>
      </trkpt>
      <trkpt lat="47.21305" lon="-1.53707">
        <ele>54</ele>
        <time>2021-03-20T14:06:01.000Z</time>
      </trkpt>
      <trkpt lat="47.2131" lon="-1.53727">
        <ele>54</ele>
        <time>2021-03-20T14:06:03.000Z</time>
      </trkpt>
      <trkpt lat="47.21313" lon="-1.53747">
        <ele>54</ele>
        <time>2021-03-20T14:06:05.000Z</time>
      </trkpt>
      <trkpt lat="47.21315" lon="-1.53768">
        <ele>53</ele>
        <time>2021-03-20T14:06:07.000Z</time>
      </trkpt>
      <trkpt lat="47.21321" lon="-1.53785">
        <ele>55</ele>
        <time>2021-03-20T14:06:09.000Z</time>
      </trkpt>
      <trkpt lat="47.21325" lon="-1.53804">
        <ele>57</ele>
        <time>2021-03-20T14:06:11.000Z</time>
      </trkpt>
      <trkpt lat="47.21325" lon="-1.53823">
        <ele>56</ele>
        <time>2021-03-20T14:06:13.000Z</time>
      </trkpt>
      <trkpt lat="47.21325" lon="-1.53842">
        <ele>55</ele>
        <time>2021-03-20T14:06:15.000Z</time>
      </trkpt>
      <trkpt lat="47.21329" lon="-1.5386">
        <ele>56</ele>
        <time>2021-03-20T14:06:17.000Z</time>
      </trkpt>
      <trkpt lat="47.21332" lon="-1.53877">
        <ele>57</ele>
        <time>2021-03-20T14:06:19.000Z</time>
      </trkpt>
      <trkpt lat="47.21335" lon="-1.53894">
        <ele>56</ele>
        <time>2021-03-20T14:06:21.000Z</time>
      </trkpt>
      <trkpt lat="47.21337" lon="-1.5391">
        <ele>57</ele>
        <time>2021-03-20T14:06:23.000Z</time>
      </trkpt>
      <trkpt lat="47.21349" lon="-1.53922">
        <ele>59</ele>
        <time>2021-03-20T14:06:26.000Z</time>
      </trkpt>
      <trkpt lat="47.21361" lon="-1.53928">
        <ele>59</ele>
        <time>2021-03-20T14:06:28.000Z</time>
      </trkpt>
      <trkpt lat="47.21375" lon="-1.53928">
        <ele>59</ele>
        <time>2021-03-20T14:06:30.000Z</time>
      </trkpt>
      <trkpt lat="47.21386" lon="-1.5394">
        <ele>58</ele>
        <time>2021-03-20T14:06:32.000Z</time>
      </trkpt>
      <trkpt lat="47.21389" lon="-1.53962">
        <ele>59</ele>
        <time>2021-03-20T14:06:34.000Z</time>
      </trkpt>
      <trkpt lat="47.21387" lon="-1.53983">
        <ele>58</ele>
        <time>2021-03-20T14:06:36.000Z</time>
      </trkpt>
      <trkpt lat="47.21388" lon="-1.54002">
        <ele>59</ele>
        <time>2021-03-20T14:06:38.000Z</time>
      </trkpt>
      <trkpt lat="47.21399" lon="-1.54016">
        <ele>59</ele>
        <time>2021-03-20T14:06:40.000Z</time>
      </trkpt>
      <trkpt lat="47.21409" lon="-1.54033">
        <ele>59</ele>
        <time>2021-03-20T14:06:42.000Z</time>
      </trkpt>
      <trkpt lat="47.21418" lon="-1.5405">
        <ele>59</ele>
        <time>2021-03-20T14:06:44.000Z</time>
      </trkpt>
      <trkpt lat="47.21428" lon="-1.54064">
        <ele>59</ele>
        <time>2021-03-20T14:06:46.000Z</time>
      </trkpt>
      <trkpt lat="47.21436" lon="-1.54075">
        <ele>59</ele>
        <time>2021-03-20T14:06:48.000Z</time>
      </trkpt>
      <trkpt lat="47.21445" lon="-1.54084">
        <ele>59</ele>
        <time>2021-03-20T14:06:50.000Z</time>
      </trkpt>
      <trkpt lat="47.21454" lon="-1.54096">
        <ele>59</ele>
        <time>2021-03-20T14:06:52.000Z</time>
      </trkpt>
      <trkpt lat="47.21464" lon="-1.54106">
        <ele>58</ele>
        <time>2021-03-20T14:06:54.000Z</time>
      </trkpt>
      <trkpt lat="47.21472" lon="-1.54121">
        <ele>58</ele>
        <time>2021-03-20T14:06:56.000Z</time>
      </trkpt>
      <trkpt lat="47.21482" lon="-1.54135">
        <ele>57</ele>
        <time>2021-03-20T14:06:58.000Z</time>
      </trkpt>
      <trkpt lat="47.21491" lon="-1.54148">
        <ele>57</ele>
        <time>2021-03-20T14:07:00.000Z</time>
      </trkpt>
      <trkpt lat="47.21504" lon="-1.54165">
        <ele>56</ele>
        <time>2021-03-20T14:07:03.000Z</time>
      </trkpt>
      <trkpt lat="47.21513" lon="-1.54182">
        <ele>57</ele>
        <time>2021-03-20T14:07:05.000Z</time>
      </trkpt>
      <trkpt lat="47.21521" lon="-1.54197">
        <ele>56</ele>
        <time>2021-03-20T14:07:07.000Z</time>
      </trkpt>
      <trkpt lat="47.21529" lon="-1.54211">
        <ele>56</ele>
        <time>2021-03-20T14:07:09.000Z</time>
      </trkpt>
      <trkpt lat="47.21536" lon="-1.54225">
        <ele>55</ele>
        <time>2021-03-20T14:07:11.000Z</time>
      </trkpt>
      <trkpt lat="47.21544" lon="-1.54235">
        <ele>55</ele>
        <time>2021-03-20T14:07:13.000Z</time>
      </trkpt>
      <trkpt lat="47.21553" lon="-1.54242">
        <ele>56</ele>
        <time>2021-03-20T14:07:15.000Z</time>
      </trkpt>
      <trkpt lat="47.21563" lon="-1.54247">
        <ele>57</ele>
        <time>2021-03-20T14:07:17.000Z</time>
      </trkpt>
      <trkpt lat="47.21576" lon="-1.54264">
        <ele>58</ele>
        <time>2021-03-20T14:07:20.000Z</time>
      </trkpt>
      <trkpt lat="47.21577" lon="-1.54278">
        <ele>58</ele>
        <time>2021-03-20T14:07:22.000Z</time>
      </trkpt>
      <trkpt lat="47.21584" lon="-1.54291">
        <ele>57</ele>
        <time>2021-03-20T14:07:25.000Z</time>
      </trkpt>
      <trkpt lat="47.2159" lon="-1.54303">
        <ele>57</ele>
        <time>2021-03-20T14:07:30.000Z</time>
      </trkpt>
      <trkpt lat="47.21597" lon="-1.54313">
        <ele>58</ele>
        <time>2021-03-20T14:07:33.000Z</time>
      </trkpt>
      <trkpt lat="47.21605" lon="-1.54322">
        <ele>56</ele>
        <time>2021-03-20T14:07:35.000Z</time>
      </trkpt>
      <trkpt lat="47.21616" lon="-1.54346">
        <ele>56</ele>
        <time>2021-03-20T14:07:38.000Z</time>
      </trkpt>
      <trkpt lat="47.21625" lon="-1.5436">
        <ele>56</ele>
        <time>2021-03-20T14:07:40.000Z</time>
      </trkpt>
      <trkpt lat="47.21627" lon="-1.5438">
        <ele>55</ele>
        <time>2021-03-20T14:07:42.000Z</time>
      </trkpt>
      <trkpt lat="47.21625" lon="-1.54401">
        <ele>56</ele>
        <time>2021-03-20T14:07:44.000Z</time>
      </trkpt>
      <trkpt lat="47.2162" lon="-1.5442">
        <ele>57</ele>
        <time>2021-03-20T14:07:46.000Z</time>
      </trkpt>
      <trkpt lat="47.21615" lon="-1.54438">
        <ele>57</ele>
        <time>2021-03-20T14:07:48.000Z</time>
      </trkpt>
      <trkpt lat="47.21613" lon="-1.54455">
        <ele>56</ele>
        <time>2021-03-20T14:07:50.000Z</time>
      </trkpt>
      <trkpt lat="47.21611" lon="-1.54473">
        <ele>56</ele>
        <time>2021-03-20T14:07:52.000Z</time>
      </trkpt>
      <trkpt lat="47.21608" lon="-1.54492">
        <ele>56</ele>
        <time>2021-03-20T14:07:54.000Z</time>
      </trkpt>
      <trkpt lat="47.21603" lon="-1.54517">
        <ele>56</ele>
        <time>2021-03-20T14:07:57.000Z</time>
      </trkpt>
      <trkpt lat="47.21597" lon="-1.54535">
        <ele>58</ele>
        <time>2021-03-20T14:07:59.000Z</time>
      </trkpt>
      <trkpt lat="47.21591" lon="-1.54552">
        <ele>58</ele>
        <time>2021-03-20T14:08:01.000Z</time>
      </trkpt>
      <trkpt lat="47.21584" lon="-1.54569">
        <ele>59</ele>
        <time>2021-03-20T14:08:03.000Z</time>
      </trkpt>
      <trkpt lat="47.2158" lon="-1.54587">
        <ele>56</ele>
        <time>2021-03-20T14:08:05.000Z</time>
      </trkpt>
      <trkpt lat="47.21573" lon="-1.54602">
        <ele>57</ele>
        <time>2021-03-20T14:08:07.000Z</time>
      </trkpt>
      <trkpt lat="47.21565" lon="-1.54619">
        <ele>57</ele>
        <time>2021-03-20T14:08:09.000Z</time>
      </trkpt>
      <trkpt lat="47.2156" lon="-1.54637">
        <ele>56</ele>
        <time>2021-03-20T14:08:11.000Z</time>
      </trkpt>
      <trkpt lat="47.21558" lon="-1.54668">
        <ele>56</ele>
        <time>2021-03-20T14:08:14.000Z</time>
      </trkpt>
      <trkpt lat="47.21553" lon="-1.54685">
        <ele>55</ele>
        <time>2021-03-20T14:08:16.000Z</time>
      </trkpt>
      <trkpt lat="47.21547" lon="-1.54698">
        <ele>55</ele>
        <time>2021-03-20T14:08:18.000Z</time>
      </trkpt>
      <trkpt lat="47.21538" lon="-1.54715">
        <ele>56</ele>
        <time>2021-03-20T14:08:20.000Z</time>
      </trkpt>
      <trkpt lat="47.21528" lon="-1.54733">
        <ele>57</ele>
        <time>2021-03-20T14:08:22.000Z</time>
      </trkpt>
      <trkpt lat="47.21519" lon="-1.54752">
        <ele>58</ele>
        <time>2021-03-20T14:08:24.000Z</time>
      </trkpt>
      <trkpt lat="47.21511" lon="-1.54771">
        <ele>57</ele>
        <time>2021-03-20T14:08:26.000Z</time>
      </trkpt>
      <trkpt lat="47.21503" lon="-1.54788">
        <ele>59</ele>
        <time>2021-03-20T14:08:28.000Z</time>
      </trkpt>
      <trkpt lat="47.21494" lon="-1.54806">
        <ele>59</ele>
        <time>2021-03-20T14:08:30.000Z</time>
      </trkpt>
      <trkpt lat="47.21484" lon="-1.54825">
        <ele>60</ele>
        <time>2021-03-20T14:08:32.000Z</time>
      </trkpt>
      <trkpt lat="47.21475" lon="-1.54841">
        <ele>60</ele>
        <time>2021-03-20T14:08:34.000Z</time>
      </trkpt>
      <trkpt lat="47.21466" lon="-1.54859">
        <ele>60</ele>
        <time>2021-03-20T14:08:36.000Z</time>
      </trkpt>
      <trkpt lat="47.21457" lon="-1.54879">
        <ele>58</ele>
        <time>2021-03-20T14:08:38.000Z</time>
      </trkpt>
      <trkpt lat="47.21449" lon="-1.54897">
        <ele>59</ele>
        <time>2021-03-20T14:08:40.000Z</time>
      </trkpt>
      <trkpt lat="47.21441" lon="-1.54915">
        <ele>58</ele>
        <time>2021-03-20T14:08:42.000Z</time>
      </trkpt>
      <trkpt lat="47.21435" lon="-1.54935">
        <ele>58</ele>
        <time>2021-03-20T14:08:44.000Z</time>
      </trkpt>
      <trkpt lat="47.21429" lon="-1.54951">
        <ele>57</ele>
        <time>2021-03-20T14:08:46.000Z</time>
      </trkpt>
      <trkpt lat="47.2142" lon="-1.54967">
        <ele>56</ele>
        <time>2021-03-20T14:08:48.000Z</time>
      </trkpt>
      <trkpt lat="47.21409" lon="-1.54985">
        <ele>57</ele>
        <time>2021-03-20T14:08:50.000Z</time>
      </trkpt>
      <trkpt lat="47.21401" lon="-1.55003">
        <ele>55</ele>
        <time>2021-03-20T14:08:52.000Z</time>
      </trkpt>
      <trkpt lat="47.21394" lon="-1.5502">
        <ele>54</ele>
        <time>2021-03-20T14:08:54.000Z</time>
      </trkpt>
      <trkpt lat="47.21387" lon="-1.55037">
        <ele>55</ele>
        <time>2021-03-20T14:08:56.000Z</time>
      </trkpt>
      <trkpt lat="47.21379" lon="-1.55056">
        <ele>55</ele>
        <time>2021-03-20T14:08:58.000Z</time>
      </trkpt>
      <trkpt lat="47.21375" lon="-1.55074">
        <ele>53</ele>
        <time>2021-03-20T14:09:00.000Z</time>
      </trkpt>
      <trkpt lat="47.21368" lon="-1.55089">
        <ele>53</ele>
        <time>2021-03-20T14:09:02.000Z</time>
      </trkpt>
      <trkpt lat="47.2136" lon="-1.55106">
        <ele>55</ele>
        <time>2021-03-20T14:09:04.000Z</time>
      </trkpt>
      <trkpt lat="47.21351" lon="-1.55126">
        <ele>55</ele>
        <time>2021-03-20T14:09:06.000Z</time>
      </trkpt>
      <trkpt lat="47.21344" lon="-1.55143">
        <ele>56</ele>
        <time>2021-03-20T14:09:08.000Z</time>
      </trkpt>
      <trkpt lat="47.21337" lon="-1.55161">
        <ele>56</ele>
        <time>2021-03-20T14:09:10.000Z</time>
      </trkpt>
      <trkpt lat="47.2133" lon="-1.55178">
        <ele>57</ele>
        <time>2021-03-20T14:09:12.000Z</time>
      </trkpt>
      <trkpt lat="47.21322" lon="-1.55195">
        <ele>56</ele>
        <time>2021-03-20T14:09:14.000Z</time>
      </trkpt>
      <trkpt lat="47.21316" lon="-1.55212">
        <ele>56</ele>
        <time>2021-03-20T14:09:16.000Z</time>
      </trkpt>
      <trkpt lat="47.21309" lon="-1.55228">
        <ele>57</ele>
        <time>2021-03-20T14:09:18.000Z</time>
      </trkpt>
      <trkpt lat="47.21302" lon="-1.55246">
        <ele>57</ele>
        <time>2021-03-20T14:09:20.000Z</time>
      </trkpt>
      <trkpt lat="47.21294" lon="-1.55262">
        <ele>57</ele>
        <time>2021-03-20T14:09:22.000Z</time>
      </trkpt>
      <trkpt lat="47.21288" lon="-1.55279">
        <ele>56</ele>
        <time>2021-03-20T14:09:24.000Z</time>
      </trkpt>
      <trkpt lat="47.21283" lon="-1.55294">
        <ele>55</ele>
        <time>2021-03-20T14:09:26.000Z</time>
      </trkpt>
      <trkpt lat="47.21274" lon="-1.553">
        <ele>57</ele>
        <time>2021-03-20T14:09:28.000Z</time>
      </trkpt>
      <trkpt lat="47.21263" lon="-1.55299">
        <ele>58</ele>
        <time>2021-03-20T14:09:30.000Z</time>
      </trkpt>
      <trkpt lat="47.21255" lon="-1.5531">
        <ele>55</ele>
        <time>2021-03-20T14:09:32.000Z</time>
      </trkpt>
      <trkpt lat="47.21256" lon="-1.55326">
        <ele>55</ele>
        <time>2021-03-20T14:09:34.000Z</time>
      </trkpt>
      <trkpt lat="47.21262" lon="-1.55339">
        <ele>55</ele>
        <time>2021-03-20T14:09:36.000Z</time>
      </trkpt>
      <trkpt lat="47.21272" lon="-1.55348">
        <ele>56</ele>
        <time>2021-03-20T14:09:39.000Z</time>
      </trkpt>
      <trkpt lat="47.21281" lon="-1.55356">
        <ele>54</ele>
        <time>2021-03-20T14:09:42.000Z</time>
      </trkpt>
      <trkpt lat="47.21286" lon="-1.55376">
        <ele>56</ele>
        <time>2021-03-20T14:09:44.000Z</time>
      </trkpt>
      <trkpt lat="47.2128" lon="-1.55387">
        <ele>57</ele>
        <time>2021-03-20T14:09:45.000Z</time>
      </trkpt>
      <trkpt lat="47.21273" lon="-1.55399">
        <ele>58</ele>
        <time>2021-03-20T14:09:47.000Z</time>
      </trkpt>
      <trkpt lat="47.21264" lon="-1.55415">
        <ele>59</ele>
        <time>2021-03-20T14:09:57.000Z</time>
      </trkpt>
      <trkpt lat="47.21258" lon="-1.55432">
        <ele>59</ele>
        <time>2021-03-20T14:10:00.000Z</time>
      </trkpt>
      <trkpt lat="47.21241" lon="-1.55456">
        <ele>60</ele>
        <time>2021-03-20T14:10:03.000Z</time>
      </trkpt>
      <trkpt lat="47.2123" lon="-1.55478">
        <ele>59</ele>
        <time>2021-03-20T14:10:05.000Z</time>
      </trkpt>
      <trkpt lat="47.21224" lon="-1.5549">
        <ele>60</ele>
        <time>2021-03-20T14:10:06.000Z</time>
      </trkpt>
      <trkpt lat="47.2122" lon="-1.55503">
        <ele>60</ele>
        <time>2021-03-20T14:10:07.000Z</time>
      </trkpt>
      <trkpt lat="47.21212" lon="-1.55528">
        <ele>60</ele>
        <time>2021-03-20T14:10:09.000Z</time>
      </trkpt>
      <trkpt lat="47.21209" lon="-1.5554">
        <ele>60</ele>
        <time>2021-03-20T14:10:10.000Z</time>
      </trkpt>
      <trkpt lat="47.21205" lon="-1.55552">
        <ele>60</ele>
        <time>2021-03-20T14:10:11.000Z</time>
      </trkpt>
      <trkpt lat="47.21198" lon="-1.55576">
        <ele>59</ele>
        <time>2021-03-20T14:10:13.000Z</time>
      </trkpt>
      <trkpt lat="47.21191" lon="-1.55599">
        <ele>59</ele>
        <time>2021-03-20T14:10:15.000Z</time>
      </trkpt>
      <trkpt lat="47.21183" lon="-1.55622">
        <ele>59</ele>
        <time>2021-03-20T14:10:17.000Z</time>
      </trkpt>
      <trkpt lat="47.21175" lon="-1.55644">
        <ele>59</ele>
        <time>2021-03-20T14:10:19.000Z</time>
      </trkpt>
      <trkpt lat="47.21169" lon="-1.55666">
        <ele>58</ele>
        <time>2021-03-20T14:10:21.000Z</time>
      </trkpt>
      <trkpt lat="47.21154" lon="-1.55672">
        <ele>58</ele>
        <time>2021-03-20T14:10:23.000Z</time>
      </trkpt>
      <trkpt lat="47.21139" lon="-1.55661">
        <ele>58</ele>
        <time>2021-03-20T14:10:25.000Z</time>
      </trkpt>
      <trkpt lat="47.21119" lon="-1.55642">
        <ele>56</ele>
        <time>2021-03-20T14:10:28.000Z</time>
      </trkpt>
      <trkpt lat="47.21105" lon="-1.55631">
        <ele>55</ele>
        <time>2021-03-20T14:10:30.000Z</time>
      </trkpt>
      <trkpt lat="47.21088" lon="-1.55623">
        <ele>56</ele>
        <time>2021-03-20T14:10:32.000Z</time>
      </trkpt>
      <trkpt lat="47.2108" lon="-1.55617">
        <ele>56</ele>
        <time>2021-03-20T14:10:33.000Z</time>
      </trkpt>
      <trkpt lat="47.21063" lon="-1.55609">
        <ele>56</ele>
        <time>2021-03-20T14:10:35.000Z</time>
      </trkpt>
      <trkpt lat="47.21049" lon="-1.55599">
        <ele>58</ele>
        <time>2021-03-20T14:10:37.000Z</time>
      </trkpt>
      <trkpt lat="47.21034" lon="-1.5559">
        <ele>59</ele>
        <time>2021-03-20T14:10:39.000Z</time>
      </trkpt>
      <trkpt lat="47.2102" lon="-1.55585">
        <ele>59</ele>
        <time>2021-03-20T14:10:41.000Z</time>
      </trkpt>
      <trkpt lat="47.21005" lon="-1.55582">
        <ele>60</ele>
        <time>2021-03-20T14:10:43.000Z</time>
      </trkpt>
      <trkpt lat="47.20992" lon="-1.55581">
        <ele>61</ele>
        <time>2021-03-20T14:10:45.000Z</time>
      </trkpt>
      <trkpt lat="47.20981" lon="-1.55582">
        <ele>60</ele>
        <time>2021-03-20T14:10:47.000Z</time>
      </trkpt>
      <trkpt lat="47.20969" lon="-1.55583">
        <ele>57</ele>
        <time>2021-03-20T14:10:50.000Z</time>
      </trkpt>
      <trkpt lat="47.2096" lon="-1.55578">
        <ele>56</ele>
        <time>2021-03-20T14:10:56.000Z</time>
      </trkpt>
      <trkpt lat="47.20949" lon="-1.55575">
        <ele>55</ele>
        <time>2021-03-20T14:11:22.000Z</time>
      </trkpt>
      <trkpt lat="47.20934" lon="-1.5557">
        <ele>56</ele>
        <time>2021-03-20T14:11:24.000Z</time>
      </trkpt>
      <trkpt lat="47.20924" lon="-1.55565">
        <ele>57</ele>
        <time>2021-03-20T14:11:25.000Z</time>
      </trkpt>
      <trkpt lat="47.2091" lon="-1.55561">
        <ele>58</ele>
        <time>2021-03-20T14:11:27.000Z</time>
      </trkpt>
      <trkpt lat="47.20894" lon="-1.55557">
        <ele>60</ele>
        <time>2021-03-20T14:11:29.000Z</time>
      </trkpt>
      <trkpt lat="47.20879" lon="-1.55551">
        <ele>62</ele>
        <time>2021-03-20T14:11:31.000Z</time>
      </trkpt>
      <trkpt lat="47.20865" lon="-1.55547">
        <ele>60</ele>
        <time>2021-03-20T14:11:33.000Z</time>
      </trkpt>
      <trkpt lat="47.20845" lon="-1.5554">
        <ele>60</ele>
        <time>2021-03-20T14:11:36.000Z</time>
      </trkpt>
      <trkpt lat="47.2083" lon="-1.55537">
        <ele>61</ele>
        <time>2021-03-20T14:11:38.000Z</time>
      </trkpt>
      <trkpt lat="47.20816" lon="-1.55534">
        <ele>61</ele>
        <time>2021-03-20T14:11:40.000Z</time>
      </trkpt>
      <trkpt lat="47.20801" lon="-1.55531">
        <ele>61</ele>
        <time>2021-03-20T14:11:42.000Z</time>
      </trkpt>
      <trkpt lat="47.20786" lon="-1.55528">
        <ele>60</ele>
        <time>2021-03-20T14:11:44.000Z</time>
      </trkpt>
      <trkpt lat="47.20771" lon="-1.55525">
        <ele>60</ele>
        <time>2021-03-20T14:11:46.000Z</time>
      </trkpt>
      <trkpt lat="47.20754" lon="-1.55521">
        <ele>59</ele>
        <time>2021-03-20T14:11:48.000Z</time>
      </trkpt>
      <trkpt lat="47.20741" lon="-1.5552">
        <ele>55</ele>
        <time>2021-03-20T14:11:50.000Z</time>
      </trkpt>
      <trkpt lat="47.20724" lon="-1.55511">
        <ele>53</ele>
        <time>2021-03-20T14:11:52.000Z</time>
      </trkpt>
      <trkpt lat="47.20714" lon="-1.5551">
        <ele>53</ele>
        <time>2021-03-20T14:11:53.000Z</time>
      </trkpt>
      <trkpt lat="47.20705" lon="-1.55508">
        <ele>54</ele>
        <time>2021-03-20T14:11:54.000Z</time>
      </trkpt>
      <trkpt lat="47.2069" lon="-1.55504">
        <ele>55</ele>
        <time>2021-03-20T14:11:56.000Z</time>
      </trkpt>
      <trkpt lat="47.20673" lon="-1.555">
        <ele>55</ele>
        <time>2021-03-20T14:11:58.000Z</time>
      </trkpt>
      <trkpt lat="47.20646" lon="-1.55495">
        <ele>55</ele>
        <time>2021-03-20T14:12:01.000Z</time>
      </trkpt>
      <trkpt lat="47.20634" lon="-1.55494">
        <ele>55</ele>
        <time>2021-03-20T14:12:02.000Z</time>
      </trkpt>
      <trkpt lat="47.20624" lon="-1.55493">
        <ele>56</ele>
        <time>2021-03-20T14:12:03.000Z</time>
      </trkpt>
      <trkpt lat="47.20614" lon="-1.55491">
        <ele>56</ele>
        <time>2021-03-20T14:12:04.000Z</time>
      </trkpt>
      <trkpt lat="47.20605" lon="-1.55489">
        <ele>55</ele>
        <time>2021-03-20T14:12:05.000Z</time>
      </trkpt>
      <trkpt lat="47.20589" lon="-1.55484">
        <ele>56</ele>
        <time>2021-03-20T14:12:07.000Z</time>
      </trkpt>
      <trkpt lat="47.20574" lon="-1.55483">
        <ele>54</ele>
        <time>2021-03-20T14:12:09.000Z</time>
      </trkpt>
      <trkpt lat="47.20565" lon="-1.55487">
        <ele>55</ele>
        <time>2021-03-20T14:12:11.000Z</time>
      </trkpt>
      <trkpt lat="47.20556" lon="-1.55494">
        <ele>55</ele>
        <time>2021-03-20T14:12:13.000Z</time>
      </trkpt>
      <trkpt lat="47.20545" lon="-1.55506">
        <ele>56</ele>
        <time>2021-03-20T14:12:15.000Z</time>
      </trkpt>
      <trkpt lat="47.20533" lon="-1.55512">
        <ele>57</ele>
        <time>2021-03-20T14:12:17.000Z</time>
      </trkpt>
      <trkpt lat="47.20518" lon="-1.55501">
        <ele>57</ele>
        <time>2021-03-20T14:12:19.000Z</time>
      </trkpt>
      <trkpt lat="47.20506" lon="-1.55482">
        <ele>58</ele>
        <time>2021-03-20T14:12:21.000Z</time>
      </trkpt>
      <trkpt lat="47.20499" lon="-1.55451">
        <ele>59</ele>
        <time>2021-03-20T14:12:24.000Z</time>
      </trkpt>
      <trkpt lat="47.20504" lon="-1.55432">
        <ele>59</ele>
        <time>2021-03-20T14:12:26.000Z</time>
      </trkpt>
      <trkpt lat="47.20505" lon="-1.55412">
        <ele>58</ele>
        <time>2021-03-20T14:12:28.000Z</time>
      </trkpt>
      <trkpt lat="47.205" lon="-1.55398">
        <ele>57</ele>
        <time>2021-03-20T14:12:30.000Z</time>
      </trkpt>
      <trkpt lat="47.20491" lon="-1.55384">
        <ele>58</ele>
        <time>2021-03-20T14:12:32.000Z</time>
      </trkpt>
      <trkpt lat="47.20484" lon="-1.55374">
        <ele>58</ele>
        <time>2021-03-20T14:12:34.000Z</time>
      </trkpt>
      <trkpt lat="47.20475" lon="-1.55361">
        <ele>56</ele>
        <time>2021-03-20T14:12:37.000Z</time>
      </trkpt>
      <trkpt lat="47.20466" lon="-1.55344">
        <ele>54</ele>
        <time>2021-03-20T14:12:39.000Z</time>
      </trkpt>
      <trkpt lat="47.20457" lon="-1.55325">
        <ele>56</ele>
        <time>2021-03-20T14:12:41.000Z</time>
      </trkpt>
      <trkpt lat="47.20449" lon="-1.55311">
        <ele>57</ele>
        <time>2021-03-20T14:12:43.000Z</time>
      </trkpt>
      <trkpt lat="47.20441" lon="-1.55296">
        <ele>57</ele>
        <time>2021-03-20T14:12:45.000Z</time>
      </trkpt>
      <trkpt lat="47.20433" lon="-1.5528">
        <ele>57</ele>
        <time>2021-03-20T14:12:47.000Z</time>
      </trkpt>
      <trkpt lat="47.20428" lon="-1.55262">
        <ele>58</ele>
        <time>2021-03-20T14:12:49.000Z</time>
      </trkpt>
      <trkpt lat="47.20421" lon="-1.55245">
        <ele>59</ele>
        <time>2021-03-20T14:12:51.000Z</time>
      </trkpt>
      <trkpt lat="47.20413" lon="-1.55229">
        <ele>59</ele>
        <time>2021-03-20T14:12:53.000Z</time>
      </trkpt>
      <trkpt lat="47.20407" lon="-1.55214">
        <ele>59</ele>
        <time>2021-03-20T14:12:55.000Z</time>
      </trkpt>
      <trkpt lat="47.20398" lon="-1.55199">
        <ele>59</ele>
        <time>2021-03-20T14:12:57.000Z</time>
      </trkpt>
      <trkpt lat="47.20387" lon="-1.55186">
        <ele>60</ele>
        <time>2021-03-20T14:12:59.000Z</time>
      </trkpt>
      <trkpt lat="47.20374" lon="-1.55185">
        <ele>60</ele>
        <time>2021-03-20T14:13:01.000Z</time>
      </trkpt>
      <trkpt lat="47.20366" lon="-1.55196">
        <ele>60</ele>
        <time>2021-03-20T14:13:03.000Z</time>
      </trkpt>
      <trkpt lat="47.20356" lon="-1.55211">
        <ele>58</ele>
        <time>2021-03-20T14:13:05.000Z</time>
      </trkpt>
      <trkpt lat="47.20345" lon="-1.55224">
        <ele>58</ele>
        <time>2021-03-20T14:13:07.000Z</time>
      </trkpt>
      <trkpt lat="47.20333" lon="-1.55239">
        <ele>54</ele>
        <time>2021-03-20T14:13:09.000Z</time>
      </trkpt>
      <trkpt lat="47.20322" lon="-1.55252">
        <ele>55</ele>
        <time>2021-03-20T14:13:11.000Z</time>
      </trkpt>
      <trkpt lat="47.20312" lon="-1.55267">
        <ele>56</ele>
        <time>2021-03-20T14:13:13.000Z</time>
      </trkpt>
      <trkpt lat="47.20302" lon="-1.55282">
        <ele>57</ele>
        <time>2021-03-20T14:13:15.000Z</time>
      </trkpt>
      <trkpt lat="47.20292" lon="-1.55294">
        <ele>57</ele>
        <time>2021-03-20T14:13:17.000Z</time>
      </trkpt>
      <trkpt lat="47.20282" lon="-1.55306">
        <ele>57</ele>
        <time>2021-03-20T14:13:19.000Z</time>
      </trkpt>
      <trkpt lat="47.20272" lon="-1.55322">
        <ele>59</ele>
        <time>2021-03-20T14:13:21.000Z</time>
      </trkpt>
      <trkpt lat="47.20262" lon="-1.55335">
        <ele>59</ele>
        <time>2021-03-20T14:13:23.000Z</time>
      </trkpt>
      <trkpt lat="47.20253" lon="-1.55349">
        <ele>58</ele>
        <time>2021-03-20T14:13:25.000Z</time>
      </trkpt>
      <trkpt lat="47.20243" lon="-1.5536">
        <ele>59</ele>
        <time>2021-03-20T14:13:27.000Z</time>
      </trkpt>
      <trkpt lat="47.2023" lon="-1.55373">
        <ele>60</ele>
        <time>2021-03-20T14:13:29.000Z</time>
      </trkpt>
      <trkpt lat="47.20219" lon="-1.55387">
        <ele>60</ele>
        <time>2021-03-20T14:13:31.000Z</time>
      </trkpt>
      <trkpt lat="47.20205" lon="-1.55409">
        <ele>59</ele>
        <time>2021-03-20T14:13:34.000Z</time>
      </trkpt>
      <trkpt lat="47.20195" lon="-1.55421">
        <ele>61</ele>
        <time>2021-03-20T14:13:36.000Z</time>
      </trkpt>
      <trkpt lat="47.20184" lon="-1.55435">
        <ele>62</ele>
        <time>2021-03-20T14:13:38.000Z</time>
      </trkpt>
      <trkpt lat="47.20172" lon="-1.55448">
        <ele>60</ele>
        <time>2021-03-20T14:13:40.000Z</time>
      </trkpt>
      <trkpt lat="47.20161" lon="-1.5546">
        <ele>60</ele>
        <time>2021-03-20T14:13:42.000Z</time>
      </trkpt>
      <trkpt lat="47.20152" lon="-1.55472">
        <ele>60</ele>
        <time>2021-03-20T14:13:44.000Z</time>
      </trkpt>
      <trkpt lat="47.20144" lon="-1.55484">
        <ele>60</ele>
        <time>2021-03-20T14:13:46.000Z</time>
      </trkpt>
      <trkpt lat="47.20133" lon="-1.55491">
        <ele>59</ele>
        <time>2021-03-20T14:13:48.000Z</time>
      </trkpt>
      <trkpt lat="47.20122" lon="-1.555">
        <ele>60</ele>
        <time>2021-03-20T14:13:50.000Z</time>
      </trkpt>
      <trkpt lat="47.20111" lon="-1.55514">
        <ele>59</ele>
        <time>2021-03-20T14:13:52.000Z</time>
      </trkpt>
      <trkpt lat="47.201" lon="-1.55528">
        <ele>59</ele>
        <time>2021-03-20T14:13:54.000Z</time>
      </trkpt>
      <trkpt lat="47.20089" lon="-1.55542">
        <ele>58</ele>
        <time>2021-03-20T14:13:56.000Z</time>
      </trkpt>
      <trkpt lat="47.20079" lon="-1.55556">
        <ele>58</ele>
        <time>2021-03-20T14:13:58.000Z</time>
      </trkpt>
      <trkpt lat="47.20068" lon="-1.5557">
        <ele>59</ele>
        <time>2021-03-20T14:14:00.000Z</time>
      </trkpt>
      <trkpt lat="47.20057" lon="-1.55584">
        <ele>59</ele>
        <time>2021-03-20T14:14:02.000Z</time>
      </trkpt>
      <trkpt lat="47.20046" lon="-1.55597">
        <ele>59</ele>
        <time>2021-03-20T14:14:04.000Z</time>
      </trkpt>
      <trkpt lat="47.20036" lon="-1.55611">
        <ele>60</ele>
        <time>2021-03-20T14:14:06.000Z</time>
      </trkpt>
      <trkpt lat="47.20027" lon="-1.55625">
        <ele>61</ele>
        <time>2021-03-20T14:14:08.000Z</time>
      </trkpt>
      <trkpt lat="47.20014" lon="-1.55633">
        <ele>61</ele>
        <time>2021-03-20T14:14:10.000Z</time>
      </trkpt>
      <trkpt lat="47.19999" lon="-1.55633">
        <ele>60</ele>
        <time>2021-03-20T14:14:12.000Z</time>
      </trkpt>
      <trkpt lat="47.19985" lon="-1.55641">
        <ele>60</ele>
        <time>2021-03-20T14:14:14.000Z</time>
      </trkpt>
      <trkpt lat="47.19973" lon="-1.55649">
        <ele>59</ele>
        <time>2021-03-20T14:14:16.000Z</time>
      </trkpt>
      <trkpt lat="47.19961" lon="-1.55658">
        <ele>58</ele>
        <time>2021-03-20T14:14:18.000Z</time>
      </trkpt>
      <trkpt lat="47.19952" lon="-1.55671">
        <ele>58</ele>
        <time>2021-03-20T14:14:20.000Z</time>
      </trkpt>
      <trkpt lat="47.19942" lon="-1.55686">
        <ele>58</ele>
        <time>2021-03-20T14:14:22.000Z</time>
      </trkpt>
      <trkpt lat="47.19936" lon="-1.55704">
        <ele>58</ele>
        <time>2021-03-20T14:14:24.000Z</time>
      </trkpt>
      <trkpt lat="47.19933" lon="-1.55722">
        <ele>58</ele>
        <time>2021-03-20T14:14:26.000Z</time>
      </trkpt>
      <trkpt lat="47.19933" lon="-1.55742">
        <ele>58</ele>
        <time>2021-03-20T14:14:28.000Z</time>
      </trkpt>
      <trkpt lat="47.19933" lon="-1.5576">
        <ele>58</ele>
        <time>2021-03-20T14:14:30.000Z</time>
      </trkpt>
      <trkpt lat="47.19933" lon="-1.55779">
        <ele>58</ele>
        <time>2021-03-20T14:14:32.000Z</time>
      </trkpt>
      <trkpt lat="47.19933" lon="-1.55798">
        <ele>59</ele>
        <time>2021-03-20T14:14:34.000Z</time>
      </trkpt>
      <trkpt lat="47.19933" lon="-1.5582">
        <ele>59</ele>
        <time>2021-03-20T14:14:36.000Z</time>
      </trkpt>
      <trkpt lat="47.19932" lon="-1.55842">
        <ele>58</ele>
        <time>2021-03-20T14:14:38.000Z</time>
      </trkpt>
      <trkpt lat="47.19932" lon="-1.55861">
        <ele>58</ele>
        <time>2021-03-20T14:14:40.000Z</time>
      </trkpt>
      <trkpt lat="47.19931" lon="-1.55881">
        <ele>58</ele>
        <time>2021-03-20T14:14:42.000Z</time>
      </trkpt>
      <trkpt lat="47.19932" lon="-1.55912">
        <ele>58</ele>
        <time>2021-03-20T14:14:45.000Z</time>
      </trkpt>
      <trkpt lat="47.19933" lon="-1.55931">
        <ele>58</ele>
        <time>2021-03-20T14:14:47.000Z</time>
      </trkpt>
      <trkpt lat="47.19934" lon="-1.5596">
        <ele>58</ele>
        <time>2021-03-20T14:14:50.000Z</time>
      </trkpt>
      <trkpt lat="47.19935" lon="-1.5598">
        <ele>58</ele>
        <time>2021-03-20T14:14:52.000Z</time>
      </trkpt>
      <trkpt lat="47.19934" lon="-1.56">
        <ele>58</ele>
        <time>2021-03-20T14:14:54.000Z</time>
      </trkpt>
      <trkpt lat="47.19935" lon="-1.5602">
        <ele>58</ele>
        <time>2021-03-20T14:14:56.000Z</time>
      </trkpt>
      <trkpt lat="47.19935" lon="-1.5604">
        <ele>58</ele>
        <time>2021-03-20T14:14:58.000Z</time>
      </trkpt>
      <trkpt lat="47.19936" lon="-1.5606">
        <ele>58</ele>
        <time>2021-03-20T14:15:00.000Z</time>
      </trkpt>
      <trkpt lat="47.1994" lon="-1.56079">
        <ele>58</ele>
        <time>2021-03-20T14:15:02.000Z</time>
      </trkpt>
      <trkpt lat="47.19947" lon="-1.56094">
        <ele>57</ele>
        <time>2021-03-20T14:15:04.000Z</time>
      </trkpt>
      <trkpt lat="47.19955" lon="-1.56108">
        <ele>56</ele>
        <time>2021-03-20T14:15:06.000Z</time>
      </trkpt>
      <trkpt lat="47.1996" lon="-1.5612">
        <ele>54</ele>
        <time>2021-03-20T14:15:08.000Z</time>
      </trkpt>
      <trkpt lat="47.19961" lon="-1.56135">
        <ele>55</ele>
        <time>2021-03-20T14:15:11.000Z</time>
      </trkpt>
      <trkpt lat="47.1997" lon="-1.56143">
        <ele>56</ele>
        <time>2021-03-20T14:15:14.000Z</time>
      </trkpt>
      <trkpt lat="47.1997" lon="-1.5616">
        <ele>56</ele>
        <time>2021-03-20T14:15:17.000Z</time>
      </trkpt>
      <trkpt lat="47.19961" lon="-1.56168">
        <ele>57</ele>
        <time>2021-03-20T14:15:19.000Z</time>
      </trkpt>
      <trkpt lat="47.19949" lon="-1.56169">
        <ele>57</ele>
        <time>2021-03-20T14:15:21.000Z</time>
      </trkpt>
      <trkpt lat="47.19937" lon="-1.56172">
        <ele>55</ele>
        <time>2021-03-20T14:15:23.000Z</time>
      </trkpt>
      <trkpt lat="47.19924" lon="-1.56175">
        <ele>55</ele>
        <time>2021-03-20T14:15:25.000Z</time>
      </trkpt>
      <trkpt lat="47.1991" lon="-1.56176">
        <ele>57</ele>
        <time>2021-03-20T14:15:27.000Z</time>
      </trkpt>
      <trkpt lat="47.19896" lon="-1.56179">
        <ele>57</ele>
        <time>2021-03-20T14:15:29.000Z</time>
      </trkpt>
      <trkpt lat="47.19883" lon="-1.56181">
        <ele>58</ele>
        <time>2021-03-20T14:15:31.000Z</time>
      </trkpt>
      <trkpt lat="47.1987" lon="-1.56184">
        <ele>59</ele>
        <time>2021-03-20T14:15:33.000Z</time>
      </trkpt>
      <trkpt lat="47.19858" lon="-1.56186">
        <ele>59</ele>
        <time>2021-03-20T14:15:35.000Z</time>
      </trkpt>
      <trkpt lat="47.19845" lon="-1.56189">
        <ele>60</ele>
        <time>2021-03-20T14:15:37.000Z</time>
      </trkpt>
      <trkpt lat="47.19834" lon="-1.5619">
        <ele>60</ele>
        <time>2021-03-20T14:15:39.000Z</time>
      </trkpt>
      <trkpt lat="47.19822" lon="-1.56193">
        <ele>61</ele>
        <time>2021-03-20T14:15:41.000Z</time>
      </trkpt>
      <trkpt lat="47.1981" lon="-1.56195">
        <ele>61</ele>
        <time>2021-03-20T14:15:43.000Z</time>
      </trkpt>
      <trkpt lat="47.19797" lon="-1.56197">
        <ele>61</ele>
        <time>2021-03-20T14:15:45.000Z</time>
      </trkpt>
      <trkpt lat="47.19785" lon="-1.562">
        <ele>61</ele>
        <time>2021-03-20T14:15:47.000Z</time>
      </trkpt>
      <trkpt lat="47.19772" lon="-1.56202">
        <ele>60</ele>
        <time>2021-03-20T14:15:49.000Z</time>
      </trkpt>
      <trkpt lat="47.19757" lon="-1.56205">
        <ele>60</ele>
        <time>2021-03-20T14:15:51.000Z</time>
      </trkpt>
      <trkpt lat="47.19743" lon="-1.56204">
        <ele>60</ele>
        <time>2021-03-20T14:15:53.000Z</time>
      </trkpt>
      <trkpt lat="47.19727" lon="-1.56209">
        <ele>59</ele>
        <time>2021-03-20T14:15:55.000Z</time>
      </trkpt>
      <trkpt lat="47.19711" lon="-1.56213">
        <ele>58</ele>
        <time>2021-03-20T14:15:57.000Z</time>
      </trkpt>
      <trkpt lat="47.19694" lon="-1.56216">
        <ele>57</ele>
        <time>2021-03-20T14:15:59.000Z</time>
      </trkpt>
      <trkpt lat="47.19674" lon="-1.56221">
        <ele>56</ele>
        <time>2021-03-20T14:16:01.000Z</time>
      </trkpt>
      <trkpt lat="47.19665" lon="-1.56225">
        <ele>55</ele>
        <time>2021-03-20T14:16:02.000Z</time>
      </trkpt>
      <trkpt lat="47.19647" lon="-1.5623">
        <ele>54</ele>
        <time>2021-03-20T14:16:04.000Z</time>
      </trkpt>
      <trkpt lat="47.19636" lon="-1.56248">
        <ele>53</ele>
        <time>2021-03-20T14:16:06.000Z</time>
      </trkpt>
      <trkpt lat="47.19635" lon="-1.56261">
        <ele>53</ele>
        <time>2021-03-20T14:16:07.000Z</time>
      </trkpt>
      <trkpt lat="47.19634" lon="-1.56285">
        <ele>54</ele>
        <time>2021-03-20T14:16:09.000Z</time>
      </trkpt>
      <trkpt lat="47.19633" lon="-1.56309">
        <ele>55</ele>
        <time>2021-03-20T14:16:11.000Z</time>
      </trkpt>
      <trkpt lat="47.19632" lon="-1.56333">
        <ele>55</ele>
        <time>2021-03-20T14:16:13.000Z</time>
      </trkpt>
      <trkpt lat="47.19631" lon="-1.56357">
        <ele>55</ele>
        <time>2021-03-20T14:16:15.000Z</time>
      </trkpt>
      <trkpt lat="47.19631" lon="-1.56379">
        <ele>55</ele>
        <time>2021-03-20T14:16:17.000Z</time>
      </trkpt>
      <trkpt lat="47.19631" lon="-1.56402">
        <ele>54</ele>
        <time>2021-03-20T14:16:19.000Z</time>
      </trkpt>
      <trkpt lat="47.19631" lon="-1.56424">
        <ele>54</ele>
        <time>2021-03-20T14:16:21.000Z</time>
      </trkpt>
      <trkpt lat="47.19631" lon="-1.56447">
        <ele>55</ele>
        <time>2021-03-20T14:16:23.000Z</time>
      </trkpt>
      <trkpt lat="47.19632" lon="-1.56471">
        <ele>55</ele>
        <time>2021-03-20T14:16:25.000Z</time>
      </trkpt>
      <trkpt lat="47.19634" lon="-1.56495">
        <ele>54</ele>
        <time>2021-03-20T14:16:27.000Z</time>
      </trkpt>
      <trkpt lat="47.19637" lon="-1.56531">
        <ele>54</ele>
        <time>2021-03-20T14:16:30.000Z</time>
      </trkpt>
      <trkpt lat="47.19638" lon="-1.56544">
        <ele>55</ele>
        <time>2021-03-20T14:16:31.000Z</time>
      </trkpt>
      <trkpt lat="47.19638" lon="-1.5657">
        <ele>56</ele>
        <time>2021-03-20T14:16:33.000Z</time>
      </trkpt>
      <trkpt lat="47.19637" lon="-1.56594">
        <ele>55</ele>
        <time>2021-03-20T14:16:35.000Z</time>
      </trkpt>
      <trkpt lat="47.19636" lon="-1.56617">
        <ele>52</ele>
        <time>2021-03-20T14:16:37.000Z</time>
      </trkpt>
      <trkpt lat="47.19636" lon="-1.5664">
        <ele>53</ele>
        <time>2021-03-20T14:16:39.000Z</time>
      </trkpt>
      <trkpt lat="47.19634" lon="-1.56664">
        <ele>53</ele>
        <time>2021-03-20T14:16:41.000Z</time>
      </trkpt>
      <trkpt lat="47.19633" lon="-1.56686">
        <ele>54</ele>
        <time>2021-03-20T14:16:43.000Z</time>
      </trkpt>
      <trkpt lat="47.19632" lon="-1.5672">
        <ele>52</ele>
        <time>2021-03-20T14:16:46.000Z</time>
      </trkpt>
      <trkpt lat="47.19626" lon="-1.56753">
        <ele>53</ele>
        <time>2021-03-20T14:16:49.000Z</time>
      </trkpt>
      <trkpt lat="47.19623" lon="-1.56775">
        <ele>53</ele>
        <time>2021-03-20T14:16:51.000Z</time>
      </trkpt>
      <trkpt lat="47.19623" lon="-1.56797">
        <ele>54</ele>
        <time>2021-03-20T14:16:53.000Z</time>
      </trkpt>
      <trkpt lat="47.19621" lon="-1.56831">
        <ele>54</ele>
        <time>2021-03-20T14:16:56.000Z</time>
      </trkpt>
      <trkpt lat="47.19621" lon="-1.56853">
        <ele>54</ele>
        <time>2021-03-20T14:16:58.000Z</time>
      </trkpt>
      <trkpt lat="47.19619" lon="-1.56874">
        <ele>56</ele>
        <time>2021-03-20T14:17:00.000Z</time>
      </trkpt>
      <trkpt lat="47.19616" lon="-1.56893">
        <ele>56</ele>
        <time>2021-03-20T14:17:02.000Z</time>
      </trkpt>
      <trkpt lat="47.19615" lon="-1.56914">
        <ele>55</ele>
        <time>2021-03-20T14:17:04.000Z</time>
      </trkpt>
      <trkpt lat="47.19613" lon="-1.56947">
        <ele>55</ele>
        <time>2021-03-20T14:17:07.000Z</time>
      </trkpt>
      <trkpt lat="47.19611" lon="-1.56968">
        <ele>55</ele>
        <time>2021-03-20T14:17:09.000Z</time>
      </trkpt>
      <trkpt lat="47.19608" lon="-1.56989">
        <ele>55</ele>
        <time>2021-03-20T14:17:11.000Z</time>
      </trkpt>
      <trkpt lat="47.19607" lon="-1.57008">
        <ele>55</ele>
        <time>2021-03-20T14:17:13.000Z</time>
      </trkpt>
      <trkpt lat="47.19607" lon="-1.57029">
        <ele>56</ele>
        <time>2021-03-20T14:17:15.000Z</time>
      </trkpt>
      <trkpt lat="47.19607" lon="-1.5705">
        <ele>55</ele>
        <time>2021-03-20T14:17:17.000Z</time>
      </trkpt>
      <trkpt lat="47.19606" lon="-1.57069">
        <ele>55</ele>
        <time>2021-03-20T14:17:19.000Z</time>
      </trkpt>
      <trkpt lat="47.19604" lon="-1.57086">
        <ele>55</ele>
        <time>2021-03-20T14:17:21.000Z</time>
      </trkpt>
      <trkpt lat="47.19602" lon="-1.57103">
        <ele>55</ele>
        <time>2021-03-20T14:17:23.000Z</time>
      </trkpt>
      <trkpt lat="47.19601" lon="-1.57118">
        <ele>55</ele>
        <time>2021-03-20T14:17:25.000Z</time>
      </trkpt>
      <trkpt lat="47.1959" lon="-1.57129">
        <ele>55</ele>
        <time>2021-03-20T14:17:27.000Z</time>
      </trkpt>
      <trkpt lat="47.19576" lon="-1.57125">
        <ele>54</ele>
        <time>2021-03-20T14:17:29.000Z</time>
      </trkpt>
      <trkpt lat="47.19562" lon="-1.57122">
        <ele>54</ele>
        <time>2021-03-20T14:17:31.000Z</time>
      </trkpt>
      <trkpt lat="47.19548" lon="-1.57119">
        <ele>55</ele>
        <time>2021-03-20T14:17:33.000Z</time>
      </trkpt>
      <trkpt lat="47.19534" lon="-1.57119">
        <ele>57</ele>
        <time>2021-03-20T14:17:35.000Z</time>
      </trkpt>
      <trkpt lat="47.19523" lon="-1.57118">
        <ele>57</ele>
        <time>2021-03-20T14:17:37.000Z</time>
      </trkpt>
      <trkpt lat="47.1951" lon="-1.57114">
        <ele>58</ele>
        <time>2021-03-20T14:17:39.000Z</time>
      </trkpt>
      <trkpt lat="47.19498" lon="-1.57111">
        <ele>58</ele>
        <time>2021-03-20T14:17:41.000Z</time>
      </trkpt>
      <trkpt lat="47.19488" lon="-1.57111">
        <ele>57</ele>
        <time>2021-03-20T14:17:43.000Z</time>
      </trkpt>
      <trkpt lat="47.19479" lon="-1.5711">
        <ele>58</ele>
        <time>2021-03-20T14:17:45.000Z</time>
      </trkpt>
      <trkpt lat="47.19466" lon="-1.5711">
        <ele>57</ele>
        <time>2021-03-20T14:17:48.000Z</time>
      </trkpt>
      <trkpt lat="47.19456" lon="-1.5711">
        <ele>57</ele>
        <time>2021-03-20T14:17:50.000Z</time>
      </trkpt>
      <trkpt lat="47.19444" lon="-1.57105">
        <ele>57</ele>
        <time>2021-03-20T14:17:52.000Z</time>
      </trkpt>
      <trkpt lat="47.19432" lon="-1.57097">
        <ele>58</ele>
        <time>2021-03-20T14:17:54.000Z</time>
      </trkpt>
      <trkpt lat="47.19423" lon="-1.57094">
        <ele>58</ele>
        <time>2021-03-20T14:17:56.000Z</time>
      </trkpt>
      <trkpt lat="47.19412" lon="-1.5709">
        <ele>55</ele>
        <time>2021-03-20T14:17:59.000Z</time>
      </trkpt>
      <trkpt lat="47.194" lon="-1.57087">
        <ele>54</ele>
        <time>2021-03-20T14:18:02.000Z</time>
      </trkpt>
      <trkpt lat="47.1939" lon="-1.57084">
        <ele>55</ele>
        <time>2021-03-20T14:18:04.000Z</time>
      </trkpt>
      <trkpt lat="47.19378" lon="-1.57083">
        <ele>55</ele>
        <time>2021-03-20T14:18:06.000Z</time>
      </trkpt>
      <trkpt lat="47.19365" lon="-1.57081">
        <ele>54</ele>
        <time>2021-03-20T14:18:08.000Z</time>
      </trkpt>
      <trkpt lat="47.19355" lon="-1.57082">
        <ele>53</ele>
        <time>2021-03-20T14:18:10.000Z</time>
      </trkpt>
      <trkpt lat="47.19346" lon="-1.57082">
        <ele>53</ele>
        <time>2021-03-20T14:18:13.000Z</time>
      </trkpt>
      <trkpt lat="47.19337" lon="-1.57085">
        <ele>53</ele>
        <time>2021-03-20T14:18:18.000Z</time>
      </trkpt>
      <trkpt lat="47.19326" lon="-1.57084">
        <ele>55</ele>
        <time>2021-03-20T14:18:20.000Z</time>
      </trkpt>
      <trkpt lat="47.19316" lon="-1.57083">
        <ele>53</ele>
        <time>2021-03-20T14:18:22.000Z</time>
      </trkpt>
      <trkpt lat="47.19305" lon="-1.57073">
        <ele>55</ele>
        <time>2021-03-20T14:18:24.000Z</time>
      </trkpt>
      <trkpt lat="47.19293" lon="-1.57068">
        <ele>55</ele>
        <time>2021-03-20T14:18:26.000Z</time>
      </trkpt>
      <trkpt lat="47.19279" lon="-1.57066">
        <ele>55</ele>
        <time>2021-03-20T14:18:28.000Z</time>
      </trkpt>
      <trkpt lat="47.19265" lon="-1.57067">
        <ele>55</ele>
        <time>2021-03-20T14:18:30.000Z</time>
      </trkpt>
      <trkpt lat="47.19251" lon="-1.57058">
        <ele>53</ele>
        <time>2021-03-20T14:18:32.000Z</time>
      </trkpt>
      <trkpt lat="47.19237" lon="-1.57049">
        <ele>53</ele>
        <time>2021-03-20T14:18:34.000Z</time>
      </trkpt>
      <trkpt lat="47.19224" lon="-1.57045">
        <ele>54</ele>
        <time>2021-03-20T14:18:36.000Z</time>
      </trkpt>
      <trkpt lat="47.19211" lon="-1.57044">
        <ele>52</ele>
        <time>2021-03-20T14:18:38.000Z</time>
      </trkpt>
      <trkpt lat="47.19196" lon="-1.5704">
        <ele>53</ele>
        <time>2021-03-20T14:18:40.000Z</time>
      </trkpt>
      <trkpt lat="47.19174" lon="-1.57033">
        <ele>55</ele>
        <time>2021-03-20T14:18:43.000Z</time>
      </trkpt>
      <trkpt lat="47.19161" lon="-1.57028">
        <ele>52</ele>
        <time>2021-03-20T14:18:45.000Z</time>
      </trkpt>
      <trkpt lat="47.19149" lon="-1.57022">
        <ele>52</ele>
        <time>2021-03-20T14:18:47.000Z</time>
      </trkpt>
      <trkpt lat="47.19137" lon="-1.57023">
        <ele>53</ele>
        <time>2021-03-20T14:18:49.000Z</time>
      </trkpt>
      <trkpt lat="47.19126" lon="-1.57024">
        <ele>53</ele>
        <time>2021-03-20T14:18:51.000Z</time>
      </trkpt>
      <trkpt lat="47.19123" lon="-1.5704">
        <ele>52</ele>
        <time>2021-03-20T14:18:53.000Z</time>
      </trkpt>
      <trkpt lat="47.19119" lon="-1.57061">
        <ele>53</ele>
        <time>2021-03-20T14:18:55.000Z</time>
      </trkpt>
      <trkpt lat="47.19114" lon="-1.57079">
        <ele>53</ele>
        <time>2021-03-20T14:18:57.000Z</time>
      </trkpt>
      <trkpt lat="47.19108" lon="-1.57098">
        <ele>51</ele>
        <time>2021-03-20T14:18:59.000Z</time>
      </trkpt>
      <trkpt lat="47.19101" lon="-1.57115">
        <ele>53</ele>
        <time>2021-03-20T14:19:01.000Z</time>
      </trkpt>
      <trkpt lat="47.19092" lon="-1.57131">
        <ele>54</ele>
        <time>2021-03-20T14:19:03.000Z</time>
      </trkpt>
      <trkpt lat="47.19087" lon="-1.57148">
        <ele>54</ele>
        <time>2021-03-20T14:19:05.000Z</time>
      </trkpt>
      <trkpt lat="47.1908" lon="-1.57174">
        <ele>53</ele>
        <time>2021-03-20T14:19:08.000Z</time>
      </trkpt>
      <trkpt lat="47.19072" lon="-1.5719">
        <ele>53</ele>
        <time>2021-03-20T14:19:10.000Z</time>
      </trkpt>
      <trkpt lat="47.19063" lon="-1.57206">
        <ele>55</ele>
        <time>2021-03-20T14:19:12.000Z</time>
      </trkpt>
      <trkpt lat="47.19052" lon="-1.57219">
        <ele>54</ele>
        <time>2021-03-20T14:19:14.000Z</time>
      </trkpt>
      <trkpt lat="47.19038" lon="-1.57226">
        <ele>52</ele>
        <time>2021-03-20T14:19:16.000Z</time>
      </trkpt>
      <trkpt lat="47.19027" lon="-1.57236">
        <ele>53</ele>
        <time>2021-03-20T14:19:18.000Z</time>
      </trkpt>
      <trkpt lat="47.1901" lon="-1.57247">
        <ele>55</ele>
        <time>2021-03-20T14:19:21.000Z</time>
      </trkpt>
      <trkpt lat="47.18999" lon="-1.57256">
        <ele>55</ele>
        <time>2021-03-20T14:19:23.000Z</time>
      </trkpt>
      <trkpt lat="47.18989" lon="-1.57263">
        <ele>55</ele>
        <time>2021-03-20T14:19:25.000Z</time>
      </trkpt>
      <trkpt lat="47.18977" lon="-1.57267">
        <ele>56</ele>
        <time>2021-03-20T14:19:27.000Z</time>
      </trkpt>
      <trkpt lat="47.18966" lon="-1.57269">
        <ele>56</ele>
        <time>2021-03-20T14:19:29.000Z</time>
      </trkpt>
      <trkpt lat="47.18957" lon="-1.57267">
        <ele>55</ele>
        <time>2021-03-20T14:19:31.000Z</time>
      </trkpt>
      <trkpt lat="47.18946" lon="-1.57269">
        <ele>55</ele>
        <time>2021-03-20T14:19:33.000Z</time>
      </trkpt>
      <trkpt lat="47.18933" lon="-1.5727">
        <ele>55</ele>
        <time>2021-03-20T14:19:35.000Z</time>
      </trkpt>
      <trkpt lat="47.18919" lon="-1.57271">
        <ele>54</ele>
        <time>2021-03-20T14:19:37.000Z</time>
      </trkpt>
      <trkpt lat="47.18906" lon="-1.57274">
        <ele>54</ele>
        <time>2021-03-20T14:19:39.000Z</time>
      </trkpt>
      <trkpt lat="47.18893" lon="-1.57276">
        <ele>56</ele>
        <time>2021-03-20T14:19:41.000Z</time>
      </trkpt>
      <trkpt lat="47.1888" lon="-1.5728">
        <ele>55</ele>
        <time>2021-03-20T14:19:43.000Z</time>
      </trkpt>
      <trkpt lat="47.18866" lon="-1.57281">
        <ele>55</ele>
        <time>2021-03-20T14:19:45.000Z</time>
      </trkpt>
      <trkpt lat="47.18855" lon="-1.57287">
        <ele>56</ele>
        <time>2021-03-20T14:19:47.000Z</time>
      </trkpt>
      <trkpt lat="47.18845" lon="-1.57295">
        <ele>57</ele>
        <time>2021-03-20T14:19:49.000Z</time>
      </trkpt>
      <trkpt lat="47.18837" lon="-1.57311">
        <ele>57</ele>
        <time>2021-03-20T14:19:51.000Z</time>
      </trkpt>
      <trkpt lat="47.18831" lon="-1.57328">
        <ele>57</ele>
        <time>2021-03-20T14:19:53.000Z</time>
      </trkpt>
      <trkpt lat="47.18825" lon="-1.57347">
        <ele>58</ele>
        <time>2021-03-20T14:19:55.000Z</time>
      </trkpt>
      <trkpt lat="47.1882" lon="-1.57365">
        <ele>57</ele>
        <time>2021-03-20T14:19:57.000Z</time>
      </trkpt>
      <trkpt lat="47.18814" lon="-1.57383">
        <ele>57</ele>
        <time>2021-03-20T14:19:59.000Z</time>
      </trkpt>
      <trkpt lat="47.18806" lon="-1.57399">
        <ele>57</ele>
        <time>2021-03-20T14:20:01.000Z</time>
      </trkpt>
      <trkpt lat="47.18795" lon="-1.57413">
        <ele>58</ele>
        <time>2021-03-20T14:20:03.000Z</time>
      </trkpt>
      <trkpt lat="47.18783" lon="-1.57421">
        <ele>59</ele>
        <time>2021-03-20T14:20:05.000Z</time>
      </trkpt>
      <trkpt lat="47.18768" lon="-1.57429">
        <ele>59</ele>
        <time>2021-03-20T14:20:07.000Z</time>
      </trkpt>
      <trkpt lat="47.18751" lon="-1.57437">
        <ele>59</ele>
        <time>2021-03-20T14:20:09.000Z</time>
      </trkpt>
      <trkpt lat="47.18735" lon="-1.57447">
        <ele>59</ele>
        <time>2021-03-20T14:20:11.000Z</time>
      </trkpt>
      <trkpt lat="47.1872" lon="-1.57455">
        <ele>58</ele>
        <time>2021-03-20T14:20:13.000Z</time>
      </trkpt>
      <trkpt lat="47.18706" lon="-1.57459">
        <ele>59</ele>
        <time>2021-03-20T14:20:15.000Z</time>
      </trkpt>
      <trkpt lat="47.18692" lon="-1.57465">
        <ele>59</ele>
        <time>2021-03-20T14:20:17.000Z</time>
      </trkpt>
      <trkpt lat="47.18673" lon="-1.57479">
        <ele>58</ele>
        <time>2021-03-20T14:20:20.000Z</time>
      </trkpt>
      <trkpt lat="47.18662" lon="-1.57491">
        <ele>57</ele>
        <time>2021-03-20T14:20:22.000Z</time>
      </trkpt>
      <trkpt lat="47.18652" lon="-1.575">
        <ele>58</ele>
        <time>2021-03-20T14:20:24.000Z</time>
      </trkpt>
      <trkpt lat="47.18645" lon="-1.57513">
        <ele>58</ele>
        <time>2021-03-20T14:20:26.000Z</time>
      </trkpt>
      <trkpt lat="47.18638" lon="-1.57527">
        <ele>58</ele>
        <time>2021-03-20T14:20:28.000Z</time>
      </trkpt>
      <trkpt lat="47.18633" lon="-1.57544">
        <ele>55</ele>
        <time>2021-03-20T14:20:30.000Z</time>
      </trkpt>
      <trkpt lat="47.1863" lon="-1.5756">
        <ele>55</ele>
        <time>2021-03-20T14:20:32.000Z</time>
      </trkpt>
      <trkpt lat="47.18626" lon="-1.57575">
        <ele>57</ele>
        <time>2021-03-20T14:20:34.000Z</time>
      </trkpt>
      <trkpt lat="47.18623" lon="-1.57592">
        <ele>57</ele>
        <time>2021-03-20T14:20:36.000Z</time>
      </trkpt>
      <trkpt lat="47.18623" lon="-1.57609">
        <ele>58</ele>
        <time>2021-03-20T14:20:38.000Z</time>
      </trkpt>
      <trkpt lat="47.18626" lon="-1.57627">
        <ele>60</ele>
        <time>2021-03-20T14:20:40.000Z</time>
      </trkpt>
      <trkpt lat="47.18628" lon="-1.57644">
        <ele>61</ele>
        <time>2021-03-20T14:20:42.000Z</time>
      </trkpt>
      <trkpt lat="47.18629" lon="-1.57662">
        <ele>62</ele>
        <time>2021-03-20T14:20:44.000Z</time>
      </trkpt>
      <trkpt lat="47.1863" lon="-1.5768">
        <ele>62</ele>
        <time>2021-03-20T14:20:46.000Z</time>
      </trkpt>
      <trkpt lat="47.18632" lon="-1.57697">
        <ele>63</ele>
        <time>2021-03-20T14:20:48.000Z</time>
      </trkpt>
      <trkpt lat="47.18633" lon="-1.57715">
        <ele>63</ele>
        <time>2021-03-20T14:20:50.000Z</time>
      </trkpt>
      <trkpt lat="47.18634" lon="-1.57746">
        <ele>62</ele>
        <time>2021-03-20T14:20:53.000Z</time>
      </trkpt>
      <trkpt lat="47.18636" lon="-1.57764">
        <ele>63</ele>
        <time>2021-03-20T14:20:55.000Z</time>
      </trkpt>
      <trkpt lat="47.18637" lon="-1.57777">
        <ele>64</ele>
        <time>2021-03-20T14:20:57.000Z</time>
      </trkpt>
      <trkpt lat="47.18637" lon="-1.57792">
        <ele>62</ele>
        <time>2021-03-20T14:20:59.000Z</time>
      </trkpt>
      <trkpt lat="47.18639" lon="-1.57807">
        <ele>60</ele>
        <time>2021-03-20T14:21:01.000Z</time>
      </trkpt>
      <trkpt lat="47.18641" lon="-1.57832">
        <ele>61</ele>
        <time>2021-03-20T14:21:04.000Z</time>
      </trkpt>
      <trkpt lat="47.18641" lon="-1.57858">
        <ele>63</ele>
        <time>2021-03-20T14:21:07.000Z</time>
      </trkpt>
      <trkpt lat="47.18639" lon="-1.57874">
        <ele>63</ele>
        <time>2021-03-20T14:21:09.000Z</time>
      </trkpt>
      <trkpt lat="47.18637" lon="-1.57892">
        <ele>63</ele>
        <time>2021-03-20T14:21:11.000Z</time>
      </trkpt>
      <trkpt lat="47.18634" lon="-1.57909">
        <ele>63</ele>
        <time>2021-03-20T14:21:13.000Z</time>
      </trkpt>
      <trkpt lat="47.1863" lon="-1.57938">
        <ele>60</ele>
        <time>2021-03-20T14:21:16.000Z</time>
      </trkpt>
      <trkpt lat="47.18629" lon="-1.57956">
        <ele>60</ele>
        <time>2021-03-20T14:21:18.000Z</time>
      </trkpt>
      <trkpt lat="47.18625" lon="-1.57973">
        <ele>62</ele>
        <time>2021-03-20T14:21:20.000Z</time>
      </trkpt>
      <trkpt lat="47.18623" lon="-1.57989">
        <ele>62</ele>
        <time>2021-03-20T14:21:22.000Z</time>
      </trkpt>
      <trkpt lat="47.1862" lon="-1.58006">
        <ele>62</ele>
        <time>2021-03-20T14:21:24.000Z</time>
      </trkpt>
      <trkpt lat="47.18617" lon="-1.58022">
        <ele>63</ele>
        <time>2021-03-20T14:21:26.000Z</time>
      </trkpt>
      <trkpt lat="47.18615" lon="-1.58038">
        <ele>63</ele>
        <time>2021-03-20T14:21:28.000Z</time>
      </trkpt>
      <trkpt lat="47.18613" lon="-1.58055">
        <ele>64</ele>
        <time>2021-03-20T14:21:30.000Z</time>
      </trkpt>
      <trkpt lat="47.18612" lon="-1.58076">
        <ele>62</ele>
        <time>2021-03-20T14:21:33.000Z</time>
      </trkpt>
      <trkpt lat="47.18604" lon="-1.58084">
        <ele>64</ele>
        <time>2021-03-20T14:21:35.000Z</time>
      </trkpt>
      <trkpt lat="47.1859" lon="-1.58077">
        <ele>64</ele>
        <time>2021-03-20T14:21:37.000Z</time>
      </trkpt>
      <trkpt lat="47.18576" lon="-1.58073">
        <ele>64</ele>
        <time>2021-03-20T14:21:39.000Z</time>
      </trkpt>
      <trkpt lat="47.18563" lon="-1.5807">
        <ele>62</ele>
        <time>2021-03-20T14:21:41.000Z</time>
      </trkpt>
      <trkpt lat="47.1855" lon="-1.58066">
        <ele>62</ele>
        <time>2021-03-20T14:21:43.000Z</time>
      </trkpt>
      <trkpt lat="47.18539" lon="-1.58063">
        <ele>63</ele>
        <time>2021-03-20T14:21:45.000Z</time>
      </trkpt>
      <trkpt lat="47.18527" lon="-1.58061">
        <ele>61</ele>
        <time>2021-03-20T14:21:47.000Z</time>
      </trkpt>
      <trkpt lat="47.18515" lon="-1.58057">
        <ele>61</ele>
        <time>2021-03-20T14:21:49.000Z</time>
      </trkpt>
      <trkpt lat="47.18501" lon="-1.58051">
        <ele>62</ele>
        <time>2021-03-20T14:21:51.000Z</time>
      </trkpt>
      <trkpt lat="47.18489" lon="-1.58048">
        <ele>62</ele>
        <time>2021-03-20T14:21:53.000Z</time>
      </trkpt>
      <trkpt lat="47.18476" lon="-1.58046">
        <ele>62</ele>
        <time>2021-03-20T14:21:55.000Z</time>
      </trkpt>
      <trkpt lat="47.18465" lon="-1.58041">
        <ele>62</ele>
        <time>2021-03-20T14:21:57.000Z</time>
      </trkpt>
      <trkpt lat="47.18452" lon="-1.58036">
        <ele>63</ele>
        <time>2021-03-20T14:21:59.000Z</time>
      </trkpt>
      <trkpt lat="47.1844" lon="-1.5803">
        <ele>63</ele>
        <time>2021-03-20T14:22:01.000Z</time>
      </trkpt>
      <trkpt lat="47.18427" lon="-1.58025">
        <ele>61</ele>
        <time>2021-03-20T14:22:03.000Z</time>
      </trkpt>
      <trkpt lat="47.18415" lon="-1.5802">
        <ele>62</ele>
        <time>2021-03-20T14:22:05.000Z</time>
      </trkpt>
      <trkpt lat="47.18403" lon="-1.58016">
        <ele>64</ele>
        <time>2021-03-20T14:22:07.000Z</time>
      </trkpt>
      <trkpt lat="47.18391" lon="-1.58013">
        <ele>63</ele>
        <time>2021-03-20T14:22:09.000Z</time>
      </trkpt>
      <trkpt lat="47.18379" lon="-1.58011">
        <ele>62</ele>
        <time>2021-03-20T14:22:11.000Z</time>
      </trkpt>
      <trkpt lat="47.18367" lon="-1.58006">
        <ele>63</ele>
        <time>2021-03-20T14:22:13.000Z</time>
      </trkpt>
      <trkpt lat="47.18356" lon="-1.58001">
        <ele>63</ele>
        <time>2021-03-20T14:22:15.000Z</time>
      </trkpt>
      <trkpt lat="47.18344" lon="-1.58">
        <ele>65</ele>
        <time>2021-03-20T14:22:17.000Z</time>
      </trkpt>
      <trkpt lat="47.18331" lon="-1.58005">
        <ele>63</ele>
        <time>2021-03-20T14:22:19.000Z</time>
      </trkpt>
      <trkpt lat="47.18318" lon="-1.58002">
        <ele>64</ele>
        <time>2021-03-20T14:22:21.000Z</time>
      </trkpt>
      <trkpt lat="47.18306" lon="-1.57998">
        <ele>66</ele>
        <time>2021-03-20T14:22:23.000Z</time>
      </trkpt>
      <trkpt lat="47.18293" lon="-1.57996">
        <ele>67</ele>
        <time>2021-03-20T14:22:25.000Z</time>
      </trkpt>
      <trkpt lat="47.18281" lon="-1.57995">
        <ele>67</ele>
        <time>2021-03-20T14:22:27.000Z</time>
      </trkpt>
      <trkpt lat="47.18269" lon="-1.57992">
        <ele>64</ele>
        <time>2021-03-20T14:22:29.000Z</time>
      </trkpt>
      <trkpt lat="47.18251" lon="-1.57988">
        <ele>66</ele>
        <time>2021-03-20T14:22:32.000Z</time>
      </trkpt>
      <trkpt lat="47.18235" lon="-1.57989">
        <ele>65</ele>
        <time>2021-03-20T14:22:35.000Z</time>
      </trkpt>
      <trkpt lat="47.18222" lon="-1.57999">
        <ele>66</ele>
        <time>2021-03-20T14:22:38.000Z</time>
      </trkpt>
      <trkpt lat="47.1822" lon="-1.58014">
        <ele>66</ele>
        <time>2021-03-20T14:22:40.000Z</time>
      </trkpt>
      <trkpt lat="47.1822" lon="-1.58032">
        <ele>67</ele>
        <time>2021-03-20T14:22:42.000Z</time>
      </trkpt>
      <trkpt lat="47.1822" lon="-1.5805">
        <ele>67</ele>
        <time>2021-03-20T14:22:44.000Z</time>
      </trkpt>
      <trkpt lat="47.18222" lon="-1.58067">
        <ele>67</ele>
        <time>2021-03-20T14:22:46.000Z</time>
      </trkpt>
      <trkpt lat="47.18224" lon="-1.58084">
        <ele>67</ele>
        <time>2021-03-20T14:22:48.000Z</time>
      </trkpt>
      <trkpt lat="47.18225" lon="-1.58102">
        <ele>67</ele>
        <time>2021-03-20T14:22:50.000Z</time>
      </trkpt>
      <trkpt lat="47.18227" lon="-1.58121">
        <ele>67</ele>
        <time>2021-03-20T14:22:52.000Z</time>
      </trkpt>
      <trkpt lat="47.18228" lon="-1.58141">
        <ele>67</ele>
        <time>2021-03-20T14:22:54.000Z</time>
      </trkpt>
      <trkpt lat="47.18228" lon="-1.5816">
        <ele>67</ele>
        <time>2021-03-20T14:22:56.000Z</time>
      </trkpt>
      <trkpt lat="47.18227" lon="-1.5818">
        <ele>67</ele>
        <time>2021-03-20T14:22:58.000Z</time>
      </trkpt>
      <trkpt lat="47.18224" lon="-1.58199">
        <ele>67</ele>
        <time>2021-03-20T14:23:00.000Z</time>
      </trkpt>
      <trkpt lat="47.18216" lon="-1.58227">
        <ele>67</ele>
        <time>2021-03-20T14:23:03.000Z</time>
      </trkpt>
      <trkpt lat="47.18208" lon="-1.58244">
        <ele>68</ele>
        <time>2021-03-20T14:23:05.000Z</time>
      </trkpt>
      <trkpt lat="47.18201" lon="-1.58259">
        <ele>67</ele>
        <time>2021-03-20T14:23:07.000Z</time>
      </trkpt>
      <trkpt lat="47.18194" lon="-1.58275">
        <ele>66</ele>
        <time>2021-03-20T14:23:09.000Z</time>
      </trkpt>
      <trkpt lat="47.18182" lon="-1.58298">
        <ele>68</ele>
        <time>2021-03-20T14:23:12.000Z</time>
      </trkpt>
      <trkpt lat="47.18175" lon="-1.58314">
        <ele>68</ele>
        <time>2021-03-20T14:23:14.000Z</time>
      </trkpt>
      <trkpt lat="47.18164" lon="-1.58338">
        <ele>69</ele>
        <time>2021-03-20T14:23:17.000Z</time>
      </trkpt>
      <trkpt lat="47.18158" lon="-1.58355">
        <ele>69</ele>
        <time>2021-03-20T14:23:19.000Z</time>
      </trkpt>
      <trkpt lat="47.18152" lon="-1.58372">
        <ele>69</ele>
        <time>2021-03-20T14:23:21.000Z</time>
      </trkpt>
      <trkpt lat="47.18146" lon="-1.58389">
        <ele>70</ele>
        <time>2021-03-20T14:23:23.000Z</time>
      </trkpt>
      <trkpt lat="47.1814" lon="-1.58405">
        <ele>70</ele>
        <time>2021-03-20T14:23:25.000Z</time>
      </trkpt>
      <trkpt lat="47.18135" lon="-1.58422">
        <ele>69</ele>
        <time>2021-03-20T14:23:27.000Z</time>
      </trkpt>
      <trkpt lat="47.18129" lon="-1.58438">
        <ele>69</ele>
        <time>2021-03-20T14:23:29.000Z</time>
      </trkpt>
      <trkpt lat="47.1812" lon="-1.5845">
        <ele>70</ele>
        <time>2021-03-20T14:23:31.000Z</time>
      </trkpt>
      <trkpt lat="47.18116" lon="-1.58466">
        <ele>70</ele>
        <time>2021-03-20T14:23:33.000Z</time>
      </trkpt>
      <trkpt lat="47.18114" lon="-1.58495">
        <ele>69</ele>
        <time>2021-03-20T14:23:36.000Z</time>
      </trkpt>
      <trkpt lat="47.18112" lon="-1.58513">
        <ele>69</ele>
        <time>2021-03-20T14:23:38.000Z</time>
      </trkpt>
      <trkpt lat="47.18111" lon="-1.58531">
        <ele>69</ele>
        <time>2021-03-20T14:23:40.000Z</time>
      </trkpt>
      <trkpt lat="47.18115" lon="-1.58548">
        <ele>69</ele>
        <time>2021-03-20T14:23:42.000Z</time>
      </trkpt>
      <trkpt lat="47.18126" lon="-1.58557">
        <ele>69</ele>
        <time>2021-03-20T14:23:44.000Z</time>
      </trkpt>
      <trkpt lat="47.18137" lon="-1.58563">
        <ele>68</ele>
        <time>2021-03-20T14:23:46.000Z</time>
      </trkpt>
      <trkpt lat="47.18147" lon="-1.5857">
        <ele>71</ele>
        <time>2021-03-20T14:23:48.000Z</time>
      </trkpt>
      <trkpt lat="47.18157" lon="-1.58575">
        <ele>72</ele>
        <time>2021-03-20T14:23:50.000Z</time>
      </trkpt>
      <trkpt lat="47.18171" lon="-1.58577">
        <ele>71</ele>
        <time>2021-03-20T14:23:52.000Z</time>
      </trkpt>
      <trkpt lat="47.18183" lon="-1.58581">
        <ele>70</ele>
        <time>2021-03-20T14:23:54.000Z</time>
      </trkpt>
      <trkpt lat="47.18194" lon="-1.58586">
        <ele>70</ele>
        <time>2021-03-20T14:23:56.000Z</time>
      </trkpt>
      <trkpt lat="47.18205" lon="-1.58592">
        <ele>70</ele>
        <time>2021-03-20T14:23:58.000Z</time>
      </trkpt>
      <trkpt lat="47.18217" lon="-1.58597">
        <ele>70</ele>
        <time>2021-03-20T14:24:00.000Z</time>
      </trkpt>
      <trkpt lat="47.18228" lon="-1.58602">
        <ele>70</ele>
        <time>2021-03-20T14:24:02.000Z</time>
      </trkpt>
      <trkpt lat="47.18238" lon="-1.58609">
        <ele>70</ele>
        <time>2021-03-20T14:24:04.000Z</time>
      </trkpt>
      <trkpt lat="47.18246" lon="-1.58618">
        <ele>70</ele>
        <time>2021-03-20T14:24:06.000Z</time>
      </trkpt>
      <trkpt lat="47.18248" lon="-1.58636">
        <ele>70</ele>
        <time>2021-03-20T14:24:08.000Z</time>
      </trkpt>
      <trkpt lat="47.18247" lon="-1.58655">
        <ele>70</ele>
        <time>2021-03-20T14:24:10.000Z</time>
      </trkpt>
      <trkpt lat="47.18246" lon="-1.58673">
        <ele>70</ele>
        <time>2021-03-20T14:24:12.000Z</time>
      </trkpt>
      <trkpt lat="47.18246" lon="-1.58691">
        <ele>70</ele>
        <time>2021-03-20T14:24:14.000Z</time>
      </trkpt>
      <trkpt lat="47.18246" lon="-1.5871">
        <ele>70</ele>
        <time>2021-03-20T14:24:16.000Z</time>
      </trkpt>
      <trkpt lat="47.18248" lon="-1.58735">
        <ele>66</ele>
        <time>2021-03-20T14:24:19.000Z</time>
      </trkpt>
      <trkpt lat="47.18251" lon="-1.5876">
        <ele>66</ele>
        <time>2021-03-20T14:24:22.000Z</time>
      </trkpt>
      <trkpt lat="47.18253" lon="-1.58776">
        <ele>67</ele>
        <time>2021-03-20T14:24:24.000Z</time>
      </trkpt>
      <trkpt lat="47.18256" lon="-1.58793">
        <ele>69</ele>
        <time>2021-03-20T14:24:26.000Z</time>
      </trkpt>
      <trkpt lat="47.1826" lon="-1.58809">
        <ele>69</ele>
        <time>2021-03-20T14:24:28.000Z</time>
      </trkpt>
      <trkpt lat="47.1827" lon="-1.5883">
        <ele>70</ele>
        <time>2021-03-20T14:24:31.000Z</time>
      </trkpt>
      <trkpt lat="47.18276" lon="-1.58843">
        <ele>69</ele>
        <time>2021-03-20T14:24:33.000Z</time>
      </trkpt>
      <trkpt lat="47.1828" lon="-1.58858">
        <ele>69</ele>
        <time>2021-03-20T14:24:35.000Z</time>
      </trkpt>
      <trkpt lat="47.18284" lon="-1.58873">
        <ele>70</ele>
        <time>2021-03-20T14:24:37.000Z</time>
      </trkpt>
      <trkpt lat="47.18288" lon="-1.58885">
        <ele>72</ele>
        <time>2021-03-20T14:24:39.000Z</time>
      </trkpt>
      <trkpt lat="47.18301" lon="-1.58887">
        <ele>70</ele>
        <time>2021-03-20T14:24:42.000Z</time>
      </trkpt>
      <trkpt lat="47.1831" lon="-1.58886">
        <ele>69</ele>
        <time>2021-03-20T14:24:45.000Z</time>
      </trkpt>
      <trkpt lat="47.18311" lon="-1.58899">
        <ele>67</ele>
        <time>2021-03-20T14:25:20.000Z</time>
      </trkpt>
      <trkpt lat="47.18301" lon="-1.58902">
        <ele>58</ele>
        <time>2021-03-20T14:37:21.000Z</time>
      </trkpt>
      <trkpt lat="47.1831" lon="-1.58899">
        <ele>62</ele>
        <time>2021-03-20T14:38:02.000Z</time>
      </trkpt>
      <trkpt lat="47.18319" lon="-1.58898">
        <ele>67</ele>
        <time>2021-03-20T14:50:15.000Z</time>
      </trkpt>
      <trkpt lat="47.1831" lon="-1.58895">
        <ele>67</ele>
        <time>2021-03-20T14:50:40.000Z</time>
      </trkpt>
      <trkpt lat="47.1832" lon="-1.58898">
        <ele>62</ele>
        <time>2021-03-20T14:51:35.000Z</time>
      </trkpt>
      <trkpt lat="47.1831" lon="-1.589">
        <ele>66</ele>
        <time>2021-03-20T14:52:10.000Z</time>
      </trkpt>
      <trkpt lat="47.18317" lon="-1.5889">
        <ele>59</ele>
        <time>2021-03-20T14:57:27.000Z</time>
      </trkpt>
      <trkpt lat="47.18307" lon="-1.58893">
        <ele>60</ele>
        <time>2021-03-20T14:57:42.000Z</time>
      </trkpt>
      <trkpt lat="47.18313" lon="-1.58903">
        <ele>57</ele>
        <time>2021-03-20T15:02:22.000Z</time>
      </trkpt>
      <trkpt lat="47.18317" lon="-1.58891">
        <ele>46</ele>
        <time>2021-03-20T15:12:45.000Z</time>
      </trkpt>
      <trkpt lat="47.18313" lon="-1.58905">
        <ele>52</ele>
        <time>2021-03-20T15:13:57.000Z</time>
      </trkpt>
      <trkpt lat="47.18313" lon="-1.58918">
        <ele>60</ele>
        <time>2021-03-20T15:19:55.000Z</time>
      </trkpt>
      <trkpt lat="47.18316" lon="-1.58905">
        <ele>62</ele>
        <time>2021-03-20T15:20:20.000Z</time>
      </trkpt>
      <trkpt lat="47.18309" lon="-1.58914">
        <ele>43</ele>
        <time>2021-03-20T15:30:13.000Z</time>
      </trkpt>
      <trkpt lat="47.18308" lon="-1.58899">
        <ele>44</ele>
        <time>2021-03-20T15:30:40.000Z</time>
      </trkpt>
      <trkpt lat="47.18315" lon="-1.58908">
        <ele>38</ele>
        <time>2021-03-20T15:33:35.000Z</time>
      </trkpt>
      <trkpt lat="47.18305" lon="-1.58913">
        <ele>37</ele>
        <time>2021-03-20T15:33:58.000Z</time>
      </trkpt>
      <trkpt lat="47.18304" lon="-1.58927">
        <ele>19</ele>
        <time>2021-03-20T15:37:09.000Z</time>
      </trkpt>
      <trkpt lat="47.18312" lon="-1.58921">
        <ele>19</ele>
        <time>2021-03-20T15:37:25.000Z</time>
      </trkpt>
      <trkpt lat="47.18319" lon="-1.58911">
        <ele>19</ele>
        <time>2021-03-20T15:37:47.000Z</time>
      </trkpt>
      <trkpt lat="47.18316" lon="-1.58924">
        <ele>17</ele>
        <time>2021-03-20T15:38:13.000Z</time>
      </trkpt>
      <trkpt lat="47.18312" lon="-1.58911">
        <ele>24</ele>
        <time>2021-03-20T15:39:54.000Z</time>
      </trkpt>
      <trkpt lat="47.1832" lon="-1.58919">
        <ele>30</ele>
        <time>2021-03-20T15:41:05.000Z</time>
      </trkpt>
      <trkpt lat="47.18313" lon="-1.58909">
        <ele>43</ele>
        <time>2021-03-20T15:41:49.000Z</time>
      </trkpt>
      <trkpt lat="47.18303" lon="-1.58912">
        <ele>46</ele>
        <time>2021-03-20T15:42:08.000Z</time>
      </trkpt>
      <trkpt lat="47.18311" lon="-1.58905">
        <ele>50</ele>
        <time>2021-03-20T15:42:48.000Z</time>
      </trkpt>
      <trkpt lat="47.18317" lon="-1.58893">
        <ele>43</ele>
        <time>2021-03-20T15:43:15.000Z</time>
      </trkpt>
      <trkpt lat="47.18322" lon="-1.58905">
        <ele>56</ele>
        <time>2021-03-20T15:44:13.000Z</time>
      </trkpt>
      <trkpt lat="47.1832" lon="-1.58919">
        <ele>58</ele>
        <time>2021-03-20T15:44:15.000Z</time>
      </trkpt>
      <trkpt lat="47.18322" lon="-1.58932">
        <ele>59</ele>
        <time>2021-03-20T15:44:17.000Z</time>
      </trkpt>
      <trkpt lat="47.18329" lon="-1.5895">
        <ele>59</ele>
        <time>2021-03-20T15:44:20.000Z</time>
      </trkpt>
      <trkpt lat="47.18339" lon="-1.58963">
        <ele>60</ele>
        <time>2021-03-20T15:44:22.000Z</time>
      </trkpt>
      <trkpt lat="47.18348" lon="-1.58975">
        <ele>60</ele>
        <time>2021-03-20T15:44:24.000Z</time>
      </trkpt>
      <trkpt lat="47.18357" lon="-1.58985">
        <ele>59</ele>
        <time>2021-03-20T15:44:26.000Z</time>
      </trkpt>
      <trkpt lat="47.18353" lon="-1.59001">
        <ele>60</ele>
        <time>2021-03-20T15:44:29.000Z</time>
      </trkpt>
      <trkpt lat="47.18344" lon="-1.59012">
        <ele>60</ele>
        <time>2021-03-20T15:44:31.000Z</time>
      </trkpt>
      <trkpt lat="47.18334" lon="-1.59027">
        <ele>60</ele>
        <time>2021-03-20T15:44:33.000Z</time>
      </trkpt>
      <trkpt lat="47.18327" lon="-1.59043">
        <ele>60</ele>
        <time>2021-03-20T15:44:35.000Z</time>
      </trkpt>
      <trkpt lat="47.18322" lon="-1.59058">
        <ele>61</ele>
        <time>2021-03-20T15:44:37.000Z</time>
      </trkpt>
      <trkpt lat="47.18316" lon="-1.59073">
        <ele>61</ele>
        <time>2021-03-20T15:44:39.000Z</time>
      </trkpt>
      <trkpt lat="47.1831" lon="-1.59089">
        <ele>61</ele>
        <time>2021-03-20T15:44:41.000Z</time>
      </trkpt>
      <trkpt lat="47.18304" lon="-1.59107">
        <ele>61</ele>
        <time>2021-03-20T15:44:43.000Z</time>
      </trkpt>
      <trkpt lat="47.18298" lon="-1.59125">
        <ele>61</ele>
        <time>2021-03-20T15:44:45.000Z</time>
      </trkpt>
      <trkpt lat="47.18292" lon="-1.59144">
        <ele>61</ele>
        <time>2021-03-20T15:44:47.000Z</time>
      </trkpt>
      <trkpt lat="47.18285" lon="-1.59161">
        <ele>61</ele>
        <time>2021-03-20T15:44:49.000Z</time>
      </trkpt>
      <trkpt lat="47.1828" lon="-1.59179">
        <ele>61</ele>
        <time>2021-03-20T15:44:51.000Z</time>
      </trkpt>
      <trkpt lat="47.18275" lon="-1.59197">
        <ele>60</ele>
        <time>2021-03-20T15:44:53.000Z</time>
      </trkpt>
      <trkpt lat="47.18268" lon="-1.59218">
        <ele>60</ele>
        <time>2021-03-20T15:44:55.000Z</time>
      </trkpt>
      <trkpt lat="47.18256" lon="-1.59227">
        <ele>61</ele>
        <time>2021-03-20T15:44:57.000Z</time>
      </trkpt>
      <trkpt lat="47.18246" lon="-1.59235">
        <ele>61</ele>
        <time>2021-03-20T15:44:59.000Z</time>
      </trkpt>
      <trkpt lat="47.18236" lon="-1.59247">
        <ele>62</ele>
        <time>2021-03-20T15:45:01.000Z</time>
      </trkpt>
      <trkpt lat="47.18225" lon="-1.59258">
        <ele>62</ele>
        <time>2021-03-20T15:45:03.000Z</time>
      </trkpt>
      <trkpt lat="47.18214" lon="-1.59269">
        <ele>62</ele>
        <time>2021-03-20T15:45:05.000Z</time>
      </trkpt>
      <trkpt lat="47.18202" lon="-1.5928">
        <ele>63</ele>
        <time>2021-03-20T15:45:07.000Z</time>
      </trkpt>
      <trkpt lat="47.18191" lon="-1.59291">
        <ele>64</ele>
        <time>2021-03-20T15:45:09.000Z</time>
      </trkpt>
      <trkpt lat="47.18181" lon="-1.59302">
        <ele>65</ele>
        <time>2021-03-20T15:45:11.000Z</time>
      </trkpt>
      <trkpt lat="47.1817" lon="-1.59314">
        <ele>65</ele>
        <time>2021-03-20T15:45:13.000Z</time>
      </trkpt>
      <trkpt lat="47.18158" lon="-1.59324">
        <ele>65</ele>
        <time>2021-03-20T15:45:15.000Z</time>
      </trkpt>
      <trkpt lat="47.18147" lon="-1.59335">
        <ele>65</ele>
        <time>2021-03-20T15:45:17.000Z</time>
      </trkpt>
      <trkpt lat="47.18136" lon="-1.59347">
        <ele>65</ele>
        <time>2021-03-20T15:45:19.000Z</time>
      </trkpt>
      <trkpt lat="47.18124" lon="-1.59357">
        <ele>65</ele>
        <time>2021-03-20T15:45:21.000Z</time>
      </trkpt>
      <trkpt lat="47.18113" lon="-1.59369">
        <ele>66</ele>
        <time>2021-03-20T15:45:23.000Z</time>
      </trkpt>
      <trkpt lat="47.18103" lon="-1.59379">
        <ele>66</ele>
        <time>2021-03-20T15:45:25.000Z</time>
      </trkpt>
      <trkpt lat="47.18092" lon="-1.59389">
        <ele>65</ele>
        <time>2021-03-20T15:45:27.000Z</time>
      </trkpt>
      <trkpt lat="47.1808" lon="-1.59401">
        <ele>65</ele>
        <time>2021-03-20T15:45:29.000Z</time>
      </trkpt>
      <trkpt lat="47.18069" lon="-1.59412">
        <ele>64</ele>
        <time>2021-03-20T15:45:31.000Z</time>
      </trkpt>
      <trkpt lat="47.18059" lon="-1.59426">
        <ele>65</ele>
        <time>2021-03-20T15:45:33.000Z</time>
      </trkpt>
      <trkpt lat="47.1805" lon="-1.59438">
        <ele>65</ele>
        <time>2021-03-20T15:45:35.000Z</time>
      </trkpt>
      <trkpt lat="47.18042" lon="-1.5945">
        <ele>65</ele>
        <time>2021-03-20T15:45:37.000Z</time>
      </trkpt>
      <trkpt lat="47.18034" lon="-1.59466">
        <ele>65</ele>
        <time>2021-03-20T15:45:39.000Z</time>
      </trkpt>
      <trkpt lat="47.1803" lon="-1.59484">
        <ele>66</ele>
        <time>2021-03-20T15:45:41.000Z</time>
      </trkpt>
      <trkpt lat="47.18025" lon="-1.59504">
        <ele>65</ele>
        <time>2021-03-20T15:45:43.000Z</time>
      </trkpt>
      <trkpt lat="47.1802" lon="-1.59522">
        <ele>65</ele>
        <time>2021-03-20T15:45:45.000Z</time>
      </trkpt>
      <trkpt lat="47.18016" lon="-1.59541">
        <ele>65</ele>
        <time>2021-03-20T15:45:47.000Z</time>
      </trkpt>
      <trkpt lat="47.18012" lon="-1.59561">
        <ele>65</ele>
        <time>2021-03-20T15:45:49.000Z</time>
      </trkpt>
      <trkpt lat="47.18008" lon="-1.59581">
        <ele>64</ele>
        <time>2021-03-20T15:45:51.000Z</time>
      </trkpt>
      <trkpt lat="47.18003" lon="-1.59599">
        <ele>64</ele>
        <time>2021-03-20T15:45:53.000Z</time>
      </trkpt>
      <trkpt lat="47.17998" lon="-1.59617">
        <ele>64</ele>
        <time>2021-03-20T15:45:55.000Z</time>
      </trkpt>
      <trkpt lat="47.17993" lon="-1.59636">
        <ele>63</ele>
        <time>2021-03-20T15:45:57.000Z</time>
      </trkpt>
      <trkpt lat="47.1799" lon="-1.59657">
        <ele>64</ele>
        <time>2021-03-20T15:45:59.000Z</time>
      </trkpt>
      <trkpt lat="47.17987" lon="-1.59678">
        <ele>63</ele>
        <time>2021-03-20T15:46:01.000Z</time>
      </trkpt>
      <trkpt lat="47.17981" lon="-1.59698">
        <ele>64</ele>
        <time>2021-03-20T15:46:03.000Z</time>
      </trkpt>
      <trkpt lat="47.17974" lon="-1.59717">
        <ele>64</ele>
        <time>2021-03-20T15:46:05.000Z</time>
      </trkpt>
      <trkpt lat="47.17967" lon="-1.59737">
        <ele>63</ele>
        <time>2021-03-20T15:46:07.000Z</time>
      </trkpt>
      <trkpt lat="47.17962" lon="-1.59758">
        <ele>63</ele>
        <time>2021-03-20T15:46:09.000Z</time>
      </trkpt>
      <trkpt lat="47.17956" lon="-1.5978">
        <ele>62</ele>
        <time>2021-03-20T15:46:11.000Z</time>
      </trkpt>
      <trkpt lat="47.17954" lon="-1.59793">
        <ele>63</ele>
        <time>2021-03-20T15:46:12.000Z</time>
      </trkpt>
      <trkpt lat="47.1795" lon="-1.59819">
        <ele>61</ele>
        <time>2021-03-20T15:46:14.000Z</time>
      </trkpt>
      <trkpt lat="47.17948" lon="-1.59832">
        <ele>60</ele>
        <time>2021-03-20T15:46:15.000Z</time>
      </trkpt>
      <trkpt lat="47.17943" lon="-1.59859">
        <ele>60</ele>
        <time>2021-03-20T15:46:17.000Z</time>
      </trkpt>
      <trkpt lat="47.1794" lon="-1.59871">
        <ele>60</ele>
        <time>2021-03-20T15:46:18.000Z</time>
      </trkpt>
      <trkpt lat="47.17937" lon="-1.59884">
        <ele>60</ele>
        <time>2021-03-20T15:46:19.000Z</time>
      </trkpt>
      <trkpt lat="47.17934" lon="-1.59897">
        <ele>60</ele>
        <time>2021-03-20T15:46:20.000Z</time>
      </trkpt>
      <trkpt lat="47.17931" lon="-1.5991">
        <ele>60</ele>
        <time>2021-03-20T15:46:21.000Z</time>
      </trkpt>
      <trkpt lat="47.17926" lon="-1.59935">
        <ele>57</ele>
        <time>2021-03-20T15:46:23.000Z</time>
      </trkpt>
      <trkpt lat="47.17917" lon="-1.59944">
        <ele>57</ele>
        <time>2021-03-20T15:46:24.000Z</time>
      </trkpt>
      <trkpt lat="47.17907" lon="-1.59945">
        <ele>56</ele>
        <time>2021-03-20T15:46:25.000Z</time>
      </trkpt>
      <trkpt lat="47.17897" lon="-1.59946">
        <ele>56</ele>
        <time>2021-03-20T15:46:26.000Z</time>
      </trkpt>
      <trkpt lat="47.17881" lon="-1.59956">
        <ele>56</ele>
        <time>2021-03-20T15:46:28.000Z</time>
      </trkpt>
      <trkpt lat="47.17863" lon="-1.59984">
        <ele>54</ele>
        <time>2021-03-20T15:46:31.000Z</time>
      </trkpt>
      <trkpt lat="47.17853" lon="-1.60003">
        <ele>55</ele>
        <time>2021-03-20T15:46:33.000Z</time>
      </trkpt>
      <trkpt lat="47.17843" lon="-1.60022">
        <ele>55</ele>
        <time>2021-03-20T15:46:35.000Z</time>
      </trkpt>
      <trkpt lat="47.17832" lon="-1.6004">
        <ele>55</ele>
        <time>2021-03-20T15:46:37.000Z</time>
      </trkpt>
      <trkpt lat="47.17826" lon="-1.60049">
        <ele>55</ele>
        <time>2021-03-20T15:46:38.000Z</time>
      </trkpt>
      <trkpt lat="47.17817" lon="-1.60066">
        <ele>55</ele>
        <time>2021-03-20T15:46:40.000Z</time>
      </trkpt>
      <trkpt lat="47.17808" lon="-1.60083">
        <ele>57</ele>
        <time>2021-03-20T15:46:42.000Z</time>
      </trkpt>
      <trkpt lat="47.17798" lon="-1.60099">
        <ele>58</ele>
        <time>2021-03-20T15:46:44.000Z</time>
      </trkpt>
      <trkpt lat="47.17789" lon="-1.60116">
        <ele>56</ele>
        <time>2021-03-20T15:46:46.000Z</time>
      </trkpt>
      <trkpt lat="47.1778" lon="-1.60131">
        <ele>57</ele>
        <time>2021-03-20T15:46:48.000Z</time>
      </trkpt>
      <trkpt lat="47.17771" lon="-1.60147">
        <ele>57</ele>
        <time>2021-03-20T15:46:50.000Z</time>
      </trkpt>
      <trkpt lat="47.17761" lon="-1.60164">
        <ele>57</ele>
        <time>2021-03-20T15:46:52.000Z</time>
      </trkpt>
      <trkpt lat="47.17753" lon="-1.60181">
        <ele>57</ele>
        <time>2021-03-20T15:46:54.000Z</time>
      </trkpt>
      <trkpt lat="47.17748" lon="-1.602">
        <ele>58</ele>
        <time>2021-03-20T15:46:56.000Z</time>
      </trkpt>
      <trkpt lat="47.17743" lon="-1.60219">
        <ele>58</ele>
        <time>2021-03-20T15:46:58.000Z</time>
      </trkpt>
      <trkpt lat="47.17738" lon="-1.60239">
        <ele>59</ele>
        <time>2021-03-20T15:47:00.000Z</time>
      </trkpt>
      <trkpt lat="47.17732" lon="-1.60262">
        <ele>60</ele>
        <time>2021-03-20T15:47:02.000Z</time>
      </trkpt>
      <trkpt lat="47.17723" lon="-1.60281">
        <ele>60</ele>
        <time>2021-03-20T15:47:04.000Z</time>
      </trkpt>
      <trkpt lat="47.17707" lon="-1.60306">
        <ele>59</ele>
        <time>2021-03-20T15:47:07.000Z</time>
      </trkpt>
      <trkpt lat="47.17695" lon="-1.60322">
        <ele>59</ele>
        <time>2021-03-20T15:47:09.000Z</time>
      </trkpt>
      <trkpt lat="47.17684" lon="-1.60338">
        <ele>59</ele>
        <time>2021-03-20T15:47:11.000Z</time>
      </trkpt>
      <trkpt lat="47.17674" lon="-1.60353">
        <ele>59</ele>
        <time>2021-03-20T15:47:13.000Z</time>
      </trkpt>
      <trkpt lat="47.17664" lon="-1.60373">
        <ele>58</ele>
        <time>2021-03-20T15:47:15.000Z</time>
      </trkpt>
      <trkpt lat="47.17652" lon="-1.60388">
        <ele>58</ele>
        <time>2021-03-20T15:47:17.000Z</time>
      </trkpt>
      <trkpt lat="47.17642" lon="-1.60401">
        <ele>58</ele>
        <time>2021-03-20T15:47:19.000Z</time>
      </trkpt>
      <trkpt lat="47.17631" lon="-1.60419">
        <ele>58</ele>
        <time>2021-03-20T15:47:21.000Z</time>
      </trkpt>
      <trkpt lat="47.17618" lon="-1.60436">
        <ele>59</ele>
        <time>2021-03-20T15:47:23.000Z</time>
      </trkpt>
      <trkpt lat="47.17607" lon="-1.60455">
        <ele>58</ele>
        <time>2021-03-20T15:47:25.000Z</time>
      </trkpt>
      <trkpt lat="47.17596" lon="-1.60473">
        <ele>58</ele>
        <time>2021-03-20T15:47:27.000Z</time>
      </trkpt>
      <trkpt lat="47.17586" lon="-1.60492">
        <ele>58</ele>
        <time>2021-03-20T15:47:29.000Z</time>
      </trkpt>
      <trkpt lat="47.17575" lon="-1.60511">
        <ele>58</ele>
        <time>2021-03-20T15:47:31.000Z</time>
      </trkpt>
      <trkpt lat="47.17563" lon="-1.60529">
        <ele>58</ele>
        <time>2021-03-20T15:47:33.000Z</time>
      </trkpt>
      <trkpt lat="47.17552" lon="-1.60547">
        <ele>58</ele>
        <time>2021-03-20T15:47:35.000Z</time>
      </trkpt>
      <trkpt lat="47.1754" lon="-1.60565">
        <ele>58</ele>
        <time>2021-03-20T15:47:37.000Z</time>
      </trkpt>
      <trkpt lat="47.17529" lon="-1.60583">
        <ele>58</ele>
        <time>2021-03-20T15:47:39.000Z</time>
      </trkpt>
      <trkpt lat="47.17518" lon="-1.606">
        <ele>58</ele>
        <time>2021-03-20T15:47:41.000Z</time>
      </trkpt>
      <trkpt lat="47.17508" lon="-1.60619">
        <ele>58</ele>
        <time>2021-03-20T15:47:43.000Z</time>
      </trkpt>
      <trkpt lat="47.17497" lon="-1.60638">
        <ele>57</ele>
        <time>2021-03-20T15:47:45.000Z</time>
      </trkpt>
      <trkpt lat="47.17486" lon="-1.60657">
        <ele>56</ele>
        <time>2021-03-20T15:47:47.000Z</time>
      </trkpt>
      <trkpt lat="47.17474" lon="-1.60676">
        <ele>56</ele>
        <time>2021-03-20T15:47:49.000Z</time>
      </trkpt>
      <trkpt lat="47.17463" lon="-1.60696">
        <ele>56</ele>
        <time>2021-03-20T15:47:51.000Z</time>
      </trkpt>
      <trkpt lat="47.17445" lon="-1.60725">
        <ele>56</ele>
        <time>2021-03-20T15:47:54.000Z</time>
      </trkpt>
      <trkpt lat="47.17439" lon="-1.60735">
        <ele>56</ele>
        <time>2021-03-20T15:47:55.000Z</time>
      </trkpt>
      <trkpt lat="47.17433" lon="-1.60746">
        <ele>56</ele>
        <time>2021-03-20T15:47:56.000Z</time>
      </trkpt>
      <trkpt lat="47.17427" lon="-1.60757">
        <ele>55</ele>
        <time>2021-03-20T15:47:57.000Z</time>
      </trkpt>
      <trkpt lat="47.17423" lon="-1.60769">
        <ele>55</ele>
        <time>2021-03-20T15:47:58.000Z</time>
      </trkpt>
      <trkpt lat="47.17419" lon="-1.60781">
        <ele>55</ele>
        <time>2021-03-20T15:47:59.000Z</time>
      </trkpt>
      <trkpt lat="47.17415" lon="-1.60793">
        <ele>52</ele>
        <time>2021-03-20T15:48:00.000Z</time>
      </trkpt>
      <trkpt lat="47.17408" lon="-1.60815">
        <ele>51</ele>
        <time>2021-03-20T15:48:02.000Z</time>
      </trkpt>
      <trkpt lat="47.17404" lon="-1.60828">
        <ele>51</ele>
        <time>2021-03-20T15:48:03.000Z</time>
      </trkpt>
      <trkpt lat="47.17401" lon="-1.60841">
        <ele>51</ele>
        <time>2021-03-20T15:48:04.000Z</time>
      </trkpt>
      <trkpt lat="47.17399" lon="-1.60854">
        <ele>51</ele>
        <time>2021-03-20T15:48:05.000Z</time>
      </trkpt>
      <trkpt lat="47.17397" lon="-1.60868">
        <ele>50</ele>
        <time>2021-03-20T15:48:06.000Z</time>
      </trkpt>
      <trkpt lat="47.17397" lon="-1.60883">
        <ele>50</ele>
        <time>2021-03-20T15:48:07.000Z</time>
      </trkpt>
      <trkpt lat="47.17396" lon="-1.60897">
        <ele>50</ele>
        <time>2021-03-20T15:48:08.000Z</time>
      </trkpt>
      <trkpt lat="47.17395" lon="-1.60926">
        <ele>50</ele>
        <time>2021-03-20T15:48:10.000Z</time>
      </trkpt>
      <trkpt lat="47.17397" lon="-1.60939">
        <ele>50</ele>
        <time>2021-03-20T15:48:11.000Z</time>
      </trkpt>
      <trkpt lat="47.17402" lon="-1.60965">
        <ele>50</ele>
        <time>2021-03-20T15:48:13.000Z</time>
      </trkpt>
      <trkpt lat="47.17411" lon="-1.60987">
        <ele>50</ele>
        <time>2021-03-20T15:48:15.000Z</time>
      </trkpt>
      <trkpt lat="47.17419" lon="-1.61011">
        <ele>51</ele>
        <time>2021-03-20T15:48:17.000Z</time>
      </trkpt>
      <trkpt lat="47.1742" lon="-1.61024">
        <ele>51</ele>
        <time>2021-03-20T15:48:18.000Z</time>
      </trkpt>
      <trkpt lat="47.17421" lon="-1.61038">
        <ele>51</ele>
        <time>2021-03-20T15:48:19.000Z</time>
      </trkpt>
      <trkpt lat="47.17427" lon="-1.61061">
        <ele>51</ele>
        <time>2021-03-20T15:48:21.000Z</time>
      </trkpt>
      <trkpt lat="47.17436" lon="-1.61082">
        <ele>53</ele>
        <time>2021-03-20T15:48:23.000Z</time>
      </trkpt>
      <trkpt lat="47.17444" lon="-1.61102">
        <ele>54</ele>
        <time>2021-03-20T15:48:25.000Z</time>
      </trkpt>
      <trkpt lat="47.17452" lon="-1.61123">
        <ele>54</ele>
        <time>2021-03-20T15:48:27.000Z</time>
      </trkpt>
      <trkpt lat="47.1746" lon="-1.61142">
        <ele>54</ele>
        <time>2021-03-20T15:48:29.000Z</time>
      </trkpt>
      <trkpt lat="47.17468" lon="-1.61162">
        <ele>55</ele>
        <time>2021-03-20T15:48:31.000Z</time>
      </trkpt>
      <trkpt lat="47.17476" lon="-1.61181">
        <ele>55</ele>
        <time>2021-03-20T15:48:33.000Z</time>
      </trkpt>
      <trkpt lat="47.17484" lon="-1.612">
        <ele>56</ele>
        <time>2021-03-20T15:48:35.000Z</time>
      </trkpt>
      <trkpt lat="47.17491" lon="-1.61219">
        <ele>55</ele>
        <time>2021-03-20T15:48:37.000Z</time>
      </trkpt>
      <trkpt lat="47.17498" lon="-1.61238">
        <ele>54</ele>
        <time>2021-03-20T15:48:39.000Z</time>
      </trkpt>
      <trkpt lat="47.17506" lon="-1.61256">
        <ele>54</ele>
        <time>2021-03-20T15:48:41.000Z</time>
      </trkpt>
      <trkpt lat="47.17516" lon="-1.61272">
        <ele>55</ele>
        <time>2021-03-20T15:48:43.000Z</time>
      </trkpt>
      <trkpt lat="47.17528" lon="-1.61285">
        <ele>55</ele>
        <time>2021-03-20T15:48:45.000Z</time>
      </trkpt>
      <trkpt lat="47.17549" lon="-1.61299">
        <ele>56</ele>
        <time>2021-03-20T15:48:48.000Z</time>
      </trkpt>
      <trkpt lat="47.1756" lon="-1.61314">
        <ele>56</ele>
        <time>2021-03-20T15:48:50.000Z</time>
      </trkpt>
      <trkpt lat="47.17561" lon="-1.61335">
        <ele>56</ele>
        <time>2021-03-20T15:48:52.000Z</time>
      </trkpt>
      <trkpt lat="47.17556" lon="-1.61352">
        <ele>56</ele>
        <time>2021-03-20T15:48:54.000Z</time>
      </trkpt>
      <trkpt lat="47.17543" lon="-1.61361">
        <ele>56</ele>
        <time>2021-03-20T15:48:56.000Z</time>
      </trkpt>
      <trkpt lat="47.17532" lon="-1.61376">
        <ele>56</ele>
        <time>2021-03-20T15:48:58.000Z</time>
      </trkpt>
      <trkpt lat="47.17526" lon="-1.61399">
        <ele>56</ele>
        <time>2021-03-20T15:49:00.000Z</time>
      </trkpt>
      <trkpt lat="47.17521" lon="-1.61422">
        <ele>56</ele>
        <time>2021-03-20T15:49:02.000Z</time>
      </trkpt>
      <trkpt lat="47.17517" lon="-1.61444">
        <ele>57</ele>
        <time>2021-03-20T15:49:04.000Z</time>
      </trkpt>
      <trkpt lat="47.17511" lon="-1.61462">
        <ele>57</ele>
        <time>2021-03-20T15:49:06.000Z</time>
      </trkpt>
      <trkpt lat="47.17497" lon="-1.61469">
        <ele>58</ele>
        <time>2021-03-20T15:49:08.000Z</time>
      </trkpt>
      <trkpt lat="47.17483" lon="-1.61473">
        <ele>56</ele>
        <time>2021-03-20T15:49:10.000Z</time>
      </trkpt>
      <trkpt lat="47.17469" lon="-1.6148">
        <ele>57</ele>
        <time>2021-03-20T15:49:12.000Z</time>
      </trkpt>
      <trkpt lat="47.17454" lon="-1.61487">
        <ele>58</ele>
        <time>2021-03-20T15:49:14.000Z</time>
      </trkpt>
      <trkpt lat="47.17439" lon="-1.61493">
        <ele>59</ele>
        <time>2021-03-20T15:49:16.000Z</time>
      </trkpt>
      <trkpt lat="47.17425" lon="-1.61503">
        <ele>61</ele>
        <time>2021-03-20T15:49:18.000Z</time>
      </trkpt>
      <trkpt lat="47.17412" lon="-1.61513">
        <ele>62</ele>
        <time>2021-03-20T15:49:20.000Z</time>
      </trkpt>
      <trkpt lat="47.17399" lon="-1.61523">
        <ele>62</ele>
        <time>2021-03-20T15:49:22.000Z</time>
      </trkpt>
      <trkpt lat="47.17386" lon="-1.61534">
        <ele>63</ele>
        <time>2021-03-20T15:49:24.000Z</time>
      </trkpt>
      <trkpt lat="47.17375" lon="-1.61549">
        <ele>63</ele>
        <time>2021-03-20T15:49:26.000Z</time>
      </trkpt>
      <trkpt lat="47.17364" lon="-1.61561">
        <ele>65</ele>
        <time>2021-03-20T15:49:28.000Z</time>
      </trkpt>
      <trkpt lat="47.17353" lon="-1.61573">
        <ele>67</ele>
        <time>2021-03-20T15:49:30.000Z</time>
      </trkpt>
      <trkpt lat="47.17343" lon="-1.61587">
        <ele>69</ele>
        <time>2021-03-20T15:49:32.000Z</time>
      </trkpt>
      <trkpt lat="47.17331" lon="-1.61601">
        <ele>69</ele>
        <time>2021-03-20T15:49:34.000Z</time>
      </trkpt>
      <trkpt lat="47.1732" lon="-1.61615">
        <ele>70</ele>
        <time>2021-03-20T15:49:36.000Z</time>
      </trkpt>
      <trkpt lat="47.17309" lon="-1.6163">
        <ele>70</ele>
        <time>2021-03-20T15:49:38.000Z</time>
      </trkpt>
      <trkpt lat="47.17299" lon="-1.61645">
        <ele>69</ele>
        <time>2021-03-20T15:49:40.000Z</time>
      </trkpt>
      <trkpt lat="47.17293" lon="-1.61664">
        <ele>68</ele>
        <time>2021-03-20T15:49:42.000Z</time>
      </trkpt>
      <trkpt lat="47.17279" lon="-1.61686">
        <ele>69</ele>
        <time>2021-03-20T15:49:45.000Z</time>
      </trkpt>
      <trkpt lat="47.17269" lon="-1.61704">
        <ele>69</ele>
        <time>2021-03-20T15:49:47.000Z</time>
      </trkpt>
      <trkpt lat="47.17261" lon="-1.61721">
        <ele>69</ele>
        <time>2021-03-20T15:49:49.000Z</time>
      </trkpt>
      <trkpt lat="47.17254" lon="-1.61738">
        <ele>65</ele>
        <time>2021-03-20T15:49:51.000Z</time>
      </trkpt>
      <trkpt lat="47.17248" lon="-1.61757">
        <ele>66</ele>
        <time>2021-03-20T15:49:53.000Z</time>
      </trkpt>
      <trkpt lat="47.17237" lon="-1.61788">
        <ele>66</ele>
        <time>2021-03-20T15:49:56.000Z</time>
      </trkpt>
      <trkpt lat="47.17223" lon="-1.61799">
        <ele>67</ele>
        <time>2021-03-20T15:49:58.000Z</time>
      </trkpt>
      <trkpt lat="47.1721" lon="-1.6181">
        <ele>67</ele>
        <time>2021-03-20T15:50:00.000Z</time>
      </trkpt>
      <trkpt lat="47.17198" lon="-1.61821">
        <ele>68</ele>
        <time>2021-03-20T15:50:02.000Z</time>
      </trkpt>
      <trkpt lat="47.17185" lon="-1.61833">
        <ele>68</ele>
        <time>2021-03-20T15:50:04.000Z</time>
      </trkpt>
      <trkpt lat="47.17173" lon="-1.61844">
        <ele>68</ele>
        <time>2021-03-20T15:50:06.000Z</time>
      </trkpt>
      <trkpt lat="47.17161" lon="-1.61856">
        <ele>68</ele>
        <time>2021-03-20T15:50:08.000Z</time>
      </trkpt>
      <trkpt lat="47.17149" lon="-1.61867">
        <ele>68</ele>
        <time>2021-03-20T15:50:10.000Z</time>
      </trkpt>
      <trkpt lat="47.17137" lon="-1.61879">
        <ele>69</ele>
        <time>2021-03-20T15:50:12.000Z</time>
      </trkpt>
      <trkpt lat="47.17124" lon="-1.61892">
        <ele>68</ele>
        <time>2021-03-20T15:50:14.000Z</time>
      </trkpt>
      <trkpt lat="47.17111" lon="-1.61903">
        <ele>68</ele>
        <time>2021-03-20T15:50:16.000Z</time>
      </trkpt>
      <trkpt lat="47.17098" lon="-1.61915">
        <ele>68</ele>
        <time>2021-03-20T15:50:18.000Z</time>
      </trkpt>
      <trkpt lat="47.17087" lon="-1.61927">
        <ele>68</ele>
        <time>2021-03-20T15:50:20.000Z</time>
      </trkpt>
      <trkpt lat="47.17075" lon="-1.61939">
        <ele>68</ele>
        <time>2021-03-20T15:50:22.000Z</time>
      </trkpt>
      <trkpt lat="47.17065" lon="-1.61952">
        <ele>68</ele>
        <time>2021-03-20T15:50:24.000Z</time>
      </trkpt>
      <trkpt lat="47.17054" lon="-1.61967">
        <ele>68</ele>
        <time>2021-03-20T15:50:26.000Z</time>
      </trkpt>
      <trkpt lat="47.17043" lon="-1.61983">
        <ele>69</ele>
        <time>2021-03-20T15:50:28.000Z</time>
      </trkpt>
      <trkpt lat="47.17032" lon="-1.61998">
        <ele>69</ele>
        <time>2021-03-20T15:50:30.000Z</time>
      </trkpt>
      <trkpt lat="47.17022" lon="-1.62015">
        <ele>68</ele>
        <time>2021-03-20T15:50:32.000Z</time>
      </trkpt>
      <trkpt lat="47.17007" lon="-1.62041">
        <ele>68</ele>
        <time>2021-03-20T15:50:35.000Z</time>
      </trkpt>
      <trkpt lat="47.16994" lon="-1.62066">
        <ele>68</ele>
        <time>2021-03-20T15:50:38.000Z</time>
      </trkpt>
      <trkpt lat="47.16983" lon="-1.62084">
        <ele>68</ele>
        <time>2021-03-20T15:50:40.000Z</time>
      </trkpt>
      <trkpt lat="47.16972" lon="-1.621">
        <ele>69</ele>
        <time>2021-03-20T15:50:42.000Z</time>
      </trkpt>
      <trkpt lat="47.16963" lon="-1.62117">
        <ele>69</ele>
        <time>2021-03-20T15:50:44.000Z</time>
      </trkpt>
      <trkpt lat="47.16954" lon="-1.62134">
        <ele>69</ele>
        <time>2021-03-20T15:50:46.000Z</time>
      </trkpt>
      <trkpt lat="47.16944" lon="-1.62151">
        <ele>69</ele>
        <time>2021-03-20T15:50:48.000Z</time>
      </trkpt>
      <trkpt lat="47.16936" lon="-1.6217">
        <ele>69</ele>
        <time>2021-03-20T15:50:50.000Z</time>
      </trkpt>
      <trkpt lat="47.16928" lon="-1.62188">
        <ele>69</ele>
        <time>2021-03-20T15:50:52.000Z</time>
      </trkpt>
      <trkpt lat="47.16918" lon="-1.62205">
        <ele>69</ele>
        <time>2021-03-20T15:50:54.000Z</time>
      </trkpt>
      <trkpt lat="47.16908" lon="-1.62222">
        <ele>68</ele>
        <time>2021-03-20T15:50:56.000Z</time>
      </trkpt>
      <trkpt lat="47.16898" lon="-1.62238">
        <ele>67</ele>
        <time>2021-03-20T15:50:58.000Z</time>
      </trkpt>
      <trkpt lat="47.16885" lon="-1.6225">
        <ele>69</ele>
        <time>2021-03-20T15:51:00.000Z</time>
      </trkpt>
      <trkpt lat="47.16874" lon="-1.62264">
        <ele>69</ele>
        <time>2021-03-20T15:51:02.000Z</time>
      </trkpt>
      <trkpt lat="47.16863" lon="-1.62277">
        <ele>69</ele>
        <time>2021-03-20T15:51:04.000Z</time>
      </trkpt>
      <trkpt lat="47.16852" lon="-1.62291">
        <ele>70</ele>
        <time>2021-03-20T15:51:06.000Z</time>
      </trkpt>
      <trkpt lat="47.16834" lon="-1.6231">
        <ele>70</ele>
        <time>2021-03-20T15:51:09.000Z</time>
      </trkpt>
      <trkpt lat="47.16825" lon="-1.62323">
        <ele>70</ele>
        <time>2021-03-20T15:51:11.000Z</time>
      </trkpt>
      <trkpt lat="47.16812" lon="-1.62331">
        <ele>71</ele>
        <time>2021-03-20T15:51:13.000Z</time>
      </trkpt>
      <trkpt lat="47.16799" lon="-1.62338">
        <ele>71</ele>
        <time>2021-03-20T15:51:15.000Z</time>
      </trkpt>
      <trkpt lat="47.16785" lon="-1.62343">
        <ele>71</ele>
        <time>2021-03-20T15:51:17.000Z</time>
      </trkpt>
      <trkpt lat="47.16765" lon="-1.62355">
        <ele>68</ele>
        <time>2021-03-20T15:51:20.000Z</time>
      </trkpt>
      <trkpt lat="47.16746" lon="-1.62373">
        <ele>67</ele>
        <time>2021-03-20T15:51:23.000Z</time>
      </trkpt>
      <trkpt lat="47.16736" lon="-1.62387">
        <ele>66</ele>
        <time>2021-03-20T15:51:25.000Z</time>
      </trkpt>
      <trkpt lat="47.16728" lon="-1.62404">
        <ele>66</ele>
        <time>2021-03-20T15:51:27.000Z</time>
      </trkpt>
      <trkpt lat="47.16726" lon="-1.62421">
        <ele>66</ele>
        <time>2021-03-20T15:51:29.000Z</time>
      </trkpt>
      <trkpt lat="47.16726" lon="-1.62438">
        <ele>66</ele>
        <time>2021-03-20T15:51:31.000Z</time>
      </trkpt>
      <trkpt lat="47.16722" lon="-1.62457">
        <ele>65</ele>
        <time>2021-03-20T15:51:33.000Z</time>
      </trkpt>
      <trkpt lat="47.16719" lon="-1.62473">
        <ele>66</ele>
        <time>2021-03-20T15:51:35.000Z</time>
      </trkpt>
      <trkpt lat="47.16716" lon="-1.6249">
        <ele>65</ele>
        <time>2021-03-20T15:51:37.000Z</time>
      </trkpt>
      <trkpt lat="47.16727" lon="-1.625">
        <ele>65</ele>
        <time>2021-03-20T15:51:39.000Z</time>
      </trkpt>
      <trkpt lat="47.16745" lon="-1.62505">
        <ele>64</ele>
        <time>2021-03-20T15:51:42.000Z</time>
      </trkpt>
      <trkpt lat="47.16755" lon="-1.62509">
        <ele>64</ele>
        <time>2021-03-20T15:51:44.000Z</time>
      </trkpt>
      <trkpt lat="47.16765" lon="-1.62515">
        <ele>66</ele>
        <time>2021-03-20T15:51:46.000Z</time>
      </trkpt>
      <trkpt lat="47.16776" lon="-1.62522">
        <ele>67</ele>
        <time>2021-03-20T15:51:48.000Z</time>
      </trkpt>
      <trkpt lat="47.16786" lon="-1.6253">
        <ele>68</ele>
        <time>2021-03-20T15:51:50.000Z</time>
      </trkpt>
      <trkpt lat="47.16797" lon="-1.62537">
        <ele>67</ele>
        <time>2021-03-20T15:51:52.000Z</time>
      </trkpt>
      <trkpt lat="47.16806" lon="-1.62544">
        <ele>67</ele>
        <time>2021-03-20T15:51:54.000Z</time>
      </trkpt>
      <trkpt lat="47.16815" lon="-1.62551">
        <ele>69</ele>
        <time>2021-03-20T15:51:56.000Z</time>
      </trkpt>
      <trkpt lat="47.16825" lon="-1.62562">
        <ele>67</ele>
        <time>2021-03-20T15:51:58.000Z</time>
      </trkpt>
      <trkpt lat="47.16827" lon="-1.62586">
        <ele>67</ele>
        <time>2021-03-20T15:52:01.000Z</time>
      </trkpt>
      <trkpt lat="47.16821" lon="-1.62603">
        <ele>67</ele>
        <time>2021-03-20T15:52:03.000Z</time>
      </trkpt>
      <trkpt lat="47.16813" lon="-1.62616">
        <ele>66</ele>
        <time>2021-03-20T15:52:05.000Z</time>
      </trkpt>
      <trkpt lat="47.16808" lon="-1.62629">
        <ele>66</ele>
        <time>2021-03-20T15:52:07.000Z</time>
      </trkpt>
      <trkpt lat="47.16801" lon="-1.62643">
        <ele>66</ele>
        <time>2021-03-20T15:52:09.000Z</time>
      </trkpt>
      <trkpt lat="47.16795" lon="-1.62654">
        <ele>66</ele>
        <time>2021-03-20T15:52:11.000Z</time>
      </trkpt>
      <trkpt lat="47.16789" lon="-1.62669">
        <ele>65</ele>
        <time>2021-03-20T15:52:14.000Z</time>
      </trkpt>
      <trkpt lat="47.16779" lon="-1.62662">
        <ele>64</ele>
        <time>2021-03-20T15:52:19.000Z</time>
      </trkpt>
      <trkpt lat="47.16772" lon="-1.62653">
        <ele>62</ele>
        <time>2021-03-20T15:52:27.000Z</time>
      </trkpt>
    </trkseg>
  </trk>
</gpx>